<?xml version="1.0" encoding="UTF-8" standalone="no" ?>
<gpx xmlns="http://www.topografix.com/GPX/1/1" xmlns:xsi="http://www.w3.org/2001/XMLSchema-instance" xsi:schemaLocation="http://www.topografix.com/GPX/1/1 http://www.topografix.com/GPX/1/1/gpx.xsd" version="1.1" creator="VisuGPX - https://www.visugpx.com">
  <metadata>
    <name>2015-08-04 Bike ride-Amberieux en Dombes O</name>
    <desc><![CDATA[2015-08-04 Bike ride-Amberieux en Dombes O]]></desc>
  </metadata>
  <wpt lat="45.92483" lon="4.73708">
    <ele>122.8</ele>
    <name><![CDATA[2015-08-04 10:56 (Start)]]></name>
  </wpt>
  <wpt lat="45.92456" lon="4.73707">
    <ele>188.5</ele>
    <name><![CDATA[2015-08-04 10:56 (End)]]></name>
    <desc><![CDATA[Created by Google My Tracks on Android  Name: 2015-08-04 10:56 Activity type: biking Description: - Total distance: 45.06 km (28.0 mi) Total time: 2:01:50 Moving time: 1:56:42 Average speed: 22.19 km/h (13.8 mi/h) Average moving speed: 23.16 km/h (14.4 mi/h) Max speed: 50.28 km/h (31.2 mi/h) Average pace: 2:42 min/km (4:21 min/mi) Average moving pace: 2:35 min/km (4:10 min/mi) Fastest pace: 1:12 min/km (1:55 min/mi) Max elevation: 343 m (1125 ft) Min elevation: 123 m (403 ft) Elevation gain: 781 m (2564 ft) Max grade: 13 % Min grade: -18 % Recorded: 04/08/2015 10:56]]></desc>
  </wpt>
  <trk>
    <name><![CDATA[2015-08-04 10:56]]></name>
    <trkseg>
      <trkpt lat="45.92483" lon="4.73708">
        <ele>122.800003052</ele>
        <time>2015-08-04T08:56:01.444Z</time>
      </trkpt>
      <trkpt lat="45.92471" lon="4.73709">
        <ele>125.199996948</ele>
        <time>2015-08-04T08:56:09.816Z</time>
      </trkpt>
      <trkpt lat="45.92855" lon="4.73396">
        <ele>149.899993896</ele>
        <time>2015-08-04T08:58:28.719Z</time>
      </trkpt>
      <trkpt lat="45.92857" lon="4.73386">
        <ele>152</ele>
        <time>2015-08-04T08:58:29.957Z</time>
      </trkpt>
      <trkpt lat="45.92857" lon="4.73376">
        <ele>153.100006104</ele>
        <time>2015-08-04T08:58:30.71Z</time>
      </trkpt>
      <trkpt lat="45.92858" lon="4.73367">
        <ele>153.5</ele>
        <time>2015-08-04T08:58:31.797Z</time>
      </trkpt>
      <trkpt lat="45.92858" lon="4.73357">
        <ele>154</ele>
        <time>2015-08-04T08:58:32.711Z</time>
      </trkpt>
      <trkpt lat="45.92859" lon="4.73347">
        <ele>154.300003052</ele>
        <time>2015-08-04T08:58:33.75Z</time>
      </trkpt>
      <trkpt lat="45.92859" lon="4.73337">
        <ele>154.199996948</ele>
        <time>2015-08-04T08:58:34.715Z</time>
      </trkpt>
      <trkpt lat="45.9286" lon="4.73327">
        <ele>154</ele>
        <time>2015-08-04T08:58:35.75Z</time>
      </trkpt>
      <trkpt lat="45.92861" lon="4.73317">
        <ele>154</ele>
        <time>2015-08-04T08:58:36.711Z</time>
      </trkpt>
      <trkpt lat="45.92862" lon="4.73307">
        <ele>154.199996948</ele>
        <time>2015-08-04T08:58:37.752Z</time>
      </trkpt>
      <trkpt lat="45.92864" lon="4.73298">
        <ele>153.600006104</ele>
        <time>2015-08-04T08:58:38.711Z</time>
      </trkpt>
      <trkpt lat="45.92865" lon="4.73288">
        <ele>153.699996948</ele>
        <time>2015-08-04T08:58:39.751Z</time>
      </trkpt>
      <trkpt lat="45.92866" lon="4.73279">
        <ele>154</ele>
        <time>2015-08-04T08:58:40.715Z</time>
      </trkpt>
      <trkpt lat="45.92867" lon="4.73269">
        <ele>154.199996948</ele>
        <time>2015-08-04T08:58:41.769Z</time>
      </trkpt>
      <trkpt lat="45.92868" lon="4.73259">
        <ele>154.300003052</ele>
        <time>2015-08-04T08:58:42.718Z</time>
      </trkpt>
      <trkpt lat="45.92869" lon="4.73249">
        <ele>154.300003052</ele>
        <time>2015-08-04T08:58:43.747Z</time>
      </trkpt>
      <trkpt lat="45.9287" lon="4.73239">
        <ele>154.100006104</ele>
        <time>2015-08-04T08:58:44.716Z</time>
      </trkpt>
      <trkpt lat="45.92871" lon="4.7323">
        <ele>154.100006104</ele>
        <time>2015-08-04T08:58:45.751Z</time>
      </trkpt>
      <trkpt lat="45.92873" lon="4.73221">
        <ele>154.300003052</ele>
        <time>2015-08-04T08:58:46.715Z</time>
      </trkpt>
      <trkpt lat="45.92874" lon="4.73211">
        <ele>154.399993896</ele>
        <time>2015-08-04T08:58:47.764Z</time>
      </trkpt>
      <trkpt lat="45.92875" lon="4.73202">
        <ele>154.399993896</ele>
        <time>2015-08-04T08:58:48.712Z</time>
      </trkpt>
      <trkpt lat="45.92877" lon="4.73193">
        <ele>154.5</ele>
        <time>2015-08-04T08:58:49.816Z</time>
      </trkpt>
      <trkpt lat="45.92878" lon="4.73184">
        <ele>154.600006104</ele>
        <time>2015-08-04T08:58:50.713Z</time>
      </trkpt>
      <trkpt lat="45.92879" lon="4.73174">
        <ele>154.699996948</ele>
        <time>2015-08-04T08:58:51.762Z</time>
      </trkpt>
      <trkpt lat="45.9288" lon="4.73165">
        <ele>155</ele>
        <time>2015-08-04T08:58:52.715Z</time>
      </trkpt>
      <trkpt lat="45.92881" lon="4.73156">
        <ele>155.100006104</ele>
        <time>2015-08-04T08:58:53.75Z</time>
      </trkpt>
      <trkpt lat="45.92883" lon="4.73146">
        <ele>155.199996948</ele>
        <time>2015-08-04T08:58:54.718Z</time>
      </trkpt>
      <trkpt lat="45.92884" lon="4.73136">
        <ele>155.600006104</ele>
        <time>2015-08-04T08:58:55.753Z</time>
      </trkpt>
      <trkpt lat="45.92885" lon="4.73127">
        <ele>155.899993896</ele>
        <time>2015-08-04T08:58:56.71Z</time>
      </trkpt>
      <trkpt lat="45.92887" lon="4.73118">
        <ele>156.300003052</ele>
        <time>2015-08-04T08:58:57.754Z</time>
      </trkpt>
      <trkpt lat="45.92889" lon="4.73109">
        <ele>156.5</ele>
        <time>2015-08-04T08:58:58.718Z</time>
      </trkpt>
      <trkpt lat="45.92892" lon="4.731">
        <ele>156.699996948</ele>
        <time>2015-08-04T08:58:59.753Z</time>
      </trkpt>
      <trkpt lat="45.92895" lon="4.73091">
        <ele>156.800003052</ele>
        <time>2015-08-04T08:59:00.71Z</time>
      </trkpt>
      <trkpt lat="45.92898" lon="4.73082">
        <ele>156.800003052</ele>
        <time>2015-08-04T08:59:01.772Z</time>
      </trkpt>
      <trkpt lat="45.92902" lon="4.73075">
        <ele>156.899993896</ele>
        <time>2015-08-04T08:59:02.715Z</time>
      </trkpt>
      <trkpt lat="45.92906" lon="4.73068">
        <ele>156.899993896</ele>
        <time>2015-08-04T08:59:04.028Z</time>
      </trkpt>
      <trkpt lat="45.92911" lon="4.73061">
        <ele>156.899993896</ele>
        <time>2015-08-04T08:59:04.722Z</time>
      </trkpt>
      <trkpt lat="45.92915" lon="4.73054">
        <ele>156.899993896</ele>
        <time>2015-08-04T08:59:05.751Z</time>
      </trkpt>
      <trkpt lat="45.9292" lon="4.73048">
        <ele>156.600006104</ele>
        <time>2015-08-04T08:59:06.714Z</time>
      </trkpt>
      <trkpt lat="45.92924" lon="4.73042">
        <ele>156.600006104</ele>
        <time>2015-08-04T08:59:07.752Z</time>
      </trkpt>
      <trkpt lat="45.9293" lon="4.73036">
        <ele>156.5</ele>
        <time>2015-08-04T08:59:08.714Z</time>
      </trkpt>
      <trkpt lat="45.92934" lon="4.73029">
        <ele>156.5</ele>
        <time>2015-08-04T08:59:09.755Z</time>
      </trkpt>
      <trkpt lat="45.92939" lon="4.73023">
        <ele>156.5</ele>
        <time>2015-08-04T08:59:10.715Z</time>
      </trkpt>
      <trkpt lat="45.92945" lon="4.73017">
        <ele>156.399993896</ele>
        <time>2015-08-04T08:59:11.762Z</time>
      </trkpt>
      <trkpt lat="45.9295" lon="4.7301">
        <ele>156.399993896</ele>
        <time>2015-08-04T08:59:12.71Z</time>
      </trkpt>
      <trkpt lat="45.92955" lon="4.73003">
        <ele>156.300003052</ele>
        <time>2015-08-04T08:59:13.755Z</time>
      </trkpt>
      <trkpt lat="45.9296" lon="4.72997">
        <ele>156.199996948</ele>
        <time>2015-08-04T08:59:14.712Z</time>
      </trkpt>
      <trkpt lat="45.92966" lon="4.7299">
        <ele>156.100006104</ele>
        <time>2015-08-04T08:59:15.848Z</time>
      </trkpt>
      <trkpt lat="45.9297" lon="4.72983">
        <ele>155.899993896</ele>
        <time>2015-08-04T08:59:16.713Z</time>
      </trkpt>
      <trkpt lat="45.92975" lon="4.72976">
        <ele>156</ele>
        <time>2015-08-04T08:59:17.75Z</time>
      </trkpt>
      <trkpt lat="45.9298" lon="4.7297">
        <ele>155.899993896</ele>
        <time>2015-08-04T08:59:18.733Z</time>
      </trkpt>
      <trkpt lat="45.92985" lon="4.72964">
        <ele>155.899993896</ele>
        <time>2015-08-04T08:59:19.752Z</time>
      </trkpt>
      <trkpt lat="45.9299" lon="4.72958">
        <ele>155.699996948</ele>
        <time>2015-08-04T08:59:20.708Z</time>
      </trkpt>
      <trkpt lat="45.92995" lon="4.72952">
        <ele>155.800003052</ele>
        <time>2015-08-04T08:59:21.893Z</time>
      </trkpt>
      <trkpt lat="45.93" lon="4.72946">
        <ele>155.699996948</ele>
        <time>2015-08-04T08:59:22.72Z</time>
      </trkpt>
      <trkpt lat="45.93004" lon="4.72939">
        <ele>156</ele>
        <time>2015-08-04T08:59:23.756Z</time>
      </trkpt>
      <trkpt lat="45.93009" lon="4.72933">
        <ele>156.399993896</ele>
        <time>2015-08-04T08:59:24.715Z</time>
      </trkpt>
      <trkpt lat="45.93013" lon="4.72926">
        <ele>156.699996948</ele>
        <time>2015-08-04T08:59:25.746Z</time>
      </trkpt>
      <trkpt lat="45.93018" lon="4.72919">
        <ele>156.800003052</ele>
        <time>2015-08-04T08:59:26.712Z</time>
      </trkpt>
      <trkpt lat="45.93023" lon="4.72913">
        <ele>157</ele>
        <time>2015-08-04T08:59:27.757Z</time>
      </trkpt>
      <trkpt lat="45.93027" lon="4.72906">
        <ele>157.100006104</ele>
        <time>2015-08-04T08:59:28.722Z</time>
      </trkpt>
      <trkpt lat="45.93032" lon="4.729">
        <ele>157.300003052</ele>
        <time>2015-08-04T08:59:30.026Z</time>
      </trkpt>
      <trkpt lat="45.93038" lon="4.72893">
        <ele>157.100006104</ele>
        <time>2015-08-04T08:59:30.715Z</time>
      </trkpt>
      <trkpt lat="45.93042" lon="4.72885">
        <ele>157</ele>
        <time>2015-08-04T08:59:31.77Z</time>
      </trkpt>
      <trkpt lat="45.93047" lon="4.72879">
        <ele>157</ele>
        <time>2015-08-04T08:59:32.712Z</time>
      </trkpt>
      <trkpt lat="45.93053" lon="4.72872">
        <ele>156.899993896</ele>
        <time>2015-08-04T08:59:33.806Z</time>
      </trkpt>
      <trkpt lat="45.93058" lon="4.72865">
        <ele>156.800003052</ele>
        <time>2015-08-04T08:59:34.713Z</time>
      </trkpt>
      <trkpt lat="45.93064" lon="4.72859">
        <ele>156.699996948</ele>
        <time>2015-08-04T08:59:35.752Z</time>
      </trkpt>
      <trkpt lat="45.93069" lon="4.72853">
        <ele>156.899993896</ele>
        <time>2015-08-04T08:59:36.712Z</time>
      </trkpt>
      <trkpt lat="45.93075" lon="4.72846">
        <ele>156.899993896</ele>
        <time>2015-08-04T08:59:37.773Z</time>
      </trkpt>
      <trkpt lat="45.93081" lon="4.72839">
        <ele>156.899993896</ele>
        <time>2015-08-04T08:59:38.712Z</time>
      </trkpt>
      <trkpt lat="45.93087" lon="4.72832">
        <ele>156.899993896</ele>
        <time>2015-08-04T08:59:39.756Z</time>
      </trkpt>
      <trkpt lat="45.93093" lon="4.72825">
        <ele>156.899993896</ele>
        <time>2015-08-04T08:59:40.751Z</time>
      </trkpt>
      <trkpt lat="45.931" lon="4.72818">
        <ele>156.899993896</ele>
        <time>2015-08-04T08:59:41.786Z</time>
      </trkpt>
      <trkpt lat="45.93107" lon="4.72813">
        <ele>156.899993896</ele>
        <time>2015-08-04T08:59:42.718Z</time>
      </trkpt>
      <trkpt lat="45.93112" lon="4.72805">
        <ele>156.899993896</ele>
        <time>2015-08-04T08:59:43.751Z</time>
      </trkpt>
      <trkpt lat="45.93118" lon="4.72802">
        <ele>156.899993896</ele>
        <time>2015-08-04T08:59:44.712Z</time>
      </trkpt>
      <trkpt lat="45.93124" lon="4.72792">
        <ele>156.800003052</ele>
        <time>2015-08-04T08:59:45.762Z</time>
      </trkpt>
      <trkpt lat="45.93132" lon="4.72784">
        <ele>156.5</ele>
        <time>2015-08-04T08:59:46.719Z</time>
      </trkpt>
      <trkpt lat="45.93138" lon="4.72777">
        <ele>156.300003052</ele>
        <time>2015-08-04T08:59:47.769Z</time>
      </trkpt>
      <trkpt lat="45.93145" lon="4.7277">
        <ele>156.100006104</ele>
        <time>2015-08-04T08:59:48.719Z</time>
      </trkpt>
      <trkpt lat="45.9315" lon="4.72764">
        <ele>156</ele>
        <time>2015-08-04T08:59:49.772Z</time>
      </trkpt>
      <trkpt lat="45.93154" lon="4.72758">
        <ele>155.899993896</ele>
        <time>2015-08-04T08:59:50.717Z</time>
      </trkpt>
      <trkpt lat="45.93159" lon="4.72752">
        <ele>155.800003052</ele>
        <time>2015-08-04T08:59:51.749Z</time>
      </trkpt>
      <trkpt lat="45.93163" lon="4.72747">
        <ele>155.699996948</ele>
        <time>2015-08-04T08:59:52.719Z</time>
      </trkpt>
      <trkpt lat="45.93167" lon="4.72741">
        <ele>155.699996948</ele>
        <time>2015-08-04T08:59:53.754Z</time>
      </trkpt>
      <trkpt lat="45.9317" lon="4.72737">
        <ele>155.5</ele>
        <time>2015-08-04T08:59:54.717Z</time>
      </trkpt>
      <trkpt lat="45.93175" lon="4.72731">
        <ele>155.399993896</ele>
        <time>2015-08-04T08:59:55.806Z</time>
      </trkpt>
      <trkpt lat="45.93179" lon="4.72725">
        <ele>155.5</ele>
        <time>2015-08-04T08:59:56.716Z</time>
      </trkpt>
      <trkpt lat="45.93183" lon="4.72719">
        <ele>155.600006104</ele>
        <time>2015-08-04T08:59:57.756Z</time>
      </trkpt>
      <trkpt lat="45.93188" lon="4.72713">
        <ele>155.600006104</ele>
        <time>2015-08-04T08:59:58.747Z</time>
      </trkpt>
      <trkpt lat="45.93192" lon="4.72707">
        <ele>155.600006104</ele>
        <time>2015-08-04T08:59:59.755Z</time>
      </trkpt>
      <trkpt lat="45.93195" lon="4.72702">
        <ele>155.699996948</ele>
        <time>2015-08-04T09:00:00.714Z</time>
      </trkpt>
      <trkpt lat="45.932" lon="4.72696">
        <ele>155.699996948</ele>
        <time>2015-08-04T09:00:01.765Z</time>
      </trkpt>
      <trkpt lat="45.93205" lon="4.7269">
        <ele>155.699996948</ele>
        <time>2015-08-04T09:00:02.707Z</time>
      </trkpt>
      <trkpt lat="45.9321" lon="4.72684">
        <ele>155.699996948</ele>
        <time>2015-08-04T09:00:03.768Z</time>
      </trkpt>
      <trkpt lat="45.93214" lon="4.72678">
        <ele>155.600006104</ele>
        <time>2015-08-04T09:00:04.719Z</time>
      </trkpt>
      <trkpt lat="45.93219" lon="4.72672">
        <ele>155.199996948</ele>
        <time>2015-08-04T09:00:05.754Z</time>
      </trkpt>
      <trkpt lat="45.93224" lon="4.72666">
        <ele>155.300003052</ele>
        <time>2015-08-04T09:00:06.718Z</time>
      </trkpt>
      <trkpt lat="45.93229" lon="4.72661">
        <ele>155.199996948</ele>
        <time>2015-08-04T09:00:07.749Z</time>
      </trkpt>
      <trkpt lat="45.93235" lon="4.72656">
        <ele>155</ele>
        <time>2015-08-04T09:00:08.715Z</time>
      </trkpt>
      <trkpt lat="45.9324" lon="4.72651">
        <ele>154.600006104</ele>
        <time>2015-08-04T09:00:09.751Z</time>
      </trkpt>
      <trkpt lat="45.93246" lon="4.72644">
        <ele>154.399993896</ele>
        <time>2015-08-04T09:00:10.717Z</time>
      </trkpt>
      <trkpt lat="45.93251" lon="4.72639">
        <ele>154.399993896</ele>
        <time>2015-08-04T09:00:11.747Z</time>
      </trkpt>
      <trkpt lat="45.93256" lon="4.72633">
        <ele>154.300003052</ele>
        <time>2015-08-04T09:00:12.713Z</time>
      </trkpt>
      <trkpt lat="45.93261" lon="4.72627">
        <ele>154.899993896</ele>
        <time>2015-08-04T09:00:13.754Z</time>
      </trkpt>
      <trkpt lat="45.93267" lon="4.72621">
        <ele>154.899993896</ele>
        <time>2015-08-04T09:00:14.715Z</time>
      </trkpt>
      <trkpt lat="45.93271" lon="4.72615">
        <ele>155.100006104</ele>
        <time>2015-08-04T09:00:15.764Z</time>
      </trkpt>
      <trkpt lat="45.93276" lon="4.72608">
        <ele>155.399993896</ele>
        <time>2015-08-04T09:00:16.715Z</time>
      </trkpt>
      <trkpt lat="45.93281" lon="4.72602">
        <ele>155.899993896</ele>
        <time>2015-08-04T09:00:17.749Z</time>
      </trkpt>
      <trkpt lat="45.93286" lon="4.72595">
        <ele>156.300003052</ele>
        <time>2015-08-04T09:00:18.708Z</time>
      </trkpt>
      <trkpt lat="45.93292" lon="4.72589">
        <ele>156.800003052</ele>
        <time>2015-08-04T09:00:19.754Z</time>
      </trkpt>
      <trkpt lat="45.93297" lon="4.72582">
        <ele>156.800003052</ele>
        <time>2015-08-04T09:00:20.716Z</time>
      </trkpt>
      <trkpt lat="45.93303" lon="4.72576">
        <ele>156.800003052</ele>
        <time>2015-08-04T09:00:21.754Z</time>
      </trkpt>
      <trkpt lat="45.93308" lon="4.7257">
        <ele>157</ele>
        <time>2015-08-04T09:00:22.713Z</time>
      </trkpt>
      <trkpt lat="45.93313" lon="4.72563">
        <ele>157.100006104</ele>
        <time>2015-08-04T09:00:23.816Z</time>
      </trkpt>
      <trkpt lat="45.93318" lon="4.72557">
        <ele>157.5</ele>
        <time>2015-08-04T09:00:24.712Z</time>
      </trkpt>
      <trkpt lat="45.93323" lon="4.72551">
        <ele>158</ele>
        <time>2015-08-04T09:00:25.747Z</time>
      </trkpt>
      <trkpt lat="45.93328" lon="4.72545">
        <ele>158.399993896</ele>
        <time>2015-08-04T09:00:26.716Z</time>
      </trkpt>
      <trkpt lat="45.93332" lon="4.7254">
        <ele>158.399993896</ele>
        <time>2015-08-04T09:00:27.751Z</time>
      </trkpt>
      <trkpt lat="45.93337" lon="4.72534">
        <ele>158.300003052</ele>
        <time>2015-08-04T09:00:28.715Z</time>
      </trkpt>
      <trkpt lat="45.93342" lon="4.72528">
        <ele>158.199996948</ele>
        <time>2015-08-04T09:00:29.753Z</time>
      </trkpt>
      <trkpt lat="45.93346" lon="4.72523">
        <ele>158.399993896</ele>
        <time>2015-08-04T09:00:30.715Z</time>
      </trkpt>
      <trkpt lat="45.93353" lon="4.72516">
        <ele>158.199996948</ele>
        <time>2015-08-04T09:00:31.777Z</time>
      </trkpt>
      <trkpt lat="45.9336" lon="4.7251">
        <ele>157.800003052</ele>
        <time>2015-08-04T09:00:32.756Z</time>
      </trkpt>
      <trkpt lat="45.93366" lon="4.72504">
        <ele>157.800003052</ele>
        <time>2015-08-04T09:00:33.746Z</time>
      </trkpt>
      <trkpt lat="45.93371" lon="4.72499">
        <ele>158.100006104</ele>
        <time>2015-08-04T09:00:34.751Z</time>
      </trkpt>
      <trkpt lat="45.93376" lon="4.72493">
        <ele>158</ele>
        <time>2015-08-04T09:00:35.755Z</time>
      </trkpt>
      <trkpt lat="45.93382" lon="4.72488">
        <ele>158.199996948</ele>
        <time>2015-08-04T09:00:36.71Z</time>
      </trkpt>
      <trkpt lat="45.93387" lon="4.72482">
        <ele>157.899993896</ele>
        <time>2015-08-04T09:00:37.754Z</time>
      </trkpt>
      <trkpt lat="45.93391" lon="4.72476">
        <ele>158</ele>
        <time>2015-08-04T09:00:38.714Z</time>
      </trkpt>
      <trkpt lat="45.93396" lon="4.7247">
        <ele>158.199996948</ele>
        <time>2015-08-04T09:00:39.761Z</time>
      </trkpt>
      <trkpt lat="45.93401" lon="4.72464">
        <ele>158.300003052</ele>
        <time>2015-08-04T09:00:40.715Z</time>
      </trkpt>
      <trkpt lat="45.93405" lon="4.72458">
        <ele>158.800003052</ele>
        <time>2015-08-04T09:00:41.878Z</time>
      </trkpt>
      <trkpt lat="45.93408" lon="4.72451">
        <ele>158.800003052</ele>
        <time>2015-08-04T09:00:42.714Z</time>
      </trkpt>
      <trkpt lat="45.9341" lon="4.72444">
        <ele>159.600006104</ele>
        <time>2015-08-04T09:00:43.75Z</time>
      </trkpt>
      <trkpt lat="45.93412" lon="4.72437">
        <ele>159.800003052</ele>
        <time>2015-08-04T09:00:44.716Z</time>
      </trkpt>
      <trkpt lat="45.93415" lon="4.7243">
        <ele>160.300003052</ele>
        <time>2015-08-04T09:00:45.753Z</time>
      </trkpt>
      <trkpt lat="45.93418" lon="4.72424">
        <ele>160.899993896</ele>
        <time>2015-08-04T09:00:46.716Z</time>
      </trkpt>
      <trkpt lat="45.93422" lon="4.72419">
        <ele>161</ele>
        <time>2015-08-04T09:00:47.817Z</time>
      </trkpt>
      <trkpt lat="45.93427" lon="4.72415">
        <ele>161</ele>
        <time>2015-08-04T09:00:48.714Z</time>
      </trkpt>
      <trkpt lat="45.93432" lon="4.72412">
        <ele>161.300003052</ele>
        <time>2015-08-04T09:00:49.753Z</time>
      </trkpt>
      <trkpt lat="45.93437" lon="4.72409">
        <ele>161.199996948</ele>
        <time>2015-08-04T09:00:50.716Z</time>
      </trkpt>
      <trkpt lat="45.93443" lon="4.72406">
        <ele>160.800003052</ele>
        <time>2015-08-04T09:00:51.745Z</time>
      </trkpt>
      <trkpt lat="45.93446" lon="4.72404">
        <ele>166.100006104</ele>
        <time>2015-08-04T09:00:52.702Z</time>
      </trkpt>
      <trkpt lat="45.93451" lon="4.72402">
        <ele>169.199996948</ele>
        <time>2015-08-04T09:00:53.763Z</time>
      </trkpt>
      <trkpt lat="45.93456" lon="4.72397">
        <ele>170.5</ele>
        <time>2015-08-04T09:00:54.71Z</time>
      </trkpt>
      <trkpt lat="45.9346" lon="4.72394">
        <ele>172.5</ele>
        <time>2015-08-04T09:00:55.751Z</time>
      </trkpt>
      <trkpt lat="45.93465" lon="4.7239">
        <ele>174.899993896</ele>
        <time>2015-08-04T09:00:56.71Z</time>
      </trkpt>
      <trkpt lat="45.9347" lon="4.72384">
        <ele>175.300003052</ele>
        <time>2015-08-04T09:00:57.774Z</time>
      </trkpt>
      <trkpt lat="45.93475" lon="4.72378">
        <ele>175.699996948</ele>
        <time>2015-08-04T09:00:58.715Z</time>
      </trkpt>
      <trkpt lat="45.93479" lon="4.72371">
        <ele>175.600006104</ele>
        <time>2015-08-04T09:00:59.866Z</time>
      </trkpt>
      <trkpt lat="45.93483" lon="4.72365">
        <ele>175.600006104</ele>
        <time>2015-08-04T09:01:00.716Z</time>
      </trkpt>
      <trkpt lat="45.93487" lon="4.72358">
        <ele>175.699996948</ele>
        <time>2015-08-04T09:01:01.753Z</time>
      </trkpt>
      <trkpt lat="45.93492" lon="4.7235">
        <ele>176</ele>
        <time>2015-08-04T09:01:02.716Z</time>
      </trkpt>
      <trkpt lat="45.93495" lon="4.72344">
        <ele>176.199996948</ele>
        <time>2015-08-04T09:01:03.755Z</time>
      </trkpt>
      <trkpt lat="45.93499" lon="4.72337">
        <ele>175.600006104</ele>
        <time>2015-08-04T09:01:04.712Z</time>
      </trkpt>
      <trkpt lat="45.93503" lon="4.72331">
        <ele>175.300003052</ele>
        <time>2015-08-04T09:01:05.758Z</time>
      </trkpt>
      <trkpt lat="45.93507" lon="4.72326">
        <ele>175</ele>
        <time>2015-08-04T09:01:06.71Z</time>
      </trkpt>
      <trkpt lat="45.93511" lon="4.72321">
        <ele>175.100006104</ele>
        <time>2015-08-04T09:01:07.752Z</time>
      </trkpt>
      <trkpt lat="45.93515" lon="4.72315">
        <ele>175.199996948</ele>
        <time>2015-08-04T09:01:08.713Z</time>
      </trkpt>
      <trkpt lat="45.93519" lon="4.72309">
        <ele>175.600006104</ele>
        <time>2015-08-04T09:01:09.77Z</time>
      </trkpt>
      <trkpt lat="45.93522" lon="4.72303">
        <ele>175.600006104</ele>
        <time>2015-08-04T09:01:10.751Z</time>
      </trkpt>
      <trkpt lat="45.93525" lon="4.72296">
        <ele>175.699996948</ele>
        <time>2015-08-04T09:01:11.749Z</time>
      </trkpt>
      <trkpt lat="45.93529" lon="4.72289">
        <ele>175.899993896</ele>
        <time>2015-08-04T09:01:12.711Z</time>
      </trkpt>
      <trkpt lat="45.93531" lon="4.72283">
        <ele>176.100006104</ele>
        <time>2015-08-04T09:01:13.75Z</time>
      </trkpt>
      <trkpt lat="45.93534" lon="4.72276">
        <ele>176.399993896</ele>
        <time>2015-08-04T09:01:14.716Z</time>
      </trkpt>
      <trkpt lat="45.93537" lon="4.7227">
        <ele>176.699996948</ele>
        <time>2015-08-04T09:01:15.758Z</time>
      </trkpt>
      <trkpt lat="45.9354" lon="4.72263">
        <ele>177.100006104</ele>
        <time>2015-08-04T09:01:16.713Z</time>
      </trkpt>
      <trkpt lat="45.93543" lon="4.72257">
        <ele>177.300003052</ele>
        <time>2015-08-04T09:01:17.748Z</time>
      </trkpt>
      <trkpt lat="45.93546" lon="4.72249">
        <ele>177.300003052</ele>
        <time>2015-08-04T09:01:18.71Z</time>
      </trkpt>
      <trkpt lat="45.93549" lon="4.72242">
        <ele>178</ele>
        <time>2015-08-04T09:01:19.749Z</time>
      </trkpt>
      <trkpt lat="45.93552" lon="4.72235">
        <ele>178.100006104</ele>
        <time>2015-08-04T09:01:20.716Z</time>
      </trkpt>
      <trkpt lat="45.93556" lon="4.7223">
        <ele>178.5</ele>
        <time>2015-08-04T09:01:21.756Z</time>
      </trkpt>
      <trkpt lat="45.93562" lon="4.72227">
        <ele>179</ele>
        <time>2015-08-04T09:01:22.713Z</time>
      </trkpt>
      <trkpt lat="45.93567" lon="4.72229">
        <ele>179.399993896</ele>
        <time>2015-08-04T09:01:23.756Z</time>
      </trkpt>
      <trkpt lat="45.93572" lon="4.72233">
        <ele>179.600006104</ele>
        <time>2015-08-04T09:01:24.713Z</time>
      </trkpt>
      <trkpt lat="45.93577" lon="4.72237">
        <ele>179.800003052</ele>
        <time>2015-08-04T09:01:25.751Z</time>
      </trkpt>
      <trkpt lat="45.93582" lon="4.72243">
        <ele>180</ele>
        <time>2015-08-04T09:01:26.716Z</time>
      </trkpt>
      <trkpt lat="45.93586" lon="4.72247">
        <ele>180.100006104</ele>
        <time>2015-08-04T09:01:27.756Z</time>
      </trkpt>
      <trkpt lat="45.9359" lon="4.72252">
        <ele>180.5</ele>
        <time>2015-08-04T09:01:28.769Z</time>
      </trkpt>
      <trkpt lat="45.93595" lon="4.72256">
        <ele>180.800003052</ele>
        <time>2015-08-04T09:01:29.755Z</time>
      </trkpt>
      <trkpt lat="45.93599" lon="4.72261">
        <ele>181</ele>
        <time>2015-08-04T09:01:30.716Z</time>
      </trkpt>
      <trkpt lat="45.93604" lon="4.72265">
        <ele>181.199996948</ele>
        <time>2015-08-04T09:01:31.755Z</time>
      </trkpt>
      <trkpt lat="45.93609" lon="4.72269">
        <ele>181.5</ele>
        <time>2015-08-04T09:01:32.717Z</time>
      </trkpt>
      <trkpt lat="45.93614" lon="4.72275">
        <ele>181.600006104</ele>
        <time>2015-08-04T09:01:33.753Z</time>
      </trkpt>
      <trkpt lat="45.93619" lon="4.7228">
        <ele>181.800003052</ele>
        <time>2015-08-04T09:01:34.714Z</time>
      </trkpt>
      <trkpt lat="45.93624" lon="4.72284">
        <ele>182.100006104</ele>
        <time>2015-08-04T09:01:35.746Z</time>
      </trkpt>
      <trkpt lat="45.93629" lon="4.72287">
        <ele>182.399993896</ele>
        <time>2015-08-04T09:01:36.711Z</time>
      </trkpt>
      <trkpt lat="45.93633" lon="4.72291">
        <ele>182.699996948</ele>
        <time>2015-08-04T09:01:37.746Z</time>
      </trkpt>
      <trkpt lat="45.93637" lon="4.72294">
        <ele>182.899993896</ele>
        <time>2015-08-04T09:01:38.712Z</time>
      </trkpt>
      <trkpt lat="45.93642" lon="4.72299">
        <ele>183.199996948</ele>
        <time>2015-08-04T09:01:39.749Z</time>
      </trkpt>
      <trkpt lat="45.93646" lon="4.72303">
        <ele>183.600006104</ele>
        <time>2015-08-04T09:01:40.712Z</time>
      </trkpt>
      <trkpt lat="45.93652" lon="4.72309">
        <ele>183.899993896</ele>
        <time>2015-08-04T09:01:41.747Z</time>
      </trkpt>
      <trkpt lat="45.93657" lon="4.72314">
        <ele>184.199996948</ele>
        <time>2015-08-04T09:01:42.71Z</time>
      </trkpt>
      <trkpt lat="45.93662" lon="4.72318">
        <ele>184.5</ele>
        <time>2015-08-04T09:01:43.746Z</time>
      </trkpt>
      <trkpt lat="45.93667" lon="4.72324">
        <ele>184.699996948</ele>
        <time>2015-08-04T09:01:44.712Z</time>
      </trkpt>
      <trkpt lat="45.93671" lon="4.72329">
        <ele>185</ele>
        <time>2015-08-04T09:01:45.75Z</time>
      </trkpt>
      <trkpt lat="45.93679" lon="4.72335">
        <ele>185.100006104</ele>
        <time>2015-08-04T09:01:46.747Z</time>
      </trkpt>
      <trkpt lat="45.93685" lon="4.7234">
        <ele>185.300003052</ele>
        <time>2015-08-04T09:01:47.752Z</time>
      </trkpt>
      <trkpt lat="45.9369" lon="4.72345">
        <ele>185.699996948</ele>
        <time>2015-08-04T09:01:48.716Z</time>
      </trkpt>
      <trkpt lat="45.93695" lon="4.72349">
        <ele>186.100006104</ele>
        <time>2015-08-04T09:01:49.775Z</time>
      </trkpt>
      <trkpt lat="45.937" lon="4.72353">
        <ele>186.5</ele>
        <time>2015-08-04T09:01:50.71Z</time>
      </trkpt>
      <trkpt lat="45.93705" lon="4.72359">
        <ele>186.600006104</ele>
        <time>2015-08-04T09:01:51.821Z</time>
      </trkpt>
      <trkpt lat="45.93711" lon="4.72365">
        <ele>186.899993896</ele>
        <time>2015-08-04T09:01:52.713Z</time>
      </trkpt>
      <trkpt lat="45.93717" lon="4.72373">
        <ele>186.899993896</ele>
        <time>2015-08-04T09:01:53.749Z</time>
      </trkpt>
      <trkpt lat="45.93722" lon="4.72378">
        <ele>186.800003052</ele>
        <time>2015-08-04T09:01:54.712Z</time>
      </trkpt>
      <trkpt lat="45.93727" lon="4.72384">
        <ele>187</ele>
        <time>2015-08-04T09:01:55.75Z</time>
      </trkpt>
      <trkpt lat="45.93732" lon="4.72389">
        <ele>186.800003052</ele>
        <time>2015-08-04T09:01:56.716Z</time>
      </trkpt>
      <trkpt lat="45.93736" lon="4.72394">
        <ele>186.899993896</ele>
        <time>2015-08-04T09:01:57.752Z</time>
      </trkpt>
      <trkpt lat="45.93741" lon="4.72399">
        <ele>186.899993896</ele>
        <time>2015-08-04T09:01:58.714Z</time>
      </trkpt>
      <trkpt lat="45.93746" lon="4.72404">
        <ele>186.699996948</ele>
        <time>2015-08-04T09:01:59.796Z</time>
      </trkpt>
      <trkpt lat="45.93752" lon="4.72409">
        <ele>186.699996948</ele>
        <time>2015-08-04T09:02:00.717Z</time>
      </trkpt>
      <trkpt lat="45.93756" lon="4.72415">
        <ele>186.600006104</ele>
        <time>2015-08-04T09:02:01.753Z</time>
      </trkpt>
      <trkpt lat="45.93761" lon="4.7242">
        <ele>186.699996948</ele>
        <time>2015-08-04T09:02:02.713Z</time>
      </trkpt>
      <trkpt lat="45.93766" lon="4.72426">
        <ele>186.600006104</ele>
        <time>2015-08-04T09:02:03.753Z</time>
      </trkpt>
      <trkpt lat="45.93772" lon="4.72432">
        <ele>186.5</ele>
        <time>2015-08-04T09:02:04.712Z</time>
      </trkpt>
      <trkpt lat="45.93776" lon="4.72436">
        <ele>186.5</ele>
        <time>2015-08-04T09:02:05.752Z</time>
      </trkpt>
      <trkpt lat="45.93783" lon="4.72441">
        <ele>186.5</ele>
        <time>2015-08-04T09:02:06.716Z</time>
      </trkpt>
      <trkpt lat="45.93788" lon="4.72446">
        <ele>186.600006104</ele>
        <time>2015-08-04T09:02:07.749Z</time>
      </trkpt>
      <trkpt lat="45.93794" lon="4.72451">
        <ele>186.5</ele>
        <time>2015-08-04T09:02:08.709Z</time>
      </trkpt>
      <trkpt lat="45.93798" lon="4.72456">
        <ele>186.699996948</ele>
        <time>2015-08-04T09:02:09.768Z</time>
      </trkpt>
      <trkpt lat="45.93802" lon="4.7246">
        <ele>186.899993896</ele>
        <time>2015-08-04T09:02:10.712Z</time>
      </trkpt>
      <trkpt lat="45.93807" lon="4.72466">
        <ele>187.100006104</ele>
        <time>2015-08-04T09:02:11.749Z</time>
      </trkpt>
      <trkpt lat="45.93812" lon="4.72471">
        <ele>187.300003052</ele>
        <time>2015-08-04T09:02:12.712Z</time>
      </trkpt>
      <trkpt lat="45.93819" lon="4.72475">
        <ele>187.800003052</ele>
        <time>2015-08-04T09:02:13.751Z</time>
      </trkpt>
      <trkpt lat="45.93826" lon="4.72479">
        <ele>188.199996948</ele>
        <time>2015-08-04T09:02:14.716Z</time>
      </trkpt>
      <trkpt lat="45.9383" lon="4.72483">
        <ele>188.600006104</ele>
        <time>2015-08-04T09:02:15.767Z</time>
      </trkpt>
      <trkpt lat="45.93835" lon="4.72487">
        <ele>188.899993896</ele>
        <time>2015-08-04T09:02:16.712Z</time>
      </trkpt>
      <trkpt lat="45.9384" lon="4.72492">
        <ele>189.100006104</ele>
        <time>2015-08-04T09:02:17.753Z</time>
      </trkpt>
      <trkpt lat="45.93845" lon="4.72498">
        <ele>189.300003052</ele>
        <time>2015-08-04T09:02:18.716Z</time>
      </trkpt>
      <trkpt lat="45.93851" lon="4.72503">
        <ele>189.5</ele>
        <time>2015-08-04T09:02:19.75Z</time>
      </trkpt>
      <trkpt lat="45.93856" lon="4.72508">
        <ele>189.800003052</ele>
        <time>2015-08-04T09:02:20.716Z</time>
      </trkpt>
      <trkpt lat="45.93861" lon="4.72513">
        <ele>190</ele>
        <time>2015-08-04T09:02:21.754Z</time>
      </trkpt>
      <trkpt lat="45.93865" lon="4.7252">
        <ele>190.199996948</ele>
        <time>2015-08-04T09:02:22.713Z</time>
      </trkpt>
      <trkpt lat="45.93868" lon="4.72522">
        <ele>190.300003052</ele>
        <time>2015-08-04T09:02:23.758Z</time>
      </trkpt>
      <trkpt lat="45.93874" lon="4.72523">
        <ele>189.800003052</ele>
        <time>2015-08-04T09:02:24.709Z</time>
      </trkpt>
      <trkpt lat="45.9388" lon="4.72523">
        <ele>189.699996948</ele>
        <time>2015-08-04T09:02:25.757Z</time>
      </trkpt>
      <trkpt lat="45.93885" lon="4.7252">
        <ele>189.699996948</ele>
        <time>2015-08-04T09:02:26.709Z</time>
      </trkpt>
      <trkpt lat="45.93889" lon="4.72516">
        <ele>189.699996948</ele>
        <time>2015-08-04T09:02:27.748Z</time>
      </trkpt>
      <trkpt lat="45.93893" lon="4.72511">
        <ele>189.600006104</ele>
        <time>2015-08-04T09:02:28.713Z</time>
      </trkpt>
      <trkpt lat="45.93896" lon="4.72505">
        <ele>189.399993896</ele>
        <time>2015-08-04T09:02:29.747Z</time>
      </trkpt>
      <trkpt lat="45.939" lon="4.72499">
        <ele>189.399993896</ele>
        <time>2015-08-04T09:02:30.712Z</time>
      </trkpt>
      <trkpt lat="45.93905" lon="4.72493">
        <ele>189.300003052</ele>
        <time>2015-08-04T09:02:31.756Z</time>
      </trkpt>
      <trkpt lat="45.93909" lon="4.72487">
        <ele>189.5</ele>
        <time>2015-08-04T09:02:32.709Z</time>
      </trkpt>
      <trkpt lat="45.93914" lon="4.72481">
        <ele>189.800003052</ele>
        <time>2015-08-04T09:02:33.749Z</time>
      </trkpt>
      <trkpt lat="45.93919" lon="4.72475">
        <ele>189.600006104</ele>
        <time>2015-08-04T09:02:34.713Z</time>
      </trkpt>
      <trkpt lat="45.93924" lon="4.7247">
        <ele>189.699996948</ele>
        <time>2015-08-04T09:02:35.807Z</time>
      </trkpt>
      <trkpt lat="45.93929" lon="4.72463">
        <ele>189.699996948</ele>
        <time>2015-08-04T09:02:36.716Z</time>
      </trkpt>
      <trkpt lat="45.93934" lon="4.72458">
        <ele>189.699996948</ele>
        <time>2015-08-04T09:02:37.747Z</time>
      </trkpt>
      <trkpt lat="45.93939" lon="4.72452">
        <ele>189.800003052</ele>
        <time>2015-08-04T09:02:38.712Z</time>
      </trkpt>
      <trkpt lat="45.93944" lon="4.72445">
        <ele>189.899993896</ele>
        <time>2015-08-04T09:02:39.75Z</time>
      </trkpt>
      <trkpt lat="45.9395" lon="4.72438">
        <ele>189.399993896</ele>
        <time>2015-08-04T09:02:40.751Z</time>
      </trkpt>
      <trkpt lat="45.93955" lon="4.72432">
        <ele>189.300003052</ele>
        <time>2015-08-04T09:02:41.746Z</time>
      </trkpt>
      <trkpt lat="45.9396" lon="4.72425">
        <ele>189.300003052</ele>
        <time>2015-08-04T09:02:42.71Z</time>
      </trkpt>
      <trkpt lat="45.93966" lon="4.72418">
        <ele>189.300003052</ele>
        <time>2015-08-04T09:02:43.75Z</time>
      </trkpt>
      <trkpt lat="45.93971" lon="4.72411">
        <ele>189.199996948</ele>
        <time>2015-08-04T09:02:44.761Z</time>
      </trkpt>
      <trkpt lat="45.93977" lon="4.72404">
        <ele>189.100006104</ele>
        <time>2015-08-04T09:02:45.766Z</time>
      </trkpt>
      <trkpt lat="45.93983" lon="4.72396">
        <ele>189.199996948</ele>
        <time>2015-08-04T09:02:46.712Z</time>
      </trkpt>
      <trkpt lat="45.93989" lon="4.7239">
        <ele>188.899993896</ele>
        <time>2015-08-04T09:02:47.75Z</time>
      </trkpt>
      <trkpt lat="45.93995" lon="4.72383">
        <ele>188.800003052</ele>
        <time>2015-08-04T09:02:48.714Z</time>
      </trkpt>
      <trkpt lat="45.94001" lon="4.72376">
        <ele>188.399993896</ele>
        <time>2015-08-04T09:02:49.749Z</time>
      </trkpt>
      <trkpt lat="45.94007" lon="4.72369">
        <ele>188.199996948</ele>
        <time>2015-08-04T09:02:50.708Z</time>
      </trkpt>
      <trkpt lat="45.94012" lon="4.72362">
        <ele>188.199996948</ele>
        <time>2015-08-04T09:02:51.764Z</time>
      </trkpt>
      <trkpt lat="45.94018" lon="4.72355">
        <ele>187.699996948</ele>
        <time>2015-08-04T09:02:52.711Z</time>
      </trkpt>
      <trkpt lat="45.94024" lon="4.72348">
        <ele>186.600006104</ele>
        <time>2015-08-04T09:02:53.744Z</time>
      </trkpt>
      <trkpt lat="45.94029" lon="4.72341">
        <ele>186.399993896</ele>
        <time>2015-08-04T09:02:54.716Z</time>
      </trkpt>
      <trkpt lat="45.94034" lon="4.72334">
        <ele>186</ele>
        <time>2015-08-04T09:02:55.746Z</time>
      </trkpt>
      <trkpt lat="45.9404" lon="4.72328">
        <ele>185.800003052</ele>
        <time>2015-08-04T09:02:56.709Z</time>
      </trkpt>
      <trkpt lat="45.94045" lon="4.72321">
        <ele>185</ele>
        <time>2015-08-04T09:02:57.749Z</time>
      </trkpt>
      <trkpt lat="45.9405" lon="4.72314">
        <ele>184.399993896</ele>
        <time>2015-08-04T09:02:58.753Z</time>
      </trkpt>
      <trkpt lat="45.94055" lon="4.72308">
        <ele>184.100006104</ele>
        <time>2015-08-04T09:02:59.751Z</time>
      </trkpt>
      <trkpt lat="45.94059" lon="4.72301">
        <ele>183.600006104</ele>
        <time>2015-08-04T09:03:00.71Z</time>
      </trkpt>
      <trkpt lat="45.94064" lon="4.72295">
        <ele>183.699996948</ele>
        <time>2015-08-04T09:03:01.912Z</time>
      </trkpt>
      <trkpt lat="45.94069" lon="4.72289">
        <ele>183.5</ele>
        <time>2015-08-04T09:03:02.712Z</time>
      </trkpt>
      <trkpt lat="45.94074" lon="4.72284">
        <ele>183.600006104</ele>
        <time>2015-08-04T09:03:03.809Z</time>
      </trkpt>
      <trkpt lat="45.94079" lon="4.72278">
        <ele>183.300003052</ele>
        <time>2015-08-04T09:03:04.713Z</time>
      </trkpt>
      <trkpt lat="45.94085" lon="4.72274">
        <ele>183.100006104</ele>
        <time>2015-08-04T09:03:05.747Z</time>
      </trkpt>
      <trkpt lat="45.9409" lon="4.7227">
        <ele>183.100006104</ele>
        <time>2015-08-04T09:03:06.715Z</time>
      </trkpt>
      <trkpt lat="45.94095" lon="4.72266">
        <ele>182.899993896</ele>
        <time>2015-08-04T09:03:07.746Z</time>
      </trkpt>
      <trkpt lat="45.94101" lon="4.72265">
        <ele>182.800003052</ele>
        <time>2015-08-04T09:03:08.709Z</time>
      </trkpt>
      <trkpt lat="45.94107" lon="4.72265">
        <ele>183.199996948</ele>
        <time>2015-08-04T09:03:09.746Z</time>
      </trkpt>
      <trkpt lat="45.94113" lon="4.72266">
        <ele>182.600006104</ele>
        <time>2015-08-04T09:03:10.713Z</time>
      </trkpt>
      <trkpt lat="45.94119" lon="4.72269">
        <ele>184</ele>
        <time>2015-08-04T09:03:11.745Z</time>
      </trkpt>
      <trkpt lat="45.94124" lon="4.72272">
        <ele>183.5</ele>
        <time>2015-08-04T09:03:12.715Z</time>
      </trkpt>
      <trkpt lat="45.9413" lon="4.72276">
        <ele>182.800003052</ele>
        <time>2015-08-04T09:03:13.749Z</time>
      </trkpt>
      <trkpt lat="45.94136" lon="4.72279">
        <ele>182.800003052</ele>
        <time>2015-08-04T09:03:14.71Z</time>
      </trkpt>
      <trkpt lat="45.94142" lon="4.72281">
        <ele>182.100006104</ele>
        <time>2015-08-04T09:03:15.748Z</time>
      </trkpt>
      <trkpt lat="45.94147" lon="4.72284">
        <ele>181.600006104</ele>
        <time>2015-08-04T09:03:16.749Z</time>
      </trkpt>
      <trkpt lat="45.94153" lon="4.72286">
        <ele>181.5</ele>
        <time>2015-08-04T09:03:17.766Z</time>
      </trkpt>
      <trkpt lat="45.94158" lon="4.72287">
        <ele>181.300003052</ele>
        <time>2015-08-04T09:03:18.714Z</time>
      </trkpt>
      <trkpt lat="45.94164" lon="4.72289">
        <ele>180.100006104</ele>
        <time>2015-08-04T09:03:19.75Z</time>
      </trkpt>
      <trkpt lat="45.9417" lon="4.7229">
        <ele>179.699996948</ele>
        <time>2015-08-04T09:03:20.709Z</time>
      </trkpt>
      <trkpt lat="45.94175" lon="4.72291">
        <ele>179.600006104</ele>
        <time>2015-08-04T09:03:21.746Z</time>
      </trkpt>
      <trkpt lat="45.94181" lon="4.72291">
        <ele>179</ele>
        <time>2015-08-04T09:03:22.714Z</time>
      </trkpt>
      <trkpt lat="45.94187" lon="4.72292">
        <ele>178.100006104</ele>
        <time>2015-08-04T09:03:23.758Z</time>
      </trkpt>
      <trkpt lat="45.94193" lon="4.72292">
        <ele>178</ele>
        <time>2015-08-04T09:03:24.71Z</time>
      </trkpt>
      <trkpt lat="45.94199" lon="4.72292">
        <ele>177.899993896</ele>
        <time>2015-08-04T09:03:25.75Z</time>
      </trkpt>
      <trkpt lat="45.94205" lon="4.72292">
        <ele>178.300003052</ele>
        <time>2015-08-04T09:03:26.709Z</time>
      </trkpt>
      <trkpt lat="45.94211" lon="4.72292">
        <ele>178.300003052</ele>
        <time>2015-08-04T09:03:27.751Z</time>
      </trkpt>
      <trkpt lat="45.94218" lon="4.72292">
        <ele>178.800003052</ele>
        <time>2015-08-04T09:03:28.713Z</time>
      </trkpt>
      <trkpt lat="45.94224" lon="4.72291">
        <ele>179</ele>
        <time>2015-08-04T09:03:29.771Z</time>
      </trkpt>
      <trkpt lat="45.9423" lon="4.7229">
        <ele>180.100006104</ele>
        <time>2015-08-04T09:03:30.71Z</time>
      </trkpt>
      <trkpt lat="45.94236" lon="4.72289">
        <ele>181.100006104</ele>
        <time>2015-08-04T09:03:31.749Z</time>
      </trkpt>
      <trkpt lat="45.94241" lon="4.72288">
        <ele>181.5</ele>
        <time>2015-08-04T09:03:32.709Z</time>
      </trkpt>
      <trkpt lat="45.94246" lon="4.72286">
        <ele>182.399993896</ele>
        <time>2015-08-04T09:03:33.749Z</time>
      </trkpt>
      <trkpt lat="45.94251" lon="4.72285">
        <ele>183.5</ele>
        <time>2015-08-04T09:03:34.707Z</time>
      </trkpt>
      <trkpt lat="45.94255" lon="4.72284">
        <ele>183.800003052</ele>
        <time>2015-08-04T09:03:35.749Z</time>
      </trkpt>
      <trkpt lat="45.94261" lon="4.72281">
        <ele>184.300003052</ele>
        <time>2015-08-04T09:03:36.715Z</time>
      </trkpt>
      <trkpt lat="45.94266" lon="4.7228">
        <ele>184</ele>
        <time>2015-08-04T09:03:37.752Z</time>
      </trkpt>
      <trkpt lat="45.94271" lon="4.72279">
        <ele>183.899993896</ele>
        <time>2015-08-04T09:03:38.723Z</time>
      </trkpt>
      <trkpt lat="45.94279" lon="4.72282">
        <ele>184.100006104</ele>
        <time>2015-08-04T09:03:40.753Z</time>
      </trkpt>
      <trkpt lat="45.94282" lon="4.72286">
        <ele>184.300003052</ele>
        <time>2015-08-04T09:03:41.711Z</time>
      </trkpt>
      <trkpt lat="45.94288" lon="4.72295">
        <ele>183.800003052</ele>
        <time>2015-08-04T09:03:43.77Z</time>
      </trkpt>
      <trkpt lat="45.9429" lon="4.723">
        <ele>183.899993896</ele>
        <time>2015-08-04T09:03:44.709Z</time>
      </trkpt>
      <trkpt lat="45.94293" lon="4.72306">
        <ele>183.5</ele>
        <time>2015-08-04T09:03:45.75Z</time>
      </trkpt>
      <trkpt lat="45.94296" lon="4.72312">
        <ele>183.600006104</ele>
        <time>2015-08-04T09:03:46.712Z</time>
      </trkpt>
      <trkpt lat="45.94299" lon="4.72318">
        <ele>183</ele>
        <time>2015-08-04T09:03:47.746Z</time>
      </trkpt>
      <trkpt lat="45.94301" lon="4.72325">
        <ele>182.600006104</ele>
        <time>2015-08-04T09:03:48.716Z</time>
      </trkpt>
      <trkpt lat="45.94305" lon="4.72332">
        <ele>182.399993896</ele>
        <time>2015-08-04T09:03:49.745Z</time>
      </trkpt>
      <trkpt lat="45.94309" lon="4.72338">
        <ele>182.300003052</ele>
        <time>2015-08-04T09:03:50.712Z</time>
      </trkpt>
      <trkpt lat="45.94312" lon="4.72345">
        <ele>182.399993896</ele>
        <time>2015-08-04T09:03:51.747Z</time>
      </trkpt>
      <trkpt lat="45.94314" lon="4.72352">
        <ele>182.199996948</ele>
        <time>2015-08-04T09:03:52.713Z</time>
      </trkpt>
      <trkpt lat="45.94317" lon="4.72359">
        <ele>182.300003052</ele>
        <time>2015-08-04T09:03:53.747Z</time>
      </trkpt>
      <trkpt lat="45.94321" lon="4.72366">
        <ele>182.800003052</ele>
        <time>2015-08-04T09:03:54.716Z</time>
      </trkpt>
      <trkpt lat="45.94324" lon="4.72372">
        <ele>183.100006104</ele>
        <time>2015-08-04T09:03:55.747Z</time>
      </trkpt>
      <trkpt lat="45.94327" lon="4.72379">
        <ele>183.5</ele>
        <time>2015-08-04T09:03:56.712Z</time>
      </trkpt>
      <trkpt lat="45.9433" lon="4.72386">
        <ele>183.899993896</ele>
        <time>2015-08-04T09:03:57.746Z</time>
      </trkpt>
      <trkpt lat="45.94334" lon="4.72394">
        <ele>184.300003052</ele>
        <time>2015-08-04T09:03:58.713Z</time>
      </trkpt>
      <trkpt lat="45.94337" lon="4.72401">
        <ele>184.600006104</ele>
        <time>2015-08-04T09:03:59.77Z</time>
      </trkpt>
      <trkpt lat="45.94341" lon="4.72409">
        <ele>185.399993896</ele>
        <time>2015-08-04T09:04:00.706Z</time>
      </trkpt>
      <trkpt lat="45.94344" lon="4.72416">
        <ele>185.5</ele>
        <time>2015-08-04T09:04:01.75Z</time>
      </trkpt>
      <trkpt lat="45.94347" lon="4.72422">
        <ele>185.600006104</ele>
        <time>2015-08-04T09:04:02.711Z</time>
      </trkpt>
      <trkpt lat="45.9435" lon="4.72429">
        <ele>185.699996948</ele>
        <time>2015-08-04T09:04:03.754Z</time>
      </trkpt>
      <trkpt lat="45.94354" lon="4.72435">
        <ele>185.800003052</ele>
        <time>2015-08-04T09:04:04.712Z</time>
      </trkpt>
      <trkpt lat="45.94357" lon="4.72442">
        <ele>185.899993896</ele>
        <time>2015-08-04T09:04:05.75Z</time>
      </trkpt>
      <trkpt lat="45.94361" lon="4.72449">
        <ele>186.399993896</ele>
        <time>2015-08-04T09:04:06.715Z</time>
      </trkpt>
      <trkpt lat="45.94364" lon="4.72456">
        <ele>186.800003052</ele>
        <time>2015-08-04T09:04:07.752Z</time>
      </trkpt>
      <trkpt lat="45.94366" lon="4.72464">
        <ele>186.899993896</ele>
        <time>2015-08-04T09:04:08.708Z</time>
      </trkpt>
      <trkpt lat="45.94367" lon="4.72472">
        <ele>187.399993896</ele>
        <time>2015-08-04T09:04:09.759Z</time>
      </trkpt>
      <trkpt lat="45.9437" lon="4.7248">
        <ele>187.699996948</ele>
        <time>2015-08-04T09:04:10.71Z</time>
      </trkpt>
      <trkpt lat="45.94373" lon="4.72488">
        <ele>188.100006104</ele>
        <time>2015-08-04T09:04:11.752Z</time>
      </trkpt>
      <trkpt lat="45.94376" lon="4.72495">
        <ele>188.399993896</ele>
        <time>2015-08-04T09:04:12.715Z</time>
      </trkpt>
      <trkpt lat="45.94378" lon="4.72503">
        <ele>188.600006104</ele>
        <time>2015-08-04T09:04:13.749Z</time>
      </trkpt>
      <trkpt lat="45.9438" lon="4.72512">
        <ele>188.899993896</ele>
        <time>2015-08-04T09:04:14.71Z</time>
      </trkpt>
      <trkpt lat="45.94382" lon="4.72519">
        <ele>189.300003052</ele>
        <time>2015-08-04T09:04:15.771Z</time>
      </trkpt>
      <trkpt lat="45.94384" lon="4.72527">
        <ele>189.699996948</ele>
        <time>2015-08-04T09:04:16.712Z</time>
      </trkpt>
      <trkpt lat="45.94386" lon="4.72535">
        <ele>190</ele>
        <time>2015-08-04T09:04:17.747Z</time>
      </trkpt>
      <trkpt lat="45.94387" lon="4.72543">
        <ele>190.300003052</ele>
        <time>2015-08-04T09:04:18.745Z</time>
      </trkpt>
      <trkpt lat="45.94389" lon="4.72551">
        <ele>190.600006104</ele>
        <time>2015-08-04T09:04:19.769Z</time>
      </trkpt>
      <trkpt lat="45.9439" lon="4.72559">
        <ele>190.899993896</ele>
        <time>2015-08-04T09:04:20.71Z</time>
      </trkpt>
      <trkpt lat="45.94391" lon="4.72567">
        <ele>191.300003052</ele>
        <time>2015-08-04T09:04:21.754Z</time>
      </trkpt>
      <trkpt lat="45.94393" lon="4.72575">
        <ele>191.600006104</ele>
        <time>2015-08-04T09:04:22.713Z</time>
      </trkpt>
      <trkpt lat="45.94393" lon="4.72585">
        <ele>192.100006104</ele>
        <time>2015-08-04T09:04:23.753Z</time>
      </trkpt>
      <trkpt lat="45.94395" lon="4.72594">
        <ele>192.600006104</ele>
        <time>2015-08-04T09:04:24.715Z</time>
      </trkpt>
      <trkpt lat="45.94395" lon="4.72603">
        <ele>193</ele>
        <time>2015-08-04T09:04:25.766Z</time>
      </trkpt>
      <trkpt lat="45.94396" lon="4.72612">
        <ele>193.399993896</ele>
        <time>2015-08-04T09:04:26.709Z</time>
      </trkpt>
      <trkpt lat="45.94397" lon="4.72621">
        <ele>193.800003052</ele>
        <time>2015-08-04T09:04:27.754Z</time>
      </trkpt>
      <trkpt lat="45.94399" lon="4.72629">
        <ele>194.300003052</ele>
        <time>2015-08-04T09:04:28.711Z</time>
      </trkpt>
      <trkpt lat="45.944" lon="4.72638">
        <ele>194.5</ele>
        <time>2015-08-04T09:04:29.756Z</time>
      </trkpt>
      <trkpt lat="45.94402" lon="4.72647">
        <ele>194.800003052</ele>
        <time>2015-08-04T09:04:30.716Z</time>
      </trkpt>
      <trkpt lat="45.94403" lon="4.72655">
        <ele>195.100006104</ele>
        <time>2015-08-04T09:04:31.756Z</time>
      </trkpt>
      <trkpt lat="45.94403" lon="4.72665">
        <ele>195.5</ele>
        <time>2015-08-04T09:04:32.713Z</time>
      </trkpt>
      <trkpt lat="45.94404" lon="4.72673">
        <ele>195.800003052</ele>
        <time>2015-08-04T09:04:33.76Z</time>
      </trkpt>
      <trkpt lat="45.94404" lon="4.72682">
        <ele>196</ele>
        <time>2015-08-04T09:04:34.717Z</time>
      </trkpt>
      <trkpt lat="45.94405" lon="4.72691">
        <ele>196.300003052</ele>
        <time>2015-08-04T09:04:35.758Z</time>
      </trkpt>
      <trkpt lat="45.94406" lon="4.72699">
        <ele>196.399993896</ele>
        <time>2015-08-04T09:04:36.712Z</time>
      </trkpt>
      <trkpt lat="45.94408" lon="4.72707">
        <ele>196.5</ele>
        <time>2015-08-04T09:04:37.82Z</time>
      </trkpt>
      <trkpt lat="45.94408" lon="4.72715">
        <ele>196.699996948</ele>
        <time>2015-08-04T09:04:38.709Z</time>
      </trkpt>
      <trkpt lat="45.94411" lon="4.72725">
        <ele>196.699996948</ele>
        <time>2015-08-04T09:04:39.743Z</time>
      </trkpt>
      <trkpt lat="45.94411" lon="4.72734">
        <ele>196.899993896</ele>
        <time>2015-08-04T09:04:40.713Z</time>
      </trkpt>
      <trkpt lat="45.94412" lon="4.72741">
        <ele>197.100006104</ele>
        <time>2015-08-04T09:04:41.763Z</time>
      </trkpt>
      <trkpt lat="45.94413" lon="4.72748">
        <ele>197.300003052</ele>
        <time>2015-08-04T09:04:42.715Z</time>
      </trkpt>
      <trkpt lat="45.94414" lon="4.72756">
        <ele>197.600006104</ele>
        <time>2015-08-04T09:04:43.752Z</time>
      </trkpt>
      <trkpt lat="45.94416" lon="4.72763">
        <ele>197.899993896</ele>
        <time>2015-08-04T09:04:44.719Z</time>
      </trkpt>
      <trkpt lat="45.94416" lon="4.72771">
        <ele>198.199996948</ele>
        <time>2015-08-04T09:04:45.752Z</time>
      </trkpt>
      <trkpt lat="45.94417" lon="4.72779">
        <ele>198.5</ele>
        <time>2015-08-04T09:04:46.713Z</time>
      </trkpt>
      <trkpt lat="45.94419" lon="4.72786">
        <ele>198.5</ele>
        <time>2015-08-04T09:04:47.747Z</time>
      </trkpt>
      <trkpt lat="45.9442" lon="4.72793">
        <ele>198.699996948</ele>
        <time>2015-08-04T09:04:48.756Z</time>
      </trkpt>
      <trkpt lat="45.94422" lon="4.728">
        <ele>198.800003052</ele>
        <time>2015-08-04T09:04:49.756Z</time>
      </trkpt>
      <trkpt lat="45.94423" lon="4.72806">
        <ele>199.199996948</ele>
        <time>2015-08-04T09:04:50.711Z</time>
      </trkpt>
      <trkpt lat="45.94425" lon="4.72818">
        <ele>199.899993896</ele>
        <time>2015-08-04T09:04:52.749Z</time>
      </trkpt>
      <trkpt lat="45.94425" lon="4.72823">
        <ele>199.800003052</ele>
        <time>2015-08-04T09:04:53.711Z</time>
      </trkpt>
      <trkpt lat="45.94428" lon="4.72834">
        <ele>199.699996948</ele>
        <time>2015-08-04T09:04:55.748Z</time>
      </trkpt>
      <trkpt lat="45.94428" lon="4.72839">
        <ele>199.5</ele>
        <time>2015-08-04T09:04:56.711Z</time>
      </trkpt>
      <trkpt lat="45.94431" lon="4.7285">
        <ele>197.800003052</ele>
        <time>2015-08-04T09:04:58.767Z</time>
      </trkpt>
      <trkpt lat="45.94432" lon="4.72855">
        <ele>197.399993896</ele>
        <time>2015-08-04T09:04:59.789Z</time>
      </trkpt>
      <trkpt lat="45.94434" lon="4.72865">
        <ele>196.399993896</ele>
        <time>2015-08-04T09:05:01.754Z</time>
      </trkpt>
      <trkpt lat="45.94434" lon="4.7287">
        <ele>196.399993896</ele>
        <time>2015-08-04T09:05:02.711Z</time>
      </trkpt>
      <trkpt lat="45.94435" lon="4.72881">
        <ele>196.899993896</ele>
        <time>2015-08-04T09:05:04.784Z</time>
      </trkpt>
      <trkpt lat="45.94436" lon="4.72887">
        <ele>196.899993896</ele>
        <time>2015-08-04T09:05:05.709Z</time>
      </trkpt>
      <trkpt lat="45.94438" lon="4.72899">
        <ele>197</ele>
        <time>2015-08-04T09:05:07.77Z</time>
      </trkpt>
      <trkpt lat="45.94438" lon="4.72906">
        <ele>197.100006104</ele>
        <time>2015-08-04T09:05:08.746Z</time>
      </trkpt>
      <trkpt lat="45.9444" lon="4.72913">
        <ele>197</ele>
        <time>2015-08-04T09:05:09.745Z</time>
      </trkpt>
      <trkpt lat="45.94441" lon="4.7292">
        <ele>196.899993896</ele>
        <time>2015-08-04T09:05:10.712Z</time>
      </trkpt>
      <trkpt lat="45.94442" lon="4.72928">
        <ele>196.899993896</ele>
        <time>2015-08-04T09:05:11.744Z</time>
      </trkpt>
      <trkpt lat="45.94443" lon="4.72936">
        <ele>196.899993896</ele>
        <time>2015-08-04T09:05:12.71Z</time>
      </trkpt>
      <trkpt lat="45.94444" lon="4.72943">
        <ele>196.800003052</ele>
        <time>2015-08-04T09:05:13.749Z</time>
      </trkpt>
      <trkpt lat="45.94446" lon="4.72951">
        <ele>196.600006104</ele>
        <time>2015-08-04T09:05:14.711Z</time>
      </trkpt>
      <trkpt lat="45.94448" lon="4.72959">
        <ele>196.5</ele>
        <time>2015-08-04T09:05:15.755Z</time>
      </trkpt>
      <trkpt lat="45.94449" lon="4.72967">
        <ele>196.5</ele>
        <time>2015-08-04T09:05:16.758Z</time>
      </trkpt>
      <trkpt lat="45.94451" lon="4.72976">
        <ele>196.399993896</ele>
        <time>2015-08-04T09:05:17.756Z</time>
      </trkpt>
      <trkpt lat="45.94452" lon="4.72985">
        <ele>196.100006104</ele>
        <time>2015-08-04T09:05:18.71Z</time>
      </trkpt>
      <trkpt lat="45.94454" lon="4.72994">
        <ele>195.800003052</ele>
        <time>2015-08-04T09:05:19.745Z</time>
      </trkpt>
      <trkpt lat="45.94455" lon="4.73004">
        <ele>195.5</ele>
        <time>2015-08-04T09:05:20.709Z</time>
      </trkpt>
      <trkpt lat="45.94457" lon="4.73014">
        <ele>195.300003052</ele>
        <time>2015-08-04T09:05:21.763Z</time>
      </trkpt>
      <trkpt lat="45.94458" lon="4.73024">
        <ele>195.199996948</ele>
        <time>2015-08-04T09:05:22.711Z</time>
      </trkpt>
      <trkpt lat="45.94459" lon="4.73034">
        <ele>195.100006104</ele>
        <time>2015-08-04T09:05:23.751Z</time>
      </trkpt>
      <trkpt lat="45.94461" lon="4.73044">
        <ele>194.600006104</ele>
        <time>2015-08-04T09:05:24.711Z</time>
      </trkpt>
      <trkpt lat="45.94462" lon="4.73054">
        <ele>194.300003052</ele>
        <time>2015-08-04T09:05:25.752Z</time>
      </trkpt>
      <trkpt lat="45.94463" lon="4.73064">
        <ele>193.5</ele>
        <time>2015-08-04T09:05:26.712Z</time>
      </trkpt>
      <trkpt lat="45.94464" lon="4.73075">
        <ele>192.600006104</ele>
        <time>2015-08-04T09:05:27.751Z</time>
      </trkpt>
      <trkpt lat="45.94466" lon="4.73085">
        <ele>191.899993896</ele>
        <time>2015-08-04T09:05:28.711Z</time>
      </trkpt>
      <trkpt lat="45.94467" lon="4.73095">
        <ele>191.5</ele>
        <time>2015-08-04T09:05:29.926Z</time>
      </trkpt>
      <trkpt lat="45.94468" lon="4.73104">
        <ele>190.800003052</ele>
        <time>2015-08-04T09:05:30.711Z</time>
      </trkpt>
      <trkpt lat="45.94468" lon="4.73113">
        <ele>190.300003052</ele>
        <time>2015-08-04T09:05:31.752Z</time>
      </trkpt>
      <trkpt lat="45.9447" lon="4.73122">
        <ele>190</ele>
        <time>2015-08-04T09:05:32.709Z</time>
      </trkpt>
      <trkpt lat="45.9447" lon="4.7313">
        <ele>188.800003052</ele>
        <time>2015-08-04T09:05:33.756Z</time>
      </trkpt>
      <trkpt lat="45.94471" lon="4.73139">
        <ele>187.699996948</ele>
        <time>2015-08-04T09:05:34.711Z</time>
      </trkpt>
      <trkpt lat="45.94472" lon="4.73147">
        <ele>186.699996948</ele>
        <time>2015-08-04T09:05:35.749Z</time>
      </trkpt>
      <trkpt lat="45.94474" lon="4.73154">
        <ele>186.199996948</ele>
        <time>2015-08-04T09:05:36.716Z</time>
      </trkpt>
      <trkpt lat="45.94475" lon="4.73162">
        <ele>185.699996948</ele>
        <time>2015-08-04T09:05:37.753Z</time>
      </trkpt>
      <trkpt lat="45.94476" lon="4.73171">
        <ele>185.300003052</ele>
        <time>2015-08-04T09:05:38.729Z</time>
      </trkpt>
      <trkpt lat="45.94477" lon="4.73179">
        <ele>184.800003052</ele>
        <time>2015-08-04T09:05:39.752Z</time>
      </trkpt>
      <trkpt lat="45.94477" lon="4.73187">
        <ele>184.100006104</ele>
        <time>2015-08-04T09:05:40.713Z</time>
      </trkpt>
      <trkpt lat="45.94478" lon="4.73196">
        <ele>183.600006104</ele>
        <time>2015-08-04T09:05:41.759Z</time>
      </trkpt>
      <trkpt lat="45.94479" lon="4.73205">
        <ele>183.100006104</ele>
        <time>2015-08-04T09:05:42.716Z</time>
      </trkpt>
      <trkpt lat="45.9448" lon="4.73213">
        <ele>182.899993896</ele>
        <time>2015-08-04T09:05:43.745Z</time>
      </trkpt>
      <trkpt lat="45.94481" lon="4.7322">
        <ele>182.699996948</ele>
        <time>2015-08-04T09:05:44.71Z</time>
      </trkpt>
      <trkpt lat="45.94482" lon="4.73228">
        <ele>182.399993896</ele>
        <time>2015-08-04T09:05:45.756Z</time>
      </trkpt>
      <trkpt lat="45.94484" lon="4.73235">
        <ele>182</ele>
        <time>2015-08-04T09:05:46.713Z</time>
      </trkpt>
      <trkpt lat="45.94486" lon="4.73243">
        <ele>181.5</ele>
        <time>2015-08-04T09:05:47.753Z</time>
      </trkpt>
      <trkpt lat="45.94488" lon="4.7325">
        <ele>181.199996948</ele>
        <time>2015-08-04T09:05:48.716Z</time>
      </trkpt>
      <trkpt lat="45.94489" lon="4.73258">
        <ele>180.800003052</ele>
        <time>2015-08-04T09:05:49.753Z</time>
      </trkpt>
      <trkpt lat="45.94489" lon="4.73264">
        <ele>180.399993896</ele>
        <time>2015-08-04T09:05:50.709Z</time>
      </trkpt>
      <trkpt lat="45.9449" lon="4.73271">
        <ele>180</ele>
        <time>2015-08-04T09:05:51.751Z</time>
      </trkpt>
      <trkpt lat="45.94491" lon="4.73279">
        <ele>179.699996948</ele>
        <time>2015-08-04T09:05:52.709Z</time>
      </trkpt>
      <trkpt lat="45.94491" lon="4.73287">
        <ele>179.399993896</ele>
        <time>2015-08-04T09:05:53.761Z</time>
      </trkpt>
      <trkpt lat="45.94492" lon="4.73293">
        <ele>179.199996948</ele>
        <time>2015-08-04T09:05:54.71Z</time>
      </trkpt>
      <trkpt lat="45.94492" lon="4.73301">
        <ele>178.899993896</ele>
        <time>2015-08-04T09:05:55.751Z</time>
      </trkpt>
      <trkpt lat="45.94493" lon="4.73308">
        <ele>178.699996948</ele>
        <time>2015-08-04T09:05:56.71Z</time>
      </trkpt>
      <trkpt lat="45.94494" lon="4.73314">
        <ele>178.699996948</ele>
        <time>2015-08-04T09:05:57.772Z</time>
      </trkpt>
      <trkpt lat="45.94495" lon="4.73321">
        <ele>178.699996948</ele>
        <time>2015-08-04T09:05:58.713Z</time>
      </trkpt>
      <trkpt lat="45.94495" lon="4.73333">
        <ele>178.399993896</ele>
        <time>2015-08-04T09:06:00.755Z</time>
      </trkpt>
      <trkpt lat="45.94496" lon="4.7334">
        <ele>178.5</ele>
        <time>2015-08-04T09:06:01.718Z</time>
      </trkpt>
      <trkpt lat="45.94497" lon="4.73352">
        <ele>178.800003052</ele>
        <time>2015-08-04T09:06:03.769Z</time>
      </trkpt>
      <trkpt lat="45.94498" lon="4.73359">
        <ele>179.5</ele>
        <time>2015-08-04T09:06:04.709Z</time>
      </trkpt>
      <trkpt lat="45.94499" lon="4.73366">
        <ele>180.199996948</ele>
        <time>2015-08-04T09:06:05.748Z</time>
      </trkpt>
      <trkpt lat="45.94499" lon="4.73373">
        <ele>181</ele>
        <time>2015-08-04T09:06:06.712Z</time>
      </trkpt>
      <trkpt lat="45.94499" lon="4.73379">
        <ele>181.800003052</ele>
        <time>2015-08-04T09:06:07.748Z</time>
      </trkpt>
      <trkpt lat="45.945" lon="4.73386">
        <ele>182.399993896</ele>
        <time>2015-08-04T09:06:08.71Z</time>
      </trkpt>
      <trkpt lat="45.94501" lon="4.73393">
        <ele>183.199996948</ele>
        <time>2015-08-04T09:06:09.758Z</time>
      </trkpt>
      <trkpt lat="45.94501" lon="4.73399">
        <ele>183.600006104</ele>
        <time>2015-08-04T09:06:10.711Z</time>
      </trkpt>
      <trkpt lat="45.94501" lon="4.73406">
        <ele>183.899993896</ele>
        <time>2015-08-04T09:06:11.752Z</time>
      </trkpt>
      <trkpt lat="45.94501" lon="4.73413">
        <ele>184.100006104</ele>
        <time>2015-08-04T09:06:12.715Z</time>
      </trkpt>
      <trkpt lat="45.94501" lon="4.7342">
        <ele>184.199996948</ele>
        <time>2015-08-04T09:06:13.744Z</time>
      </trkpt>
      <trkpt lat="45.94501" lon="4.73427">
        <ele>184.399993896</ele>
        <time>2015-08-04T09:06:14.711Z</time>
      </trkpt>
      <trkpt lat="45.94501" lon="4.73433">
        <ele>184.5</ele>
        <time>2015-08-04T09:06:15.746Z</time>
      </trkpt>
      <trkpt lat="45.94501" lon="4.7344">
        <ele>184.5</ele>
        <time>2015-08-04T09:06:16.708Z</time>
      </trkpt>
      <trkpt lat="45.94501" lon="4.73447">
        <ele>184.600006104</ele>
        <time>2015-08-04T09:06:17.759Z</time>
      </trkpt>
      <trkpt lat="45.94501" lon="4.73454">
        <ele>184.300003052</ele>
        <time>2015-08-04T09:06:18.711Z</time>
      </trkpt>
      <trkpt lat="45.94501" lon="4.7346">
        <ele>184.199996948</ele>
        <time>2015-08-04T09:06:19.756Z</time>
      </trkpt>
      <trkpt lat="45.94501" lon="4.73467">
        <ele>183.5</ele>
        <time>2015-08-04T09:06:20.711Z</time>
      </trkpt>
      <trkpt lat="45.94502" lon="4.73479">
        <ele>183</ele>
        <time>2015-08-04T09:06:22.752Z</time>
      </trkpt>
      <trkpt lat="45.94502" lon="4.73485">
        <ele>182.399993896</ele>
        <time>2015-08-04T09:06:23.711Z</time>
      </trkpt>
      <trkpt lat="45.94502" lon="4.73496">
        <ele>182</ele>
        <time>2015-08-04T09:06:25.764Z</time>
      </trkpt>
      <trkpt lat="45.94502" lon="4.73502">
        <ele>181.800003052</ele>
        <time>2015-08-04T09:06:26.709Z</time>
      </trkpt>
      <trkpt lat="45.94502" lon="4.73514">
        <ele>181.899993896</ele>
        <time>2015-08-04T09:06:28.752Z</time>
      </trkpt>
      <trkpt lat="45.94502" lon="4.7352">
        <ele>181.699996948</ele>
        <time>2015-08-04T09:06:29.751Z</time>
      </trkpt>
      <trkpt lat="45.94502" lon="4.73531">
        <ele>180.699996948</ele>
        <time>2015-08-04T09:06:31.749Z</time>
      </trkpt>
      <trkpt lat="45.94501" lon="4.73537">
        <ele>180.899993896</ele>
        <time>2015-08-04T09:06:32.711Z</time>
      </trkpt>
      <trkpt lat="45.945" lon="4.73549">
        <ele>180.399993896</ele>
        <time>2015-08-04T09:06:34.75Z</time>
      </trkpt>
      <trkpt lat="45.94499" lon="4.73555">
        <ele>180.199996948</ele>
        <time>2015-08-04T09:06:35.748Z</time>
      </trkpt>
      <trkpt lat="45.94498" lon="4.73566">
        <ele>179.899993896</ele>
        <time>2015-08-04T09:06:37.745Z</time>
      </trkpt>
      <trkpt lat="45.94498" lon="4.73572">
        <ele>179.699996948</ele>
        <time>2015-08-04T09:06:38.727Z</time>
      </trkpt>
      <trkpt lat="45.94497" lon="4.73583">
        <ele>180</ele>
        <time>2015-08-04T09:06:40.755Z</time>
      </trkpt>
      <trkpt lat="45.94496" lon="4.73589">
        <ele>180</ele>
        <time>2015-08-04T09:06:41.71Z</time>
      </trkpt>
      <trkpt lat="45.94496" lon="4.73595">
        <ele>180.300003052</ele>
        <time>2015-08-04T09:06:42.771Z</time>
      </trkpt>
      <trkpt lat="45.94496" lon="4.73602">
        <ele>180.5</ele>
        <time>2015-08-04T09:06:43.709Z</time>
      </trkpt>
      <trkpt lat="45.94495" lon="4.73614">
        <ele>180.699996948</ele>
        <time>2015-08-04T09:06:45.756Z</time>
      </trkpt>
      <trkpt lat="45.94494" lon="4.7362">
        <ele>180.699996948</ele>
        <time>2015-08-04T09:06:46.729Z</time>
      </trkpt>
      <trkpt lat="45.94491" lon="4.73632">
        <ele>180.699996948</ele>
        <time>2015-08-04T09:06:48.759Z</time>
      </trkpt>
      <trkpt lat="45.9449" lon="4.73638">
        <ele>180.600006104</ele>
        <time>2015-08-04T09:06:49.739Z</time>
      </trkpt>
      <trkpt lat="45.94488" lon="4.7365">
        <ele>180.5</ele>
        <time>2015-08-04T09:06:51.764Z</time>
      </trkpt>
      <trkpt lat="45.94487" lon="4.73657">
        <ele>180</ele>
        <time>2015-08-04T09:06:52.708Z</time>
      </trkpt>
      <trkpt lat="45.94486" lon="4.73664">
        <ele>179.800003052</ele>
        <time>2015-08-04T09:06:53.78Z</time>
      </trkpt>
      <trkpt lat="45.94484" lon="4.73671">
        <ele>179.899993896</ele>
        <time>2015-08-04T09:06:54.714Z</time>
      </trkpt>
      <trkpt lat="45.94483" lon="4.73678">
        <ele>179.699996948</ele>
        <time>2015-08-04T09:06:55.75Z</time>
      </trkpt>
      <trkpt lat="45.94482" lon="4.73685">
        <ele>179.300003052</ele>
        <time>2015-08-04T09:06:56.71Z</time>
      </trkpt>
      <trkpt lat="45.94482" lon="4.73691">
        <ele>179.199996948</ele>
        <time>2015-08-04T09:06:57.749Z</time>
      </trkpt>
      <trkpt lat="45.94481" lon="4.73698">
        <ele>178.899993896</ele>
        <time>2015-08-04T09:06:58.712Z</time>
      </trkpt>
      <trkpt lat="45.9448" lon="4.73705">
        <ele>178.600006104</ele>
        <time>2015-08-04T09:06:59.796Z</time>
      </trkpt>
      <trkpt lat="45.94479" lon="4.73712">
        <ele>178.199996948</ele>
        <time>2015-08-04T09:07:00.709Z</time>
      </trkpt>
      <trkpt lat="45.94478" lon="4.73719">
        <ele>178.100006104</ele>
        <time>2015-08-04T09:07:01.747Z</time>
      </trkpt>
      <trkpt lat="45.94477" lon="4.73726">
        <ele>177.899993896</ele>
        <time>2015-08-04T09:07:02.712Z</time>
      </trkpt>
      <trkpt lat="45.94476" lon="4.73732">
        <ele>177.800003052</ele>
        <time>2015-08-04T09:07:03.747Z</time>
      </trkpt>
      <trkpt lat="45.94475" lon="4.73739">
        <ele>177.600006104</ele>
        <time>2015-08-04T09:07:04.712Z</time>
      </trkpt>
      <trkpt lat="45.94473" lon="4.73751">
        <ele>177</ele>
        <time>2015-08-04T09:07:06.751Z</time>
      </trkpt>
      <trkpt lat="45.94474" lon="4.73758">
        <ele>178.199996948</ele>
        <time>2015-08-04T09:07:07.733Z</time>
      </trkpt>
      <trkpt lat="45.94476" lon="4.73765">
        <ele>179.600006104</ele>
        <time>2015-08-04T09:07:08.745Z</time>
      </trkpt>
      <trkpt lat="45.9448" lon="4.73771">
        <ele>181.199996948</ele>
        <time>2015-08-04T09:07:09.709Z</time>
      </trkpt>
      <trkpt lat="45.94484" lon="4.73775">
        <ele>182.300003052</ele>
        <time>2015-08-04T09:07:10.762Z</time>
      </trkpt>
      <trkpt lat="45.94489" lon="4.73778">
        <ele>183.300003052</ele>
        <time>2015-08-04T09:07:11.708Z</time>
      </trkpt>
      <trkpt lat="45.94494" lon="4.73782">
        <ele>184.300003052</ele>
        <time>2015-08-04T09:07:12.753Z</time>
      </trkpt>
      <trkpt lat="45.94498" lon="4.73786">
        <ele>184.600006104</ele>
        <time>2015-08-04T09:07:13.709Z</time>
      </trkpt>
      <trkpt lat="45.94503" lon="4.73792">
        <ele>185</ele>
        <time>2015-08-04T09:07:14.75Z</time>
      </trkpt>
      <trkpt lat="45.94508" lon="4.73797">
        <ele>185.5</ele>
        <time>2015-08-04T09:07:15.709Z</time>
      </trkpt>
      <trkpt lat="45.94513" lon="4.73802">
        <ele>185.699996948</ele>
        <time>2015-08-04T09:07:16.772Z</time>
      </trkpt>
      <trkpt lat="45.94517" lon="4.73806">
        <ele>185.399993896</ele>
        <time>2015-08-04T09:07:17.71Z</time>
      </trkpt>
      <trkpt lat="45.94522" lon="4.7381">
        <ele>185.5</ele>
        <time>2015-08-04T09:07:18.826Z</time>
      </trkpt>
      <trkpt lat="45.94527" lon="4.73814">
        <ele>185.899993896</ele>
        <time>2015-08-04T09:07:19.711Z</time>
      </trkpt>
      <trkpt lat="45.94531" lon="4.73818">
        <ele>185.899993896</ele>
        <time>2015-08-04T09:07:20.757Z</time>
      </trkpt>
      <trkpt lat="45.94535" lon="4.73822">
        <ele>186.5</ele>
        <time>2015-08-04T09:07:21.713Z</time>
      </trkpt>
      <trkpt lat="45.94539" lon="4.73826">
        <ele>186.800003052</ele>
        <time>2015-08-04T09:07:22.755Z</time>
      </trkpt>
      <trkpt lat="45.94544" lon="4.7383">
        <ele>187</ele>
        <time>2015-08-04T09:07:23.696Z</time>
      </trkpt>
      <trkpt lat="45.94548" lon="4.73834">
        <ele>187.300003052</ele>
        <time>2015-08-04T09:07:24.751Z</time>
      </trkpt>
      <trkpt lat="45.94552" lon="4.73839">
        <ele>187.100006104</ele>
        <time>2015-08-04T09:07:25.708Z</time>
      </trkpt>
      <trkpt lat="45.94556" lon="4.73843">
        <ele>186.800003052</ele>
        <time>2015-08-04T09:07:26.766Z</time>
      </trkpt>
      <trkpt lat="45.94561" lon="4.73847">
        <ele>187</ele>
        <time>2015-08-04T09:07:27.71Z</time>
      </trkpt>
      <trkpt lat="45.94565" lon="4.73851">
        <ele>186.899993896</ele>
        <time>2015-08-04T09:07:28.846Z</time>
      </trkpt>
      <trkpt lat="45.94569" lon="4.73855">
        <ele>187</ele>
        <time>2015-08-04T09:07:29.71Z</time>
      </trkpt>
      <trkpt lat="45.94573" lon="4.7386">
        <ele>187.199996948</ele>
        <time>2015-08-04T09:07:30.748Z</time>
      </trkpt>
      <trkpt lat="45.94577" lon="4.73864">
        <ele>187.699996948</ele>
        <time>2015-08-04T09:07:31.709Z</time>
      </trkpt>
      <trkpt lat="45.94581" lon="4.73868">
        <ele>187.800003052</ele>
        <time>2015-08-04T09:07:32.751Z</time>
      </trkpt>
      <trkpt lat="45.94585" lon="4.73873">
        <ele>188</ele>
        <time>2015-08-04T09:07:33.702Z</time>
      </trkpt>
      <trkpt lat="45.94589" lon="4.73877">
        <ele>188.300003052</ele>
        <time>2015-08-04T09:07:34.755Z</time>
      </trkpt>
      <trkpt lat="45.94593" lon="4.73882">
        <ele>188.399993896</ele>
        <time>2015-08-04T09:07:35.708Z</time>
      </trkpt>
      <trkpt lat="45.94597" lon="4.73886">
        <ele>188.800003052</ele>
        <time>2015-08-04T09:07:36.752Z</time>
      </trkpt>
      <trkpt lat="45.94601" lon="4.7389">
        <ele>189.199996948</ele>
        <time>2015-08-04T09:07:37.71Z</time>
      </trkpt>
      <trkpt lat="45.94605" lon="4.73895">
        <ele>189.5</ele>
        <time>2015-08-04T09:07:38.804Z</time>
      </trkpt>
      <trkpt lat="45.94608" lon="4.739">
        <ele>190.100006104</ele>
        <time>2015-08-04T09:07:39.711Z</time>
      </trkpt>
      <trkpt lat="45.94612" lon="4.73905">
        <ele>190.600006104</ele>
        <time>2015-08-04T09:07:40.751Z</time>
      </trkpt>
      <trkpt lat="45.94616" lon="4.7391">
        <ele>191.100006104</ele>
        <time>2015-08-04T09:07:41.71Z</time>
      </trkpt>
      <trkpt lat="45.9462" lon="4.73915">
        <ele>191.5</ele>
        <time>2015-08-04T09:07:42.748Z</time>
      </trkpt>
      <trkpt lat="45.94624" lon="4.7392">
        <ele>191.600006104</ele>
        <time>2015-08-04T09:07:43.71Z</time>
      </trkpt>
      <trkpt lat="45.94628" lon="4.73925">
        <ele>192.399993896</ele>
        <time>2015-08-04T09:07:44.752Z</time>
      </trkpt>
      <trkpt lat="45.94633" lon="4.73929">
        <ele>193</ele>
        <time>2015-08-04T09:07:45.71Z</time>
      </trkpt>
      <trkpt lat="45.94637" lon="4.73934">
        <ele>193.699996948</ele>
        <time>2015-08-04T09:07:46.764Z</time>
      </trkpt>
      <trkpt lat="45.94641" lon="4.73939">
        <ele>194.100006104</ele>
        <time>2015-08-04T09:07:47.748Z</time>
      </trkpt>
      <trkpt lat="45.94644" lon="4.73944">
        <ele>194.300003052</ele>
        <time>2015-08-04T09:07:48.846Z</time>
      </trkpt>
      <trkpt lat="45.94649" lon="4.73949">
        <ele>194.5</ele>
        <time>2015-08-04T09:07:49.709Z</time>
      </trkpt>
      <trkpt lat="45.94653" lon="4.73954">
        <ele>194.800003052</ele>
        <time>2015-08-04T09:07:50.748Z</time>
      </trkpt>
      <trkpt lat="45.94656" lon="4.7396">
        <ele>194.800003052</ele>
        <time>2015-08-04T09:07:51.711Z</time>
      </trkpt>
      <trkpt lat="45.94661" lon="4.73964">
        <ele>195.100006104</ele>
        <time>2015-08-04T09:07:52.76Z</time>
      </trkpt>
      <trkpt lat="45.94665" lon="4.7397">
        <ele>195.399993896</ele>
        <time>2015-08-04T09:07:53.71Z</time>
      </trkpt>
      <trkpt lat="45.94669" lon="4.73974">
        <ele>195.800003052</ele>
        <time>2015-08-04T09:07:54.745Z</time>
      </trkpt>
      <trkpt lat="45.94672" lon="4.7398">
        <ele>196.5</ele>
        <time>2015-08-04T09:07:55.71Z</time>
      </trkpt>
      <trkpt lat="45.94676" lon="4.73985">
        <ele>196.800003052</ele>
        <time>2015-08-04T09:07:56.75Z</time>
      </trkpt>
      <trkpt lat="45.9468" lon="4.73989">
        <ele>197.199996948</ele>
        <time>2015-08-04T09:07:57.708Z</time>
      </trkpt>
      <trkpt lat="45.94683" lon="4.73994">
        <ele>197.199996948</ele>
        <time>2015-08-04T09:07:58.836Z</time>
      </trkpt>
      <trkpt lat="45.94687" lon="4.73999">
        <ele>197.399993896</ele>
        <time>2015-08-04T09:07:59.726Z</time>
      </trkpt>
      <trkpt lat="45.94691" lon="4.74004">
        <ele>197.699996948</ele>
        <time>2015-08-04T09:08:00.744Z</time>
      </trkpt>
      <trkpt lat="45.94695" lon="4.7401">
        <ele>197.800003052</ele>
        <time>2015-08-04T09:08:01.71Z</time>
      </trkpt>
      <trkpt lat="45.94699" lon="4.74015">
        <ele>198.100006104</ele>
        <time>2015-08-04T09:08:02.75Z</time>
      </trkpt>
      <trkpt lat="45.94703" lon="4.7402">
        <ele>198.300003052</ele>
        <time>2015-08-04T09:08:03.709Z</time>
      </trkpt>
      <trkpt lat="45.94706" lon="4.74025">
        <ele>198.199996948</ele>
        <time>2015-08-04T09:08:04.949Z</time>
      </trkpt>
      <trkpt lat="45.9471" lon="4.7403">
        <ele>198.399993896</ele>
        <time>2015-08-04T09:08:05.71Z</time>
      </trkpt>
      <trkpt lat="45.94713" lon="4.74035">
        <ele>198.399993896</ele>
        <time>2015-08-04T09:08:06.748Z</time>
      </trkpt>
      <trkpt lat="45.94717" lon="4.74039">
        <ele>198.5</ele>
        <time>2015-08-04T09:08:07.723Z</time>
      </trkpt>
      <trkpt lat="45.94721" lon="4.74044">
        <ele>198.699996948</ele>
        <time>2015-08-04T09:08:08.818Z</time>
      </trkpt>
      <trkpt lat="45.94725" lon="4.7405">
        <ele>198.5</ele>
        <time>2015-08-04T09:08:09.708Z</time>
      </trkpt>
      <trkpt lat="45.94729" lon="4.74055">
        <ele>198.600006104</ele>
        <time>2015-08-04T09:08:10.763Z</time>
      </trkpt>
      <trkpt lat="45.94733" lon="4.74061">
        <ele>198.699996948</ele>
        <time>2015-08-04T09:08:11.71Z</time>
      </trkpt>
      <trkpt lat="45.94737" lon="4.74066">
        <ele>198.300003052</ele>
        <time>2015-08-04T09:08:12.754Z</time>
      </trkpt>
      <trkpt lat="45.94741" lon="4.74072">
        <ele>198.199996948</ele>
        <time>2015-08-04T09:08:13.703Z</time>
      </trkpt>
      <trkpt lat="45.94745" lon="4.74077">
        <ele>198.399993896</ele>
        <time>2015-08-04T09:08:14.753Z</time>
      </trkpt>
      <trkpt lat="45.94749" lon="4.74082">
        <ele>198.100006104</ele>
        <time>2015-08-04T09:08:15.696Z</time>
      </trkpt>
      <trkpt lat="45.94753" lon="4.74088">
        <ele>198.100006104</ele>
        <time>2015-08-04T09:08:16.758Z</time>
      </trkpt>
      <trkpt lat="45.94756" lon="4.74092">
        <ele>197.899993896</ele>
        <time>2015-08-04T09:08:17.71Z</time>
      </trkpt>
      <trkpt lat="45.94759" lon="4.74097">
        <ele>198.100006104</ele>
        <time>2015-08-04T09:08:18.833Z</time>
      </trkpt>
      <trkpt lat="45.94763" lon="4.74102">
        <ele>198</ele>
        <time>2015-08-04T09:08:19.716Z</time>
      </trkpt>
      <trkpt lat="45.94766" lon="4.74107">
        <ele>197.899993896</ele>
        <time>2015-08-04T09:08:20.773Z</time>
      </trkpt>
      <trkpt lat="45.9477" lon="4.74112">
        <ele>197.800003052</ele>
        <time>2015-08-04T09:08:21.71Z</time>
      </trkpt>
      <trkpt lat="45.94773" lon="4.74117">
        <ele>198</ele>
        <time>2015-08-04T09:08:22.793Z</time>
      </trkpt>
      <trkpt lat="45.94777" lon="4.74122">
        <ele>198.100006104</ele>
        <time>2015-08-04T09:08:23.709Z</time>
      </trkpt>
      <trkpt lat="45.94781" lon="4.74128">
        <ele>198.300003052</ele>
        <time>2015-08-04T09:08:24.75Z</time>
      </trkpt>
      <trkpt lat="45.94785" lon="4.74133">
        <ele>198.399993896</ele>
        <time>2015-08-04T09:08:25.71Z</time>
      </trkpt>
      <trkpt lat="45.94788" lon="4.74139">
        <ele>198.600006104</ele>
        <time>2015-08-04T09:08:26.75Z</time>
      </trkpt>
      <trkpt lat="45.94792" lon="4.74145">
        <ele>198.399993896</ele>
        <time>2015-08-04T09:08:27.71Z</time>
      </trkpt>
      <trkpt lat="45.94796" lon="4.74151">
        <ele>198.300003052</ele>
        <time>2015-08-04T09:08:28.816Z</time>
      </trkpt>
      <trkpt lat="45.948" lon="4.74157">
        <ele>198.100006104</ele>
        <time>2015-08-04T09:08:29.711Z</time>
      </trkpt>
      <trkpt lat="45.94803" lon="4.74162">
        <ele>198.100006104</ele>
        <time>2015-08-04T09:08:30.747Z</time>
      </trkpt>
      <trkpt lat="45.94807" lon="4.74168">
        <ele>197.899993896</ele>
        <time>2015-08-04T09:08:31.709Z</time>
      </trkpt>
      <trkpt lat="45.94811" lon="4.74174">
        <ele>197.899993896</ele>
        <time>2015-08-04T09:08:32.75Z</time>
      </trkpt>
      <trkpt lat="45.94814" lon="4.7418">
        <ele>197.800003052</ele>
        <time>2015-08-04T09:08:33.71Z</time>
      </trkpt>
      <trkpt lat="45.94818" lon="4.74187">
        <ele>197.5</ele>
        <time>2015-08-04T09:08:34.749Z</time>
      </trkpt>
      <trkpt lat="45.94821" lon="4.74193">
        <ele>197.5</ele>
        <time>2015-08-04T09:08:35.71Z</time>
      </trkpt>
      <trkpt lat="45.94825" lon="4.74199">
        <ele>197.600006104</ele>
        <time>2015-08-04T09:08:36.768Z</time>
      </trkpt>
      <trkpt lat="45.94828" lon="4.74205">
        <ele>197.5</ele>
        <time>2015-08-04T09:08:37.708Z</time>
      </trkpt>
      <trkpt lat="45.94831" lon="4.74212">
        <ele>197.399993896</ele>
        <time>2015-08-04T09:08:38.763Z</time>
      </trkpt>
      <trkpt lat="45.94834" lon="4.7422">
        <ele>196.600006104</ele>
        <time>2015-08-04T09:08:39.709Z</time>
      </trkpt>
      <trkpt lat="45.94837" lon="4.74227">
        <ele>196.5</ele>
        <time>2015-08-04T09:08:40.782Z</time>
      </trkpt>
      <trkpt lat="45.94841" lon="4.74234">
        <ele>195.699996948</ele>
        <time>2015-08-04T09:08:41.71Z</time>
      </trkpt>
      <trkpt lat="45.94844" lon="4.74241">
        <ele>195.100006104</ele>
        <time>2015-08-04T09:08:42.814Z</time>
      </trkpt>
      <trkpt lat="45.94847" lon="4.74248">
        <ele>194.800003052</ele>
        <time>2015-08-04T09:08:43.699Z</time>
      </trkpt>
      <trkpt lat="45.94851" lon="4.74254">
        <ele>194.899993896</ele>
        <time>2015-08-04T09:08:44.749Z</time>
      </trkpt>
      <trkpt lat="45.94855" lon="4.74261">
        <ele>194.800003052</ele>
        <time>2015-08-04T09:08:45.709Z</time>
      </trkpt>
      <trkpt lat="45.94858" lon="4.74267">
        <ele>194.399993896</ele>
        <time>2015-08-04T09:08:46.753Z</time>
      </trkpt>
      <trkpt lat="45.94862" lon="4.74275">
        <ele>194.300003052</ele>
        <time>2015-08-04T09:08:47.71Z</time>
      </trkpt>
      <trkpt lat="45.94865" lon="4.74282">
        <ele>194.100006104</ele>
        <time>2015-08-04T09:08:48.745Z</time>
      </trkpt>
      <trkpt lat="45.94868" lon="4.74289">
        <ele>194</ele>
        <time>2015-08-04T09:08:49.71Z</time>
      </trkpt>
      <trkpt lat="45.94871" lon="4.74295">
        <ele>193.899993896</ele>
        <time>2015-08-04T09:08:50.747Z</time>
      </trkpt>
      <trkpt lat="45.94875" lon="4.74302">
        <ele>193.399993896</ele>
        <time>2015-08-04T09:08:51.71Z</time>
      </trkpt>
      <trkpt lat="45.94878" lon="4.74308">
        <ele>193.699996948</ele>
        <time>2015-08-04T09:08:52.776Z</time>
      </trkpt>
      <trkpt lat="45.94881" lon="4.74314">
        <ele>193.699996948</ele>
        <time>2015-08-04T09:08:53.709Z</time>
      </trkpt>
      <trkpt lat="45.94885" lon="4.7432">
        <ele>194.100006104</ele>
        <time>2015-08-04T09:08:54.744Z</time>
      </trkpt>
      <trkpt lat="45.94888" lon="4.74327">
        <ele>194.300003052</ele>
        <time>2015-08-04T09:08:55.71Z</time>
      </trkpt>
      <trkpt lat="45.94891" lon="4.74333">
        <ele>194.199996948</ele>
        <time>2015-08-04T09:08:56.744Z</time>
      </trkpt>
      <trkpt lat="45.94894" lon="4.74339">
        <ele>194.199996948</ele>
        <time>2015-08-04T09:08:57.709Z</time>
      </trkpt>
      <trkpt lat="45.94898" lon="4.74346">
        <ele>194.199996948</ele>
        <time>2015-08-04T09:08:58.784Z</time>
      </trkpt>
      <trkpt lat="45.94901" lon="4.74352">
        <ele>195</ele>
        <time>2015-08-04T09:08:59.71Z</time>
      </trkpt>
      <trkpt lat="45.94904" lon="4.74358">
        <ele>195.199996948</ele>
        <time>2015-08-04T09:09:00.744Z</time>
      </trkpt>
      <trkpt lat="45.94908" lon="4.74365">
        <ele>195.600006104</ele>
        <time>2015-08-04T09:09:01.71Z</time>
      </trkpt>
      <trkpt lat="45.94911" lon="4.74371">
        <ele>196.300003052</ele>
        <time>2015-08-04T09:09:02.744Z</time>
      </trkpt>
      <trkpt lat="45.94914" lon="4.74377">
        <ele>196.5</ele>
        <time>2015-08-04T09:09:03.71Z</time>
      </trkpt>
      <trkpt lat="45.94917" lon="4.74383">
        <ele>197</ele>
        <time>2015-08-04T09:09:04.752Z</time>
      </trkpt>
      <trkpt lat="45.94921" lon="4.74389">
        <ele>197.399993896</ele>
        <time>2015-08-04T09:09:05.745Z</time>
      </trkpt>
      <trkpt lat="45.94924" lon="4.74395">
        <ele>197.600006104</ele>
        <time>2015-08-04T09:09:06.748Z</time>
      </trkpt>
      <trkpt lat="45.94927" lon="4.74401">
        <ele>198</ele>
        <time>2015-08-04T09:09:07.71Z</time>
      </trkpt>
      <trkpt lat="45.9493" lon="4.74407">
        <ele>197.899993896</ele>
        <time>2015-08-04T09:09:08.767Z</time>
      </trkpt>
      <trkpt lat="45.94934" lon="4.74413">
        <ele>198.399993896</ele>
        <time>2015-08-04T09:09:09.709Z</time>
      </trkpt>
      <trkpt lat="45.94936" lon="4.74419">
        <ele>198.600006104</ele>
        <time>2015-08-04T09:09:10.812Z</time>
      </trkpt>
      <trkpt lat="45.94939" lon="4.74425">
        <ele>199</ele>
        <time>2015-08-04T09:09:11.709Z</time>
      </trkpt>
      <trkpt lat="45.94942" lon="4.74431">
        <ele>199</ele>
        <time>2015-08-04T09:09:12.746Z</time>
      </trkpt>
      <trkpt lat="45.94946" lon="4.74437">
        <ele>199.199996948</ele>
        <time>2015-08-04T09:09:13.709Z</time>
      </trkpt>
      <trkpt lat="45.94949" lon="4.74443">
        <ele>199.5</ele>
        <time>2015-08-04T09:09:14.746Z</time>
      </trkpt>
      <trkpt lat="45.94952" lon="4.7445">
        <ele>199.600006104</ele>
        <time>2015-08-04T09:09:15.708Z</time>
      </trkpt>
      <trkpt lat="45.94955" lon="4.74456">
        <ele>200.5</ele>
        <time>2015-08-04T09:09:16.796Z</time>
      </trkpt>
      <trkpt lat="45.94958" lon="4.74461">
        <ele>201.5</ele>
        <time>2015-08-04T09:09:17.711Z</time>
      </trkpt>
      <trkpt lat="45.94961" lon="4.74466">
        <ele>202.100006104</ele>
        <time>2015-08-04T09:09:18.749Z</time>
      </trkpt>
      <trkpt lat="45.94964" lon="4.74472">
        <ele>202.199996948</ele>
        <time>2015-08-04T09:09:19.71Z</time>
      </trkpt>
      <trkpt lat="45.94967" lon="4.74479">
        <ele>202.300003052</ele>
        <time>2015-08-04T09:09:20.749Z</time>
      </trkpt>
      <trkpt lat="45.9497" lon="4.74485">
        <ele>202.300003052</ele>
        <time>2015-08-04T09:09:21.71Z</time>
      </trkpt>
      <trkpt lat="45.94973" lon="4.74491">
        <ele>202.399993896</ele>
        <time>2015-08-04T09:09:22.806Z</time>
      </trkpt>
      <trkpt lat="45.94976" lon="4.74497">
        <ele>202.199996948</ele>
        <time>2015-08-04T09:09:23.71Z</time>
      </trkpt>
      <trkpt lat="45.94979" lon="4.74503">
        <ele>202.399993896</ele>
        <time>2015-08-04T09:09:24.767Z</time>
      </trkpt>
      <trkpt lat="45.94982" lon="4.74509">
        <ele>202.899993896</ele>
        <time>2015-08-04T09:09:25.709Z</time>
      </trkpt>
      <trkpt lat="45.94985" lon="4.74515">
        <ele>203.100006104</ele>
        <time>2015-08-04T09:09:26.816Z</time>
      </trkpt>
      <trkpt lat="45.94989" lon="4.74521">
        <ele>204.100006104</ele>
        <time>2015-08-04T09:09:27.708Z</time>
      </trkpt>
      <trkpt lat="45.94992" lon="4.74527">
        <ele>204.600006104</ele>
        <time>2015-08-04T09:09:28.75Z</time>
      </trkpt>
      <trkpt lat="45.94995" lon="4.74532">
        <ele>205.300003052</ele>
        <time>2015-08-04T09:09:29.708Z</time>
      </trkpt>
      <trkpt lat="45.94999" lon="4.74539">
        <ele>205.800003052</ele>
        <time>2015-08-04T09:09:30.749Z</time>
      </trkpt>
      <trkpt lat="45.95002" lon="4.74545">
        <ele>206.100006104</ele>
        <time>2015-08-04T09:09:31.709Z</time>
      </trkpt>
      <trkpt lat="45.95005" lon="4.74551">
        <ele>206.699996948</ele>
        <time>2015-08-04T09:09:32.746Z</time>
      </trkpt>
      <trkpt lat="45.95008" lon="4.74557">
        <ele>206.100006104</ele>
        <time>2015-08-04T09:09:33.71Z</time>
      </trkpt>
      <trkpt lat="45.95012" lon="4.74563">
        <ele>206.399993896</ele>
        <time>2015-08-04T09:09:34.753Z</time>
      </trkpt>
      <trkpt lat="45.95015" lon="4.74569">
        <ele>206.199996948</ele>
        <time>2015-08-04T09:09:35.708Z</time>
      </trkpt>
      <trkpt lat="45.95018" lon="4.74575">
        <ele>206.300003052</ele>
        <time>2015-08-04T09:09:36.746Z</time>
      </trkpt>
      <trkpt lat="45.95021" lon="4.74581">
        <ele>206.600006104</ele>
        <time>2015-08-04T09:09:37.713Z</time>
      </trkpt>
      <trkpt lat="45.95025" lon="4.74586">
        <ele>206.399993896</ele>
        <time>2015-08-04T09:09:38.783Z</time>
      </trkpt>
      <trkpt lat="45.95028" lon="4.74592">
        <ele>205.899993896</ele>
        <time>2015-08-04T09:09:39.713Z</time>
      </trkpt>
      <trkpt lat="45.95032" lon="4.74598">
        <ele>205.699996948</ele>
        <time>2015-08-04T09:09:40.755Z</time>
      </trkpt>
      <trkpt lat="45.95035" lon="4.74604">
        <ele>205.699996948</ele>
        <time>2015-08-04T09:09:41.712Z</time>
      </trkpt>
      <trkpt lat="45.95038" lon="4.74611">
        <ele>206</ele>
        <time>2015-08-04T09:09:42.753Z</time>
      </trkpt>
      <trkpt lat="45.95042" lon="4.74617">
        <ele>206.100006104</ele>
        <time>2015-08-04T09:09:43.709Z</time>
      </trkpt>
      <trkpt lat="45.95045" lon="4.74624">
        <ele>206.100006104</ele>
        <time>2015-08-04T09:09:44.764Z</time>
      </trkpt>
      <trkpt lat="45.95048" lon="4.7463">
        <ele>206.399993896</ele>
        <time>2015-08-04T09:09:45.708Z</time>
      </trkpt>
      <trkpt lat="45.95051" lon="4.74637">
        <ele>206.699996948</ele>
        <time>2015-08-04T09:09:46.745Z</time>
      </trkpt>
      <trkpt lat="45.95055" lon="4.74643">
        <ele>206.899993896</ele>
        <time>2015-08-04T09:09:47.709Z</time>
      </trkpt>
      <trkpt lat="45.95058" lon="4.74649">
        <ele>207.300003052</ele>
        <time>2015-08-04T09:09:48.746Z</time>
      </trkpt>
      <trkpt lat="45.95062" lon="4.74656">
        <ele>207.199996948</ele>
        <time>2015-08-04T09:09:49.709Z</time>
      </trkpt>
      <trkpt lat="45.95066" lon="4.74663">
        <ele>207.300003052</ele>
        <time>2015-08-04T09:09:50.766Z</time>
      </trkpt>
      <trkpt lat="45.9507" lon="4.7467">
        <ele>207</ele>
        <time>2015-08-04T09:09:51.709Z</time>
      </trkpt>
      <trkpt lat="45.95074" lon="4.74676">
        <ele>207.399993896</ele>
        <time>2015-08-04T09:09:52.753Z</time>
      </trkpt>
      <trkpt lat="45.95078" lon="4.74683">
        <ele>207.199996948</ele>
        <time>2015-08-04T09:09:53.709Z</time>
      </trkpt>
      <trkpt lat="45.95081" lon="4.74689">
        <ele>206.800003052</ele>
        <time>2015-08-04T09:09:54.756Z</time>
      </trkpt>
      <trkpt lat="45.95084" lon="4.74696">
        <ele>206.600006104</ele>
        <time>2015-08-04T09:09:55.709Z</time>
      </trkpt>
      <trkpt lat="45.95088" lon="4.74702">
        <ele>206.300003052</ele>
        <time>2015-08-04T09:09:56.746Z</time>
      </trkpt>
      <trkpt lat="45.95092" lon="4.74709">
        <ele>205.899993896</ele>
        <time>2015-08-04T09:09:57.709Z</time>
      </trkpt>
      <trkpt lat="45.95095" lon="4.74715">
        <ele>205.899993896</ele>
        <time>2015-08-04T09:09:58.746Z</time>
      </trkpt>
      <trkpt lat="45.95099" lon="4.74721">
        <ele>205.300003052</ele>
        <time>2015-08-04T09:09:59.709Z</time>
      </trkpt>
      <trkpt lat="45.95103" lon="4.74728">
        <ele>204.899993896</ele>
        <time>2015-08-04T09:10:00.762Z</time>
      </trkpt>
      <trkpt lat="45.95107" lon="4.74734">
        <ele>205</ele>
        <time>2015-08-04T09:10:01.709Z</time>
      </trkpt>
      <trkpt lat="45.95111" lon="4.7474">
        <ele>204.399993896</ele>
        <time>2015-08-04T09:10:02.748Z</time>
      </trkpt>
      <trkpt lat="45.95114" lon="4.74746">
        <ele>204.5</ele>
        <time>2015-08-04T09:10:03.709Z</time>
      </trkpt>
      <trkpt lat="45.95118" lon="4.74753">
        <ele>204.800003052</ele>
        <time>2015-08-04T09:10:04.755Z</time>
      </trkpt>
      <trkpt lat="45.95122" lon="4.74759">
        <ele>204.699996948</ele>
        <time>2015-08-04T09:10:05.708Z</time>
      </trkpt>
      <trkpt lat="45.95126" lon="4.74765">
        <ele>204.699996948</ele>
        <time>2015-08-04T09:10:06.753Z</time>
      </trkpt>
      <trkpt lat="45.9513" lon="4.74772">
        <ele>204.899993896</ele>
        <time>2015-08-04T09:10:07.709Z</time>
      </trkpt>
      <trkpt lat="45.95134" lon="4.74778">
        <ele>205.199996948</ele>
        <time>2015-08-04T09:10:08.753Z</time>
      </trkpt>
      <trkpt lat="45.95138" lon="4.74785">
        <ele>205.5</ele>
        <time>2015-08-04T09:10:09.709Z</time>
      </trkpt>
      <trkpt lat="45.95141" lon="4.74791">
        <ele>205.399993896</ele>
        <time>2015-08-04T09:10:10.752Z</time>
      </trkpt>
      <trkpt lat="45.95145" lon="4.74798">
        <ele>205.399993896</ele>
        <time>2015-08-04T09:10:11.709Z</time>
      </trkpt>
      <trkpt lat="45.9515" lon="4.74804">
        <ele>205.600006104</ele>
        <time>2015-08-04T09:10:12.752Z</time>
      </trkpt>
      <trkpt lat="45.95154" lon="4.74811">
        <ele>205.699996948</ele>
        <time>2015-08-04T09:10:13.709Z</time>
      </trkpt>
      <trkpt lat="45.95158" lon="4.74817">
        <ele>205.899993896</ele>
        <time>2015-08-04T09:10:14.787Z</time>
      </trkpt>
      <trkpt lat="45.95161" lon="4.74823">
        <ele>206.199996948</ele>
        <time>2015-08-04T09:10:15.708Z</time>
      </trkpt>
      <trkpt lat="45.95165" lon="4.7483">
        <ele>206.300003052</ele>
        <time>2015-08-04T09:10:16.764Z</time>
      </trkpt>
      <trkpt lat="45.95168" lon="4.74836">
        <ele>206.699996948</ele>
        <time>2015-08-04T09:10:17.709Z</time>
      </trkpt>
      <trkpt lat="45.95172" lon="4.74842">
        <ele>207.100006104</ele>
        <time>2015-08-04T09:10:18.748Z</time>
      </trkpt>
      <trkpt lat="45.95176" lon="4.74848">
        <ele>207.399993896</ele>
        <time>2015-08-04T09:10:19.709Z</time>
      </trkpt>
      <trkpt lat="45.9518" lon="4.74854">
        <ele>207.699996948</ele>
        <time>2015-08-04T09:10:20.754Z</time>
      </trkpt>
      <trkpt lat="45.95184" lon="4.74861">
        <ele>208.100006104</ele>
        <time>2015-08-04T09:10:21.709Z</time>
      </trkpt>
      <trkpt lat="45.95188" lon="4.74867">
        <ele>208.600006104</ele>
        <time>2015-08-04T09:10:22.755Z</time>
      </trkpt>
      <trkpt lat="45.95192" lon="4.74873">
        <ele>209</ele>
        <time>2015-08-04T09:10:23.707Z</time>
      </trkpt>
      <trkpt lat="45.95196" lon="4.7488">
        <ele>209.399993896</ele>
        <time>2015-08-04T09:10:24.836Z</time>
      </trkpt>
      <trkpt lat="45.95199" lon="4.74886">
        <ele>209.399993896</ele>
        <time>2015-08-04T09:10:25.707Z</time>
      </trkpt>
      <trkpt lat="45.95203" lon="4.74893">
        <ele>209.399993896</ele>
        <time>2015-08-04T09:10:26.748Z</time>
      </trkpt>
      <trkpt lat="45.95206" lon="4.74899">
        <ele>209.399993896</ele>
        <time>2015-08-04T09:10:27.708Z</time>
      </trkpt>
      <trkpt lat="45.9521" lon="4.74905">
        <ele>209.699996948</ele>
        <time>2015-08-04T09:10:28.748Z</time>
      </trkpt>
      <trkpt lat="45.95214" lon="4.74911">
        <ele>210</ele>
        <time>2015-08-04T09:10:29.716Z</time>
      </trkpt>
      <trkpt lat="45.95218" lon="4.74916">
        <ele>210.300003052</ele>
        <time>2015-08-04T09:10:30.749Z</time>
      </trkpt>
      <trkpt lat="45.95221" lon="4.74922">
        <ele>210.300003052</ele>
        <time>2015-08-04T09:10:31.709Z</time>
      </trkpt>
      <trkpt lat="45.95225" lon="4.74928">
        <ele>210.5</ele>
        <time>2015-08-04T09:10:32.766Z</time>
      </trkpt>
      <trkpt lat="45.95229" lon="4.74934">
        <ele>210.5</ele>
        <time>2015-08-04T09:10:33.709Z</time>
      </trkpt>
      <trkpt lat="45.95233" lon="4.74939">
        <ele>210.5</ele>
        <time>2015-08-04T09:10:34.746Z</time>
      </trkpt>
      <trkpt lat="45.95237" lon="4.74946">
        <ele>210.399993896</ele>
        <time>2015-08-04T09:10:35.709Z</time>
      </trkpt>
      <trkpt lat="45.95241" lon="4.74952">
        <ele>210.699996948</ele>
        <time>2015-08-04T09:10:36.747Z</time>
      </trkpt>
      <trkpt lat="45.95245" lon="4.74958">
        <ele>210.899993896</ele>
        <time>2015-08-04T09:10:37.709Z</time>
      </trkpt>
      <trkpt lat="45.95249" lon="4.74965">
        <ele>211</ele>
        <time>2015-08-04T09:10:38.755Z</time>
      </trkpt>
      <trkpt lat="45.95253" lon="4.74971">
        <ele>210.800003052</ele>
        <time>2015-08-04T09:10:39.709Z</time>
      </trkpt>
      <trkpt lat="45.95257" lon="4.74978">
        <ele>211</ele>
        <time>2015-08-04T09:10:40.759Z</time>
      </trkpt>
      <trkpt lat="45.95262" lon="4.74984">
        <ele>210.699996948</ele>
        <time>2015-08-04T09:10:41.709Z</time>
      </trkpt>
      <trkpt lat="45.95266" lon="4.7499">
        <ele>210.199996948</ele>
        <time>2015-08-04T09:10:42.759Z</time>
      </trkpt>
      <trkpt lat="45.9527" lon="4.74997">
        <ele>210.300003052</ele>
        <time>2015-08-04T09:10:43.71Z</time>
      </trkpt>
      <trkpt lat="45.95274" lon="4.75003">
        <ele>209.800003052</ele>
        <time>2015-08-04T09:10:44.743Z</time>
      </trkpt>
      <trkpt lat="45.95278" lon="4.75009">
        <ele>209.399993896</ele>
        <time>2015-08-04T09:10:45.709Z</time>
      </trkpt>
      <trkpt lat="45.95283" lon="4.75015">
        <ele>209.100006104</ele>
        <time>2015-08-04T09:10:46.788Z</time>
      </trkpt>
      <trkpt lat="45.95287" lon="4.75021">
        <ele>208.899993896</ele>
        <time>2015-08-04T09:10:47.708Z</time>
      </trkpt>
      <trkpt lat="45.95292" lon="4.75028">
        <ele>209.199996948</ele>
        <time>2015-08-04T09:10:48.752Z</time>
      </trkpt>
      <trkpt lat="45.95296" lon="4.75034">
        <ele>209</ele>
        <time>2015-08-04T09:10:49.709Z</time>
      </trkpt>
      <trkpt lat="45.95301" lon="4.75041">
        <ele>208.300003052</ele>
        <time>2015-08-04T09:10:50.752Z</time>
      </trkpt>
      <trkpt lat="45.95305" lon="4.75047">
        <ele>207.800003052</ele>
        <time>2015-08-04T09:10:51.709Z</time>
      </trkpt>
      <trkpt lat="45.9531" lon="4.75054">
        <ele>207.100006104</ele>
        <time>2015-08-04T09:10:52.758Z</time>
      </trkpt>
      <trkpt lat="45.95314" lon="4.7506">
        <ele>207.100006104</ele>
        <time>2015-08-04T09:10:53.709Z</time>
      </trkpt>
      <trkpt lat="45.95319" lon="4.75067">
        <ele>206.800003052</ele>
        <time>2015-08-04T09:10:54.756Z</time>
      </trkpt>
      <trkpt lat="45.95323" lon="4.75074">
        <ele>206.600006104</ele>
        <time>2015-08-04T09:10:55.709Z</time>
      </trkpt>
      <trkpt lat="45.95328" lon="4.75081">
        <ele>206.199996948</ele>
        <time>2015-08-04T09:10:56.867Z</time>
      </trkpt>
      <trkpt lat="45.95332" lon="4.75088">
        <ele>206.199996948</ele>
        <time>2015-08-04T09:10:57.709Z</time>
      </trkpt>
      <trkpt lat="45.95336" lon="4.75096">
        <ele>206.100006104</ele>
        <time>2015-08-04T09:10:58.764Z</time>
      </trkpt>
      <trkpt lat="45.95341" lon="4.75103">
        <ele>206.300003052</ele>
        <time>2015-08-04T09:10:59.71Z</time>
      </trkpt>
      <trkpt lat="45.95345" lon="4.7511">
        <ele>206</ele>
        <time>2015-08-04T09:11:00.745Z</time>
      </trkpt>
      <trkpt lat="45.9535" lon="4.75117">
        <ele>205.699996948</ele>
        <time>2015-08-04T09:11:01.709Z</time>
      </trkpt>
      <trkpt lat="45.95354" lon="4.75124">
        <ele>205.199996948</ele>
        <time>2015-08-04T09:11:02.747Z</time>
      </trkpt>
      <trkpt lat="45.95359" lon="4.75131">
        <ele>204.300003052</ele>
        <time>2015-08-04T09:11:03.709Z</time>
      </trkpt>
      <trkpt lat="45.95363" lon="4.75139">
        <ele>203.600006104</ele>
        <time>2015-08-04T09:11:04.747Z</time>
      </trkpt>
      <trkpt lat="45.95368" lon="4.75146">
        <ele>203</ele>
        <time>2015-08-04T09:11:05.709Z</time>
      </trkpt>
      <trkpt lat="45.95372" lon="4.75153">
        <ele>203.100006104</ele>
        <time>2015-08-04T09:11:06.756Z</time>
      </trkpt>
      <trkpt lat="45.95377" lon="4.7516">
        <ele>202.399993896</ele>
        <time>2015-08-04T09:11:07.709Z</time>
      </trkpt>
      <trkpt lat="45.95381" lon="4.75167">
        <ele>202</ele>
        <time>2015-08-04T09:11:08.748Z</time>
      </trkpt>
      <trkpt lat="45.95385" lon="4.75174">
        <ele>201.600006104</ele>
        <time>2015-08-04T09:11:09.695Z</time>
      </trkpt>
      <trkpt lat="45.95389" lon="4.75181">
        <ele>201.199996948</ele>
        <time>2015-08-04T09:11:10.751Z</time>
      </trkpt>
      <trkpt lat="45.95394" lon="4.75189">
        <ele>200.699996948</ele>
        <time>2015-08-04T09:11:11.709Z</time>
      </trkpt>
      <trkpt lat="45.95398" lon="4.75196">
        <ele>200.5</ele>
        <time>2015-08-04T09:11:12.88Z</time>
      </trkpt>
      <trkpt lat="45.95403" lon="4.75203">
        <ele>200</ele>
        <time>2015-08-04T09:11:13.707Z</time>
      </trkpt>
      <trkpt lat="45.95407" lon="4.75211">
        <ele>199.600006104</ele>
        <time>2015-08-04T09:11:14.763Z</time>
      </trkpt>
      <trkpt lat="45.95411" lon="4.75219">
        <ele>199.800003052</ele>
        <time>2015-08-04T09:11:15.709Z</time>
      </trkpt>
      <trkpt lat="45.95416" lon="4.75226">
        <ele>199.800003052</ele>
        <time>2015-08-04T09:11:16.75Z</time>
      </trkpt>
      <trkpt lat="45.9542" lon="4.75234">
        <ele>199.899993896</ele>
        <time>2015-08-04T09:11:17.709Z</time>
      </trkpt>
      <trkpt lat="45.95424" lon="4.75242">
        <ele>199.899993896</ele>
        <time>2015-08-04T09:11:18.751Z</time>
      </trkpt>
      <trkpt lat="45.95428" lon="4.7525">
        <ele>200</ele>
        <time>2015-08-04T09:11:19.707Z</time>
      </trkpt>
      <trkpt lat="45.95433" lon="4.75259">
        <ele>199.899993896</ele>
        <time>2015-08-04T09:11:20.747Z</time>
      </trkpt>
      <trkpt lat="45.95437" lon="4.75267">
        <ele>199.800003052</ele>
        <time>2015-08-04T09:11:21.707Z</time>
      </trkpt>
      <trkpt lat="45.95442" lon="4.75275">
        <ele>199.399993896</ele>
        <time>2015-08-04T09:11:22.788Z</time>
      </trkpt>
      <trkpt lat="45.95447" lon="4.75283">
        <ele>199.300003052</ele>
        <time>2015-08-04T09:11:23.708Z</time>
      </trkpt>
      <trkpt lat="45.95452" lon="4.75291">
        <ele>199.5</ele>
        <time>2015-08-04T09:11:24.745Z</time>
      </trkpt>
      <trkpt lat="45.95457" lon="4.753">
        <ele>199.399993896</ele>
        <time>2015-08-04T09:11:25.702Z</time>
      </trkpt>
      <trkpt lat="45.95461" lon="4.75308">
        <ele>199.100006104</ele>
        <time>2015-08-04T09:11:26.745Z</time>
      </trkpt>
      <trkpt lat="45.95466" lon="4.75317">
        <ele>198.800003052</ele>
        <time>2015-08-04T09:11:27.695Z</time>
      </trkpt>
      <trkpt lat="45.9547" lon="4.75325">
        <ele>198.600006104</ele>
        <time>2015-08-04T09:11:28.766Z</time>
      </trkpt>
      <trkpt lat="45.95474" lon="4.75334">
        <ele>198.199996948</ele>
        <time>2015-08-04T09:11:29.708Z</time>
      </trkpt>
      <trkpt lat="45.95479" lon="4.75343">
        <ele>198</ele>
        <time>2015-08-04T09:11:30.765Z</time>
      </trkpt>
      <trkpt lat="45.95483" lon="4.75351">
        <ele>197.899993896</ele>
        <time>2015-08-04T09:11:31.709Z</time>
      </trkpt>
      <trkpt lat="45.95487" lon="4.7536">
        <ele>197.800003052</ele>
        <time>2015-08-04T09:11:32.744Z</time>
      </trkpt>
      <trkpt lat="45.95492" lon="4.75369">
        <ele>197.600006104</ele>
        <time>2015-08-04T09:11:33.709Z</time>
      </trkpt>
      <trkpt lat="45.95496" lon="4.75378">
        <ele>197.300003052</ele>
        <time>2015-08-04T09:11:34.747Z</time>
      </trkpt>
      <trkpt lat="45.95499" lon="4.75388">
        <ele>196.800003052</ele>
        <time>2015-08-04T09:11:35.709Z</time>
      </trkpt>
      <trkpt lat="45.95502" lon="4.75397">
        <ele>196.5</ele>
        <time>2015-08-04T09:11:36.75Z</time>
      </trkpt>
      <trkpt lat="45.95506" lon="4.75406">
        <ele>196.199996948</ele>
        <time>2015-08-04T09:11:37.695Z</time>
      </trkpt>
      <trkpt lat="45.95508" lon="4.75416">
        <ele>196.5</ele>
        <time>2015-08-04T09:11:38.749Z</time>
      </trkpt>
      <trkpt lat="45.9551" lon="4.75425">
        <ele>196.300003052</ele>
        <time>2015-08-04T09:11:39.709Z</time>
      </trkpt>
      <trkpt lat="45.95511" lon="4.75436">
        <ele>195.699996948</ele>
        <time>2015-08-04T09:11:40.755Z</time>
      </trkpt>
      <trkpt lat="45.95512" lon="4.75446">
        <ele>195.699996948</ele>
        <time>2015-08-04T09:11:41.709Z</time>
      </trkpt>
      <trkpt lat="45.95512" lon="4.75457">
        <ele>195.300003052</ele>
        <time>2015-08-04T09:11:42.747Z</time>
      </trkpt>
      <trkpt lat="45.95512" lon="4.75467">
        <ele>195.199996948</ele>
        <time>2015-08-04T09:11:43.709Z</time>
      </trkpt>
      <trkpt lat="45.95513" lon="4.75477">
        <ele>195.199996948</ele>
        <time>2015-08-04T09:11:44.788Z</time>
      </trkpt>
      <trkpt lat="45.95515" lon="4.75488">
        <ele>194.800003052</ele>
        <time>2015-08-04T09:11:45.709Z</time>
      </trkpt>
      <trkpt lat="45.95518" lon="4.75496">
        <ele>194.300003052</ele>
        <time>2015-08-04T09:11:46.769Z</time>
      </trkpt>
      <trkpt lat="45.95525" lon="4.75501">
        <ele>194.699996948</ele>
        <time>2015-08-04T09:11:47.707Z</time>
      </trkpt>
      <trkpt lat="45.95531" lon="4.75505">
        <ele>194.600006104</ele>
        <time>2015-08-04T09:11:48.755Z</time>
      </trkpt>
      <trkpt lat="45.95536" lon="4.75509">
        <ele>194.800003052</ele>
        <time>2015-08-04T09:11:49.709Z</time>
      </trkpt>
      <trkpt lat="45.95542" lon="4.75515">
        <ele>195</ele>
        <time>2015-08-04T09:11:50.776Z</time>
      </trkpt>
      <trkpt lat="45.95548" lon="4.7552">
        <ele>195</ele>
        <time>2015-08-04T09:11:51.709Z</time>
      </trkpt>
      <trkpt lat="45.95553" lon="4.75526">
        <ele>195.100006104</ele>
        <time>2015-08-04T09:11:52.748Z</time>
      </trkpt>
      <trkpt lat="45.95559" lon="4.75531">
        <ele>195</ele>
        <time>2015-08-04T09:11:53.709Z</time>
      </trkpt>
      <trkpt lat="45.95564" lon="4.75536">
        <ele>194.800003052</ele>
        <time>2015-08-04T09:11:54.744Z</time>
      </trkpt>
      <trkpt lat="45.9557" lon="4.75541">
        <ele>194.800003052</ele>
        <time>2015-08-04T09:11:55.709Z</time>
      </trkpt>
      <trkpt lat="45.95575" lon="4.75547">
        <ele>194.899993896</ele>
        <time>2015-08-04T09:11:56.743Z</time>
      </trkpt>
      <trkpt lat="45.9558" lon="4.75553">
        <ele>195</ele>
        <time>2015-08-04T09:11:57.708Z</time>
      </trkpt>
      <trkpt lat="45.95585" lon="4.75559">
        <ele>194.899993896</ele>
        <time>2015-08-04T09:11:58.75Z</time>
      </trkpt>
      <trkpt lat="45.95589" lon="4.75566">
        <ele>195.199996948</ele>
        <time>2015-08-04T09:11:59.741Z</time>
      </trkpt>
      <trkpt lat="45.95593" lon="4.75572">
        <ele>194.899993896</ele>
        <time>2015-08-04T09:12:00.746Z</time>
      </trkpt>
      <trkpt lat="45.95597" lon="4.75579">
        <ele>195.100006104</ele>
        <time>2015-08-04T09:12:01.756Z</time>
      </trkpt>
      <trkpt lat="45.956" lon="4.75586">
        <ele>194.800003052</ele>
        <time>2015-08-04T09:12:02.761Z</time>
      </trkpt>
      <trkpt lat="45.95603" lon="4.75593">
        <ele>194.899993896</ele>
        <time>2015-08-04T09:12:03.709Z</time>
      </trkpt>
      <trkpt lat="45.95606" lon="4.756">
        <ele>194.800003052</ele>
        <time>2015-08-04T09:12:04.753Z</time>
      </trkpt>
      <trkpt lat="45.95609" lon="4.75608">
        <ele>195.100006104</ele>
        <time>2015-08-04T09:12:05.71Z</time>
      </trkpt>
      <trkpt lat="45.95611" lon="4.75616">
        <ele>195.300003052</ele>
        <time>2015-08-04T09:12:06.748Z</time>
      </trkpt>
      <trkpt lat="45.95614" lon="4.75623">
        <ele>195.300003052</ele>
        <time>2015-08-04T09:12:07.744Z</time>
      </trkpt>
      <trkpt lat="45.95616" lon="4.75632">
        <ele>195.399993896</ele>
        <time>2015-08-04T09:12:08.744Z</time>
      </trkpt>
      <trkpt lat="45.95619" lon="4.7564">
        <ele>195.399993896</ele>
        <time>2015-08-04T09:12:09.709Z</time>
      </trkpt>
      <trkpt lat="45.9562" lon="4.75649">
        <ele>194.899993896</ele>
        <time>2015-08-04T09:12:10.747Z</time>
      </trkpt>
      <trkpt lat="45.95622" lon="4.75658">
        <ele>194.699996948</ele>
        <time>2015-08-04T09:12:11.706Z</time>
      </trkpt>
      <trkpt lat="45.95623" lon="4.75667">
        <ele>195.100006104</ele>
        <time>2015-08-04T09:12:12.747Z</time>
      </trkpt>
      <trkpt lat="45.95625" lon="4.75676">
        <ele>195.199996948</ele>
        <time>2015-08-04T09:12:13.709Z</time>
      </trkpt>
      <trkpt lat="45.95626" lon="4.75685">
        <ele>195.699996948</ele>
        <time>2015-08-04T09:12:14.744Z</time>
      </trkpt>
      <trkpt lat="45.95627" lon="4.75693">
        <ele>195.600006104</ele>
        <time>2015-08-04T09:12:15.709Z</time>
      </trkpt>
      <trkpt lat="45.95628" lon="4.75703">
        <ele>196</ele>
        <time>2015-08-04T09:12:16.783Z</time>
      </trkpt>
      <trkpt lat="45.9563" lon="4.75712">
        <ele>196.699996948</ele>
        <time>2015-08-04T09:12:17.709Z</time>
      </trkpt>
      <trkpt lat="45.95631" lon="4.75721">
        <ele>197.699996948</ele>
        <time>2015-08-04T09:12:18.765Z</time>
      </trkpt>
      <trkpt lat="45.95633" lon="4.7573">
        <ele>197.600006104</ele>
        <time>2015-08-04T09:12:19.709Z</time>
      </trkpt>
      <trkpt lat="45.95634" lon="4.75739">
        <ele>198.199996948</ele>
        <time>2015-08-04T09:12:20.755Z</time>
      </trkpt>
      <trkpt lat="45.95635" lon="4.75748">
        <ele>199</ele>
        <time>2015-08-04T09:12:21.709Z</time>
      </trkpt>
      <trkpt lat="45.95636" lon="4.75756">
        <ele>199.300003052</ele>
        <time>2015-08-04T09:12:22.751Z</time>
      </trkpt>
      <trkpt lat="45.95637" lon="4.75763">
        <ele>199.699996948</ele>
        <time>2015-08-04T09:12:23.729Z</time>
      </trkpt>
      <trkpt lat="45.95637" lon="4.75772">
        <ele>199.800003052</ele>
        <time>2015-08-04T09:12:24.752Z</time>
      </trkpt>
      <trkpt lat="45.95639" lon="4.7578">
        <ele>199.600006104</ele>
        <time>2015-08-04T09:12:25.707Z</time>
      </trkpt>
      <trkpt lat="45.9564" lon="4.75788">
        <ele>199.600006104</ele>
        <time>2015-08-04T09:12:26.755Z</time>
      </trkpt>
      <trkpt lat="45.95642" lon="4.75796">
        <ele>200.399993896</ele>
        <time>2015-08-04T09:12:27.709Z</time>
      </trkpt>
      <trkpt lat="45.95643" lon="4.75805">
        <ele>200.600006104</ele>
        <time>2015-08-04T09:12:28.75Z</time>
      </trkpt>
      <trkpt lat="45.95645" lon="4.75813">
        <ele>201.300003052</ele>
        <time>2015-08-04T09:12:29.709Z</time>
      </trkpt>
      <trkpt lat="45.95647" lon="4.75822">
        <ele>201.399993896</ele>
        <time>2015-08-04T09:12:30.746Z</time>
      </trkpt>
      <trkpt lat="45.95649" lon="4.75831">
        <ele>201.600006104</ele>
        <time>2015-08-04T09:12:31.708Z</time>
      </trkpt>
      <trkpt lat="45.95651" lon="4.7584">
        <ele>201.699996948</ele>
        <time>2015-08-04T09:12:32.749Z</time>
      </trkpt>
      <trkpt lat="45.95653" lon="4.75849">
        <ele>201.800003052</ele>
        <time>2015-08-04T09:12:33.709Z</time>
      </trkpt>
      <trkpt lat="45.95656" lon="4.75858">
        <ele>202.199996948</ele>
        <time>2015-08-04T09:12:34.802Z</time>
      </trkpt>
      <trkpt lat="45.95658" lon="4.75867">
        <ele>202.399993896</ele>
        <time>2015-08-04T09:12:35.709Z</time>
      </trkpt>
      <trkpt lat="45.95661" lon="4.75875">
        <ele>202.199996948</ele>
        <time>2015-08-04T09:12:36.748Z</time>
      </trkpt>
      <trkpt lat="45.95664" lon="4.75884">
        <ele>202.899993896</ele>
        <time>2015-08-04T09:12:37.709Z</time>
      </trkpt>
      <trkpt lat="45.95667" lon="4.75893">
        <ele>203.100006104</ele>
        <time>2015-08-04T09:12:38.748Z</time>
      </trkpt>
      <trkpt lat="45.9567" lon="4.75901">
        <ele>203.399993896</ele>
        <time>2015-08-04T09:12:39.709Z</time>
      </trkpt>
      <trkpt lat="45.95673" lon="4.75909">
        <ele>204</ele>
        <time>2015-08-04T09:12:40.751Z</time>
      </trkpt>
      <trkpt lat="45.95676" lon="4.75917">
        <ele>203.800003052</ele>
        <time>2015-08-04T09:12:41.709Z</time>
      </trkpt>
      <trkpt lat="45.9568" lon="4.75925">
        <ele>203.600006104</ele>
        <time>2015-08-04T09:12:42.748Z</time>
      </trkpt>
      <trkpt lat="45.95683" lon="4.75933">
        <ele>203.300003052</ele>
        <time>2015-08-04T09:12:43.709Z</time>
      </trkpt>
      <trkpt lat="45.95687" lon="4.7594">
        <ele>202.399993896</ele>
        <time>2015-08-04T09:12:44.744Z</time>
      </trkpt>
      <trkpt lat="45.9569" lon="4.75947">
        <ele>201.600006104</ele>
        <time>2015-08-04T09:12:45.709Z</time>
      </trkpt>
      <trkpt lat="45.95693" lon="4.75955">
        <ele>201.399993896</ele>
        <time>2015-08-04T09:12:46.747Z</time>
      </trkpt>
      <trkpt lat="45.95697" lon="4.75962">
        <ele>200.800003052</ele>
        <time>2015-08-04T09:12:47.707Z</time>
      </trkpt>
      <trkpt lat="45.95701" lon="4.7597">
        <ele>200.899993896</ele>
        <time>2015-08-04T09:12:48.749Z</time>
      </trkpt>
      <trkpt lat="45.95704" lon="4.75977">
        <ele>200.899993896</ele>
        <time>2015-08-04T09:12:49.709Z</time>
      </trkpt>
      <trkpt lat="45.95708" lon="4.75985">
        <ele>201.100006104</ele>
        <time>2015-08-04T09:12:50.797Z</time>
      </trkpt>
      <trkpt lat="45.95711" lon="4.75992">
        <ele>200.600006104</ele>
        <time>2015-08-04T09:12:51.708Z</time>
      </trkpt>
      <trkpt lat="45.95714" lon="4.75999">
        <ele>200.5</ele>
        <time>2015-08-04T09:12:52.749Z</time>
      </trkpt>
      <trkpt lat="45.95717" lon="4.76005">
        <ele>199.899993896</ele>
        <time>2015-08-04T09:12:53.709Z</time>
      </trkpt>
      <trkpt lat="45.9572" lon="4.76012">
        <ele>199.199996948</ele>
        <time>2015-08-04T09:12:54.757Z</time>
      </trkpt>
      <trkpt lat="45.95723" lon="4.76019">
        <ele>199.199996948</ele>
        <time>2015-08-04T09:12:55.707Z</time>
      </trkpt>
      <trkpt lat="45.95726" lon="4.76025">
        <ele>199.199996948</ele>
        <time>2015-08-04T09:12:56.746Z</time>
      </trkpt>
      <trkpt lat="45.95729" lon="4.76032">
        <ele>198.199996948</ele>
        <time>2015-08-04T09:12:57.709Z</time>
      </trkpt>
      <trkpt lat="45.95732" lon="4.76039">
        <ele>197.300003052</ele>
        <time>2015-08-04T09:12:58.756Z</time>
      </trkpt>
      <trkpt lat="45.95735" lon="4.76045">
        <ele>197.399993896</ele>
        <time>2015-08-04T09:12:59.709Z</time>
      </trkpt>
      <trkpt lat="45.95739" lon="4.76052">
        <ele>197.100006104</ele>
        <time>2015-08-04T09:13:00.756Z</time>
      </trkpt>
      <trkpt lat="45.95742" lon="4.76059">
        <ele>197</ele>
        <time>2015-08-04T09:13:01.749Z</time>
      </trkpt>
      <trkpt lat="45.95745" lon="4.76066">
        <ele>197.399993896</ele>
        <time>2015-08-04T09:13:02.745Z</time>
      </trkpt>
      <trkpt lat="45.95748" lon="4.76073">
        <ele>197.699996948</ele>
        <time>2015-08-04T09:13:03.709Z</time>
      </trkpt>
      <trkpt lat="45.95751" lon="4.76079">
        <ele>198</ele>
        <time>2015-08-04T09:13:04.748Z</time>
      </trkpt>
      <trkpt lat="45.95753" lon="4.76086">
        <ele>198.399993896</ele>
        <time>2015-08-04T09:13:05.709Z</time>
      </trkpt>
      <trkpt lat="45.95755" lon="4.76093">
        <ele>198.5</ele>
        <time>2015-08-04T09:13:06.743Z</time>
      </trkpt>
      <trkpt lat="45.95757" lon="4.761">
        <ele>198.100006104</ele>
        <time>2015-08-04T09:13:07.709Z</time>
      </trkpt>
      <trkpt lat="45.95758" lon="4.76108">
        <ele>197.899993896</ele>
        <time>2015-08-04T09:13:08.754Z</time>
      </trkpt>
      <trkpt lat="45.9576" lon="4.76116">
        <ele>198.300003052</ele>
        <time>2015-08-04T09:13:09.709Z</time>
      </trkpt>
      <trkpt lat="45.95761" lon="4.76124">
        <ele>198.899993896</ele>
        <time>2015-08-04T09:13:10.793Z</time>
      </trkpt>
      <trkpt lat="45.95762" lon="4.76132">
        <ele>199.399993896</ele>
        <time>2015-08-04T09:13:11.761Z</time>
      </trkpt>
      <trkpt lat="45.95762" lon="4.7614">
        <ele>200.100006104</ele>
        <time>2015-08-04T09:13:12.746Z</time>
      </trkpt>
      <trkpt lat="45.95763" lon="4.76148">
        <ele>200.600006104</ele>
        <time>2015-08-04T09:13:13.709Z</time>
      </trkpt>
      <trkpt lat="45.95764" lon="4.76157">
        <ele>201.100006104</ele>
        <time>2015-08-04T09:13:14.743Z</time>
      </trkpt>
      <trkpt lat="45.95765" lon="4.76165">
        <ele>201.899993896</ele>
        <time>2015-08-04T09:13:15.709Z</time>
      </trkpt>
      <trkpt lat="45.95765" lon="4.76173">
        <ele>201.800003052</ele>
        <time>2015-08-04T09:13:16.745Z</time>
      </trkpt>
      <trkpt lat="45.95766" lon="4.7618">
        <ele>201.300003052</ele>
        <time>2015-08-04T09:13:17.709Z</time>
      </trkpt>
      <trkpt lat="45.95766" lon="4.76188">
        <ele>201.199996948</ele>
        <time>2015-08-04T09:13:18.748Z</time>
      </trkpt>
      <trkpt lat="45.95766" lon="4.76196">
        <ele>201.699996948</ele>
        <time>2015-08-04T09:13:19.709Z</time>
      </trkpt>
      <trkpt lat="45.95767" lon="4.76204">
        <ele>201.600006104</ele>
        <time>2015-08-04T09:13:20.746Z</time>
      </trkpt>
      <trkpt lat="45.95767" lon="4.76212">
        <ele>202.199996948</ele>
        <time>2015-08-04T09:13:21.709Z</time>
      </trkpt>
      <trkpt lat="45.95767" lon="4.7622">
        <ele>202.600006104</ele>
        <time>2015-08-04T09:13:22.785Z</time>
      </trkpt>
      <trkpt lat="45.95768" lon="4.76229">
        <ele>203.300003052</ele>
        <time>2015-08-04T09:13:23.709Z</time>
      </trkpt>
      <trkpt lat="45.95768" lon="4.76237">
        <ele>203.100006104</ele>
        <time>2015-08-04T09:13:24.748Z</time>
      </trkpt>
      <trkpt lat="45.95769" lon="4.76246">
        <ele>203.899993896</ele>
        <time>2015-08-04T09:13:25.706Z</time>
      </trkpt>
      <trkpt lat="45.95769" lon="4.76255">
        <ele>204.699996948</ele>
        <time>2015-08-04T09:13:26.743Z</time>
      </trkpt>
      <trkpt lat="45.9577" lon="4.76263">
        <ele>205.300003052</ele>
        <time>2015-08-04T09:13:27.707Z</time>
      </trkpt>
      <trkpt lat="45.95771" lon="4.76271">
        <ele>206.399993896</ele>
        <time>2015-08-04T09:13:28.78Z</time>
      </trkpt>
      <trkpt lat="45.95771" lon="4.7628">
        <ele>206.399993896</ele>
        <time>2015-08-04T09:13:29.709Z</time>
      </trkpt>
      <trkpt lat="45.95771" lon="4.76288">
        <ele>206.300003052</ele>
        <time>2015-08-04T09:13:30.807Z</time>
      </trkpt>
      <trkpt lat="45.95772" lon="4.76296">
        <ele>206.100006104</ele>
        <time>2015-08-04T09:13:31.709Z</time>
      </trkpt>
      <trkpt lat="45.95772" lon="4.76305">
        <ele>205.800003052</ele>
        <time>2015-08-04T09:13:32.748Z</time>
      </trkpt>
      <trkpt lat="45.95773" lon="4.76313">
        <ele>205.800003052</ele>
        <time>2015-08-04T09:13:33.709Z</time>
      </trkpt>
      <trkpt lat="45.95773" lon="4.76321">
        <ele>206.199996948</ele>
        <time>2015-08-04T09:13:34.752Z</time>
      </trkpt>
      <trkpt lat="45.95773" lon="4.76329">
        <ele>205.899993896</ele>
        <time>2015-08-04T09:13:35.707Z</time>
      </trkpt>
      <trkpt lat="45.95774" lon="4.76338">
        <ele>205.800003052</ele>
        <time>2015-08-04T09:13:36.748Z</time>
      </trkpt>
      <trkpt lat="45.95775" lon="4.76346">
        <ele>206</ele>
        <time>2015-08-04T09:13:37.709Z</time>
      </trkpt>
      <trkpt lat="45.95775" lon="4.76354">
        <ele>206</ele>
        <time>2015-08-04T09:13:38.776Z</time>
      </trkpt>
      <trkpt lat="45.95776" lon="4.76362">
        <ele>206</ele>
        <time>2015-08-04T09:13:39.709Z</time>
      </trkpt>
      <trkpt lat="45.95776" lon="4.7637">
        <ele>205.699996948</ele>
        <time>2015-08-04T09:13:40.826Z</time>
      </trkpt>
      <trkpt lat="45.95777" lon="4.76378">
        <ele>205.300003052</ele>
        <time>2015-08-04T09:13:41.709Z</time>
      </trkpt>
      <trkpt lat="45.95778" lon="4.76386">
        <ele>205.199996948</ele>
        <time>2015-08-04T09:13:42.746Z</time>
      </trkpt>
      <trkpt lat="45.95778" lon="4.76394">
        <ele>205.100006104</ele>
        <time>2015-08-04T09:13:43.708Z</time>
      </trkpt>
      <trkpt lat="45.95779" lon="4.76402">
        <ele>205.100006104</ele>
        <time>2015-08-04T09:13:44.742Z</time>
      </trkpt>
      <trkpt lat="45.9578" lon="4.7641">
        <ele>205.5</ele>
        <time>2015-08-04T09:13:45.709Z</time>
      </trkpt>
      <trkpt lat="45.95781" lon="4.76418">
        <ele>205.699996948</ele>
        <time>2015-08-04T09:13:46.745Z</time>
      </trkpt>
      <trkpt lat="45.95781" lon="4.76426">
        <ele>205.899993896</ele>
        <time>2015-08-04T09:13:47.708Z</time>
      </trkpt>
      <trkpt lat="45.95783" lon="4.76434">
        <ele>205.899993896</ele>
        <time>2015-08-04T09:13:48.749Z</time>
      </trkpt>
      <trkpt lat="45.95784" lon="4.76441">
        <ele>205.800003052</ele>
        <time>2015-08-04T09:13:49.709Z</time>
      </trkpt>
      <trkpt lat="45.95785" lon="4.76449">
        <ele>205.699996948</ele>
        <time>2015-08-04T09:13:50.837Z</time>
      </trkpt>
      <trkpt lat="45.95786" lon="4.76457">
        <ele>205.800003052</ele>
        <time>2015-08-04T09:13:51.708Z</time>
      </trkpt>
      <trkpt lat="45.95787" lon="4.76465">
        <ele>206</ele>
        <time>2015-08-04T09:13:52.749Z</time>
      </trkpt>
      <trkpt lat="45.95787" lon="4.76473">
        <ele>205.899993896</ele>
        <time>2015-08-04T09:13:53.709Z</time>
      </trkpt>
      <trkpt lat="45.95788" lon="4.76481">
        <ele>205.800003052</ele>
        <time>2015-08-04T09:13:54.76Z</time>
      </trkpt>
      <trkpt lat="45.95789" lon="4.76488">
        <ele>205.699996948</ele>
        <time>2015-08-04T09:13:55.708Z</time>
      </trkpt>
      <trkpt lat="45.95791" lon="4.76497">
        <ele>205.5</ele>
        <time>2015-08-04T09:13:56.741Z</time>
      </trkpt>
      <trkpt lat="45.95792" lon="4.76505">
        <ele>205.899993896</ele>
        <time>2015-08-04T09:13:57.708Z</time>
      </trkpt>
      <trkpt lat="45.95793" lon="4.76513">
        <ele>205.5</ele>
        <time>2015-08-04T09:13:58.784Z</time>
      </trkpt>
      <trkpt lat="45.95794" lon="4.76521">
        <ele>205.5</ele>
        <time>2015-08-04T09:13:59.708Z</time>
      </trkpt>
      <trkpt lat="45.95795" lon="4.76529">
        <ele>206</ele>
        <time>2015-08-04T09:14:00.757Z</time>
      </trkpt>
      <trkpt lat="45.95796" lon="4.76537">
        <ele>206.199996948</ele>
        <time>2015-08-04T09:14:01.708Z</time>
      </trkpt>
      <trkpt lat="45.95797" lon="4.76545">
        <ele>205.800003052</ele>
        <time>2015-08-04T09:14:02.749Z</time>
      </trkpt>
      <trkpt lat="45.95798" lon="4.76552">
        <ele>205.899993896</ele>
        <time>2015-08-04T09:14:03.709Z</time>
      </trkpt>
      <trkpt lat="45.958" lon="4.7656">
        <ele>205</ele>
        <time>2015-08-04T09:14:04.756Z</time>
      </trkpt>
      <trkpt lat="45.95802" lon="4.76568">
        <ele>204.199996948</ele>
        <time>2015-08-04T09:14:05.708Z</time>
      </trkpt>
      <trkpt lat="45.95803" lon="4.76576">
        <ele>204.199996948</ele>
        <time>2015-08-04T09:14:06.894Z</time>
      </trkpt>
      <trkpt lat="45.95804" lon="4.76584">
        <ele>204.199996948</ele>
        <time>2015-08-04T09:14:07.708Z</time>
      </trkpt>
      <trkpt lat="45.95805" lon="4.76591">
        <ele>203.800003052</ele>
        <time>2015-08-04T09:14:08.747Z</time>
      </trkpt>
      <trkpt lat="45.95806" lon="4.76599">
        <ele>203.699996948</ele>
        <time>2015-08-04T09:14:09.708Z</time>
      </trkpt>
      <trkpt lat="45.95807" lon="4.76605">
        <ele>203.100006104</ele>
        <time>2015-08-04T09:14:10.756Z</time>
      </trkpt>
      <trkpt lat="45.95808" lon="4.76612">
        <ele>203.100006104</ele>
        <time>2015-08-04T09:14:11.707Z</time>
      </trkpt>
      <trkpt lat="45.9581" lon="4.76619">
        <ele>203.600006104</ele>
        <time>2015-08-04T09:14:12.751Z</time>
      </trkpt>
      <trkpt lat="45.9581" lon="4.76626">
        <ele>203.300003052</ele>
        <time>2015-08-04T09:14:13.708Z</time>
      </trkpt>
      <trkpt lat="45.95811" lon="4.76633">
        <ele>203.199996948</ele>
        <time>2015-08-04T09:14:14.746Z</time>
      </trkpt>
      <trkpt lat="45.95812" lon="4.7664">
        <ele>203</ele>
        <time>2015-08-04T09:14:15.709Z</time>
      </trkpt>
      <trkpt lat="45.95813" lon="4.76648">
        <ele>202.300003052</ele>
        <time>2015-08-04T09:14:16.753Z</time>
      </trkpt>
      <trkpt lat="45.95814" lon="4.76655">
        <ele>202.100006104</ele>
        <time>2015-08-04T09:14:17.708Z</time>
      </trkpt>
      <trkpt lat="45.95815" lon="4.76662">
        <ele>202.399993896</ele>
        <time>2015-08-04T09:14:18.748Z</time>
      </trkpt>
      <trkpt lat="45.95816" lon="4.76669">
        <ele>202.399993896</ele>
        <time>2015-08-04T09:14:19.708Z</time>
      </trkpt>
      <trkpt lat="45.95818" lon="4.76676">
        <ele>202.600006104</ele>
        <time>2015-08-04T09:14:20.772Z</time>
      </trkpt>
      <trkpt lat="45.95818" lon="4.76683">
        <ele>201.800003052</ele>
        <time>2015-08-04T09:14:21.708Z</time>
      </trkpt>
      <trkpt lat="45.95819" lon="4.7669">
        <ele>201.899993896</ele>
        <time>2015-08-04T09:14:22.782Z</time>
      </trkpt>
      <trkpt lat="45.95821" lon="4.76698">
        <ele>202.600006104</ele>
        <time>2015-08-04T09:14:23.709Z</time>
      </trkpt>
      <trkpt lat="45.95822" lon="4.76705">
        <ele>202.800003052</ele>
        <time>2015-08-04T09:14:24.756Z</time>
      </trkpt>
      <trkpt lat="45.95823" lon="4.76713">
        <ele>203</ele>
        <time>2015-08-04T09:14:25.708Z</time>
      </trkpt>
      <trkpt lat="45.95824" lon="4.76721">
        <ele>203.100006104</ele>
        <time>2015-08-04T09:14:26.747Z</time>
      </trkpt>
      <trkpt lat="45.95825" lon="4.76729">
        <ele>202.800003052</ele>
        <time>2015-08-04T09:14:27.709Z</time>
      </trkpt>
      <trkpt lat="45.95826" lon="4.76736">
        <ele>203.199996948</ele>
        <time>2015-08-04T09:14:28.75Z</time>
      </trkpt>
      <trkpt lat="45.95828" lon="4.76744">
        <ele>203.199996948</ele>
        <time>2015-08-04T09:14:29.707Z</time>
      </trkpt>
      <trkpt lat="45.9583" lon="4.76752">
        <ele>203.100006104</ele>
        <time>2015-08-04T09:14:30.742Z</time>
      </trkpt>
      <trkpt lat="45.95831" lon="4.76759">
        <ele>203</ele>
        <time>2015-08-04T09:14:31.709Z</time>
      </trkpt>
      <trkpt lat="45.95833" lon="4.76766">
        <ele>202.699996948</ele>
        <time>2015-08-04T09:14:32.754Z</time>
      </trkpt>
      <trkpt lat="45.95834" lon="4.76773">
        <ele>204</ele>
        <time>2015-08-04T09:14:33.707Z</time>
      </trkpt>
      <trkpt lat="45.95835" lon="4.76779">
        <ele>204.100006104</ele>
        <time>2015-08-04T09:14:34.756Z</time>
      </trkpt>
      <trkpt lat="45.95835" lon="4.76786">
        <ele>203.699996948</ele>
        <time>2015-08-04T09:14:35.707Z</time>
      </trkpt>
      <trkpt lat="45.95835" lon="4.76793">
        <ele>203.100006104</ele>
        <time>2015-08-04T09:14:36.763Z</time>
      </trkpt>
      <trkpt lat="45.95835" lon="4.76801">
        <ele>203.199996948</ele>
        <time>2015-08-04T09:14:37.707Z</time>
      </trkpt>
      <trkpt lat="45.95834" lon="4.76809">
        <ele>203.5</ele>
        <time>2015-08-04T09:14:38.774Z</time>
      </trkpt>
      <trkpt lat="45.95834" lon="4.76817">
        <ele>203.899993896</ele>
        <time>2015-08-04T09:14:39.709Z</time>
      </trkpt>
      <trkpt lat="45.95833" lon="4.76825">
        <ele>203.899993896</ele>
        <time>2015-08-04T09:14:40.783Z</time>
      </trkpt>
      <trkpt lat="45.95831" lon="4.76833">
        <ele>204</ele>
        <time>2015-08-04T09:14:41.711Z</time>
      </trkpt>
      <trkpt lat="45.9583" lon="4.76841">
        <ele>204</ele>
        <time>2015-08-04T09:14:42.769Z</time>
      </trkpt>
      <trkpt lat="45.95828" lon="4.76848">
        <ele>204</ele>
        <time>2015-08-04T09:14:43.711Z</time>
      </trkpt>
      <trkpt lat="45.95827" lon="4.76856">
        <ele>204</ele>
        <time>2015-08-04T09:14:44.751Z</time>
      </trkpt>
      <trkpt lat="45.95825" lon="4.76865">
        <ele>203.800003052</ele>
        <time>2015-08-04T09:14:45.749Z</time>
      </trkpt>
      <trkpt lat="45.95823" lon="4.76873">
        <ele>203.699996948</ele>
        <time>2015-08-04T09:14:46.746Z</time>
      </trkpt>
      <trkpt lat="45.95822" lon="4.76881">
        <ele>203.800003052</ele>
        <time>2015-08-04T09:14:47.708Z</time>
      </trkpt>
      <trkpt lat="45.95821" lon="4.76889">
        <ele>203.699996948</ele>
        <time>2015-08-04T09:14:48.752Z</time>
      </trkpt>
      <trkpt lat="45.95819" lon="4.76897">
        <ele>203.800003052</ele>
        <time>2015-08-04T09:14:49.709Z</time>
      </trkpt>
      <trkpt lat="45.95817" lon="4.76905">
        <ele>203.800003052</ele>
        <time>2015-08-04T09:14:50.769Z</time>
      </trkpt>
      <trkpt lat="45.95815" lon="4.76913">
        <ele>203.899993896</ele>
        <time>2015-08-04T09:14:51.708Z</time>
      </trkpt>
      <trkpt lat="45.95813" lon="4.76922">
        <ele>203.899993896</ele>
        <time>2015-08-04T09:14:52.768Z</time>
      </trkpt>
      <trkpt lat="45.95812" lon="4.76929">
        <ele>204.199996948</ele>
        <time>2015-08-04T09:14:53.706Z</time>
      </trkpt>
      <trkpt lat="45.9581" lon="4.76938">
        <ele>204</ele>
        <time>2015-08-04T09:14:54.747Z</time>
      </trkpt>
      <trkpt lat="45.95808" lon="4.76945">
        <ele>204.100006104</ele>
        <time>2015-08-04T09:14:55.712Z</time>
      </trkpt>
      <trkpt lat="45.95807" lon="4.76953">
        <ele>204.199996948</ele>
        <time>2015-08-04T09:14:56.746Z</time>
      </trkpt>
      <trkpt lat="45.95806" lon="4.7696">
        <ele>204.300003052</ele>
        <time>2015-08-04T09:14:57.709Z</time>
      </trkpt>
      <trkpt lat="45.95805" lon="4.76967">
        <ele>203.600006104</ele>
        <time>2015-08-04T09:14:58.746Z</time>
      </trkpt>
      <trkpt lat="45.95805" lon="4.76976">
        <ele>203.800003052</ele>
        <time>2015-08-04T09:14:59.709Z</time>
      </trkpt>
      <trkpt lat="45.95805" lon="4.76983">
        <ele>203.800003052</ele>
        <time>2015-08-04T09:15:00.744Z</time>
      </trkpt>
      <trkpt lat="45.95805" lon="4.76991">
        <ele>203</ele>
        <time>2015-08-04T09:15:01.709Z</time>
      </trkpt>
      <trkpt lat="45.95806" lon="4.76999">
        <ele>202.600006104</ele>
        <time>2015-08-04T09:15:02.76Z</time>
      </trkpt>
      <trkpt lat="45.95808" lon="4.77007">
        <ele>202.199996948</ele>
        <time>2015-08-04T09:15:03.708Z</time>
      </trkpt>
      <trkpt lat="45.9581" lon="4.77014">
        <ele>202.199996948</ele>
        <time>2015-08-04T09:15:04.745Z</time>
      </trkpt>
      <trkpt lat="45.95813" lon="4.77022">
        <ele>202.199996948</ele>
        <time>2015-08-04T09:15:05.707Z</time>
      </trkpt>
      <trkpt lat="45.95816" lon="4.7703">
        <ele>202</ele>
        <time>2015-08-04T09:15:06.754Z</time>
      </trkpt>
      <trkpt lat="45.95818" lon="4.77037">
        <ele>202.699996948</ele>
        <time>2015-08-04T09:15:07.708Z</time>
      </trkpt>
      <trkpt lat="45.95821" lon="4.77044">
        <ele>202.800003052</ele>
        <time>2015-08-04T09:15:08.764Z</time>
      </trkpt>
      <trkpt lat="45.95824" lon="4.77051">
        <ele>202.399993896</ele>
        <time>2015-08-04T09:15:09.708Z</time>
      </trkpt>
      <trkpt lat="45.95827" lon="4.77058">
        <ele>201.800003052</ele>
        <time>2015-08-04T09:15:10.747Z</time>
      </trkpt>
      <trkpt lat="45.9583" lon="4.77066">
        <ele>201.899993896</ele>
        <time>2015-08-04T09:15:11.708Z</time>
      </trkpt>
      <trkpt lat="45.95832" lon="4.77073">
        <ele>201.699996948</ele>
        <time>2015-08-04T09:15:12.755Z</time>
      </trkpt>
      <trkpt lat="45.95835" lon="4.7708">
        <ele>201.600006104</ele>
        <time>2015-08-04T09:15:13.704Z</time>
      </trkpt>
      <trkpt lat="45.95837" lon="4.77088">
        <ele>201.399993896</ele>
        <time>2015-08-04T09:15:14.783Z</time>
      </trkpt>
      <trkpt lat="45.9584" lon="4.77095">
        <ele>201.300003052</ele>
        <time>2015-08-04T09:15:15.706Z</time>
      </trkpt>
      <trkpt lat="45.95842" lon="4.77103">
        <ele>200.800003052</ele>
        <time>2015-08-04T09:15:16.781Z</time>
      </trkpt>
      <trkpt lat="45.95843" lon="4.7711">
        <ele>201.100006104</ele>
        <time>2015-08-04T09:15:17.709Z</time>
      </trkpt>
      <trkpt lat="45.95845" lon="4.77117">
        <ele>201.100006104</ele>
        <time>2015-08-04T09:15:18.762Z</time>
      </trkpt>
      <trkpt lat="45.95847" lon="4.77124">
        <ele>201.399993896</ele>
        <time>2015-08-04T09:15:19.708Z</time>
      </trkpt>
      <trkpt lat="45.95849" lon="4.77131">
        <ele>201.699996948</ele>
        <time>2015-08-04T09:15:20.747Z</time>
      </trkpt>
      <trkpt lat="45.9585" lon="4.77138">
        <ele>203</ele>
        <time>2015-08-04T09:15:21.709Z</time>
      </trkpt>
      <trkpt lat="45.95852" lon="4.77145">
        <ele>203.300003052</ele>
        <time>2015-08-04T09:15:22.76Z</time>
      </trkpt>
      <trkpt lat="45.95854" lon="4.77152">
        <ele>203.300003052</ele>
        <time>2015-08-04T09:15:23.708Z</time>
      </trkpt>
      <trkpt lat="45.95855" lon="4.77159">
        <ele>203.300003052</ele>
        <time>2015-08-04T09:15:24.856Z</time>
      </trkpt>
      <trkpt lat="45.95858" lon="4.77166">
        <ele>203</ele>
        <time>2015-08-04T09:15:25.709Z</time>
      </trkpt>
      <trkpt lat="45.95859" lon="4.77173">
        <ele>203.399993896</ele>
        <time>2015-08-04T09:15:26.749Z</time>
      </trkpt>
      <trkpt lat="45.95861" lon="4.7718">
        <ele>204.300003052</ele>
        <time>2015-08-04T09:15:27.707Z</time>
      </trkpt>
      <trkpt lat="45.95863" lon="4.77186">
        <ele>204.5</ele>
        <time>2015-08-04T09:15:28.752Z</time>
      </trkpt>
      <trkpt lat="45.95864" lon="4.77193">
        <ele>204.899993896</ele>
        <time>2015-08-04T09:15:29.708Z</time>
      </trkpt>
      <trkpt lat="45.95866" lon="4.772">
        <ele>205</ele>
        <time>2015-08-04T09:15:30.748Z</time>
      </trkpt>
      <trkpt lat="45.95868" lon="4.77207">
        <ele>205.5</ele>
        <time>2015-08-04T09:15:31.708Z</time>
      </trkpt>
      <trkpt lat="45.9587" lon="4.77214">
        <ele>205.699996948</ele>
        <time>2015-08-04T09:15:32.755Z</time>
      </trkpt>
      <trkpt lat="45.95872" lon="4.77221">
        <ele>205.699996948</ele>
        <time>2015-08-04T09:15:33.709Z</time>
      </trkpt>
      <trkpt lat="45.95874" lon="4.77229">
        <ele>205.899993896</ele>
        <time>2015-08-04T09:15:34.917Z</time>
      </trkpt>
      <trkpt lat="45.95876" lon="4.77236">
        <ele>206.600006104</ele>
        <time>2015-08-04T09:15:35.709Z</time>
      </trkpt>
      <trkpt lat="45.95877" lon="4.77243">
        <ele>206.899993896</ele>
        <time>2015-08-04T09:15:36.752Z</time>
      </trkpt>
      <trkpt lat="45.95879" lon="4.77251">
        <ele>206.800003052</ele>
        <time>2015-08-04T09:15:37.707Z</time>
      </trkpt>
      <trkpt lat="45.95881" lon="4.77259">
        <ele>206.899993896</ele>
        <time>2015-08-04T09:15:38.749Z</time>
      </trkpt>
      <trkpt lat="45.95882" lon="4.77266">
        <ele>206.800003052</ele>
        <time>2015-08-04T09:15:39.708Z</time>
      </trkpt>
      <trkpt lat="45.95884" lon="4.77274">
        <ele>206.699996948</ele>
        <time>2015-08-04T09:15:40.747Z</time>
      </trkpt>
      <trkpt lat="45.95886" lon="4.77281">
        <ele>206.399993896</ele>
        <time>2015-08-04T09:15:41.707Z</time>
      </trkpt>
      <trkpt lat="45.95887" lon="4.77287">
        <ele>206.300003052</ele>
        <time>2015-08-04T09:15:42.76Z</time>
      </trkpt>
      <trkpt lat="45.95889" lon="4.77294">
        <ele>205.899993896</ele>
        <time>2015-08-04T09:15:43.706Z</time>
      </trkpt>
      <trkpt lat="45.9589" lon="4.773">
        <ele>205.399993896</ele>
        <time>2015-08-04T09:15:44.741Z</time>
      </trkpt>
      <trkpt lat="45.95892" lon="4.77307">
        <ele>205.399993896</ele>
        <time>2015-08-04T09:15:45.708Z</time>
      </trkpt>
      <trkpt lat="45.95894" lon="4.77313">
        <ele>205.300003052</ele>
        <time>2015-08-04T09:15:46.747Z</time>
      </trkpt>
      <trkpt lat="45.95896" lon="4.77319">
        <ele>205.600006104</ele>
        <time>2015-08-04T09:15:47.721Z</time>
      </trkpt>
      <trkpt lat="45.95897" lon="4.77326">
        <ele>205.600006104</ele>
        <time>2015-08-04T09:15:48.748Z</time>
      </trkpt>
      <trkpt lat="45.959" lon="4.77333">
        <ele>205.699996948</ele>
        <time>2015-08-04T09:15:49.708Z</time>
      </trkpt>
      <trkpt lat="45.95902" lon="4.77339">
        <ele>206.199996948</ele>
        <time>2015-08-04T09:15:50.792Z</time>
      </trkpt>
      <trkpt lat="45.95904" lon="4.77346">
        <ele>206.399993896</ele>
        <time>2015-08-04T09:15:51.708Z</time>
      </trkpt>
      <trkpt lat="45.95906" lon="4.77353">
        <ele>207.100006104</ele>
        <time>2015-08-04T09:15:52.762Z</time>
      </trkpt>
      <trkpt lat="45.95908" lon="4.7736">
        <ele>206.199996948</ele>
        <time>2015-08-04T09:15:53.708Z</time>
      </trkpt>
      <trkpt lat="45.95911" lon="4.77367">
        <ele>206.800003052</ele>
        <time>2015-08-04T09:15:54.747Z</time>
      </trkpt>
      <trkpt lat="45.95912" lon="4.77375">
        <ele>206.300003052</ele>
        <time>2015-08-04T09:15:55.709Z</time>
      </trkpt>
      <trkpt lat="45.95915" lon="4.77381">
        <ele>206.899993896</ele>
        <time>2015-08-04T09:15:56.742Z</time>
      </trkpt>
      <trkpt lat="45.95917" lon="4.77387">
        <ele>207.800003052</ele>
        <time>2015-08-04T09:15:57.707Z</time>
      </trkpt>
      <trkpt lat="45.95919" lon="4.77393">
        <ele>207.800003052</ele>
        <time>2015-08-04T09:15:58.75Z</time>
      </trkpt>
      <trkpt lat="45.95922" lon="4.77399">
        <ele>209</ele>
        <time>2015-08-04T09:15:59.708Z</time>
      </trkpt>
      <trkpt lat="45.95926" lon="4.77405">
        <ele>209.5</ele>
        <time>2015-08-04T09:16:00.762Z</time>
      </trkpt>
      <trkpt lat="45.95927" lon="4.77411">
        <ele>210</ele>
        <time>2015-08-04T09:16:01.707Z</time>
      </trkpt>
      <trkpt lat="45.95929" lon="4.77417">
        <ele>210.399993896</ele>
        <time>2015-08-04T09:16:02.758Z</time>
      </trkpt>
      <trkpt lat="45.95931" lon="4.77425">
        <ele>210.899993896</ele>
        <time>2015-08-04T09:16:03.756Z</time>
      </trkpt>
      <trkpt lat="45.95933" lon="4.77432">
        <ele>211.100006104</ele>
        <time>2015-08-04T09:16:04.794Z</time>
      </trkpt>
      <trkpt lat="45.95935" lon="4.77439">
        <ele>211.399993896</ele>
        <time>2015-08-04T09:16:05.707Z</time>
      </trkpt>
      <trkpt lat="45.95937" lon="4.77446">
        <ele>211.399993896</ele>
        <time>2015-08-04T09:16:06.745Z</time>
      </trkpt>
      <trkpt lat="45.95939" lon="4.77453">
        <ele>211.5</ele>
        <time>2015-08-04T09:16:07.708Z</time>
      </trkpt>
      <trkpt lat="45.95942" lon="4.77459">
        <ele>211.800003052</ele>
        <time>2015-08-04T09:16:08.745Z</time>
      </trkpt>
      <trkpt lat="45.95944" lon="4.77465">
        <ele>212.199996948</ele>
        <time>2015-08-04T09:16:09.708Z</time>
      </trkpt>
      <trkpt lat="45.95947" lon="4.77471">
        <ele>211.899993896</ele>
        <time>2015-08-04T09:16:10.748Z</time>
      </trkpt>
      <trkpt lat="45.95949" lon="4.77477">
        <ele>211.600006104</ele>
        <time>2015-08-04T09:16:11.722Z</time>
      </trkpt>
      <trkpt lat="45.95951" lon="4.77483">
        <ele>211.600006104</ele>
        <time>2015-08-04T09:16:12.764Z</time>
      </trkpt>
      <trkpt lat="45.95954" lon="4.77489">
        <ele>211.800003052</ele>
        <time>2015-08-04T09:16:13.746Z</time>
      </trkpt>
      <trkpt lat="45.95956" lon="4.77494">
        <ele>211.800003052</ele>
        <time>2015-08-04T09:16:14.741Z</time>
      </trkpt>
      <trkpt lat="45.95958" lon="4.775">
        <ele>211.899993896</ele>
        <time>2015-08-04T09:16:15.708Z</time>
      </trkpt>
      <trkpt lat="45.9596" lon="4.77506">
        <ele>211.800003052</ele>
        <time>2015-08-04T09:16:16.753Z</time>
      </trkpt>
      <trkpt lat="45.95963" lon="4.77511">
        <ele>212.100006104</ele>
        <time>2015-08-04T09:16:17.708Z</time>
      </trkpt>
      <trkpt lat="45.95966" lon="4.77522">
        <ele>211.899993896</ele>
        <time>2015-08-04T09:16:19.749Z</time>
      </trkpt>
      <trkpt lat="45.95969" lon="4.77527">
        <ele>211.899993896</ele>
        <time>2015-08-04T09:16:20.709Z</time>
      </trkpt>
      <trkpt lat="45.95973" lon="4.77537">
        <ele>211.699996948</ele>
        <time>2015-08-04T09:16:22.81Z</time>
      </trkpt>
      <trkpt lat="45.95975" lon="4.77541">
        <ele>211.699996948</ele>
        <time>2015-08-04T09:16:23.741Z</time>
      </trkpt>
      <trkpt lat="45.95978" lon="4.77549">
        <ele>212.399993896</ele>
        <time>2015-08-04T09:16:25.746Z</time>
      </trkpt>
      <trkpt lat="45.9598" lon="4.77554">
        <ele>212.699996948</ele>
        <time>2015-08-04T09:16:26.71Z</time>
      </trkpt>
      <trkpt lat="45.95982" lon="4.77559">
        <ele>212.699996948</ele>
        <time>2015-08-04T09:16:27.744Z</time>
      </trkpt>
      <trkpt lat="45.95985" lon="4.77565">
        <ele>212.699996948</ele>
        <time>2015-08-04T09:16:28.709Z</time>
      </trkpt>
      <trkpt lat="45.95988" lon="4.77571">
        <ele>212.800003052</ele>
        <time>2015-08-04T09:16:29.758Z</time>
      </trkpt>
      <trkpt lat="45.95991" lon="4.77578">
        <ele>212.699996948</ele>
        <time>2015-08-04T09:16:30.707Z</time>
      </trkpt>
      <trkpt lat="45.95994" lon="4.77585">
        <ele>213.199996948</ele>
        <time>2015-08-04T09:16:31.743Z</time>
      </trkpt>
      <trkpt lat="45.95997" lon="4.77591">
        <ele>213.399993896</ele>
        <time>2015-08-04T09:16:32.721Z</time>
      </trkpt>
      <trkpt lat="45.96001" lon="4.77598">
        <ele>213.399993896</ele>
        <time>2015-08-04T09:16:33.806Z</time>
      </trkpt>
      <trkpt lat="45.96005" lon="4.77604">
        <ele>213.399993896</ele>
        <time>2015-08-04T09:16:34.709Z</time>
      </trkpt>
      <trkpt lat="45.96009" lon="4.77608">
        <ele>213.199996948</ele>
        <time>2015-08-04T09:16:35.742Z</time>
      </trkpt>
      <trkpt lat="45.96013" lon="4.77612">
        <ele>212.800003052</ele>
        <time>2015-08-04T09:16:36.746Z</time>
      </trkpt>
      <trkpt lat="45.96018" lon="4.77615">
        <ele>212.399993896</ele>
        <time>2015-08-04T09:16:37.743Z</time>
      </trkpt>
      <trkpt lat="45.96022" lon="4.77619">
        <ele>212</ele>
        <time>2015-08-04T09:16:38.708Z</time>
      </trkpt>
      <trkpt lat="45.96026" lon="4.77624">
        <ele>211.899993896</ele>
        <time>2015-08-04T09:16:39.748Z</time>
      </trkpt>
      <trkpt lat="45.96029" lon="4.77629">
        <ele>211.199996948</ele>
        <time>2015-08-04T09:16:40.709Z</time>
      </trkpt>
      <trkpt lat="45.96033" lon="4.77634">
        <ele>211.300003052</ele>
        <time>2015-08-04T09:16:41.749Z</time>
      </trkpt>
      <trkpt lat="45.96036" lon="4.77638">
        <ele>210.899993896</ele>
        <time>2015-08-04T09:16:42.725Z</time>
      </trkpt>
      <trkpt lat="45.9604" lon="4.77642">
        <ele>210.800003052</ele>
        <time>2015-08-04T09:16:43.807Z</time>
      </trkpt>
      <trkpt lat="45.96043" lon="4.77647">
        <ele>210.699996948</ele>
        <time>2015-08-04T09:16:44.707Z</time>
      </trkpt>
      <trkpt lat="45.96047" lon="4.77651">
        <ele>210.5</ele>
        <time>2015-08-04T09:16:45.786Z</time>
      </trkpt>
      <trkpt lat="45.96051" lon="4.77656">
        <ele>210.399993896</ele>
        <time>2015-08-04T09:16:46.711Z</time>
      </trkpt>
      <trkpt lat="45.96055" lon="4.7766">
        <ele>210.800003052</ele>
        <time>2015-08-04T09:16:47.742Z</time>
      </trkpt>
      <trkpt lat="45.96058" lon="4.77665">
        <ele>210.899993896</ele>
        <time>2015-08-04T09:16:48.726Z</time>
      </trkpt>
      <trkpt lat="45.96062" lon="4.7767">
        <ele>210.899993896</ele>
        <time>2015-08-04T09:16:49.741Z</time>
      </trkpt>
      <trkpt lat="45.96065" lon="4.77674">
        <ele>210.699996948</ele>
        <time>2015-08-04T09:16:50.708Z</time>
      </trkpt>
      <trkpt lat="45.96069" lon="4.77679">
        <ele>210.699996948</ele>
        <time>2015-08-04T09:16:51.744Z</time>
      </trkpt>
      <trkpt lat="45.96073" lon="4.77684">
        <ele>210.800003052</ele>
        <time>2015-08-04T09:16:52.734Z</time>
      </trkpt>
      <trkpt lat="45.96076" lon="4.77689">
        <ele>210.800003052</ele>
        <time>2015-08-04T09:16:53.826Z</time>
      </trkpt>
      <trkpt lat="45.9608" lon="4.77695">
        <ele>210.800003052</ele>
        <time>2015-08-04T09:16:54.709Z</time>
      </trkpt>
      <trkpt lat="45.96083" lon="4.777">
        <ele>210.899993896</ele>
        <time>2015-08-04T09:16:55.743Z</time>
      </trkpt>
      <trkpt lat="45.96086" lon="4.77705">
        <ele>210.800003052</ele>
        <time>2015-08-04T09:16:56.708Z</time>
      </trkpt>
      <trkpt lat="45.9609" lon="4.77711">
        <ele>210.800003052</ele>
        <time>2015-08-04T09:16:57.75Z</time>
      </trkpt>
      <trkpt lat="45.96093" lon="4.77716">
        <ele>211</ele>
        <time>2015-08-04T09:16:58.71Z</time>
      </trkpt>
      <trkpt lat="45.96096" lon="4.77721">
        <ele>211</ele>
        <time>2015-08-04T09:16:59.747Z</time>
      </trkpt>
      <trkpt lat="45.96099" lon="4.77727">
        <ele>211</ele>
        <time>2015-08-04T09:17:00.709Z</time>
      </trkpt>
      <trkpt lat="45.96102" lon="4.77732">
        <ele>211.100006104</ele>
        <time>2015-08-04T09:17:01.757Z</time>
      </trkpt>
      <trkpt lat="45.96105" lon="4.77738">
        <ele>211.399993896</ele>
        <time>2015-08-04T09:17:02.724Z</time>
      </trkpt>
      <trkpt lat="45.96107" lon="4.77744">
        <ele>211.800003052</ele>
        <time>2015-08-04T09:17:03.741Z</time>
      </trkpt>
      <trkpt lat="45.9611" lon="4.7775">
        <ele>212</ele>
        <time>2015-08-04T09:17:04.711Z</time>
      </trkpt>
      <trkpt lat="45.96112" lon="4.77755">
        <ele>212.199996948</ele>
        <time>2015-08-04T09:17:05.748Z</time>
      </trkpt>
      <trkpt lat="45.96115" lon="4.77761">
        <ele>212.699996948</ele>
        <time>2015-08-04T09:17:06.708Z</time>
      </trkpt>
      <trkpt lat="45.96118" lon="4.77766">
        <ele>213</ele>
        <time>2015-08-04T09:17:07.744Z</time>
      </trkpt>
      <trkpt lat="45.96121" lon="4.77772">
        <ele>213</ele>
        <time>2015-08-04T09:17:08.708Z</time>
      </trkpt>
      <trkpt lat="45.96124" lon="4.77777">
        <ele>213.300003052</ele>
        <time>2015-08-04T09:17:09.785Z</time>
      </trkpt>
      <trkpt lat="45.96126" lon="4.77782">
        <ele>214.100006104</ele>
        <time>2015-08-04T09:17:10.71Z</time>
      </trkpt>
      <trkpt lat="45.9613" lon="4.77787">
        <ele>214.399993896</ele>
        <time>2015-08-04T09:17:11.745Z</time>
      </trkpt>
      <trkpt lat="45.96133" lon="4.77792">
        <ele>214.5</ele>
        <time>2015-08-04T09:17:12.722Z</time>
      </trkpt>
      <trkpt lat="45.96136" lon="4.77797">
        <ele>214.699996948</ele>
        <time>2015-08-04T09:17:13.752Z</time>
      </trkpt>
      <trkpt lat="45.9614" lon="4.77802">
        <ele>214.899993896</ele>
        <time>2015-08-04T09:17:14.706Z</time>
      </trkpt>
      <trkpt lat="45.96143" lon="4.77809">
        <ele>214.899993896</ele>
        <time>2015-08-04T09:17:15.742Z</time>
      </trkpt>
      <trkpt lat="45.96145" lon="4.77814">
        <ele>214.899993896</ele>
        <time>2015-08-04T09:17:16.709Z</time>
      </trkpt>
      <trkpt lat="45.96148" lon="4.7782">
        <ele>214.600006104</ele>
        <time>2015-08-04T09:17:17.752Z</time>
      </trkpt>
      <trkpt lat="45.96152" lon="4.77825">
        <ele>214.800003052</ele>
        <time>2015-08-04T09:17:18.708Z</time>
      </trkpt>
      <trkpt lat="45.96156" lon="4.77831">
        <ele>214.899993896</ele>
        <time>2015-08-04T09:17:19.793Z</time>
      </trkpt>
      <trkpt lat="45.9616" lon="4.77837">
        <ele>215.300003052</ele>
        <time>2015-08-04T09:17:20.706Z</time>
      </trkpt>
      <trkpt lat="45.96163" lon="4.77843">
        <ele>216</ele>
        <time>2015-08-04T09:17:21.741Z</time>
      </trkpt>
      <trkpt lat="45.96167" lon="4.77849">
        <ele>216.5</ele>
        <time>2015-08-04T09:17:22.728Z</time>
      </trkpt>
      <trkpt lat="45.96171" lon="4.77855">
        <ele>216.5</ele>
        <time>2015-08-04T09:17:23.741Z</time>
      </trkpt>
      <trkpt lat="45.96174" lon="4.77862">
        <ele>216.399993896</ele>
        <time>2015-08-04T09:17:24.707Z</time>
      </trkpt>
      <trkpt lat="45.96178" lon="4.77868">
        <ele>216.800003052</ele>
        <time>2015-08-04T09:17:25.816Z</time>
      </trkpt>
      <trkpt lat="45.96182" lon="4.77874">
        <ele>217.100006104</ele>
        <time>2015-08-04T09:17:26.707Z</time>
      </trkpt>
      <trkpt lat="45.96185" lon="4.77881">
        <ele>217.300003052</ele>
        <time>2015-08-04T09:17:27.746Z</time>
      </trkpt>
      <trkpt lat="45.96189" lon="4.77888">
        <ele>217.699996948</ele>
        <time>2015-08-04T09:17:28.709Z</time>
      </trkpt>
      <trkpt lat="45.96193" lon="4.77894">
        <ele>218.100006104</ele>
        <time>2015-08-04T09:17:29.746Z</time>
      </trkpt>
      <trkpt lat="45.96196" lon="4.779">
        <ele>218.100006104</ele>
        <time>2015-08-04T09:17:30.707Z</time>
      </trkpt>
      <trkpt lat="45.962" lon="4.77905">
        <ele>218.100006104</ele>
        <time>2015-08-04T09:17:31.746Z</time>
      </trkpt>
      <trkpt lat="45.96204" lon="4.77911">
        <ele>218.300003052</ele>
        <time>2015-08-04T09:17:32.734Z</time>
      </trkpt>
      <trkpt lat="45.96208" lon="4.77917">
        <ele>218.399993896</ele>
        <time>2015-08-04T09:17:33.741Z</time>
      </trkpt>
      <trkpt lat="45.96212" lon="4.77924">
        <ele>218.699996948</ele>
        <time>2015-08-04T09:17:34.711Z</time>
      </trkpt>
      <trkpt lat="45.96216" lon="4.7793">
        <ele>218.899993896</ele>
        <time>2015-08-04T09:17:35.744Z</time>
      </trkpt>
      <trkpt lat="45.9622" lon="4.77937">
        <ele>219.300003052</ele>
        <time>2015-08-04T09:17:36.709Z</time>
      </trkpt>
      <trkpt lat="45.96224" lon="4.77943">
        <ele>219.399993896</ele>
        <time>2015-08-04T09:17:37.767Z</time>
      </trkpt>
      <trkpt lat="45.96228" lon="4.7795">
        <ele>219.5</ele>
        <time>2015-08-04T09:17:38.708Z</time>
      </trkpt>
      <trkpt lat="45.96232" lon="4.77955">
        <ele>219.5</ele>
        <time>2015-08-04T09:17:39.749Z</time>
      </trkpt>
      <trkpt lat="45.96236" lon="4.77961">
        <ele>219.699996948</ele>
        <time>2015-08-04T09:17:40.743Z</time>
      </trkpt>
      <trkpt lat="45.9624" lon="4.77966">
        <ele>220.399993896</ele>
        <time>2015-08-04T09:17:41.773Z</time>
      </trkpt>
      <trkpt lat="45.96244" lon="4.77971">
        <ele>220.699996948</ele>
        <time>2015-08-04T09:17:42.737Z</time>
      </trkpt>
      <trkpt lat="45.96249" lon="4.77976">
        <ele>221</ele>
        <time>2015-08-04T09:17:43.755Z</time>
      </trkpt>
      <trkpt lat="45.96254" lon="4.7798">
        <ele>221.5</ele>
        <time>2015-08-04T09:17:44.709Z</time>
      </trkpt>
      <trkpt lat="45.96259" lon="4.77985">
        <ele>221.5</ele>
        <time>2015-08-04T09:17:45.753Z</time>
      </trkpt>
      <trkpt lat="45.96264" lon="4.7799">
        <ele>221.399993896</ele>
        <time>2015-08-04T09:17:46.71Z</time>
      </trkpt>
      <trkpt lat="45.96268" lon="4.77995">
        <ele>221.800003052</ele>
        <time>2015-08-04T09:17:47.745Z</time>
      </trkpt>
      <trkpt lat="45.96274" lon="4.77999">
        <ele>221.899993896</ele>
        <time>2015-08-04T09:17:48.71Z</time>
      </trkpt>
      <trkpt lat="45.96279" lon="4.78004">
        <ele>222.100006104</ele>
        <time>2015-08-04T09:17:49.744Z</time>
      </trkpt>
      <trkpt lat="45.96283" lon="4.7801">
        <ele>222.699996948</ele>
        <time>2015-08-04T09:17:50.707Z</time>
      </trkpt>
      <trkpt lat="45.96288" lon="4.78015">
        <ele>223.300003052</ele>
        <time>2015-08-04T09:17:51.746Z</time>
      </trkpt>
      <trkpt lat="45.96294" lon="4.7802">
        <ele>224</ele>
        <time>2015-08-04T09:17:52.734Z</time>
      </trkpt>
      <trkpt lat="45.96299" lon="4.78025">
        <ele>224.399993896</ele>
        <time>2015-08-04T09:17:53.751Z</time>
      </trkpt>
      <trkpt lat="45.96304" lon="4.7803">
        <ele>224.800003052</ele>
        <time>2015-08-04T09:17:54.708Z</time>
      </trkpt>
      <trkpt lat="45.96309" lon="4.78035">
        <ele>225.100006104</ele>
        <time>2015-08-04T09:17:55.746Z</time>
      </trkpt>
      <trkpt lat="45.96313" lon="4.7804">
        <ele>225.100006104</ele>
        <time>2015-08-04T09:17:56.708Z</time>
      </trkpt>
      <trkpt lat="45.96318" lon="4.78045">
        <ele>224.699996948</ele>
        <time>2015-08-04T09:17:57.767Z</time>
      </trkpt>
      <trkpt lat="45.96323" lon="4.78051">
        <ele>224.399993896</ele>
        <time>2015-08-04T09:17:58.712Z</time>
      </trkpt>
      <trkpt lat="45.96328" lon="4.78056">
        <ele>224</ele>
        <time>2015-08-04T09:17:59.744Z</time>
      </trkpt>
      <trkpt lat="45.96333" lon="4.78061">
        <ele>223.600006104</ele>
        <time>2015-08-04T09:18:00.709Z</time>
      </trkpt>
      <trkpt lat="45.96338" lon="4.78066">
        <ele>223.699996948</ele>
        <time>2015-08-04T09:18:01.746Z</time>
      </trkpt>
      <trkpt lat="45.96342" lon="4.78071">
        <ele>223.399993896</ele>
        <time>2015-08-04T09:18:02.778Z</time>
      </trkpt>
      <trkpt lat="45.96347" lon="4.78075">
        <ele>222.399993896</ele>
        <time>2015-08-04T09:18:03.745Z</time>
      </trkpt>
      <trkpt lat="45.96352" lon="4.7808">
        <ele>222.100006104</ele>
        <time>2015-08-04T09:18:04.711Z</time>
      </trkpt>
      <trkpt lat="45.96357" lon="4.78085">
        <ele>221.699996948</ele>
        <time>2015-08-04T09:18:05.742Z</time>
      </trkpt>
      <trkpt lat="45.96362" lon="4.78089">
        <ele>220.800003052</ele>
        <time>2015-08-04T09:18:06.709Z</time>
      </trkpt>
      <trkpt lat="45.96366" lon="4.78093">
        <ele>220.399993896</ele>
        <time>2015-08-04T09:18:07.748Z</time>
      </trkpt>
      <trkpt lat="45.9637" lon="4.78097">
        <ele>219.800003052</ele>
        <time>2015-08-04T09:18:08.706Z</time>
      </trkpt>
      <trkpt lat="45.96375" lon="4.78101">
        <ele>219.600006104</ele>
        <time>2015-08-04T09:18:09.755Z</time>
      </trkpt>
      <trkpt lat="45.9638" lon="4.78104">
        <ele>218.699996948</ele>
        <time>2015-08-04T09:18:10.71Z</time>
      </trkpt>
      <trkpt lat="45.96385" lon="4.78108">
        <ele>218.399993896</ele>
        <time>2015-08-04T09:18:11.816Z</time>
      </trkpt>
      <trkpt lat="45.96389" lon="4.78113">
        <ele>217.699996948</ele>
        <time>2015-08-04T09:18:12.736Z</time>
      </trkpt>
      <trkpt lat="45.96394" lon="4.78119">
        <ele>217.800003052</ele>
        <time>2015-08-04T09:18:13.744Z</time>
      </trkpt>
      <trkpt lat="45.96399" lon="4.78123">
        <ele>218.199996948</ele>
        <time>2015-08-04T09:18:14.706Z</time>
      </trkpt>
      <trkpt lat="45.96404" lon="4.78128">
        <ele>218.300003052</ele>
        <time>2015-08-04T09:18:15.746Z</time>
      </trkpt>
      <trkpt lat="45.96408" lon="4.78133">
        <ele>218.199996948</ele>
        <time>2015-08-04T09:18:16.71Z</time>
      </trkpt>
      <trkpt lat="45.96414" lon="4.78138">
        <ele>217.899993896</ele>
        <time>2015-08-04T09:18:17.745Z</time>
      </trkpt>
      <trkpt lat="45.96419" lon="4.78144">
        <ele>217.5</ele>
        <time>2015-08-04T09:18:18.707Z</time>
      </trkpt>
      <trkpt lat="45.96424" lon="4.78149">
        <ele>217.5</ele>
        <time>2015-08-04T09:18:19.767Z</time>
      </trkpt>
      <trkpt lat="45.9643" lon="4.78154">
        <ele>217.399993896</ele>
        <time>2015-08-04T09:18:20.708Z</time>
      </trkpt>
      <trkpt lat="45.96435" lon="4.78159">
        <ele>217.399993896</ele>
        <time>2015-08-04T09:18:21.74Z</time>
      </trkpt>
      <trkpt lat="45.96441" lon="4.78163">
        <ele>216.699996948</ele>
        <time>2015-08-04T09:18:22.735Z</time>
      </trkpt>
      <trkpt lat="45.96446" lon="4.78168">
        <ele>216.399993896</ele>
        <time>2015-08-04T09:18:23.742Z</time>
      </trkpt>
      <trkpt lat="45.96451" lon="4.78173">
        <ele>216.199996948</ele>
        <time>2015-08-04T09:18:24.709Z</time>
      </trkpt>
      <trkpt lat="45.96456" lon="4.78178">
        <ele>215.699996948</ele>
        <time>2015-08-04T09:18:25.74Z</time>
      </trkpt>
      <trkpt lat="45.96461" lon="4.78182">
        <ele>215.699996948</ele>
        <time>2015-08-04T09:18:26.706Z</time>
      </trkpt>
      <trkpt lat="45.96466" lon="4.78186">
        <ele>215.800003052</ele>
        <time>2015-08-04T09:18:27.742Z</time>
      </trkpt>
      <trkpt lat="45.96471" lon="4.78189">
        <ele>215.699996948</ele>
        <time>2015-08-04T09:18:28.726Z</time>
      </trkpt>
      <trkpt lat="45.96476" lon="4.78192">
        <ele>216.199996948</ele>
        <time>2015-08-04T09:18:29.826Z</time>
      </trkpt>
      <trkpt lat="45.96482" lon="4.78194">
        <ele>216.600006104</ele>
        <time>2015-08-04T09:18:30.707Z</time>
      </trkpt>
      <trkpt lat="45.96487" lon="4.78197">
        <ele>217.199996948</ele>
        <time>2015-08-04T09:18:31.744Z</time>
      </trkpt>
      <trkpt lat="45.96492" lon="4.78201">
        <ele>217.600006104</ele>
        <time>2015-08-04T09:18:32.733Z</time>
      </trkpt>
      <trkpt lat="45.96497" lon="4.78204">
        <ele>217.600006104</ele>
        <time>2015-08-04T09:18:33.778Z</time>
      </trkpt>
      <trkpt lat="45.96502" lon="4.78208">
        <ele>218</ele>
        <time>2015-08-04T09:18:34.709Z</time>
      </trkpt>
      <trkpt lat="45.96506" lon="4.78212">
        <ele>218.100006104</ele>
        <time>2015-08-04T09:18:35.742Z</time>
      </trkpt>
      <trkpt lat="45.96509" lon="4.78218">
        <ele>218.300003052</ele>
        <time>2015-08-04T09:18:36.709Z</time>
      </trkpt>
      <trkpt lat="45.96513" lon="4.78224">
        <ele>218.399993896</ele>
        <time>2015-08-04T09:18:37.744Z</time>
      </trkpt>
      <trkpt lat="45.96516" lon="4.78231">
        <ele>218.300003052</ele>
        <time>2015-08-04T09:18:38.706Z</time>
      </trkpt>
      <trkpt lat="45.9652" lon="4.78239">
        <ele>218.300003052</ele>
        <time>2015-08-04T09:18:39.744Z</time>
      </trkpt>
      <trkpt lat="45.96523" lon="4.78245">
        <ele>218.199996948</ele>
        <time>2015-08-04T09:18:40.711Z</time>
      </trkpt>
      <trkpt lat="45.96527" lon="4.78252">
        <ele>218.100006104</ele>
        <time>2015-08-04T09:18:41.741Z</time>
      </trkpt>
      <trkpt lat="45.96531" lon="4.78258">
        <ele>218.399993896</ele>
        <time>2015-08-04T09:18:42.784Z</time>
      </trkpt>
      <trkpt lat="45.96535" lon="4.78264">
        <ele>218.899993896</ele>
        <time>2015-08-04T09:18:43.744Z</time>
      </trkpt>
      <trkpt lat="45.96539" lon="4.7827">
        <ele>219.300003052</ele>
        <time>2015-08-04T09:18:44.708Z</time>
      </trkpt>
      <trkpt lat="45.96543" lon="4.78275">
        <ele>219.600006104</ele>
        <time>2015-08-04T09:18:45.746Z</time>
      </trkpt>
      <trkpt lat="45.96548" lon="4.78282">
        <ele>219.300003052</ele>
        <time>2015-08-04T09:18:46.709Z</time>
      </trkpt>
      <trkpt lat="45.96552" lon="4.78287">
        <ele>219.600006104</ele>
        <time>2015-08-04T09:18:47.742Z</time>
      </trkpt>
      <trkpt lat="45.96556" lon="4.78293">
        <ele>219.5</ele>
        <time>2015-08-04T09:18:48.707Z</time>
      </trkpt>
      <trkpt lat="45.9656" lon="4.78298">
        <ele>219.800003052</ele>
        <time>2015-08-04T09:18:49.759Z</time>
      </trkpt>
      <trkpt lat="45.96565" lon="4.78302">
        <ele>220.100006104</ele>
        <time>2015-08-04T09:18:50.706Z</time>
      </trkpt>
      <trkpt lat="45.9657" lon="4.78307">
        <ele>220.699996948</ele>
        <time>2015-08-04T09:18:51.745Z</time>
      </trkpt>
      <trkpt lat="45.96575" lon="4.78311">
        <ele>220.699996948</ele>
        <time>2015-08-04T09:18:52.733Z</time>
      </trkpt>
      <trkpt lat="45.96579" lon="4.78316">
        <ele>220.899993896</ele>
        <time>2015-08-04T09:18:53.748Z</time>
      </trkpt>
      <trkpt lat="45.96584" lon="4.78321">
        <ele>221</ele>
        <time>2015-08-04T09:18:54.707Z</time>
      </trkpt>
      <trkpt lat="45.96589" lon="4.78326">
        <ele>220.800003052</ele>
        <time>2015-08-04T09:18:55.777Z</time>
      </trkpt>
      <trkpt lat="45.96594" lon="4.78331">
        <ele>221</ele>
        <time>2015-08-04T09:18:56.708Z</time>
      </trkpt>
      <trkpt lat="45.96599" lon="4.78336">
        <ele>220.800003052</ele>
        <time>2015-08-04T09:18:57.744Z</time>
      </trkpt>
      <trkpt lat="45.96603" lon="4.7834">
        <ele>221.100006104</ele>
        <time>2015-08-04T09:18:58.71Z</time>
      </trkpt>
      <trkpt lat="45.96608" lon="4.78345">
        <ele>221.300003052</ele>
        <time>2015-08-04T09:18:59.743Z</time>
      </trkpt>
      <trkpt lat="45.96613" lon="4.78349">
        <ele>221.5</ele>
        <time>2015-08-04T09:19:00.707Z</time>
      </trkpt>
      <trkpt lat="45.96618" lon="4.78354">
        <ele>221.399993896</ele>
        <time>2015-08-04T09:19:01.745Z</time>
      </trkpt>
      <trkpt lat="45.96622" lon="4.78358">
        <ele>221.399993896</ele>
        <time>2015-08-04T09:19:02.726Z</time>
      </trkpt>
      <trkpt lat="45.96627" lon="4.78362">
        <ele>221.5</ele>
        <time>2015-08-04T09:19:03.748Z</time>
      </trkpt>
      <trkpt lat="45.96631" lon="4.78367">
        <ele>221.5</ele>
        <time>2015-08-04T09:19:04.709Z</time>
      </trkpt>
      <trkpt lat="45.96636" lon="4.78371">
        <ele>221.300003052</ele>
        <time>2015-08-04T09:19:05.742Z</time>
      </trkpt>
      <trkpt lat="45.9664" lon="4.78375">
        <ele>221.199996948</ele>
        <time>2015-08-04T09:19:06.709Z</time>
      </trkpt>
      <trkpt lat="45.96645" lon="4.78379">
        <ele>221.100006104</ele>
        <time>2015-08-04T09:19:07.744Z</time>
      </trkpt>
      <trkpt lat="45.9665" lon="4.78384">
        <ele>221.399993896</ele>
        <time>2015-08-04T09:19:08.699Z</time>
      </trkpt>
      <trkpt lat="45.96654" lon="4.78389">
        <ele>221.5</ele>
        <time>2015-08-04T09:19:09.778Z</time>
      </trkpt>
      <trkpt lat="45.96659" lon="4.78393">
        <ele>221.300003052</ele>
        <time>2015-08-04T09:19:10.725Z</time>
      </trkpt>
      <trkpt lat="45.96664" lon="4.78398">
        <ele>221.100006104</ele>
        <time>2015-08-04T09:19:11.744Z</time>
      </trkpt>
      <trkpt lat="45.96668" lon="4.78402">
        <ele>220.800003052</ele>
        <time>2015-08-04T09:19:12.708Z</time>
      </trkpt>
      <trkpt lat="45.96673" lon="4.78407">
        <ele>220.5</ele>
        <time>2015-08-04T09:19:13.741Z</time>
      </trkpt>
      <trkpt lat="45.96678" lon="4.7841">
        <ele>220</ele>
        <time>2015-08-04T09:19:14.708Z</time>
      </trkpt>
      <trkpt lat="45.96682" lon="4.78414">
        <ele>220.100006104</ele>
        <time>2015-08-04T09:19:15.76Z</time>
      </trkpt>
      <trkpt lat="45.96687" lon="4.78418">
        <ele>220.100006104</ele>
        <time>2015-08-04T09:19:16.71Z</time>
      </trkpt>
      <trkpt lat="45.96691" lon="4.78422">
        <ele>220.199996948</ele>
        <time>2015-08-04T09:19:17.746Z</time>
      </trkpt>
      <trkpt lat="45.96694" lon="4.78425">
        <ele>220.199996948</ele>
        <time>2015-08-04T09:19:18.707Z</time>
      </trkpt>
      <trkpt lat="45.96698" lon="4.78429">
        <ele>220.100006104</ele>
        <time>2015-08-04T09:19:19.743Z</time>
      </trkpt>
      <trkpt lat="45.96702" lon="4.78433">
        <ele>219.899993896</ele>
        <time>2015-08-04T09:19:20.706Z</time>
      </trkpt>
      <trkpt lat="45.96706" lon="4.78438">
        <ele>219.800003052</ele>
        <time>2015-08-04T09:19:21.747Z</time>
      </trkpt>
      <trkpt lat="45.9671" lon="4.78442">
        <ele>219.699996948</ele>
        <time>2015-08-04T09:19:22.707Z</time>
      </trkpt>
      <trkpt lat="45.96714" lon="4.78448">
        <ele>219.300003052</ele>
        <time>2015-08-04T09:19:23.745Z</time>
      </trkpt>
      <trkpt lat="45.96719" lon="4.78453">
        <ele>219.300003052</ele>
        <time>2015-08-04T09:19:24.709Z</time>
      </trkpt>
      <trkpt lat="45.96723" lon="4.78458">
        <ele>218.100006104</ele>
        <time>2015-08-04T09:19:25.745Z</time>
      </trkpt>
      <trkpt lat="45.96728" lon="4.78463">
        <ele>219.199996948</ele>
        <time>2015-08-04T09:19:26.706Z</time>
      </trkpt>
      <trkpt lat="45.96734" lon="4.78467">
        <ele>219.300003052</ele>
        <time>2015-08-04T09:19:27.777Z</time>
      </trkpt>
      <trkpt lat="45.96739" lon="4.78472">
        <ele>219.600006104</ele>
        <time>2015-08-04T09:19:28.711Z</time>
      </trkpt>
      <trkpt lat="45.96745" lon="4.78476">
        <ele>220</ele>
        <time>2015-08-04T09:19:29.746Z</time>
      </trkpt>
      <trkpt lat="45.96749" lon="4.78481">
        <ele>219.699996948</ele>
        <time>2015-08-04T09:19:30.708Z</time>
      </trkpt>
      <trkpt lat="45.96754" lon="4.78486">
        <ele>219.100006104</ele>
        <time>2015-08-04T09:19:31.74Z</time>
      </trkpt>
      <trkpt lat="45.96759" lon="4.7849">
        <ele>218.300003052</ele>
        <time>2015-08-04T09:19:32.706Z</time>
      </trkpt>
      <trkpt lat="45.96763" lon="4.78496">
        <ele>218.199996948</ele>
        <time>2015-08-04T09:19:33.757Z</time>
      </trkpt>
      <trkpt lat="45.96767" lon="4.78502">
        <ele>217.699996948</ele>
        <time>2015-08-04T09:19:34.711Z</time>
      </trkpt>
      <trkpt lat="45.96772" lon="4.78507">
        <ele>217.199996948</ele>
        <time>2015-08-04T09:19:35.746Z</time>
      </trkpt>
      <trkpt lat="45.96776" lon="4.78513">
        <ele>216.899993896</ele>
        <time>2015-08-04T09:19:36.708Z</time>
      </trkpt>
      <trkpt lat="45.96779" lon="4.78519">
        <ele>216.5</ele>
        <time>2015-08-04T09:19:37.746Z</time>
      </trkpt>
      <trkpt lat="45.96784" lon="4.78524">
        <ele>216.300003052</ele>
        <time>2015-08-04T09:19:38.706Z</time>
      </trkpt>
      <trkpt lat="45.96788" lon="4.7853">
        <ele>215.699996948</ele>
        <time>2015-08-04T09:19:39.836Z</time>
      </trkpt>
      <trkpt lat="45.96791" lon="4.78536">
        <ele>215.399993896</ele>
        <time>2015-08-04T09:19:40.71Z</time>
      </trkpt>
      <trkpt lat="45.96795" lon="4.78541">
        <ele>215.199996948</ele>
        <time>2015-08-04T09:19:41.756Z</time>
      </trkpt>
      <trkpt lat="45.96799" lon="4.78546">
        <ele>214.899993896</ele>
        <time>2015-08-04T09:19:42.706Z</time>
      </trkpt>
      <trkpt lat="45.96803" lon="4.7855">
        <ele>214.899993896</ele>
        <time>2015-08-04T09:19:43.741Z</time>
      </trkpt>
      <trkpt lat="45.96807" lon="4.78555">
        <ele>214.800003052</ele>
        <time>2015-08-04T09:19:44.707Z</time>
      </trkpt>
      <trkpt lat="45.9681" lon="4.78561">
        <ele>214.5</ele>
        <time>2015-08-04T09:19:45.779Z</time>
      </trkpt>
      <trkpt lat="45.96814" lon="4.78566">
        <ele>214.399993896</ele>
        <time>2015-08-04T09:19:46.71Z</time>
      </trkpt>
      <trkpt lat="45.96817" lon="4.78572">
        <ele>214.100006104</ele>
        <time>2015-08-04T09:19:47.747Z</time>
      </trkpt>
      <trkpt lat="45.96821" lon="4.78577">
        <ele>213.899993896</ele>
        <time>2015-08-04T09:19:48.712Z</time>
      </trkpt>
      <trkpt lat="45.96824" lon="4.78582">
        <ele>213.600006104</ele>
        <time>2015-08-04T09:19:49.757Z</time>
      </trkpt>
      <trkpt lat="45.96827" lon="4.78587">
        <ele>213.300003052</ele>
        <time>2015-08-04T09:19:50.709Z</time>
      </trkpt>
      <trkpt lat="45.96829" lon="4.78592">
        <ele>213.199996948</ele>
        <time>2015-08-04T09:19:51.743Z</time>
      </trkpt>
      <trkpt lat="45.96832" lon="4.78598">
        <ele>213.100006104</ele>
        <time>2015-08-04T09:19:52.71Z</time>
      </trkpt>
      <trkpt lat="45.96833" lon="4.78604">
        <ele>212.800003052</ele>
        <time>2015-08-04T09:19:53.743Z</time>
      </trkpt>
      <trkpt lat="45.96836" lon="4.78611">
        <ele>212.5</ele>
        <time>2015-08-04T09:19:54.709Z</time>
      </trkpt>
      <trkpt lat="45.96838" lon="4.78617">
        <ele>212.300003052</ele>
        <time>2015-08-04T09:19:55.743Z</time>
      </trkpt>
      <trkpt lat="45.9684" lon="4.78624">
        <ele>212.5</ele>
        <time>2015-08-04T09:19:56.706Z</time>
      </trkpt>
      <trkpt lat="45.96843" lon="4.7863">
        <ele>212.699996948</ele>
        <time>2015-08-04T09:19:57.759Z</time>
      </trkpt>
      <trkpt lat="45.96846" lon="4.78637">
        <ele>212.300003052</ele>
        <time>2015-08-04T09:19:58.722Z</time>
      </trkpt>
      <trkpt lat="45.96849" lon="4.78643">
        <ele>212.199996948</ele>
        <time>2015-08-04T09:19:59.742Z</time>
      </trkpt>
      <trkpt lat="45.96852" lon="4.7865">
        <ele>212.5</ele>
        <time>2015-08-04T09:20:00.707Z</time>
      </trkpt>
      <trkpt lat="45.96854" lon="4.78657">
        <ele>212.600006104</ele>
        <time>2015-08-04T09:20:01.758Z</time>
      </trkpt>
      <trkpt lat="45.96857" lon="4.78663">
        <ele>212.399993896</ele>
        <time>2015-08-04T09:20:02.706Z</time>
      </trkpt>
      <trkpt lat="45.9686" lon="4.78669">
        <ele>212.199996948</ele>
        <time>2015-08-04T09:20:03.746Z</time>
      </trkpt>
      <trkpt lat="45.96863" lon="4.78676">
        <ele>212.199996948</ele>
        <time>2015-08-04T09:20:04.716Z</time>
      </trkpt>
      <trkpt lat="45.96866" lon="4.78683">
        <ele>211.699996948</ele>
        <time>2015-08-04T09:20:05.754Z</time>
      </trkpt>
      <trkpt lat="45.96869" lon="4.78689">
        <ele>211.300003052</ele>
        <time>2015-08-04T09:20:06.709Z</time>
      </trkpt>
      <trkpt lat="45.96872" lon="4.78695">
        <ele>211.199996948</ele>
        <time>2015-08-04T09:20:07.743Z</time>
      </trkpt>
      <trkpt lat="45.96875" lon="4.78702">
        <ele>211.300003052</ele>
        <time>2015-08-04T09:20:08.706Z</time>
      </trkpt>
      <trkpt lat="45.96878" lon="4.78708">
        <ele>211.300003052</ele>
        <time>2015-08-04T09:20:09.745Z</time>
      </trkpt>
      <trkpt lat="45.96881" lon="4.78714">
        <ele>211.399993896</ele>
        <time>2015-08-04T09:20:10.709Z</time>
      </trkpt>
      <trkpt lat="45.96884" lon="4.78721">
        <ele>211.300003052</ele>
        <time>2015-08-04T09:20:11.75Z</time>
      </trkpt>
      <trkpt lat="45.96887" lon="4.78728">
        <ele>211.100006104</ele>
        <time>2015-08-04T09:20:12.707Z</time>
      </trkpt>
      <trkpt lat="45.96889" lon="4.78735">
        <ele>211</ele>
        <time>2015-08-04T09:20:13.745Z</time>
      </trkpt>
      <trkpt lat="45.96892" lon="4.78742">
        <ele>210.800003052</ele>
        <time>2015-08-04T09:20:14.708Z</time>
      </trkpt>
      <trkpt lat="45.96894" lon="4.7875">
        <ele>210.800003052</ele>
        <time>2015-08-04T09:20:15.74Z</time>
      </trkpt>
      <trkpt lat="45.96898" lon="4.78757">
        <ele>211.600006104</ele>
        <time>2015-08-04T09:20:16.709Z</time>
      </trkpt>
      <trkpt lat="45.96901" lon="4.78763">
        <ele>212.100006104</ele>
        <time>2015-08-04T09:20:17.741Z</time>
      </trkpt>
      <trkpt lat="45.96904" lon="4.7877">
        <ele>212.399993896</ele>
        <time>2015-08-04T09:20:18.726Z</time>
      </trkpt>
      <trkpt lat="45.96907" lon="4.78776">
        <ele>212.699996948</ele>
        <time>2015-08-04T09:20:19.746Z</time>
      </trkpt>
      <trkpt lat="45.96911" lon="4.78782">
        <ele>212.800003052</ele>
        <time>2015-08-04T09:20:20.708Z</time>
      </trkpt>
      <trkpt lat="45.96914" lon="4.78787">
        <ele>213.399993896</ele>
        <time>2015-08-04T09:20:21.778Z</time>
      </trkpt>
      <trkpt lat="45.96917" lon="4.78793">
        <ele>213.800003052</ele>
        <time>2015-08-04T09:20:22.71Z</time>
      </trkpt>
      <trkpt lat="45.9692" lon="4.78799">
        <ele>213.899993896</ele>
        <time>2015-08-04T09:20:23.825Z</time>
      </trkpt>
      <trkpt lat="45.96923" lon="4.78805">
        <ele>214.300003052</ele>
        <time>2015-08-04T09:20:24.707Z</time>
      </trkpt>
      <trkpt lat="45.96926" lon="4.78811">
        <ele>214.699996948</ele>
        <time>2015-08-04T09:20:25.742Z</time>
      </trkpt>
      <trkpt lat="45.9693" lon="4.78817">
        <ele>214.600006104</ele>
        <time>2015-08-04T09:20:26.708Z</time>
      </trkpt>
      <trkpt lat="45.96933" lon="4.78823">
        <ele>215</ele>
        <time>2015-08-04T09:20:27.744Z</time>
      </trkpt>
      <trkpt lat="45.96937" lon="4.78828">
        <ele>214.800003052</ele>
        <time>2015-08-04T09:20:28.71Z</time>
      </trkpt>
      <trkpt lat="45.96942" lon="4.78833">
        <ele>214.600006104</ele>
        <time>2015-08-04T09:20:29.744Z</time>
      </trkpt>
      <trkpt lat="45.96946" lon="4.78839">
        <ele>214.300003052</ele>
        <time>2015-08-04T09:20:30.712Z</time>
      </trkpt>
      <trkpt lat="45.9695" lon="4.78844">
        <ele>213.899993896</ele>
        <time>2015-08-04T09:20:31.753Z</time>
      </trkpt>
      <trkpt lat="45.96954" lon="4.78849">
        <ele>214.199996948</ele>
        <time>2015-08-04T09:20:32.707Z</time>
      </trkpt>
      <trkpt lat="45.96958" lon="4.78854">
        <ele>214.5</ele>
        <time>2015-08-04T09:20:33.741Z</time>
      </trkpt>
      <trkpt lat="45.96962" lon="4.78859">
        <ele>214.199996948</ele>
        <time>2015-08-04T09:20:34.708Z</time>
      </trkpt>
      <trkpt lat="45.96966" lon="4.78863">
        <ele>214.100006104</ele>
        <time>2015-08-04T09:20:35.743Z</time>
      </trkpt>
      <trkpt lat="45.9697" lon="4.78868">
        <ele>214.300003052</ele>
        <time>2015-08-04T09:20:36.708Z</time>
      </trkpt>
      <trkpt lat="45.96974" lon="4.78873">
        <ele>214.399993896</ele>
        <time>2015-08-04T09:20:37.742Z</time>
      </trkpt>
      <trkpt lat="45.96979" lon="4.78878">
        <ele>214.399993896</ele>
        <time>2015-08-04T09:20:38.707Z</time>
      </trkpt>
      <trkpt lat="45.96982" lon="4.78883">
        <ele>214.300003052</ele>
        <time>2015-08-04T09:20:39.806Z</time>
      </trkpt>
      <trkpt lat="45.96986" lon="4.78887">
        <ele>214.199996948</ele>
        <time>2015-08-04T09:20:40.709Z</time>
      </trkpt>
      <trkpt lat="45.9699" lon="4.78891">
        <ele>214.199996948</ele>
        <time>2015-08-04T09:20:41.742Z</time>
      </trkpt>
      <trkpt lat="45.96994" lon="4.78896">
        <ele>214.100006104</ele>
        <time>2015-08-04T09:20:42.708Z</time>
      </trkpt>
      <trkpt lat="45.96997" lon="4.78901">
        <ele>214.300003052</ele>
        <time>2015-08-04T09:20:43.742Z</time>
      </trkpt>
      <trkpt lat="45.97001" lon="4.78906">
        <ele>214.300003052</ele>
        <time>2015-08-04T09:20:44.708Z</time>
      </trkpt>
      <trkpt lat="45.97004" lon="4.7891">
        <ele>214.399993896</ele>
        <time>2015-08-04T09:20:45.742Z</time>
      </trkpt>
      <trkpt lat="45.97008" lon="4.78915">
        <ele>213.800003052</ele>
        <time>2015-08-04T09:20:46.71Z</time>
      </trkpt>
      <trkpt lat="45.97012" lon="4.7892">
        <ele>214.100006104</ele>
        <time>2015-08-04T09:20:47.743Z</time>
      </trkpt>
      <trkpt lat="45.97015" lon="4.78925">
        <ele>214.300003052</ele>
        <time>2015-08-04T09:20:48.708Z</time>
      </trkpt>
      <trkpt lat="45.97019" lon="4.7893">
        <ele>214.300003052</ele>
        <time>2015-08-04T09:20:49.743Z</time>
      </trkpt>
      <trkpt lat="45.97023" lon="4.78935">
        <ele>214.600006104</ele>
        <time>2015-08-04T09:20:50.706Z</time>
      </trkpt>
      <trkpt lat="45.97026" lon="4.7894">
        <ele>214.699996948</ele>
        <time>2015-08-04T09:20:51.749Z</time>
      </trkpt>
      <trkpt lat="45.9703" lon="4.78945">
        <ele>214.699996948</ele>
        <time>2015-08-04T09:20:52.71Z</time>
      </trkpt>
      <trkpt lat="45.97033" lon="4.7895">
        <ele>215</ele>
        <time>2015-08-04T09:20:53.742Z</time>
      </trkpt>
      <trkpt lat="45.97036" lon="4.78956">
        <ele>215</ele>
        <time>2015-08-04T09:20:54.707Z</time>
      </trkpt>
      <trkpt lat="45.97039" lon="4.78962">
        <ele>215.100006104</ele>
        <time>2015-08-04T09:20:55.769Z</time>
      </trkpt>
      <trkpt lat="45.97042" lon="4.78968">
        <ele>215.199996948</ele>
        <time>2015-08-04T09:20:56.711Z</time>
      </trkpt>
      <trkpt lat="45.97045" lon="4.78973">
        <ele>215.300003052</ele>
        <time>2015-08-04T09:20:57.782Z</time>
      </trkpt>
      <trkpt lat="45.97047" lon="4.78978">
        <ele>215.600006104</ele>
        <time>2015-08-04T09:20:58.709Z</time>
      </trkpt>
      <trkpt lat="45.9705" lon="4.78984">
        <ele>215.899993896</ele>
        <time>2015-08-04T09:20:59.819Z</time>
      </trkpt>
      <trkpt lat="45.97052" lon="4.7899">
        <ele>216.100006104</ele>
        <time>2015-08-04T09:21:00.705Z</time>
      </trkpt>
      <trkpt lat="45.97054" lon="4.78996">
        <ele>216.600006104</ele>
        <time>2015-08-04T09:21:01.761Z</time>
      </trkpt>
      <trkpt lat="45.97056" lon="4.79002">
        <ele>216.899993896</ele>
        <time>2015-08-04T09:21:02.704Z</time>
      </trkpt>
      <trkpt lat="45.97058" lon="4.79008">
        <ele>217.300003052</ele>
        <time>2015-08-04T09:21:03.747Z</time>
      </trkpt>
      <trkpt lat="45.9706" lon="4.79015">
        <ele>217.600006104</ele>
        <time>2015-08-04T09:21:04.714Z</time>
      </trkpt>
      <trkpt lat="45.97062" lon="4.79021">
        <ele>217.699996948</ele>
        <time>2015-08-04T09:21:06.154Z</time>
      </trkpt>
      <trkpt lat="45.97065" lon="4.79028">
        <ele>218</ele>
        <time>2015-08-04T09:21:06.707Z</time>
      </trkpt>
      <trkpt lat="45.97067" lon="4.79035">
        <ele>218.300003052</ele>
        <time>2015-08-04T09:21:07.755Z</time>
      </trkpt>
      <trkpt lat="45.97069" lon="4.79042">
        <ele>218.899993896</ele>
        <time>2015-08-04T09:21:08.774Z</time>
      </trkpt>
      <trkpt lat="45.97071" lon="4.79049">
        <ele>219.300003052</ele>
        <time>2015-08-04T09:21:09.742Z</time>
      </trkpt>
      <trkpt lat="45.97073" lon="4.79056">
        <ele>219.5</ele>
        <time>2015-08-04T09:21:10.711Z</time>
      </trkpt>
      <trkpt lat="45.97075" lon="4.79064">
        <ele>219.300003052</ele>
        <time>2015-08-04T09:21:11.743Z</time>
      </trkpt>
      <trkpt lat="45.97077" lon="4.79072">
        <ele>219</ele>
        <time>2015-08-04T09:21:12.707Z</time>
      </trkpt>
      <trkpt lat="45.97079" lon="4.7908">
        <ele>218.800003052</ele>
        <time>2015-08-04T09:21:13.837Z</time>
      </trkpt>
      <trkpt lat="45.97081" lon="4.79087">
        <ele>218.800003052</ele>
        <time>2015-08-04T09:21:14.705Z</time>
      </trkpt>
      <trkpt lat="45.97083" lon="4.79095">
        <ele>218.899993896</ele>
        <time>2015-08-04T09:21:15.744Z</time>
      </trkpt>
      <trkpt lat="45.97085" lon="4.79102">
        <ele>218.800003052</ele>
        <time>2015-08-04T09:21:16.71Z</time>
      </trkpt>
      <trkpt lat="45.97087" lon="4.79109">
        <ele>219</ele>
        <time>2015-08-04T09:21:17.755Z</time>
      </trkpt>
      <trkpt lat="45.97089" lon="4.79115">
        <ele>219</ele>
        <time>2015-08-04T09:21:18.707Z</time>
      </trkpt>
      <trkpt lat="45.97092" lon="4.79121">
        <ele>219</ele>
        <time>2015-08-04T09:21:19.806Z</time>
      </trkpt>
      <trkpt lat="45.97095" lon="4.79127">
        <ele>218.600006104</ele>
        <time>2015-08-04T09:21:20.706Z</time>
      </trkpt>
      <trkpt lat="45.97098" lon="4.79132">
        <ele>218.600006104</ele>
        <time>2015-08-04T09:21:21.761Z</time>
      </trkpt>
      <trkpt lat="45.97101" lon="4.79138">
        <ele>218.5</ele>
        <time>2015-08-04T09:21:22.709Z</time>
      </trkpt>
      <trkpt lat="45.97105" lon="4.79144">
        <ele>218.600006104</ele>
        <time>2015-08-04T09:21:23.748Z</time>
      </trkpt>
      <trkpt lat="45.97108" lon="4.79151">
        <ele>218.5</ele>
        <time>2015-08-04T09:21:24.707Z</time>
      </trkpt>
      <trkpt lat="45.97111" lon="4.79157">
        <ele>218.5</ele>
        <time>2015-08-04T09:21:25.745Z</time>
      </trkpt>
      <trkpt lat="45.97114" lon="4.79165">
        <ele>218.5</ele>
        <time>2015-08-04T09:21:26.693Z</time>
      </trkpt>
      <trkpt lat="45.97117" lon="4.79171">
        <ele>218.899993896</ele>
        <time>2015-08-04T09:21:27.782Z</time>
      </trkpt>
      <trkpt lat="45.9712" lon="4.79179">
        <ele>219</ele>
        <time>2015-08-04T09:21:28.708Z</time>
      </trkpt>
      <trkpt lat="45.97123" lon="4.79186">
        <ele>219</ele>
        <time>2015-08-04T09:21:29.808Z</time>
      </trkpt>
      <trkpt lat="45.97126" lon="4.79193">
        <ele>219</ele>
        <time>2015-08-04T09:21:30.707Z</time>
      </trkpt>
      <trkpt lat="45.97129" lon="4.79201">
        <ele>219</ele>
        <time>2015-08-04T09:21:31.742Z</time>
      </trkpt>
      <trkpt lat="45.97132" lon="4.79208">
        <ele>219.100006104</ele>
        <time>2015-08-04T09:21:32.706Z</time>
      </trkpt>
      <trkpt lat="45.97135" lon="4.79215">
        <ele>219.199996948</ele>
        <time>2015-08-04T09:21:33.766Z</time>
      </trkpt>
      <trkpt lat="45.97138" lon="4.79222">
        <ele>219.100006104</ele>
        <time>2015-08-04T09:21:34.708Z</time>
      </trkpt>
      <trkpt lat="45.97141" lon="4.79229">
        <ele>218.800003052</ele>
        <time>2015-08-04T09:21:35.786Z</time>
      </trkpt>
      <trkpt lat="45.97143" lon="4.79236">
        <ele>218.600006104</ele>
        <time>2015-08-04T09:21:36.729Z</time>
      </trkpt>
      <trkpt lat="45.97146" lon="4.79243">
        <ele>218.600006104</ele>
        <time>2015-08-04T09:21:37.765Z</time>
      </trkpt>
      <trkpt lat="45.97148" lon="4.79248">
        <ele>218.399993896</ele>
        <time>2015-08-04T09:21:38.718Z</time>
      </trkpt>
      <trkpt lat="45.97151" lon="4.79254">
        <ele>217.800003052</ele>
        <time>2015-08-04T09:21:39.876Z</time>
      </trkpt>
      <trkpt lat="45.97153" lon="4.79259">
        <ele>217.600006104</ele>
        <time>2015-08-04T09:21:40.717Z</time>
      </trkpt>
      <trkpt lat="45.97156" lon="4.79264">
        <ele>217.600006104</ele>
        <time>2015-08-04T09:21:41.761Z</time>
      </trkpt>
      <trkpt lat="45.97159" lon="4.7927">
        <ele>217.5</ele>
        <time>2015-08-04T09:21:42.75Z</time>
      </trkpt>
      <trkpt lat="45.97161" lon="4.79275">
        <ele>217.5</ele>
        <time>2015-08-04T09:21:43.752Z</time>
      </trkpt>
      <trkpt lat="45.97164" lon="4.79281">
        <ele>217.699996948</ele>
        <time>2015-08-04T09:21:44.706Z</time>
      </trkpt>
      <trkpt lat="45.97166" lon="4.79287">
        <ele>217.699996948</ele>
        <time>2015-08-04T09:21:45.746Z</time>
      </trkpt>
      <trkpt lat="45.97168" lon="4.79294">
        <ele>218.199996948</ele>
        <time>2015-08-04T09:21:46.71Z</time>
      </trkpt>
      <trkpt lat="45.9717" lon="4.793">
        <ele>218.5</ele>
        <time>2015-08-04T09:21:47.774Z</time>
      </trkpt>
      <trkpt lat="45.97173" lon="4.79306">
        <ele>218.800003052</ele>
        <time>2015-08-04T09:21:48.735Z</time>
      </trkpt>
      <trkpt lat="45.97175" lon="4.79312">
        <ele>218.5</ele>
        <time>2015-08-04T09:21:49.747Z</time>
      </trkpt>
      <trkpt lat="45.97178" lon="4.79318">
        <ele>218.399993896</ele>
        <time>2015-08-04T09:21:50.708Z</time>
      </trkpt>
      <trkpt lat="45.97181" lon="4.79325">
        <ele>218.199996948</ele>
        <time>2015-08-04T09:21:51.754Z</time>
      </trkpt>
      <trkpt lat="45.97184" lon="4.79331">
        <ele>218</ele>
        <time>2015-08-04T09:21:52.71Z</time>
      </trkpt>
      <trkpt lat="45.97186" lon="4.79337">
        <ele>217.699996948</ele>
        <time>2015-08-04T09:21:53.743Z</time>
      </trkpt>
      <trkpt lat="45.97189" lon="4.79343">
        <ele>217.5</ele>
        <time>2015-08-04T09:21:54.708Z</time>
      </trkpt>
      <trkpt lat="45.97191" lon="4.79349">
        <ele>217.5</ele>
        <time>2015-08-04T09:21:55.746Z</time>
      </trkpt>
      <trkpt lat="45.97193" lon="4.79354">
        <ele>217.5</ele>
        <time>2015-08-04T09:21:56.707Z</time>
      </trkpt>
      <trkpt lat="45.97196" lon="4.79361">
        <ele>217.5</ele>
        <time>2015-08-04T09:21:57.741Z</time>
      </trkpt>
      <trkpt lat="45.97198" lon="4.79367">
        <ele>218</ele>
        <time>2015-08-04T09:21:58.711Z</time>
      </trkpt>
      <trkpt lat="45.97201" lon="4.79373">
        <ele>217.699996948</ele>
        <time>2015-08-04T09:21:59.745Z</time>
      </trkpt>
      <trkpt lat="45.97204" lon="4.7938">
        <ele>217.699996948</ele>
        <time>2015-08-04T09:22:00.707Z</time>
      </trkpt>
      <trkpt lat="45.97207" lon="4.79386">
        <ele>217.699996948</ele>
        <time>2015-08-04T09:22:01.753Z</time>
      </trkpt>
      <trkpt lat="45.97209" lon="4.79393">
        <ele>217.300003052</ele>
        <time>2015-08-04T09:22:02.706Z</time>
      </trkpt>
      <trkpt lat="45.97211" lon="4.79398">
        <ele>216.600006104</ele>
        <time>2015-08-04T09:22:03.837Z</time>
      </trkpt>
      <trkpt lat="45.97214" lon="4.79404">
        <ele>216.399993896</ele>
        <time>2015-08-04T09:22:04.708Z</time>
      </trkpt>
      <trkpt lat="45.97219" lon="4.79415">
        <ele>216.100006104</ele>
        <time>2015-08-04T09:22:06.74Z</time>
      </trkpt>
      <trkpt lat="45.97221" lon="4.7942">
        <ele>215.899993896</ele>
        <time>2015-08-04T09:22:07.708Z</time>
      </trkpt>
      <trkpt lat="45.97226" lon="4.7943">
        <ele>214.899993896</ele>
        <time>2015-08-04T09:22:09.742Z</time>
      </trkpt>
      <trkpt lat="45.97228" lon="4.79435">
        <ele>214.800003052</ele>
        <time>2015-08-04T09:22:10.71Z</time>
      </trkpt>
      <trkpt lat="45.97231" lon="4.7944">
        <ele>214.600006104</ele>
        <time>2015-08-04T09:22:11.738Z</time>
      </trkpt>
      <trkpt lat="45.97233" lon="4.79446">
        <ele>214.399993896</ele>
        <time>2015-08-04T09:22:12.707Z</time>
      </trkpt>
      <trkpt lat="45.97235" lon="4.79452">
        <ele>214</ele>
        <time>2015-08-04T09:22:13.749Z</time>
      </trkpt>
      <trkpt lat="45.97237" lon="4.79458">
        <ele>214</ele>
        <time>2015-08-04T09:22:14.71Z</time>
      </trkpt>
      <trkpt lat="45.97239" lon="4.79464">
        <ele>213.899993896</ele>
        <time>2015-08-04T09:22:15.789Z</time>
      </trkpt>
      <trkpt lat="45.9724" lon="4.79471">
        <ele>214.5</ele>
        <time>2015-08-04T09:22:16.71Z</time>
      </trkpt>
      <trkpt lat="45.97241" lon="4.79477">
        <ele>214.600006104</ele>
        <time>2015-08-04T09:22:17.739Z</time>
      </trkpt>
      <trkpt lat="45.97243" lon="4.79484">
        <ele>214.899993896</ele>
        <time>2015-08-04T09:22:18.711Z</time>
      </trkpt>
      <trkpt lat="45.97244" lon="4.7949">
        <ele>214.899993896</ele>
        <time>2015-08-04T09:22:19.755Z</time>
      </trkpt>
      <trkpt lat="45.97245" lon="4.79496">
        <ele>215.199996948</ele>
        <time>2015-08-04T09:22:20.706Z</time>
      </trkpt>
      <trkpt lat="45.97247" lon="4.79503">
        <ele>215.100006104</ele>
        <time>2015-08-04T09:22:21.806Z</time>
      </trkpt>
      <trkpt lat="45.97249" lon="4.7951">
        <ele>215.199996948</ele>
        <time>2015-08-04T09:22:22.706Z</time>
      </trkpt>
      <trkpt lat="45.97249" lon="4.79516">
        <ele>215.300003052</ele>
        <time>2015-08-04T09:22:23.739Z</time>
      </trkpt>
      <trkpt lat="45.97251" lon="4.79523">
        <ele>215.100006104</ele>
        <time>2015-08-04T09:22:24.707Z</time>
      </trkpt>
      <trkpt lat="45.97252" lon="4.7953">
        <ele>215</ele>
        <time>2015-08-04T09:22:25.741Z</time>
      </trkpt>
      <trkpt lat="45.97253" lon="4.79537">
        <ele>215</ele>
        <time>2015-08-04T09:22:26.707Z</time>
      </trkpt>
      <trkpt lat="45.97254" lon="4.79543">
        <ele>215.199996948</ele>
        <time>2015-08-04T09:22:27.783Z</time>
      </trkpt>
      <trkpt lat="45.97255" lon="4.79551">
        <ele>215</ele>
        <time>2015-08-04T09:22:28.708Z</time>
      </trkpt>
      <trkpt lat="45.97255" lon="4.79558">
        <ele>214.899993896</ele>
        <time>2015-08-04T09:22:29.774Z</time>
      </trkpt>
      <trkpt lat="45.97256" lon="4.79565">
        <ele>215</ele>
        <time>2015-08-04T09:22:30.708Z</time>
      </trkpt>
      <trkpt lat="45.97256" lon="4.79572">
        <ele>214.699996948</ele>
        <time>2015-08-04T09:22:31.738Z</time>
      </trkpt>
      <trkpt lat="45.97256" lon="4.79579">
        <ele>214.5</ele>
        <time>2015-08-04T09:22:32.707Z</time>
      </trkpt>
      <trkpt lat="45.97258" lon="4.79585">
        <ele>215.300003052</ele>
        <time>2015-08-04T09:22:33.739Z</time>
      </trkpt>
      <trkpt lat="45.97259" lon="4.79592">
        <ele>215.5</ele>
        <time>2015-08-04T09:22:34.71Z</time>
      </trkpt>
      <trkpt lat="45.97259" lon="4.79599">
        <ele>215.699996948</ele>
        <time>2015-08-04T09:22:35.741Z</time>
      </trkpt>
      <trkpt lat="45.9726" lon="4.79607">
        <ele>215.600006104</ele>
        <time>2015-08-04T09:22:36.708Z</time>
      </trkpt>
      <trkpt lat="45.97261" lon="4.79614">
        <ele>215.899993896</ele>
        <time>2015-08-04T09:22:37.745Z</time>
      </trkpt>
      <trkpt lat="45.97261" lon="4.79621">
        <ele>216.100006104</ele>
        <time>2015-08-04T09:22:38.706Z</time>
      </trkpt>
      <trkpt lat="45.97262" lon="4.79628">
        <ele>216.300003052</ele>
        <time>2015-08-04T09:22:39.796Z</time>
      </trkpt>
      <trkpt lat="45.97262" lon="4.79635">
        <ele>216.199996948</ele>
        <time>2015-08-04T09:22:40.716Z</time>
      </trkpt>
      <trkpt lat="45.97261" lon="4.79643">
        <ele>216</ele>
        <time>2015-08-04T09:22:41.745Z</time>
      </trkpt>
      <trkpt lat="45.97261" lon="4.7965">
        <ele>215.899993896</ele>
        <time>2015-08-04T09:22:42.707Z</time>
      </trkpt>
      <trkpt lat="45.97259" lon="4.79657">
        <ele>215.899993896</ele>
        <time>2015-08-04T09:22:43.743Z</time>
      </trkpt>
      <trkpt lat="45.97257" lon="4.79666">
        <ele>215.800003052</ele>
        <time>2015-08-04T09:22:44.706Z</time>
      </trkpt>
      <trkpt lat="45.97256" lon="4.79673">
        <ele>215.699996948</ele>
        <time>2015-08-04T09:22:45.742Z</time>
      </trkpt>
      <trkpt lat="45.97254" lon="4.79681">
        <ele>215.5</ele>
        <time>2015-08-04T09:22:46.708Z</time>
      </trkpt>
      <trkpt lat="45.97253" lon="4.79689">
        <ele>215.399993896</ele>
        <time>2015-08-04T09:22:47.786Z</time>
      </trkpt>
      <trkpt lat="45.97252" lon="4.79697">
        <ele>215.100006104</ele>
        <time>2015-08-04T09:22:48.708Z</time>
      </trkpt>
      <trkpt lat="45.97251" lon="4.79706">
        <ele>214.899993896</ele>
        <time>2015-08-04T09:22:49.739Z</time>
      </trkpt>
      <trkpt lat="45.9725" lon="4.79714">
        <ele>214.600006104</ele>
        <time>2015-08-04T09:22:50.726Z</time>
      </trkpt>
      <trkpt lat="45.97248" lon="4.79722">
        <ele>214.300003052</ele>
        <time>2015-08-04T09:22:51.745Z</time>
      </trkpt>
      <trkpt lat="45.97247" lon="4.7973">
        <ele>214.100006104</ele>
        <time>2015-08-04T09:22:52.742Z</time>
      </trkpt>
      <trkpt lat="45.97246" lon="4.79739">
        <ele>213.600006104</ele>
        <time>2015-08-04T09:22:53.743Z</time>
      </trkpt>
      <trkpt lat="45.97245" lon="4.79747">
        <ele>213.5</ele>
        <time>2015-08-04T09:22:54.708Z</time>
      </trkpt>
      <trkpt lat="45.97244" lon="4.79756">
        <ele>213.300003052</ele>
        <time>2015-08-04T09:22:55.766Z</time>
      </trkpt>
      <trkpt lat="45.97244" lon="4.79764">
        <ele>213.100006104</ele>
        <time>2015-08-04T09:22:56.706Z</time>
      </trkpt>
      <trkpt lat="45.97244" lon="4.79772">
        <ele>213.100006104</ele>
        <time>2015-08-04T09:22:57.787Z</time>
      </trkpt>
      <trkpt lat="45.97244" lon="4.79779">
        <ele>213.100006104</ele>
        <time>2015-08-04T09:22:58.709Z</time>
      </trkpt>
      <trkpt lat="45.97243" lon="4.79787">
        <ele>213.100006104</ele>
        <time>2015-08-04T09:22:59.741Z</time>
      </trkpt>
      <trkpt lat="45.97243" lon="4.79794">
        <ele>212.800003052</ele>
        <time>2015-08-04T09:23:00.707Z</time>
      </trkpt>
      <trkpt lat="45.97243" lon="4.79802">
        <ele>212.800003052</ele>
        <time>2015-08-04T09:23:01.746Z</time>
      </trkpt>
      <trkpt lat="45.97243" lon="4.79809">
        <ele>212.600006104</ele>
        <time>2015-08-04T09:23:02.704Z</time>
      </trkpt>
      <trkpt lat="45.97242" lon="4.79817">
        <ele>212.5</ele>
        <time>2015-08-04T09:23:03.742Z</time>
      </trkpt>
      <trkpt lat="45.97242" lon="4.79824">
        <ele>212.399993896</ele>
        <time>2015-08-04T09:23:04.71Z</time>
      </trkpt>
      <trkpt lat="45.97241" lon="4.79831">
        <ele>212.300003052</ele>
        <time>2015-08-04T09:23:05.742Z</time>
      </trkpt>
      <trkpt lat="45.97241" lon="4.79839">
        <ele>212.199996948</ele>
        <time>2015-08-04T09:23:06.711Z</time>
      </trkpt>
      <trkpt lat="45.97242" lon="4.79847">
        <ele>212.300003052</ele>
        <time>2015-08-04T09:23:07.743Z</time>
      </trkpt>
      <trkpt lat="45.97243" lon="4.79854">
        <ele>212.199996948</ele>
        <time>2015-08-04T09:23:08.706Z</time>
      </trkpt>
      <trkpt lat="45.97245" lon="4.79861">
        <ele>212.100006104</ele>
        <time>2015-08-04T09:23:09.746Z</time>
      </trkpt>
      <trkpt lat="45.97247" lon="4.79867">
        <ele>212</ele>
        <time>2015-08-04T09:23:10.708Z</time>
      </trkpt>
      <trkpt lat="45.9725" lon="4.79879">
        <ele>211.600006104</ele>
        <time>2015-08-04T09:23:12.746Z</time>
      </trkpt>
      <trkpt lat="45.97252" lon="4.79884">
        <ele>211.5</ele>
        <time>2015-08-04T09:23:13.706Z</time>
      </trkpt>
      <trkpt lat="45.97255" lon="4.79892">
        <ele>211.600006104</ele>
        <time>2015-08-04T09:23:15.742Z</time>
      </trkpt>
      <trkpt lat="45.97257" lon="4.79895">
        <ele>211.899993896</ele>
        <time>2015-08-04T09:23:16.708Z</time>
      </trkpt>
      <trkpt lat="45.97258" lon="4.79905">
        <ele>213.199996948</ele>
        <time>2015-08-04T09:23:19.742Z</time>
      </trkpt>
      <trkpt lat="45.97258" lon="4.79908">
        <ele>213.399993896</ele>
        <time>2015-08-04T09:23:20.707Z</time>
      </trkpt>
      <trkpt lat="45.97263" lon="4.79916">
        <ele>213.300003052</ele>
        <time>2015-08-04T09:23:23.74Z</time>
      </trkpt>
      <trkpt lat="45.97266" lon="4.79917">
        <ele>213.300003052</ele>
        <time>2015-08-04T09:23:24.759Z</time>
      </trkpt>
      <trkpt lat="45.97272" lon="4.79917">
        <ele>213.5</ele>
        <time>2015-08-04T09:23:26.742Z</time>
      </trkpt>
      <trkpt lat="45.97276" lon="4.79917">
        <ele>213.699996948</ele>
        <time>2015-08-04T09:23:27.708Z</time>
      </trkpt>
      <trkpt lat="45.97282" lon="4.79916">
        <ele>214</ele>
        <time>2015-08-04T09:23:29.807Z</time>
      </trkpt>
      <trkpt lat="45.97285" lon="4.79916">
        <ele>214.300003052</ele>
        <time>2015-08-04T09:23:30.708Z</time>
      </trkpt>
      <trkpt lat="45.97293" lon="4.79915">
        <ele>215.199996948</ele>
        <time>2015-08-04T09:23:32.745Z</time>
      </trkpt>
      <trkpt lat="45.97297" lon="4.79914">
        <ele>215.5</ele>
        <time>2015-08-04T09:23:33.706Z</time>
      </trkpt>
      <trkpt lat="45.97302" lon="4.79914">
        <ele>215.699996948</ele>
        <time>2015-08-04T09:23:34.786Z</time>
      </trkpt>
      <trkpt lat="45.97306" lon="4.79914">
        <ele>216.100006104</ele>
        <time>2015-08-04T09:23:35.707Z</time>
      </trkpt>
      <trkpt lat="45.97315" lon="4.79914">
        <ele>217.100006104</ele>
        <time>2015-08-04T09:23:37.739Z</time>
      </trkpt>
      <trkpt lat="45.9732" lon="4.79914">
        <ele>217.300003052</ele>
        <time>2015-08-04T09:23:38.707Z</time>
      </trkpt>
      <trkpt lat="45.97325" lon="4.79914">
        <ele>218.300003052</ele>
        <time>2015-08-04T09:23:39.764Z</time>
      </trkpt>
      <trkpt lat="45.97329" lon="4.79913">
        <ele>218.5</ele>
        <time>2015-08-04T09:23:40.708Z</time>
      </trkpt>
      <trkpt lat="45.97334" lon="4.79912">
        <ele>218.800003052</ele>
        <time>2015-08-04T09:23:41.756Z</time>
      </trkpt>
      <trkpt lat="45.97338" lon="4.79912">
        <ele>219.199996948</ele>
        <time>2015-08-04T09:23:42.72Z</time>
      </trkpt>
      <trkpt lat="45.97347" lon="4.79911">
        <ele>220</ele>
        <time>2015-08-04T09:23:44.742Z</time>
      </trkpt>
      <trkpt lat="45.97352" lon="4.79911">
        <ele>220.600006104</ele>
        <time>2015-08-04T09:23:45.706Z</time>
      </trkpt>
      <trkpt lat="45.97359" lon="4.7991">
        <ele>221.600006104</ele>
        <time>2015-08-04T09:23:47.746Z</time>
      </trkpt>
      <trkpt lat="45.97362" lon="4.79909">
        <ele>221.800003052</ele>
        <time>2015-08-04T09:23:48.706Z</time>
      </trkpt>
      <trkpt lat="45.97371" lon="4.79906">
        <ele>220.600006104</ele>
        <time>2015-08-04T09:23:50.772Z</time>
      </trkpt>
      <trkpt lat="45.97374" lon="4.79905">
        <ele>220.5</ele>
        <time>2015-08-04T09:23:51.708Z</time>
      </trkpt>
      <trkpt lat="45.97381" lon="4.79901">
        <ele>219.600006104</ele>
        <time>2015-08-04T09:23:53.769Z</time>
      </trkpt>
      <trkpt lat="45.97385" lon="4.799">
        <ele>219.699996948</ele>
        <time>2015-08-04T09:23:54.713Z</time>
      </trkpt>
      <trkpt lat="45.97391" lon="4.79898">
        <ele>220</ele>
        <time>2015-08-04T09:23:56.751Z</time>
      </trkpt>
      <trkpt lat="45.97394" lon="4.799">
        <ele>219.600006104</ele>
        <time>2015-08-04T09:23:57.711Z</time>
      </trkpt>
      <trkpt lat="45.97399" lon="4.799">
        <ele>219.5</ele>
        <time>2015-08-04T09:23:58.761Z</time>
      </trkpt>
      <trkpt lat="45.97404" lon="4.79899">
        <ele>220.5</ele>
        <time>2015-08-04T09:23:59.715Z</time>
      </trkpt>
      <trkpt lat="45.9741" lon="4.79899">
        <ele>221.399993896</ele>
        <time>2015-08-04T09:24:00.747Z</time>
      </trkpt>
      <trkpt lat="45.97414" lon="4.79899">
        <ele>221.399993896</ele>
        <time>2015-08-04T09:24:01.715Z</time>
      </trkpt>
      <trkpt lat="45.97419" lon="4.79898">
        <ele>221.199996948</ele>
        <time>2015-08-04T09:24:02.751Z</time>
      </trkpt>
      <trkpt lat="45.97423" lon="4.79898">
        <ele>220.899993896</ele>
        <time>2015-08-04T09:24:03.714Z</time>
      </trkpt>
      <trkpt lat="45.97431" lon="4.79898">
        <ele>221.199996948</ele>
        <time>2015-08-04T09:24:05.748Z</time>
      </trkpt>
      <trkpt lat="45.97435" lon="4.79898">
        <ele>221.199996948</ele>
        <time>2015-08-04T09:24:06.712Z</time>
      </trkpt>
      <trkpt lat="45.97443" lon="4.79897">
        <ele>221.699996948</ele>
        <time>2015-08-04T09:24:08.75Z</time>
      </trkpt>
      <trkpt lat="45.97448" lon="4.79898">
        <ele>222.899993896</ele>
        <time>2015-08-04T09:24:09.711Z</time>
      </trkpt>
      <trkpt lat="45.97457" lon="4.79898">
        <ele>224.199996948</ele>
        <time>2015-08-04T09:24:11.814Z</time>
      </trkpt>
      <trkpt lat="45.97461" lon="4.79898">
        <ele>225</ele>
        <time>2015-08-04T09:24:12.711Z</time>
      </trkpt>
      <trkpt lat="45.9747" lon="4.79897">
        <ele>226.199996948</ele>
        <time>2015-08-04T09:24:14.751Z</time>
      </trkpt>
      <trkpt lat="45.97474" lon="4.79897">
        <ele>226.899993896</ele>
        <time>2015-08-04T09:24:15.711Z</time>
      </trkpt>
      <trkpt lat="45.97481" lon="4.79896">
        <ele>227.300003052</ele>
        <time>2015-08-04T09:24:17.751Z</time>
      </trkpt>
      <trkpt lat="45.97485" lon="4.79895">
        <ele>228.399993896</ele>
        <time>2015-08-04T09:24:18.714Z</time>
      </trkpt>
      <trkpt lat="45.9749" lon="4.79895">
        <ele>228.600006104</ele>
        <time>2015-08-04T09:24:19.746Z</time>
      </trkpt>
      <trkpt lat="45.97495" lon="4.79894">
        <ele>228.600006104</ele>
        <time>2015-08-04T09:24:20.709Z</time>
      </trkpt>
      <trkpt lat="45.97502" lon="4.79894">
        <ele>230.300003052</ele>
        <time>2015-08-04T09:24:22.787Z</time>
      </trkpt>
      <trkpt lat="45.97505" lon="4.79894">
        <ele>230.600006104</ele>
        <time>2015-08-04T09:24:23.709Z</time>
      </trkpt>
      <trkpt lat="45.97513" lon="4.79893">
        <ele>231.100006104</ele>
        <time>2015-08-04T09:24:25.78Z</time>
      </trkpt>
      <trkpt lat="45.97516" lon="4.79892">
        <ele>231.300003052</ele>
        <time>2015-08-04T09:24:26.713Z</time>
      </trkpt>
      <trkpt lat="45.97523" lon="4.79892">
        <ele>233.699996948</ele>
        <time>2015-08-04T09:24:28.75Z</time>
      </trkpt>
      <trkpt lat="45.97526" lon="4.79892">
        <ele>234.300003052</ele>
        <time>2015-08-04T09:24:29.706Z</time>
      </trkpt>
      <trkpt lat="45.97533" lon="4.79891">
        <ele>234.899993896</ele>
        <time>2015-08-04T09:24:31.744Z</time>
      </trkpt>
      <trkpt lat="45.97537" lon="4.7989">
        <ele>234.699996948</ele>
        <time>2015-08-04T09:24:32.751Z</time>
      </trkpt>
      <trkpt lat="45.97544" lon="4.79889">
        <ele>235.399993896</ele>
        <time>2015-08-04T09:24:34.748Z</time>
      </trkpt>
      <trkpt lat="45.97548" lon="4.79888">
        <ele>235.899993896</ele>
        <time>2015-08-04T09:24:35.708Z</time>
      </trkpt>
      <trkpt lat="45.97555" lon="4.79887">
        <ele>235.800003052</ele>
        <time>2015-08-04T09:24:37.743Z</time>
      </trkpt>
      <trkpt lat="45.97559" lon="4.79886">
        <ele>235.899993896</ele>
        <time>2015-08-04T09:24:38.708Z</time>
      </trkpt>
      <trkpt lat="45.97567" lon="4.79884">
        <ele>236.600006104</ele>
        <time>2015-08-04T09:24:40.744Z</time>
      </trkpt>
      <trkpt lat="45.97571" lon="4.79882">
        <ele>236.399993896</ele>
        <time>2015-08-04T09:24:41.709Z</time>
      </trkpt>
      <trkpt lat="45.9758" lon="4.7988">
        <ele>236.699996948</ele>
        <time>2015-08-04T09:24:43.744Z</time>
      </trkpt>
      <trkpt lat="45.97584" lon="4.79879">
        <ele>236.699996948</ele>
        <time>2015-08-04T09:24:44.742Z</time>
      </trkpt>
      <trkpt lat="45.97592" lon="4.79876">
        <ele>237.300003052</ele>
        <time>2015-08-04T09:24:46.754Z</time>
      </trkpt>
      <trkpt lat="45.97596" lon="4.79874">
        <ele>237.100006104</ele>
        <time>2015-08-04T09:24:47.712Z</time>
      </trkpt>
      <trkpt lat="45.97604" lon="4.79872">
        <ele>236.600006104</ele>
        <time>2015-08-04T09:24:49.744Z</time>
      </trkpt>
      <trkpt lat="45.97608" lon="4.79871">
        <ele>236.399993896</ele>
        <time>2015-08-04T09:24:50.708Z</time>
      </trkpt>
      <trkpt lat="45.97616" lon="4.79867">
        <ele>236.699996948</ele>
        <time>2015-08-04T09:24:52.77Z</time>
      </trkpt>
      <trkpt lat="45.97619" lon="4.79865">
        <ele>236.699996948</ele>
        <time>2015-08-04T09:24:53.71Z</time>
      </trkpt>
      <trkpt lat="45.97627" lon="4.79862">
        <ele>236.399993896</ele>
        <time>2015-08-04T09:24:55.764Z</time>
      </trkpt>
      <trkpt lat="45.97631" lon="4.7986">
        <ele>236</ele>
        <time>2015-08-04T09:24:56.709Z</time>
      </trkpt>
      <trkpt lat="45.97635" lon="4.79859">
        <ele>236.100006104</ele>
        <time>2015-08-04T09:24:57.88Z</time>
      </trkpt>
      <trkpt lat="45.9764" lon="4.79857">
        <ele>236</ele>
        <time>2015-08-04T09:24:58.71Z</time>
      </trkpt>
      <trkpt lat="45.97649" lon="4.79854">
        <ele>236.100006104</ele>
        <time>2015-08-04T09:25:00.743Z</time>
      </trkpt>
      <trkpt lat="45.97653" lon="4.79853">
        <ele>236.199996948</ele>
        <time>2015-08-04T09:25:01.711Z</time>
      </trkpt>
      <trkpt lat="45.97657" lon="4.79851">
        <ele>236.199996948</ele>
        <time>2015-08-04T09:25:02.748Z</time>
      </trkpt>
      <trkpt lat="45.97662" lon="4.79849">
        <ele>236.199996948</ele>
        <time>2015-08-04T09:25:03.706Z</time>
      </trkpt>
      <trkpt lat="45.97667" lon="4.79848">
        <ele>236.199996948</ele>
        <time>2015-08-04T09:25:04.752Z</time>
      </trkpt>
      <trkpt lat="45.97672" lon="4.79846">
        <ele>236.600006104</ele>
        <time>2015-08-04T09:25:05.707Z</time>
      </trkpt>
      <trkpt lat="45.97676" lon="4.79845">
        <ele>236.399993896</ele>
        <time>2015-08-04T09:25:06.741Z</time>
      </trkpt>
      <trkpt lat="45.97681" lon="4.79843">
        <ele>236.300003052</ele>
        <time>2015-08-04T09:25:07.708Z</time>
      </trkpt>
      <trkpt lat="45.97686" lon="4.79841">
        <ele>236.100006104</ele>
        <time>2015-08-04T09:25:08.742Z</time>
      </trkpt>
      <trkpt lat="45.97691" lon="4.79839">
        <ele>235.899993896</ele>
        <time>2015-08-04T09:25:09.712Z</time>
      </trkpt>
      <trkpt lat="45.97697" lon="4.79838">
        <ele>235.399993896</ele>
        <time>2015-08-04T09:25:10.759Z</time>
      </trkpt>
      <trkpt lat="45.97702" lon="4.79837">
        <ele>235.300003052</ele>
        <time>2015-08-04T09:25:11.713Z</time>
      </trkpt>
      <trkpt lat="45.97707" lon="4.79836">
        <ele>235.5</ele>
        <time>2015-08-04T09:25:12.749Z</time>
      </trkpt>
      <trkpt lat="45.97712" lon="4.79835">
        <ele>235.5</ele>
        <time>2015-08-04T09:25:13.708Z</time>
      </trkpt>
      <trkpt lat="45.97717" lon="4.79834">
        <ele>235.600006104</ele>
        <time>2015-08-04T09:25:14.786Z</time>
      </trkpt>
      <trkpt lat="45.97722" lon="4.79833">
        <ele>235.399993896</ele>
        <time>2015-08-04T09:25:15.708Z</time>
      </trkpt>
      <trkpt lat="45.97727" lon="4.79832">
        <ele>235</ele>
        <time>2015-08-04T09:25:16.758Z</time>
      </trkpt>
      <trkpt lat="45.97732" lon="4.79832">
        <ele>235.199996948</ele>
        <time>2015-08-04T09:25:17.708Z</time>
      </trkpt>
      <trkpt lat="45.97738" lon="4.7983">
        <ele>234.699996948</ele>
        <time>2015-08-04T09:25:18.741Z</time>
      </trkpt>
      <trkpt lat="45.97743" lon="4.79828">
        <ele>234.399993896</ele>
        <time>2015-08-04T09:25:19.708Z</time>
      </trkpt>
      <trkpt lat="45.97749" lon="4.79826">
        <ele>233.699996948</ele>
        <time>2015-08-04T09:25:20.743Z</time>
      </trkpt>
      <trkpt lat="45.97755" lon="4.79825">
        <ele>233.300003052</ele>
        <time>2015-08-04T09:25:21.707Z</time>
      </trkpt>
      <trkpt lat="45.9776" lon="4.79824">
        <ele>232.600006104</ele>
        <time>2015-08-04T09:25:22.747Z</time>
      </trkpt>
      <trkpt lat="45.97766" lon="4.79822">
        <ele>232.100006104</ele>
        <time>2015-08-04T09:25:23.708Z</time>
      </trkpt>
      <trkpt lat="45.97772" lon="4.79821">
        <ele>231.800003052</ele>
        <time>2015-08-04T09:25:24.742Z</time>
      </trkpt>
      <trkpt lat="45.97778" lon="4.7982">
        <ele>231.600006104</ele>
        <time>2015-08-04T09:25:25.708Z</time>
      </trkpt>
      <trkpt lat="45.97784" lon="4.79819">
        <ele>231.199996948</ele>
        <time>2015-08-04T09:25:26.747Z</time>
      </trkpt>
      <trkpt lat="45.9779" lon="4.79819">
        <ele>230.699996948</ele>
        <time>2015-08-04T09:25:27.706Z</time>
      </trkpt>
      <trkpt lat="45.97795" lon="4.79818">
        <ele>230.100006104</ele>
        <time>2015-08-04T09:25:28.743Z</time>
      </trkpt>
      <trkpt lat="45.97801" lon="4.79817">
        <ele>230.100006104</ele>
        <time>2015-08-04T09:25:29.707Z</time>
      </trkpt>
      <trkpt lat="45.97806" lon="4.79816">
        <ele>229.899993896</ele>
        <time>2015-08-04T09:25:30.746Z</time>
      </trkpt>
      <trkpt lat="45.97811" lon="4.79816">
        <ele>230.600006104</ele>
        <time>2015-08-04T09:25:31.708Z</time>
      </trkpt>
      <trkpt lat="45.97816" lon="4.79815">
        <ele>230.199996948</ele>
        <time>2015-08-04T09:25:32.813Z</time>
      </trkpt>
      <trkpt lat="45.97821" lon="4.79814">
        <ele>230.399993896</ele>
        <time>2015-08-04T09:25:33.705Z</time>
      </trkpt>
      <trkpt lat="45.97826" lon="4.79812">
        <ele>230.300003052</ele>
        <time>2015-08-04T09:25:34.743Z</time>
      </trkpt>
      <trkpt lat="45.9783" lon="4.7981">
        <ele>230.100006104</ele>
        <time>2015-08-04T09:25:35.738Z</time>
      </trkpt>
      <trkpt lat="45.97835" lon="4.7981">
        <ele>230.600006104</ele>
        <time>2015-08-04T09:25:36.743Z</time>
      </trkpt>
      <trkpt lat="45.9784" lon="4.7981">
        <ele>230.800003052</ele>
        <time>2015-08-04T09:25:37.714Z</time>
      </trkpt>
      <trkpt lat="45.97844" lon="4.7981">
        <ele>231.199996948</ele>
        <time>2015-08-04T09:25:38.75Z</time>
      </trkpt>
      <trkpt lat="45.97849" lon="4.7981">
        <ele>231.5</ele>
        <time>2015-08-04T09:25:39.706Z</time>
      </trkpt>
      <trkpt lat="45.97854" lon="4.79809">
        <ele>232</ele>
        <time>2015-08-04T09:25:40.753Z</time>
      </trkpt>
      <trkpt lat="45.9786" lon="4.79808">
        <ele>232.5</ele>
        <time>2015-08-04T09:25:41.711Z</time>
      </trkpt>
      <trkpt lat="45.97865" lon="4.79808">
        <ele>233.199996948</ele>
        <time>2015-08-04T09:25:42.744Z</time>
      </trkpt>
      <trkpt lat="45.9787" lon="4.79806">
        <ele>233.399993896</ele>
        <time>2015-08-04T09:25:43.707Z</time>
      </trkpt>
      <trkpt lat="45.97875" lon="4.79805">
        <ele>233.399993896</ele>
        <time>2015-08-04T09:25:44.742Z</time>
      </trkpt>
      <trkpt lat="45.9788" lon="4.79805">
        <ele>233.100006104</ele>
        <time>2015-08-04T09:25:45.708Z</time>
      </trkpt>
      <trkpt lat="45.97886" lon="4.79804">
        <ele>232.300003052</ele>
        <time>2015-08-04T09:25:46.749Z</time>
      </trkpt>
      <trkpt lat="45.97892" lon="4.79803">
        <ele>232.399993896</ele>
        <time>2015-08-04T09:25:47.708Z</time>
      </trkpt>
      <trkpt lat="45.97897" lon="4.79803">
        <ele>232.899993896</ele>
        <time>2015-08-04T09:25:48.757Z</time>
      </trkpt>
      <trkpt lat="45.97902" lon="4.79802">
        <ele>233.199996948</ele>
        <time>2015-08-04T09:25:49.707Z</time>
      </trkpt>
      <trkpt lat="45.97908" lon="4.79803">
        <ele>233.199996948</ele>
        <time>2015-08-04T09:25:50.846Z</time>
      </trkpt>
      <trkpt lat="45.97914" lon="4.79803">
        <ele>233.5</ele>
        <time>2015-08-04T09:25:51.711Z</time>
      </trkpt>
      <trkpt lat="45.9792" lon="4.79801">
        <ele>233.699996948</ele>
        <time>2015-08-04T09:25:52.747Z</time>
      </trkpt>
      <trkpt lat="45.97927" lon="4.798">
        <ele>233.699996948</ele>
        <time>2015-08-04T09:25:53.74Z</time>
      </trkpt>
      <trkpt lat="45.97933" lon="4.79798">
        <ele>233.800003052</ele>
        <time>2015-08-04T09:25:54.745Z</time>
      </trkpt>
      <trkpt lat="45.97938" lon="4.79798">
        <ele>234.199996948</ele>
        <time>2015-08-04T09:25:55.711Z</time>
      </trkpt>
      <trkpt lat="45.97943" lon="4.79796">
        <ele>234.5</ele>
        <time>2015-08-04T09:25:56.744Z</time>
      </trkpt>
      <trkpt lat="45.97948" lon="4.79795">
        <ele>235.100006104</ele>
        <time>2015-08-04T09:25:57.707Z</time>
      </trkpt>
      <trkpt lat="45.97953" lon="4.79793">
        <ele>234.600006104</ele>
        <time>2015-08-04T09:25:58.772Z</time>
      </trkpt>
      <trkpt lat="45.97959" lon="4.79794">
        <ele>234.399993896</ele>
        <time>2015-08-04T09:25:59.756Z</time>
      </trkpt>
      <trkpt lat="45.97964" lon="4.79793">
        <ele>234.100006104</ele>
        <time>2015-08-04T09:26:00.74Z</time>
      </trkpt>
      <trkpt lat="45.9797" lon="4.79793">
        <ele>234.5</ele>
        <time>2015-08-04T09:26:01.718Z</time>
      </trkpt>
      <trkpt lat="45.97977" lon="4.79792">
        <ele>234.100006104</ele>
        <time>2015-08-04T09:26:02.741Z</time>
      </trkpt>
      <trkpt lat="45.97983" lon="4.79791">
        <ele>234.300003052</ele>
        <time>2015-08-04T09:26:03.713Z</time>
      </trkpt>
      <trkpt lat="45.97989" lon="4.79789">
        <ele>233.600006104</ele>
        <time>2015-08-04T09:26:04.749Z</time>
      </trkpt>
      <trkpt lat="45.97995" lon="4.79788">
        <ele>233</ele>
        <time>2015-08-04T09:26:05.708Z</time>
      </trkpt>
      <trkpt lat="45.98001" lon="4.79786">
        <ele>232.600006104</ele>
        <time>2015-08-04T09:26:06.743Z</time>
      </trkpt>
      <trkpt lat="45.98007" lon="4.79785">
        <ele>232.800003052</ele>
        <time>2015-08-04T09:26:07.707Z</time>
      </trkpt>
      <trkpt lat="45.98012" lon="4.79784">
        <ele>233.199996948</ele>
        <time>2015-08-04T09:26:08.737Z</time>
      </trkpt>
      <trkpt lat="45.98018" lon="4.79783">
        <ele>233.600006104</ele>
        <time>2015-08-04T09:26:09.708Z</time>
      </trkpt>
      <trkpt lat="45.98024" lon="4.79782">
        <ele>233.600006104</ele>
        <time>2015-08-04T09:26:10.745Z</time>
      </trkpt>
      <trkpt lat="45.9803" lon="4.79781">
        <ele>234.199996948</ele>
        <time>2015-08-04T09:26:11.708Z</time>
      </trkpt>
      <trkpt lat="45.98036" lon="4.7978">
        <ele>234.199996948</ele>
        <time>2015-08-04T09:26:12.74Z</time>
      </trkpt>
      <trkpt lat="45.98042" lon="4.79779">
        <ele>233.800003052</ele>
        <time>2015-08-04T09:26:13.708Z</time>
      </trkpt>
      <trkpt lat="45.98048" lon="4.79778">
        <ele>234.100006104</ele>
        <time>2015-08-04T09:26:14.739Z</time>
      </trkpt>
      <trkpt lat="45.98053" lon="4.79777">
        <ele>234</ele>
        <time>2015-08-04T09:26:15.707Z</time>
      </trkpt>
      <trkpt lat="45.98059" lon="4.79776">
        <ele>233.800003052</ele>
        <time>2015-08-04T09:26:16.751Z</time>
      </trkpt>
      <trkpt lat="45.98065" lon="4.79775">
        <ele>233.899993896</ele>
        <time>2015-08-04T09:26:17.746Z</time>
      </trkpt>
      <trkpt lat="45.98071" lon="4.79774">
        <ele>234.300003052</ele>
        <time>2015-08-04T09:26:18.784Z</time>
      </trkpt>
      <trkpt lat="45.98077" lon="4.79773">
        <ele>234.300003052</ele>
        <time>2015-08-04T09:26:19.727Z</time>
      </trkpt>
      <trkpt lat="45.98083" lon="4.79772">
        <ele>234.399993896</ele>
        <time>2015-08-04T09:26:20.74Z</time>
      </trkpt>
      <trkpt lat="45.98089" lon="4.79771">
        <ele>234.699996948</ele>
        <time>2015-08-04T09:26:21.707Z</time>
      </trkpt>
      <trkpt lat="45.98094" lon="4.79771">
        <ele>235.699996948</ele>
        <time>2015-08-04T09:26:22.751Z</time>
      </trkpt>
      <trkpt lat="45.981" lon="4.7977">
        <ele>236</ele>
        <time>2015-08-04T09:26:23.708Z</time>
      </trkpt>
      <trkpt lat="45.98105" lon="4.79769">
        <ele>235.800003052</ele>
        <time>2015-08-04T09:26:24.741Z</time>
      </trkpt>
      <trkpt lat="45.9811" lon="4.79769">
        <ele>235.699996948</ele>
        <time>2015-08-04T09:26:25.706Z</time>
      </trkpt>
      <trkpt lat="45.98114" lon="4.79768">
        <ele>235.899993896</ele>
        <time>2015-08-04T09:26:26.747Z</time>
      </trkpt>
      <trkpt lat="45.98119" lon="4.79767">
        <ele>235.699996948</ele>
        <time>2015-08-04T09:26:27.707Z</time>
      </trkpt>
      <trkpt lat="45.98124" lon="4.79766">
        <ele>235.800003052</ele>
        <time>2015-08-04T09:26:28.742Z</time>
      </trkpt>
      <trkpt lat="45.98129" lon="4.79765">
        <ele>235.699996948</ele>
        <time>2015-08-04T09:26:29.713Z</time>
      </trkpt>
      <trkpt lat="45.98134" lon="4.79764">
        <ele>236.100006104</ele>
        <time>2015-08-04T09:26:30.744Z</time>
      </trkpt>
      <trkpt lat="45.98139" lon="4.79764">
        <ele>236.300003052</ele>
        <time>2015-08-04T09:26:31.707Z</time>
      </trkpt>
      <trkpt lat="45.98144" lon="4.79764">
        <ele>236.300003052</ele>
        <time>2015-08-04T09:26:32.749Z</time>
      </trkpt>
      <trkpt lat="45.98149" lon="4.79764">
        <ele>236.800003052</ele>
        <time>2015-08-04T09:26:33.707Z</time>
      </trkpt>
      <trkpt lat="45.98153" lon="4.79764">
        <ele>237.399993896</ele>
        <time>2015-08-04T09:26:34.743Z</time>
      </trkpt>
      <trkpt lat="45.98158" lon="4.79765">
        <ele>237.600006104</ele>
        <time>2015-08-04T09:26:35.708Z</time>
      </trkpt>
      <trkpt lat="45.98163" lon="4.79766">
        <ele>237.899993896</ele>
        <time>2015-08-04T09:26:36.745Z</time>
      </trkpt>
      <trkpt lat="45.98167" lon="4.7977">
        <ele>238</ele>
        <time>2015-08-04T09:26:37.707Z</time>
      </trkpt>
      <trkpt lat="45.98172" lon="4.79774">
        <ele>238</ele>
        <time>2015-08-04T09:26:38.744Z</time>
      </trkpt>
      <trkpt lat="45.98176" lon="4.79778">
        <ele>238</ele>
        <time>2015-08-04T09:26:39.708Z</time>
      </trkpt>
      <trkpt lat="45.98179" lon="4.79784">
        <ele>237.899993896</ele>
        <time>2015-08-04T09:26:40.759Z</time>
      </trkpt>
      <trkpt lat="45.98181" lon="4.7979">
        <ele>237.800003052</ele>
        <time>2015-08-04T09:26:41.708Z</time>
      </trkpt>
      <trkpt lat="45.98184" lon="4.79797">
        <ele>237.5</ele>
        <time>2015-08-04T09:26:42.742Z</time>
      </trkpt>
      <trkpt lat="45.98186" lon="4.79804">
        <ele>237.399993896</ele>
        <time>2015-08-04T09:26:43.707Z</time>
      </trkpt>
      <trkpt lat="45.98188" lon="4.79812">
        <ele>237.399993896</ele>
        <time>2015-08-04T09:26:44.74Z</time>
      </trkpt>
      <trkpt lat="45.98191" lon="4.79819">
        <ele>237.600006104</ele>
        <time>2015-08-04T09:26:45.707Z</time>
      </trkpt>
      <trkpt lat="45.98194" lon="4.79827">
        <ele>237.100006104</ele>
        <time>2015-08-04T09:26:46.743Z</time>
      </trkpt>
      <trkpt lat="45.98197" lon="4.79835">
        <ele>237.300003052</ele>
        <time>2015-08-04T09:26:47.746Z</time>
      </trkpt>
      <trkpt lat="45.982" lon="4.79844">
        <ele>237.300003052</ele>
        <time>2015-08-04T09:26:48.872Z</time>
      </trkpt>
      <trkpt lat="45.98203" lon="4.79853">
        <ele>237.199996948</ele>
        <time>2015-08-04T09:26:49.711Z</time>
      </trkpt>
      <trkpt lat="45.98206" lon="4.79861">
        <ele>237.100006104</ele>
        <time>2015-08-04T09:26:50.743Z</time>
      </trkpt>
      <trkpt lat="45.98209" lon="4.7987">
        <ele>237.100006104</ele>
        <time>2015-08-04T09:26:51.705Z</time>
      </trkpt>
      <trkpt lat="45.98212" lon="4.79877">
        <ele>237.199996948</ele>
        <time>2015-08-04T09:26:52.755Z</time>
      </trkpt>
      <trkpt lat="45.98214" lon="4.79885">
        <ele>237.300003052</ele>
        <time>2015-08-04T09:26:53.711Z</time>
      </trkpt>
      <trkpt lat="45.98217" lon="4.79892">
        <ele>237.300003052</ele>
        <time>2015-08-04T09:26:54.741Z</time>
      </trkpt>
      <trkpt lat="45.9822" lon="4.799">
        <ele>237.199996948</ele>
        <time>2015-08-04T09:26:55.711Z</time>
      </trkpt>
      <trkpt lat="45.98222" lon="4.79908">
        <ele>237.100006104</ele>
        <time>2015-08-04T09:26:56.762Z</time>
      </trkpt>
      <trkpt lat="45.98225" lon="4.79917">
        <ele>237.199996948</ele>
        <time>2015-08-04T09:26:57.707Z</time>
      </trkpt>
      <trkpt lat="45.98228" lon="4.79924">
        <ele>237.199996948</ele>
        <time>2015-08-04T09:26:58.742Z</time>
      </trkpt>
      <trkpt lat="45.9823" lon="4.79931">
        <ele>237.199996948</ele>
        <time>2015-08-04T09:26:59.71Z</time>
      </trkpt>
      <trkpt lat="45.98233" lon="4.7994">
        <ele>237.100006104</ele>
        <time>2015-08-04T09:27:00.743Z</time>
      </trkpt>
      <trkpt lat="45.98235" lon="4.79947">
        <ele>237</ele>
        <time>2015-08-04T09:27:01.711Z</time>
      </trkpt>
      <trkpt lat="45.98238" lon="4.79955">
        <ele>237</ele>
        <time>2015-08-04T09:27:02.744Z</time>
      </trkpt>
      <trkpt lat="45.98241" lon="4.79963">
        <ele>237</ele>
        <time>2015-08-04T09:27:03.712Z</time>
      </trkpt>
      <trkpt lat="45.98244" lon="4.79971">
        <ele>236.800003052</ele>
        <time>2015-08-04T09:27:04.742Z</time>
      </trkpt>
      <trkpt lat="45.98246" lon="4.7998">
        <ele>236.699996948</ele>
        <time>2015-08-04T09:27:05.716Z</time>
      </trkpt>
      <trkpt lat="45.98249" lon="4.79988">
        <ele>236.5</ele>
        <time>2015-08-04T09:27:06.747Z</time>
      </trkpt>
      <trkpt lat="45.98252" lon="4.79997">
        <ele>236.100006104</ele>
        <time>2015-08-04T09:27:07.707Z</time>
      </trkpt>
      <trkpt lat="45.98255" lon="4.80005">
        <ele>235.899993896</ele>
        <time>2015-08-04T09:27:08.741Z</time>
      </trkpt>
      <trkpt lat="45.98259" lon="4.80014">
        <ele>235.899993896</ele>
        <time>2015-08-04T09:27:09.707Z</time>
      </trkpt>
      <trkpt lat="45.98262" lon="4.80022">
        <ele>236.100006104</ele>
        <time>2015-08-04T09:27:10.745Z</time>
      </trkpt>
      <trkpt lat="45.98265" lon="4.80029">
        <ele>236.199996948</ele>
        <time>2015-08-04T09:27:11.707Z</time>
      </trkpt>
      <trkpt lat="45.98268" lon="4.80037">
        <ele>236.5</ele>
        <time>2015-08-04T09:27:12.742Z</time>
      </trkpt>
      <trkpt lat="45.98271" lon="4.80045">
        <ele>236.600006104</ele>
        <time>2015-08-04T09:27:13.708Z</time>
      </trkpt>
      <trkpt lat="45.98274" lon="4.80053">
        <ele>236.5</ele>
        <time>2015-08-04T09:27:14.743Z</time>
      </trkpt>
      <trkpt lat="45.98277" lon="4.80061">
        <ele>236.5</ele>
        <time>2015-08-04T09:27:15.708Z</time>
      </trkpt>
      <trkpt lat="45.98279" lon="4.80069">
        <ele>236.100006104</ele>
        <time>2015-08-04T09:27:16.777Z</time>
      </trkpt>
      <trkpt lat="45.98282" lon="4.80077">
        <ele>235.800003052</ele>
        <time>2015-08-04T09:27:17.708Z</time>
      </trkpt>
      <trkpt lat="45.98284" lon="4.80084">
        <ele>235.399993896</ele>
        <time>2015-08-04T09:27:18.744Z</time>
      </trkpt>
      <trkpt lat="45.98287" lon="4.80091">
        <ele>235.600006104</ele>
        <time>2015-08-04T09:27:19.714Z</time>
      </trkpt>
      <trkpt lat="45.98289" lon="4.80097">
        <ele>235.399993896</ele>
        <time>2015-08-04T09:27:20.748Z</time>
      </trkpt>
      <trkpt lat="45.98291" lon="4.80104">
        <ele>235.199996948</ele>
        <time>2015-08-04T09:27:21.708Z</time>
      </trkpt>
      <trkpt lat="45.98294" lon="4.8011">
        <ele>235.699996948</ele>
        <time>2015-08-04T09:27:22.755Z</time>
      </trkpt>
      <trkpt lat="45.98295" lon="4.80117">
        <ele>235.800003052</ele>
        <time>2015-08-04T09:27:23.74Z</time>
      </trkpt>
      <trkpt lat="45.98298" lon="4.80124">
        <ele>235.699996948</ele>
        <time>2015-08-04T09:27:24.755Z</time>
      </trkpt>
      <trkpt lat="45.98301" lon="4.80131">
        <ele>235.699996948</ele>
        <time>2015-08-04T09:27:25.706Z</time>
      </trkpt>
      <trkpt lat="45.98304" lon="4.80138">
        <ele>235.899993896</ele>
        <time>2015-08-04T09:27:26.816Z</time>
      </trkpt>
      <trkpt lat="45.98307" lon="4.80146">
        <ele>236</ele>
        <time>2015-08-04T09:27:27.708Z</time>
      </trkpt>
      <trkpt lat="45.98309" lon="4.80153">
        <ele>236.199996948</ele>
        <time>2015-08-04T09:27:28.754Z</time>
      </trkpt>
      <trkpt lat="45.98311" lon="4.80161">
        <ele>236.5</ele>
        <time>2015-08-04T09:27:29.704Z</time>
      </trkpt>
      <trkpt lat="45.98314" lon="4.80169">
        <ele>236.800003052</ele>
        <time>2015-08-04T09:27:30.746Z</time>
      </trkpt>
      <trkpt lat="45.98317" lon="4.80177">
        <ele>237</ele>
        <time>2015-08-04T09:27:31.71Z</time>
      </trkpt>
      <trkpt lat="45.98319" lon="4.80185">
        <ele>237.100006104</ele>
        <time>2015-08-04T09:27:32.761Z</time>
      </trkpt>
      <trkpt lat="45.98322" lon="4.80192">
        <ele>236.800003052</ele>
        <time>2015-08-04T09:27:33.707Z</time>
      </trkpt>
      <trkpt lat="45.98325" lon="4.80199">
        <ele>236.5</ele>
        <time>2015-08-04T09:27:34.746Z</time>
      </trkpt>
      <trkpt lat="45.98328" lon="4.80206">
        <ele>236.199996948</ele>
        <time>2015-08-04T09:27:35.707Z</time>
      </trkpt>
      <trkpt lat="45.9833" lon="4.80213">
        <ele>236.600006104</ele>
        <time>2015-08-04T09:27:36.743Z</time>
      </trkpt>
      <trkpt lat="45.98332" lon="4.8022">
        <ele>236.5</ele>
        <time>2015-08-04T09:27:37.706Z</time>
      </trkpt>
      <trkpt lat="45.98332" lon="4.80232">
        <ele>236.899993896</ele>
        <time>2015-08-04T09:27:39.754Z</time>
      </trkpt>
      <trkpt lat="45.9833" lon="4.80239">
        <ele>237</ele>
        <time>2015-08-04T09:27:40.709Z</time>
      </trkpt>
      <trkpt lat="45.98329" lon="4.80246">
        <ele>237.199996948</ele>
        <time>2015-08-04T09:27:41.791Z</time>
      </trkpt>
      <trkpt lat="45.98326" lon="4.80253">
        <ele>237.300003052</ele>
        <time>2015-08-04T09:27:42.704Z</time>
      </trkpt>
      <trkpt lat="45.98325" lon="4.80261">
        <ele>237.600006104</ele>
        <time>2015-08-04T09:27:43.748Z</time>
      </trkpt>
      <trkpt lat="45.98323" lon="4.80269">
        <ele>237.600006104</ele>
        <time>2015-08-04T09:27:44.705Z</time>
      </trkpt>
      <trkpt lat="45.98321" lon="4.80277">
        <ele>237.800003052</ele>
        <time>2015-08-04T09:27:45.797Z</time>
      </trkpt>
      <trkpt lat="45.98319" lon="4.80284">
        <ele>237.800003052</ele>
        <time>2015-08-04T09:27:46.709Z</time>
      </trkpt>
      <trkpt lat="45.98316" lon="4.80292">
        <ele>238.199996948</ele>
        <time>2015-08-04T09:27:47.743Z</time>
      </trkpt>
      <trkpt lat="45.98313" lon="4.80302">
        <ele>238.399993896</ele>
        <time>2015-08-04T09:27:48.708Z</time>
      </trkpt>
      <trkpt lat="45.98312" lon="4.80311">
        <ele>238.5</ele>
        <time>2015-08-04T09:27:49.744Z</time>
      </trkpt>
      <trkpt lat="45.98309" lon="4.80321">
        <ele>238.399993896</ele>
        <time>2015-08-04T09:27:50.748Z</time>
      </trkpt>
      <trkpt lat="45.98307" lon="4.80331">
        <ele>238.5</ele>
        <time>2015-08-04T09:27:51.741Z</time>
      </trkpt>
      <trkpt lat="45.98305" lon="4.80342">
        <ele>238.600006104</ele>
        <time>2015-08-04T09:27:52.738Z</time>
      </trkpt>
      <trkpt lat="45.98303" lon="4.80352">
        <ele>238.600006104</ele>
        <time>2015-08-04T09:27:53.744Z</time>
      </trkpt>
      <trkpt lat="45.98301" lon="4.80363">
        <ele>238.5</ele>
        <time>2015-08-04T09:27:54.706Z</time>
      </trkpt>
      <trkpt lat="45.98298" lon="4.80375">
        <ele>238.399993896</ele>
        <time>2015-08-04T09:27:55.892Z</time>
      </trkpt>
      <trkpt lat="45.98296" lon="4.80387">
        <ele>238.199996948</ele>
        <time>2015-08-04T09:27:56.706Z</time>
      </trkpt>
      <trkpt lat="45.98294" lon="4.80398">
        <ele>238</ele>
        <time>2015-08-04T09:27:57.741Z</time>
      </trkpt>
      <trkpt lat="45.98292" lon="4.80409">
        <ele>237.800003052</ele>
        <time>2015-08-04T09:27:58.729Z</time>
      </trkpt>
      <trkpt lat="45.98289" lon="4.8042">
        <ele>237.5</ele>
        <time>2015-08-04T09:27:59.78Z</time>
      </trkpt>
      <trkpt lat="45.98289" lon="4.80431">
        <ele>236.899993896</ele>
        <time>2015-08-04T09:28:00.706Z</time>
      </trkpt>
      <trkpt lat="45.98288" lon="4.80441">
        <ele>236.600006104</ele>
        <time>2015-08-04T09:28:01.744Z</time>
      </trkpt>
      <trkpt lat="45.98286" lon="4.80452">
        <ele>236.300003052</ele>
        <time>2015-08-04T09:28:02.711Z</time>
      </trkpt>
      <trkpt lat="45.98283" lon="4.80462">
        <ele>236.199996948</ele>
        <time>2015-08-04T09:28:03.743Z</time>
      </trkpt>
      <trkpt lat="45.98281" lon="4.80472">
        <ele>236.100006104</ele>
        <time>2015-08-04T09:28:04.709Z</time>
      </trkpt>
      <trkpt lat="45.98279" lon="4.80482">
        <ele>236</ele>
        <time>2015-08-04T09:28:05.742Z</time>
      </trkpt>
      <trkpt lat="45.98276" lon="4.80493">
        <ele>235.800003052</ele>
        <time>2015-08-04T09:28:06.712Z</time>
      </trkpt>
      <trkpt lat="45.98273" lon="4.80502">
        <ele>235.600006104</ele>
        <time>2015-08-04T09:28:07.742Z</time>
      </trkpt>
      <trkpt lat="45.98271" lon="4.80512">
        <ele>235.5</ele>
        <time>2015-08-04T09:28:08.705Z</time>
      </trkpt>
      <trkpt lat="45.98267" lon="4.80521">
        <ele>235.300003052</ele>
        <time>2015-08-04T09:28:09.765Z</time>
      </trkpt>
      <trkpt lat="45.98264" lon="4.80529">
        <ele>235.199996948</ele>
        <time>2015-08-04T09:28:10.713Z</time>
      </trkpt>
      <trkpt lat="45.98262" lon="4.80539">
        <ele>235</ele>
        <time>2015-08-04T09:28:11.74Z</time>
      </trkpt>
      <trkpt lat="45.98259" lon="4.80548">
        <ele>234.899993896</ele>
        <time>2015-08-04T09:28:12.707Z</time>
      </trkpt>
      <trkpt lat="45.98257" lon="4.80557">
        <ele>234.800003052</ele>
        <time>2015-08-04T09:28:13.743Z</time>
      </trkpt>
      <trkpt lat="45.98254" lon="4.80565">
        <ele>234.399993896</ele>
        <time>2015-08-04T09:28:14.707Z</time>
      </trkpt>
      <trkpt lat="45.98252" lon="4.80573">
        <ele>234.300003052</ele>
        <time>2015-08-04T09:28:15.741Z</time>
      </trkpt>
      <trkpt lat="45.9825" lon="4.80582">
        <ele>234.100006104</ele>
        <time>2015-08-04T09:28:16.708Z</time>
      </trkpt>
      <trkpt lat="45.98247" lon="4.80591">
        <ele>234.100006104</ele>
        <time>2015-08-04T09:28:17.778Z</time>
      </trkpt>
      <trkpt lat="45.98245" lon="4.80599">
        <ele>234.300003052</ele>
        <time>2015-08-04T09:28:18.706Z</time>
      </trkpt>
      <trkpt lat="45.98243" lon="4.80607">
        <ele>234.399993896</ele>
        <time>2015-08-04T09:28:19.745Z</time>
      </trkpt>
      <trkpt lat="45.98241" lon="4.80615">
        <ele>234.300003052</ele>
        <time>2015-08-04T09:28:20.705Z</time>
      </trkpt>
      <trkpt lat="45.98238" lon="4.80623">
        <ele>234.699996948</ele>
        <time>2015-08-04T09:28:21.745Z</time>
      </trkpt>
      <trkpt lat="45.98235" lon="4.8063">
        <ele>235.300003052</ele>
        <time>2015-08-04T09:28:22.708Z</time>
      </trkpt>
      <trkpt lat="45.98233" lon="4.80637">
        <ele>235.699996948</ele>
        <time>2015-08-04T09:28:23.752Z</time>
      </trkpt>
      <trkpt lat="45.9823" lon="4.80644">
        <ele>236</ele>
        <time>2015-08-04T09:28:24.708Z</time>
      </trkpt>
      <trkpt lat="45.98227" lon="4.80652">
        <ele>236.100006104</ele>
        <time>2015-08-04T09:28:25.768Z</time>
      </trkpt>
      <trkpt lat="45.98224" lon="4.80659">
        <ele>236.300003052</ele>
        <time>2015-08-04T09:28:26.706Z</time>
      </trkpt>
      <trkpt lat="45.98221" lon="4.80664">
        <ele>236.399993896</ele>
        <time>2015-08-04T09:28:27.764Z</time>
      </trkpt>
      <trkpt lat="45.98217" lon="4.80668">
        <ele>236.699996948</ele>
        <time>2015-08-04T09:28:28.709Z</time>
      </trkpt>
      <trkpt lat="45.98209" lon="4.80673">
        <ele>237.100006104</ele>
        <time>2015-08-04T09:28:30.762Z</time>
      </trkpt>
      <trkpt lat="45.98205" lon="4.80675">
        <ele>237.100006104</ele>
        <time>2015-08-04T09:28:31.707Z</time>
      </trkpt>
      <trkpt lat="45.98201" lon="4.80677">
        <ele>237.100006104</ele>
        <time>2015-08-04T09:28:32.754Z</time>
      </trkpt>
      <trkpt lat="45.98196" lon="4.80679">
        <ele>237.300003052</ele>
        <time>2015-08-04T09:28:33.705Z</time>
      </trkpt>
      <trkpt lat="45.9819" lon="4.80683">
        <ele>238</ele>
        <time>2015-08-04T09:28:34.806Z</time>
      </trkpt>
      <trkpt lat="45.98186" lon="4.80684">
        <ele>238.100006104</ele>
        <time>2015-08-04T09:28:35.756Z</time>
      </trkpt>
      <trkpt lat="45.98181" lon="4.80685">
        <ele>238.100006104</ele>
        <time>2015-08-04T09:28:36.739Z</time>
      </trkpt>
      <trkpt lat="45.98176" lon="4.80685">
        <ele>238</ele>
        <time>2015-08-04T09:28:37.705Z</time>
      </trkpt>
      <trkpt lat="45.98171" lon="4.80685">
        <ele>238.199996948</ele>
        <time>2015-08-04T09:28:38.743Z</time>
      </trkpt>
      <trkpt lat="45.98166" lon="4.80685">
        <ele>238</ele>
        <time>2015-08-04T09:28:39.705Z</time>
      </trkpt>
      <trkpt lat="45.98161" lon="4.80686">
        <ele>238.300003052</ele>
        <time>2015-08-04T09:28:40.786Z</time>
      </trkpt>
      <trkpt lat="45.98156" lon="4.80687">
        <ele>238.100006104</ele>
        <time>2015-08-04T09:28:41.707Z</time>
      </trkpt>
      <trkpt lat="45.98152" lon="4.80687">
        <ele>238.300003052</ele>
        <time>2015-08-04T09:28:42.74Z</time>
      </trkpt>
      <trkpt lat="45.98147" lon="4.80688">
        <ele>238.399993896</ele>
        <time>2015-08-04T09:28:43.706Z</time>
      </trkpt>
      <trkpt lat="45.98142" lon="4.80688">
        <ele>238.399993896</ele>
        <time>2015-08-04T09:28:44.743Z</time>
      </trkpt>
      <trkpt lat="45.98137" lon="4.80688">
        <ele>238.300003052</ele>
        <time>2015-08-04T09:28:45.706Z</time>
      </trkpt>
      <trkpt lat="45.98133" lon="4.80688">
        <ele>238.199996948</ele>
        <time>2015-08-04T09:28:46.766Z</time>
      </trkpt>
      <trkpt lat="45.98128" lon="4.80688">
        <ele>237.699996948</ele>
        <time>2015-08-04T09:28:47.706Z</time>
      </trkpt>
      <trkpt lat="45.98123" lon="4.80688">
        <ele>237.100006104</ele>
        <time>2015-08-04T09:28:48.745Z</time>
      </trkpt>
      <trkpt lat="45.98118" lon="4.80688">
        <ele>236.100006104</ele>
        <time>2015-08-04T09:28:49.708Z</time>
      </trkpt>
      <trkpt lat="45.98109" lon="4.80688">
        <ele>236</ele>
        <time>2015-08-04T09:28:51.762Z</time>
      </trkpt>
      <trkpt lat="45.98105" lon="4.80688">
        <ele>235.300003052</ele>
        <time>2015-08-04T09:28:52.709Z</time>
      </trkpt>
      <trkpt lat="45.98097" lon="4.80688">
        <ele>235</ele>
        <time>2015-08-04T09:28:54.744Z</time>
      </trkpt>
      <trkpt lat="45.98092" lon="4.80689">
        <ele>234.800003052</ele>
        <time>2015-08-04T09:28:55.706Z</time>
      </trkpt>
      <trkpt lat="45.98088" lon="4.80689">
        <ele>234.300003052</ele>
        <time>2015-08-04T09:28:56.74Z</time>
      </trkpt>
      <trkpt lat="45.98083" lon="4.80688">
        <ele>234</ele>
        <time>2015-08-04T09:28:57.705Z</time>
      </trkpt>
      <trkpt lat="45.98075" lon="4.80687">
        <ele>233.800003052</ele>
        <time>2015-08-04T09:28:59.741Z</time>
      </trkpt>
      <trkpt lat="45.98071" lon="4.80688">
        <ele>233.5</ele>
        <time>2015-08-04T09:29:00.707Z</time>
      </trkpt>
      <trkpt lat="45.98062" lon="4.80689">
        <ele>233.199996948</ele>
        <time>2015-08-04T09:29:02.742Z</time>
      </trkpt>
      <trkpt lat="45.98059" lon="4.8069">
        <ele>233.300003052</ele>
        <time>2015-08-04T09:29:03.706Z</time>
      </trkpt>
      <trkpt lat="45.98051" lon="4.80691">
        <ele>233.199996948</ele>
        <time>2015-08-04T09:29:05.738Z</time>
      </trkpt>
      <trkpt lat="45.98047" lon="4.80692">
        <ele>233</ele>
        <time>2015-08-04T09:29:06.708Z</time>
      </trkpt>
      <trkpt lat="45.9804" lon="4.80694">
        <ele>232.899993896</ele>
        <time>2015-08-04T09:29:08.739Z</time>
      </trkpt>
      <trkpt lat="45.98037" lon="4.80696">
        <ele>233</ele>
        <time>2015-08-04T09:29:09.705Z</time>
      </trkpt>
      <trkpt lat="45.98031" lon="4.80702">
        <ele>233.100006104</ele>
        <time>2015-08-04T09:29:11.776Z</time>
      </trkpt>
      <trkpt lat="45.9803" lon="4.80705">
        <ele>233.399993896</ele>
        <time>2015-08-04T09:29:12.706Z</time>
      </trkpt>
      <trkpt lat="45.98031" lon="4.80717">
        <ele>233.699996948</ele>
        <time>2015-08-04T09:29:15.777Z</time>
      </trkpt>
      <trkpt lat="45.98032" lon="4.80721">
        <ele>233.699996948</ele>
        <time>2015-08-04T09:29:16.709Z</time>
      </trkpt>
      <trkpt lat="45.98035" lon="4.80732">
        <ele>234.100006104</ele>
        <time>2015-08-04T09:29:19.776Z</time>
      </trkpt>
      <trkpt lat="45.98037" lon="4.80735">
        <ele>234.300003052</ele>
        <time>2015-08-04T09:29:20.707Z</time>
      </trkpt>
      <trkpt lat="45.9804" lon="4.80745">
        <ele>234.899993896</ele>
        <time>2015-08-04T09:29:23.743Z</time>
      </trkpt>
      <trkpt lat="45.98041" lon="4.80749">
        <ele>235</ele>
        <time>2015-08-04T09:29:24.707Z</time>
      </trkpt>
      <trkpt lat="45.98043" lon="4.80761">
        <ele>235.199996948</ele>
        <time>2015-08-04T09:29:27.742Z</time>
      </trkpt>
      <trkpt lat="45.98045" lon="4.80765">
        <ele>235.300003052</ele>
        <time>2015-08-04T09:29:28.707Z</time>
      </trkpt>
      <trkpt lat="45.98048" lon="4.80773">
        <ele>234.899993896</ele>
        <time>2015-08-04T09:29:30.739Z</time>
      </trkpt>
      <trkpt lat="45.98049" lon="4.80777">
        <ele>234.899993896</ele>
        <time>2015-08-04T09:29:31.706Z</time>
      </trkpt>
      <trkpt lat="45.98052" lon="4.8079">
        <ele>235.199996948</ele>
        <time>2015-08-04T09:29:34.751Z</time>
      </trkpt>
      <trkpt lat="45.98053" lon="4.80794">
        <ele>235.5</ele>
        <time>2015-08-04T09:29:35.707Z</time>
      </trkpt>
      <trkpt lat="45.98055" lon="4.80802">
        <ele>235.800003052</ele>
        <time>2015-08-04T09:29:37.74Z</time>
      </trkpt>
      <trkpt lat="45.98056" lon="4.80807">
        <ele>236.399993896</ele>
        <time>2015-08-04T09:29:38.725Z</time>
      </trkpt>
      <trkpt lat="45.98056" lon="4.80816">
        <ele>236.800003052</ele>
        <time>2015-08-04T09:29:40.826Z</time>
      </trkpt>
      <trkpt lat="45.98056" lon="4.8082">
        <ele>237.199996948</ele>
        <time>2015-08-04T09:29:41.707Z</time>
      </trkpt>
      <trkpt lat="45.98058" lon="4.80829">
        <ele>238.899993896</ele>
        <time>2015-08-04T09:29:43.743Z</time>
      </trkpt>
      <trkpt lat="45.9806" lon="4.80833">
        <ele>239.899993896</ele>
        <time>2015-08-04T09:29:44.706Z</time>
      </trkpt>
      <trkpt lat="45.98063" lon="4.80841">
        <ele>240.699996948</ele>
        <time>2015-08-04T09:29:46.741Z</time>
      </trkpt>
      <trkpt lat="45.98064" lon="4.80845">
        <ele>241.5</ele>
        <time>2015-08-04T09:29:47.705Z</time>
      </trkpt>
      <trkpt lat="45.98066" lon="4.80857">
        <ele>241.5</ele>
        <time>2015-08-04T09:29:50.742Z</time>
      </trkpt>
      <trkpt lat="45.98067" lon="4.80861">
        <ele>241.899993896</ele>
        <time>2015-08-04T09:29:51.707Z</time>
      </trkpt>
      <trkpt lat="45.98069" lon="4.80872">
        <ele>241.899993896</ele>
        <time>2015-08-04T09:29:54.739Z</time>
      </trkpt>
      <trkpt lat="45.9807" lon="4.80876">
        <ele>242</ele>
        <time>2015-08-04T09:29:55.707Z</time>
      </trkpt>
      <trkpt lat="45.98073" lon="4.80887">
        <ele>242.100006104</ele>
        <time>2015-08-04T09:29:58.742Z</time>
      </trkpt>
      <trkpt lat="45.98074" lon="4.8089">
        <ele>242.100006104</ele>
        <time>2015-08-04T09:29:59.71Z</time>
      </trkpt>
      <trkpt lat="45.98078" lon="4.80898">
        <ele>242</ele>
        <time>2015-08-04T09:30:01.743Z</time>
      </trkpt>
      <trkpt lat="45.98079" lon="4.80902">
        <ele>242</ele>
        <time>2015-08-04T09:30:02.707Z</time>
      </trkpt>
      <trkpt lat="45.9808" lon="4.80914">
        <ele>242.399993896</ele>
        <time>2015-08-04T09:30:05.737Z</time>
      </trkpt>
      <trkpt lat="45.98081" lon="4.80918">
        <ele>242.5</ele>
        <time>2015-08-04T09:30:06.707Z</time>
      </trkpt>
      <trkpt lat="45.98084" lon="4.8093">
        <ele>242.899993896</ele>
        <time>2015-08-04T09:30:09.742Z</time>
      </trkpt>
      <trkpt lat="45.98085" lon="4.80934">
        <ele>243.300003052</ele>
        <time>2015-08-04T09:30:10.709Z</time>
      </trkpt>
      <trkpt lat="45.98089" lon="4.80945">
        <ele>244.100006104</ele>
        <time>2015-08-04T09:30:13.737Z</time>
      </trkpt>
      <trkpt lat="45.98089" lon="4.80949">
        <ele>244.399993896</ele>
        <time>2015-08-04T09:30:14.706Z</time>
      </trkpt>
      <trkpt lat="45.98091" lon="4.8096">
        <ele>244.800003052</ele>
        <time>2015-08-04T09:30:17.738Z</time>
      </trkpt>
      <trkpt lat="45.98092" lon="4.80963">
        <ele>245.100006104</ele>
        <time>2015-08-04T09:30:18.708Z</time>
      </trkpt>
      <trkpt lat="45.98095" lon="4.80973">
        <ele>246.5</ele>
        <time>2015-08-04T09:30:21.739Z</time>
      </trkpt>
      <trkpt lat="45.98096" lon="4.80976">
        <ele>246.800003052</ele>
        <time>2015-08-04T09:30:22.705Z</time>
      </trkpt>
      <trkpt lat="45.98099" lon="4.80987">
        <ele>248.100006104</ele>
        <time>2015-08-04T09:30:25.826Z</time>
      </trkpt>
      <trkpt lat="45.981" lon="4.80991">
        <ele>248.399993896</ele>
        <time>2015-08-04T09:30:26.705Z</time>
      </trkpt>
      <trkpt lat="45.98103" lon="4.81">
        <ele>248.699996948</ele>
        <time>2015-08-04T09:30:28.741Z</time>
      </trkpt>
      <trkpt lat="45.98105" lon="4.81005">
        <ele>249.100006104</ele>
        <time>2015-08-04T09:30:29.705Z</time>
      </trkpt>
      <trkpt lat="45.9811" lon="4.81016">
        <ele>249.5</ele>
        <time>2015-08-04T09:30:31.741Z</time>
      </trkpt>
      <trkpt lat="45.98111" lon="4.81021">
        <ele>249.699996948</ele>
        <time>2015-08-04T09:30:32.706Z</time>
      </trkpt>
      <trkpt lat="45.98115" lon="4.8103">
        <ele>250.300003052</ele>
        <time>2015-08-04T09:30:34.74Z</time>
      </trkpt>
      <trkpt lat="45.98117" lon="4.81035">
        <ele>250.399993896</ele>
        <time>2015-08-04T09:30:35.707Z</time>
      </trkpt>
      <trkpt lat="45.9812" lon="4.81045">
        <ele>250.5</ele>
        <time>2015-08-04T09:30:37.738Z</time>
      </trkpt>
      <trkpt lat="45.98122" lon="4.8105">
        <ele>251</ele>
        <time>2015-08-04T09:30:38.707Z</time>
      </trkpt>
      <trkpt lat="45.98126" lon="4.81062">
        <ele>250</ele>
        <time>2015-08-04T09:30:40.752Z</time>
      </trkpt>
      <trkpt lat="45.98127" lon="4.81068">
        <ele>250</ele>
        <time>2015-08-04T09:30:41.728Z</time>
      </trkpt>
      <trkpt lat="45.9813" lon="4.81079">
        <ele>249.899993896</ele>
        <time>2015-08-04T09:30:43.742Z</time>
      </trkpt>
      <trkpt lat="45.98133" lon="4.81084">
        <ele>249.5</ele>
        <time>2015-08-04T09:30:44.71Z</time>
      </trkpt>
      <trkpt lat="45.98137" lon="4.81094">
        <ele>250.300003052</ele>
        <time>2015-08-04T09:30:46.786Z</time>
      </trkpt>
      <trkpt lat="45.98139" lon="4.81099">
        <ele>250.5</ele>
        <time>2015-08-04T09:30:47.706Z</time>
      </trkpt>
      <trkpt lat="45.98143" lon="4.8111">
        <ele>250.800003052</ele>
        <time>2015-08-04T09:30:49.737Z</time>
      </trkpt>
      <trkpt lat="45.98145" lon="4.81115">
        <ele>251.100006104</ele>
        <time>2015-08-04T09:30:50.706Z</time>
      </trkpt>
      <trkpt lat="45.98148" lon="4.81121">
        <ele>251.399993896</ele>
        <time>2015-08-04T09:30:51.764Z</time>
      </trkpt>
      <trkpt lat="45.98151" lon="4.81126">
        <ele>251</ele>
        <time>2015-08-04T09:30:52.709Z</time>
      </trkpt>
      <trkpt lat="45.98155" lon="4.81137">
        <ele>250.600006104</ele>
        <time>2015-08-04T09:30:54.748Z</time>
      </trkpt>
      <trkpt lat="45.98158" lon="4.81142">
        <ele>250.199996948</ele>
        <time>2015-08-04T09:30:55.705Z</time>
      </trkpt>
      <trkpt lat="45.98162" lon="4.81153">
        <ele>249.600006104</ele>
        <time>2015-08-04T09:30:57.774Z</time>
      </trkpt>
      <trkpt lat="45.98164" lon="4.81158">
        <ele>249.5</ele>
        <time>2015-08-04T09:30:58.707Z</time>
      </trkpt>
      <trkpt lat="45.98167" lon="4.81171">
        <ele>249.800003052</ele>
        <time>2015-08-04T09:31:00.759Z</time>
      </trkpt>
      <trkpt lat="45.98167" lon="4.81177">
        <ele>250</ele>
        <time>2015-08-04T09:31:01.707Z</time>
      </trkpt>
      <trkpt lat="45.98169" lon="4.81183">
        <ele>251</ele>
        <time>2015-08-04T09:31:02.74Z</time>
      </trkpt>
      <trkpt lat="45.9817" lon="4.81189">
        <ele>251.100006104</ele>
        <time>2015-08-04T09:31:03.704Z</time>
      </trkpt>
      <trkpt lat="45.98171" lon="4.81201">
        <ele>251.800003052</ele>
        <time>2015-08-04T09:31:05.742Z</time>
      </trkpt>
      <trkpt lat="45.98171" lon="4.81207">
        <ele>252</ele>
        <time>2015-08-04T09:31:06.705Z</time>
      </trkpt>
      <trkpt lat="45.98172" lon="4.81213">
        <ele>252.199996948</ele>
        <time>2015-08-04T09:31:07.798Z</time>
      </trkpt>
      <trkpt lat="45.98172" lon="4.8122">
        <ele>252.199996948</ele>
        <time>2015-08-04T09:31:08.704Z</time>
      </trkpt>
      <trkpt lat="45.98173" lon="4.81227">
        <ele>252.100006104</ele>
        <time>2015-08-04T09:31:09.74Z</time>
      </trkpt>
      <trkpt lat="45.98174" lon="4.81233">
        <ele>252</ele>
        <time>2015-08-04T09:31:10.711Z</time>
      </trkpt>
      <trkpt lat="45.98176" lon="4.81245">
        <ele>251.899993896</ele>
        <time>2015-08-04T09:31:12.762Z</time>
      </trkpt>
      <trkpt lat="45.98176" lon="4.81251">
        <ele>251.899993896</ele>
        <time>2015-08-04T09:31:13.704Z</time>
      </trkpt>
      <trkpt lat="45.98176" lon="4.81264">
        <ele>252.100006104</ele>
        <time>2015-08-04T09:31:15.745Z</time>
      </trkpt>
      <trkpt lat="45.98176" lon="4.81271">
        <ele>252.100006104</ele>
        <time>2015-08-04T09:31:16.709Z</time>
      </trkpt>
      <trkpt lat="45.98179" lon="4.81283">
        <ele>251.899993896</ele>
        <time>2015-08-04T09:31:18.742Z</time>
      </trkpt>
      <trkpt lat="45.9818" lon="4.81289">
        <ele>252.100006104</ele>
        <time>2015-08-04T09:31:19.704Z</time>
      </trkpt>
      <trkpt lat="45.98182" lon="4.81295">
        <ele>251.899993896</ele>
        <time>2015-08-04T09:31:20.737Z</time>
      </trkpt>
      <trkpt lat="45.98185" lon="4.813">
        <ele>253.899993896</ele>
        <time>2015-08-04T09:31:21.706Z</time>
      </trkpt>
      <trkpt lat="45.98187" lon="4.81306">
        <ele>255.399993896</ele>
        <time>2015-08-04T09:31:22.775Z</time>
      </trkpt>
      <trkpt lat="45.98189" lon="4.81312">
        <ele>255.699996948</ele>
        <time>2015-08-04T09:31:23.706Z</time>
      </trkpt>
      <trkpt lat="45.98192" lon="4.81324">
        <ele>256.399993896</ele>
        <time>2015-08-04T09:31:25.756Z</time>
      </trkpt>
      <trkpt lat="45.98193" lon="4.8133">
        <ele>256.600006104</ele>
        <time>2015-08-04T09:31:26.704Z</time>
      </trkpt>
      <trkpt lat="45.98194" lon="4.81336">
        <ele>256.600006104</ele>
        <time>2015-08-04T09:31:27.747Z</time>
      </trkpt>
      <trkpt lat="45.98196" lon="4.81342">
        <ele>256.799987793</ele>
        <time>2015-08-04T09:31:28.708Z</time>
      </trkpt>
      <trkpt lat="45.98197" lon="4.81349">
        <ele>257.100006104</ele>
        <time>2015-08-04T09:31:29.748Z</time>
      </trkpt>
      <trkpt lat="45.98198" lon="4.81356">
        <ele>257.399993896</ele>
        <time>2015-08-04T09:31:30.705Z</time>
      </trkpt>
      <trkpt lat="45.98199" lon="4.81362">
        <ele>257.5</ele>
        <time>2015-08-04T09:31:31.787Z</time>
      </trkpt>
      <trkpt lat="45.98201" lon="4.81369">
        <ele>257.399993896</ele>
        <time>2015-08-04T09:31:32.707Z</time>
      </trkpt>
      <trkpt lat="45.98203" lon="4.81375">
        <ele>257.5</ele>
        <time>2015-08-04T09:31:33.738Z</time>
      </trkpt>
      <trkpt lat="45.98205" lon="4.81381">
        <ele>257.700012207</ele>
        <time>2015-08-04T09:31:34.706Z</time>
      </trkpt>
      <trkpt lat="45.98208" lon="4.81387">
        <ele>257.5</ele>
        <time>2015-08-04T09:31:35.737Z</time>
      </trkpt>
      <trkpt lat="45.9821" lon="4.81393">
        <ele>257.399993896</ele>
        <time>2015-08-04T09:31:36.709Z</time>
      </trkpt>
      <trkpt lat="45.98212" lon="4.81399">
        <ele>257.200012207</ele>
        <time>2015-08-04T09:31:37.756Z</time>
      </trkpt>
      <trkpt lat="45.98214" lon="4.81405">
        <ele>257.100006104</ele>
        <time>2015-08-04T09:31:38.706Z</time>
      </trkpt>
      <trkpt lat="45.98216" lon="4.81411">
        <ele>256.899993896</ele>
        <time>2015-08-04T09:31:39.74Z</time>
      </trkpt>
      <trkpt lat="45.98218" lon="4.81417">
        <ele>257.100006104</ele>
        <time>2015-08-04T09:31:40.708Z</time>
      </trkpt>
      <trkpt lat="45.98221" lon="4.81429">
        <ele>256.899993896</ele>
        <time>2015-08-04T09:31:42.737Z</time>
      </trkpt>
      <trkpt lat="45.98223" lon="4.81435">
        <ele>256</ele>
        <time>2015-08-04T09:31:43.705Z</time>
      </trkpt>
      <trkpt lat="45.98225" lon="4.8144">
        <ele>255.699996948</ele>
        <time>2015-08-04T09:31:44.738Z</time>
      </trkpt>
      <trkpt lat="45.98227" lon="4.81447">
        <ele>255.800003052</ele>
        <time>2015-08-04T09:31:45.706Z</time>
      </trkpt>
      <trkpt lat="45.9823" lon="4.81453">
        <ele>255.800003052</ele>
        <time>2015-08-04T09:31:46.739Z</time>
      </trkpt>
      <trkpt lat="45.98232" lon="4.81459">
        <ele>255.800003052</ele>
        <time>2015-08-04T09:31:47.706Z</time>
      </trkpt>
      <trkpt lat="45.98234" lon="4.81466">
        <ele>255.800003052</ele>
        <time>2015-08-04T09:31:48.779Z</time>
      </trkpt>
      <trkpt lat="45.98236" lon="4.81473">
        <ele>256</ele>
        <time>2015-08-04T09:31:49.706Z</time>
      </trkpt>
      <trkpt lat="45.98238" lon="4.81479">
        <ele>255.5</ele>
        <time>2015-08-04T09:31:50.739Z</time>
      </trkpt>
      <trkpt lat="45.98241" lon="4.81487">
        <ele>255.199996948</ele>
        <time>2015-08-04T09:31:51.706Z</time>
      </trkpt>
      <trkpt lat="45.98244" lon="4.81494">
        <ele>254.699996948</ele>
        <time>2015-08-04T09:31:52.742Z</time>
      </trkpt>
      <trkpt lat="45.98246" lon="4.81501">
        <ele>254.5</ele>
        <time>2015-08-04T09:31:53.704Z</time>
      </trkpt>
      <trkpt lat="45.98249" lon="4.81509">
        <ele>254.600006104</ele>
        <time>2015-08-04T09:31:54.739Z</time>
      </trkpt>
      <trkpt lat="45.98251" lon="4.81517">
        <ele>254.899993896</ele>
        <time>2015-08-04T09:31:55.706Z</time>
      </trkpt>
      <trkpt lat="45.98254" lon="4.81525">
        <ele>254.899993896</ele>
        <time>2015-08-04T09:31:56.737Z</time>
      </trkpt>
      <trkpt lat="45.98256" lon="4.81532">
        <ele>254.600006104</ele>
        <time>2015-08-04T09:31:57.706Z</time>
      </trkpt>
      <trkpt lat="45.98259" lon="4.8154">
        <ele>254.699996948</ele>
        <time>2015-08-04T09:31:58.743Z</time>
      </trkpt>
      <trkpt lat="45.98261" lon="4.81547">
        <ele>254.699996948</ele>
        <time>2015-08-04T09:31:59.707Z</time>
      </trkpt>
      <trkpt lat="45.98263" lon="4.81555">
        <ele>254.5</ele>
        <time>2015-08-04T09:32:00.738Z</time>
      </trkpt>
      <trkpt lat="45.98266" lon="4.81562">
        <ele>254.300003052</ele>
        <time>2015-08-04T09:32:01.749Z</time>
      </trkpt>
      <trkpt lat="45.98267" lon="4.81569">
        <ele>254.5</ele>
        <time>2015-08-04T09:32:02.752Z</time>
      </trkpt>
      <trkpt lat="45.9827" lon="4.81576">
        <ele>254.399993896</ele>
        <time>2015-08-04T09:32:03.705Z</time>
      </trkpt>
      <trkpt lat="45.98272" lon="4.81583">
        <ele>254.5</ele>
        <time>2015-08-04T09:32:04.74Z</time>
      </trkpt>
      <trkpt lat="45.98274" lon="4.8159">
        <ele>254.600006104</ele>
        <time>2015-08-04T09:32:05.706Z</time>
      </trkpt>
      <trkpt lat="45.98277" lon="4.81597">
        <ele>255</ele>
        <time>2015-08-04T09:32:06.74Z</time>
      </trkpt>
      <trkpt lat="45.98279" lon="4.81604">
        <ele>254.899993896</ele>
        <time>2015-08-04T09:32:07.706Z</time>
      </trkpt>
      <trkpt lat="45.98283" lon="4.8161">
        <ele>254.199996948</ele>
        <time>2015-08-04T09:32:08.739Z</time>
      </trkpt>
      <trkpt lat="45.98286" lon="4.81617">
        <ele>252.800003052</ele>
        <time>2015-08-04T09:32:09.705Z</time>
      </trkpt>
      <trkpt lat="45.9829" lon="4.81623">
        <ele>252.600006104</ele>
        <time>2015-08-04T09:32:10.741Z</time>
      </trkpt>
      <trkpt lat="45.98294" lon="4.81629">
        <ele>252.300003052</ele>
        <time>2015-08-04T09:32:11.707Z</time>
      </trkpt>
      <trkpt lat="45.98298" lon="4.81634">
        <ele>251.399993896</ele>
        <time>2015-08-04T09:32:12.739Z</time>
      </trkpt>
      <trkpt lat="45.98303" lon="4.81639">
        <ele>250.899993896</ele>
        <time>2015-08-04T09:32:13.706Z</time>
      </trkpt>
      <trkpt lat="45.98308" lon="4.81644">
        <ele>250.800003052</ele>
        <time>2015-08-04T09:32:14.758Z</time>
      </trkpt>
      <trkpt lat="45.98313" lon="4.81649">
        <ele>250.899993896</ele>
        <time>2015-08-04T09:32:15.704Z</time>
      </trkpt>
      <trkpt lat="45.98318" lon="4.81653">
        <ele>251.600006104</ele>
        <time>2015-08-04T09:32:16.743Z</time>
      </trkpt>
      <trkpt lat="45.98323" lon="4.81658">
        <ele>251.699996948</ele>
        <time>2015-08-04T09:32:17.706Z</time>
      </trkpt>
      <trkpt lat="45.98328" lon="4.81663">
        <ele>251.899993896</ele>
        <time>2015-08-04T09:32:18.745Z</time>
      </trkpt>
      <trkpt lat="45.98334" lon="4.81666">
        <ele>252.300003052</ele>
        <time>2015-08-04T09:32:19.704Z</time>
      </trkpt>
      <trkpt lat="45.9834" lon="4.8167">
        <ele>251.899993896</ele>
        <time>2015-08-04T09:32:20.787Z</time>
      </trkpt>
      <trkpt lat="45.98345" lon="4.81672">
        <ele>251.699996948</ele>
        <time>2015-08-04T09:32:21.704Z</time>
      </trkpt>
      <trkpt lat="45.98351" lon="4.81674">
        <ele>250.699996948</ele>
        <time>2015-08-04T09:32:22.743Z</time>
      </trkpt>
      <trkpt lat="45.98356" lon="4.81675">
        <ele>251.5</ele>
        <time>2015-08-04T09:32:23.704Z</time>
      </trkpt>
      <trkpt lat="45.98362" lon="4.81676">
        <ele>251.300003052</ele>
        <time>2015-08-04T09:32:24.739Z</time>
      </trkpt>
      <trkpt lat="45.98367" lon="4.81676">
        <ele>251.300003052</ele>
        <time>2015-08-04T09:32:25.704Z</time>
      </trkpt>
      <trkpt lat="45.98375" lon="4.81675">
        <ele>252</ele>
        <time>2015-08-04T09:32:26.742Z</time>
      </trkpt>
      <trkpt lat="45.98381" lon="4.81674">
        <ele>252.199996948</ele>
        <time>2015-08-04T09:32:27.704Z</time>
      </trkpt>
      <trkpt lat="45.98387" lon="4.81674">
        <ele>252.100006104</ele>
        <time>2015-08-04T09:32:28.745Z</time>
      </trkpt>
      <trkpt lat="45.98393" lon="4.81673">
        <ele>252.100006104</ele>
        <time>2015-08-04T09:32:29.705Z</time>
      </trkpt>
      <trkpt lat="45.98398" lon="4.81672">
        <ele>252.399993896</ele>
        <time>2015-08-04T09:32:30.853Z</time>
      </trkpt>
      <trkpt lat="45.98404" lon="4.8167">
        <ele>252.300003052</ele>
        <time>2015-08-04T09:32:31.706Z</time>
      </trkpt>
      <trkpt lat="45.9841" lon="4.81669">
        <ele>252</ele>
        <time>2015-08-04T09:32:32.738Z</time>
      </trkpt>
      <trkpt lat="45.98416" lon="4.81668">
        <ele>252</ele>
        <time>2015-08-04T09:32:33.706Z</time>
      </trkpt>
      <trkpt lat="45.98422" lon="4.81668">
        <ele>251.899993896</ele>
        <time>2015-08-04T09:32:34.741Z</time>
      </trkpt>
      <trkpt lat="45.98428" lon="4.81669">
        <ele>252</ele>
        <time>2015-08-04T09:32:35.706Z</time>
      </trkpt>
      <trkpt lat="45.98433" lon="4.81671">
        <ele>252.100006104</ele>
        <time>2015-08-04T09:32:36.742Z</time>
      </trkpt>
      <trkpt lat="45.98439" lon="4.81673">
        <ele>252</ele>
        <time>2015-08-04T09:32:37.706Z</time>
      </trkpt>
      <trkpt lat="45.98444" lon="4.81678">
        <ele>251.699996948</ele>
        <time>2015-08-04T09:32:38.751Z</time>
      </trkpt>
      <trkpt lat="45.98448" lon="4.81684">
        <ele>251.5</ele>
        <time>2015-08-04T09:32:39.705Z</time>
      </trkpt>
      <trkpt lat="45.98452" lon="4.8169">
        <ele>251.300003052</ele>
        <time>2015-08-04T09:32:40.836Z</time>
      </trkpt>
      <trkpt lat="45.98455" lon="4.81697">
        <ele>251.100006104</ele>
        <time>2015-08-04T09:32:41.706Z</time>
      </trkpt>
      <trkpt lat="45.98458" lon="4.81704">
        <ele>251</ele>
        <time>2015-08-04T09:32:42.739Z</time>
      </trkpt>
      <trkpt lat="45.98462" lon="4.81711">
        <ele>251.100006104</ele>
        <time>2015-08-04T09:32:43.706Z</time>
      </trkpt>
      <trkpt lat="45.98466" lon="4.81718">
        <ele>250.600006104</ele>
        <time>2015-08-04T09:32:44.737Z</time>
      </trkpt>
      <trkpt lat="45.98472" lon="4.81725">
        <ele>249.899993896</ele>
        <time>2015-08-04T09:32:45.706Z</time>
      </trkpt>
      <trkpt lat="45.98477" lon="4.81731">
        <ele>249.699996948</ele>
        <time>2015-08-04T09:32:46.745Z</time>
      </trkpt>
      <trkpt lat="45.98484" lon="4.81737">
        <ele>248.399993896</ele>
        <time>2015-08-04T09:32:47.704Z</time>
      </trkpt>
      <trkpt lat="45.9849" lon="4.81743">
        <ele>248.199996948</ele>
        <time>2015-08-04T09:32:48.776Z</time>
      </trkpt>
      <trkpt lat="45.98497" lon="4.8175">
        <ele>248.100006104</ele>
        <time>2015-08-04T09:32:49.704Z</time>
      </trkpt>
      <trkpt lat="45.98503" lon="4.81757">
        <ele>247.899993896</ele>
        <time>2015-08-04T09:32:50.817Z</time>
      </trkpt>
      <trkpt lat="45.98509" lon="4.81766">
        <ele>247.699996948</ele>
        <time>2015-08-04T09:32:51.704Z</time>
      </trkpt>
      <trkpt lat="45.98515" lon="4.81774">
        <ele>247.300003052</ele>
        <time>2015-08-04T09:32:52.745Z</time>
      </trkpt>
      <trkpt lat="45.98522" lon="4.81782">
        <ele>246.699996948</ele>
        <time>2015-08-04T09:32:53.704Z</time>
      </trkpt>
      <trkpt lat="45.98528" lon="4.8179">
        <ele>246</ele>
        <time>2015-08-04T09:32:54.787Z</time>
      </trkpt>
      <trkpt lat="45.98534" lon="4.81798">
        <ele>245.899993896</ele>
        <time>2015-08-04T09:32:55.706Z</time>
      </trkpt>
      <trkpt lat="45.9854" lon="4.81805">
        <ele>245.600006104</ele>
        <time>2015-08-04T09:32:56.76Z</time>
      </trkpt>
      <trkpt lat="45.98547" lon="4.81809">
        <ele>246.199996948</ele>
        <time>2015-08-04T09:32:57.704Z</time>
      </trkpt>
      <trkpt lat="45.98554" lon="4.81811">
        <ele>246.399993896</ele>
        <time>2015-08-04T09:32:58.741Z</time>
      </trkpt>
      <trkpt lat="45.98561" lon="4.81809">
        <ele>246.100006104</ele>
        <time>2015-08-04T09:32:59.704Z</time>
      </trkpt>
      <trkpt lat="45.98566" lon="4.81803">
        <ele>246.100006104</ele>
        <time>2015-08-04T09:33:00.741Z</time>
      </trkpt>
      <trkpt lat="45.98571" lon="4.81796">
        <ele>245.800003052</ele>
        <time>2015-08-04T09:33:01.705Z</time>
      </trkpt>
      <trkpt lat="45.98576" lon="4.81789">
        <ele>245.800003052</ele>
        <time>2015-08-04T09:33:02.738Z</time>
      </trkpt>
      <trkpt lat="45.98581" lon="4.81783">
        <ele>245.699996948</ele>
        <time>2015-08-04T09:33:03.704Z</time>
      </trkpt>
      <trkpt lat="45.98585" lon="4.81777">
        <ele>245.699996948</ele>
        <time>2015-08-04T09:33:04.74Z</time>
      </trkpt>
      <trkpt lat="45.98591" lon="4.81773">
        <ele>245.899993896</ele>
        <time>2015-08-04T09:33:05.704Z</time>
      </trkpt>
      <trkpt lat="45.98597" lon="4.81769">
        <ele>245.800003052</ele>
        <time>2015-08-04T09:33:06.741Z</time>
      </trkpt>
      <trkpt lat="45.98603" lon="4.81767">
        <ele>245.800003052</ele>
        <time>2015-08-04T09:33:07.706Z</time>
      </trkpt>
      <trkpt lat="45.98609" lon="4.81764">
        <ele>245.800003052</ele>
        <time>2015-08-04T09:33:08.737Z</time>
      </trkpt>
      <trkpt lat="45.98616" lon="4.81763">
        <ele>245.699996948</ele>
        <time>2015-08-04T09:33:09.704Z</time>
      </trkpt>
      <trkpt lat="45.98621" lon="4.8176">
        <ele>245.699996948</ele>
        <time>2015-08-04T09:33:10.738Z</time>
      </trkpt>
      <trkpt lat="45.98627" lon="4.81759">
        <ele>245.800003052</ele>
        <time>2015-08-04T09:33:11.704Z</time>
      </trkpt>
      <trkpt lat="45.98633" lon="4.81757">
        <ele>246.300003052</ele>
        <time>2015-08-04T09:33:12.759Z</time>
      </trkpt>
      <trkpt lat="45.98639" lon="4.81755">
        <ele>246.199996948</ele>
        <time>2015-08-04T09:33:13.705Z</time>
      </trkpt>
      <trkpt lat="45.98645" lon="4.81752">
        <ele>246.300003052</ele>
        <time>2015-08-04T09:33:14.741Z</time>
      </trkpt>
      <trkpt lat="45.98651" lon="4.8175">
        <ele>246.300003052</ele>
        <time>2015-08-04T09:33:15.705Z</time>
      </trkpt>
      <trkpt lat="45.98656" lon="4.81748">
        <ele>246</ele>
        <time>2015-08-04T09:33:16.745Z</time>
      </trkpt>
      <trkpt lat="45.98662" lon="4.81747">
        <ele>246</ele>
        <time>2015-08-04T09:33:17.706Z</time>
      </trkpt>
      <trkpt lat="45.98668" lon="4.81745">
        <ele>245.600006104</ele>
        <time>2015-08-04T09:33:18.747Z</time>
      </trkpt>
      <trkpt lat="45.98675" lon="4.81743">
        <ele>245.5</ele>
        <time>2015-08-04T09:33:19.704Z</time>
      </trkpt>
      <trkpt lat="45.98681" lon="4.81741">
        <ele>245.300003052</ele>
        <time>2015-08-04T09:33:20.743Z</time>
      </trkpt>
      <trkpt lat="45.98686" lon="4.8174">
        <ele>244.800003052</ele>
        <time>2015-08-04T09:33:21.706Z</time>
      </trkpt>
      <trkpt lat="45.98692" lon="4.81739">
        <ele>244.699996948</ele>
        <time>2015-08-04T09:33:22.743Z</time>
      </trkpt>
      <trkpt lat="45.98697" lon="4.81737">
        <ele>244.600006104</ele>
        <time>2015-08-04T09:33:23.706Z</time>
      </trkpt>
      <trkpt lat="45.98702" lon="4.81737">
        <ele>244.600006104</ele>
        <time>2015-08-04T09:33:24.774Z</time>
      </trkpt>
      <trkpt lat="45.98708" lon="4.81735">
        <ele>244.800003052</ele>
        <time>2015-08-04T09:33:25.704Z</time>
      </trkpt>
      <trkpt lat="45.98714" lon="4.81735">
        <ele>245.199996948</ele>
        <time>2015-08-04T09:33:26.739Z</time>
      </trkpt>
      <trkpt lat="45.9872" lon="4.81735">
        <ele>245.199996948</ele>
        <time>2015-08-04T09:33:27.706Z</time>
      </trkpt>
      <trkpt lat="45.98726" lon="4.81736">
        <ele>245.300003052</ele>
        <time>2015-08-04T09:33:28.742Z</time>
      </trkpt>
      <trkpt lat="45.98732" lon="4.81739">
        <ele>246.100006104</ele>
        <time>2015-08-04T09:33:29.706Z</time>
      </trkpt>
      <trkpt lat="45.98735" lon="4.81744">
        <ele>246.100006104</ele>
        <time>2015-08-04T09:33:30.74Z</time>
      </trkpt>
      <trkpt lat="45.98739" lon="4.81751">
        <ele>246.300003052</ele>
        <time>2015-08-04T09:33:31.704Z</time>
      </trkpt>
      <trkpt lat="45.98743" lon="4.81757">
        <ele>246.600006104</ele>
        <time>2015-08-04T09:33:32.742Z</time>
      </trkpt>
      <trkpt lat="45.98746" lon="4.81764">
        <ele>246.899993896</ele>
        <time>2015-08-04T09:33:33.705Z</time>
      </trkpt>
      <trkpt lat="45.9875" lon="4.81771">
        <ele>247</ele>
        <time>2015-08-04T09:33:34.741Z</time>
      </trkpt>
      <trkpt lat="45.98754" lon="4.81777">
        <ele>247.199996948</ele>
        <time>2015-08-04T09:33:35.704Z</time>
      </trkpt>
      <trkpt lat="45.98757" lon="4.81785">
        <ele>247.199996948</ele>
        <time>2015-08-04T09:33:36.744Z</time>
      </trkpt>
      <trkpt lat="45.9876" lon="4.81792">
        <ele>247</ele>
        <time>2015-08-04T09:33:37.704Z</time>
      </trkpt>
      <trkpt lat="45.98763" lon="4.81799">
        <ele>246.600006104</ele>
        <time>2015-08-04T09:33:38.759Z</time>
      </trkpt>
      <trkpt lat="45.98766" lon="4.81806">
        <ele>246.5</ele>
        <time>2015-08-04T09:33:39.706Z</time>
      </trkpt>
      <trkpt lat="45.9877" lon="4.81811">
        <ele>245.199996948</ele>
        <time>2015-08-04T09:33:40.742Z</time>
      </trkpt>
      <trkpt lat="45.98773" lon="4.81818">
        <ele>244.399993896</ele>
        <time>2015-08-04T09:33:41.709Z</time>
      </trkpt>
      <trkpt lat="45.98777" lon="4.81825">
        <ele>244.300003052</ele>
        <time>2015-08-04T09:33:42.778Z</time>
      </trkpt>
      <trkpt lat="45.98781" lon="4.81833">
        <ele>243.800003052</ele>
        <time>2015-08-04T09:33:43.712Z</time>
      </trkpt>
      <trkpt lat="45.98784" lon="4.8184">
        <ele>243.899993896</ele>
        <time>2015-08-04T09:33:44.753Z</time>
      </trkpt>
      <trkpt lat="45.98788" lon="4.81848">
        <ele>244.100006104</ele>
        <time>2015-08-04T09:33:45.705Z</time>
      </trkpt>
      <trkpt lat="45.98791" lon="4.81856">
        <ele>244</ele>
        <time>2015-08-04T09:33:46.743Z</time>
      </trkpt>
      <trkpt lat="45.98795" lon="4.81864">
        <ele>243.899993896</ele>
        <time>2015-08-04T09:33:47.704Z</time>
      </trkpt>
      <trkpt lat="45.98798" lon="4.81872">
        <ele>243.699996948</ele>
        <time>2015-08-04T09:33:48.755Z</time>
      </trkpt>
      <trkpt lat="45.98801" lon="4.8188">
        <ele>243.699996948</ele>
        <time>2015-08-04T09:33:49.704Z</time>
      </trkpt>
      <trkpt lat="45.98804" lon="4.81889">
        <ele>243.5</ele>
        <time>2015-08-04T09:33:50.74Z</time>
      </trkpt>
      <trkpt lat="45.98807" lon="4.81898">
        <ele>243.399993896</ele>
        <time>2015-08-04T09:33:51.706Z</time>
      </trkpt>
      <trkpt lat="45.98809" lon="4.81908">
        <ele>243.300003052</ele>
        <time>2015-08-04T09:33:52.741Z</time>
      </trkpt>
      <trkpt lat="45.9881" lon="4.81917">
        <ele>243.300003052</ele>
        <time>2015-08-04T09:33:53.706Z</time>
      </trkpt>
      <trkpt lat="45.98811" lon="4.81927">
        <ele>243.399993896</ele>
        <time>2015-08-04T09:33:54.742Z</time>
      </trkpt>
      <trkpt lat="45.98813" lon="4.81936">
        <ele>243.300003052</ele>
        <time>2015-08-04T09:33:55.692Z</time>
      </trkpt>
      <trkpt lat="45.98814" lon="4.81946">
        <ele>243</ele>
        <time>2015-08-04T09:33:56.737Z</time>
      </trkpt>
      <trkpt lat="45.98816" lon="4.81956">
        <ele>242.699996948</ele>
        <time>2015-08-04T09:33:57.705Z</time>
      </trkpt>
      <trkpt lat="45.98818" lon="4.81965">
        <ele>242.5</ele>
        <time>2015-08-04T09:33:59.248Z</time>
      </trkpt>
      <trkpt lat="45.9882" lon="4.81975">
        <ele>242.399993896</ele>
        <time>2015-08-04T09:33:59.741Z</time>
      </trkpt>
      <trkpt lat="45.98821" lon="4.81983">
        <ele>242.300003052</ele>
        <time>2015-08-04T09:34:00.75Z</time>
      </trkpt>
      <trkpt lat="45.98822" lon="4.81991">
        <ele>242.100006104</ele>
        <time>2015-08-04T09:34:01.706Z</time>
      </trkpt>
      <trkpt lat="45.98824" lon="4.82">
        <ele>242.300003052</ele>
        <time>2015-08-04T09:34:02.737Z</time>
      </trkpt>
      <trkpt lat="45.98825" lon="4.82008">
        <ele>242.399993896</ele>
        <time>2015-08-04T09:34:03.704Z</time>
      </trkpt>
      <trkpt lat="45.98827" lon="4.82016">
        <ele>242.800003052</ele>
        <time>2015-08-04T09:34:04.743Z</time>
      </trkpt>
      <trkpt lat="45.98828" lon="4.82025">
        <ele>243.199996948</ele>
        <time>2015-08-04T09:34:05.704Z</time>
      </trkpt>
      <trkpt lat="45.98829" lon="4.82032">
        <ele>243.199996948</ele>
        <time>2015-08-04T09:34:06.754Z</time>
      </trkpt>
      <trkpt lat="45.9883" lon="4.82041">
        <ele>243.300003052</ele>
        <time>2015-08-04T09:34:07.704Z</time>
      </trkpt>
      <trkpt lat="45.98832" lon="4.82049">
        <ele>243.399993896</ele>
        <time>2015-08-04T09:34:08.822Z</time>
      </trkpt>
      <trkpt lat="45.98833" lon="4.82058">
        <ele>243.399993896</ele>
        <time>2015-08-04T09:34:09.726Z</time>
      </trkpt>
      <trkpt lat="45.98834" lon="4.82066">
        <ele>243.300003052</ele>
        <time>2015-08-04T09:34:10.743Z</time>
      </trkpt>
      <trkpt lat="45.98835" lon="4.82075">
        <ele>243.100006104</ele>
        <time>2015-08-04T09:34:11.706Z</time>
      </trkpt>
      <trkpt lat="45.98836" lon="4.82084">
        <ele>243</ele>
        <time>2015-08-04T09:34:12.739Z</time>
      </trkpt>
      <trkpt lat="45.98838" lon="4.82093">
        <ele>243</ele>
        <time>2015-08-04T09:34:13.706Z</time>
      </trkpt>
      <trkpt lat="45.9884" lon="4.82102">
        <ele>242.800003052</ele>
        <time>2015-08-04T09:34:14.74Z</time>
      </trkpt>
      <trkpt lat="45.98841" lon="4.82111">
        <ele>242.800003052</ele>
        <time>2015-08-04T09:34:15.704Z</time>
      </trkpt>
      <trkpt lat="45.98843" lon="4.8212">
        <ele>242.800003052</ele>
        <time>2015-08-04T09:34:16.744Z</time>
      </trkpt>
      <trkpt lat="45.98844" lon="4.82129">
        <ele>242.699996948</ele>
        <time>2015-08-04T09:34:17.705Z</time>
      </trkpt>
      <trkpt lat="45.98846" lon="4.82138">
        <ele>242.899993896</ele>
        <time>2015-08-04T09:34:18.737Z</time>
      </trkpt>
      <trkpt lat="45.98848" lon="4.82147">
        <ele>242.899993896</ele>
        <time>2015-08-04T09:34:19.704Z</time>
      </trkpt>
      <trkpt lat="45.9885" lon="4.82155">
        <ele>242.800003052</ele>
        <time>2015-08-04T09:34:20.741Z</time>
      </trkpt>
      <trkpt lat="45.98852" lon="4.82163">
        <ele>242.600006104</ele>
        <time>2015-08-04T09:34:21.706Z</time>
      </trkpt>
      <trkpt lat="45.98855" lon="4.82171">
        <ele>242.600006104</ele>
        <time>2015-08-04T09:34:22.741Z</time>
      </trkpt>
      <trkpt lat="45.98858" lon="4.82179">
        <ele>242.600006104</ele>
        <time>2015-08-04T09:34:23.704Z</time>
      </trkpt>
      <trkpt lat="45.98861" lon="4.82187">
        <ele>242.5</ele>
        <time>2015-08-04T09:34:24.741Z</time>
      </trkpt>
      <trkpt lat="45.98864" lon="4.82196">
        <ele>242.800003052</ele>
        <time>2015-08-04T09:34:25.704Z</time>
      </trkpt>
      <trkpt lat="45.98867" lon="4.82203">
        <ele>243.199996948</ele>
        <time>2015-08-04T09:34:26.74Z</time>
      </trkpt>
      <trkpt lat="45.9887" lon="4.82211">
        <ele>243</ele>
        <time>2015-08-04T09:34:27.705Z</time>
      </trkpt>
      <trkpt lat="45.98873" lon="4.82218">
        <ele>243</ele>
        <time>2015-08-04T09:34:28.738Z</time>
      </trkpt>
      <trkpt lat="45.98876" lon="4.82225">
        <ele>243</ele>
        <time>2015-08-04T09:34:29.705Z</time>
      </trkpt>
      <trkpt lat="45.98879" lon="4.82232">
        <ele>243.100006104</ele>
        <time>2015-08-04T09:34:30.754Z</time>
      </trkpt>
      <trkpt lat="45.98882" lon="4.82239">
        <ele>243.199996948</ele>
        <time>2015-08-04T09:34:31.706Z</time>
      </trkpt>
      <trkpt lat="45.98885" lon="4.82245">
        <ele>243.100006104</ele>
        <time>2015-08-04T09:34:32.736Z</time>
      </trkpt>
      <trkpt lat="45.98888" lon="4.82252">
        <ele>243.5</ele>
        <time>2015-08-04T09:34:33.704Z</time>
      </trkpt>
      <trkpt lat="45.98892" lon="4.82259">
        <ele>243.199996948</ele>
        <time>2015-08-04T09:34:34.74Z</time>
      </trkpt>
      <trkpt lat="45.98896" lon="4.82266">
        <ele>243.199996948</ele>
        <time>2015-08-04T09:34:35.706Z</time>
      </trkpt>
      <trkpt lat="45.989" lon="4.82272">
        <ele>243.300003052</ele>
        <time>2015-08-04T09:34:36.748Z</time>
      </trkpt>
      <trkpt lat="45.98904" lon="4.82278">
        <ele>243.300003052</ele>
        <time>2015-08-04T09:34:37.704Z</time>
      </trkpt>
      <trkpt lat="45.98908" lon="4.82284">
        <ele>243.5</ele>
        <time>2015-08-04T09:34:38.748Z</time>
      </trkpt>
      <trkpt lat="45.98913" lon="4.82289">
        <ele>243.800003052</ele>
        <time>2015-08-04T09:34:39.704Z</time>
      </trkpt>
      <trkpt lat="45.98918" lon="4.82295">
        <ele>243.5</ele>
        <time>2015-08-04T09:34:40.739Z</time>
      </trkpt>
      <trkpt lat="45.98923" lon="4.823">
        <ele>243.5</ele>
        <time>2015-08-04T09:34:41.704Z</time>
      </trkpt>
      <trkpt lat="45.98928" lon="4.82306">
        <ele>243.800003052</ele>
        <time>2015-08-04T09:34:42.738Z</time>
      </trkpt>
      <trkpt lat="45.98932" lon="4.82312">
        <ele>243.800003052</ele>
        <time>2015-08-04T09:34:43.704Z</time>
      </trkpt>
      <trkpt lat="45.98937" lon="4.82317">
        <ele>243.600006104</ele>
        <time>2015-08-04T09:34:44.738Z</time>
      </trkpt>
      <trkpt lat="45.98942" lon="4.82324">
        <ele>243.5</ele>
        <time>2015-08-04T09:34:45.705Z</time>
      </trkpt>
      <trkpt lat="45.98946" lon="4.8233">
        <ele>242.699996948</ele>
        <time>2015-08-04T09:34:46.741Z</time>
      </trkpt>
      <trkpt lat="45.9895" lon="4.82336">
        <ele>242.899993896</ele>
        <time>2015-08-04T09:34:47.705Z</time>
      </trkpt>
      <trkpt lat="45.98954" lon="4.82342">
        <ele>243.100006104</ele>
        <time>2015-08-04T09:34:48.736Z</time>
      </trkpt>
      <trkpt lat="45.98957" lon="4.82349">
        <ele>243.399993896</ele>
        <time>2015-08-04T09:34:49.705Z</time>
      </trkpt>
      <trkpt lat="45.9896" lon="4.82357">
        <ele>243.800003052</ele>
        <time>2015-08-04T09:34:50.735Z</time>
      </trkpt>
      <trkpt lat="45.98963" lon="4.82364">
        <ele>244.5</ele>
        <time>2015-08-04T09:34:51.705Z</time>
      </trkpt>
      <trkpt lat="45.98965" lon="4.82372">
        <ele>244.800003052</ele>
        <time>2015-08-04T09:34:52.738Z</time>
      </trkpt>
      <trkpt lat="45.98968" lon="4.8238">
        <ele>244.899993896</ele>
        <time>2015-08-04T09:34:53.705Z</time>
      </trkpt>
      <trkpt lat="45.9897" lon="4.82388">
        <ele>244.800003052</ele>
        <time>2015-08-04T09:34:54.739Z</time>
      </trkpt>
      <trkpt lat="45.98971" lon="4.82397">
        <ele>244.399993896</ele>
        <time>2015-08-04T09:34:55.705Z</time>
      </trkpt>
      <trkpt lat="45.98973" lon="4.82405">
        <ele>244.199996948</ele>
        <time>2015-08-04T09:34:56.753Z</time>
      </trkpt>
      <trkpt lat="45.98975" lon="4.82414">
        <ele>244.5</ele>
        <time>2015-08-04T09:34:57.705Z</time>
      </trkpt>
      <trkpt lat="45.98977" lon="4.82422">
        <ele>244.300003052</ele>
        <time>2015-08-04T09:34:58.737Z</time>
      </trkpt>
      <trkpt lat="45.98979" lon="4.82431">
        <ele>244.199996948</ele>
        <time>2015-08-04T09:34:59.705Z</time>
      </trkpt>
      <trkpt lat="45.98982" lon="4.82438">
        <ele>243.800003052</ele>
        <time>2015-08-04T09:35:00.908Z</time>
      </trkpt>
      <trkpt lat="45.98984" lon="4.82446">
        <ele>243.600006104</ele>
        <time>2015-08-04T09:35:01.705Z</time>
      </trkpt>
      <trkpt lat="45.98986" lon="4.82454">
        <ele>243.899993896</ele>
        <time>2015-08-04T09:35:02.742Z</time>
      </trkpt>
      <trkpt lat="45.98988" lon="4.82462">
        <ele>243.5</ele>
        <time>2015-08-04T09:35:03.708Z</time>
      </trkpt>
      <trkpt lat="45.98991" lon="4.82469">
        <ele>243.5</ele>
        <time>2015-08-04T09:35:04.746Z</time>
      </trkpt>
      <trkpt lat="45.98993" lon="4.82477">
        <ele>243.5</ele>
        <time>2015-08-04T09:35:05.707Z</time>
      </trkpt>
      <trkpt lat="45.98995" lon="4.82484">
        <ele>243.899993896</ele>
        <time>2015-08-04T09:35:06.739Z</time>
      </trkpt>
      <trkpt lat="45.98998" lon="4.82491">
        <ele>244</ele>
        <time>2015-08-04T09:35:07.749Z</time>
      </trkpt>
      <trkpt lat="45.99001" lon="4.82499">
        <ele>243.899993896</ele>
        <time>2015-08-04T09:35:08.738Z</time>
      </trkpt>
      <trkpt lat="45.99004" lon="4.82506">
        <ele>243.800003052</ele>
        <time>2015-08-04T09:35:09.705Z</time>
      </trkpt>
      <trkpt lat="45.99008" lon="4.82513">
        <ele>243.800003052</ele>
        <time>2015-08-04T09:35:10.741Z</time>
      </trkpt>
      <trkpt lat="45.99011" lon="4.8252">
        <ele>243.800003052</ele>
        <time>2015-08-04T09:35:11.703Z</time>
      </trkpt>
      <trkpt lat="45.99016" lon="4.82528">
        <ele>243.800003052</ele>
        <time>2015-08-04T09:35:12.763Z</time>
      </trkpt>
      <trkpt lat="45.9902" lon="4.82534">
        <ele>243.800003052</ele>
        <time>2015-08-04T09:35:13.705Z</time>
      </trkpt>
      <trkpt lat="45.99025" lon="4.8254">
        <ele>244</ele>
        <time>2015-08-04T09:35:14.742Z</time>
      </trkpt>
      <trkpt lat="45.99029" lon="4.82546">
        <ele>243.899993896</ele>
        <time>2015-08-04T09:35:15.705Z</time>
      </trkpt>
      <trkpt lat="45.99034" lon="4.82551">
        <ele>244.300003052</ele>
        <time>2015-08-04T09:35:16.743Z</time>
      </trkpt>
      <trkpt lat="45.99039" lon="4.82555">
        <ele>244</ele>
        <time>2015-08-04T09:35:17.741Z</time>
      </trkpt>
      <trkpt lat="45.99045" lon="4.8256">
        <ele>243.800003052</ele>
        <time>2015-08-04T09:35:18.736Z</time>
      </trkpt>
      <trkpt lat="45.9905" lon="4.82563">
        <ele>243.899993896</ele>
        <time>2015-08-04T09:35:19.703Z</time>
      </trkpt>
      <trkpt lat="45.99055" lon="4.82566">
        <ele>243.699996948</ele>
        <time>2015-08-04T09:35:20.736Z</time>
      </trkpt>
      <trkpt lat="45.99061" lon="4.82569">
        <ele>243.699996948</ele>
        <time>2015-08-04T09:35:21.705Z</time>
      </trkpt>
      <trkpt lat="45.99066" lon="4.82571">
        <ele>243.699996948</ele>
        <time>2015-08-04T09:35:22.742Z</time>
      </trkpt>
      <trkpt lat="45.9907" lon="4.82574">
        <ele>243.600006104</ele>
        <time>2015-08-04T09:35:23.704Z</time>
      </trkpt>
      <trkpt lat="45.99077" lon="4.8258">
        <ele>243.300003052</ele>
        <time>2015-08-04T09:35:25.737Z</time>
      </trkpt>
      <trkpt lat="45.9908" lon="4.82583">
        <ele>243.399993896</ele>
        <time>2015-08-04T09:35:26.705Z</time>
      </trkpt>
      <trkpt lat="45.99078" lon="4.82593">
        <ele>243.699996948</ele>
        <time>2015-08-04T09:35:29.738Z</time>
      </trkpt>
      <trkpt lat="45.99076" lon="4.82596">
        <ele>244</ele>
        <time>2015-08-04T09:35:30.707Z</time>
      </trkpt>
      <trkpt lat="45.99071" lon="4.82604">
        <ele>244.199996948</ele>
        <time>2015-08-04T09:35:32.74Z</time>
      </trkpt>
      <trkpt lat="45.99069" lon="4.82608">
        <ele>244.100006104</ele>
        <time>2015-08-04T09:35:33.705Z</time>
      </trkpt>
      <trkpt lat="45.99066" lon="4.82617">
        <ele>245</ele>
        <time>2015-08-04T09:35:35.735Z</time>
      </trkpt>
      <trkpt lat="45.99064" lon="4.82621">
        <ele>245.300003052</ele>
        <time>2015-08-04T09:35:36.706Z</time>
      </trkpt>
      <trkpt lat="45.9906" lon="4.82629">
        <ele>245.600006104</ele>
        <time>2015-08-04T09:35:38.738Z</time>
      </trkpt>
      <trkpt lat="45.99057" lon="4.82633">
        <ele>245.800003052</ele>
        <time>2015-08-04T09:35:39.704Z</time>
      </trkpt>
      <trkpt lat="45.99052" lon="4.82642">
        <ele>246.199996948</ele>
        <time>2015-08-04T09:35:41.736Z</time>
      </trkpt>
      <trkpt lat="45.9905" lon="4.82646">
        <ele>246.399993896</ele>
        <time>2015-08-04T09:35:42.705Z</time>
      </trkpt>
      <trkpt lat="45.99045" lon="4.82655">
        <ele>246.699996948</ele>
        <time>2015-08-04T09:35:44.754Z</time>
      </trkpt>
      <trkpt lat="45.99043" lon="4.82659">
        <ele>246.699996948</ele>
        <time>2015-08-04T09:35:45.705Z</time>
      </trkpt>
      <trkpt lat="45.9904" lon="4.82667">
        <ele>247.100006104</ele>
        <time>2015-08-04T09:35:47.74Z</time>
      </trkpt>
      <trkpt lat="45.99038" lon="4.82672">
        <ele>247.699996948</ele>
        <time>2015-08-04T09:35:48.745Z</time>
      </trkpt>
      <trkpt lat="45.99035" lon="4.82681">
        <ele>248</ele>
        <time>2015-08-04T09:35:50.755Z</time>
      </trkpt>
      <trkpt lat="45.99033" lon="4.82686">
        <ele>248.300003052</ele>
        <time>2015-08-04T09:35:51.716Z</time>
      </trkpt>
      <trkpt lat="45.99029" lon="4.82694">
        <ele>248.300003052</ele>
        <time>2015-08-04T09:35:53.74Z</time>
      </trkpt>
      <trkpt lat="45.99027" lon="4.82698">
        <ele>248.5</ele>
        <time>2015-08-04T09:35:54.706Z</time>
      </trkpt>
      <trkpt lat="45.99024" lon="4.82707">
        <ele>248.800003052</ele>
        <time>2015-08-04T09:35:56.737Z</time>
      </trkpt>
      <trkpt lat="45.99022" lon="4.82711">
        <ele>249.100006104</ele>
        <time>2015-08-04T09:35:57.705Z</time>
      </trkpt>
      <trkpt lat="45.99019" lon="4.82719">
        <ele>249.600006104</ele>
        <time>2015-08-04T09:35:59.8Z</time>
      </trkpt>
      <trkpt lat="45.99017" lon="4.82723">
        <ele>250</ele>
        <time>2015-08-04T09:36:00.708Z</time>
      </trkpt>
      <trkpt lat="45.99013" lon="4.82731">
        <ele>250.800003052</ele>
        <time>2015-08-04T09:36:02.742Z</time>
      </trkpt>
      <trkpt lat="45.99011" lon="4.82734">
        <ele>251.199996948</ele>
        <time>2015-08-04T09:36:03.691Z</time>
      </trkpt>
      <trkpt lat="45.99007" lon="4.82745">
        <ele>252.600006104</ele>
        <time>2015-08-04T09:36:06.869Z</time>
      </trkpt>
      <trkpt lat="45.99006" lon="4.82749">
        <ele>253.100006104</ele>
        <time>2015-08-04T09:36:07.712Z</time>
      </trkpt>
      <trkpt lat="45.99002" lon="4.82756">
        <ele>253.899993896</ele>
        <time>2015-08-04T09:36:09.738Z</time>
      </trkpt>
      <trkpt lat="45.99001" lon="4.8276">
        <ele>254.300003052</ele>
        <time>2015-08-04T09:36:10.744Z</time>
      </trkpt>
      <trkpt lat="45.98996" lon="4.82767">
        <ele>255.199996948</ele>
        <time>2015-08-04T09:36:12.738Z</time>
      </trkpt>
      <trkpt lat="45.98995" lon="4.82771">
        <ele>255.600006104</ele>
        <time>2015-08-04T09:36:13.705Z</time>
      </trkpt>
      <trkpt lat="45.98992" lon="4.82781">
        <ele>257.299987793</ele>
        <time>2015-08-04T09:36:16.738Z</time>
      </trkpt>
      <trkpt lat="45.98991" lon="4.82784">
        <ele>257</ele>
        <time>2015-08-04T09:36:17.705Z</time>
      </trkpt>
      <trkpt lat="45.98986" lon="4.82793">
        <ele>257.5</ele>
        <time>2015-08-04T09:36:20.739Z</time>
      </trkpt>
      <trkpt lat="45.98984" lon="4.82796">
        <ele>257.799987793</ele>
        <time>2015-08-04T09:36:21.705Z</time>
      </trkpt>
      <trkpt lat="45.9898" lon="4.82806">
        <ele>258.299987793</ele>
        <time>2015-08-04T09:36:24.769Z</time>
      </trkpt>
      <trkpt lat="45.98979" lon="4.82809">
        <ele>258.200012207</ele>
        <time>2015-08-04T09:36:25.736Z</time>
      </trkpt>
      <trkpt lat="45.98976" lon="4.82819">
        <ele>258.200012207</ele>
        <time>2015-08-04T09:36:28.737Z</time>
      </trkpt>
      <trkpt lat="45.98975" lon="4.82822">
        <ele>258.399993896</ele>
        <time>2015-08-04T09:36:29.705Z</time>
      </trkpt>
      <trkpt lat="45.9897" lon="4.82832">
        <ele>259.100006104</ele>
        <time>2015-08-04T09:36:33.739Z</time>
      </trkpt>
      <trkpt lat="45.98968" lon="4.82835">
        <ele>259.399993896</ele>
        <time>2015-08-04T09:36:34.719Z</time>
      </trkpt>
      <trkpt lat="45.98965" lon="4.82844">
        <ele>261.299987793</ele>
        <time>2015-08-04T09:36:37.736Z</time>
      </trkpt>
      <trkpt lat="45.98964" lon="4.82847">
        <ele>261.700012207</ele>
        <time>2015-08-04T09:36:38.712Z</time>
      </trkpt>
      <trkpt lat="45.98959" lon="4.82857">
        <ele>263</ele>
        <time>2015-08-04T09:36:41.737Z</time>
      </trkpt>
      <trkpt lat="45.98957" lon="4.8286">
        <ele>263.299987793</ele>
        <time>2015-08-04T09:36:42.704Z</time>
      </trkpt>
      <trkpt lat="45.98953" lon="4.82869">
        <ele>264.100006104</ele>
        <time>2015-08-04T09:36:45.742Z</time>
      </trkpt>
      <trkpt lat="45.98952" lon="4.82873">
        <ele>264.299987793</ele>
        <time>2015-08-04T09:36:46.709Z</time>
      </trkpt>
      <trkpt lat="45.98948" lon="4.82883">
        <ele>264</ele>
        <time>2015-08-04T09:36:49.739Z</time>
      </trkpt>
      <trkpt lat="45.98947" lon="4.82886">
        <ele>264.100006104</ele>
        <time>2015-08-04T09:36:50.705Z</time>
      </trkpt>
      <trkpt lat="45.98942" lon="4.82896">
        <ele>264.799987793</ele>
        <time>2015-08-04T09:36:53.826Z</time>
      </trkpt>
      <trkpt lat="45.98941" lon="4.82899">
        <ele>264.799987793</ele>
        <time>2015-08-04T09:36:54.705Z</time>
      </trkpt>
      <trkpt lat="45.98937" lon="4.82908">
        <ele>265.200012207</ele>
        <time>2015-08-04T09:36:57.74Z</time>
      </trkpt>
      <trkpt lat="45.98935" lon="4.82911">
        <ele>265</ele>
        <time>2015-08-04T09:36:58.706Z</time>
      </trkpt>
      <trkpt lat="45.98931" lon="4.8292">
        <ele>265.299987793</ele>
        <time>2015-08-04T09:37:01.739Z</time>
      </trkpt>
      <trkpt lat="45.9893" lon="4.82923">
        <ele>265.399993896</ele>
        <time>2015-08-04T09:37:02.738Z</time>
      </trkpt>
      <trkpt lat="45.98926" lon="4.82932">
        <ele>265.5</ele>
        <time>2015-08-04T09:37:05.737Z</time>
      </trkpt>
      <trkpt lat="45.98924" lon="4.82935">
        <ele>265.5</ele>
        <time>2015-08-04T09:37:06.705Z</time>
      </trkpt>
      <trkpt lat="45.98921" lon="4.82944">
        <ele>265.600006104</ele>
        <time>2015-08-04T09:37:09.749Z</time>
      </trkpt>
      <trkpt lat="45.98919" lon="4.82947">
        <ele>265.899993896</ele>
        <time>2015-08-04T09:37:10.706Z</time>
      </trkpt>
      <trkpt lat="45.98915" lon="4.82955">
        <ele>266.200012207</ele>
        <time>2015-08-04T09:37:13.736Z</time>
      </trkpt>
      <trkpt lat="45.98914" lon="4.82958">
        <ele>266.299987793</ele>
        <time>2015-08-04T09:37:14.727Z</time>
      </trkpt>
      <trkpt lat="45.98908" lon="4.82965">
        <ele>266.399993896</ele>
        <time>2015-08-04T09:37:17.736Z</time>
      </trkpt>
      <trkpt lat="45.98906" lon="4.82968">
        <ele>266</ele>
        <time>2015-08-04T09:37:18.726Z</time>
      </trkpt>
      <trkpt lat="45.98899" lon="4.82976">
        <ele>265.799987793</ele>
        <time>2015-08-04T09:37:21.837Z</time>
      </trkpt>
      <trkpt lat="45.98897" lon="4.82977">
        <ele>265.899993896</ele>
        <time>2015-08-04T09:37:22.728Z</time>
      </trkpt>
      <trkpt lat="45.9889" lon="4.82982">
        <ele>266.100006104</ele>
        <time>2015-08-04T09:37:25.737Z</time>
      </trkpt>
      <trkpt lat="45.98888" lon="4.82983">
        <ele>266</ele>
        <time>2015-08-04T09:37:26.705Z</time>
      </trkpt>
      <trkpt lat="45.98881" lon="4.82989">
        <ele>266.399993896</ele>
        <time>2015-08-04T09:37:29.737Z</time>
      </trkpt>
      <trkpt lat="45.98879" lon="4.82991">
        <ele>266.200012207</ele>
        <time>2015-08-04T09:37:30.725Z</time>
      </trkpt>
      <trkpt lat="45.9887" lon="4.82996">
        <ele>265.799987793</ele>
        <time>2015-08-04T09:37:33.736Z</time>
      </trkpt>
      <trkpt lat="45.98868" lon="4.82998">
        <ele>265.5</ele>
        <time>2015-08-04T09:37:34.706Z</time>
      </trkpt>
      <trkpt lat="45.98861" lon="4.83002">
        <ele>265.299987793</ele>
        <time>2015-08-04T09:37:37.743Z</time>
      </trkpt>
      <trkpt lat="45.98859" lon="4.83003">
        <ele>265.299987793</ele>
        <time>2015-08-04T09:37:38.704Z</time>
      </trkpt>
      <trkpt lat="45.98852" lon="4.83008">
        <ele>265.700012207</ele>
        <time>2015-08-04T09:37:41.736Z</time>
      </trkpt>
      <trkpt lat="45.98849" lon="4.8301">
        <ele>265.600006104</ele>
        <time>2015-08-04T09:37:42.705Z</time>
      </trkpt>
      <trkpt lat="45.98842" lon="4.83015">
        <ele>266.299987793</ele>
        <time>2015-08-04T09:37:45.779Z</time>
      </trkpt>
      <trkpt lat="45.98839" lon="4.83016">
        <ele>266.600006104</ele>
        <time>2015-08-04T09:37:46.708Z</time>
      </trkpt>
      <trkpt lat="45.98832" lon="4.8302">
        <ele>267.399993896</ele>
        <time>2015-08-04T09:37:49.786Z</time>
      </trkpt>
      <trkpt lat="45.9883" lon="4.83022">
        <ele>267.799987793</ele>
        <time>2015-08-04T09:37:50.704Z</time>
      </trkpt>
      <trkpt lat="45.98822" lon="4.83027">
        <ele>269.799987793</ele>
        <time>2015-08-04T09:37:53.74Z</time>
      </trkpt>
      <trkpt lat="45.9882" lon="4.83029">
        <ele>270.100006104</ele>
        <time>2015-08-04T09:37:54.713Z</time>
      </trkpt>
      <trkpt lat="45.98812" lon="4.83036">
        <ele>271.5</ele>
        <time>2015-08-04T09:37:57.742Z</time>
      </trkpt>
      <trkpt lat="45.9881" lon="4.83037">
        <ele>271.700012207</ele>
        <time>2015-08-04T09:37:58.706Z</time>
      </trkpt>
      <trkpt lat="45.98802" lon="4.83043">
        <ele>272.899993896</ele>
        <time>2015-08-04T09:38:01.774Z</time>
      </trkpt>
      <trkpt lat="45.988" lon="4.83045">
        <ele>273.399993896</ele>
        <time>2015-08-04T09:38:02.705Z</time>
      </trkpt>
      <trkpt lat="45.98794" lon="4.83053">
        <ele>273.5</ele>
        <time>2015-08-04T09:38:05.786Z</time>
      </trkpt>
      <trkpt lat="45.98791" lon="4.83055">
        <ele>274.200012207</ele>
        <time>2015-08-04T09:38:06.706Z</time>
      </trkpt>
      <trkpt lat="45.98785" lon="4.8306">
        <ele>274.799987793</ele>
        <time>2015-08-04T09:38:08.734Z</time>
      </trkpt>
      <trkpt lat="45.98782" lon="4.83062">
        <ele>275.200012207</ele>
        <time>2015-08-04T09:38:09.706Z</time>
      </trkpt>
      <trkpt lat="45.98776" lon="4.83067">
        <ele>275</ele>
        <time>2015-08-04T09:38:11.736Z</time>
      </trkpt>
      <trkpt lat="45.98773" lon="4.83068">
        <ele>275</ele>
        <time>2015-08-04T09:38:12.706Z</time>
      </trkpt>
      <trkpt lat="45.98767" lon="4.83074">
        <ele>275.200012207</ele>
        <time>2015-08-04T09:38:14.738Z</time>
      </trkpt>
      <trkpt lat="45.98764" lon="4.83077">
        <ele>274.799987793</ele>
        <time>2015-08-04T09:38:15.705Z</time>
      </trkpt>
      <trkpt lat="45.98758" lon="4.83083">
        <ele>275.5</ele>
        <time>2015-08-04T09:38:17.736Z</time>
      </trkpt>
      <trkpt lat="45.98755" lon="4.83086">
        <ele>275.5</ele>
        <time>2015-08-04T09:38:18.706Z</time>
      </trkpt>
      <trkpt lat="45.98748" lon="4.83092">
        <ele>275.600006104</ele>
        <time>2015-08-04T09:38:20.741Z</time>
      </trkpt>
      <trkpt lat="45.98744" lon="4.83096">
        <ele>275.600006104</ele>
        <time>2015-08-04T09:38:21.727Z</time>
      </trkpt>
      <trkpt lat="45.98738" lon="4.83102">
        <ele>275.899993896</ele>
        <time>2015-08-04T09:38:23.737Z</time>
      </trkpt>
      <trkpt lat="45.98734" lon="4.83105">
        <ele>275.799987793</ele>
        <time>2015-08-04T09:38:24.706Z</time>
      </trkpt>
      <trkpt lat="45.98727" lon="4.83111">
        <ele>275.600006104</ele>
        <time>2015-08-04T09:38:26.772Z</time>
      </trkpt>
      <trkpt lat="45.98724" lon="4.83114">
        <ele>275.600006104</ele>
        <time>2015-08-04T09:38:27.705Z</time>
      </trkpt>
      <trkpt lat="45.98718" lon="4.8312">
        <ele>275.399993896</ele>
        <time>2015-08-04T09:38:29.763Z</time>
      </trkpt>
      <trkpt lat="45.98714" lon="4.83123">
        <ele>275.600006104</ele>
        <time>2015-08-04T09:38:30.707Z</time>
      </trkpt>
      <trkpt lat="45.98708" lon="4.83128">
        <ele>275.399993896</ele>
        <time>2015-08-04T09:38:32.736Z</time>
      </trkpt>
      <trkpt lat="45.98704" lon="4.83131">
        <ele>275.200012207</ele>
        <time>2015-08-04T09:38:33.706Z</time>
      </trkpt>
      <trkpt lat="45.98697" lon="4.83136">
        <ele>274.899993896</ele>
        <time>2015-08-04T09:38:35.735Z</time>
      </trkpt>
      <trkpt lat="45.98694" lon="4.83138">
        <ele>275</ele>
        <time>2015-08-04T09:38:36.706Z</time>
      </trkpt>
      <trkpt lat="45.98687" lon="4.83143">
        <ele>275.299987793</ele>
        <time>2015-08-04T09:38:38.736Z</time>
      </trkpt>
      <trkpt lat="45.98684" lon="4.83146">
        <ele>275.5</ele>
        <time>2015-08-04T09:38:39.706Z</time>
      </trkpt>
      <trkpt lat="45.98676" lon="4.83151">
        <ele>275.600006104</ele>
        <time>2015-08-04T09:38:41.736Z</time>
      </trkpt>
      <trkpt lat="45.98672" lon="4.83154">
        <ele>275.899993896</ele>
        <time>2015-08-04T09:38:42.704Z</time>
      </trkpt>
      <trkpt lat="45.98668" lon="4.83156">
        <ele>275.899993896</ele>
        <time>2015-08-04T09:38:43.745Z</time>
      </trkpt>
      <trkpt lat="45.98663" lon="4.8316">
        <ele>275.899993896</ele>
        <time>2015-08-04T09:38:44.704Z</time>
      </trkpt>
      <trkpt lat="45.98655" lon="4.83165">
        <ele>276</ele>
        <time>2015-08-04T09:38:46.746Z</time>
      </trkpt>
      <trkpt lat="45.98652" lon="4.83169">
        <ele>276.399993896</ele>
        <time>2015-08-04T09:38:47.704Z</time>
      </trkpt>
      <trkpt lat="45.98648" lon="4.83173">
        <ele>276.700012207</ele>
        <time>2015-08-04T09:38:48.805Z</time>
      </trkpt>
      <trkpt lat="45.98644" lon="4.83177">
        <ele>277.399993896</ele>
        <time>2015-08-04T09:38:49.705Z</time>
      </trkpt>
      <trkpt lat="45.98641" lon="4.83181">
        <ele>277.5</ele>
        <time>2015-08-04T09:38:50.736Z</time>
      </trkpt>
      <trkpt lat="45.98637" lon="4.83185">
        <ele>277.899993896</ele>
        <time>2015-08-04T09:38:51.705Z</time>
      </trkpt>
      <trkpt lat="45.98633" lon="4.83189">
        <ele>278.299987793</ele>
        <time>2015-08-04T09:38:52.758Z</time>
      </trkpt>
      <trkpt lat="45.9863" lon="4.83193">
        <ele>278.5</ele>
        <time>2015-08-04T09:38:53.705Z</time>
      </trkpt>
      <trkpt lat="45.98623" lon="4.83201">
        <ele>278.700012207</ele>
        <time>2015-08-04T09:38:55.746Z</time>
      </trkpt>
      <trkpt lat="45.9862" lon="4.83205">
        <ele>279</ele>
        <time>2015-08-04T09:38:56.705Z</time>
      </trkpt>
      <trkpt lat="45.98617" lon="4.8321">
        <ele>279</ele>
        <time>2015-08-04T09:38:57.735Z</time>
      </trkpt>
      <trkpt lat="45.98613" lon="4.83214">
        <ele>279.299987793</ele>
        <time>2015-08-04T09:38:58.708Z</time>
      </trkpt>
      <trkpt lat="45.98609" lon="4.83219">
        <ele>279.100006104</ele>
        <time>2015-08-04T09:38:59.735Z</time>
      </trkpt>
      <trkpt lat="45.98606" lon="4.83224">
        <ele>279.200012207</ele>
        <time>2015-08-04T09:39:00.707Z</time>
      </trkpt>
      <trkpt lat="45.98603" lon="4.83229">
        <ele>279.200012207</ele>
        <time>2015-08-04T09:39:01.738Z</time>
      </trkpt>
      <trkpt lat="45.98599" lon="4.83233">
        <ele>279.299987793</ele>
        <time>2015-08-04T09:39:02.706Z</time>
      </trkpt>
      <trkpt lat="45.98593" lon="4.83242">
        <ele>279.5</ele>
        <time>2015-08-04T09:39:04.737Z</time>
      </trkpt>
      <trkpt lat="45.9859" lon="4.83247">
        <ele>279.600006104</ele>
        <time>2015-08-04T09:39:05.706Z</time>
      </trkpt>
      <trkpt lat="45.98586" lon="4.83251">
        <ele>279.799987793</ele>
        <time>2015-08-04T09:39:06.744Z</time>
      </trkpt>
      <trkpt lat="45.98583" lon="4.83256">
        <ele>279.799987793</ele>
        <time>2015-08-04T09:39:07.704Z</time>
      </trkpt>
      <trkpt lat="45.9858" lon="4.83261">
        <ele>279.700012207</ele>
        <time>2015-08-04T09:39:08.735Z</time>
      </trkpt>
      <trkpt lat="45.98576" lon="4.83265">
        <ele>279.600006104</ele>
        <time>2015-08-04T09:39:09.706Z</time>
      </trkpt>
      <trkpt lat="45.98573" lon="4.8327">
        <ele>279.600006104</ele>
        <time>2015-08-04T09:39:10.737Z</time>
      </trkpt>
      <trkpt lat="45.98569" lon="4.83275">
        <ele>279.600006104</ele>
        <time>2015-08-04T09:39:11.706Z</time>
      </trkpt>
      <trkpt lat="45.98565" lon="4.83279">
        <ele>279.600006104</ele>
        <time>2015-08-04T09:39:12.762Z</time>
      </trkpt>
      <trkpt lat="45.98562" lon="4.83284">
        <ele>279.600006104</ele>
        <time>2015-08-04T09:39:13.692Z</time>
      </trkpt>
      <trkpt lat="45.98559" lon="4.83288">
        <ele>279.600006104</ele>
        <time>2015-08-04T09:39:14.734Z</time>
      </trkpt>
      <trkpt lat="45.98555" lon="4.83293">
        <ele>279.5</ele>
        <time>2015-08-04T09:39:15.704Z</time>
      </trkpt>
      <trkpt lat="45.98552" lon="4.83298">
        <ele>279.5</ele>
        <time>2015-08-04T09:39:16.745Z</time>
      </trkpt>
      <trkpt lat="45.98548" lon="4.83302">
        <ele>279.200012207</ele>
        <time>2015-08-04T09:39:17.703Z</time>
      </trkpt>
      <trkpt lat="45.98546" lon="4.83306">
        <ele>279.399993896</ele>
        <time>2015-08-04T09:39:18.767Z</time>
      </trkpt>
      <trkpt lat="45.98542" lon="4.83312">
        <ele>279.399993896</ele>
        <time>2015-08-04T09:39:19.705Z</time>
      </trkpt>
      <trkpt lat="45.98535" lon="4.8332">
        <ele>279.200012207</ele>
        <time>2015-08-04T09:39:21.748Z</time>
      </trkpt>
      <trkpt lat="45.98532" lon="4.83325">
        <ele>278.899993896</ele>
        <time>2015-08-04T09:39:22.707Z</time>
      </trkpt>
      <trkpt lat="45.98528" lon="4.83329">
        <ele>278.899993896</ele>
        <time>2015-08-04T09:39:23.735Z</time>
      </trkpt>
      <trkpt lat="45.98525" lon="4.83334">
        <ele>279.100006104</ele>
        <time>2015-08-04T09:39:24.705Z</time>
      </trkpt>
      <trkpt lat="45.98521" lon="4.83338">
        <ele>279.100006104</ele>
        <time>2015-08-04T09:39:25.736Z</time>
      </trkpt>
      <trkpt lat="45.98517" lon="4.83343">
        <ele>279</ele>
        <time>2015-08-04T09:39:26.705Z</time>
      </trkpt>
      <trkpt lat="45.98514" lon="4.83348">
        <ele>279.100006104</ele>
        <time>2015-08-04T09:39:27.736Z</time>
      </trkpt>
      <trkpt lat="45.9851" lon="4.83353">
        <ele>279</ele>
        <time>2015-08-04T09:39:28.708Z</time>
      </trkpt>
      <trkpt lat="45.98506" lon="4.83359">
        <ele>279</ele>
        <time>2015-08-04T09:39:29.736Z</time>
      </trkpt>
      <trkpt lat="45.98502" lon="4.83364">
        <ele>278.899993896</ele>
        <time>2015-08-04T09:39:30.705Z</time>
      </trkpt>
      <trkpt lat="45.98499" lon="4.8337">
        <ele>278.600006104</ele>
        <time>2015-08-04T09:39:31.736Z</time>
      </trkpt>
      <trkpt lat="45.98494" lon="4.83376">
        <ele>278.299987793</ele>
        <time>2015-08-04T09:39:32.731Z</time>
      </trkpt>
      <trkpt lat="45.9849" lon="4.83381">
        <ele>278.100006104</ele>
        <time>2015-08-04T09:39:33.734Z</time>
      </trkpt>
      <trkpt lat="45.98486" lon="4.83387">
        <ele>278</ele>
        <time>2015-08-04T09:39:34.706Z</time>
      </trkpt>
      <trkpt lat="45.98482" lon="4.83393">
        <ele>278.100006104</ele>
        <time>2015-08-04T09:39:35.739Z</time>
      </trkpt>
      <trkpt lat="45.98477" lon="4.83399">
        <ele>278.399993896</ele>
        <time>2015-08-04T09:39:36.704Z</time>
      </trkpt>
      <trkpt lat="45.98473" lon="4.83405">
        <ele>278.399993896</ele>
        <time>2015-08-04T09:39:37.743Z</time>
      </trkpt>
      <trkpt lat="45.98469" lon="4.83411">
        <ele>278.200012207</ele>
        <time>2015-08-04T09:39:38.705Z</time>
      </trkpt>
      <trkpt lat="45.98466" lon="4.83416">
        <ele>278.100006104</ele>
        <time>2015-08-04T09:39:39.754Z</time>
      </trkpt>
      <trkpt lat="45.98462" lon="4.83422">
        <ele>278</ele>
        <time>2015-08-04T09:39:40.708Z</time>
      </trkpt>
      <trkpt lat="45.98457" lon="4.83428">
        <ele>278.299987793</ele>
        <time>2015-08-04T09:39:41.737Z</time>
      </trkpt>
      <trkpt lat="45.98454" lon="4.83433">
        <ele>278.200012207</ele>
        <time>2015-08-04T09:39:42.703Z</time>
      </trkpt>
      <trkpt lat="45.9845" lon="4.83439">
        <ele>278.299987793</ele>
        <time>2015-08-04T09:39:43.742Z</time>
      </trkpt>
      <trkpt lat="45.98445" lon="4.83445">
        <ele>278.299987793</ele>
        <time>2015-08-04T09:39:44.705Z</time>
      </trkpt>
      <trkpt lat="45.98441" lon="4.83451">
        <ele>278.700012207</ele>
        <time>2015-08-04T09:39:45.742Z</time>
      </trkpt>
      <trkpt lat="45.98437" lon="4.83456">
        <ele>278.700012207</ele>
        <time>2015-08-04T09:39:46.706Z</time>
      </trkpt>
      <trkpt lat="45.98432" lon="4.83462">
        <ele>278.799987793</ele>
        <time>2015-08-04T09:39:47.956Z</time>
      </trkpt>
      <trkpt lat="45.98428" lon="4.83469">
        <ele>279.200012207</ele>
        <time>2015-08-04T09:39:48.707Z</time>
      </trkpt>
      <trkpt lat="45.98424" lon="4.83475">
        <ele>279.100006104</ele>
        <time>2015-08-04T09:39:49.741Z</time>
      </trkpt>
      <trkpt lat="45.98419" lon="4.83481">
        <ele>279.399993896</ele>
        <time>2015-08-04T09:39:50.705Z</time>
      </trkpt>
      <trkpt lat="45.98415" lon="4.83487">
        <ele>279.600006104</ele>
        <time>2015-08-04T09:39:51.786Z</time>
      </trkpt>
      <trkpt lat="45.9841" lon="4.83493">
        <ele>280.200012207</ele>
        <time>2015-08-04T09:39:52.696Z</time>
      </trkpt>
      <trkpt lat="45.98406" lon="4.83499">
        <ele>279.799987793</ele>
        <time>2015-08-04T09:39:53.747Z</time>
      </trkpt>
      <trkpt lat="45.98401" lon="4.83505">
        <ele>278.899993896</ele>
        <time>2015-08-04T09:39:54.705Z</time>
      </trkpt>
      <trkpt lat="45.98397" lon="4.83511">
        <ele>278.600006104</ele>
        <time>2015-08-04T09:39:55.737Z</time>
      </trkpt>
      <trkpt lat="45.98392" lon="4.83517">
        <ele>278</ele>
        <time>2015-08-04T09:39:56.704Z</time>
      </trkpt>
      <trkpt lat="45.98388" lon="4.83522">
        <ele>277.600006104</ele>
        <time>2015-08-04T09:39:57.738Z</time>
      </trkpt>
      <trkpt lat="45.98384" lon="4.83528">
        <ele>276.899993896</ele>
        <time>2015-08-04T09:39:58.708Z</time>
      </trkpt>
      <trkpt lat="45.9838" lon="4.83534">
        <ele>276.899993896</ele>
        <time>2015-08-04T09:39:59.738Z</time>
      </trkpt>
      <trkpt lat="45.98376" lon="4.83539">
        <ele>277</ele>
        <time>2015-08-04T09:40:00.705Z</time>
      </trkpt>
      <trkpt lat="45.98372" lon="4.83544">
        <ele>277.700012207</ele>
        <time>2015-08-04T09:40:01.739Z</time>
      </trkpt>
      <trkpt lat="45.98367" lon="4.83549">
        <ele>277.700012207</ele>
        <time>2015-08-04T09:40:02.709Z</time>
      </trkpt>
      <trkpt lat="45.98363" lon="4.83554">
        <ele>278.200012207</ele>
        <time>2015-08-04T09:40:03.737Z</time>
      </trkpt>
      <trkpt lat="45.98359" lon="4.8356">
        <ele>278.600006104</ele>
        <time>2015-08-04T09:40:04.708Z</time>
      </trkpt>
      <trkpt lat="45.98355" lon="4.83565">
        <ele>278.399993896</ele>
        <time>2015-08-04T09:40:05.783Z</time>
      </trkpt>
      <trkpt lat="45.98351" lon="4.8357">
        <ele>278.5</ele>
        <time>2015-08-04T09:40:06.708Z</time>
      </trkpt>
      <trkpt lat="45.98346" lon="4.83576">
        <ele>278.299987793</ele>
        <time>2015-08-04T09:40:07.743Z</time>
      </trkpt>
      <trkpt lat="45.98342" lon="4.83581">
        <ele>278.399993896</ele>
        <time>2015-08-04T09:40:08.708Z</time>
      </trkpt>
      <trkpt lat="45.98339" lon="4.83587">
        <ele>278.5</ele>
        <time>2015-08-04T09:40:09.806Z</time>
      </trkpt>
      <trkpt lat="45.98334" lon="4.83593">
        <ele>278.899993896</ele>
        <time>2015-08-04T09:40:10.724Z</time>
      </trkpt>
      <trkpt lat="45.98331" lon="4.83599">
        <ele>279.5</ele>
        <time>2015-08-04T09:40:11.737Z</time>
      </trkpt>
      <trkpt lat="45.98327" lon="4.83604">
        <ele>279.399993896</ele>
        <time>2015-08-04T09:40:12.704Z</time>
      </trkpt>
      <trkpt lat="45.98322" lon="4.8361">
        <ele>279.200012207</ele>
        <time>2015-08-04T09:40:13.741Z</time>
      </trkpt>
      <trkpt lat="45.98319" lon="4.83616">
        <ele>279.799987793</ele>
        <time>2015-08-04T09:40:14.705Z</time>
      </trkpt>
      <trkpt lat="45.98316" lon="4.83622">
        <ele>280.100006104</ele>
        <time>2015-08-04T09:40:15.738Z</time>
      </trkpt>
      <trkpt lat="45.98313" lon="4.83629">
        <ele>280.399993896</ele>
        <time>2015-08-04T09:40:16.707Z</time>
      </trkpt>
      <trkpt lat="45.98309" lon="4.83635">
        <ele>280.299987793</ele>
        <time>2015-08-04T09:40:17.741Z</time>
      </trkpt>
      <trkpt lat="45.98306" lon="4.83642">
        <ele>280.600006104</ele>
        <time>2015-08-04T09:40:18.706Z</time>
      </trkpt>
      <trkpt lat="45.98302" lon="4.83648">
        <ele>281.100006104</ele>
        <time>2015-08-04T09:40:19.765Z</time>
      </trkpt>
      <trkpt lat="45.98299" lon="4.83656">
        <ele>281.299987793</ele>
        <time>2015-08-04T09:40:20.703Z</time>
      </trkpt>
      <trkpt lat="45.98295" lon="4.83663">
        <ele>281.299987793</ele>
        <time>2015-08-04T09:40:21.752Z</time>
      </trkpt>
      <trkpt lat="45.98292" lon="4.8367">
        <ele>281.600006104</ele>
        <time>2015-08-04T09:40:22.703Z</time>
      </trkpt>
      <trkpt lat="45.98289" lon="4.83677">
        <ele>281.700012207</ele>
        <time>2015-08-04T09:40:23.773Z</time>
      </trkpt>
      <trkpt lat="45.98287" lon="4.83684">
        <ele>282</ele>
        <time>2015-08-04T09:40:24.706Z</time>
      </trkpt>
      <trkpt lat="45.98285" lon="4.83691">
        <ele>282.200012207</ele>
        <time>2015-08-04T09:40:25.741Z</time>
      </trkpt>
      <trkpt lat="45.98283" lon="4.83697">
        <ele>282.399993896</ele>
        <time>2015-08-04T09:40:26.725Z</time>
      </trkpt>
      <trkpt lat="45.98281" lon="4.83704">
        <ele>282.600006104</ele>
        <time>2015-08-04T09:40:27.739Z</time>
      </trkpt>
      <trkpt lat="45.98278" lon="4.8371">
        <ele>282.700012207</ele>
        <time>2015-08-04T09:40:28.708Z</time>
      </trkpt>
      <trkpt lat="45.98276" lon="4.83717">
        <ele>282.799987793</ele>
        <time>2015-08-04T09:40:29.753Z</time>
      </trkpt>
      <trkpt lat="45.98274" lon="4.83724">
        <ele>283</ele>
        <time>2015-08-04T09:40:30.705Z</time>
      </trkpt>
      <trkpt lat="45.98272" lon="4.8373">
        <ele>283.200012207</ele>
        <time>2015-08-04T09:40:31.741Z</time>
      </trkpt>
      <trkpt lat="45.98269" lon="4.83737">
        <ele>283.399993896</ele>
        <time>2015-08-04T09:40:32.705Z</time>
      </trkpt>
      <trkpt lat="45.98267" lon="4.83744">
        <ele>283.600006104</ele>
        <time>2015-08-04T09:40:33.737Z</time>
      </trkpt>
      <trkpt lat="45.98265" lon="4.83751">
        <ele>283.600006104</ele>
        <time>2015-08-04T09:40:34.708Z</time>
      </trkpt>
      <trkpt lat="45.98262" lon="4.83759">
        <ele>283.5</ele>
        <time>2015-08-04T09:40:35.737Z</time>
      </trkpt>
      <trkpt lat="45.9826" lon="4.83766">
        <ele>283.399993896</ele>
        <time>2015-08-04T09:40:36.706Z</time>
      </trkpt>
      <trkpt lat="45.98257" lon="4.83773">
        <ele>283.5</ele>
        <time>2015-08-04T09:40:37.757Z</time>
      </trkpt>
      <trkpt lat="45.98255" lon="4.83781">
        <ele>283.700012207</ele>
        <time>2015-08-04T09:40:38.747Z</time>
      </trkpt>
      <trkpt lat="45.98252" lon="4.83788">
        <ele>283.799987793</ele>
        <time>2015-08-04T09:40:39.759Z</time>
      </trkpt>
      <trkpt lat="45.98249" lon="4.83796">
        <ele>283.799987793</ele>
        <time>2015-08-04T09:40:40.707Z</time>
      </trkpt>
      <trkpt lat="45.98247" lon="4.83803">
        <ele>283.600006104</ele>
        <time>2015-08-04T09:40:41.772Z</time>
      </trkpt>
      <trkpt lat="45.98243" lon="4.83811">
        <ele>283.600006104</ele>
        <time>2015-08-04T09:40:42.704Z</time>
      </trkpt>
      <trkpt lat="45.9824" lon="4.83819">
        <ele>283.399993896</ele>
        <time>2015-08-04T09:40:43.737Z</time>
      </trkpt>
      <trkpt lat="45.98238" lon="4.83826">
        <ele>283.600006104</ele>
        <time>2015-08-04T09:40:44.705Z</time>
      </trkpt>
      <trkpt lat="45.98235" lon="4.83834">
        <ele>283.100006104</ele>
        <time>2015-08-04T09:40:45.737Z</time>
      </trkpt>
      <trkpt lat="45.98232" lon="4.83841">
        <ele>282.899993896</ele>
        <time>2015-08-04T09:40:46.706Z</time>
      </trkpt>
      <trkpt lat="45.9823" lon="4.83848">
        <ele>283.100006104</ele>
        <time>2015-08-04T09:40:47.739Z</time>
      </trkpt>
      <trkpt lat="45.98227" lon="4.83855">
        <ele>283.100006104</ele>
        <time>2015-08-04T09:40:48.704Z</time>
      </trkpt>
      <trkpt lat="45.98224" lon="4.83861">
        <ele>283.399993896</ele>
        <time>2015-08-04T09:40:49.776Z</time>
      </trkpt>
      <trkpt lat="45.98222" lon="4.83868">
        <ele>283.399993896</ele>
        <time>2015-08-04T09:40:50.704Z</time>
      </trkpt>
      <trkpt lat="45.9822" lon="4.83875">
        <ele>283.399993896</ele>
        <time>2015-08-04T09:40:51.738Z</time>
      </trkpt>
      <trkpt lat="45.98218" lon="4.83881">
        <ele>283.200012207</ele>
        <time>2015-08-04T09:40:52.704Z</time>
      </trkpt>
      <trkpt lat="45.98216" lon="4.83888">
        <ele>283.200012207</ele>
        <time>2015-08-04T09:40:53.736Z</time>
      </trkpt>
      <trkpt lat="45.98213" lon="4.83895">
        <ele>282.899993896</ele>
        <time>2015-08-04T09:40:54.706Z</time>
      </trkpt>
      <trkpt lat="45.98211" lon="4.83902">
        <ele>282.899993896</ele>
        <time>2015-08-04T09:40:55.748Z</time>
      </trkpt>
      <trkpt lat="45.98209" lon="4.83908">
        <ele>283.100006104</ele>
        <time>2015-08-04T09:40:56.705Z</time>
      </trkpt>
      <trkpt lat="45.98206" lon="4.83916">
        <ele>283.100006104</ele>
        <time>2015-08-04T09:40:57.738Z</time>
      </trkpt>
      <trkpt lat="45.98204" lon="4.83923">
        <ele>282.799987793</ele>
        <time>2015-08-04T09:40:58.719Z</time>
      </trkpt>
      <trkpt lat="45.98201" lon="4.8393">
        <ele>282.700012207</ele>
        <time>2015-08-04T09:40:59.778Z</time>
      </trkpt>
      <trkpt lat="45.98198" lon="4.83938">
        <ele>282.5</ele>
        <time>2015-08-04T09:41:00.746Z</time>
      </trkpt>
      <trkpt lat="45.98195" lon="4.83945">
        <ele>282.200012207</ele>
        <time>2015-08-04T09:41:01.747Z</time>
      </trkpt>
      <trkpt lat="45.98193" lon="4.83952">
        <ele>281.799987793</ele>
        <time>2015-08-04T09:41:02.744Z</time>
      </trkpt>
      <trkpt lat="45.9819" lon="4.83959">
        <ele>281.799987793</ele>
        <time>2015-08-04T09:41:03.736Z</time>
      </trkpt>
      <trkpt lat="45.98187" lon="4.83966">
        <ele>281.5</ele>
        <time>2015-08-04T09:41:04.706Z</time>
      </trkpt>
      <trkpt lat="45.98185" lon="4.83972">
        <ele>281.5</ele>
        <time>2015-08-04T09:41:05.739Z</time>
      </trkpt>
      <trkpt lat="45.98183" lon="4.83978">
        <ele>281.600006104</ele>
        <time>2015-08-04T09:41:06.707Z</time>
      </trkpt>
      <trkpt lat="45.9818" lon="4.83985">
        <ele>281.700012207</ele>
        <time>2015-08-04T09:41:07.735Z</time>
      </trkpt>
      <trkpt lat="45.98177" lon="4.83991">
        <ele>281.600006104</ele>
        <time>2015-08-04T09:41:08.703Z</time>
      </trkpt>
      <trkpt lat="45.98175" lon="4.83997">
        <ele>281.299987793</ele>
        <time>2015-08-04T09:41:09.736Z</time>
      </trkpt>
      <trkpt lat="45.98172" lon="4.84004">
        <ele>281.200012207</ele>
        <time>2015-08-04T09:41:10.746Z</time>
      </trkpt>
      <trkpt lat="45.98169" lon="4.8401">
        <ele>281.100006104</ele>
        <time>2015-08-04T09:41:11.734Z</time>
      </trkpt>
      <trkpt lat="45.98165" lon="4.84017">
        <ele>280.799987793</ele>
        <time>2015-08-04T09:41:12.706Z</time>
      </trkpt>
      <trkpt lat="45.98162" lon="4.84023">
        <ele>280.700012207</ele>
        <time>2015-08-04T09:41:13.735Z</time>
      </trkpt>
      <trkpt lat="45.98158" lon="4.84029">
        <ele>280.200012207</ele>
        <time>2015-08-04T09:41:14.705Z</time>
      </trkpt>
      <trkpt lat="45.98154" lon="4.84036">
        <ele>279.799987793</ele>
        <time>2015-08-04T09:41:15.74Z</time>
      </trkpt>
      <trkpt lat="45.98149" lon="4.84042">
        <ele>279.700012207</ele>
        <time>2015-08-04T09:41:16.702Z</time>
      </trkpt>
      <trkpt lat="45.98145" lon="4.84048">
        <ele>279.600006104</ele>
        <time>2015-08-04T09:41:17.74Z</time>
      </trkpt>
      <trkpt lat="45.98141" lon="4.84053">
        <ele>279.5</ele>
        <time>2015-08-04T09:41:18.705Z</time>
      </trkpt>
      <trkpt lat="45.98137" lon="4.84059">
        <ele>279.5</ele>
        <time>2015-08-04T09:41:19.859Z</time>
      </trkpt>
      <trkpt lat="45.98132" lon="4.84063">
        <ele>279.399993896</ele>
        <time>2015-08-04T09:41:20.709Z</time>
      </trkpt>
      <trkpt lat="45.98127" lon="4.84068">
        <ele>279.299987793</ele>
        <time>2015-08-04T09:41:21.735Z</time>
      </trkpt>
      <trkpt lat="45.98123" lon="4.84073">
        <ele>279.600006104</ele>
        <time>2015-08-04T09:41:22.708Z</time>
      </trkpt>
      <trkpt lat="45.9812" lon="4.84078">
        <ele>280.100006104</ele>
        <time>2015-08-04T09:41:23.745Z</time>
      </trkpt>
      <trkpt lat="45.98117" lon="4.84083">
        <ele>280.600006104</ele>
        <time>2015-08-04T09:41:24.704Z</time>
      </trkpt>
      <trkpt lat="45.9811" lon="4.84091">
        <ele>280.899993896</ele>
        <time>2015-08-04T09:41:26.739Z</time>
      </trkpt>
      <trkpt lat="45.98106" lon="4.84095">
        <ele>280.899993896</ele>
        <time>2015-08-04T09:41:27.703Z</time>
      </trkpt>
      <trkpt lat="45.98101" lon="4.84098">
        <ele>280.799987793</ele>
        <time>2015-08-04T09:41:28.801Z</time>
      </trkpt>
      <trkpt lat="45.98098" lon="4.84102">
        <ele>280.799987793</ele>
        <time>2015-08-04T09:41:29.703Z</time>
      </trkpt>
      <trkpt lat="45.98094" lon="4.84106">
        <ele>281.100006104</ele>
        <time>2015-08-04T09:41:30.736Z</time>
      </trkpt>
      <trkpt lat="45.9809" lon="4.8411">
        <ele>281.399993896</ele>
        <time>2015-08-04T09:41:31.706Z</time>
      </trkpt>
      <trkpt lat="45.98086" lon="4.84115">
        <ele>281.600006104</ele>
        <time>2015-08-04T09:41:32.746Z</time>
      </trkpt>
      <trkpt lat="45.98081" lon="4.84119">
        <ele>282.100006104</ele>
        <time>2015-08-04T09:41:33.705Z</time>
      </trkpt>
      <trkpt lat="45.98076" lon="4.84123">
        <ele>282.100006104</ele>
        <time>2015-08-04T09:41:34.812Z</time>
      </trkpt>
      <trkpt lat="45.98072" lon="4.84128">
        <ele>282.299987793</ele>
        <time>2015-08-04T09:41:35.705Z</time>
      </trkpt>
      <trkpt lat="45.98067" lon="4.84132">
        <ele>282.399993896</ele>
        <time>2015-08-04T09:41:36.741Z</time>
      </trkpt>
      <trkpt lat="45.98063" lon="4.84137">
        <ele>282.5</ele>
        <time>2015-08-04T09:41:37.705Z</time>
      </trkpt>
      <trkpt lat="45.98058" lon="4.84141">
        <ele>282.600006104</ele>
        <time>2015-08-04T09:41:38.735Z</time>
      </trkpt>
      <trkpt lat="45.98053" lon="4.84146">
        <ele>282.700012207</ele>
        <time>2015-08-04T09:41:39.704Z</time>
      </trkpt>
      <trkpt lat="45.98048" lon="4.84151">
        <ele>282.899993896</ele>
        <time>2015-08-04T09:41:40.759Z</time>
      </trkpt>
      <trkpt lat="45.98043" lon="4.84155">
        <ele>283.399993896</ele>
        <time>2015-08-04T09:41:41.705Z</time>
      </trkpt>
      <trkpt lat="45.98039" lon="4.8416">
        <ele>283.600006104</ele>
        <time>2015-08-04T09:41:42.739Z</time>
      </trkpt>
      <trkpt lat="45.98034" lon="4.84164">
        <ele>283.600006104</ele>
        <time>2015-08-04T09:41:43.705Z</time>
      </trkpt>
      <trkpt lat="45.98029" lon="4.84168">
        <ele>283.700012207</ele>
        <time>2015-08-04T09:41:44.736Z</time>
      </trkpt>
      <trkpt lat="45.98024" lon="4.84173">
        <ele>283.700012207</ele>
        <time>2015-08-04T09:41:45.705Z</time>
      </trkpt>
      <trkpt lat="45.9802" lon="4.84177">
        <ele>283.600006104</ele>
        <time>2015-08-04T09:41:46.796Z</time>
      </trkpt>
      <trkpt lat="45.98015" lon="4.84182">
        <ele>283.899993896</ele>
        <time>2015-08-04T09:41:47.705Z</time>
      </trkpt>
      <trkpt lat="45.98011" lon="4.84187">
        <ele>284</ele>
        <time>2015-08-04T09:41:48.745Z</time>
      </trkpt>
      <trkpt lat="45.98005" lon="4.84191">
        <ele>283.700012207</ele>
        <time>2015-08-04T09:41:49.705Z</time>
      </trkpt>
      <trkpt lat="45.98" lon="4.84196">
        <ele>284.200012207</ele>
        <time>2015-08-04T09:41:50.739Z</time>
      </trkpt>
      <trkpt lat="45.97995" lon="4.84202">
        <ele>284.100006104</ele>
        <time>2015-08-04T09:41:51.705Z</time>
      </trkpt>
      <trkpt lat="45.9799" lon="4.84207">
        <ele>284.200012207</ele>
        <time>2015-08-04T09:41:52.774Z</time>
      </trkpt>
      <trkpt lat="45.97985" lon="4.84212">
        <ele>284.100006104</ele>
        <time>2015-08-04T09:41:53.705Z</time>
      </trkpt>
      <trkpt lat="45.9798" lon="4.84216">
        <ele>283.899993896</ele>
        <time>2015-08-04T09:41:54.736Z</time>
      </trkpt>
      <trkpt lat="45.97975" lon="4.84221">
        <ele>283.799987793</ele>
        <time>2015-08-04T09:41:55.704Z</time>
      </trkpt>
      <trkpt lat="45.9797" lon="4.84225">
        <ele>283.200012207</ele>
        <time>2015-08-04T09:41:56.751Z</time>
      </trkpt>
      <trkpt lat="45.97965" lon="4.84229">
        <ele>282.5</ele>
        <time>2015-08-04T09:41:57.705Z</time>
      </trkpt>
      <trkpt lat="45.97961" lon="4.84233">
        <ele>282.799987793</ele>
        <time>2015-08-04T09:41:58.739Z</time>
      </trkpt>
      <trkpt lat="45.97956" lon="4.84238">
        <ele>282.700012207</ele>
        <time>2015-08-04T09:41:59.704Z</time>
      </trkpt>
      <trkpt lat="45.97951" lon="4.84242">
        <ele>282.799987793</ele>
        <time>2015-08-04T09:42:00.739Z</time>
      </trkpt>
      <trkpt lat="45.97947" lon="4.84247">
        <ele>282.200012207</ele>
        <time>2015-08-04T09:42:01.705Z</time>
      </trkpt>
      <trkpt lat="45.97942" lon="4.84251">
        <ele>281.600006104</ele>
        <time>2015-08-04T09:42:02.738Z</time>
      </trkpt>
      <trkpt lat="45.97938" lon="4.84256">
        <ele>281.299987793</ele>
        <time>2015-08-04T09:42:03.704Z</time>
      </trkpt>
      <trkpt lat="45.97934" lon="4.8426">
        <ele>281.100006104</ele>
        <time>2015-08-04T09:42:04.741Z</time>
      </trkpt>
      <trkpt lat="45.97931" lon="4.84266">
        <ele>281</ele>
        <time>2015-08-04T09:42:05.705Z</time>
      </trkpt>
      <trkpt lat="45.97929" lon="4.84271">
        <ele>281.100006104</ele>
        <time>2015-08-04T09:42:06.736Z</time>
      </trkpt>
      <trkpt lat="45.97927" lon="4.84277">
        <ele>281</ele>
        <time>2015-08-04T09:42:07.703Z</time>
      </trkpt>
      <trkpt lat="45.97926" lon="4.84284">
        <ele>281.100006104</ele>
        <time>2015-08-04T09:42:08.74Z</time>
      </trkpt>
      <trkpt lat="45.97925" lon="4.84292">
        <ele>281.200012207</ele>
        <time>2015-08-04T09:42:09.703Z</time>
      </trkpt>
      <trkpt lat="45.97926" lon="4.84299">
        <ele>281.399993896</ele>
        <time>2015-08-04T09:42:10.772Z</time>
      </trkpt>
      <trkpt lat="45.97928" lon="4.84306">
        <ele>282</ele>
        <time>2015-08-04T09:42:11.704Z</time>
      </trkpt>
      <trkpt lat="45.97929" lon="4.84313">
        <ele>282.700012207</ele>
        <time>2015-08-04T09:42:12.754Z</time>
      </trkpt>
      <trkpt lat="45.97931" lon="4.8432">
        <ele>282.799987793</ele>
        <time>2015-08-04T09:42:13.703Z</time>
      </trkpt>
      <trkpt lat="45.97932" lon="4.84328">
        <ele>282.899993896</ele>
        <time>2015-08-04T09:42:14.735Z</time>
      </trkpt>
      <trkpt lat="45.97933" lon="4.84336">
        <ele>282.600006104</ele>
        <time>2015-08-04T09:42:15.703Z</time>
      </trkpt>
      <trkpt lat="45.97934" lon="4.84343">
        <ele>282.700012207</ele>
        <time>2015-08-04T09:42:16.739Z</time>
      </trkpt>
      <trkpt lat="45.97936" lon="4.84351">
        <ele>282.799987793</ele>
        <time>2015-08-04T09:42:17.705Z</time>
      </trkpt>
      <trkpt lat="45.97937" lon="4.84359">
        <ele>282.899993896</ele>
        <time>2015-08-04T09:42:18.737Z</time>
      </trkpt>
      <trkpt lat="45.97939" lon="4.84366">
        <ele>282.5</ele>
        <time>2015-08-04T09:42:19.705Z</time>
      </trkpt>
      <trkpt lat="45.9794" lon="4.84374">
        <ele>282.899993896</ele>
        <time>2015-08-04T09:42:20.748Z</time>
      </trkpt>
      <trkpt lat="45.97941" lon="4.84382">
        <ele>282.700012207</ele>
        <time>2015-08-04T09:42:21.705Z</time>
      </trkpt>
      <trkpt lat="45.97943" lon="4.84391">
        <ele>282.5</ele>
        <time>2015-08-04T09:42:22.737Z</time>
      </trkpt>
      <trkpt lat="45.97944" lon="4.844">
        <ele>282.100006104</ele>
        <time>2015-08-04T09:42:23.705Z</time>
      </trkpt>
      <trkpt lat="45.97945" lon="4.84409">
        <ele>282.299987793</ele>
        <time>2015-08-04T09:42:24.736Z</time>
      </trkpt>
      <trkpt lat="45.97946" lon="4.84418">
        <ele>282.100006104</ele>
        <time>2015-08-04T09:42:25.705Z</time>
      </trkpt>
      <trkpt lat="45.97948" lon="4.84426">
        <ele>281.799987793</ele>
        <time>2015-08-04T09:42:26.735Z</time>
      </trkpt>
      <trkpt lat="45.97949" lon="4.84434">
        <ele>281.799987793</ele>
        <time>2015-08-04T09:42:27.741Z</time>
      </trkpt>
      <trkpt lat="45.97951" lon="4.84443">
        <ele>281.399993896</ele>
        <time>2015-08-04T09:42:28.76Z</time>
      </trkpt>
      <trkpt lat="45.97952" lon="4.8445">
        <ele>281.200012207</ele>
        <time>2015-08-04T09:42:29.699Z</time>
      </trkpt>
      <trkpt lat="45.97954" lon="4.84458">
        <ele>280.899993896</ele>
        <time>2015-08-04T09:42:30.807Z</time>
      </trkpt>
      <trkpt lat="45.97955" lon="4.84466">
        <ele>280.600006104</ele>
        <time>2015-08-04T09:42:31.705Z</time>
      </trkpt>
      <trkpt lat="45.97956" lon="4.84474">
        <ele>280.700012207</ele>
        <time>2015-08-04T09:42:32.735Z</time>
      </trkpt>
      <trkpt lat="45.97958" lon="4.84482">
        <ele>280.700012207</ele>
        <time>2015-08-04T09:42:33.705Z</time>
      </trkpt>
      <trkpt lat="45.97959" lon="4.8449">
        <ele>280.700012207</ele>
        <time>2015-08-04T09:42:34.742Z</time>
      </trkpt>
      <trkpt lat="45.97961" lon="4.84498">
        <ele>281</ele>
        <time>2015-08-04T09:42:35.704Z</time>
      </trkpt>
      <trkpt lat="45.97962" lon="4.84507">
        <ele>281.100006104</ele>
        <time>2015-08-04T09:42:36.739Z</time>
      </trkpt>
      <trkpt lat="45.97964" lon="4.84515">
        <ele>281</ele>
        <time>2015-08-04T09:42:37.704Z</time>
      </trkpt>
      <trkpt lat="45.97965" lon="4.84524">
        <ele>280.799987793</ele>
        <time>2015-08-04T09:42:38.741Z</time>
      </trkpt>
      <trkpt lat="45.97967" lon="4.84532">
        <ele>280.5</ele>
        <time>2015-08-04T09:42:39.701Z</time>
      </trkpt>
      <trkpt lat="45.97968" lon="4.8454">
        <ele>280.100006104</ele>
        <time>2015-08-04T09:42:40.759Z</time>
      </trkpt>
      <trkpt lat="45.97969" lon="4.84548">
        <ele>280.399993896</ele>
        <time>2015-08-04T09:42:41.705Z</time>
      </trkpt>
      <trkpt lat="45.97971" lon="4.84557">
        <ele>280.200012207</ele>
        <time>2015-08-04T09:42:42.736Z</time>
      </trkpt>
      <trkpt lat="45.97972" lon="4.84565">
        <ele>279.799987793</ele>
        <time>2015-08-04T09:42:43.704Z</time>
      </trkpt>
      <trkpt lat="45.97974" lon="4.84574">
        <ele>279.799987793</ele>
        <time>2015-08-04T09:42:44.754Z</time>
      </trkpt>
      <trkpt lat="45.97975" lon="4.84582">
        <ele>279.899993896</ele>
        <time>2015-08-04T09:42:45.703Z</time>
      </trkpt>
      <trkpt lat="45.97976" lon="4.8459">
        <ele>279.799987793</ele>
        <time>2015-08-04T09:42:46.738Z</time>
      </trkpt>
      <trkpt lat="45.97977" lon="4.84599">
        <ele>280.200012207</ele>
        <time>2015-08-04T09:42:47.705Z</time>
      </trkpt>
      <trkpt lat="45.97978" lon="4.84608">
        <ele>280.100006104</ele>
        <time>2015-08-04T09:42:48.816Z</time>
      </trkpt>
      <trkpt lat="45.97979" lon="4.84617">
        <ele>280.5</ele>
        <time>2015-08-04T09:42:49.704Z</time>
      </trkpt>
      <trkpt lat="45.97981" lon="4.84625">
        <ele>281.399993896</ele>
        <time>2015-08-04T09:42:50.786Z</time>
      </trkpt>
      <trkpt lat="45.97982" lon="4.84634">
        <ele>281.299987793</ele>
        <time>2015-08-04T09:42:51.705Z</time>
      </trkpt>
      <trkpt lat="45.97984" lon="4.84642">
        <ele>281.799987793</ele>
        <time>2015-08-04T09:42:52.738Z</time>
      </trkpt>
      <trkpt lat="45.97985" lon="4.8465">
        <ele>281.5</ele>
        <time>2015-08-04T09:42:53.704Z</time>
      </trkpt>
      <trkpt lat="45.97986" lon="4.84659">
        <ele>282.299987793</ele>
        <time>2015-08-04T09:42:54.748Z</time>
      </trkpt>
      <trkpt lat="45.97987" lon="4.84666">
        <ele>282.700012207</ele>
        <time>2015-08-04T09:42:55.704Z</time>
      </trkpt>
      <trkpt lat="45.97988" lon="4.84675">
        <ele>283.100006104</ele>
        <time>2015-08-04T09:42:56.738Z</time>
      </trkpt>
      <trkpt lat="45.97989" lon="4.84683">
        <ele>283.299987793</ele>
        <time>2015-08-04T09:42:57.704Z</time>
      </trkpt>
      <trkpt lat="45.9799" lon="4.84691">
        <ele>283.799987793</ele>
        <time>2015-08-04T09:42:58.736Z</time>
      </trkpt>
      <trkpt lat="45.97991" lon="4.84698">
        <ele>283.600006104</ele>
        <time>2015-08-04T09:42:59.703Z</time>
      </trkpt>
      <trkpt lat="45.97992" lon="4.84706">
        <ele>283.799987793</ele>
        <time>2015-08-04T09:43:00.755Z</time>
      </trkpt>
      <trkpt lat="45.97993" lon="4.84713">
        <ele>284.100006104</ele>
        <time>2015-08-04T09:43:01.705Z</time>
      </trkpt>
      <trkpt lat="45.97993" lon="4.84721">
        <ele>284.200012207</ele>
        <time>2015-08-04T09:43:02.781Z</time>
      </trkpt>
      <trkpt lat="45.97994" lon="4.84729">
        <ele>284.100006104</ele>
        <time>2015-08-04T09:43:03.691Z</time>
      </trkpt>
      <trkpt lat="45.97995" lon="4.84738">
        <ele>284.100006104</ele>
        <time>2015-08-04T09:43:04.742Z</time>
      </trkpt>
      <trkpt lat="45.97995" lon="4.84746">
        <ele>284</ele>
        <time>2015-08-04T09:43:05.703Z</time>
      </trkpt>
      <trkpt lat="45.97995" lon="4.84753">
        <ele>284</ele>
        <time>2015-08-04T09:43:06.735Z</time>
      </trkpt>
      <trkpt lat="45.97995" lon="4.8476">
        <ele>284.299987793</ele>
        <time>2015-08-04T09:43:07.724Z</time>
      </trkpt>
      <trkpt lat="45.97995" lon="4.84768">
        <ele>284.200012207</ele>
        <time>2015-08-04T09:43:08.739Z</time>
      </trkpt>
      <trkpt lat="45.97996" lon="4.84775">
        <ele>284.100006104</ele>
        <time>2015-08-04T09:43:09.704Z</time>
      </trkpt>
      <trkpt lat="45.97996" lon="4.84784">
        <ele>283.799987793</ele>
        <time>2015-08-04T09:43:10.739Z</time>
      </trkpt>
      <trkpt lat="45.97997" lon="4.84792">
        <ele>283.299987793</ele>
        <time>2015-08-04T09:43:11.703Z</time>
      </trkpt>
      <trkpt lat="45.97997" lon="4.848">
        <ele>283.399993896</ele>
        <time>2015-08-04T09:43:12.742Z</time>
      </trkpt>
      <trkpt lat="45.97998" lon="4.84809">
        <ele>283.399993896</ele>
        <time>2015-08-04T09:43:13.705Z</time>
      </trkpt>
      <trkpt lat="45.97999" lon="4.84817">
        <ele>283.399993896</ele>
        <time>2015-08-04T09:43:14.736Z</time>
      </trkpt>
      <trkpt lat="45.97999" lon="4.84826">
        <ele>283.399993896</ele>
        <time>2015-08-04T09:43:15.703Z</time>
      </trkpt>
      <trkpt lat="45.98" lon="4.84834">
        <ele>283.399993896</ele>
        <time>2015-08-04T09:43:16.755Z</time>
      </trkpt>
      <trkpt lat="45.98001" lon="4.84843">
        <ele>283.399993896</ele>
        <time>2015-08-04T09:43:17.703Z</time>
      </trkpt>
      <trkpt lat="45.98001" lon="4.8485">
        <ele>283.399993896</ele>
        <time>2015-08-04T09:43:18.748Z</time>
      </trkpt>
      <trkpt lat="45.98002" lon="4.84858">
        <ele>283.5</ele>
        <time>2015-08-04T09:43:19.703Z</time>
      </trkpt>
      <trkpt lat="45.98002" lon="4.84866">
        <ele>283.5</ele>
        <time>2015-08-04T09:43:20.772Z</time>
      </trkpt>
      <trkpt lat="45.98003" lon="4.84873">
        <ele>283.600006104</ele>
        <time>2015-08-04T09:43:21.705Z</time>
      </trkpt>
      <trkpt lat="45.98004" lon="4.8488">
        <ele>283.700012207</ele>
        <time>2015-08-04T09:43:22.741Z</time>
      </trkpt>
      <trkpt lat="45.98005" lon="4.84887">
        <ele>283.700012207</ele>
        <time>2015-08-04T09:43:23.703Z</time>
      </trkpt>
      <trkpt lat="45.98007" lon="4.84896">
        <ele>283.600006104</ele>
        <time>2015-08-04T09:43:24.738Z</time>
      </trkpt>
      <trkpt lat="45.98009" lon="4.84904">
        <ele>283.600006104</ele>
        <time>2015-08-04T09:43:25.704Z</time>
      </trkpt>
      <trkpt lat="45.98009" lon="4.84911">
        <ele>283.399993896</ele>
        <time>2015-08-04T09:43:26.739Z</time>
      </trkpt>
      <trkpt lat="45.9801" lon="4.8492">
        <ele>282.899993896</ele>
        <time>2015-08-04T09:43:27.705Z</time>
      </trkpt>
      <trkpt lat="45.98011" lon="4.84929">
        <ele>282.799987793</ele>
        <time>2015-08-04T09:43:28.74Z</time>
      </trkpt>
      <trkpt lat="45.98012" lon="4.84937">
        <ele>282.399993896</ele>
        <time>2015-08-04T09:43:29.704Z</time>
      </trkpt>
      <trkpt lat="45.98013" lon="4.84946">
        <ele>282.299987793</ele>
        <time>2015-08-04T09:43:30.797Z</time>
      </trkpt>
      <trkpt lat="45.98014" lon="4.84954">
        <ele>282.399993896</ele>
        <time>2015-08-04T09:43:31.703Z</time>
      </trkpt>
      <trkpt lat="45.98015" lon="4.84963">
        <ele>282.399993896</ele>
        <time>2015-08-04T09:43:32.806Z</time>
      </trkpt>
      <trkpt lat="45.98016" lon="4.84971">
        <ele>281.899993896</ele>
        <time>2015-08-04T09:43:33.704Z</time>
      </trkpt>
      <trkpt lat="45.98017" lon="4.8498">
        <ele>281.899993896</ele>
        <time>2015-08-04T09:43:34.737Z</time>
      </trkpt>
      <trkpt lat="45.98018" lon="4.84989">
        <ele>281.700012207</ele>
        <time>2015-08-04T09:43:35.703Z</time>
      </trkpt>
      <trkpt lat="45.98019" lon="4.84997">
        <ele>281.799987793</ele>
        <time>2015-08-04T09:43:36.739Z</time>
      </trkpt>
      <trkpt lat="45.9802" lon="4.85006">
        <ele>281.5</ele>
        <time>2015-08-04T09:43:37.704Z</time>
      </trkpt>
      <trkpt lat="45.9802" lon="4.85015">
        <ele>281.200012207</ele>
        <time>2015-08-04T09:43:38.798Z</time>
      </trkpt>
      <trkpt lat="45.98021" lon="4.85024">
        <ele>280.899993896</ele>
        <time>2015-08-04T09:43:39.705Z</time>
      </trkpt>
      <trkpt lat="45.98021" lon="4.85033">
        <ele>281.399993896</ele>
        <time>2015-08-04T09:43:40.764Z</time>
      </trkpt>
      <trkpt lat="45.98022" lon="4.85042">
        <ele>280.899993896</ele>
        <time>2015-08-04T09:43:41.704Z</time>
      </trkpt>
      <trkpt lat="45.98022" lon="4.85051">
        <ele>280.700012207</ele>
        <time>2015-08-04T09:43:42.754Z</time>
      </trkpt>
      <trkpt lat="45.98022" lon="4.85059">
        <ele>280.399993896</ele>
        <time>2015-08-04T09:43:43.704Z</time>
      </trkpt>
      <trkpt lat="45.98022" lon="4.85067">
        <ele>280.299987793</ele>
        <time>2015-08-04T09:43:44.738Z</time>
      </trkpt>
      <trkpt lat="45.98023" lon="4.85075">
        <ele>280.299987793</ele>
        <time>2015-08-04T09:43:45.703Z</time>
      </trkpt>
      <trkpt lat="45.98023" lon="4.85083">
        <ele>280.399993896</ele>
        <time>2015-08-04T09:43:46.742Z</time>
      </trkpt>
      <trkpt lat="45.98023" lon="4.8509">
        <ele>281.399993896</ele>
        <time>2015-08-04T09:43:47.703Z</time>
      </trkpt>
      <trkpt lat="45.98024" lon="4.85097">
        <ele>281.799987793</ele>
        <time>2015-08-04T09:43:48.738Z</time>
      </trkpt>
      <trkpt lat="45.98025" lon="4.85105">
        <ele>282</ele>
        <time>2015-08-04T09:43:49.703Z</time>
      </trkpt>
      <trkpt lat="45.98026" lon="4.85112">
        <ele>282.200012207</ele>
        <time>2015-08-04T09:43:50.806Z</time>
      </trkpt>
      <trkpt lat="45.98028" lon="4.85119">
        <ele>282.200012207</ele>
        <time>2015-08-04T09:43:51.704Z</time>
      </trkpt>
      <trkpt lat="45.9803" lon="4.85126">
        <ele>282.5</ele>
        <time>2015-08-04T09:43:52.741Z</time>
      </trkpt>
      <trkpt lat="45.98032" lon="4.85133">
        <ele>282.700012207</ele>
        <time>2015-08-04T09:43:53.705Z</time>
      </trkpt>
      <trkpt lat="45.98034" lon="4.8514">
        <ele>283.299987793</ele>
        <time>2015-08-04T09:43:54.736Z</time>
      </trkpt>
      <trkpt lat="45.98035" lon="4.85147">
        <ele>284.200012207</ele>
        <time>2015-08-04T09:43:55.703Z</time>
      </trkpt>
      <trkpt lat="45.98036" lon="4.85154">
        <ele>284.700012207</ele>
        <time>2015-08-04T09:43:56.769Z</time>
      </trkpt>
      <trkpt lat="45.98038" lon="4.8516">
        <ele>285</ele>
        <time>2015-08-04T09:43:57.704Z</time>
      </trkpt>
      <trkpt lat="45.98041" lon="4.85167">
        <ele>285.200012207</ele>
        <time>2015-08-04T09:43:58.758Z</time>
      </trkpt>
      <trkpt lat="45.98043" lon="4.85173">
        <ele>285.5</ele>
        <time>2015-08-04T09:43:59.704Z</time>
      </trkpt>
      <trkpt lat="45.98045" lon="4.85179">
        <ele>285.700012207</ele>
        <time>2015-08-04T09:44:00.735Z</time>
      </trkpt>
      <trkpt lat="45.98047" lon="4.85186">
        <ele>285.600006104</ele>
        <time>2015-08-04T09:44:01.725Z</time>
      </trkpt>
      <trkpt lat="45.98049" lon="4.85192">
        <ele>285.600006104</ele>
        <time>2015-08-04T09:44:02.78Z</time>
      </trkpt>
      <trkpt lat="45.9805" lon="4.85199">
        <ele>285.399993896</ele>
        <time>2015-08-04T09:44:03.703Z</time>
      </trkpt>
      <trkpt lat="45.98053" lon="4.85208">
        <ele>285.700012207</ele>
        <time>2015-08-04T09:44:05.735Z</time>
      </trkpt>
      <trkpt lat="45.98053" lon="4.85212">
        <ele>285.600006104</ele>
        <time>2015-08-04T09:44:06.704Z</time>
      </trkpt>
      <trkpt lat="45.98057" lon="4.8522">
        <ele>285.200012207</ele>
        <time>2015-08-04T09:44:08.836Z</time>
      </trkpt>
      <trkpt lat="45.98059" lon="4.85223">
        <ele>285</ele>
        <time>2015-08-04T09:44:09.702Z</time>
      </trkpt>
      <trkpt lat="45.98065" lon="4.85232">
        <ele>284.700012207</ele>
        <time>2015-08-04T09:44:11.786Z</time>
      </trkpt>
      <trkpt lat="45.98067" lon="4.85237">
        <ele>284.700012207</ele>
        <time>2015-08-04T09:44:12.7Z</time>
      </trkpt>
      <trkpt lat="45.9807" lon="4.85243">
        <ele>285.299987793</ele>
        <time>2015-08-04T09:44:13.744Z</time>
      </trkpt>
      <trkpt lat="45.98072" lon="4.85248">
        <ele>285.600006104</ele>
        <time>2015-08-04T09:44:14.704Z</time>
      </trkpt>
      <trkpt lat="45.98075" lon="4.85254">
        <ele>285.799987793</ele>
        <time>2015-08-04T09:44:15.739Z</time>
      </trkpt>
      <trkpt lat="45.98077" lon="4.8526">
        <ele>285.799987793</ele>
        <time>2015-08-04T09:44:16.707Z</time>
      </trkpt>
      <trkpt lat="45.9808" lon="4.85265">
        <ele>285.799987793</ele>
        <time>2015-08-04T09:44:17.777Z</time>
      </trkpt>
      <trkpt lat="45.98083" lon="4.85271">
        <ele>285.700012207</ele>
        <time>2015-08-04T09:44:18.708Z</time>
      </trkpt>
      <trkpt lat="45.98086" lon="4.85277">
        <ele>285.600006104</ele>
        <time>2015-08-04T09:44:19.758Z</time>
      </trkpt>
      <trkpt lat="45.98089" lon="4.85283">
        <ele>285.799987793</ele>
        <time>2015-08-04T09:44:20.704Z</time>
      </trkpt>
      <trkpt lat="45.98092" lon="4.85289">
        <ele>285.200012207</ele>
        <time>2015-08-04T09:44:21.735Z</time>
      </trkpt>
      <trkpt lat="45.98095" lon="4.85296">
        <ele>285.399993896</ele>
        <time>2015-08-04T09:44:22.707Z</time>
      </trkpt>
      <trkpt lat="45.98098" lon="4.85302">
        <ele>285.700012207</ele>
        <time>2015-08-04T09:44:23.749Z</time>
      </trkpt>
      <trkpt lat="45.98101" lon="4.85309">
        <ele>285.700012207</ele>
        <time>2015-08-04T09:44:24.705Z</time>
      </trkpt>
      <trkpt lat="45.98104" lon="4.85314">
        <ele>285.399993896</ele>
        <time>2015-08-04T09:44:25.736Z</time>
      </trkpt>
      <trkpt lat="45.98107" lon="4.85321">
        <ele>285.299987793</ele>
        <time>2015-08-04T09:44:26.707Z</time>
      </trkpt>
      <trkpt lat="45.98109" lon="4.85328">
        <ele>285.100006104</ele>
        <time>2015-08-04T09:44:27.738Z</time>
      </trkpt>
      <trkpt lat="45.98112" lon="4.85335">
        <ele>284.5</ele>
        <time>2015-08-04T09:44:28.707Z</time>
      </trkpt>
      <trkpt lat="45.98114" lon="4.85342">
        <ele>283.799987793</ele>
        <time>2015-08-04T09:44:29.739Z</time>
      </trkpt>
      <trkpt lat="45.98117" lon="4.85349">
        <ele>283</ele>
        <time>2015-08-04T09:44:30.705Z</time>
      </trkpt>
      <trkpt lat="45.98119" lon="4.85356">
        <ele>282.399993896</ele>
        <time>2015-08-04T09:44:31.743Z</time>
      </trkpt>
      <trkpt lat="45.98122" lon="4.85363">
        <ele>282.299987793</ele>
        <time>2015-08-04T09:44:32.703Z</time>
      </trkpt>
      <trkpt lat="45.98125" lon="4.8537">
        <ele>281.700012207</ele>
        <time>2015-08-04T09:44:33.735Z</time>
      </trkpt>
      <trkpt lat="45.98127" lon="4.85377">
        <ele>281.799987793</ele>
        <time>2015-08-04T09:44:34.705Z</time>
      </trkpt>
      <trkpt lat="45.9813" lon="4.85383">
        <ele>281.200012207</ele>
        <time>2015-08-04T09:44:35.796Z</time>
      </trkpt>
      <trkpt lat="45.98133" lon="4.8539">
        <ele>280.5</ele>
        <time>2015-08-04T09:44:36.703Z</time>
      </trkpt>
      <trkpt lat="45.98135" lon="4.85397">
        <ele>280</ele>
        <time>2015-08-04T09:44:37.734Z</time>
      </trkpt>
      <trkpt lat="45.98139" lon="4.85403">
        <ele>280.299987793</ele>
        <time>2015-08-04T09:44:38.704Z</time>
      </trkpt>
      <trkpt lat="45.98142" lon="4.8541">
        <ele>280.5</ele>
        <time>2015-08-04T09:44:39.737Z</time>
      </trkpt>
      <trkpt lat="45.98144" lon="4.85417">
        <ele>280.399993896</ele>
        <time>2015-08-04T09:44:40.707Z</time>
      </trkpt>
      <trkpt lat="45.98147" lon="4.85424">
        <ele>280</ele>
        <time>2015-08-04T09:44:41.738Z</time>
      </trkpt>
      <trkpt lat="45.9815" lon="4.85431">
        <ele>280.299987793</ele>
        <time>2015-08-04T09:44:42.705Z</time>
      </trkpt>
      <trkpt lat="45.98153" lon="4.85438">
        <ele>280.600006104</ele>
        <time>2015-08-04T09:44:43.738Z</time>
      </trkpt>
      <trkpt lat="45.98156" lon="4.85444">
        <ele>280.799987793</ele>
        <time>2015-08-04T09:44:44.704Z</time>
      </trkpt>
      <trkpt lat="45.98158" lon="4.8545">
        <ele>280.700012207</ele>
        <time>2015-08-04T09:44:45.74Z</time>
      </trkpt>
      <trkpt lat="45.98161" lon="4.85457">
        <ele>280.600006104</ele>
        <time>2015-08-04T09:44:46.705Z</time>
      </trkpt>
      <trkpt lat="45.98164" lon="4.85462">
        <ele>280.299987793</ele>
        <time>2015-08-04T09:44:47.739Z</time>
      </trkpt>
      <trkpt lat="45.98167" lon="4.85469">
        <ele>280</ele>
        <time>2015-08-04T09:44:48.703Z</time>
      </trkpt>
      <trkpt lat="45.9817" lon="4.85475">
        <ele>280</ele>
        <time>2015-08-04T09:44:49.735Z</time>
      </trkpt>
      <trkpt lat="45.98173" lon="4.85481">
        <ele>280.200012207</ele>
        <time>2015-08-04T09:44:50.703Z</time>
      </trkpt>
      <trkpt lat="45.98176" lon="4.85488">
        <ele>280.100006104</ele>
        <time>2015-08-04T09:44:51.807Z</time>
      </trkpt>
      <trkpt lat="45.98179" lon="4.85495">
        <ele>280.399993896</ele>
        <time>2015-08-04T09:44:52.705Z</time>
      </trkpt>
      <trkpt lat="45.98182" lon="4.85502">
        <ele>280.600006104</ele>
        <time>2015-08-04T09:44:53.736Z</time>
      </trkpt>
      <trkpt lat="45.98184" lon="4.85508">
        <ele>280.700012207</ele>
        <time>2015-08-04T09:44:54.703Z</time>
      </trkpt>
      <trkpt lat="45.98187" lon="4.85515">
        <ele>280.899993896</ele>
        <time>2015-08-04T09:44:55.762Z</time>
      </trkpt>
      <trkpt lat="45.9819" lon="4.85522">
        <ele>280.399993896</ele>
        <time>2015-08-04T09:44:56.702Z</time>
      </trkpt>
      <trkpt lat="45.98193" lon="4.8553">
        <ele>280.200012207</ele>
        <time>2015-08-04T09:44:57.737Z</time>
      </trkpt>
      <trkpt lat="45.98196" lon="4.85538">
        <ele>280.200012207</ele>
        <time>2015-08-04T09:44:58.706Z</time>
      </trkpt>
      <trkpt lat="45.98198" lon="4.85545">
        <ele>280.799987793</ele>
        <time>2015-08-04T09:44:59.741Z</time>
      </trkpt>
      <trkpt lat="45.98201" lon="4.85553">
        <ele>280.799987793</ele>
        <time>2015-08-04T09:45:00.705Z</time>
      </trkpt>
      <trkpt lat="45.98204" lon="4.8556">
        <ele>281</ele>
        <time>2015-08-04T09:45:01.738Z</time>
      </trkpt>
      <trkpt lat="45.98207" lon="4.85567">
        <ele>281.200012207</ele>
        <time>2015-08-04T09:45:02.704Z</time>
      </trkpt>
      <trkpt lat="45.9821" lon="4.85575">
        <ele>281.399993896</ele>
        <time>2015-08-04T09:45:03.735Z</time>
      </trkpt>
      <trkpt lat="45.98213" lon="4.85582">
        <ele>281.5</ele>
        <time>2015-08-04T09:45:04.707Z</time>
      </trkpt>
      <trkpt lat="45.98217" lon="4.8559">
        <ele>281.399993896</ele>
        <time>2015-08-04T09:45:05.741Z</time>
      </trkpt>
      <trkpt lat="45.9822" lon="4.85597">
        <ele>281.299987793</ele>
        <time>2015-08-04T09:45:06.703Z</time>
      </trkpt>
      <trkpt lat="45.98223" lon="4.85604">
        <ele>281.100006104</ele>
        <time>2015-08-04T09:45:07.876Z</time>
      </trkpt>
      <trkpt lat="45.98225" lon="4.85611">
        <ele>281.100006104</ele>
        <time>2015-08-04T09:45:08.703Z</time>
      </trkpt>
      <trkpt lat="45.98227" lon="4.85617">
        <ele>280.899993896</ele>
        <time>2015-08-04T09:45:09.752Z</time>
      </trkpt>
      <trkpt lat="45.9823" lon="4.85624">
        <ele>280.799987793</ele>
        <time>2015-08-04T09:45:10.709Z</time>
      </trkpt>
      <trkpt lat="45.98232" lon="4.85632">
        <ele>280.399993896</ele>
        <time>2015-08-04T09:45:11.74Z</time>
      </trkpt>
      <trkpt lat="45.98235" lon="4.85638">
        <ele>280.399993896</ele>
        <time>2015-08-04T09:45:12.711Z</time>
      </trkpt>
      <trkpt lat="45.98238" lon="4.85645">
        <ele>280.5</ele>
        <time>2015-08-04T09:45:13.738Z</time>
      </trkpt>
      <trkpt lat="45.98242" lon="4.85652">
        <ele>280.799987793</ele>
        <time>2015-08-04T09:45:14.702Z</time>
      </trkpt>
      <trkpt lat="45.98244" lon="4.85659">
        <ele>281.100006104</ele>
        <time>2015-08-04T09:45:15.74Z</time>
      </trkpt>
      <trkpt lat="45.98247" lon="4.85667">
        <ele>281.299987793</ele>
        <time>2015-08-04T09:45:16.709Z</time>
      </trkpt>
      <trkpt lat="45.98251" lon="4.85675">
        <ele>281.700012207</ele>
        <time>2015-08-04T09:45:17.737Z</time>
      </trkpt>
      <trkpt lat="45.98254" lon="4.85683">
        <ele>282.200012207</ele>
        <time>2015-08-04T09:45:18.703Z</time>
      </trkpt>
      <trkpt lat="45.98257" lon="4.85691">
        <ele>282.5</ele>
        <time>2015-08-04T09:45:19.745Z</time>
      </trkpt>
      <trkpt lat="45.9826" lon="4.85698">
        <ele>282.700012207</ele>
        <time>2015-08-04T09:45:20.715Z</time>
      </trkpt>
      <trkpt lat="45.98263" lon="4.85705">
        <ele>282.700012207</ele>
        <time>2015-08-04T09:45:21.734Z</time>
      </trkpt>
      <trkpt lat="45.98266" lon="4.8571">
        <ele>283</ele>
        <time>2015-08-04T09:45:22.704Z</time>
      </trkpt>
      <trkpt lat="45.98268" lon="4.85717">
        <ele>283.299987793</ele>
        <time>2015-08-04T09:45:23.737Z</time>
      </trkpt>
      <trkpt lat="45.98271" lon="4.85722">
        <ele>283.5</ele>
        <time>2015-08-04T09:45:24.703Z</time>
      </trkpt>
      <trkpt lat="45.98274" lon="4.85728">
        <ele>283</ele>
        <time>2015-08-04T09:45:25.836Z</time>
      </trkpt>
      <trkpt lat="45.98276" lon="4.85735">
        <ele>283.299987793</ele>
        <time>2015-08-04T09:45:26.704Z</time>
      </trkpt>
      <trkpt lat="45.98279" lon="4.85741">
        <ele>282.799987793</ele>
        <time>2015-08-04T09:45:27.733Z</time>
      </trkpt>
      <trkpt lat="45.98281" lon="4.85748">
        <ele>282.600006104</ele>
        <time>2015-08-04T09:45:28.725Z</time>
      </trkpt>
      <trkpt lat="45.98283" lon="4.85755">
        <ele>282.799987793</ele>
        <time>2015-08-04T09:45:29.734Z</time>
      </trkpt>
      <trkpt lat="45.98286" lon="4.85762">
        <ele>282.399993896</ele>
        <time>2015-08-04T09:45:30.704Z</time>
      </trkpt>
      <trkpt lat="45.98289" lon="4.85769">
        <ele>282.299987793</ele>
        <time>2015-08-04T09:45:31.734Z</time>
      </trkpt>
      <trkpt lat="45.98291" lon="4.85776">
        <ele>282.5</ele>
        <time>2015-08-04T09:45:32.704Z</time>
      </trkpt>
      <trkpt lat="45.98294" lon="4.85783">
        <ele>282.700012207</ele>
        <time>2015-08-04T09:45:33.738Z</time>
      </trkpt>
      <trkpt lat="45.98297" lon="4.85791">
        <ele>282</ele>
        <time>2015-08-04T09:45:34.746Z</time>
      </trkpt>
      <trkpt lat="45.983" lon="4.85798">
        <ele>282</ele>
        <time>2015-08-04T09:45:35.738Z</time>
      </trkpt>
      <trkpt lat="45.98303" lon="4.85806">
        <ele>282.299987793</ele>
        <time>2015-08-04T09:45:36.704Z</time>
      </trkpt>
      <trkpt lat="45.98305" lon="4.85812">
        <ele>282.200012207</ele>
        <time>2015-08-04T09:45:37.736Z</time>
      </trkpt>
      <trkpt lat="45.98308" lon="4.85818">
        <ele>282.100006104</ele>
        <time>2015-08-04T09:45:38.702Z</time>
      </trkpt>
      <trkpt lat="45.9831" lon="4.85825">
        <ele>281.899993896</ele>
        <time>2015-08-04T09:45:39.737Z</time>
      </trkpt>
      <trkpt lat="45.98313" lon="4.85832">
        <ele>282</ele>
        <time>2015-08-04T09:45:40.705Z</time>
      </trkpt>
      <trkpt lat="45.98316" lon="4.85839">
        <ele>282</ele>
        <time>2015-08-04T09:45:41.734Z</time>
      </trkpt>
      <trkpt lat="45.98319" lon="4.85846">
        <ele>282.200012207</ele>
        <time>2015-08-04T09:45:42.703Z</time>
      </trkpt>
      <trkpt lat="45.98322" lon="4.85854">
        <ele>282.200012207</ele>
        <time>2015-08-04T09:45:43.836Z</time>
      </trkpt>
      <trkpt lat="45.98324" lon="4.85861">
        <ele>282.5</ele>
        <time>2015-08-04T09:45:44.702Z</time>
      </trkpt>
      <trkpt lat="45.98326" lon="4.85868">
        <ele>282.700012207</ele>
        <time>2015-08-04T09:45:45.738Z</time>
      </trkpt>
      <trkpt lat="45.98329" lon="4.85875">
        <ele>282.899993896</ele>
        <time>2015-08-04T09:45:46.707Z</time>
      </trkpt>
      <trkpt lat="45.98331" lon="4.85883">
        <ele>283</ele>
        <time>2015-08-04T09:45:47.753Z</time>
      </trkpt>
      <trkpt lat="45.98334" lon="4.8589">
        <ele>283.100006104</ele>
        <time>2015-08-04T09:45:48.705Z</time>
      </trkpt>
      <trkpt lat="45.98336" lon="4.85896">
        <ele>283.100006104</ele>
        <time>2015-08-04T09:45:49.738Z</time>
      </trkpt>
      <trkpt lat="45.9834" lon="4.85904">
        <ele>283.100006104</ele>
        <time>2015-08-04T09:45:50.704Z</time>
      </trkpt>
      <trkpt lat="45.98342" lon="4.85911">
        <ele>283</ele>
        <time>2015-08-04T09:45:51.736Z</time>
      </trkpt>
      <trkpt lat="45.98345" lon="4.85918">
        <ele>283</ele>
        <time>2015-08-04T09:45:52.705Z</time>
      </trkpt>
      <trkpt lat="45.98348" lon="4.85926">
        <ele>283</ele>
        <time>2015-08-04T09:45:53.745Z</time>
      </trkpt>
      <trkpt lat="45.9835" lon="4.85933">
        <ele>283</ele>
        <time>2015-08-04T09:45:54.703Z</time>
      </trkpt>
      <trkpt lat="45.98352" lon="4.85939">
        <ele>282.700012207</ele>
        <time>2015-08-04T09:45:55.734Z</time>
      </trkpt>
      <trkpt lat="45.98355" lon="4.85946">
        <ele>282.600006104</ele>
        <time>2015-08-04T09:45:56.704Z</time>
      </trkpt>
      <trkpt lat="45.98357" lon="4.85951">
        <ele>281.799987793</ele>
        <time>2015-08-04T09:45:57.735Z</time>
      </trkpt>
      <trkpt lat="45.9836" lon="4.85958">
        <ele>281.600006104</ele>
        <time>2015-08-04T09:45:58.705Z</time>
      </trkpt>
      <trkpt lat="45.98363" lon="4.85967">
        <ele>281.5</ele>
        <time>2015-08-04T09:45:59.754Z</time>
      </trkpt>
      <trkpt lat="45.98366" lon="4.85976">
        <ele>281.399993896</ele>
        <time>2015-08-04T09:46:00.704Z</time>
      </trkpt>
      <trkpt lat="45.98369" lon="4.85984">
        <ele>281.399993896</ele>
        <time>2015-08-04T09:46:01.736Z</time>
      </trkpt>
      <trkpt lat="45.98372" lon="4.85992">
        <ele>281.200012207</ele>
        <time>2015-08-04T09:46:02.705Z</time>
      </trkpt>
      <trkpt lat="45.98375" lon="4.86">
        <ele>280.799987793</ele>
        <time>2015-08-04T09:46:03.738Z</time>
      </trkpt>
      <trkpt lat="45.98377" lon="4.86007">
        <ele>280.399993896</ele>
        <time>2015-08-04T09:46:04.707Z</time>
      </trkpt>
      <trkpt lat="45.98379" lon="4.86014">
        <ele>280.200012207</ele>
        <time>2015-08-04T09:46:05.746Z</time>
      </trkpt>
      <trkpt lat="45.98381" lon="4.86021">
        <ele>280.100006104</ele>
        <time>2015-08-04T09:46:06.697Z</time>
      </trkpt>
      <trkpt lat="45.98384" lon="4.86029">
        <ele>280.100006104</ele>
        <time>2015-08-04T09:46:07.737Z</time>
      </trkpt>
      <trkpt lat="45.98388" lon="4.86036">
        <ele>279.700012207</ele>
        <time>2015-08-04T09:46:08.702Z</time>
      </trkpt>
      <trkpt lat="45.98391" lon="4.86043">
        <ele>279</ele>
        <time>2015-08-04T09:46:09.785Z</time>
      </trkpt>
      <trkpt lat="45.98393" lon="4.8605">
        <ele>278.799987793</ele>
        <time>2015-08-04T09:46:10.706Z</time>
      </trkpt>
      <trkpt lat="45.98396" lon="4.86056">
        <ele>278.799987793</ele>
        <time>2015-08-04T09:46:11.738Z</time>
      </trkpt>
      <trkpt lat="45.98399" lon="4.86063">
        <ele>278.799987793</ele>
        <time>2015-08-04T09:46:12.705Z</time>
      </trkpt>
      <trkpt lat="45.98402" lon="4.86069">
        <ele>278.899993896</ele>
        <time>2015-08-04T09:46:13.734Z</time>
      </trkpt>
      <trkpt lat="45.98404" lon="4.86075">
        <ele>279</ele>
        <time>2015-08-04T09:46:14.704Z</time>
      </trkpt>
      <trkpt lat="45.98406" lon="4.86081">
        <ele>279.100006104</ele>
        <time>2015-08-04T09:46:15.744Z</time>
      </trkpt>
      <trkpt lat="45.98407" lon="4.86087">
        <ele>279.100006104</ele>
        <time>2015-08-04T09:46:16.706Z</time>
      </trkpt>
      <trkpt lat="45.9841" lon="4.86099">
        <ele>279.700012207</ele>
        <time>2015-08-04T09:46:18.735Z</time>
      </trkpt>
      <trkpt lat="45.98412" lon="4.86104">
        <ele>280</ele>
        <time>2015-08-04T09:46:19.707Z</time>
      </trkpt>
      <trkpt lat="45.98414" lon="4.86116">
        <ele>280.799987793</ele>
        <time>2015-08-04T09:46:21.735Z</time>
      </trkpt>
      <trkpt lat="45.98414" lon="4.86121">
        <ele>281.600006104</ele>
        <time>2015-08-04T09:46:22.705Z</time>
      </trkpt>
      <trkpt lat="45.98415" lon="4.86132">
        <ele>282.5</ele>
        <time>2015-08-04T09:46:24.739Z</time>
      </trkpt>
      <trkpt lat="45.98416" lon="4.86138">
        <ele>282.899993896</ele>
        <time>2015-08-04T09:46:25.701Z</time>
      </trkpt>
      <trkpt lat="45.98418" lon="4.8615">
        <ele>283.600006104</ele>
        <time>2015-08-04T09:46:27.742Z</time>
      </trkpt>
      <trkpt lat="45.98419" lon="4.86156">
        <ele>283.799987793</ele>
        <time>2015-08-04T09:46:28.705Z</time>
      </trkpt>
      <trkpt lat="45.9842" lon="4.86163">
        <ele>284</ele>
        <time>2015-08-04T09:46:29.735Z</time>
      </trkpt>
      <trkpt lat="45.98421" lon="4.86169">
        <ele>284.299987793</ele>
        <time>2015-08-04T09:46:30.703Z</time>
      </trkpt>
      <trkpt lat="45.98421" lon="4.86176">
        <ele>285</ele>
        <time>2015-08-04T09:46:31.779Z</time>
      </trkpt>
      <trkpt lat="45.98422" lon="4.86183">
        <ele>285.299987793</ele>
        <time>2015-08-04T09:46:32.7Z</time>
      </trkpt>
      <trkpt lat="45.98423" lon="4.8619">
        <ele>285.700012207</ele>
        <time>2015-08-04T09:46:33.739Z</time>
      </trkpt>
      <trkpt lat="45.98424" lon="4.86196">
        <ele>286.100006104</ele>
        <time>2015-08-04T09:46:34.706Z</time>
      </trkpt>
      <trkpt lat="45.98424" lon="4.86203">
        <ele>286.700012207</ele>
        <time>2015-08-04T09:46:35.737Z</time>
      </trkpt>
      <trkpt lat="45.98425" lon="4.8621">
        <ele>287</ele>
        <time>2015-08-04T09:46:36.692Z</time>
      </trkpt>
      <trkpt lat="45.98426" lon="4.86217">
        <ele>287.399993896</ele>
        <time>2015-08-04T09:46:37.735Z</time>
      </trkpt>
      <trkpt lat="45.98427" lon="4.86224">
        <ele>287.5</ele>
        <time>2015-08-04T09:46:38.704Z</time>
      </trkpt>
      <trkpt lat="45.98428" lon="4.86231">
        <ele>287.899993896</ele>
        <time>2015-08-04T09:46:39.743Z</time>
      </trkpt>
      <trkpt lat="45.9843" lon="4.86238">
        <ele>287.799987793</ele>
        <time>2015-08-04T09:46:40.702Z</time>
      </trkpt>
      <trkpt lat="45.98431" lon="4.86246">
        <ele>287.899993896</ele>
        <time>2015-08-04T09:46:41.751Z</time>
      </trkpt>
      <trkpt lat="45.98433" lon="4.86254">
        <ele>287.899993896</ele>
        <time>2015-08-04T09:46:42.722Z</time>
      </trkpt>
      <trkpt lat="45.98435" lon="4.86263">
        <ele>287.899993896</ele>
        <time>2015-08-04T09:46:43.739Z</time>
      </trkpt>
      <trkpt lat="45.98436" lon="4.86273">
        <ele>287.600006104</ele>
        <time>2015-08-04T09:46:44.698Z</time>
      </trkpt>
      <trkpt lat="45.98439" lon="4.86283">
        <ele>287.600006104</ele>
        <time>2015-08-04T09:46:45.734Z</time>
      </trkpt>
      <trkpt lat="45.98441" lon="4.86293">
        <ele>287.700012207</ele>
        <time>2015-08-04T09:46:46.707Z</time>
      </trkpt>
      <trkpt lat="45.98443" lon="4.86304">
        <ele>287.700012207</ele>
        <time>2015-08-04T09:46:47.74Z</time>
      </trkpt>
      <trkpt lat="45.98445" lon="4.86314">
        <ele>287.899993896</ele>
        <time>2015-08-04T09:46:48.704Z</time>
      </trkpt>
      <trkpt lat="45.98447" lon="4.86325">
        <ele>287.799987793</ele>
        <time>2015-08-04T09:46:49.735Z</time>
      </trkpt>
      <trkpt lat="45.9845" lon="4.86335">
        <ele>287.899993896</ele>
        <time>2015-08-04T09:46:50.698Z</time>
      </trkpt>
      <trkpt lat="45.98452" lon="4.86345">
        <ele>288.200012207</ele>
        <time>2015-08-04T09:46:51.735Z</time>
      </trkpt>
      <trkpt lat="45.98455" lon="4.86355">
        <ele>288.299987793</ele>
        <time>2015-08-04T09:46:52.704Z</time>
      </trkpt>
      <trkpt lat="45.98458" lon="4.86364">
        <ele>288.299987793</ele>
        <time>2015-08-04T09:46:53.743Z</time>
      </trkpt>
      <trkpt lat="45.98461" lon="4.86374">
        <ele>288.299987793</ele>
        <time>2015-08-04T09:46:54.702Z</time>
      </trkpt>
      <trkpt lat="45.98464" lon="4.86382">
        <ele>288.5</ele>
        <time>2015-08-04T09:46:55.74Z</time>
      </trkpt>
      <trkpt lat="45.98468" lon="4.86391">
        <ele>288.5</ele>
        <time>2015-08-04T09:46:56.703Z</time>
      </trkpt>
      <trkpt lat="45.98471" lon="4.86399">
        <ele>288.600006104</ele>
        <time>2015-08-04T09:46:57.753Z</time>
      </trkpt>
      <trkpt lat="45.98475" lon="4.86407">
        <ele>288.600006104</ele>
        <time>2015-08-04T09:46:58.706Z</time>
      </trkpt>
      <trkpt lat="45.98478" lon="4.86415">
        <ele>288.799987793</ele>
        <time>2015-08-04T09:46:59.735Z</time>
      </trkpt>
      <trkpt lat="45.98482" lon="4.86423">
        <ele>288.700012207</ele>
        <time>2015-08-04T09:47:00.703Z</time>
      </trkpt>
      <trkpt lat="45.98485" lon="4.86431">
        <ele>288.5</ele>
        <time>2015-08-04T09:47:01.829Z</time>
      </trkpt>
      <trkpt lat="45.98489" lon="4.86439">
        <ele>288.399993896</ele>
        <time>2015-08-04T09:47:02.704Z</time>
      </trkpt>
      <trkpt lat="45.98492" lon="4.86447">
        <ele>288.5</ele>
        <time>2015-08-04T09:47:03.746Z</time>
      </trkpt>
      <trkpt lat="45.98495" lon="4.86455">
        <ele>288.399993896</ele>
        <time>2015-08-04T09:47:04.706Z</time>
      </trkpt>
      <trkpt lat="45.98498" lon="4.86463">
        <ele>288.5</ele>
        <time>2015-08-04T09:47:05.748Z</time>
      </trkpt>
      <trkpt lat="45.985" lon="4.86471">
        <ele>288.399993896</ele>
        <time>2015-08-04T09:47:06.703Z</time>
      </trkpt>
      <trkpt lat="45.98503" lon="4.86479">
        <ele>288.799987793</ele>
        <time>2015-08-04T09:47:07.735Z</time>
      </trkpt>
      <trkpt lat="45.98506" lon="4.86487">
        <ele>289</ele>
        <time>2015-08-04T09:47:08.702Z</time>
      </trkpt>
      <trkpt lat="45.9851" lon="4.86495">
        <ele>289.100006104</ele>
        <time>2015-08-04T09:47:09.761Z</time>
      </trkpt>
      <trkpt lat="45.98514" lon="4.86503">
        <ele>289.600006104</ele>
        <time>2015-08-04T09:47:10.741Z</time>
      </trkpt>
      <trkpt lat="45.98517" lon="4.86511">
        <ele>289.700012207</ele>
        <time>2015-08-04T09:47:11.734Z</time>
      </trkpt>
      <trkpt lat="45.98521" lon="4.86519">
        <ele>290.200012207</ele>
        <time>2015-08-04T09:47:12.703Z</time>
      </trkpt>
      <trkpt lat="45.98526" lon="4.86527">
        <ele>289.799987793</ele>
        <time>2015-08-04T09:47:13.735Z</time>
      </trkpt>
      <trkpt lat="45.98531" lon="4.86534">
        <ele>290</ele>
        <time>2015-08-04T09:47:14.704Z</time>
      </trkpt>
      <trkpt lat="45.98535" lon="4.86542">
        <ele>290.200012207</ele>
        <time>2015-08-04T09:47:15.745Z</time>
      </trkpt>
      <trkpt lat="45.98539" lon="4.8655">
        <ele>290.200012207</ele>
        <time>2015-08-04T09:47:16.705Z</time>
      </trkpt>
      <trkpt lat="45.98543" lon="4.86559">
        <ele>290.200012207</ele>
        <time>2015-08-04T09:47:17.74Z</time>
      </trkpt>
      <trkpt lat="45.98546" lon="4.86568">
        <ele>290.100006104</ele>
        <time>2015-08-04T09:47:18.726Z</time>
      </trkpt>
      <trkpt lat="45.98549" lon="4.86576">
        <ele>290.100006104</ele>
        <time>2015-08-04T09:47:19.737Z</time>
      </trkpt>
      <trkpt lat="45.98552" lon="4.86584">
        <ele>290</ele>
        <time>2015-08-04T09:47:20.704Z</time>
      </trkpt>
      <trkpt lat="45.98554" lon="4.86592">
        <ele>290.100006104</ele>
        <time>2015-08-04T09:47:21.736Z</time>
      </trkpt>
      <trkpt lat="45.98555" lon="4.866">
        <ele>290</ele>
        <time>2015-08-04T09:47:22.706Z</time>
      </trkpt>
      <trkpt lat="45.98556" lon="4.86609">
        <ele>289.799987793</ele>
        <time>2015-08-04T09:47:23.739Z</time>
      </trkpt>
      <trkpt lat="45.98557" lon="4.86618">
        <ele>289.600006104</ele>
        <time>2015-08-04T09:47:24.705Z</time>
      </trkpt>
      <trkpt lat="45.98559" lon="4.86627">
        <ele>289.399993896</ele>
        <time>2015-08-04T09:47:25.734Z</time>
      </trkpt>
      <trkpt lat="45.98561" lon="4.86635">
        <ele>289.100006104</ele>
        <time>2015-08-04T09:47:26.704Z</time>
      </trkpt>
      <trkpt lat="45.98563" lon="4.86643">
        <ele>288.899993896</ele>
        <time>2015-08-04T09:47:27.735Z</time>
      </trkpt>
      <trkpt lat="45.98564" lon="4.86651">
        <ele>288.899993896</ele>
        <time>2015-08-04T09:47:28.706Z</time>
      </trkpt>
      <trkpt lat="45.98565" lon="4.8666">
        <ele>288.700012207</ele>
        <time>2015-08-04T09:47:29.738Z</time>
      </trkpt>
      <trkpt lat="45.98566" lon="4.86669">
        <ele>288.5</ele>
        <time>2015-08-04T09:47:30.703Z</time>
      </trkpt>
      <trkpt lat="45.98567" lon="4.86679">
        <ele>288.200012207</ele>
        <time>2015-08-04T09:47:31.742Z</time>
      </trkpt>
      <trkpt lat="45.98568" lon="4.86689">
        <ele>287.899993896</ele>
        <time>2015-08-04T09:47:32.708Z</time>
      </trkpt>
      <trkpt lat="45.98568" lon="4.86698">
        <ele>287.600006104</ele>
        <time>2015-08-04T09:47:33.735Z</time>
      </trkpt>
      <trkpt lat="45.98569" lon="4.86707">
        <ele>287.299987793</ele>
        <time>2015-08-04T09:47:34.706Z</time>
      </trkpt>
      <trkpt lat="45.98569" lon="4.86716">
        <ele>287.200012207</ele>
        <time>2015-08-04T09:47:35.735Z</time>
      </trkpt>
      <trkpt lat="45.98571" lon="4.86726">
        <ele>286.700012207</ele>
        <time>2015-08-04T09:47:36.724Z</time>
      </trkpt>
      <trkpt lat="45.98571" lon="4.86735">
        <ele>286.799987793</ele>
        <time>2015-08-04T09:47:37.735Z</time>
      </trkpt>
      <trkpt lat="45.98572" lon="4.86745">
        <ele>286.700012207</ele>
        <time>2015-08-04T09:47:38.704Z</time>
      </trkpt>
      <trkpt lat="45.98574" lon="4.86755">
        <ele>286.600006104</ele>
        <time>2015-08-04T09:47:39.754Z</time>
      </trkpt>
      <trkpt lat="45.98577" lon="4.86766">
        <ele>286.700012207</ele>
        <time>2015-08-04T09:47:40.706Z</time>
      </trkpt>
      <trkpt lat="45.98581" lon="4.86776">
        <ele>286.700012207</ele>
        <time>2015-08-04T09:47:41.74Z</time>
      </trkpt>
      <trkpt lat="45.98583" lon="4.86786">
        <ele>286.700012207</ele>
        <time>2015-08-04T09:47:42.702Z</time>
      </trkpt>
      <trkpt lat="45.98584" lon="4.86794">
        <ele>286.100006104</ele>
        <time>2015-08-04T09:47:43.74Z</time>
      </trkpt>
      <trkpt lat="45.98585" lon="4.86803">
        <ele>285.799987793</ele>
        <time>2015-08-04T09:47:44.702Z</time>
      </trkpt>
      <trkpt lat="45.98586" lon="4.86813">
        <ele>285.700012207</ele>
        <time>2015-08-04T09:47:45.737Z</time>
      </trkpt>
      <trkpt lat="45.98587" lon="4.86822">
        <ele>285.299987793</ele>
        <time>2015-08-04T09:47:46.709Z</time>
      </trkpt>
      <trkpt lat="45.98588" lon="4.86832">
        <ele>285.100006104</ele>
        <time>2015-08-04T09:47:47.738Z</time>
      </trkpt>
      <trkpt lat="45.98589" lon="4.86842">
        <ele>284.899993896</ele>
        <time>2015-08-04T09:47:48.706Z</time>
      </trkpt>
      <trkpt lat="45.9859" lon="4.86851">
        <ele>284.5</ele>
        <time>2015-08-04T09:47:49.736Z</time>
      </trkpt>
      <trkpt lat="45.9859" lon="4.8686">
        <ele>284.100006104</ele>
        <time>2015-08-04T09:47:50.7Z</time>
      </trkpt>
      <trkpt lat="45.98591" lon="4.86869">
        <ele>284.100006104</ele>
        <time>2015-08-04T09:47:51.736Z</time>
      </trkpt>
      <trkpt lat="45.98591" lon="4.86878">
        <ele>283.899993896</ele>
        <time>2015-08-04T09:47:52.703Z</time>
      </trkpt>
      <trkpt lat="45.98592" lon="4.86886">
        <ele>283.100006104</ele>
        <time>2015-08-04T09:47:53.736Z</time>
      </trkpt>
      <trkpt lat="45.98592" lon="4.86895">
        <ele>282.299987793</ele>
        <time>2015-08-04T09:47:54.704Z</time>
      </trkpt>
      <trkpt lat="45.98591" lon="4.86904">
        <ele>281.899993896</ele>
        <time>2015-08-04T09:47:55.755Z</time>
      </trkpt>
      <trkpt lat="45.98592" lon="4.86914">
        <ele>281.5</ele>
        <time>2015-08-04T09:47:56.704Z</time>
      </trkpt>
      <trkpt lat="45.98592" lon="4.86923">
        <ele>281</ele>
        <time>2015-08-04T09:47:57.735Z</time>
      </trkpt>
      <trkpt lat="45.98591" lon="4.86934">
        <ele>280.700012207</ele>
        <time>2015-08-04T09:47:58.706Z</time>
      </trkpt>
      <trkpt lat="45.98591" lon="4.86943">
        <ele>280.600006104</ele>
        <time>2015-08-04T09:47:59.74Z</time>
      </trkpt>
      <trkpt lat="45.9859" lon="4.86954">
        <ele>280.100006104</ele>
        <time>2015-08-04T09:48:00.704Z</time>
      </trkpt>
      <trkpt lat="45.9859" lon="4.86964">
        <ele>279.799987793</ele>
        <time>2015-08-04T09:48:01.743Z</time>
      </trkpt>
      <trkpt lat="45.9859" lon="4.86974">
        <ele>279.399993896</ele>
        <time>2015-08-04T09:48:02.699Z</time>
      </trkpt>
      <trkpt lat="45.98591" lon="4.86984">
        <ele>278.600006104</ele>
        <time>2015-08-04T09:48:03.738Z</time>
      </trkpt>
      <trkpt lat="45.98592" lon="4.86994">
        <ele>278.299987793</ele>
        <time>2015-08-04T09:48:04.705Z</time>
      </trkpt>
      <trkpt lat="45.98594" lon="4.87004">
        <ele>277.700012207</ele>
        <time>2015-08-04T09:48:05.78Z</time>
      </trkpt>
      <trkpt lat="45.98596" lon="4.87013">
        <ele>276.600006104</ele>
        <time>2015-08-04T09:48:06.705Z</time>
      </trkpt>
      <trkpt lat="45.98598" lon="4.87023">
        <ele>276.100006104</ele>
        <time>2015-08-04T09:48:07.741Z</time>
      </trkpt>
      <trkpt lat="45.986" lon="4.87034">
        <ele>275.600006104</ele>
        <time>2015-08-04T09:48:08.703Z</time>
      </trkpt>
      <trkpt lat="45.98601" lon="4.87044">
        <ele>275.200012207</ele>
        <time>2015-08-04T09:48:09.761Z</time>
      </trkpt>
      <trkpt lat="45.98602" lon="4.87055">
        <ele>274.700012207</ele>
        <time>2015-08-04T09:48:10.706Z</time>
      </trkpt>
      <trkpt lat="45.98602" lon="4.87065">
        <ele>274.299987793</ele>
        <time>2015-08-04T09:48:11.738Z</time>
      </trkpt>
      <trkpt lat="45.98603" lon="4.87075">
        <ele>274</ele>
        <time>2015-08-04T09:48:12.702Z</time>
      </trkpt>
      <trkpt lat="45.98603" lon="4.87086">
        <ele>273.600006104</ele>
        <time>2015-08-04T09:48:13.796Z</time>
      </trkpt>
      <trkpt lat="45.98604" lon="4.87098">
        <ele>273</ele>
        <time>2015-08-04T09:48:14.703Z</time>
      </trkpt>
      <trkpt lat="45.98607" lon="4.87109">
        <ele>272.700012207</ele>
        <time>2015-08-04T09:48:15.739Z</time>
      </trkpt>
      <trkpt lat="45.98609" lon="4.8712">
        <ele>272.399993896</ele>
        <time>2015-08-04T09:48:16.706Z</time>
      </trkpt>
      <trkpt lat="45.9861" lon="4.8713">
        <ele>272</ele>
        <time>2015-08-04T09:48:17.735Z</time>
      </trkpt>
      <trkpt lat="45.9861" lon="4.87141">
        <ele>271.700012207</ele>
        <time>2015-08-04T09:48:18.705Z</time>
      </trkpt>
      <trkpt lat="45.9861" lon="4.8715">
        <ele>271.299987793</ele>
        <time>2015-08-04T09:48:19.875Z</time>
      </trkpt>
      <trkpt lat="45.9861" lon="4.8716">
        <ele>270.200012207</ele>
        <time>2015-08-04T09:48:20.703Z</time>
      </trkpt>
      <trkpt lat="45.9861" lon="4.8717">
        <ele>269.700012207</ele>
        <time>2015-08-04T09:48:21.754Z</time>
      </trkpt>
      <trkpt lat="45.9861" lon="4.8718">
        <ele>269.299987793</ele>
        <time>2015-08-04T09:48:22.706Z</time>
      </trkpt>
      <trkpt lat="45.98609" lon="4.87188">
        <ele>269</ele>
        <time>2015-08-04T09:48:23.774Z</time>
      </trkpt>
      <trkpt lat="45.98608" lon="4.87198">
        <ele>269.100006104</ele>
        <time>2015-08-04T09:48:24.704Z</time>
      </trkpt>
      <trkpt lat="45.98604" lon="4.8721">
        <ele>268.5</ele>
        <time>2015-08-04T09:48:25.74Z</time>
      </trkpt>
      <trkpt lat="45.98602" lon="4.87221">
        <ele>267.899993896</ele>
        <time>2015-08-04T09:48:26.703Z</time>
      </trkpt>
      <trkpt lat="45.98601" lon="4.87231">
        <ele>267.5</ele>
        <time>2015-08-04T09:48:27.742Z</time>
      </trkpt>
      <trkpt lat="45.986" lon="4.87241">
        <ele>267.200012207</ele>
        <time>2015-08-04T09:48:28.705Z</time>
      </trkpt>
      <trkpt lat="45.98599" lon="4.87252">
        <ele>267.200012207</ele>
        <time>2015-08-04T09:48:29.846Z</time>
      </trkpt>
      <trkpt lat="45.98599" lon="4.87263">
        <ele>267.299987793</ele>
        <time>2015-08-04T09:48:30.728Z</time>
      </trkpt>
      <trkpt lat="45.98597" lon="4.87273">
        <ele>267.5</ele>
        <time>2015-08-04T09:48:31.735Z</time>
      </trkpt>
      <trkpt lat="45.98597" lon="4.87283">
        <ele>267.899993896</ele>
        <time>2015-08-04T09:48:32.739Z</time>
      </trkpt>
      <trkpt lat="45.98597" lon="4.87294">
        <ele>267.899993896</ele>
        <time>2015-08-04T09:48:33.74Z</time>
      </trkpt>
      <trkpt lat="45.98599" lon="4.87305">
        <ele>267.600006104</ele>
        <time>2015-08-04T09:48:34.705Z</time>
      </trkpt>
      <trkpt lat="45.98601" lon="4.87317">
        <ele>267.299987793</ele>
        <time>2015-08-04T09:48:35.745Z</time>
      </trkpt>
      <trkpt lat="45.98604" lon="4.87328">
        <ele>267.200012207</ele>
        <time>2015-08-04T09:48:36.705Z</time>
      </trkpt>
      <trkpt lat="45.98606" lon="4.8734">
        <ele>266.799987793</ele>
        <time>2015-08-04T09:48:37.754Z</time>
      </trkpt>
      <trkpt lat="45.98609" lon="4.87351">
        <ele>266.5</ele>
        <time>2015-08-04T09:48:38.705Z</time>
      </trkpt>
      <trkpt lat="45.98609" lon="4.87351">
        <ele>266.5</ele>
        <time>2015-08-04T09:48:38.987Z</time>
      </trkpt>
      <trkpt lat="45.98611" lon="4.87364">
        <ele>266.100006104</ele>
        <time>2015-08-04T09:48:39.703Z</time>
      </trkpt>
      <trkpt lat="45.98612" lon="4.87376">
        <ele>265.700012207</ele>
        <time>2015-08-04T09:48:40.736Z</time>
      </trkpt>
      <trkpt lat="45.98615" lon="4.87388">
        <ele>265.5</ele>
        <time>2015-08-04T09:48:41.703Z</time>
      </trkpt>
      <trkpt lat="45.98617" lon="4.874">
        <ele>265.399993896</ele>
        <time>2015-08-04T09:48:42.736Z</time>
      </trkpt>
      <trkpt lat="45.98619" lon="4.87412">
        <ele>265.200012207</ele>
        <time>2015-08-04T09:48:43.703Z</time>
      </trkpt>
      <trkpt lat="45.98621" lon="4.87424">
        <ele>264.899993896</ele>
        <time>2015-08-04T09:48:44.735Z</time>
      </trkpt>
      <trkpt lat="45.98623" lon="4.87436">
        <ele>264.600006104</ele>
        <time>2015-08-04T09:48:45.704Z</time>
      </trkpt>
      <trkpt lat="45.98624" lon="4.87448">
        <ele>264.399993896</ele>
        <time>2015-08-04T09:48:46.738Z</time>
      </trkpt>
      <trkpt lat="45.98626" lon="4.8746">
        <ele>264</ele>
        <time>2015-08-04T09:48:47.705Z</time>
      </trkpt>
      <trkpt lat="45.98629" lon="4.87471">
        <ele>263.799987793</ele>
        <time>2015-08-04T09:48:48.753Z</time>
      </trkpt>
      <trkpt lat="45.98633" lon="4.87481">
        <ele>263.399993896</ele>
        <time>2015-08-04T09:48:49.703Z</time>
      </trkpt>
      <trkpt lat="45.98635" lon="4.87492">
        <ele>263.200012207</ele>
        <time>2015-08-04T09:48:50.736Z</time>
      </trkpt>
      <trkpt lat="45.98637" lon="4.87503">
        <ele>263.899993896</ele>
        <time>2015-08-04T09:48:51.704Z</time>
      </trkpt>
      <trkpt lat="45.9864" lon="4.87514">
        <ele>263.899993896</ele>
        <time>2015-08-04T09:48:52.741Z</time>
      </trkpt>
      <trkpt lat="45.98642" lon="4.87524">
        <ele>264.100006104</ele>
        <time>2015-08-04T09:48:53.704Z</time>
      </trkpt>
      <trkpt lat="45.98645" lon="4.87535">
        <ele>264.200012207</ele>
        <time>2015-08-04T09:48:54.738Z</time>
      </trkpt>
      <trkpt lat="45.98648" lon="4.87546">
        <ele>264.200012207</ele>
        <time>2015-08-04T09:48:55.746Z</time>
      </trkpt>
      <trkpt lat="45.98653" lon="4.87556">
        <ele>263.700012207</ele>
        <time>2015-08-04T09:48:56.786Z</time>
      </trkpt>
      <trkpt lat="45.98657" lon="4.87563">
        <ele>264.5</ele>
        <time>2015-08-04T09:48:57.704Z</time>
      </trkpt>
      <trkpt lat="45.98663" lon="4.87568">
        <ele>264.5</ele>
        <time>2015-08-04T09:48:58.756Z</time>
      </trkpt>
      <trkpt lat="45.98669" lon="4.8757">
        <ele>264.5</ele>
        <time>2015-08-04T09:48:59.703Z</time>
      </trkpt>
      <trkpt lat="45.98675" lon="4.8757">
        <ele>264.399993896</ele>
        <time>2015-08-04T09:49:00.74Z</time>
      </trkpt>
      <trkpt lat="45.9868" lon="4.8757">
        <ele>264.200012207</ele>
        <time>2015-08-04T09:49:01.703Z</time>
      </trkpt>
      <trkpt lat="45.98687" lon="4.8757">
        <ele>263.899993896</ele>
        <time>2015-08-04T09:49:02.739Z</time>
      </trkpt>
      <trkpt lat="45.98693" lon="4.87569">
        <ele>263.899993896</ele>
        <time>2015-08-04T09:49:03.703Z</time>
      </trkpt>
      <trkpt lat="45.98699" lon="4.87567">
        <ele>263.899993896</ele>
        <time>2015-08-04T09:49:04.74Z</time>
      </trkpt>
      <trkpt lat="45.98705" lon="4.87565">
        <ele>263.899993896</ele>
        <time>2015-08-04T09:49:05.705Z</time>
      </trkpt>
      <trkpt lat="45.9871" lon="4.87564">
        <ele>263.899993896</ele>
        <time>2015-08-04T09:49:06.735Z</time>
      </trkpt>
      <trkpt lat="45.98716" lon="4.87563">
        <ele>263.600006104</ele>
        <time>2015-08-04T09:49:07.704Z</time>
      </trkpt>
      <trkpt lat="45.98721" lon="4.87562">
        <ele>263.700012207</ele>
        <time>2015-08-04T09:49:08.735Z</time>
      </trkpt>
      <trkpt lat="45.98727" lon="4.87562">
        <ele>263.799987793</ele>
        <time>2015-08-04T09:49:09.704Z</time>
      </trkpt>
      <trkpt lat="45.98733" lon="4.87563">
        <ele>263.899993896</ele>
        <time>2015-08-04T09:49:10.749Z</time>
      </trkpt>
      <trkpt lat="45.9874" lon="4.87565">
        <ele>263.899993896</ele>
        <time>2015-08-04T09:49:11.704Z</time>
      </trkpt>
      <trkpt lat="45.98746" lon="4.87567">
        <ele>264.299987793</ele>
        <time>2015-08-04T09:49:12.745Z</time>
      </trkpt>
      <trkpt lat="45.9875" lon="4.8757">
        <ele>264.399993896</ele>
        <time>2015-08-04T09:49:13.703Z</time>
      </trkpt>
      <trkpt lat="45.98755" lon="4.87574">
        <ele>264.700012207</ele>
        <time>2015-08-04T09:49:14.754Z</time>
      </trkpt>
      <trkpt lat="45.98761" lon="4.87578">
        <ele>265</ele>
        <time>2015-08-04T09:49:15.704Z</time>
      </trkpt>
      <trkpt lat="45.98766" lon="4.87582">
        <ele>265.200012207</ele>
        <time>2015-08-04T09:49:16.778Z</time>
      </trkpt>
      <trkpt lat="45.98771" lon="4.87587">
        <ele>265.600006104</ele>
        <time>2015-08-04T09:49:17.704Z</time>
      </trkpt>
      <trkpt lat="45.98775" lon="4.87592">
        <ele>265.600006104</ele>
        <time>2015-08-04T09:49:18.736Z</time>
      </trkpt>
      <trkpt lat="45.98779" lon="4.87596">
        <ele>265.799987793</ele>
        <time>2015-08-04T09:49:19.703Z</time>
      </trkpt>
      <trkpt lat="45.98783" lon="4.87601">
        <ele>265.799987793</ele>
        <time>2015-08-04T09:49:20.734Z</time>
      </trkpt>
      <trkpt lat="45.98786" lon="4.87606">
        <ele>265.899993896</ele>
        <time>2015-08-04T09:49:21.702Z</time>
      </trkpt>
      <trkpt lat="45.98789" lon="4.87611">
        <ele>265.899993896</ele>
        <time>2015-08-04T09:49:22.737Z</time>
      </trkpt>
      <trkpt lat="45.98793" lon="4.87617">
        <ele>266.200012207</ele>
        <time>2015-08-04T09:49:23.704Z</time>
      </trkpt>
      <trkpt lat="45.98796" lon="4.87623">
        <ele>266.399993896</ele>
        <time>2015-08-04T09:49:24.756Z</time>
      </trkpt>
      <trkpt lat="45.98798" lon="4.8763">
        <ele>266.5</ele>
        <time>2015-08-04T09:49:25.704Z</time>
      </trkpt>
      <trkpt lat="45.988" lon="4.87637">
        <ele>266.5</ele>
        <time>2015-08-04T09:49:26.735Z</time>
      </trkpt>
      <trkpt lat="45.98803" lon="4.87644">
        <ele>266.600006104</ele>
        <time>2015-08-04T09:49:27.704Z</time>
      </trkpt>
      <trkpt lat="45.98806" lon="4.8765">
        <ele>266.600006104</ele>
        <time>2015-08-04T09:49:28.742Z</time>
      </trkpt>
      <trkpt lat="45.98808" lon="4.87658">
        <ele>266.600006104</ele>
        <time>2015-08-04T09:49:29.703Z</time>
      </trkpt>
      <trkpt lat="45.98809" lon="4.87665">
        <ele>266.600006104</ele>
        <time>2015-08-04T09:49:30.767Z</time>
      </trkpt>
      <trkpt lat="45.98811" lon="4.87672">
        <ele>266.399993896</ele>
        <time>2015-08-04T09:49:31.703Z</time>
      </trkpt>
      <trkpt lat="45.98813" lon="4.87679">
        <ele>266.299987793</ele>
        <time>2015-08-04T09:49:32.752Z</time>
      </trkpt>
      <trkpt lat="45.98815" lon="4.87685">
        <ele>266.200012207</ele>
        <time>2015-08-04T09:49:33.703Z</time>
      </trkpt>
      <trkpt lat="45.98817" lon="4.87694">
        <ele>266.399993896</ele>
        <time>2015-08-04T09:49:34.746Z</time>
      </trkpt>
      <trkpt lat="45.98818" lon="4.87701">
        <ele>266.700012207</ele>
        <time>2015-08-04T09:49:35.703Z</time>
      </trkpt>
      <trkpt lat="45.98822" lon="4.87711">
        <ele>266.899993896</ele>
        <time>2015-08-04T09:49:36.739Z</time>
      </trkpt>
      <trkpt lat="45.98824" lon="4.8772">
        <ele>266.899993896</ele>
        <time>2015-08-04T09:49:37.704Z</time>
      </trkpt>
      <trkpt lat="45.98827" lon="4.87728">
        <ele>267.200012207</ele>
        <time>2015-08-04T09:49:38.739Z</time>
      </trkpt>
      <trkpt lat="45.98829" lon="4.87736">
        <ele>267.299987793</ele>
        <time>2015-08-04T09:49:39.691Z</time>
      </trkpt>
      <trkpt lat="45.98831" lon="4.87743">
        <ele>267.600006104</ele>
        <time>2015-08-04T09:49:40.74Z</time>
      </trkpt>
      <trkpt lat="45.98833" lon="4.87751">
        <ele>268.100006104</ele>
        <time>2015-08-04T09:49:41.704Z</time>
      </trkpt>
      <trkpt lat="45.98834" lon="4.87758">
        <ele>268.100006104</ele>
        <time>2015-08-04T09:49:42.742Z</time>
      </trkpt>
      <trkpt lat="45.98837" lon="4.87766">
        <ele>268.299987793</ele>
        <time>2015-08-04T09:49:43.701Z</time>
      </trkpt>
      <trkpt lat="45.98839" lon="4.87774">
        <ele>268.399993896</ele>
        <time>2015-08-04T09:49:44.735Z</time>
      </trkpt>
      <trkpt lat="45.98842" lon="4.87781">
        <ele>268.399993896</ele>
        <time>2015-08-04T09:49:45.704Z</time>
      </trkpt>
      <trkpt lat="45.98844" lon="4.87788">
        <ele>268.5</ele>
        <time>2015-08-04T09:49:46.739Z</time>
      </trkpt>
      <trkpt lat="45.98847" lon="4.87795">
        <ele>268.399993896</ele>
        <time>2015-08-04T09:49:47.704Z</time>
      </trkpt>
      <trkpt lat="45.98849" lon="4.87803">
        <ele>268.399993896</ele>
        <time>2015-08-04T09:49:48.746Z</time>
      </trkpt>
      <trkpt lat="45.98852" lon="4.87809">
        <ele>268.299987793</ele>
        <time>2015-08-04T09:49:49.704Z</time>
      </trkpt>
      <trkpt lat="45.98855" lon="4.87817">
        <ele>268</ele>
        <time>2015-08-04T09:49:50.735Z</time>
      </trkpt>
      <trkpt lat="45.98858" lon="4.87824">
        <ele>268</ele>
        <time>2015-08-04T09:49:51.703Z</time>
      </trkpt>
      <trkpt lat="45.9886" lon="4.8783">
        <ele>268.100006104</ele>
        <time>2015-08-04T09:49:52.786Z</time>
      </trkpt>
      <trkpt lat="45.98862" lon="4.87837">
        <ele>268</ele>
        <time>2015-08-04T09:49:53.703Z</time>
      </trkpt>
      <trkpt lat="45.98865" lon="4.87843">
        <ele>268</ele>
        <time>2015-08-04T09:49:54.744Z</time>
      </trkpt>
      <trkpt lat="45.98869" lon="4.87849">
        <ele>268.100006104</ele>
        <time>2015-08-04T09:49:55.704Z</time>
      </trkpt>
      <trkpt lat="45.98873" lon="4.87856">
        <ele>268</ele>
        <time>2015-08-04T09:49:56.759Z</time>
      </trkpt>
      <trkpt lat="45.98876" lon="4.87861">
        <ele>267.799987793</ele>
        <time>2015-08-04T09:49:57.704Z</time>
      </trkpt>
      <trkpt lat="45.98881" lon="4.87866">
        <ele>267.600006104</ele>
        <time>2015-08-04T09:49:58.738Z</time>
      </trkpt>
      <trkpt lat="45.98885" lon="4.87872">
        <ele>267.5</ele>
        <time>2015-08-04T09:49:59.704Z</time>
      </trkpt>
      <trkpt lat="45.98888" lon="4.87877">
        <ele>267.700012207</ele>
        <time>2015-08-04T09:50:00.826Z</time>
      </trkpt>
      <trkpt lat="45.98893" lon="4.87882">
        <ele>267.799987793</ele>
        <time>2015-08-04T09:50:01.704Z</time>
      </trkpt>
      <trkpt lat="45.98897" lon="4.87887">
        <ele>267.799987793</ele>
        <time>2015-08-04T09:50:02.736Z</time>
      </trkpt>
      <trkpt lat="45.98901" lon="4.87892">
        <ele>267.700012207</ele>
        <time>2015-08-04T09:50:03.703Z</time>
      </trkpt>
      <trkpt lat="45.98906" lon="4.87897">
        <ele>267.299987793</ele>
        <time>2015-08-04T09:50:04.744Z</time>
      </trkpt>
      <trkpt lat="45.9891" lon="4.879">
        <ele>267.299987793</ele>
        <time>2015-08-04T09:50:05.704Z</time>
      </trkpt>
      <trkpt lat="45.98913" lon="4.87904">
        <ele>266.700012207</ele>
        <time>2015-08-04T09:50:06.75Z</time>
      </trkpt>
      <trkpt lat="45.98918" lon="4.87908">
        <ele>266.899993896</ele>
        <time>2015-08-04T09:50:07.704Z</time>
      </trkpt>
      <trkpt lat="45.98923" lon="4.87912">
        <ele>266.899993896</ele>
        <time>2015-08-04T09:50:08.739Z</time>
      </trkpt>
      <trkpt lat="45.98927" lon="4.87914">
        <ele>267</ele>
        <time>2015-08-04T09:50:09.703Z</time>
      </trkpt>
      <trkpt lat="45.98932" lon="4.87917">
        <ele>267.600006104</ele>
        <time>2015-08-04T09:50:10.737Z</time>
      </trkpt>
      <trkpt lat="45.98936" lon="4.87921">
        <ele>268</ele>
        <time>2015-08-04T09:50:11.702Z</time>
      </trkpt>
      <trkpt lat="45.98944" lon="4.87925">
        <ele>269</ele>
        <time>2015-08-04T09:50:13.736Z</time>
      </trkpt>
      <trkpt lat="45.98947" lon="4.87927">
        <ele>269.5</ele>
        <time>2015-08-04T09:50:14.704Z</time>
      </trkpt>
      <trkpt lat="45.98952" lon="4.87929">
        <ele>269.899993896</ele>
        <time>2015-08-04T09:50:15.744Z</time>
      </trkpt>
      <trkpt lat="45.98956" lon="4.87932">
        <ele>270.299987793</ele>
        <time>2015-08-04T09:50:16.706Z</time>
      </trkpt>
      <trkpt lat="45.98961" lon="4.87934">
        <ele>270.5</ele>
        <time>2015-08-04T09:50:17.749Z</time>
      </trkpt>
      <trkpt lat="45.98965" lon="4.87937">
        <ele>270.799987793</ele>
        <time>2015-08-04T09:50:18.728Z</time>
      </trkpt>
      <trkpt lat="45.98972" lon="4.87941">
        <ele>271</ele>
        <time>2015-08-04T09:50:20.742Z</time>
      </trkpt>
      <trkpt lat="45.98975" lon="4.87943">
        <ele>271.200012207</ele>
        <time>2015-08-04T09:50:21.705Z</time>
      </trkpt>
      <trkpt lat="45.98983" lon="4.87947">
        <ele>271.700012207</ele>
        <time>2015-08-04T09:50:23.742Z</time>
      </trkpt>
      <trkpt lat="45.98987" lon="4.87949">
        <ele>271.700012207</ele>
        <time>2015-08-04T09:50:24.705Z</time>
      </trkpt>
      <trkpt lat="45.98996" lon="4.87953">
        <ele>272</ele>
        <time>2015-08-04T09:50:26.739Z</time>
      </trkpt>
      <trkpt lat="45.99" lon="4.87954">
        <ele>272.100006104</ele>
        <time>2015-08-04T09:50:27.704Z</time>
      </trkpt>
      <trkpt lat="45.99008" lon="4.87957">
        <ele>272.100006104</ele>
        <time>2015-08-04T09:50:29.736Z</time>
      </trkpt>
      <trkpt lat="45.99012" lon="4.87958">
        <ele>272.299987793</ele>
        <time>2015-08-04T09:50:30.705Z</time>
      </trkpt>
      <trkpt lat="45.9902" lon="4.87962">
        <ele>272.799987793</ele>
        <time>2015-08-04T09:50:32.741Z</time>
      </trkpt>
      <trkpt lat="45.99024" lon="4.87964">
        <ele>273</ele>
        <time>2015-08-04T09:50:33.704Z</time>
      </trkpt>
      <trkpt lat="45.99031" lon="4.87969">
        <ele>273.399993896</ele>
        <time>2015-08-04T09:50:35.739Z</time>
      </trkpt>
      <trkpt lat="45.99034" lon="4.87971">
        <ele>274.399993896</ele>
        <time>2015-08-04T09:50:36.703Z</time>
      </trkpt>
      <trkpt lat="45.99042" lon="4.87974">
        <ele>274.5</ele>
        <time>2015-08-04T09:50:38.739Z</time>
      </trkpt>
      <trkpt lat="45.99046" lon="4.87977">
        <ele>274.200012207</ele>
        <time>2015-08-04T09:50:39.702Z</time>
      </trkpt>
      <trkpt lat="45.99053" lon="4.87984">
        <ele>274.5</ele>
        <time>2015-08-04T09:50:41.739Z</time>
      </trkpt>
      <trkpt lat="45.99057" lon="4.87988">
        <ele>274.600006104</ele>
        <time>2015-08-04T09:50:42.723Z</time>
      </trkpt>
      <trkpt lat="45.99064" lon="4.87993">
        <ele>275.600006104</ele>
        <time>2015-08-04T09:50:44.78Z</time>
      </trkpt>
      <trkpt lat="45.99067" lon="4.87996">
        <ele>276.200012207</ele>
        <time>2015-08-04T09:50:45.703Z</time>
      </trkpt>
      <trkpt lat="45.99075" lon="4.88001">
        <ele>277.100006104</ele>
        <time>2015-08-04T09:50:47.735Z</time>
      </trkpt>
      <trkpt lat="45.99079" lon="4.88004">
        <ele>277.399993896</ele>
        <time>2015-08-04T09:50:48.708Z</time>
      </trkpt>
      <trkpt lat="45.99083" lon="4.88006">
        <ele>277.899993896</ele>
        <time>2015-08-04T09:50:49.736Z</time>
      </trkpt>
      <trkpt lat="45.99087" lon="4.88008">
        <ele>278.5</ele>
        <time>2015-08-04T09:50:50.704Z</time>
      </trkpt>
      <trkpt lat="45.99092" lon="4.8801">
        <ele>278.799987793</ele>
        <time>2015-08-04T09:50:51.739Z</time>
      </trkpt>
      <trkpt lat="45.99096" lon="4.88012">
        <ele>279</ele>
        <time>2015-08-04T09:50:52.704Z</time>
      </trkpt>
      <trkpt lat="45.99104" lon="4.88017">
        <ele>279.200012207</ele>
        <time>2015-08-04T09:50:54.739Z</time>
      </trkpt>
      <trkpt lat="45.99108" lon="4.8802">
        <ele>279.399993896</ele>
        <time>2015-08-04T09:50:55.704Z</time>
      </trkpt>
      <trkpt lat="45.99116" lon="4.88024">
        <ele>279.700012207</ele>
        <time>2015-08-04T09:50:57.74Z</time>
      </trkpt>
      <trkpt lat="45.9912" lon="4.88026">
        <ele>279.899993896</ele>
        <time>2015-08-04T09:50:58.704Z</time>
      </trkpt>
      <trkpt lat="45.99124" lon="4.88029">
        <ele>280.100006104</ele>
        <time>2015-08-04T09:50:59.735Z</time>
      </trkpt>
      <trkpt lat="45.99128" lon="4.88031">
        <ele>280.200012207</ele>
        <time>2015-08-04T09:51:00.705Z</time>
      </trkpt>
      <trkpt lat="45.99136" lon="4.88036">
        <ele>280.299987793</ele>
        <time>2015-08-04T09:51:02.742Z</time>
      </trkpt>
      <trkpt lat="45.99141" lon="4.88039">
        <ele>280.299987793</ele>
        <time>2015-08-04T09:51:03.7Z</time>
      </trkpt>
      <trkpt lat="45.99145" lon="4.88041">
        <ele>280.399993896</ele>
        <time>2015-08-04T09:51:04.764Z</time>
      </trkpt>
      <trkpt lat="45.99149" lon="4.88044">
        <ele>280.5</ele>
        <time>2015-08-04T09:51:05.704Z</time>
      </trkpt>
      <trkpt lat="45.99153" lon="4.88046">
        <ele>280.5</ele>
        <time>2015-08-04T09:51:06.744Z</time>
      </trkpt>
      <trkpt lat="45.99158" lon="4.88049">
        <ele>280.5</ele>
        <time>2015-08-04T09:51:07.704Z</time>
      </trkpt>
      <trkpt lat="45.99166" lon="4.88054">
        <ele>280.799987793</ele>
        <time>2015-08-04T09:51:09.762Z</time>
      </trkpt>
      <trkpt lat="45.9917" lon="4.88057">
        <ele>281</ele>
        <time>2015-08-04T09:51:10.706Z</time>
      </trkpt>
      <trkpt lat="45.99174" lon="4.8806">
        <ele>280.899993896</ele>
        <time>2015-08-04T09:51:11.744Z</time>
      </trkpt>
      <trkpt lat="45.99178" lon="4.88063">
        <ele>280.799987793</ele>
        <time>2015-08-04T09:51:12.719Z</time>
      </trkpt>
      <trkpt lat="45.99182" lon="4.88067">
        <ele>281.299987793</ele>
        <time>2015-08-04T09:51:13.745Z</time>
      </trkpt>
      <trkpt lat="45.99186" lon="4.8807">
        <ele>281.399993896</ele>
        <time>2015-08-04T09:51:14.708Z</time>
      </trkpt>
      <trkpt lat="45.9919" lon="4.88074">
        <ele>281.700012207</ele>
        <time>2015-08-04T09:51:15.738Z</time>
      </trkpt>
      <trkpt lat="45.99194" lon="4.88077">
        <ele>282.200012207</ele>
        <time>2015-08-04T09:51:16.706Z</time>
      </trkpt>
      <trkpt lat="45.99201" lon="4.88084">
        <ele>283.100006104</ele>
        <time>2015-08-04T09:51:18.747Z</time>
      </trkpt>
      <trkpt lat="45.99205" lon="4.88088">
        <ele>283.399993896</ele>
        <time>2015-08-04T09:51:19.703Z</time>
      </trkpt>
      <trkpt lat="45.9921" lon="4.88091">
        <ele>283.600006104</ele>
        <time>2015-08-04T09:51:20.737Z</time>
      </trkpt>
      <trkpt lat="45.99214" lon="4.88095">
        <ele>283.600006104</ele>
        <time>2015-08-04T09:51:21.698Z</time>
      </trkpt>
      <trkpt lat="45.99221" lon="4.88101">
        <ele>283.799987793</ele>
        <time>2015-08-04T09:51:23.739Z</time>
      </trkpt>
      <trkpt lat="45.99225" lon="4.88105">
        <ele>283.5</ele>
        <time>2015-08-04T09:51:24.704Z</time>
      </trkpt>
      <trkpt lat="45.99229" lon="4.88109">
        <ele>283.5</ele>
        <time>2015-08-04T09:51:25.74Z</time>
      </trkpt>
      <trkpt lat="45.99234" lon="4.88113">
        <ele>283.600006104</ele>
        <time>2015-08-04T09:51:26.704Z</time>
      </trkpt>
      <trkpt lat="45.99238" lon="4.88116">
        <ele>283.700012207</ele>
        <time>2015-08-04T09:51:27.736Z</time>
      </trkpt>
      <trkpt lat="45.99242" lon="4.88119">
        <ele>283.799987793</ele>
        <time>2015-08-04T09:51:28.706Z</time>
      </trkpt>
      <trkpt lat="45.99246" lon="4.88123">
        <ele>284</ele>
        <time>2015-08-04T09:51:29.749Z</time>
      </trkpt>
      <trkpt lat="45.9925" lon="4.88127">
        <ele>284.399993896</ele>
        <time>2015-08-04T09:51:30.718Z</time>
      </trkpt>
      <trkpt lat="45.99254" lon="4.88131">
        <ele>284.5</ele>
        <time>2015-08-04T09:51:31.735Z</time>
      </trkpt>
      <trkpt lat="45.99258" lon="4.88134">
        <ele>284.700012207</ele>
        <time>2015-08-04T09:51:32.698Z</time>
      </trkpt>
      <trkpt lat="45.99263" lon="4.88138">
        <ele>284.700012207</ele>
        <time>2015-08-04T09:51:33.736Z</time>
      </trkpt>
      <trkpt lat="45.99267" lon="4.88142">
        <ele>284.799987793</ele>
        <time>2015-08-04T09:51:34.706Z</time>
      </trkpt>
      <trkpt lat="45.99271" lon="4.88146">
        <ele>285.100006104</ele>
        <time>2015-08-04T09:51:35.735Z</time>
      </trkpt>
      <trkpt lat="45.99275" lon="4.88149">
        <ele>285.200012207</ele>
        <time>2015-08-04T09:51:36.705Z</time>
      </trkpt>
      <trkpt lat="45.99279" lon="4.88153">
        <ele>285.299987793</ele>
        <time>2015-08-04T09:51:37.787Z</time>
      </trkpt>
      <trkpt lat="45.99283" lon="4.88157">
        <ele>285.299987793</ele>
        <time>2015-08-04T09:51:38.704Z</time>
      </trkpt>
      <trkpt lat="45.99287" lon="4.88161">
        <ele>285.399993896</ele>
        <time>2015-08-04T09:51:39.791Z</time>
      </trkpt>
      <trkpt lat="45.99292" lon="4.88165">
        <ele>285.399993896</ele>
        <time>2015-08-04T09:51:40.708Z</time>
      </trkpt>
      <trkpt lat="45.99296" lon="4.8817">
        <ele>285.700012207</ele>
        <time>2015-08-04T09:51:41.738Z</time>
      </trkpt>
      <trkpt lat="45.99301" lon="4.88173">
        <ele>286.100006104</ele>
        <time>2015-08-04T09:51:42.708Z</time>
      </trkpt>
      <trkpt lat="45.99305" lon="4.88177">
        <ele>286.5</ele>
        <time>2015-08-04T09:51:43.757Z</time>
      </trkpt>
      <trkpt lat="45.99309" lon="4.88181">
        <ele>286.600006104</ele>
        <time>2015-08-04T09:51:44.704Z</time>
      </trkpt>
      <trkpt lat="45.99314" lon="4.88185">
        <ele>286.700012207</ele>
        <time>2015-08-04T09:51:45.736Z</time>
      </trkpt>
      <trkpt lat="45.99318" lon="4.88188">
        <ele>286.799987793</ele>
        <time>2015-08-04T09:51:46.705Z</time>
      </trkpt>
      <trkpt lat="45.99323" lon="4.88192">
        <ele>287</ele>
        <time>2015-08-04T09:51:47.738Z</time>
      </trkpt>
      <trkpt lat="45.99327" lon="4.88196">
        <ele>286.899993896</ele>
        <time>2015-08-04T09:51:48.705Z</time>
      </trkpt>
      <trkpt lat="45.99332" lon="4.882">
        <ele>287</ele>
        <time>2015-08-04T09:51:49.881Z</time>
      </trkpt>
      <trkpt lat="45.99336" lon="4.88203">
        <ele>287.100006104</ele>
        <time>2015-08-04T09:51:50.704Z</time>
      </trkpt>
      <trkpt lat="45.9934" lon="4.88206">
        <ele>287.299987793</ele>
        <time>2015-08-04T09:51:51.753Z</time>
      </trkpt>
      <trkpt lat="45.99344" lon="4.8821">
        <ele>287.600006104</ele>
        <time>2015-08-04T09:51:52.716Z</time>
      </trkpt>
      <trkpt lat="45.99348" lon="4.88214">
        <ele>287.700012207</ele>
        <time>2015-08-04T09:51:53.735Z</time>
      </trkpt>
      <trkpt lat="45.99353" lon="4.88217">
        <ele>287.799987793</ele>
        <time>2015-08-04T09:51:54.706Z</time>
      </trkpt>
      <trkpt lat="45.99357" lon="4.8822">
        <ele>287.799987793</ele>
        <time>2015-08-04T09:51:55.735Z</time>
      </trkpt>
      <trkpt lat="45.99361" lon="4.88224">
        <ele>288.100006104</ele>
        <time>2015-08-04T09:51:56.7Z</time>
      </trkpt>
      <trkpt lat="45.99365" lon="4.88228">
        <ele>288.299987793</ele>
        <time>2015-08-04T09:51:57.739Z</time>
      </trkpt>
      <trkpt lat="45.99369" lon="4.88233">
        <ele>288.5</ele>
        <time>2015-08-04T09:51:58.706Z</time>
      </trkpt>
      <trkpt lat="45.99373" lon="4.88238">
        <ele>288.299987793</ele>
        <time>2015-08-04T09:51:59.749Z</time>
      </trkpt>
      <trkpt lat="45.99377" lon="4.88242">
        <ele>288.600006104</ele>
        <time>2015-08-04T09:52:00.704Z</time>
      </trkpt>
      <trkpt lat="45.9938" lon="4.88248">
        <ele>288.700012207</ele>
        <time>2015-08-04T09:52:01.741Z</time>
      </trkpt>
      <trkpt lat="45.99384" lon="4.88254">
        <ele>288.399993896</ele>
        <time>2015-08-04T09:52:02.703Z</time>
      </trkpt>
      <trkpt lat="45.99387" lon="4.88259">
        <ele>288.5</ele>
        <time>2015-08-04T09:52:03.739Z</time>
      </trkpt>
      <trkpt lat="45.9939" lon="4.88265">
        <ele>288.700012207</ele>
        <time>2015-08-04T09:52:04.706Z</time>
      </trkpt>
      <trkpt lat="45.99394" lon="4.88276">
        <ele>288.200012207</ele>
        <time>2015-08-04T09:52:06.761Z</time>
      </trkpt>
      <trkpt lat="45.99396" lon="4.88282">
        <ele>287.799987793</ele>
        <time>2015-08-04T09:52:07.7Z</time>
      </trkpt>
      <trkpt lat="45.99399" lon="4.88288">
        <ele>288</ele>
        <time>2015-08-04T09:52:08.734Z</time>
      </trkpt>
      <trkpt lat="45.99401" lon="4.88294">
        <ele>288</ele>
        <time>2015-08-04T09:52:09.704Z</time>
      </trkpt>
      <trkpt lat="45.99403" lon="4.883">
        <ele>288</ele>
        <time>2015-08-04T09:52:10.739Z</time>
      </trkpt>
      <trkpt lat="45.99406" lon="4.88307">
        <ele>287.600006104</ele>
        <time>2015-08-04T09:52:11.704Z</time>
      </trkpt>
      <trkpt lat="45.99408" lon="4.88313">
        <ele>287.5</ele>
        <time>2015-08-04T09:52:12.746Z</time>
      </trkpt>
      <trkpt lat="45.99411" lon="4.88319">
        <ele>287.200012207</ele>
        <time>2015-08-04T09:52:13.704Z</time>
      </trkpt>
      <trkpt lat="45.99413" lon="4.88325">
        <ele>287</ele>
        <time>2015-08-04T09:52:14.771Z</time>
      </trkpt>
      <trkpt lat="45.99415" lon="4.88331">
        <ele>286.600006104</ele>
        <time>2015-08-04T09:52:15.7Z</time>
      </trkpt>
      <trkpt lat="45.99417" lon="4.88337">
        <ele>286.799987793</ele>
        <time>2015-08-04T09:52:16.736Z</time>
      </trkpt>
      <trkpt lat="45.9942" lon="4.88343">
        <ele>286.700012207</ele>
        <time>2015-08-04T09:52:17.7Z</time>
      </trkpt>
      <trkpt lat="45.99423" lon="4.88348">
        <ele>286.799987793</ele>
        <time>2015-08-04T09:52:18.734Z</time>
      </trkpt>
      <trkpt lat="45.99425" lon="4.88354">
        <ele>286.700012207</ele>
        <time>2015-08-04T09:52:19.7Z</time>
      </trkpt>
      <trkpt lat="45.99427" lon="4.8836">
        <ele>286.399993896</ele>
        <time>2015-08-04T09:52:20.738Z</time>
      </trkpt>
      <trkpt lat="45.99429" lon="4.88366">
        <ele>286.600006104</ele>
        <time>2015-08-04T09:52:21.704Z</time>
      </trkpt>
      <trkpt lat="45.99431" lon="4.88372">
        <ele>286.799987793</ele>
        <time>2015-08-04T09:52:22.756Z</time>
      </trkpt>
      <trkpt lat="45.99434" lon="4.88378">
        <ele>287.100006104</ele>
        <time>2015-08-04T09:52:23.703Z</time>
      </trkpt>
      <trkpt lat="45.99437" lon="4.88384">
        <ele>287.100006104</ele>
        <time>2015-08-04T09:52:24.736Z</time>
      </trkpt>
      <trkpt lat="45.9944" lon="4.88389">
        <ele>286.899993896</ele>
        <time>2015-08-04T09:52:25.704Z</time>
      </trkpt>
      <trkpt lat="45.99443" lon="4.88394">
        <ele>286.799987793</ele>
        <time>2015-08-04T09:52:26.739Z</time>
      </trkpt>
      <trkpt lat="45.99446" lon="4.884">
        <ele>286.799987793</ele>
        <time>2015-08-04T09:52:27.704Z</time>
      </trkpt>
      <trkpt lat="45.9945" lon="4.88405">
        <ele>286.799987793</ele>
        <time>2015-08-04T09:52:28.747Z</time>
      </trkpt>
      <trkpt lat="45.99454" lon="4.88409">
        <ele>286.799987793</ele>
        <time>2015-08-04T09:52:29.702Z</time>
      </trkpt>
      <trkpt lat="45.99459" lon="4.88414">
        <ele>286.899993896</ele>
        <time>2015-08-04T09:52:30.735Z</time>
      </trkpt>
      <trkpt lat="45.99463" lon="4.88418">
        <ele>286</ele>
        <time>2015-08-04T09:52:31.703Z</time>
      </trkpt>
      <trkpt lat="45.99467" lon="4.88421">
        <ele>286.100006104</ele>
        <time>2015-08-04T09:52:32.79Z</time>
      </trkpt>
      <trkpt lat="45.99472" lon="4.88425">
        <ele>286.5</ele>
        <time>2015-08-04T09:52:33.701Z</time>
      </trkpt>
      <trkpt lat="45.99476" lon="4.8843">
        <ele>286.399993896</ele>
        <time>2015-08-04T09:52:34.745Z</time>
      </trkpt>
      <trkpt lat="45.9948" lon="4.88434">
        <ele>286.700012207</ele>
        <time>2015-08-04T09:52:35.704Z</time>
      </trkpt>
      <trkpt lat="45.99483" lon="4.88439">
        <ele>286.200012207</ele>
        <time>2015-08-04T09:52:36.735Z</time>
      </trkpt>
      <trkpt lat="45.99487" lon="4.88444">
        <ele>286.399993896</ele>
        <time>2015-08-04T09:52:37.706Z</time>
      </trkpt>
      <trkpt lat="45.9949" lon="4.88449">
        <ele>286.5</ele>
        <time>2015-08-04T09:52:38.735Z</time>
      </trkpt>
      <trkpt lat="45.99493" lon="4.88455">
        <ele>286.700012207</ele>
        <time>2015-08-04T09:52:39.703Z</time>
      </trkpt>
      <trkpt lat="45.99496" lon="4.88461">
        <ele>286.799987793</ele>
        <time>2015-08-04T09:52:40.738Z</time>
      </trkpt>
      <trkpt lat="45.99498" lon="4.88466">
        <ele>287.200012207</ele>
        <time>2015-08-04T09:52:41.701Z</time>
      </trkpt>
      <trkpt lat="45.99501" lon="4.88472">
        <ele>287.200012207</ele>
        <time>2015-08-04T09:52:42.749Z</time>
      </trkpt>
      <trkpt lat="45.99504" lon="4.88478">
        <ele>287.600006104</ele>
        <time>2015-08-04T09:52:43.686Z</time>
      </trkpt>
      <trkpt lat="45.99507" lon="4.88484">
        <ele>287.600006104</ele>
        <time>2015-08-04T09:52:44.736Z</time>
      </trkpt>
      <trkpt lat="45.99509" lon="4.8849">
        <ele>288.200012207</ele>
        <time>2015-08-04T09:52:45.704Z</time>
      </trkpt>
      <trkpt lat="45.99512" lon="4.88496">
        <ele>288.100006104</ele>
        <time>2015-08-04T09:52:46.74Z</time>
      </trkpt>
      <trkpt lat="45.99515" lon="4.88502">
        <ele>288.5</ele>
        <time>2015-08-04T09:52:47.702Z</time>
      </trkpt>
      <trkpt lat="45.99518" lon="4.88508">
        <ele>288.5</ele>
        <time>2015-08-04T09:52:48.749Z</time>
      </trkpt>
      <trkpt lat="45.99521" lon="4.88514">
        <ele>288.799987793</ele>
        <time>2015-08-04T09:52:49.7Z</time>
      </trkpt>
      <trkpt lat="45.99524" lon="4.8852">
        <ele>289</ele>
        <time>2015-08-04T09:52:50.745Z</time>
      </trkpt>
      <trkpt lat="45.99527" lon="4.88526">
        <ele>289</ele>
        <time>2015-08-04T09:52:51.705Z</time>
      </trkpt>
      <trkpt lat="45.9953" lon="4.88532">
        <ele>289.5</ele>
        <time>2015-08-04T09:52:52.75Z</time>
      </trkpt>
      <trkpt lat="45.99532" lon="4.88537">
        <ele>289.5</ele>
        <time>2015-08-04T09:52:53.796Z</time>
      </trkpt>
      <trkpt lat="45.99535" lon="4.88543">
        <ele>289.200012207</ele>
        <time>2015-08-04T09:52:54.735Z</time>
      </trkpt>
      <trkpt lat="45.99537" lon="4.88549">
        <ele>290</ele>
        <time>2015-08-04T09:52:55.705Z</time>
      </trkpt>
      <trkpt lat="45.99539" lon="4.88554">
        <ele>290.5</ele>
        <time>2015-08-04T09:52:56.735Z</time>
      </trkpt>
      <trkpt lat="45.99541" lon="4.88561">
        <ele>291.100006104</ele>
        <time>2015-08-04T09:52:57.7Z</time>
      </trkpt>
      <trkpt lat="45.99543" lon="4.88567">
        <ele>291.299987793</ele>
        <time>2015-08-04T09:52:58.736Z</time>
      </trkpt>
      <trkpt lat="45.99545" lon="4.88573">
        <ele>291.600006104</ele>
        <time>2015-08-04T09:52:59.7Z</time>
      </trkpt>
      <trkpt lat="45.99547" lon="4.8858">
        <ele>292.100006104</ele>
        <time>2015-08-04T09:53:00.762Z</time>
      </trkpt>
      <trkpt lat="45.99548" lon="4.88586">
        <ele>292.399993896</ele>
        <time>2015-08-04T09:53:01.704Z</time>
      </trkpt>
      <trkpt lat="45.99549" lon="4.88593">
        <ele>293.200012207</ele>
        <time>2015-08-04T09:53:02.746Z</time>
      </trkpt>
      <trkpt lat="45.9955" lon="4.88599">
        <ele>294</ele>
        <time>2015-08-04T09:53:03.705Z</time>
      </trkpt>
      <trkpt lat="45.99551" lon="4.88606">
        <ele>293.899993896</ele>
        <time>2015-08-04T09:53:04.752Z</time>
      </trkpt>
      <trkpt lat="45.99552" lon="4.88613">
        <ele>294</ele>
        <time>2015-08-04T09:53:05.703Z</time>
      </trkpt>
      <trkpt lat="45.99553" lon="4.8862">
        <ele>293.799987793</ele>
        <time>2015-08-04T09:53:06.745Z</time>
      </trkpt>
      <trkpt lat="45.99553" lon="4.88627">
        <ele>293.899993896</ele>
        <time>2015-08-04T09:53:07.696Z</time>
      </trkpt>
      <trkpt lat="45.99554" lon="4.88634">
        <ele>293.799987793</ele>
        <time>2015-08-04T09:53:08.736Z</time>
      </trkpt>
      <trkpt lat="45.99554" lon="4.88641">
        <ele>293.799987793</ele>
        <time>2015-08-04T09:53:09.699Z</time>
      </trkpt>
      <trkpt lat="45.99555" lon="4.88648">
        <ele>293.299987793</ele>
        <time>2015-08-04T09:53:10.738Z</time>
      </trkpt>
      <trkpt lat="45.99556" lon="4.88654">
        <ele>293.5</ele>
        <time>2015-08-04T09:53:11.705Z</time>
      </trkpt>
      <trkpt lat="45.99557" lon="4.88661">
        <ele>293.899993896</ele>
        <time>2015-08-04T09:53:12.752Z</time>
      </trkpt>
      <trkpt lat="45.99557" lon="4.88669">
        <ele>294.100006104</ele>
        <time>2015-08-04T09:53:13.705Z</time>
      </trkpt>
      <trkpt lat="45.99557" lon="4.88676">
        <ele>294.100006104</ele>
        <time>2015-08-04T09:53:14.738Z</time>
      </trkpt>
      <trkpt lat="45.99558" lon="4.88684">
        <ele>294.399993896</ele>
        <time>2015-08-04T09:53:15.7Z</time>
      </trkpt>
      <trkpt lat="45.99558" lon="4.88692">
        <ele>294.399993896</ele>
        <time>2015-08-04T09:53:16.767Z</time>
      </trkpt>
      <trkpt lat="45.99559" lon="4.887">
        <ele>294.700012207</ele>
        <time>2015-08-04T09:53:17.703Z</time>
      </trkpt>
      <trkpt lat="45.9956" lon="4.88708">
        <ele>294.5</ele>
        <time>2015-08-04T09:53:18.766Z</time>
      </trkpt>
      <trkpt lat="45.99561" lon="4.88716">
        <ele>294.600006104</ele>
        <time>2015-08-04T09:53:19.699Z</time>
      </trkpt>
      <trkpt lat="45.99562" lon="4.88724">
        <ele>294.5</ele>
        <time>2015-08-04T09:53:20.735Z</time>
      </trkpt>
      <trkpt lat="45.99563" lon="4.88731">
        <ele>294.5</ele>
        <time>2015-08-04T09:53:21.7Z</time>
      </trkpt>
      <trkpt lat="45.99564" lon="4.88739">
        <ele>294.200012207</ele>
        <time>2015-08-04T09:53:22.75Z</time>
      </trkpt>
      <trkpt lat="45.99565" lon="4.88747">
        <ele>294.200012207</ele>
        <time>2015-08-04T09:53:23.705Z</time>
      </trkpt>
      <trkpt lat="45.99566" lon="4.88755">
        <ele>294.100006104</ele>
        <time>2015-08-04T09:53:24.736Z</time>
      </trkpt>
      <trkpt lat="45.99567" lon="4.88764">
        <ele>294.5</ele>
        <time>2015-08-04T09:53:25.736Z</time>
      </trkpt>
      <trkpt lat="45.99568" lon="4.88772">
        <ele>294.700012207</ele>
        <time>2015-08-04T09:53:26.827Z</time>
      </trkpt>
      <trkpt lat="45.99569" lon="4.88781">
        <ele>295</ele>
        <time>2015-08-04T09:53:27.705Z</time>
      </trkpt>
      <trkpt lat="45.99569" lon="4.88789">
        <ele>295.100006104</ele>
        <time>2015-08-04T09:53:28.736Z</time>
      </trkpt>
      <trkpt lat="45.9957" lon="4.88798">
        <ele>295.600006104</ele>
        <time>2015-08-04T09:53:29.7Z</time>
      </trkpt>
      <trkpt lat="45.99571" lon="4.88806">
        <ele>296.100006104</ele>
        <time>2015-08-04T09:53:30.759Z</time>
      </trkpt>
      <trkpt lat="45.99572" lon="4.88815">
        <ele>296.299987793</ele>
        <time>2015-08-04T09:53:31.699Z</time>
      </trkpt>
      <trkpt lat="45.99573" lon="4.88823">
        <ele>296.600006104</ele>
        <time>2015-08-04T09:53:32.74Z</time>
      </trkpt>
      <trkpt lat="45.99574" lon="4.88832">
        <ele>296.700012207</ele>
        <time>2015-08-04T09:53:33.703Z</time>
      </trkpt>
      <trkpt lat="45.99575" lon="4.88841">
        <ele>296.700012207</ele>
        <time>2015-08-04T09:53:34.739Z</time>
      </trkpt>
      <trkpt lat="45.99576" lon="4.8885">
        <ele>296.700012207</ele>
        <time>2015-08-04T09:53:35.703Z</time>
      </trkpt>
      <trkpt lat="45.99577" lon="4.88858">
        <ele>296.799987793</ele>
        <time>2015-08-04T09:53:36.796Z</time>
      </trkpt>
      <trkpt lat="45.99578" lon="4.88867">
        <ele>296.299987793</ele>
        <time>2015-08-04T09:53:37.705Z</time>
      </trkpt>
      <trkpt lat="45.99579" lon="4.88876">
        <ele>295.899993896</ele>
        <time>2015-08-04T09:53:38.786Z</time>
      </trkpt>
      <trkpt lat="45.9958" lon="4.88884">
        <ele>295.899993896</ele>
        <time>2015-08-04T09:53:39.703Z</time>
      </trkpt>
      <trkpt lat="45.99581" lon="4.88893">
        <ele>295.799987793</ele>
        <time>2015-08-04T09:53:40.736Z</time>
      </trkpt>
      <trkpt lat="45.99582" lon="4.88901">
        <ele>296</ele>
        <time>2015-08-04T09:53:41.704Z</time>
      </trkpt>
      <trkpt lat="45.99583" lon="4.8891">
        <ele>295.899993896</ele>
        <time>2015-08-04T09:53:42.738Z</time>
      </trkpt>
      <trkpt lat="45.99584" lon="4.88918">
        <ele>295.899993896</ele>
        <time>2015-08-04T09:53:43.735Z</time>
      </trkpt>
      <trkpt lat="45.99584" lon="4.88927">
        <ele>296.299987793</ele>
        <time>2015-08-04T09:53:44.735Z</time>
      </trkpt>
      <trkpt lat="45.99585" lon="4.88935">
        <ele>296.5</ele>
        <time>2015-08-04T09:53:45.703Z</time>
      </trkpt>
      <trkpt lat="45.99585" lon="4.88943">
        <ele>296.600006104</ele>
        <time>2015-08-04T09:53:46.817Z</time>
      </trkpt>
      <trkpt lat="45.99586" lon="4.88951">
        <ele>296.700012207</ele>
        <time>2015-08-04T09:53:47.703Z</time>
      </trkpt>
      <trkpt lat="45.99587" lon="4.8896">
        <ele>296.799987793</ele>
        <time>2015-08-04T09:53:48.743Z</time>
      </trkpt>
      <trkpt lat="45.99587" lon="4.88968">
        <ele>297.100006104</ele>
        <time>2015-08-04T09:53:49.705Z</time>
      </trkpt>
      <trkpt lat="45.99587" lon="4.88976">
        <ele>296.799987793</ele>
        <time>2015-08-04T09:53:50.735Z</time>
      </trkpt>
      <trkpt lat="45.99588" lon="4.88984">
        <ele>296.600006104</ele>
        <time>2015-08-04T09:53:51.699Z</time>
      </trkpt>
      <trkpt lat="45.99588" lon="4.88993">
        <ele>296.600006104</ele>
        <time>2015-08-04T09:53:52.758Z</time>
      </trkpt>
      <trkpt lat="45.99588" lon="4.89001">
        <ele>296.5</ele>
        <time>2015-08-04T09:53:53.721Z</time>
      </trkpt>
      <trkpt lat="45.99588" lon="4.89009">
        <ele>296.5</ele>
        <time>2015-08-04T09:53:54.735Z</time>
      </trkpt>
      <trkpt lat="45.99587" lon="4.89018">
        <ele>295.899993896</ele>
        <time>2015-08-04T09:53:55.693Z</time>
      </trkpt>
      <trkpt lat="45.99587" lon="4.89026">
        <ele>295.799987793</ele>
        <time>2015-08-04T09:53:56.796Z</time>
      </trkpt>
      <trkpt lat="45.99586" lon="4.89035">
        <ele>295.799987793</ele>
        <time>2015-08-04T09:53:57.705Z</time>
      </trkpt>
      <trkpt lat="45.99586" lon="4.89043">
        <ele>295.5</ele>
        <time>2015-08-04T09:53:58.741Z</time>
      </trkpt>
      <trkpt lat="45.99586" lon="4.89051">
        <ele>295.399993896</ele>
        <time>2015-08-04T09:53:59.7Z</time>
      </trkpt>
      <trkpt lat="45.99585" lon="4.89059">
        <ele>295.200012207</ele>
        <time>2015-08-04T09:54:00.735Z</time>
      </trkpt>
      <trkpt lat="45.99584" lon="4.89067">
        <ele>295</ele>
        <time>2015-08-04T09:54:01.705Z</time>
      </trkpt>
      <trkpt lat="45.99582" lon="4.89075">
        <ele>294.600006104</ele>
        <time>2015-08-04T09:54:02.777Z</time>
      </trkpt>
      <trkpt lat="45.99582" lon="4.89084">
        <ele>294.299987793</ele>
        <time>2015-08-04T09:54:03.699Z</time>
      </trkpt>
      <trkpt lat="45.99581" lon="4.89092">
        <ele>294.200012207</ele>
        <time>2015-08-04T09:54:04.737Z</time>
      </trkpt>
      <trkpt lat="45.9958" lon="4.891">
        <ele>294.100006104</ele>
        <time>2015-08-04T09:54:05.699Z</time>
      </trkpt>
      <trkpt lat="45.9958" lon="4.89107">
        <ele>294</ele>
        <time>2015-08-04T09:54:06.734Z</time>
      </trkpt>
      <trkpt lat="45.99581" lon="4.89115">
        <ele>294.100006104</ele>
        <time>2015-08-04T09:54:07.699Z</time>
      </trkpt>
      <trkpt lat="45.99581" lon="4.89122">
        <ele>294.399993896</ele>
        <time>2015-08-04T09:54:08.737Z</time>
      </trkpt>
      <trkpt lat="45.99581" lon="4.8913">
        <ele>294.299987793</ele>
        <time>2015-08-04T09:54:09.699Z</time>
      </trkpt>
      <trkpt lat="45.99581" lon="4.89139">
        <ele>293.899993896</ele>
        <time>2015-08-04T09:54:10.74Z</time>
      </trkpt>
      <trkpt lat="45.99582" lon="4.89148">
        <ele>293.799987793</ele>
        <time>2015-08-04T09:54:11.701Z</time>
      </trkpt>
      <trkpt lat="45.99582" lon="4.89155">
        <ele>293.600006104</ele>
        <time>2015-08-04T09:54:12.771Z</time>
      </trkpt>
      <trkpt lat="45.99583" lon="4.89164">
        <ele>293</ele>
        <time>2015-08-04T09:54:13.699Z</time>
      </trkpt>
      <trkpt lat="45.99583" lon="4.89172">
        <ele>292.899993896</ele>
        <time>2015-08-04T09:54:14.733Z</time>
      </trkpt>
      <trkpt lat="45.99584" lon="4.8918">
        <ele>292.700012207</ele>
        <time>2015-08-04T09:54:15.699Z</time>
      </trkpt>
      <trkpt lat="45.99584" lon="4.89188">
        <ele>292.700012207</ele>
        <time>2015-08-04T09:54:16.736Z</time>
      </trkpt>
      <trkpt lat="45.99584" lon="4.89197">
        <ele>293.5</ele>
        <time>2015-08-04T09:54:17.699Z</time>
      </trkpt>
      <trkpt lat="45.99584" lon="4.89206">
        <ele>293.899993896</ele>
        <time>2015-08-04T09:54:18.791Z</time>
      </trkpt>
      <trkpt lat="45.99584" lon="4.89215">
        <ele>295.299987793</ele>
        <time>2015-08-04T09:54:19.705Z</time>
      </trkpt>
      <trkpt lat="45.99584" lon="4.89223">
        <ele>295.5</ele>
        <time>2015-08-04T09:54:20.735Z</time>
      </trkpt>
      <trkpt lat="45.99584" lon="4.89232">
        <ele>296.299987793</ele>
        <time>2015-08-04T09:54:21.699Z</time>
      </trkpt>
      <trkpt lat="45.99584" lon="4.89241">
        <ele>296.899993896</ele>
        <time>2015-08-04T09:54:22.74Z</time>
      </trkpt>
      <trkpt lat="45.99584" lon="4.89249">
        <ele>296.600006104</ele>
        <time>2015-08-04T09:54:23.704Z</time>
      </trkpt>
      <trkpt lat="45.99585" lon="4.89257">
        <ele>297</ele>
        <time>2015-08-04T09:54:24.736Z</time>
      </trkpt>
      <trkpt lat="45.99585" lon="4.89266">
        <ele>297.5</ele>
        <time>2015-08-04T09:54:25.742Z</time>
      </trkpt>
      <trkpt lat="45.99585" lon="4.89274">
        <ele>297.899993896</ele>
        <time>2015-08-04T09:54:26.733Z</time>
      </trkpt>
      <trkpt lat="45.99585" lon="4.89282">
        <ele>297.899993896</ele>
        <time>2015-08-04T09:54:27.699Z</time>
      </trkpt>
      <trkpt lat="45.99586" lon="4.89289">
        <ele>298.100006104</ele>
        <time>2015-08-04T09:54:28.753Z</time>
      </trkpt>
      <trkpt lat="45.99586" lon="4.89297">
        <ele>298.399993896</ele>
        <time>2015-08-04T09:54:29.699Z</time>
      </trkpt>
      <trkpt lat="45.99586" lon="4.89305">
        <ele>298.600006104</ele>
        <time>2015-08-04T09:54:30.735Z</time>
      </trkpt>
      <trkpt lat="45.99587" lon="4.89313">
        <ele>298.600006104</ele>
        <time>2015-08-04T09:54:31.699Z</time>
      </trkpt>
      <trkpt lat="45.99587" lon="4.89321">
        <ele>298.5</ele>
        <time>2015-08-04T09:54:32.747Z</time>
      </trkpt>
      <trkpt lat="45.99588" lon="4.89329">
        <ele>298.5</ele>
        <time>2015-08-04T09:54:33.699Z</time>
      </trkpt>
      <trkpt lat="45.99589" lon="4.89337">
        <ele>298.5</ele>
        <time>2015-08-04T09:54:34.736Z</time>
      </trkpt>
      <trkpt lat="45.99589" lon="4.89346">
        <ele>298.700012207</ele>
        <time>2015-08-04T09:54:35.699Z</time>
      </trkpt>
      <trkpt lat="45.9959" lon="4.89354">
        <ele>298.899993896</ele>
        <time>2015-08-04T09:54:36.734Z</time>
      </trkpt>
      <trkpt lat="45.9959" lon="4.89362">
        <ele>298.899993896</ele>
        <time>2015-08-04T09:54:37.701Z</time>
      </trkpt>
      <trkpt lat="45.9959" lon="4.8937">
        <ele>299</ele>
        <time>2015-08-04T09:54:38.748Z</time>
      </trkpt>
      <trkpt lat="45.99591" lon="4.89378">
        <ele>299.100006104</ele>
        <time>2015-08-04T09:54:39.699Z</time>
      </trkpt>
      <trkpt lat="45.99592" lon="4.89386">
        <ele>299.200012207</ele>
        <time>2015-08-04T09:54:40.736Z</time>
      </trkpt>
      <trkpt lat="45.99592" lon="4.89394">
        <ele>299.399993896</ele>
        <time>2015-08-04T09:54:41.699Z</time>
      </trkpt>
      <trkpt lat="45.99593" lon="4.89401">
        <ele>299.600006104</ele>
        <time>2015-08-04T09:54:42.739Z</time>
      </trkpt>
      <trkpt lat="45.99593" lon="4.89409">
        <ele>299.600006104</ele>
        <time>2015-08-04T09:54:43.699Z</time>
      </trkpt>
      <trkpt lat="45.99593" lon="4.89416">
        <ele>299.399993896</ele>
        <time>2015-08-04T09:54:44.75Z</time>
      </trkpt>
      <trkpt lat="45.99594" lon="4.89424">
        <ele>299.200012207</ele>
        <time>2015-08-04T09:54:45.699Z</time>
      </trkpt>
      <trkpt lat="45.99595" lon="4.89431">
        <ele>299</ele>
        <time>2015-08-04T09:54:46.734Z</time>
      </trkpt>
      <trkpt lat="45.99596" lon="4.89439">
        <ele>299.200012207</ele>
        <time>2015-08-04T09:54:47.722Z</time>
      </trkpt>
      <trkpt lat="45.99596" lon="4.89447">
        <ele>299.299987793</ele>
        <time>2015-08-04T09:54:48.735Z</time>
      </trkpt>
      <trkpt lat="45.99596" lon="4.89455">
        <ele>299.5</ele>
        <time>2015-08-04T09:54:49.705Z</time>
      </trkpt>
      <trkpt lat="45.99596" lon="4.89464">
        <ele>300</ele>
        <time>2015-08-04T09:54:50.735Z</time>
      </trkpt>
      <trkpt lat="45.99597" lon="4.89472">
        <ele>300</ele>
        <time>2015-08-04T09:54:51.699Z</time>
      </trkpt>
      <trkpt lat="45.99597" lon="4.8948">
        <ele>299.899993896</ele>
        <time>2015-08-04T09:54:52.748Z</time>
      </trkpt>
      <trkpt lat="45.99598" lon="4.89488">
        <ele>299.899993896</ele>
        <time>2015-08-04T09:54:53.704Z</time>
      </trkpt>
      <trkpt lat="45.99598" lon="4.89495">
        <ele>299.700012207</ele>
        <time>2015-08-04T09:54:54.735Z</time>
      </trkpt>
      <trkpt lat="45.99598" lon="4.89503">
        <ele>299.399993896</ele>
        <time>2015-08-04T09:54:55.699Z</time>
      </trkpt>
      <trkpt lat="45.99599" lon="4.8951">
        <ele>299.299987793</ele>
        <time>2015-08-04T09:54:56.734Z</time>
      </trkpt>
      <trkpt lat="45.99599" lon="4.89518">
        <ele>299.100006104</ele>
        <time>2015-08-04T09:54:57.703Z</time>
      </trkpt>
      <trkpt lat="45.99599" lon="4.89526">
        <ele>299.600006104</ele>
        <time>2015-08-04T09:54:58.736Z</time>
      </trkpt>
      <trkpt lat="45.996" lon="4.89534">
        <ele>299.799987793</ele>
        <time>2015-08-04T09:54:59.699Z</time>
      </trkpt>
      <trkpt lat="45.996" lon="4.89542">
        <ele>299.899993896</ele>
        <time>2015-08-04T09:55:00.766Z</time>
      </trkpt>
      <trkpt lat="45.99601" lon="4.89549">
        <ele>299.899993896</ele>
        <time>2015-08-04T09:55:01.704Z</time>
      </trkpt>
      <trkpt lat="45.99602" lon="4.89558">
        <ele>299.899993896</ele>
        <time>2015-08-04T09:55:02.74Z</time>
      </trkpt>
      <trkpt lat="45.99602" lon="4.89566">
        <ele>299.700012207</ele>
        <time>2015-08-04T09:55:03.701Z</time>
      </trkpt>
      <trkpt lat="45.99602" lon="4.89574">
        <ele>299.799987793</ele>
        <time>2015-08-04T09:55:04.741Z</time>
      </trkpt>
      <trkpt lat="45.99603" lon="4.89582">
        <ele>300.200012207</ele>
        <time>2015-08-04T09:55:05.737Z</time>
      </trkpt>
      <trkpt lat="45.99604" lon="4.8959">
        <ele>300.299987793</ele>
        <time>2015-08-04T09:55:06.734Z</time>
      </trkpt>
      <trkpt lat="45.99604" lon="4.89598">
        <ele>300.299987793</ele>
        <time>2015-08-04T09:55:07.699Z</time>
      </trkpt>
      <trkpt lat="45.99605" lon="4.89606">
        <ele>300.100006104</ele>
        <time>2015-08-04T09:55:08.746Z</time>
      </trkpt>
      <trkpt lat="45.99605" lon="4.89614">
        <ele>300.200012207</ele>
        <time>2015-08-04T09:55:09.699Z</time>
      </trkpt>
      <trkpt lat="45.99605" lon="4.89622">
        <ele>300.100006104</ele>
        <time>2015-08-04T09:55:10.736Z</time>
      </trkpt>
      <trkpt lat="45.99605" lon="4.8963">
        <ele>300</ele>
        <time>2015-08-04T09:55:11.699Z</time>
      </trkpt>
      <trkpt lat="45.99605" lon="4.89638">
        <ele>300</ele>
        <time>2015-08-04T09:55:12.788Z</time>
      </trkpt>
      <trkpt lat="45.99605" lon="4.89646">
        <ele>300</ele>
        <time>2015-08-04T09:55:13.699Z</time>
      </trkpt>
      <trkpt lat="45.99605" lon="4.89654">
        <ele>300.100006104</ele>
        <time>2015-08-04T09:55:14.737Z</time>
      </trkpt>
      <trkpt lat="45.99605" lon="4.89662">
        <ele>300.200012207</ele>
        <time>2015-08-04T09:55:15.699Z</time>
      </trkpt>
      <trkpt lat="45.99605" lon="4.8967">
        <ele>300.299987793</ele>
        <time>2015-08-04T09:55:16.754Z</time>
      </trkpt>
      <trkpt lat="45.99605" lon="4.8968">
        <ele>300.200012207</ele>
        <time>2015-08-04T09:55:17.699Z</time>
      </trkpt>
      <trkpt lat="45.99605" lon="4.89689">
        <ele>300.399993896</ele>
        <time>2015-08-04T09:55:18.738Z</time>
      </trkpt>
      <trkpt lat="45.99604" lon="4.89697">
        <ele>300.399993896</ele>
        <time>2015-08-04T09:55:19.699Z</time>
      </trkpt>
      <trkpt lat="45.99604" lon="4.89706">
        <ele>300.399993896</ele>
        <time>2015-08-04T09:55:20.733Z</time>
      </trkpt>
      <trkpt lat="45.99604" lon="4.89714">
        <ele>300.600006104</ele>
        <time>2015-08-04T09:55:21.705Z</time>
      </trkpt>
      <trkpt lat="45.99603" lon="4.89722">
        <ele>301.100006104</ele>
        <time>2015-08-04T09:55:22.752Z</time>
      </trkpt>
      <trkpt lat="45.99604" lon="4.8973">
        <ele>301.5</ele>
        <time>2015-08-04T09:55:23.706Z</time>
      </trkpt>
      <trkpt lat="45.99602" lon="4.89737">
        <ele>302</ele>
        <time>2015-08-04T09:55:24.74Z</time>
      </trkpt>
      <trkpt lat="45.99602" lon="4.89745">
        <ele>302.100006104</ele>
        <time>2015-08-04T09:55:25.706Z</time>
      </trkpt>
      <trkpt lat="45.99602" lon="4.89753">
        <ele>302.5</ele>
        <time>2015-08-04T09:55:26.738Z</time>
      </trkpt>
      <trkpt lat="45.99602" lon="4.8976">
        <ele>302.799987793</ele>
        <time>2015-08-04T09:55:27.699Z</time>
      </trkpt>
      <trkpt lat="45.99602" lon="4.89769">
        <ele>303.100006104</ele>
        <time>2015-08-04T09:55:28.758Z</time>
      </trkpt>
      <trkpt lat="45.99601" lon="4.89778">
        <ele>303.200012207</ele>
        <time>2015-08-04T09:55:29.701Z</time>
      </trkpt>
      <trkpt lat="45.99601" lon="4.89786">
        <ele>303.399993896</ele>
        <time>2015-08-04T09:55:30.777Z</time>
      </trkpt>
      <trkpt lat="45.996" lon="4.89794">
        <ele>303.399993896</ele>
        <time>2015-08-04T09:55:31.705Z</time>
      </trkpt>
      <trkpt lat="45.99599" lon="4.89802">
        <ele>303.799987793</ele>
        <time>2015-08-04T09:55:32.755Z</time>
      </trkpt>
      <trkpt lat="45.99599" lon="4.8981">
        <ele>304.100006104</ele>
        <time>2015-08-04T09:55:33.748Z</time>
      </trkpt>
      <trkpt lat="45.99599" lon="4.89817">
        <ele>304.299987793</ele>
        <time>2015-08-04T09:55:34.751Z</time>
      </trkpt>
      <trkpt lat="45.99598" lon="4.89826">
        <ele>304.600006104</ele>
        <time>2015-08-04T09:55:35.746Z</time>
      </trkpt>
      <trkpt lat="45.99598" lon="4.89834">
        <ele>304.700012207</ele>
        <time>2015-08-04T09:55:36.738Z</time>
      </trkpt>
      <trkpt lat="45.99598" lon="4.89843">
        <ele>304.700012207</ele>
        <time>2015-08-04T09:55:37.699Z</time>
      </trkpt>
      <trkpt lat="45.99599" lon="4.89852">
        <ele>304.799987793</ele>
        <time>2015-08-04T09:55:38.734Z</time>
      </trkpt>
      <trkpt lat="45.99599" lon="4.89861">
        <ele>304.600006104</ele>
        <time>2015-08-04T09:55:39.699Z</time>
      </trkpt>
      <trkpt lat="45.99598" lon="4.8987">
        <ele>304.399993896</ele>
        <time>2015-08-04T09:55:40.736Z</time>
      </trkpt>
      <trkpt lat="45.99598" lon="4.89879">
        <ele>304.399993896</ele>
        <time>2015-08-04T09:55:41.699Z</time>
      </trkpt>
      <trkpt lat="45.99598" lon="4.89889">
        <ele>303.600006104</ele>
        <time>2015-08-04T09:55:42.74Z</time>
      </trkpt>
      <trkpt lat="45.99599" lon="4.89898">
        <ele>303.100006104</ele>
        <time>2015-08-04T09:55:43.699Z</time>
      </trkpt>
      <trkpt lat="45.99599" lon="4.89906">
        <ele>302.899993896</ele>
        <time>2015-08-04T09:55:44.734Z</time>
      </trkpt>
      <trkpt lat="45.996" lon="4.89915">
        <ele>303.100006104</ele>
        <time>2015-08-04T09:55:45.699Z</time>
      </trkpt>
      <trkpt lat="45.996" lon="4.89923">
        <ele>303.299987793</ele>
        <time>2015-08-04T09:55:46.736Z</time>
      </trkpt>
      <trkpt lat="45.99601" lon="4.8993">
        <ele>303.100006104</ele>
        <time>2015-08-04T09:55:47.699Z</time>
      </trkpt>
      <trkpt lat="45.99602" lon="4.89939">
        <ele>302.899993896</ele>
        <time>2015-08-04T09:55:48.784Z</time>
      </trkpt>
      <trkpt lat="45.99602" lon="4.89947">
        <ele>302.899993896</ele>
        <time>2015-08-04T09:55:49.699Z</time>
      </trkpt>
      <trkpt lat="45.99602" lon="4.89954">
        <ele>303</ele>
        <time>2015-08-04T09:55:50.762Z</time>
      </trkpt>
      <trkpt lat="45.99602" lon="4.89962">
        <ele>303</ele>
        <time>2015-08-04T09:55:51.699Z</time>
      </trkpt>
      <trkpt lat="45.99603" lon="4.89969">
        <ele>303.200012207</ele>
        <time>2015-08-04T09:55:52.742Z</time>
      </trkpt>
      <trkpt lat="45.99602" lon="4.89977">
        <ele>303.799987793</ele>
        <time>2015-08-04T09:55:53.698Z</time>
      </trkpt>
      <trkpt lat="45.99603" lon="4.89984">
        <ele>304</ele>
        <time>2015-08-04T09:55:54.734Z</time>
      </trkpt>
      <trkpt lat="45.99605" lon="4.89991">
        <ele>303.899993896</ele>
        <time>2015-08-04T09:55:55.703Z</time>
      </trkpt>
      <trkpt lat="45.99606" lon="4.89998">
        <ele>304</ele>
        <time>2015-08-04T09:55:56.734Z</time>
      </trkpt>
      <trkpt lat="45.99607" lon="4.90006">
        <ele>304</ele>
        <time>2015-08-04T09:55:57.698Z</time>
      </trkpt>
      <trkpt lat="45.9961" lon="4.90013">
        <ele>304</ele>
        <time>2015-08-04T09:55:58.735Z</time>
      </trkpt>
      <trkpt lat="45.99612" lon="4.90021">
        <ele>303.799987793</ele>
        <time>2015-08-04T09:55:59.699Z</time>
      </trkpt>
      <trkpt lat="45.99615" lon="4.90029">
        <ele>303.799987793</ele>
        <time>2015-08-04T09:56:00.781Z</time>
      </trkpt>
      <trkpt lat="45.99618" lon="4.90036">
        <ele>303.799987793</ele>
        <time>2015-08-04T09:56:01.701Z</time>
      </trkpt>
      <trkpt lat="45.99621" lon="4.90043">
        <ele>304</ele>
        <time>2015-08-04T09:56:02.743Z</time>
      </trkpt>
      <trkpt lat="45.99623" lon="4.90049">
        <ele>304.200012207</ele>
        <time>2015-08-04T09:56:03.699Z</time>
      </trkpt>
      <trkpt lat="45.99626" lon="4.90056">
        <ele>304.299987793</ele>
        <time>2015-08-04T09:56:04.761Z</time>
      </trkpt>
      <trkpt lat="45.9963" lon="4.90063">
        <ele>304.299987793</ele>
        <time>2015-08-04T09:56:05.746Z</time>
      </trkpt>
      <trkpt lat="45.99633" lon="4.90069">
        <ele>304.299987793</ele>
        <time>2015-08-04T09:56:06.737Z</time>
      </trkpt>
      <trkpt lat="45.99637" lon="4.90076">
        <ele>303.899993896</ele>
        <time>2015-08-04T09:56:07.702Z</time>
      </trkpt>
      <trkpt lat="45.99639" lon="4.90082">
        <ele>303.600006104</ele>
        <time>2015-08-04T09:56:08.734Z</time>
      </trkpt>
      <trkpt lat="45.99641" lon="4.90089">
        <ele>303</ele>
        <time>2015-08-04T09:56:09.699Z</time>
      </trkpt>
      <trkpt lat="45.99643" lon="4.90096">
        <ele>302.5</ele>
        <time>2015-08-04T09:56:10.736Z</time>
      </trkpt>
      <trkpt lat="45.99644" lon="4.90103">
        <ele>302.299987793</ele>
        <time>2015-08-04T09:56:11.699Z</time>
      </trkpt>
      <trkpt lat="45.99646" lon="4.9011">
        <ele>301.899993896</ele>
        <time>2015-08-04T09:56:12.744Z</time>
      </trkpt>
      <trkpt lat="45.99647" lon="4.90116">
        <ele>301.299987793</ele>
        <time>2015-08-04T09:56:13.699Z</time>
      </trkpt>
      <trkpt lat="45.9965" lon="4.90128">
        <ele>301.100006104</ele>
        <time>2015-08-04T09:56:15.733Z</time>
      </trkpt>
      <trkpt lat="45.99653" lon="4.90132">
        <ele>301.299987793</ele>
        <time>2015-08-04T09:56:16.705Z</time>
      </trkpt>
      <trkpt lat="45.99656" lon="4.90144">
        <ele>300.299987793</ele>
        <time>2015-08-04T09:56:18.735Z</time>
      </trkpt>
      <trkpt lat="45.99659" lon="4.9015">
        <ele>299.600006104</ele>
        <time>2015-08-04T09:56:19.698Z</time>
      </trkpt>
      <trkpt lat="45.99662" lon="4.9016">
        <ele>298.899993896</ele>
        <time>2015-08-04T09:56:21.738Z</time>
      </trkpt>
      <trkpt lat="45.99664" lon="4.90166">
        <ele>298.700012207</ele>
        <time>2015-08-04T09:56:22.708Z</time>
      </trkpt>
      <trkpt lat="45.99667" lon="4.90176">
        <ele>298.600006104</ele>
        <time>2015-08-04T09:56:24.738Z</time>
      </trkpt>
      <trkpt lat="45.99668" lon="4.90182">
        <ele>299</ele>
        <time>2015-08-04T09:56:25.698Z</time>
      </trkpt>
      <trkpt lat="45.99671" lon="4.90192">
        <ele>299.200012207</ele>
        <time>2015-08-04T09:56:27.733Z</time>
      </trkpt>
      <trkpt lat="45.99673" lon="4.90196">
        <ele>299.5</ele>
        <time>2015-08-04T09:56:28.705Z</time>
      </trkpt>
      <trkpt lat="45.99675" lon="4.90205">
        <ele>299.700012207</ele>
        <time>2015-08-04T09:56:30.74Z</time>
      </trkpt>
      <trkpt lat="45.99676" lon="4.9021">
        <ele>299.600006104</ele>
        <time>2015-08-04T09:56:31.703Z</time>
      </trkpt>
      <trkpt lat="45.99679" lon="4.9022">
        <ele>300.299987793</ele>
        <time>2015-08-04T09:56:33.733Z</time>
      </trkpt>
      <trkpt lat="45.99681" lon="4.90226">
        <ele>300.700012207</ele>
        <time>2015-08-04T09:56:34.728Z</time>
      </trkpt>
      <trkpt lat="45.99684" lon="4.90237">
        <ele>301.100006104</ele>
        <time>2015-08-04T09:56:36.846Z</time>
      </trkpt>
      <trkpt lat="45.99685" lon="4.90243">
        <ele>301.299987793</ele>
        <time>2015-08-04T09:56:37.699Z</time>
      </trkpt>
      <trkpt lat="45.99685" lon="4.90255">
        <ele>301.700012207</ele>
        <time>2015-08-04T09:56:39.738Z</time>
      </trkpt>
      <trkpt lat="45.99684" lon="4.9026">
        <ele>301.899993896</ele>
        <time>2015-08-04T09:56:40.706Z</time>
      </trkpt>
      <trkpt lat="45.99682" lon="4.90271">
        <ele>302.100006104</ele>
        <time>2015-08-04T09:56:42.738Z</time>
      </trkpt>
      <trkpt lat="45.9968" lon="4.90276">
        <ele>302.299987793</ele>
        <time>2015-08-04T09:56:43.699Z</time>
      </trkpt>
      <trkpt lat="45.99678" lon="4.90287">
        <ele>302.799987793</ele>
        <time>2015-08-04T09:56:45.734Z</time>
      </trkpt>
      <trkpt lat="45.99677" lon="4.90293">
        <ele>303.100006104</ele>
        <time>2015-08-04T09:56:46.704Z</time>
      </trkpt>
      <trkpt lat="45.99674" lon="4.90303">
        <ele>304.600006104</ele>
        <time>2015-08-04T09:56:48.738Z</time>
      </trkpt>
      <trkpt lat="45.99673" lon="4.90308">
        <ele>304.799987793</ele>
        <time>2015-08-04T09:56:49.698Z</time>
      </trkpt>
      <trkpt lat="45.99672" lon="4.90321">
        <ele>305</ele>
        <time>2015-08-04T09:56:52.739Z</time>
      </trkpt>
      <trkpt lat="45.99671" lon="4.90322">
        <ele>304.899993896</ele>
        <time>2015-08-04T09:56:53.698Z</time>
      </trkpt>
      <trkpt lat="45.99676" lon="4.90333">
        <ele>306.600006104</ele>
        <time>2015-08-04T09:57:01.738Z</time>
      </trkpt>
      <trkpt lat="45.99678" lon="4.90333">
        <ele>306.799987793</ele>
        <time>2015-08-04T09:57:02.701Z</time>
      </trkpt>
      <trkpt lat="45.99685" lon="4.90336">
        <ele>307.200012207</ele>
        <time>2015-08-04T09:57:05.827Z</time>
      </trkpt>
      <trkpt lat="45.99687" lon="4.90339">
        <ele>307.299987793</ele>
        <time>2015-08-04T09:57:06.705Z</time>
      </trkpt>
      <trkpt lat="45.99686" lon="4.90348">
        <ele>307.700012207</ele>
        <time>2015-08-04T09:57:08.734Z</time>
      </trkpt>
      <trkpt lat="45.99686" lon="4.90355">
        <ele>307.600006104</ele>
        <time>2015-08-04T09:57:09.708Z</time>
      </trkpt>
      <trkpt lat="45.99685" lon="4.90362">
        <ele>307.799987793</ele>
        <time>2015-08-04T09:57:10.747Z</time>
      </trkpt>
      <trkpt lat="45.99685" lon="4.90371">
        <ele>308</ele>
        <time>2015-08-04T09:57:11.704Z</time>
      </trkpt>
      <trkpt lat="45.99683" lon="4.90378">
        <ele>308</ele>
        <time>2015-08-04T09:57:12.741Z</time>
      </trkpt>
      <trkpt lat="45.99682" lon="4.90386">
        <ele>308.100006104</ele>
        <time>2015-08-04T09:57:13.698Z</time>
      </trkpt>
      <trkpt lat="45.9968" lon="4.90395">
        <ele>308.100006104</ele>
        <time>2015-08-04T09:57:14.733Z</time>
      </trkpt>
      <trkpt lat="45.99678" lon="4.90404">
        <ele>308.200012207</ele>
        <time>2015-08-04T09:57:15.698Z</time>
      </trkpt>
      <trkpt lat="45.99675" lon="4.90412">
        <ele>307.700012207</ele>
        <time>2015-08-04T09:57:16.738Z</time>
      </trkpt>
      <trkpt lat="45.99673" lon="4.9042">
        <ele>307.299987793</ele>
        <time>2015-08-04T09:57:17.695Z</time>
      </trkpt>
      <trkpt lat="45.9967" lon="4.90426">
        <ele>306.899993896</ele>
        <time>2015-08-04T09:57:18.769Z</time>
      </trkpt>
      <trkpt lat="45.99666" lon="4.90431">
        <ele>306.799987793</ele>
        <time>2015-08-04T09:57:19.698Z</time>
      </trkpt>
      <trkpt lat="45.99661" lon="4.90434">
        <ele>306.5</ele>
        <time>2015-08-04T09:57:20.747Z</time>
      </trkpt>
      <trkpt lat="45.99655" lon="4.90436">
        <ele>306.5</ele>
        <time>2015-08-04T09:57:21.698Z</time>
      </trkpt>
      <trkpt lat="45.99649" lon="4.90439">
        <ele>306.399993896</ele>
        <time>2015-08-04T09:57:22.783Z</time>
      </trkpt>
      <trkpt lat="45.99643" lon="4.90441">
        <ele>306.5</ele>
        <time>2015-08-04T09:57:23.702Z</time>
      </trkpt>
      <trkpt lat="45.99637" lon="4.90443">
        <ele>306.600006104</ele>
        <time>2015-08-04T09:57:24.743Z</time>
      </trkpt>
      <trkpt lat="45.99632" lon="4.90446">
        <ele>306.600006104</ele>
        <time>2015-08-04T09:57:25.698Z</time>
      </trkpt>
      <trkpt lat="45.99626" lon="4.90448">
        <ele>306.700012207</ele>
        <time>2015-08-04T09:57:26.733Z</time>
      </trkpt>
      <trkpt lat="45.9962" lon="4.90449">
        <ele>306.5</ele>
        <time>2015-08-04T09:57:27.698Z</time>
      </trkpt>
      <trkpt lat="45.99614" lon="4.9045">
        <ele>306.200012207</ele>
        <time>2015-08-04T09:57:28.766Z</time>
      </trkpt>
      <trkpt lat="45.99608" lon="4.9045">
        <ele>306.100006104</ele>
        <time>2015-08-04T09:57:29.699Z</time>
      </trkpt>
      <trkpt lat="45.99602" lon="4.90451">
        <ele>305.899993896</ele>
        <time>2015-08-04T09:57:30.814Z</time>
      </trkpt>
      <trkpt lat="45.99596" lon="4.90451">
        <ele>306</ele>
        <time>2015-08-04T09:57:31.698Z</time>
      </trkpt>
      <trkpt lat="45.99589" lon="4.90453">
        <ele>305.600006104</ele>
        <time>2015-08-04T09:57:32.742Z</time>
      </trkpt>
      <trkpt lat="45.99584" lon="4.90456">
        <ele>304.899993896</ele>
        <time>2015-08-04T09:57:33.757Z</time>
      </trkpt>
      <trkpt lat="45.99578" lon="4.9046">
        <ele>304.100006104</ele>
        <time>2015-08-04T09:57:34.752Z</time>
      </trkpt>
      <trkpt lat="45.99572" lon="4.90465">
        <ele>303.399993896</ele>
        <time>2015-08-04T09:57:35.702Z</time>
      </trkpt>
      <trkpt lat="45.99567" lon="4.90471">
        <ele>302.799987793</ele>
        <time>2015-08-04T09:57:36.738Z</time>
      </trkpt>
      <trkpt lat="45.99562" lon="4.90477">
        <ele>302.299987793</ele>
        <time>2015-08-04T09:57:37.698Z</time>
      </trkpt>
      <trkpt lat="45.99557" lon="4.90483">
        <ele>301.899993896</ele>
        <time>2015-08-04T09:57:39.021Z</time>
      </trkpt>
      <trkpt lat="45.99552" lon="4.90489">
        <ele>301.700012207</ele>
        <time>2015-08-04T09:57:39.748Z</time>
      </trkpt>
      <trkpt lat="45.99547" lon="4.90496">
        <ele>301</ele>
        <time>2015-08-04T09:57:40.752Z</time>
      </trkpt>
      <trkpt lat="45.99542" lon="4.90502">
        <ele>300.299987793</ele>
        <time>2015-08-04T09:57:41.717Z</time>
      </trkpt>
      <trkpt lat="45.99537" lon="4.90508">
        <ele>300.100006104</ele>
        <time>2015-08-04T09:57:42.935Z</time>
      </trkpt>
      <trkpt lat="45.99532" lon="4.90514">
        <ele>299.799987793</ele>
        <time>2015-08-04T09:57:43.716Z</time>
      </trkpt>
      <trkpt lat="45.99527" lon="4.9052">
        <ele>299.899993896</ele>
        <time>2015-08-04T09:57:45.079Z</time>
      </trkpt>
      <trkpt lat="45.99523" lon="4.90526">
        <ele>300</ele>
        <time>2015-08-04T09:57:45.733Z</time>
      </trkpt>
      <trkpt lat="45.99518" lon="4.90531">
        <ele>300</ele>
        <time>2015-08-04T09:57:46.756Z</time>
      </trkpt>
      <trkpt lat="45.99513" lon="4.90537">
        <ele>299.899993896</ele>
        <time>2015-08-04T09:57:47.717Z</time>
      </trkpt>
      <trkpt lat="45.99509" lon="4.90543">
        <ele>299.899993896</ele>
        <time>2015-08-04T09:57:48.758Z</time>
      </trkpt>
      <trkpt lat="45.99504" lon="4.90549">
        <ele>299.899993896</ele>
        <time>2015-08-04T09:57:49.72Z</time>
      </trkpt>
      <trkpt lat="45.99499" lon="4.90555">
        <ele>299.899993896</ele>
        <time>2015-08-04T09:57:50.762Z</time>
      </trkpt>
      <trkpt lat="45.99494" lon="4.9056">
        <ele>300.100006104</ele>
        <time>2015-08-04T09:57:51.713Z</time>
      </trkpt>
      <trkpt lat="45.99488" lon="4.90567">
        <ele>300.399993896</ele>
        <time>2015-08-04T09:57:52.856Z</time>
      </trkpt>
      <trkpt lat="45.99483" lon="4.90572">
        <ele>300.5</ele>
        <time>2015-08-04T09:57:53.703Z</time>
      </trkpt>
      <trkpt lat="45.99478" lon="4.90577">
        <ele>300.399993896</ele>
        <time>2015-08-04T09:57:54.755Z</time>
      </trkpt>
      <trkpt lat="45.99474" lon="4.90583">
        <ele>300.399993896</ele>
        <time>2015-08-04T09:57:55.726Z</time>
      </trkpt>
      <trkpt lat="45.9947" lon="4.90588">
        <ele>300.399993896</ele>
        <time>2015-08-04T09:57:56.744Z</time>
      </trkpt>
      <trkpt lat="45.99467" lon="4.90593">
        <ele>300.5</ele>
        <time>2015-08-04T09:57:57.713Z</time>
      </trkpt>
      <trkpt lat="45.99463" lon="4.90598">
        <ele>300.5</ele>
        <time>2015-08-04T09:57:58.742Z</time>
      </trkpt>
      <trkpt lat="45.99459" lon="4.90603">
        <ele>300.5</ele>
        <time>2015-08-04T09:57:59.702Z</time>
      </trkpt>
      <trkpt lat="45.99454" lon="4.90608">
        <ele>301.200012207</ele>
        <time>2015-08-04T09:58:00.741Z</time>
      </trkpt>
      <trkpt lat="45.99449" lon="4.90614">
        <ele>301.5</ele>
        <time>2015-08-04T09:58:01.71Z</time>
      </trkpt>
      <trkpt lat="45.99445" lon="4.90619">
        <ele>301.5</ele>
        <time>2015-08-04T09:58:02.743Z</time>
      </trkpt>
      <trkpt lat="45.9944" lon="4.90624">
        <ele>301.5</ele>
        <time>2015-08-04T09:58:03.707Z</time>
      </trkpt>
      <trkpt lat="45.99435" lon="4.90631">
        <ele>301.600006104</ele>
        <time>2015-08-04T09:58:04.744Z</time>
      </trkpt>
      <trkpt lat="45.99429" lon="4.90636">
        <ele>301.799987793</ele>
        <time>2015-08-04T09:58:05.709Z</time>
      </trkpt>
      <trkpt lat="45.99424" lon="4.90642">
        <ele>301.700012207</ele>
        <time>2015-08-04T09:58:06.74Z</time>
      </trkpt>
      <trkpt lat="45.9942" lon="4.90647">
        <ele>301.600006104</ele>
        <time>2015-08-04T09:58:07.703Z</time>
      </trkpt>
      <trkpt lat="45.99414" lon="4.90653">
        <ele>301.600006104</ele>
        <time>2015-08-04T09:58:08.739Z</time>
      </trkpt>
      <trkpt lat="45.9941" lon="4.90659">
        <ele>301.799987793</ele>
        <time>2015-08-04T09:58:09.709Z</time>
      </trkpt>
      <trkpt lat="45.99404" lon="4.90665">
        <ele>301.899993896</ele>
        <time>2015-08-04T09:58:10.749Z</time>
      </trkpt>
      <trkpt lat="45.99399" lon="4.90671">
        <ele>301.899993896</ele>
        <time>2015-08-04T09:58:11.708Z</time>
      </trkpt>
      <trkpt lat="45.99394" lon="4.90677">
        <ele>302</ele>
        <time>2015-08-04T09:58:12.741Z</time>
      </trkpt>
      <trkpt lat="45.99389" lon="4.90683">
        <ele>302.299987793</ele>
        <time>2015-08-04T09:58:13.709Z</time>
      </trkpt>
      <trkpt lat="45.99384" lon="4.9069">
        <ele>302.600006104</ele>
        <time>2015-08-04T09:58:14.741Z</time>
      </trkpt>
      <trkpt lat="45.99378" lon="4.90696">
        <ele>302.899993896</ele>
        <time>2015-08-04T09:58:15.707Z</time>
      </trkpt>
      <trkpt lat="45.99373" lon="4.90703">
        <ele>303.299987793</ele>
        <time>2015-08-04T09:58:16.765Z</time>
      </trkpt>
      <trkpt lat="45.99369" lon="4.90709">
        <ele>303.700012207</ele>
        <time>2015-08-04T09:58:17.708Z</time>
      </trkpt>
      <trkpt lat="45.99364" lon="4.90714">
        <ele>303.899993896</ele>
        <time>2015-08-04T09:58:18.738Z</time>
      </trkpt>
      <trkpt lat="45.99359" lon="4.9072">
        <ele>304</ele>
        <time>2015-08-04T09:58:19.699Z</time>
      </trkpt>
      <trkpt lat="45.99354" lon="4.90726">
        <ele>304.5</ele>
        <time>2015-08-04T09:58:20.741Z</time>
      </trkpt>
      <trkpt lat="45.99349" lon="4.90732">
        <ele>304.600006104</ele>
        <time>2015-08-04T09:58:21.723Z</time>
      </trkpt>
      <trkpt lat="45.99345" lon="4.90737">
        <ele>304.799987793</ele>
        <time>2015-08-04T09:58:22.744Z</time>
      </trkpt>
      <trkpt lat="45.99341" lon="4.90743">
        <ele>305.100006104</ele>
        <time>2015-08-04T09:58:23.703Z</time>
      </trkpt>
      <trkpt lat="45.99336" lon="4.90749">
        <ele>305.299987793</ele>
        <time>2015-08-04T09:58:24.803Z</time>
      </trkpt>
      <trkpt lat="45.99332" lon="4.90756">
        <ele>305.799987793</ele>
        <time>2015-08-04T09:58:25.708Z</time>
      </trkpt>
      <trkpt lat="45.99328" lon="4.90761">
        <ele>306</ele>
        <time>2015-08-04T09:58:26.744Z</time>
      </trkpt>
      <trkpt lat="45.99324" lon="4.90766">
        <ele>306.299987793</ele>
        <time>2015-08-04T09:58:27.705Z</time>
      </trkpt>
      <trkpt lat="45.99319" lon="4.90772">
        <ele>306.399993896</ele>
        <time>2015-08-04T09:58:28.743Z</time>
      </trkpt>
      <trkpt lat="45.99315" lon="4.90777">
        <ele>306.899993896</ele>
        <time>2015-08-04T09:58:29.705Z</time>
      </trkpt>
      <trkpt lat="45.9931" lon="4.90783">
        <ele>306.899993896</ele>
        <time>2015-08-04T09:58:30.738Z</time>
      </trkpt>
      <trkpt lat="45.99306" lon="4.90788">
        <ele>307</ele>
        <time>2015-08-04T09:58:31.708Z</time>
      </trkpt>
      <trkpt lat="45.99302" lon="4.90793">
        <ele>306.899993896</ele>
        <time>2015-08-04T09:58:32.768Z</time>
      </trkpt>
      <trkpt lat="45.99298" lon="4.90797">
        <ele>307.100006104</ele>
        <time>2015-08-04T09:58:33.705Z</time>
      </trkpt>
      <trkpt lat="45.99294" lon="4.90802">
        <ele>307.5</ele>
        <time>2015-08-04T09:58:34.741Z</time>
      </trkpt>
      <trkpt lat="45.99288" lon="4.90807">
        <ele>307.899993896</ele>
        <time>2015-08-04T09:58:35.706Z</time>
      </trkpt>
      <trkpt lat="45.99284" lon="4.90812">
        <ele>308</ele>
        <time>2015-08-04T09:58:36.744Z</time>
      </trkpt>
      <trkpt lat="45.99279" lon="4.90817">
        <ele>307.799987793</ele>
        <time>2015-08-04T09:58:37.708Z</time>
      </trkpt>
      <trkpt lat="45.99273" lon="4.90823">
        <ele>307.899993896</ele>
        <time>2015-08-04T09:58:38.736Z</time>
      </trkpt>
      <trkpt lat="45.99268" lon="4.90828">
        <ele>307.799987793</ele>
        <time>2015-08-04T09:58:39.708Z</time>
      </trkpt>
      <trkpt lat="45.99264" lon="4.90834">
        <ele>307.700012207</ele>
        <time>2015-08-04T09:58:40.743Z</time>
      </trkpt>
      <trkpt lat="45.9926" lon="4.9084">
        <ele>307.600006104</ele>
        <time>2015-08-04T09:58:41.704Z</time>
      </trkpt>
      <trkpt lat="45.99255" lon="4.90845">
        <ele>307.600006104</ele>
        <time>2015-08-04T09:58:42.751Z</time>
      </trkpt>
      <trkpt lat="45.9925" lon="4.90851">
        <ele>307.600006104</ele>
        <time>2015-08-04T09:58:43.708Z</time>
      </trkpt>
      <trkpt lat="45.99246" lon="4.90856">
        <ele>307.700012207</ele>
        <time>2015-08-04T09:58:44.739Z</time>
      </trkpt>
      <trkpt lat="45.99241" lon="4.90862">
        <ele>307.799987793</ele>
        <time>2015-08-04T09:58:45.704Z</time>
      </trkpt>
      <trkpt lat="45.99237" lon="4.90868">
        <ele>307.700012207</ele>
        <time>2015-08-04T09:58:46.739Z</time>
      </trkpt>
      <trkpt lat="45.99233" lon="4.90873">
        <ele>307.5</ele>
        <time>2015-08-04T09:58:47.704Z</time>
      </trkpt>
      <trkpt lat="45.99228" lon="4.90878">
        <ele>307.5</ele>
        <time>2015-08-04T09:58:48.777Z</time>
      </trkpt>
      <trkpt lat="45.99224" lon="4.90884">
        <ele>307.299987793</ele>
        <time>2015-08-04T09:58:49.705Z</time>
      </trkpt>
      <trkpt lat="45.99219" lon="4.90889">
        <ele>307.299987793</ele>
        <time>2015-08-04T09:58:50.74Z</time>
      </trkpt>
      <trkpt lat="45.99214" lon="4.90895">
        <ele>307.200012207</ele>
        <time>2015-08-04T09:58:51.698Z</time>
      </trkpt>
      <trkpt lat="45.9921" lon="4.90901">
        <ele>307.299987793</ele>
        <time>2015-08-04T09:58:52.747Z</time>
      </trkpt>
      <trkpt lat="45.99206" lon="4.90907">
        <ele>307.299987793</ele>
        <time>2015-08-04T09:58:53.7Z</time>
      </trkpt>
      <trkpt lat="45.99201" lon="4.90913">
        <ele>307.399993896</ele>
        <time>2015-08-04T09:58:54.741Z</time>
      </trkpt>
      <trkpt lat="45.99196" lon="4.9092">
        <ele>307.600006104</ele>
        <time>2015-08-04T09:58:55.701Z</time>
      </trkpt>
      <trkpt lat="45.99192" lon="4.90927">
        <ele>307.600006104</ele>
        <time>2015-08-04T09:58:56.743Z</time>
      </trkpt>
      <trkpt lat="45.99188" lon="4.90933">
        <ele>307.700012207</ele>
        <time>2015-08-04T09:58:57.708Z</time>
      </trkpt>
      <trkpt lat="45.99183" lon="4.90938">
        <ele>307.700012207</ele>
        <time>2015-08-04T09:58:58.744Z</time>
      </trkpt>
      <trkpt lat="45.99179" lon="4.90944">
        <ele>307.899993896</ele>
        <time>2015-08-04T09:58:59.699Z</time>
      </trkpt>
      <trkpt lat="45.99175" lon="4.9095">
        <ele>308.100006104</ele>
        <time>2015-08-04T09:59:00.743Z</time>
      </trkpt>
      <trkpt lat="45.9917" lon="4.90955">
        <ele>308.299987793</ele>
        <time>2015-08-04T09:59:01.702Z</time>
      </trkpt>
      <trkpt lat="45.99164" lon="4.9096">
        <ele>308.200012207</ele>
        <time>2015-08-04T09:59:02.751Z</time>
      </trkpt>
      <trkpt lat="45.99158" lon="4.90966">
        <ele>308</ele>
        <time>2015-08-04T09:59:03.719Z</time>
      </trkpt>
      <trkpt lat="45.99153" lon="4.90973">
        <ele>307.799987793</ele>
        <time>2015-08-04T09:59:04.763Z</time>
      </trkpt>
      <trkpt lat="45.99147" lon="4.90979">
        <ele>307.700012207</ele>
        <time>2015-08-04T09:59:05.707Z</time>
      </trkpt>
      <trkpt lat="45.99142" lon="4.90985">
        <ele>307.5</ele>
        <time>2015-08-04T09:59:06.744Z</time>
      </trkpt>
      <trkpt lat="45.99137" lon="4.90991">
        <ele>307.399993896</ele>
        <time>2015-08-04T09:59:07.704Z</time>
      </trkpt>
      <trkpt lat="45.99131" lon="4.90998">
        <ele>307.5</ele>
        <time>2015-08-04T09:59:08.743Z</time>
      </trkpt>
      <trkpt lat="45.99126" lon="4.91004">
        <ele>307.700012207</ele>
        <time>2015-08-04T09:59:09.702Z</time>
      </trkpt>
      <trkpt lat="45.9912" lon="4.9101">
        <ele>307.700012207</ele>
        <time>2015-08-04T09:59:10.789Z</time>
      </trkpt>
      <trkpt lat="45.99115" lon="4.91016">
        <ele>307.700012207</ele>
        <time>2015-08-04T09:59:11.705Z</time>
      </trkpt>
      <trkpt lat="45.9911" lon="4.91023">
        <ele>307.299987793</ele>
        <time>2015-08-04T09:59:12.76Z</time>
      </trkpt>
      <trkpt lat="45.99105" lon="4.91028">
        <ele>307</ele>
        <time>2015-08-04T09:59:13.704Z</time>
      </trkpt>
      <trkpt lat="45.991" lon="4.91034">
        <ele>306.700012207</ele>
        <time>2015-08-04T09:59:14.777Z</time>
      </trkpt>
      <trkpt lat="45.99095" lon="4.9104">
        <ele>306.799987793</ele>
        <time>2015-08-04T09:59:15.724Z</time>
      </trkpt>
      <trkpt lat="45.9909" lon="4.91045">
        <ele>306.799987793</ele>
        <time>2015-08-04T09:59:16.741Z</time>
      </trkpt>
      <trkpt lat="45.99085" lon="4.91051">
        <ele>306.899993896</ele>
        <time>2015-08-04T09:59:17.699Z</time>
      </trkpt>
      <trkpt lat="45.99081" lon="4.91057">
        <ele>306.700012207</ele>
        <time>2015-08-04T09:59:18.744Z</time>
      </trkpt>
      <trkpt lat="45.99077" lon="4.91063">
        <ele>306.600006104</ele>
        <time>2015-08-04T09:59:19.712Z</time>
      </trkpt>
      <trkpt lat="45.99072" lon="4.91069">
        <ele>306.700012207</ele>
        <time>2015-08-04T09:59:20.761Z</time>
      </trkpt>
      <trkpt lat="45.99067" lon="4.91075">
        <ele>306.399993896</ele>
        <time>2015-08-04T09:59:21.699Z</time>
      </trkpt>
      <trkpt lat="45.99062" lon="4.91082">
        <ele>306.200012207</ele>
        <time>2015-08-04T09:59:22.748Z</time>
      </trkpt>
      <trkpt lat="45.99057" lon="4.91088">
        <ele>306.299987793</ele>
        <time>2015-08-04T09:59:23.7Z</time>
      </trkpt>
      <trkpt lat="45.99052" lon="4.91095">
        <ele>306.299987793</ele>
        <time>2015-08-04T09:59:24.744Z</time>
      </trkpt>
      <trkpt lat="45.99046" lon="4.91103">
        <ele>306.200012207</ele>
        <time>2015-08-04T09:59:25.704Z</time>
      </trkpt>
      <trkpt lat="45.9904" lon="4.9111">
        <ele>306.5</ele>
        <time>2015-08-04T09:59:26.741Z</time>
      </trkpt>
      <trkpt lat="45.99034" lon="4.91118">
        <ele>306.899993896</ele>
        <time>2015-08-04T09:59:27.704Z</time>
      </trkpt>
      <trkpt lat="45.99029" lon="4.91124">
        <ele>306.899993896</ele>
        <time>2015-08-04T09:59:28.774Z</time>
      </trkpt>
      <trkpt lat="45.99024" lon="4.9113">
        <ele>306.700012207</ele>
        <time>2015-08-04T09:59:29.704Z</time>
      </trkpt>
      <trkpt lat="45.99019" lon="4.91136">
        <ele>307.200012207</ele>
        <time>2015-08-04T09:59:30.738Z</time>
      </trkpt>
      <trkpt lat="45.99015" lon="4.91142">
        <ele>307.700012207</ele>
        <time>2015-08-04T09:59:31.699Z</time>
      </trkpt>
      <trkpt lat="45.9901" lon="4.91148">
        <ele>308</ele>
        <time>2015-08-04T09:59:32.754Z</time>
      </trkpt>
      <trkpt lat="45.99005" lon="4.91154">
        <ele>308</ele>
        <time>2015-08-04T09:59:33.703Z</time>
      </trkpt>
      <trkpt lat="45.99" lon="4.91161">
        <ele>308.100006104</ele>
        <time>2015-08-04T09:59:34.742Z</time>
      </trkpt>
      <trkpt lat="45.98995" lon="4.91167">
        <ele>308</ele>
        <time>2015-08-04T09:59:35.704Z</time>
      </trkpt>
      <trkpt lat="45.98989" lon="4.91173">
        <ele>307.799987793</ele>
        <time>2015-08-04T09:59:36.755Z</time>
      </trkpt>
      <trkpt lat="45.98984" lon="4.91179">
        <ele>307.299987793</ele>
        <time>2015-08-04T09:59:37.704Z</time>
      </trkpt>
      <trkpt lat="45.98979" lon="4.91185">
        <ele>306.899993896</ele>
        <time>2015-08-04T09:59:38.876Z</time>
      </trkpt>
      <trkpt lat="45.98974" lon="4.91191">
        <ele>306.700012207</ele>
        <time>2015-08-04T09:59:39.704Z</time>
      </trkpt>
      <trkpt lat="45.9897" lon="4.91198">
        <ele>306.700012207</ele>
        <time>2015-08-04T09:59:40.742Z</time>
      </trkpt>
      <trkpt lat="45.98965" lon="4.91204">
        <ele>306.700012207</ele>
        <time>2015-08-04T09:59:41.705Z</time>
      </trkpt>
      <trkpt lat="45.9896" lon="4.91211">
        <ele>306.600006104</ele>
        <time>2015-08-04T09:59:42.748Z</time>
      </trkpt>
      <trkpt lat="45.98955" lon="4.91217">
        <ele>306.600006104</ele>
        <time>2015-08-04T09:59:43.699Z</time>
      </trkpt>
      <trkpt lat="45.9895" lon="4.91223">
        <ele>306.399993896</ele>
        <time>2015-08-04T09:59:44.773Z</time>
      </trkpt>
      <trkpt lat="45.98945" lon="4.9123">
        <ele>306.399993896</ele>
        <time>2015-08-04T09:59:45.704Z</time>
      </trkpt>
      <trkpt lat="45.9894" lon="4.91236">
        <ele>306.399993896</ele>
        <time>2015-08-04T09:59:46.776Z</time>
      </trkpt>
      <trkpt lat="45.98935" lon="4.91243">
        <ele>306.899993896</ele>
        <time>2015-08-04T09:59:47.7Z</time>
      </trkpt>
      <trkpt lat="45.9893" lon="4.9125">
        <ele>307.100006104</ele>
        <time>2015-08-04T09:59:48.836Z</time>
      </trkpt>
      <trkpt lat="45.98925" lon="4.91256">
        <ele>307.100006104</ele>
        <time>2015-08-04T09:59:49.708Z</time>
      </trkpt>
      <trkpt lat="45.9892" lon="4.91263">
        <ele>307.100006104</ele>
        <time>2015-08-04T09:59:50.735Z</time>
      </trkpt>
      <trkpt lat="45.98914" lon="4.91269">
        <ele>307.200012207</ele>
        <time>2015-08-04T09:59:51.699Z</time>
      </trkpt>
      <trkpt lat="45.9891" lon="4.91275">
        <ele>307.299987793</ele>
        <time>2015-08-04T09:59:52.775Z</time>
      </trkpt>
      <trkpt lat="45.98905" lon="4.91281">
        <ele>307</ele>
        <time>2015-08-04T09:59:53.708Z</time>
      </trkpt>
      <trkpt lat="45.989" lon="4.91287">
        <ele>306.799987793</ele>
        <time>2015-08-04T09:59:54.743Z</time>
      </trkpt>
      <trkpt lat="45.98896" lon="4.91292">
        <ele>306.700012207</ele>
        <time>2015-08-04T09:59:55.704Z</time>
      </trkpt>
      <trkpt lat="45.98891" lon="4.91297">
        <ele>306.5</ele>
        <time>2015-08-04T09:59:56.739Z</time>
      </trkpt>
      <trkpt lat="45.98887" lon="4.91302">
        <ele>306.100006104</ele>
        <time>2015-08-04T09:59:57.704Z</time>
      </trkpt>
      <trkpt lat="45.98883" lon="4.91308">
        <ele>306.100006104</ele>
        <time>2015-08-04T09:59:58.807Z</time>
      </trkpt>
      <trkpt lat="45.98878" lon="4.91313">
        <ele>306</ele>
        <time>2015-08-04T09:59:59.703Z</time>
      </trkpt>
      <trkpt lat="45.98874" lon="4.91319">
        <ele>306.100006104</ele>
        <time>2015-08-04T10:00:00.81Z</time>
      </trkpt>
      <trkpt lat="45.98869" lon="4.91325">
        <ele>305.799987793</ele>
        <time>2015-08-04T10:00:01.701Z</time>
      </trkpt>
      <trkpt lat="45.98864" lon="4.91331">
        <ele>305.600006104</ele>
        <time>2015-08-04T10:00:02.76Z</time>
      </trkpt>
      <trkpt lat="45.9886" lon="4.91337">
        <ele>305.399993896</ele>
        <time>2015-08-04T10:00:03.704Z</time>
      </trkpt>
      <trkpt lat="45.98855" lon="4.91343">
        <ele>305.200012207</ele>
        <time>2015-08-04T10:00:04.743Z</time>
      </trkpt>
      <trkpt lat="45.9885" lon="4.91349">
        <ele>305.200012207</ele>
        <time>2015-08-04T10:00:05.704Z</time>
      </trkpt>
      <trkpt lat="45.98845" lon="4.91356">
        <ele>304.899993896</ele>
        <time>2015-08-04T10:00:06.848Z</time>
      </trkpt>
      <trkpt lat="45.9884" lon="4.91362">
        <ele>304.899993896</ele>
        <time>2015-08-04T10:00:07.699Z</time>
      </trkpt>
      <trkpt lat="45.98834" lon="4.91369">
        <ele>304.799987793</ele>
        <time>2015-08-04T10:00:08.76Z</time>
      </trkpt>
      <trkpt lat="45.9883" lon="4.91375">
        <ele>304.5</ele>
        <time>2015-08-04T10:00:09.722Z</time>
      </trkpt>
      <trkpt lat="45.98825" lon="4.91381">
        <ele>304.600006104</ele>
        <time>2015-08-04T10:00:10.741Z</time>
      </trkpt>
      <trkpt lat="45.9882" lon="4.91386">
        <ele>305.200012207</ele>
        <time>2015-08-04T10:00:11.704Z</time>
      </trkpt>
      <trkpt lat="45.98815" lon="4.91392">
        <ele>305.600006104</ele>
        <time>2015-08-04T10:00:12.754Z</time>
      </trkpt>
      <trkpt lat="45.9881" lon="4.91398">
        <ele>305.799987793</ele>
        <time>2015-08-04T10:00:13.701Z</time>
      </trkpt>
      <trkpt lat="45.98805" lon="4.91405">
        <ele>306</ele>
        <time>2015-08-04T10:00:14.744Z</time>
      </trkpt>
      <trkpt lat="45.988" lon="4.91411">
        <ele>306.100006104</ele>
        <time>2015-08-04T10:00:15.704Z</time>
      </trkpt>
      <trkpt lat="45.98794" lon="4.91418">
        <ele>306.399993896</ele>
        <time>2015-08-04T10:00:16.826Z</time>
      </trkpt>
      <trkpt lat="45.98789" lon="4.91424">
        <ele>306.600006104</ele>
        <time>2015-08-04T10:00:17.707Z</time>
      </trkpt>
      <trkpt lat="45.98783" lon="4.91431">
        <ele>306.899993896</ele>
        <time>2015-08-04T10:00:18.736Z</time>
      </trkpt>
      <trkpt lat="45.98778" lon="4.91438">
        <ele>307</ele>
        <time>2015-08-04T10:00:19.704Z</time>
      </trkpt>
      <trkpt lat="45.98772" lon="4.91444">
        <ele>307.299987793</ele>
        <time>2015-08-04T10:00:20.778Z</time>
      </trkpt>
      <trkpt lat="45.98767" lon="4.91451">
        <ele>306.799987793</ele>
        <time>2015-08-04T10:00:21.703Z</time>
      </trkpt>
      <trkpt lat="45.98761" lon="4.91458">
        <ele>306.600006104</ele>
        <time>2015-08-04T10:00:22.793Z</time>
      </trkpt>
      <trkpt lat="45.98756" lon="4.91464">
        <ele>306.600006104</ele>
        <time>2015-08-04T10:00:23.707Z</time>
      </trkpt>
      <trkpt lat="45.98751" lon="4.9147">
        <ele>306.600006104</ele>
        <time>2015-08-04T10:00:24.759Z</time>
      </trkpt>
      <trkpt lat="45.98745" lon="4.91477">
        <ele>306.5</ele>
        <time>2015-08-04T10:00:25.71Z</time>
      </trkpt>
      <trkpt lat="45.9874" lon="4.91483">
        <ele>306.299987793</ele>
        <time>2015-08-04T10:00:26.826Z</time>
      </trkpt>
      <trkpt lat="45.98735" lon="4.91491">
        <ele>306</ele>
        <time>2015-08-04T10:00:27.712Z</time>
      </trkpt>
      <trkpt lat="45.98729" lon="4.91497">
        <ele>305.799987793</ele>
        <time>2015-08-04T10:00:28.742Z</time>
      </trkpt>
      <trkpt lat="45.98725" lon="4.91503">
        <ele>305.799987793</ele>
        <time>2015-08-04T10:00:29.706Z</time>
      </trkpt>
      <trkpt lat="45.9872" lon="4.91509">
        <ele>305.600006104</ele>
        <time>2015-08-04T10:00:30.74Z</time>
      </trkpt>
      <trkpt lat="45.98714" lon="4.91514">
        <ele>305.5</ele>
        <time>2015-08-04T10:00:31.705Z</time>
      </trkpt>
      <trkpt lat="45.98709" lon="4.9152">
        <ele>305.200012207</ele>
        <time>2015-08-04T10:00:32.763Z</time>
      </trkpt>
      <trkpt lat="45.98705" lon="4.91526">
        <ele>305.299987793</ele>
        <time>2015-08-04T10:00:33.699Z</time>
      </trkpt>
      <trkpt lat="45.987" lon="4.91531">
        <ele>305.399993896</ele>
        <time>2015-08-04T10:00:34.74Z</time>
      </trkpt>
      <trkpt lat="45.98695" lon="4.91536">
        <ele>305.5</ele>
        <time>2015-08-04T10:00:35.699Z</time>
      </trkpt>
      <trkpt lat="45.9869" lon="4.91542">
        <ele>305.200012207</ele>
        <time>2015-08-04T10:00:36.816Z</time>
      </trkpt>
      <trkpt lat="45.98686" lon="4.91547">
        <ele>305.100006104</ele>
        <time>2015-08-04T10:00:37.708Z</time>
      </trkpt>
      <trkpt lat="45.98681" lon="4.91554">
        <ele>304.799987793</ele>
        <time>2015-08-04T10:00:38.752Z</time>
      </trkpt>
      <trkpt lat="45.98677" lon="4.9156">
        <ele>304.5</ele>
        <time>2015-08-04T10:00:39.705Z</time>
      </trkpt>
      <trkpt lat="45.98672" lon="4.91566">
        <ele>304.5</ele>
        <time>2015-08-04T10:00:40.788Z</time>
      </trkpt>
      <trkpt lat="45.98668" lon="4.91572">
        <ele>304.700012207</ele>
        <time>2015-08-04T10:00:41.704Z</time>
      </trkpt>
      <trkpt lat="45.98663" lon="4.91578">
        <ele>304.5</ele>
        <time>2015-08-04T10:00:42.757Z</time>
      </trkpt>
      <trkpt lat="45.98659" lon="4.91583">
        <ele>304.5</ele>
        <time>2015-08-04T10:00:43.699Z</time>
      </trkpt>
      <trkpt lat="45.98654" lon="4.91589">
        <ele>304.600006104</ele>
        <time>2015-08-04T10:00:44.757Z</time>
      </trkpt>
      <trkpt lat="45.98649" lon="4.91595">
        <ele>304.700012207</ele>
        <time>2015-08-04T10:00:45.701Z</time>
      </trkpt>
      <trkpt lat="45.98644" lon="4.91601">
        <ele>304.600006104</ele>
        <time>2015-08-04T10:00:46.796Z</time>
      </trkpt>
      <trkpt lat="45.98639" lon="4.91606">
        <ele>304.799987793</ele>
        <time>2015-08-04T10:00:47.707Z</time>
      </trkpt>
      <trkpt lat="45.98634" lon="4.91612">
        <ele>304.799987793</ele>
        <time>2015-08-04T10:00:48.735Z</time>
      </trkpt>
      <trkpt lat="45.9863" lon="4.91618">
        <ele>304.899993896</ele>
        <time>2015-08-04T10:00:49.707Z</time>
      </trkpt>
      <trkpt lat="45.98624" lon="4.91624">
        <ele>304.899993896</ele>
        <time>2015-08-04T10:00:50.735Z</time>
      </trkpt>
      <trkpt lat="45.98619" lon="4.9163">
        <ele>305.100006104</ele>
        <time>2015-08-04T10:00:51.71Z</time>
      </trkpt>
      <trkpt lat="45.98613" lon="4.91636">
        <ele>305.5</ele>
        <time>2015-08-04T10:00:52.768Z</time>
      </trkpt>
      <trkpt lat="45.98607" lon="4.91643">
        <ele>305.600006104</ele>
        <time>2015-08-04T10:00:53.707Z</time>
      </trkpt>
      <trkpt lat="45.98601" lon="4.9165">
        <ele>305.700012207</ele>
        <time>2015-08-04T10:00:54.755Z</time>
      </trkpt>
      <trkpt lat="45.98596" lon="4.91657">
        <ele>305.299987793</ele>
        <time>2015-08-04T10:00:55.704Z</time>
      </trkpt>
      <trkpt lat="45.9859" lon="4.91665">
        <ele>305.5</ele>
        <time>2015-08-04T10:00:56.751Z</time>
      </trkpt>
      <trkpt lat="45.98584" lon="4.91672">
        <ele>305.299987793</ele>
        <time>2015-08-04T10:00:57.716Z</time>
      </trkpt>
      <trkpt lat="45.98577" lon="4.91678">
        <ele>305.200012207</ele>
        <time>2015-08-04T10:00:58.773Z</time>
      </trkpt>
      <trkpt lat="45.98572" lon="4.91684">
        <ele>305.200012207</ele>
        <time>2015-08-04T10:00:59.703Z</time>
      </trkpt>
      <trkpt lat="45.98566" lon="4.91691">
        <ele>305.100006104</ele>
        <time>2015-08-04T10:01:00.741Z</time>
      </trkpt>
      <trkpt lat="45.98561" lon="4.91698">
        <ele>305.200012207</ele>
        <time>2015-08-04T10:01:01.701Z</time>
      </trkpt>
      <trkpt lat="45.98555" lon="4.91705">
        <ele>304.700012207</ele>
        <time>2015-08-04T10:01:02.76Z</time>
      </trkpt>
      <trkpt lat="45.9855" lon="4.91711">
        <ele>304.5</ele>
        <time>2015-08-04T10:01:03.731Z</time>
      </trkpt>
      <trkpt lat="45.98544" lon="4.91718">
        <ele>304.799987793</ele>
        <time>2015-08-04T10:01:04.74Z</time>
      </trkpt>
      <trkpt lat="45.98538" lon="4.91725">
        <ele>304.899993896</ele>
        <time>2015-08-04T10:01:05.699Z</time>
      </trkpt>
      <trkpt lat="45.98533" lon="4.91732">
        <ele>305.100006104</ele>
        <time>2015-08-04T10:01:06.739Z</time>
      </trkpt>
      <trkpt lat="45.98528" lon="4.91739">
        <ele>305.100006104</ele>
        <time>2015-08-04T10:01:07.699Z</time>
      </trkpt>
      <trkpt lat="45.98523" lon="4.91745">
        <ele>305.299987793</ele>
        <time>2015-08-04T10:01:08.74Z</time>
      </trkpt>
      <trkpt lat="45.98517" lon="4.91752">
        <ele>305.299987793</ele>
        <time>2015-08-04T10:01:09.703Z</time>
      </trkpt>
      <trkpt lat="45.98512" lon="4.91759">
        <ele>305</ele>
        <time>2015-08-04T10:01:10.754Z</time>
      </trkpt>
      <trkpt lat="45.98506" lon="4.91765">
        <ele>305.200012207</ele>
        <time>2015-08-04T10:01:11.704Z</time>
      </trkpt>
      <trkpt lat="45.985" lon="4.91772">
        <ele>305.100006104</ele>
        <time>2015-08-04T10:01:12.785Z</time>
      </trkpt>
      <trkpt lat="45.98495" lon="4.91778">
        <ele>305.100006104</ele>
        <time>2015-08-04T10:01:13.705Z</time>
      </trkpt>
      <trkpt lat="45.98489" lon="4.91785">
        <ele>305</ele>
        <time>2015-08-04T10:01:14.735Z</time>
      </trkpt>
      <trkpt lat="45.98484" lon="4.91792">
        <ele>304.899993896</ele>
        <time>2015-08-04T10:01:15.703Z</time>
      </trkpt>
      <trkpt lat="45.98478" lon="4.91799">
        <ele>304.899993896</ele>
        <time>2015-08-04T10:01:16.755Z</time>
      </trkpt>
      <trkpt lat="45.98473" lon="4.91806">
        <ele>304.700012207</ele>
        <time>2015-08-04T10:01:17.706Z</time>
      </trkpt>
      <trkpt lat="45.98467" lon="4.91812">
        <ele>304.600006104</ele>
        <time>2015-08-04T10:01:18.738Z</time>
      </trkpt>
      <trkpt lat="45.98462" lon="4.91819">
        <ele>304.5</ele>
        <time>2015-08-04T10:01:19.699Z</time>
      </trkpt>
      <trkpt lat="45.98457" lon="4.91826">
        <ele>304.399993896</ele>
        <time>2015-08-04T10:01:20.736Z</time>
      </trkpt>
      <trkpt lat="45.98451" lon="4.91832">
        <ele>304.600006104</ele>
        <time>2015-08-04T10:01:21.704Z</time>
      </trkpt>
      <trkpt lat="45.98446" lon="4.91839">
        <ele>304.700012207</ele>
        <time>2015-08-04T10:01:22.763Z</time>
      </trkpt>
      <trkpt lat="45.98441" lon="4.91845">
        <ele>304.600006104</ele>
        <time>2015-08-04T10:01:23.703Z</time>
      </trkpt>
      <trkpt lat="45.98436" lon="4.91852">
        <ele>304.799987793</ele>
        <time>2015-08-04T10:01:24.738Z</time>
      </trkpt>
      <trkpt lat="45.98431" lon="4.91858">
        <ele>304.600006104</ele>
        <time>2015-08-04T10:01:25.703Z</time>
      </trkpt>
      <trkpt lat="45.98426" lon="4.91864">
        <ele>304.700012207</ele>
        <time>2015-08-04T10:01:26.738Z</time>
      </trkpt>
      <trkpt lat="45.98421" lon="4.91871">
        <ele>305</ele>
        <time>2015-08-04T10:01:27.703Z</time>
      </trkpt>
      <trkpt lat="45.98415" lon="4.91878">
        <ele>304.700012207</ele>
        <time>2015-08-04T10:01:28.756Z</time>
      </trkpt>
      <trkpt lat="45.9841" lon="4.91883">
        <ele>304.799987793</ele>
        <time>2015-08-04T10:01:29.716Z</time>
      </trkpt>
      <trkpt lat="45.98405" lon="4.9189">
        <ele>304.5</ele>
        <time>2015-08-04T10:01:30.75Z</time>
      </trkpt>
      <trkpt lat="45.984" lon="4.91897">
        <ele>304.100006104</ele>
        <time>2015-08-04T10:01:31.716Z</time>
      </trkpt>
      <trkpt lat="45.98394" lon="4.91904">
        <ele>303.899993896</ele>
        <time>2015-08-04T10:01:32.768Z</time>
      </trkpt>
      <trkpt lat="45.98389" lon="4.9191">
        <ele>303.700012207</ele>
        <time>2015-08-04T10:01:33.699Z</time>
      </trkpt>
      <trkpt lat="45.98384" lon="4.91916">
        <ele>303.600006104</ele>
        <time>2015-08-04T10:01:34.777Z</time>
      </trkpt>
      <trkpt lat="45.98379" lon="4.91922">
        <ele>303.399993896</ele>
        <time>2015-08-04T10:01:35.704Z</time>
      </trkpt>
      <trkpt lat="45.98375" lon="4.91928">
        <ele>303.5</ele>
        <time>2015-08-04T10:01:36.743Z</time>
      </trkpt>
      <trkpt lat="45.9837" lon="4.91933">
        <ele>303.700012207</ele>
        <time>2015-08-04T10:01:37.703Z</time>
      </trkpt>
      <trkpt lat="45.98365" lon="4.91939">
        <ele>303.399993896</ele>
        <time>2015-08-04T10:01:38.754Z</time>
      </trkpt>
      <trkpt lat="45.9836" lon="4.91946">
        <ele>303.200012207</ele>
        <time>2015-08-04T10:01:39.703Z</time>
      </trkpt>
      <trkpt lat="45.98355" lon="4.91951">
        <ele>303.100006104</ele>
        <time>2015-08-04T10:01:40.738Z</time>
      </trkpt>
      <trkpt lat="45.98351" lon="4.91956">
        <ele>303.100006104</ele>
        <time>2015-08-04T10:01:41.703Z</time>
      </trkpt>
      <trkpt lat="45.98346" lon="4.91962">
        <ele>302.899993896</ele>
        <time>2015-08-04T10:01:42.768Z</time>
      </trkpt>
      <trkpt lat="45.98341" lon="4.91967">
        <ele>302.600006104</ele>
        <time>2015-08-04T10:01:43.701Z</time>
      </trkpt>
      <trkpt lat="45.98336" lon="4.91973">
        <ele>302.5</ele>
        <time>2015-08-04T10:01:44.741Z</time>
      </trkpt>
      <trkpt lat="45.98332" lon="4.91979">
        <ele>302.399993896</ele>
        <time>2015-08-04T10:01:45.703Z</time>
      </trkpt>
      <trkpt lat="45.98327" lon="4.91984">
        <ele>302.100006104</ele>
        <time>2015-08-04T10:01:46.741Z</time>
      </trkpt>
      <trkpt lat="45.98322" lon="4.9199">
        <ele>301.700012207</ele>
        <time>2015-08-04T10:01:47.707Z</time>
      </trkpt>
      <trkpt lat="45.98318" lon="4.91996">
        <ele>301.5</ele>
        <time>2015-08-04T10:01:48.742Z</time>
      </trkpt>
      <trkpt lat="45.98313" lon="4.92002">
        <ele>301.200012207</ele>
        <time>2015-08-04T10:01:49.703Z</time>
      </trkpt>
      <trkpt lat="45.98308" lon="4.92008">
        <ele>301.100006104</ele>
        <time>2015-08-04T10:01:50.734Z</time>
      </trkpt>
      <trkpt lat="45.98304" lon="4.92014">
        <ele>301</ele>
        <time>2015-08-04T10:01:51.703Z</time>
      </trkpt>
      <trkpt lat="45.98299" lon="4.92019">
        <ele>300.799987793</ele>
        <time>2015-08-04T10:01:52.799Z</time>
      </trkpt>
      <trkpt lat="45.98294" lon="4.92025">
        <ele>300.600006104</ele>
        <time>2015-08-04T10:01:53.703Z</time>
      </trkpt>
      <trkpt lat="45.98289" lon="4.92031">
        <ele>300.5</ele>
        <time>2015-08-04T10:01:54.765Z</time>
      </trkpt>
      <trkpt lat="45.98284" lon="4.92037">
        <ele>300.399993896</ele>
        <time>2015-08-04T10:01:55.704Z</time>
      </trkpt>
      <trkpt lat="45.98279" lon="4.92043">
        <ele>300.299987793</ele>
        <time>2015-08-04T10:01:56.738Z</time>
      </trkpt>
      <trkpt lat="45.98274" lon="4.9205">
        <ele>300.200012207</ele>
        <time>2015-08-04T10:01:57.722Z</time>
      </trkpt>
      <trkpt lat="45.98269" lon="4.92055">
        <ele>300.399993896</ele>
        <time>2015-08-04T10:01:58.739Z</time>
      </trkpt>
      <trkpt lat="45.98264" lon="4.92061">
        <ele>300.100006104</ele>
        <time>2015-08-04T10:01:59.703Z</time>
      </trkpt>
      <trkpt lat="45.98259" lon="4.92066">
        <ele>300.200012207</ele>
        <time>2015-08-04T10:02:00.752Z</time>
      </trkpt>
      <trkpt lat="45.98253" lon="4.92072">
        <ele>300.799987793</ele>
        <time>2015-08-04T10:02:01.701Z</time>
      </trkpt>
      <trkpt lat="45.98248" lon="4.92077">
        <ele>301.5</ele>
        <time>2015-08-04T10:02:02.773Z</time>
      </trkpt>
      <trkpt lat="45.98243" lon="4.92081">
        <ele>302</ele>
        <time>2015-08-04T10:02:03.703Z</time>
      </trkpt>
      <trkpt lat="45.98237" lon="4.92086">
        <ele>302.200012207</ele>
        <time>2015-08-04T10:02:04.736Z</time>
      </trkpt>
      <trkpt lat="45.98232" lon="4.92091">
        <ele>302.600006104</ele>
        <time>2015-08-04T10:02:05.706Z</time>
      </trkpt>
      <trkpt lat="45.98227" lon="4.92096">
        <ele>302.799987793</ele>
        <time>2015-08-04T10:02:06.779Z</time>
      </trkpt>
      <trkpt lat="45.98222" lon="4.92102">
        <ele>303</ele>
        <time>2015-08-04T10:02:07.706Z</time>
      </trkpt>
      <trkpt lat="45.98217" lon="4.92108">
        <ele>303.299987793</ele>
        <time>2015-08-04T10:02:08.734Z</time>
      </trkpt>
      <trkpt lat="45.98212" lon="4.92114">
        <ele>303.600006104</ele>
        <time>2015-08-04T10:02:09.706Z</time>
      </trkpt>
      <trkpt lat="45.98207" lon="4.92119">
        <ele>304.100006104</ele>
        <time>2015-08-04T10:02:10.775Z</time>
      </trkpt>
      <trkpt lat="45.98202" lon="4.92125">
        <ele>305.200012207</ele>
        <time>2015-08-04T10:02:11.703Z</time>
      </trkpt>
      <trkpt lat="45.98197" lon="4.9213">
        <ele>306.299987793</ele>
        <time>2015-08-04T10:02:12.768Z</time>
      </trkpt>
      <trkpt lat="45.98192" lon="4.92136">
        <ele>306.899993896</ele>
        <time>2015-08-04T10:02:13.703Z</time>
      </trkpt>
      <trkpt lat="45.98187" lon="4.92141">
        <ele>307.5</ele>
        <time>2015-08-04T10:02:14.738Z</time>
      </trkpt>
      <trkpt lat="45.98182" lon="4.92147">
        <ele>308.200012207</ele>
        <time>2015-08-04T10:02:15.703Z</time>
      </trkpt>
      <trkpt lat="45.98177" lon="4.92153">
        <ele>309.200012207</ele>
        <time>2015-08-04T10:02:16.738Z</time>
      </trkpt>
      <trkpt lat="45.98172" lon="4.9216">
        <ele>309.399993896</ele>
        <time>2015-08-04T10:02:17.704Z</time>
      </trkpt>
      <trkpt lat="45.98167" lon="4.92166">
        <ele>309.700012207</ele>
        <time>2015-08-04T10:02:18.733Z</time>
      </trkpt>
      <trkpt lat="45.98162" lon="4.92173">
        <ele>309.700012207</ele>
        <time>2015-08-04T10:02:19.703Z</time>
      </trkpt>
      <trkpt lat="45.98157" lon="4.92179">
        <ele>309.799987793</ele>
        <time>2015-08-04T10:02:20.753Z</time>
      </trkpt>
      <trkpt lat="45.98152" lon="4.92185">
        <ele>309.600006104</ele>
        <time>2015-08-04T10:02:21.706Z</time>
      </trkpt>
      <trkpt lat="45.98147" lon="4.92192">
        <ele>309.600006104</ele>
        <time>2015-08-04T10:02:22.775Z</time>
      </trkpt>
      <trkpt lat="45.98142" lon="4.92198">
        <ele>309.899993896</ele>
        <time>2015-08-04T10:02:23.706Z</time>
      </trkpt>
      <trkpt lat="45.98137" lon="4.92204">
        <ele>309.600006104</ele>
        <time>2015-08-04T10:02:24.737Z</time>
      </trkpt>
      <trkpt lat="45.98131" lon="4.9221">
        <ele>310</ele>
        <time>2015-08-04T10:02:25.704Z</time>
      </trkpt>
      <trkpt lat="45.98127" lon="4.92216">
        <ele>310.299987793</ele>
        <time>2015-08-04T10:02:26.787Z</time>
      </trkpt>
      <trkpt lat="45.98121" lon="4.92221">
        <ele>310.200012207</ele>
        <time>2015-08-04T10:02:27.7Z</time>
      </trkpt>
      <trkpt lat="45.98117" lon="4.92228">
        <ele>309.5</ele>
        <time>2015-08-04T10:02:28.787Z</time>
      </trkpt>
      <trkpt lat="45.98112" lon="4.92234">
        <ele>309.299987793</ele>
        <time>2015-08-04T10:02:29.707Z</time>
      </trkpt>
      <trkpt lat="45.98108" lon="4.9224">
        <ele>309.299987793</ele>
        <time>2015-08-04T10:02:30.741Z</time>
      </trkpt>
      <trkpt lat="45.98103" lon="4.92246">
        <ele>309.600006104</ele>
        <time>2015-08-04T10:02:31.705Z</time>
      </trkpt>
      <trkpt lat="45.98099" lon="4.92252">
        <ele>309.700012207</ele>
        <time>2015-08-04T10:02:32.773Z</time>
      </trkpt>
      <trkpt lat="45.98095" lon="4.92257">
        <ele>309.399993896</ele>
        <time>2015-08-04T10:02:33.698Z</time>
      </trkpt>
      <trkpt lat="45.98091" lon="4.92263">
        <ele>309.100006104</ele>
        <time>2015-08-04T10:02:34.739Z</time>
      </trkpt>
      <trkpt lat="45.98086" lon="4.92269">
        <ele>309.100006104</ele>
        <time>2015-08-04T10:02:35.7Z</time>
      </trkpt>
      <trkpt lat="45.98081" lon="4.92275">
        <ele>309</ele>
        <time>2015-08-04T10:02:36.881Z</time>
      </trkpt>
      <trkpt lat="45.98076" lon="4.9228">
        <ele>309.100006104</ele>
        <time>2015-08-04T10:02:37.703Z</time>
      </trkpt>
      <trkpt lat="45.98071" lon="4.92286">
        <ele>308.799987793</ele>
        <time>2015-08-04T10:02:38.743Z</time>
      </trkpt>
      <trkpt lat="45.98067" lon="4.92293">
        <ele>308.799987793</ele>
        <time>2015-08-04T10:02:39.705Z</time>
      </trkpt>
      <trkpt lat="45.98062" lon="4.92299">
        <ele>308.799987793</ele>
        <time>2015-08-04T10:02:40.739Z</time>
      </trkpt>
      <trkpt lat="45.98057" lon="4.92305">
        <ele>308.700012207</ele>
        <time>2015-08-04T10:02:41.705Z</time>
      </trkpt>
      <trkpt lat="45.98053" lon="4.92311">
        <ele>308.5</ele>
        <time>2015-08-04T10:02:42.766Z</time>
      </trkpt>
      <trkpt lat="45.98048" lon="4.92317">
        <ele>308.100006104</ele>
        <time>2015-08-04T10:02:43.703Z</time>
      </trkpt>
      <trkpt lat="45.98043" lon="4.92323">
        <ele>307.700012207</ele>
        <time>2015-08-04T10:02:44.734Z</time>
      </trkpt>
      <trkpt lat="45.98038" lon="4.9233">
        <ele>307.600006104</ele>
        <time>2015-08-04T10:02:45.706Z</time>
      </trkpt>
      <trkpt lat="45.98033" lon="4.92337">
        <ele>307.200012207</ele>
        <time>2015-08-04T10:02:46.827Z</time>
      </trkpt>
      <trkpt lat="45.98028" lon="4.92343">
        <ele>306.899993896</ele>
        <time>2015-08-04T10:02:47.698Z</time>
      </trkpt>
      <trkpt lat="45.98023" lon="4.9235">
        <ele>306.600006104</ele>
        <time>2015-08-04T10:02:48.734Z</time>
      </trkpt>
      <trkpt lat="45.98019" lon="4.92356">
        <ele>305.799987793</ele>
        <time>2015-08-04T10:02:49.703Z</time>
      </trkpt>
      <trkpt lat="45.98014" lon="4.92363">
        <ele>305.799987793</ele>
        <time>2015-08-04T10:02:50.738Z</time>
      </trkpt>
      <trkpt lat="45.98009" lon="4.9237">
        <ele>305.600006104</ele>
        <time>2015-08-04T10:02:51.722Z</time>
      </trkpt>
      <trkpt lat="45.98004" lon="4.92376">
        <ele>305.600006104</ele>
        <time>2015-08-04T10:02:52.772Z</time>
      </trkpt>
      <trkpt lat="45.97999" lon="4.92382">
        <ele>305.799987793</ele>
        <time>2015-08-04T10:02:53.716Z</time>
      </trkpt>
      <trkpt lat="45.97994" lon="4.92389">
        <ele>305.600006104</ele>
        <time>2015-08-04T10:02:54.956Z</time>
      </trkpt>
      <trkpt lat="45.97988" lon="4.92395">
        <ele>305.399993896</ele>
        <time>2015-08-04T10:02:55.747Z</time>
      </trkpt>
      <trkpt lat="45.97983" lon="4.92401">
        <ele>305.399993896</ele>
        <time>2015-08-04T10:02:57.076Z</time>
      </trkpt>
      <trkpt lat="45.97978" lon="4.92408">
        <ele>305.700012207</ele>
        <time>2015-08-04T10:02:57.746Z</time>
      </trkpt>
      <trkpt lat="45.97973" lon="4.92414">
        <ele>305.899993896</ele>
        <time>2015-08-04T10:02:59.296Z</time>
      </trkpt>
      <trkpt lat="45.97968" lon="4.92421">
        <ele>305.799987793</ele>
        <time>2015-08-04T10:02:59.874Z</time>
      </trkpt>
      <trkpt lat="45.97963" lon="4.92427">
        <ele>305.600006104</ele>
        <time>2015-08-04T10:03:01.021Z</time>
      </trkpt>
      <trkpt lat="45.97958" lon="4.92433">
        <ele>305.799987793</ele>
        <time>2015-08-04T10:03:01.876Z</time>
      </trkpt>
      <trkpt lat="45.97953" lon="4.92439">
        <ele>305.799987793</ele>
        <time>2015-08-04T10:03:02.913Z</time>
      </trkpt>
      <trkpt lat="45.97948" lon="4.92444">
        <ele>306.100006104</ele>
        <time>2015-08-04T10:03:03.796Z</time>
      </trkpt>
      <trkpt lat="45.97943" lon="4.9245">
        <ele>305.799987793</ele>
        <time>2015-08-04T10:03:04.775Z</time>
      </trkpt>
      <trkpt lat="45.97939" lon="4.92456">
        <ele>305.700012207</ele>
        <time>2015-08-04T10:03:05.746Z</time>
      </trkpt>
      <trkpt lat="45.97934" lon="4.92462">
        <ele>306</ele>
        <time>2015-08-04T10:03:06.733Z</time>
      </trkpt>
      <trkpt lat="45.9793" lon="4.92467">
        <ele>306.299987793</ele>
        <time>2015-08-04T10:03:07.688Z</time>
      </trkpt>
      <trkpt lat="45.97925" lon="4.92473">
        <ele>306.399993896</ele>
        <time>2015-08-04T10:03:08.738Z</time>
      </trkpt>
      <trkpt lat="45.97921" lon="4.92478">
        <ele>306.600006104</ele>
        <time>2015-08-04T10:03:09.703Z</time>
      </trkpt>
      <trkpt lat="45.97916" lon="4.92484">
        <ele>306.600006104</ele>
        <time>2015-08-04T10:03:10.739Z</time>
      </trkpt>
      <trkpt lat="45.97912" lon="4.92489">
        <ele>306.5</ele>
        <time>2015-08-04T10:03:11.7Z</time>
      </trkpt>
      <trkpt lat="45.97907" lon="4.92494">
        <ele>306.5</ele>
        <time>2015-08-04T10:03:12.79Z</time>
      </trkpt>
      <trkpt lat="45.97903" lon="4.925">
        <ele>306.600006104</ele>
        <time>2015-08-04T10:03:13.706Z</time>
      </trkpt>
      <trkpt lat="45.97898" lon="4.92506">
        <ele>306.799987793</ele>
        <time>2015-08-04T10:03:14.74Z</time>
      </trkpt>
      <trkpt lat="45.97893" lon="4.92511">
        <ele>306.600006104</ele>
        <time>2015-08-04T10:03:15.704Z</time>
      </trkpt>
      <trkpt lat="45.97889" lon="4.92516">
        <ele>306.600006104</ele>
        <time>2015-08-04T10:03:16.736Z</time>
      </trkpt>
      <trkpt lat="45.97884" lon="4.92522">
        <ele>306.600006104</ele>
        <time>2015-08-04T10:03:17.705Z</time>
      </trkpt>
      <trkpt lat="45.9788" lon="4.92528">
        <ele>306.799987793</ele>
        <time>2015-08-04T10:03:18.745Z</time>
      </trkpt>
      <trkpt lat="45.97876" lon="4.92534">
        <ele>307</ele>
        <time>2015-08-04T10:03:19.705Z</time>
      </trkpt>
      <trkpt lat="45.97871" lon="4.9254">
        <ele>307.200012207</ele>
        <time>2015-08-04T10:03:20.737Z</time>
      </trkpt>
      <trkpt lat="45.97867" lon="4.92545">
        <ele>307.399993896</ele>
        <time>2015-08-04T10:03:21.706Z</time>
      </trkpt>
      <trkpt lat="45.97862" lon="4.92551">
        <ele>307.399993896</ele>
        <time>2015-08-04T10:03:22.774Z</time>
      </trkpt>
      <trkpt lat="45.97857" lon="4.92556">
        <ele>307.200012207</ele>
        <time>2015-08-04T10:03:23.706Z</time>
      </trkpt>
      <trkpt lat="45.97852" lon="4.92562">
        <ele>307.100006104</ele>
        <time>2015-08-04T10:03:24.738Z</time>
      </trkpt>
      <trkpt lat="45.97847" lon="4.92568">
        <ele>306.799987793</ele>
        <time>2015-08-04T10:03:25.705Z</time>
      </trkpt>
      <trkpt lat="45.97843" lon="4.92574">
        <ele>306.799987793</ele>
        <time>2015-08-04T10:03:26.736Z</time>
      </trkpt>
      <trkpt lat="45.97838" lon="4.9258">
        <ele>306.899993896</ele>
        <time>2015-08-04T10:03:27.703Z</time>
      </trkpt>
      <trkpt lat="45.97833" lon="4.92585">
        <ele>307.200012207</ele>
        <time>2015-08-04T10:03:28.757Z</time>
      </trkpt>
      <trkpt lat="45.97827" lon="4.92591">
        <ele>307.200012207</ele>
        <time>2015-08-04T10:03:29.705Z</time>
      </trkpt>
      <trkpt lat="45.97822" lon="4.92597">
        <ele>307.399993896</ele>
        <time>2015-08-04T10:03:30.74Z</time>
      </trkpt>
      <trkpt lat="45.97817" lon="4.92602">
        <ele>307.700012207</ele>
        <time>2015-08-04T10:03:31.705Z</time>
      </trkpt>
      <trkpt lat="45.97812" lon="4.92608">
        <ele>307.700012207</ele>
        <time>2015-08-04T10:03:32.769Z</time>
      </trkpt>
      <trkpt lat="45.97808" lon="4.92612">
        <ele>308</ele>
        <time>2015-08-04T10:03:33.706Z</time>
      </trkpt>
      <trkpt lat="45.97803" lon="4.92618">
        <ele>308.200012207</ele>
        <time>2015-08-04T10:03:34.739Z</time>
      </trkpt>
      <trkpt lat="45.97798" lon="4.92624">
        <ele>308.299987793</ele>
        <time>2015-08-04T10:03:35.705Z</time>
      </trkpt>
      <trkpt lat="45.97793" lon="4.92629">
        <ele>308.299987793</ele>
        <time>2015-08-04T10:03:36.733Z</time>
      </trkpt>
      <trkpt lat="45.97789" lon="4.92636">
        <ele>308.200012207</ele>
        <time>2015-08-04T10:03:37.705Z</time>
      </trkpt>
      <trkpt lat="45.97784" lon="4.92642">
        <ele>308</ele>
        <time>2015-08-04T10:03:38.733Z</time>
      </trkpt>
      <trkpt lat="45.97779" lon="4.92648">
        <ele>308.100006104</ele>
        <time>2015-08-04T10:03:39.69Z</time>
      </trkpt>
      <trkpt lat="45.97774" lon="4.92654">
        <ele>308.100006104</ele>
        <time>2015-08-04T10:03:40.874Z</time>
      </trkpt>
      <trkpt lat="45.97769" lon="4.9266">
        <ele>307.799987793</ele>
        <time>2015-08-04T10:03:41.699Z</time>
      </trkpt>
      <trkpt lat="45.97764" lon="4.92666">
        <ele>307.700012207</ele>
        <time>2015-08-04T10:03:42.766Z</time>
      </trkpt>
      <trkpt lat="45.9776" lon="4.92672">
        <ele>307.700012207</ele>
        <time>2015-08-04T10:03:43.704Z</time>
      </trkpt>
      <trkpt lat="45.97754" lon="4.92678">
        <ele>307.899993896</ele>
        <time>2015-08-04T10:03:44.738Z</time>
      </trkpt>
      <trkpt lat="45.9775" lon="4.92685">
        <ele>308.100006104</ele>
        <time>2015-08-04T10:03:45.722Z</time>
      </trkpt>
      <trkpt lat="45.97745" lon="4.92691">
        <ele>308.299987793</ele>
        <time>2015-08-04T10:03:46.74Z</time>
      </trkpt>
      <trkpt lat="45.97739" lon="4.92696">
        <ele>308.600006104</ele>
        <time>2015-08-04T10:03:47.706Z</time>
      </trkpt>
      <trkpt lat="45.97734" lon="4.92703">
        <ele>308.5</ele>
        <time>2015-08-04T10:03:48.737Z</time>
      </trkpt>
      <trkpt lat="45.97729" lon="4.92709">
        <ele>308.600006104</ele>
        <time>2015-08-04T10:03:49.724Z</time>
      </trkpt>
      <trkpt lat="45.97724" lon="4.92715">
        <ele>308.200012207</ele>
        <time>2015-08-04T10:03:50.739Z</time>
      </trkpt>
      <trkpt lat="45.9772" lon="4.92722">
        <ele>308.299987793</ele>
        <time>2015-08-04T10:03:51.698Z</time>
      </trkpt>
      <trkpt lat="45.97715" lon="4.92728">
        <ele>308.100006104</ele>
        <time>2015-08-04T10:03:52.774Z</time>
      </trkpt>
      <trkpt lat="45.9771" lon="4.92734">
        <ele>308</ele>
        <time>2015-08-04T10:03:53.702Z</time>
      </trkpt>
      <trkpt lat="45.97706" lon="4.9274">
        <ele>307.899993896</ele>
        <time>2015-08-04T10:03:54.738Z</time>
      </trkpt>
      <trkpt lat="45.977" lon="4.92745">
        <ele>307.899993896</ele>
        <time>2015-08-04T10:03:55.702Z</time>
      </trkpt>
      <trkpt lat="45.97696" lon="4.92752">
        <ele>307.600006104</ele>
        <time>2015-08-04T10:03:56.733Z</time>
      </trkpt>
      <trkpt lat="45.97691" lon="4.92758">
        <ele>307.700012207</ele>
        <time>2015-08-04T10:03:57.702Z</time>
      </trkpt>
      <trkpt lat="45.97686" lon="4.92763">
        <ele>307.700012207</ele>
        <time>2015-08-04T10:03:58.736Z</time>
      </trkpt>
      <trkpt lat="45.97681" lon="4.92769">
        <ele>307.399993896</ele>
        <time>2015-08-04T10:03:59.732Z</time>
      </trkpt>
      <trkpt lat="45.97676" lon="4.92775">
        <ele>307.299987793</ele>
        <time>2015-08-04T10:04:00.739Z</time>
      </trkpt>
      <trkpt lat="45.97672" lon="4.92782">
        <ele>306.399993896</ele>
        <time>2015-08-04T10:04:01.699Z</time>
      </trkpt>
      <trkpt lat="45.97667" lon="4.92788">
        <ele>306.299987793</ele>
        <time>2015-08-04T10:04:02.77Z</time>
      </trkpt>
      <trkpt lat="45.97661" lon="4.92794">
        <ele>306.100006104</ele>
        <time>2015-08-04T10:04:03.704Z</time>
      </trkpt>
      <trkpt lat="45.97656" lon="4.928">
        <ele>305.899993896</ele>
        <time>2015-08-04T10:04:04.744Z</time>
      </trkpt>
      <trkpt lat="45.97651" lon="4.92806">
        <ele>305.700012207</ele>
        <time>2015-08-04T10:04:05.705Z</time>
      </trkpt>
      <trkpt lat="45.97646" lon="4.92811">
        <ele>305.700012207</ele>
        <time>2015-08-04T10:04:06.734Z</time>
      </trkpt>
      <trkpt lat="45.97641" lon="4.92816">
        <ele>305.700012207</ele>
        <time>2015-08-04T10:04:07.705Z</time>
      </trkpt>
      <trkpt lat="45.97637" lon="4.92822">
        <ele>305.700012207</ele>
        <time>2015-08-04T10:04:08.795Z</time>
      </trkpt>
      <trkpt lat="45.97632" lon="4.92828">
        <ele>305.5</ele>
        <time>2015-08-04T10:04:09.705Z</time>
      </trkpt>
      <trkpt lat="45.97627" lon="4.92834">
        <ele>305.100006104</ele>
        <time>2015-08-04T10:04:10.74Z</time>
      </trkpt>
      <trkpt lat="45.97622" lon="4.92839">
        <ele>305</ele>
        <time>2015-08-04T10:04:11.703Z</time>
      </trkpt>
      <trkpt lat="45.97617" lon="4.92845">
        <ele>305</ele>
        <time>2015-08-04T10:04:12.765Z</time>
      </trkpt>
      <trkpt lat="45.97612" lon="4.92851">
        <ele>304.700012207</ele>
        <time>2015-08-04T10:04:13.704Z</time>
      </trkpt>
      <trkpt lat="45.97607" lon="4.92857">
        <ele>304.200012207</ele>
        <time>2015-08-04T10:04:14.733Z</time>
      </trkpt>
      <trkpt lat="45.97602" lon="4.92864">
        <ele>303.700012207</ele>
        <time>2015-08-04T10:04:15.705Z</time>
      </trkpt>
      <trkpt lat="45.97596" lon="4.9287">
        <ele>303.399993896</ele>
        <time>2015-08-04T10:04:16.74Z</time>
      </trkpt>
      <trkpt lat="45.97591" lon="4.92877">
        <ele>303.100006104</ele>
        <time>2015-08-04T10:04:17.703Z</time>
      </trkpt>
      <trkpt lat="45.97587" lon="4.92883">
        <ele>303.299987793</ele>
        <time>2015-08-04T10:04:18.735Z</time>
      </trkpt>
      <trkpt lat="45.97581" lon="4.9289">
        <ele>303.5</ele>
        <time>2015-08-04T10:04:19.703Z</time>
      </trkpt>
      <trkpt lat="45.97575" lon="4.92896">
        <ele>302.899993896</ele>
        <time>2015-08-04T10:04:20.755Z</time>
      </trkpt>
      <trkpt lat="45.9757" lon="4.92902">
        <ele>303.100006104</ele>
        <time>2015-08-04T10:04:21.704Z</time>
      </trkpt>
      <trkpt lat="45.97565" lon="4.92909">
        <ele>303.299987793</ele>
        <time>2015-08-04T10:04:22.809Z</time>
      </trkpt>
      <trkpt lat="45.9756" lon="4.92915">
        <ele>303.399993896</ele>
        <time>2015-08-04T10:04:23.698Z</time>
      </trkpt>
      <trkpt lat="45.97555" lon="4.92922">
        <ele>303.600006104</ele>
        <time>2015-08-04T10:04:24.734Z</time>
      </trkpt>
      <trkpt lat="45.97551" lon="4.92928">
        <ele>302.799987793</ele>
        <time>2015-08-04T10:04:25.7Z</time>
      </trkpt>
      <trkpt lat="45.97546" lon="4.92934">
        <ele>302.700012207</ele>
        <time>2015-08-04T10:04:26.787Z</time>
      </trkpt>
      <trkpt lat="45.97542" lon="4.92941">
        <ele>303.399993896</ele>
        <time>2015-08-04T10:04:27.698Z</time>
      </trkpt>
      <trkpt lat="45.97537" lon="4.92947">
        <ele>303.399993896</ele>
        <time>2015-08-04T10:04:28.74Z</time>
      </trkpt>
      <trkpt lat="45.97532" lon="4.92952">
        <ele>303.799987793</ele>
        <time>2015-08-04T10:04:29.704Z</time>
      </trkpt>
      <trkpt lat="45.97527" lon="4.92958">
        <ele>304.200012207</ele>
        <time>2015-08-04T10:04:30.734Z</time>
      </trkpt>
      <trkpt lat="45.97522" lon="4.92964">
        <ele>304.5</ele>
        <time>2015-08-04T10:04:31.706Z</time>
      </trkpt>
      <trkpt lat="45.97516" lon="4.9297">
        <ele>305</ele>
        <time>2015-08-04T10:04:32.761Z</time>
      </trkpt>
      <trkpt lat="45.97511" lon="4.92976">
        <ele>305.100006104</ele>
        <time>2015-08-04T10:04:33.705Z</time>
      </trkpt>
      <trkpt lat="45.97506" lon="4.92982">
        <ele>305.5</ele>
        <time>2015-08-04T10:04:34.74Z</time>
      </trkpt>
      <trkpt lat="45.97501" lon="4.92988">
        <ele>305.600006104</ele>
        <time>2015-08-04T10:04:35.703Z</time>
      </trkpt>
      <trkpt lat="45.97496" lon="4.92995">
        <ele>305.600006104</ele>
        <time>2015-08-04T10:04:36.751Z</time>
      </trkpt>
      <trkpt lat="45.9749" lon="4.93001">
        <ele>306.100006104</ele>
        <time>2015-08-04T10:04:37.706Z</time>
      </trkpt>
      <trkpt lat="45.97485" lon="4.93007">
        <ele>306.299987793</ele>
        <time>2015-08-04T10:04:38.736Z</time>
      </trkpt>
      <trkpt lat="45.9748" lon="4.93013">
        <ele>306.5</ele>
        <time>2015-08-04T10:04:39.721Z</time>
      </trkpt>
      <trkpt lat="45.97475" lon="4.93019">
        <ele>306.600006104</ele>
        <time>2015-08-04T10:04:40.786Z</time>
      </trkpt>
      <trkpt lat="45.97471" lon="4.93025">
        <ele>306.700012207</ele>
        <time>2015-08-04T10:04:41.704Z</time>
      </trkpt>
      <trkpt lat="45.97467" lon="4.93031">
        <ele>306.899993896</ele>
        <time>2015-08-04T10:04:42.768Z</time>
      </trkpt>
      <trkpt lat="45.97462" lon="4.93036">
        <ele>306.799987793</ele>
        <time>2015-08-04T10:04:43.704Z</time>
      </trkpt>
      <trkpt lat="45.97458" lon="4.93042">
        <ele>306.700012207</ele>
        <time>2015-08-04T10:04:44.742Z</time>
      </trkpt>
      <trkpt lat="45.97453" lon="4.93048">
        <ele>306.899993896</ele>
        <time>2015-08-04T10:04:45.702Z</time>
      </trkpt>
      <trkpt lat="45.97448" lon="4.93053">
        <ele>307.200012207</ele>
        <time>2015-08-04T10:04:46.744Z</time>
      </trkpt>
      <trkpt lat="45.97443" lon="4.93059">
        <ele>307.299987793</ele>
        <time>2015-08-04T10:04:47.702Z</time>
      </trkpt>
      <trkpt lat="45.97439" lon="4.93065">
        <ele>307.899993896</ele>
        <time>2015-08-04T10:04:48.735Z</time>
      </trkpt>
      <trkpt lat="45.97434" lon="4.9307">
        <ele>308.299987793</ele>
        <time>2015-08-04T10:04:49.7Z</time>
      </trkpt>
      <trkpt lat="45.97429" lon="4.93076">
        <ele>308.5</ele>
        <time>2015-08-04T10:04:50.732Z</time>
      </trkpt>
      <trkpt lat="45.97424" lon="4.93082">
        <ele>308.5</ele>
        <time>2015-08-04T10:04:51.702Z</time>
      </trkpt>
      <trkpt lat="45.9742" lon="4.93088">
        <ele>308.700012207</ele>
        <time>2015-08-04T10:04:52.772Z</time>
      </trkpt>
      <trkpt lat="45.97415" lon="4.93093">
        <ele>309.100006104</ele>
        <time>2015-08-04T10:04:53.741Z</time>
      </trkpt>
      <trkpt lat="45.97411" lon="4.93099">
        <ele>309.399993896</ele>
        <time>2015-08-04T10:04:54.736Z</time>
      </trkpt>
      <trkpt lat="45.97406" lon="4.93105">
        <ele>309.399993896</ele>
        <time>2015-08-04T10:04:55.704Z</time>
      </trkpt>
      <trkpt lat="45.97401" lon="4.93111">
        <ele>309.600006104</ele>
        <time>2015-08-04T10:04:56.738Z</time>
      </trkpt>
      <trkpt lat="45.97397" lon="4.93117">
        <ele>310</ele>
        <time>2015-08-04T10:04:57.706Z</time>
      </trkpt>
      <trkpt lat="45.97392" lon="4.93122">
        <ele>310.100006104</ele>
        <time>2015-08-04T10:04:58.806Z</time>
      </trkpt>
      <trkpt lat="45.97388" lon="4.93129">
        <ele>310</ele>
        <time>2015-08-04T10:04:59.705Z</time>
      </trkpt>
      <trkpt lat="45.97384" lon="4.93134">
        <ele>310.100006104</ele>
        <time>2015-08-04T10:05:00.739Z</time>
      </trkpt>
      <trkpt lat="45.97379" lon="4.93139">
        <ele>310.5</ele>
        <time>2015-08-04T10:05:01.701Z</time>
      </trkpt>
      <trkpt lat="45.97374" lon="4.93145">
        <ele>310.5</ele>
        <time>2015-08-04T10:05:02.787Z</time>
      </trkpt>
      <trkpt lat="45.97369" lon="4.93151">
        <ele>310.399993896</ele>
        <time>2015-08-04T10:05:03.696Z</time>
      </trkpt>
      <trkpt lat="45.97364" lon="4.93156">
        <ele>310.600006104</ele>
        <time>2015-08-04T10:05:04.743Z</time>
      </trkpt>
      <trkpt lat="45.9736" lon="4.93162">
        <ele>310.299987793</ele>
        <time>2015-08-04T10:05:05.7Z</time>
      </trkpt>
      <trkpt lat="45.97356" lon="4.93167">
        <ele>310.200012207</ele>
        <time>2015-08-04T10:05:06.806Z</time>
      </trkpt>
      <trkpt lat="45.97352" lon="4.93172">
        <ele>309.899993896</ele>
        <time>2015-08-04T10:05:07.797Z</time>
      </trkpt>
      <trkpt lat="45.97347" lon="4.93178">
        <ele>309.5</ele>
        <time>2015-08-04T10:05:08.732Z</time>
      </trkpt>
      <trkpt lat="45.97343" lon="4.93183">
        <ele>309.399993896</ele>
        <time>2015-08-04T10:05:09.704Z</time>
      </trkpt>
      <trkpt lat="45.97339" lon="4.93188">
        <ele>309.5</ele>
        <time>2015-08-04T10:05:10.736Z</time>
      </trkpt>
      <trkpt lat="45.97334" lon="4.93193">
        <ele>309.600006104</ele>
        <time>2015-08-04T10:05:11.736Z</time>
      </trkpt>
      <trkpt lat="45.9733" lon="4.93197">
        <ele>309.5</ele>
        <time>2015-08-04T10:05:12.771Z</time>
      </trkpt>
      <trkpt lat="45.97325" lon="4.93201">
        <ele>309.600006104</ele>
        <time>2015-08-04T10:05:13.704Z</time>
      </trkpt>
      <trkpt lat="45.9732" lon="4.93207">
        <ele>309.600006104</ele>
        <time>2015-08-04T10:05:14.738Z</time>
      </trkpt>
      <trkpt lat="45.97316" lon="4.93213">
        <ele>309.399993896</ele>
        <time>2015-08-04T10:05:15.703Z</time>
      </trkpt>
      <trkpt lat="45.97311" lon="4.93218">
        <ele>309.299987793</ele>
        <time>2015-08-04T10:05:16.846Z</time>
      </trkpt>
      <trkpt lat="45.97306" lon="4.93223">
        <ele>309.200012207</ele>
        <time>2015-08-04T10:05:17.705Z</time>
      </trkpt>
      <trkpt lat="45.97301" lon="4.93228">
        <ele>309.299987793</ele>
        <time>2015-08-04T10:05:18.734Z</time>
      </trkpt>
      <trkpt lat="45.97296" lon="4.93233">
        <ele>309</ele>
        <time>2015-08-04T10:05:19.702Z</time>
      </trkpt>
      <trkpt lat="45.97291" lon="4.9324">
        <ele>309</ele>
        <time>2015-08-04T10:05:20.737Z</time>
      </trkpt>
      <trkpt lat="45.97287" lon="4.93246">
        <ele>308.899993896</ele>
        <time>2015-08-04T10:05:21.699Z</time>
      </trkpt>
      <trkpt lat="45.97282" lon="4.93251">
        <ele>308.600006104</ele>
        <time>2015-08-04T10:05:22.759Z</time>
      </trkpt>
      <trkpt lat="45.97277" lon="4.93256">
        <ele>308.600006104</ele>
        <time>2015-08-04T10:05:23.702Z</time>
      </trkpt>
      <trkpt lat="45.97272" lon="4.93262">
        <ele>308.399993896</ele>
        <time>2015-08-04T10:05:24.738Z</time>
      </trkpt>
      <trkpt lat="45.97267" lon="4.93268">
        <ele>308.5</ele>
        <time>2015-08-04T10:05:25.746Z</time>
      </trkpt>
      <trkpt lat="45.97261" lon="4.93274">
        <ele>308.5</ele>
        <time>2015-08-04T10:05:26.737Z</time>
      </trkpt>
      <trkpt lat="45.97256" lon="4.9328">
        <ele>308.100006104</ele>
        <time>2015-08-04T10:05:27.699Z</time>
      </trkpt>
      <trkpt lat="45.97251" lon="4.93286">
        <ele>308</ele>
        <time>2015-08-04T10:05:28.758Z</time>
      </trkpt>
      <trkpt lat="45.97246" lon="4.93292">
        <ele>307.899993896</ele>
        <time>2015-08-04T10:05:29.701Z</time>
      </trkpt>
      <trkpt lat="45.97241" lon="4.93298">
        <ele>308.299987793</ele>
        <time>2015-08-04T10:05:30.76Z</time>
      </trkpt>
      <trkpt lat="45.97236" lon="4.93305">
        <ele>308</ele>
        <time>2015-08-04T10:05:31.705Z</time>
      </trkpt>
      <trkpt lat="45.97231" lon="4.93311">
        <ele>308.100006104</ele>
        <time>2015-08-04T10:05:32.756Z</time>
      </trkpt>
      <trkpt lat="45.97227" lon="4.93317">
        <ele>308.5</ele>
        <time>2015-08-04T10:05:33.722Z</time>
      </trkpt>
      <trkpt lat="45.97222" lon="4.93322">
        <ele>308.799987793</ele>
        <time>2015-08-04T10:05:34.796Z</time>
      </trkpt>
      <trkpt lat="45.97216" lon="4.93328">
        <ele>309.5</ele>
        <time>2015-08-04T10:05:35.706Z</time>
      </trkpt>
      <trkpt lat="45.97212" lon="4.93334">
        <ele>309.5</ele>
        <time>2015-08-04T10:05:36.74Z</time>
      </trkpt>
      <trkpt lat="45.97207" lon="4.9334">
        <ele>309.5</ele>
        <time>2015-08-04T10:05:37.709Z</time>
      </trkpt>
      <trkpt lat="45.97202" lon="4.93347">
        <ele>309.600006104</ele>
        <time>2015-08-04T10:05:38.746Z</time>
      </trkpt>
      <trkpt lat="45.97197" lon="4.93354">
        <ele>309.899993896</ele>
        <time>2015-08-04T10:05:39.7Z</time>
      </trkpt>
      <trkpt lat="45.97192" lon="4.9336">
        <ele>310.5</ele>
        <time>2015-08-04T10:05:40.747Z</time>
      </trkpt>
      <trkpt lat="45.97187" lon="4.93366">
        <ele>310.600006104</ele>
        <time>2015-08-04T10:05:41.7Z</time>
      </trkpt>
      <trkpt lat="45.97183" lon="4.93371">
        <ele>311</ele>
        <time>2015-08-04T10:05:42.757Z</time>
      </trkpt>
      <trkpt lat="45.97179" lon="4.93376">
        <ele>311.5</ele>
        <time>2015-08-04T10:05:43.7Z</time>
      </trkpt>
      <trkpt lat="45.97174" lon="4.93382">
        <ele>312</ele>
        <time>2015-08-04T10:05:44.732Z</time>
      </trkpt>
      <trkpt lat="45.9717" lon="4.93388">
        <ele>312.5</ele>
        <time>2015-08-04T10:05:45.699Z</time>
      </trkpt>
      <trkpt lat="45.97165" lon="4.93394">
        <ele>313</ele>
        <time>2015-08-04T10:05:46.736Z</time>
      </trkpt>
      <trkpt lat="45.97161" lon="4.934">
        <ele>313</ele>
        <time>2015-08-04T10:05:47.694Z</time>
      </trkpt>
      <trkpt lat="45.97156" lon="4.93405">
        <ele>313.100006104</ele>
        <time>2015-08-04T10:05:48.898Z</time>
      </trkpt>
      <trkpt lat="45.97151" lon="4.9341">
        <ele>313.299987793</ele>
        <time>2015-08-04T10:05:49.704Z</time>
      </trkpt>
      <trkpt lat="45.97146" lon="4.93416">
        <ele>313.5</ele>
        <time>2015-08-04T10:05:50.736Z</time>
      </trkpt>
      <trkpt lat="45.97141" lon="4.93422">
        <ele>313.700012207</ele>
        <time>2015-08-04T10:05:51.736Z</time>
      </trkpt>
      <trkpt lat="45.97137" lon="4.93427">
        <ele>313.5</ele>
        <time>2015-08-04T10:05:52.901Z</time>
      </trkpt>
      <trkpt lat="45.97132" lon="4.93433">
        <ele>313.299987793</ele>
        <time>2015-08-04T10:05:53.702Z</time>
      </trkpt>
      <trkpt lat="45.97128" lon="4.93439">
        <ele>313</ele>
        <time>2015-08-04T10:05:54.735Z</time>
      </trkpt>
      <trkpt lat="45.97124" lon="4.93445">
        <ele>312.799987793</ele>
        <time>2015-08-04T10:05:55.699Z</time>
      </trkpt>
      <trkpt lat="45.9712" lon="4.93451">
        <ele>312.700012207</ele>
        <time>2015-08-04T10:05:56.734Z</time>
      </trkpt>
      <trkpt lat="45.97115" lon="4.93456">
        <ele>312.899993896</ele>
        <time>2015-08-04T10:05:57.702Z</time>
      </trkpt>
      <trkpt lat="45.97111" lon="4.93462">
        <ele>312.899993896</ele>
        <time>2015-08-04T10:05:58.736Z</time>
      </trkpt>
      <trkpt lat="45.97106" lon="4.93467">
        <ele>312.600006104</ele>
        <time>2015-08-04T10:05:59.721Z</time>
      </trkpt>
      <trkpt lat="45.97102" lon="4.93473">
        <ele>312.700012207</ele>
        <time>2015-08-04T10:06:00.735Z</time>
      </trkpt>
      <trkpt lat="45.97098" lon="4.93477">
        <ele>312.600006104</ele>
        <time>2015-08-04T10:06:01.704Z</time>
      </trkpt>
      <trkpt lat="45.97094" lon="4.93483">
        <ele>312.5</ele>
        <time>2015-08-04T10:06:02.779Z</time>
      </trkpt>
      <trkpt lat="45.97089" lon="4.93488">
        <ele>312.200012207</ele>
        <time>2015-08-04T10:06:03.703Z</time>
      </trkpt>
      <trkpt lat="45.97084" lon="4.93494">
        <ele>312.5</ele>
        <time>2015-08-04T10:06:04.748Z</time>
      </trkpt>
      <trkpt lat="45.9708" lon="4.93499">
        <ele>312.5</ele>
        <time>2015-08-04T10:06:05.734Z</time>
      </trkpt>
      <trkpt lat="45.97075" lon="4.93504">
        <ele>312.399993896</ele>
        <time>2015-08-04T10:06:06.734Z</time>
      </trkpt>
      <trkpt lat="45.9707" lon="4.9351">
        <ele>312.700012207</ele>
        <time>2015-08-04T10:06:07.705Z</time>
      </trkpt>
      <trkpt lat="45.97066" lon="4.93516">
        <ele>312.899993896</ele>
        <time>2015-08-04T10:06:08.734Z</time>
      </trkpt>
      <trkpt lat="45.97062" lon="4.93522">
        <ele>313</ele>
        <time>2015-08-04T10:06:09.698Z</time>
      </trkpt>
      <trkpt lat="45.97058" lon="4.93527">
        <ele>313.200012207</ele>
        <time>2015-08-04T10:06:10.741Z</time>
      </trkpt>
      <trkpt lat="45.97053" lon="4.93533">
        <ele>313.100006104</ele>
        <time>2015-08-04T10:06:11.702Z</time>
      </trkpt>
      <trkpt lat="45.97049" lon="4.93539">
        <ele>313</ele>
        <time>2015-08-04T10:06:12.74Z</time>
      </trkpt>
      <trkpt lat="45.97044" lon="4.93545">
        <ele>312.700012207</ele>
        <time>2015-08-04T10:06:13.701Z</time>
      </trkpt>
      <trkpt lat="45.97039" lon="4.93551">
        <ele>312.5</ele>
        <time>2015-08-04T10:06:14.733Z</time>
      </trkpt>
      <trkpt lat="45.97034" lon="4.93558">
        <ele>312.299987793</ele>
        <time>2015-08-04T10:06:15.699Z</time>
      </trkpt>
      <trkpt lat="45.9703" lon="4.93564">
        <ele>312.200012207</ele>
        <time>2015-08-04T10:06:16.735Z</time>
      </trkpt>
      <trkpt lat="45.97025" lon="4.93569">
        <ele>312.299987793</ele>
        <time>2015-08-04T10:06:17.699Z</time>
      </trkpt>
      <trkpt lat="45.9702" lon="4.93575">
        <ele>312.299987793</ele>
        <time>2015-08-04T10:06:18.806Z</time>
      </trkpt>
      <trkpt lat="45.97015" lon="4.93582">
        <ele>312.5</ele>
        <time>2015-08-04T10:06:19.699Z</time>
      </trkpt>
      <trkpt lat="45.9701" lon="4.93588">
        <ele>312.200012207</ele>
        <time>2015-08-04T10:06:20.751Z</time>
      </trkpt>
      <trkpt lat="45.97004" lon="4.93595">
        <ele>312.600006104</ele>
        <time>2015-08-04T10:06:21.699Z</time>
      </trkpt>
      <trkpt lat="45.96999" lon="4.93601">
        <ele>312.399993896</ele>
        <time>2015-08-04T10:06:22.744Z</time>
      </trkpt>
      <trkpt lat="45.96993" lon="4.93608">
        <ele>312.399993896</ele>
        <time>2015-08-04T10:06:23.702Z</time>
      </trkpt>
      <trkpt lat="45.96988" lon="4.93615">
        <ele>312.100006104</ele>
        <time>2015-08-04T10:06:24.738Z</time>
      </trkpt>
      <trkpt lat="45.96983" lon="4.93622">
        <ele>311.399993896</ele>
        <time>2015-08-04T10:06:25.699Z</time>
      </trkpt>
      <trkpt lat="45.96977" lon="4.93629">
        <ele>310.799987793</ele>
        <time>2015-08-04T10:06:26.738Z</time>
      </trkpt>
      <trkpt lat="45.96972" lon="4.93635">
        <ele>310.700012207</ele>
        <time>2015-08-04T10:06:27.72Z</time>
      </trkpt>
      <trkpt lat="45.96966" lon="4.93642">
        <ele>310.299987793</ele>
        <time>2015-08-04T10:06:28.734Z</time>
      </trkpt>
      <trkpt lat="45.96961" lon="4.93649">
        <ele>310.5</ele>
        <time>2015-08-04T10:06:29.702Z</time>
      </trkpt>
      <trkpt lat="45.96956" lon="4.93656">
        <ele>310</ele>
        <time>2015-08-04T10:06:30.737Z</time>
      </trkpt>
      <trkpt lat="45.9695" lon="4.93663">
        <ele>310</ele>
        <time>2015-08-04T10:06:31.7Z</time>
      </trkpt>
      <trkpt lat="45.96944" lon="4.93669">
        <ele>309.799987793</ele>
        <time>2015-08-04T10:06:32.747Z</time>
      </trkpt>
      <trkpt lat="45.96938" lon="4.93675">
        <ele>309.5</ele>
        <time>2015-08-04T10:06:33.699Z</time>
      </trkpt>
      <trkpt lat="45.96933" lon="4.93682">
        <ele>309.200012207</ele>
        <time>2015-08-04T10:06:34.735Z</time>
      </trkpt>
      <trkpt lat="45.96926" lon="4.93688">
        <ele>308.899993896</ele>
        <time>2015-08-04T10:06:35.7Z</time>
      </trkpt>
      <trkpt lat="45.96921" lon="4.93694">
        <ele>309.100006104</ele>
        <time>2015-08-04T10:06:36.754Z</time>
      </trkpt>
      <trkpt lat="45.96915" lon="4.937">
        <ele>308.5</ele>
        <time>2015-08-04T10:06:37.704Z</time>
      </trkpt>
      <trkpt lat="45.96908" lon="4.93707">
        <ele>308.700012207</ele>
        <time>2015-08-04T10:06:38.733Z</time>
      </trkpt>
      <trkpt lat="45.96902" lon="4.93715">
        <ele>308.299987793</ele>
        <time>2015-08-04T10:06:39.699Z</time>
      </trkpt>
      <trkpt lat="45.96896" lon="4.93721">
        <ele>307.899993896</ele>
        <time>2015-08-04T10:06:40.759Z</time>
      </trkpt>
      <trkpt lat="45.96889" lon="4.93726">
        <ele>307.5</ele>
        <time>2015-08-04T10:06:41.735Z</time>
      </trkpt>
      <trkpt lat="45.96881" lon="4.9373">
        <ele>307.299987793</ele>
        <time>2015-08-04T10:06:42.734Z</time>
      </trkpt>
      <trkpt lat="45.96873" lon="4.93734">
        <ele>306.799987793</ele>
        <time>2015-08-04T10:06:43.699Z</time>
      </trkpt>
      <trkpt lat="45.96866" lon="4.93737">
        <ele>306.100006104</ele>
        <time>2015-08-04T10:06:44.737Z</time>
      </trkpt>
      <trkpt lat="45.96859" lon="4.9374">
        <ele>305.899993896</ele>
        <time>2015-08-04T10:06:45.699Z</time>
      </trkpt>
      <trkpt lat="45.96851" lon="4.93743">
        <ele>305.799987793</ele>
        <time>2015-08-04T10:06:46.743Z</time>
      </trkpt>
      <trkpt lat="45.96843" lon="4.93746">
        <ele>305.299987793</ele>
        <time>2015-08-04T10:06:47.7Z</time>
      </trkpt>
      <trkpt lat="45.96836" lon="4.93749">
        <ele>304.799987793</ele>
        <time>2015-08-04T10:06:48.736Z</time>
      </trkpt>
      <trkpt lat="45.96829" lon="4.93753">
        <ele>304.5</ele>
        <time>2015-08-04T10:06:49.699Z</time>
      </trkpt>
      <trkpt lat="45.96821" lon="4.93756">
        <ele>303.700012207</ele>
        <time>2015-08-04T10:06:50.733Z</time>
      </trkpt>
      <trkpt lat="45.96814" lon="4.93758">
        <ele>303.100006104</ele>
        <time>2015-08-04T10:06:51.699Z</time>
      </trkpt>
      <trkpt lat="45.96806" lon="4.93761">
        <ele>302.299987793</ele>
        <time>2015-08-04T10:06:52.736Z</time>
      </trkpt>
      <trkpt lat="45.96798" lon="4.93764">
        <ele>301.799987793</ele>
        <time>2015-08-04T10:06:53.699Z</time>
      </trkpt>
      <trkpt lat="45.96791" lon="4.93766">
        <ele>301.600006104</ele>
        <time>2015-08-04T10:06:54.796Z</time>
      </trkpt>
      <trkpt lat="45.96783" lon="4.93769">
        <ele>301.600006104</ele>
        <time>2015-08-04T10:06:55.699Z</time>
      </trkpt>
      <trkpt lat="45.96775" lon="4.93772">
        <ele>301.299987793</ele>
        <time>2015-08-04T10:06:56.751Z</time>
      </trkpt>
      <trkpt lat="45.96768" lon="4.93775">
        <ele>301.600006104</ele>
        <time>2015-08-04T10:06:57.699Z</time>
      </trkpt>
      <trkpt lat="45.96761" lon="4.93778">
        <ele>301.899993896</ele>
        <time>2015-08-04T10:06:58.736Z</time>
      </trkpt>
      <trkpt lat="45.96754" lon="4.93781">
        <ele>302.100006104</ele>
        <time>2015-08-04T10:06:59.699Z</time>
      </trkpt>
      <trkpt lat="45.96747" lon="4.93783">
        <ele>302.100006104</ele>
        <time>2015-08-04T10:07:00.734Z</time>
      </trkpt>
      <trkpt lat="45.9674" lon="4.93785">
        <ele>302.399993896</ele>
        <time>2015-08-04T10:07:01.704Z</time>
      </trkpt>
      <trkpt lat="45.96733" lon="4.93787">
        <ele>302.799987793</ele>
        <time>2015-08-04T10:07:02.767Z</time>
      </trkpt>
      <trkpt lat="45.96727" lon="4.9379">
        <ele>302.600006104</ele>
        <time>2015-08-04T10:07:03.699Z</time>
      </trkpt>
      <trkpt lat="45.96719" lon="4.93792">
        <ele>302.5</ele>
        <time>2015-08-04T10:07:04.739Z</time>
      </trkpt>
      <trkpt lat="45.96713" lon="4.93795">
        <ele>302.200012207</ele>
        <time>2015-08-04T10:07:05.699Z</time>
      </trkpt>
      <trkpt lat="45.96706" lon="4.93798">
        <ele>301.899993896</ele>
        <time>2015-08-04T10:07:06.737Z</time>
      </trkpt>
      <trkpt lat="45.96699" lon="4.93801">
        <ele>301.799987793</ele>
        <time>2015-08-04T10:07:07.699Z</time>
      </trkpt>
      <trkpt lat="45.96692" lon="4.93802">
        <ele>301.200012207</ele>
        <time>2015-08-04T10:07:08.739Z</time>
      </trkpt>
      <trkpt lat="45.96685" lon="4.93803">
        <ele>301</ele>
        <time>2015-08-04T10:07:09.698Z</time>
      </trkpt>
      <trkpt lat="45.96679" lon="4.93802">
        <ele>300.5</ele>
        <time>2015-08-04T10:07:10.739Z</time>
      </trkpt>
      <trkpt lat="45.96673" lon="4.93799">
        <ele>300.200012207</ele>
        <time>2015-08-04T10:07:11.7Z</time>
      </trkpt>
      <trkpt lat="45.96667" lon="4.93795">
        <ele>300.100006104</ele>
        <time>2015-08-04T10:07:12.735Z</time>
      </trkpt>
      <trkpt lat="45.96662" lon="4.93787">
        <ele>300.100006104</ele>
        <time>2015-08-04T10:07:13.7Z</time>
      </trkpt>
      <trkpt lat="45.96658" lon="4.9378">
        <ele>300.200012207</ele>
        <time>2015-08-04T10:07:14.736Z</time>
      </trkpt>
      <trkpt lat="45.96654" lon="4.93772">
        <ele>300.799987793</ele>
        <time>2015-08-04T10:07:15.7Z</time>
      </trkpt>
      <trkpt lat="45.96649" lon="4.93765">
        <ele>301.399993896</ele>
        <time>2015-08-04T10:07:16.739Z</time>
      </trkpt>
      <trkpt lat="45.96644" lon="4.93758">
        <ele>301.799987793</ele>
        <time>2015-08-04T10:07:17.7Z</time>
      </trkpt>
      <trkpt lat="45.96638" lon="4.93752">
        <ele>302.100006104</ele>
        <time>2015-08-04T10:07:18.746Z</time>
      </trkpt>
      <trkpt lat="45.96633" lon="4.93747">
        <ele>302.600006104</ele>
        <time>2015-08-04T10:07:19.698Z</time>
      </trkpt>
      <trkpt lat="45.96627" lon="4.93742">
        <ele>302.399993896</ele>
        <time>2015-08-04T10:07:20.735Z</time>
      </trkpt>
      <trkpt lat="45.96621" lon="4.93736">
        <ele>302.700012207</ele>
        <time>2015-08-04T10:07:21.726Z</time>
      </trkpt>
      <trkpt lat="45.96615" lon="4.9373">
        <ele>302.899993896</ele>
        <time>2015-08-04T10:07:22.74Z</time>
      </trkpt>
      <trkpt lat="45.96609" lon="4.93723">
        <ele>302.899993896</ele>
        <time>2015-08-04T10:07:23.698Z</time>
      </trkpt>
      <trkpt lat="45.96604" lon="4.93717">
        <ele>302.899993896</ele>
        <time>2015-08-04T10:07:24.733Z</time>
      </trkpt>
      <trkpt lat="45.96599" lon="4.93711">
        <ele>303</ele>
        <time>2015-08-04T10:07:25.698Z</time>
      </trkpt>
      <trkpt lat="45.96593" lon="4.93704">
        <ele>303.100006104</ele>
        <time>2015-08-04T10:07:26.737Z</time>
      </trkpt>
      <trkpt lat="45.96588" lon="4.93698">
        <ele>303</ele>
        <time>2015-08-04T10:07:27.698Z</time>
      </trkpt>
      <trkpt lat="45.96583" lon="4.93691">
        <ele>303</ele>
        <time>2015-08-04T10:07:28.756Z</time>
      </trkpt>
      <trkpt lat="45.96577" lon="4.93684">
        <ele>302.700012207</ele>
        <time>2015-08-04T10:07:29.698Z</time>
      </trkpt>
      <trkpt lat="45.96572" lon="4.93678">
        <ele>302.700012207</ele>
        <time>2015-08-04T10:07:30.735Z</time>
      </trkpt>
      <trkpt lat="45.96567" lon="4.93671">
        <ele>302.5</ele>
        <time>2015-08-04T10:07:31.7Z</time>
      </trkpt>
      <trkpt lat="45.96561" lon="4.93663">
        <ele>302.299987793</ele>
        <time>2015-08-04T10:07:32.736Z</time>
      </trkpt>
      <trkpt lat="45.96556" lon="4.93656">
        <ele>302.200012207</ele>
        <time>2015-08-04T10:07:33.698Z</time>
      </trkpt>
      <trkpt lat="45.96551" lon="4.93649">
        <ele>302.100006104</ele>
        <time>2015-08-04T10:07:34.736Z</time>
      </trkpt>
      <trkpt lat="45.96546" lon="4.93642">
        <ele>302</ele>
        <time>2015-08-04T10:07:35.738Z</time>
      </trkpt>
      <trkpt lat="45.96541" lon="4.93634">
        <ele>302</ele>
        <time>2015-08-04T10:07:36.734Z</time>
      </trkpt>
      <trkpt lat="45.96536" lon="4.93627">
        <ele>301.5</ele>
        <time>2015-08-04T10:07:37.698Z</time>
      </trkpt>
      <trkpt lat="45.96531" lon="4.93619">
        <ele>301.299987793</ele>
        <time>2015-08-04T10:07:38.787Z</time>
      </trkpt>
      <trkpt lat="45.96526" lon="4.93612">
        <ele>300.899993896</ele>
        <time>2015-08-04T10:07:39.699Z</time>
      </trkpt>
      <trkpt lat="45.96521" lon="4.93605">
        <ele>301</ele>
        <time>2015-08-04T10:07:40.769Z</time>
      </trkpt>
      <trkpt lat="45.96516" lon="4.93598">
        <ele>301.100006104</ele>
        <time>2015-08-04T10:07:41.699Z</time>
      </trkpt>
      <trkpt lat="45.96511" lon="4.93591">
        <ele>301</ele>
        <time>2015-08-04T10:07:42.733Z</time>
      </trkpt>
      <trkpt lat="45.96507" lon="4.93584">
        <ele>300.899993896</ele>
        <time>2015-08-04T10:07:43.698Z</time>
      </trkpt>
      <trkpt lat="45.96503" lon="4.93577">
        <ele>300.899993896</ele>
        <time>2015-08-04T10:07:44.73Z</time>
      </trkpt>
      <trkpt lat="45.96498" lon="4.9357">
        <ele>300.899993896</ele>
        <time>2015-08-04T10:07:45.7Z</time>
      </trkpt>
      <trkpt lat="45.96493" lon="4.93564">
        <ele>301</ele>
        <time>2015-08-04T10:07:46.739Z</time>
      </trkpt>
      <trkpt lat="45.96489" lon="4.93558">
        <ele>301.299987793</ele>
        <time>2015-08-04T10:07:47.698Z</time>
      </trkpt>
      <trkpt lat="45.96485" lon="4.93551">
        <ele>301.399993896</ele>
        <time>2015-08-04T10:07:48.735Z</time>
      </trkpt>
      <trkpt lat="45.96481" lon="4.93544">
        <ele>301.399993896</ele>
        <time>2015-08-04T10:07:49.698Z</time>
      </trkpt>
      <trkpt lat="45.96477" lon="4.93538">
        <ele>301.700012207</ele>
        <time>2015-08-04T10:07:50.742Z</time>
      </trkpt>
      <trkpt lat="45.96472" lon="4.93532">
        <ele>302</ele>
        <time>2015-08-04T10:07:51.698Z</time>
      </trkpt>
      <trkpt lat="45.96468" lon="4.93525">
        <ele>302.299987793</ele>
        <time>2015-08-04T10:07:52.735Z</time>
      </trkpt>
      <trkpt lat="45.96464" lon="4.93519">
        <ele>302.200012207</ele>
        <time>2015-08-04T10:07:53.698Z</time>
      </trkpt>
      <trkpt lat="45.96459" lon="4.93512">
        <ele>302.200012207</ele>
        <time>2015-08-04T10:07:54.749Z</time>
      </trkpt>
      <trkpt lat="45.96455" lon="4.93505">
        <ele>301.899993896</ele>
        <time>2015-08-04T10:07:55.698Z</time>
      </trkpt>
      <trkpt lat="45.9645" lon="4.93498">
        <ele>301.700012207</ele>
        <time>2015-08-04T10:07:56.732Z</time>
      </trkpt>
      <trkpt lat="45.96445" lon="4.93492">
        <ele>301.5</ele>
        <time>2015-08-04T10:07:57.7Z</time>
      </trkpt>
      <trkpt lat="45.96441" lon="4.93485">
        <ele>301.5</ele>
        <time>2015-08-04T10:07:58.738Z</time>
      </trkpt>
      <trkpt lat="45.96436" lon="4.93478">
        <ele>301.399993896</ele>
        <time>2015-08-04T10:07:59.7Z</time>
      </trkpt>
      <trkpt lat="45.9643" lon="4.93472">
        <ele>301.100006104</ele>
        <time>2015-08-04T10:08:00.738Z</time>
      </trkpt>
      <trkpt lat="45.96426" lon="4.93466">
        <ele>301</ele>
        <time>2015-08-04T10:08:01.708Z</time>
      </trkpt>
      <trkpt lat="45.96421" lon="4.9346">
        <ele>300.700012207</ele>
        <time>2015-08-04T10:08:02.732Z</time>
      </trkpt>
      <trkpt lat="45.96416" lon="4.93455">
        <ele>300.299987793</ele>
        <time>2015-08-04T10:08:03.7Z</time>
      </trkpt>
      <trkpt lat="45.96411" lon="4.93451">
        <ele>300</ele>
        <time>2015-08-04T10:08:04.739Z</time>
      </trkpt>
      <trkpt lat="45.96406" lon="4.93447">
        <ele>299.700012207</ele>
        <time>2015-08-04T10:08:05.698Z</time>
      </trkpt>
      <trkpt lat="45.964" lon="4.93442">
        <ele>299.600006104</ele>
        <time>2015-08-04T10:08:06.733Z</time>
      </trkpt>
      <trkpt lat="45.96394" lon="4.93438">
        <ele>299.600006104</ele>
        <time>2015-08-04T10:08:07.699Z</time>
      </trkpt>
      <trkpt lat="45.96389" lon="4.93435">
        <ele>299.700012207</ele>
        <time>2015-08-04T10:08:08.736Z</time>
      </trkpt>
      <trkpt lat="45.96383" lon="4.93431">
        <ele>299.5</ele>
        <time>2015-08-04T10:08:09.698Z</time>
      </trkpt>
      <trkpt lat="45.96377" lon="4.93428">
        <ele>299.200012207</ele>
        <time>2015-08-04T10:08:10.735Z</time>
      </trkpt>
      <trkpt lat="45.96372" lon="4.93424">
        <ele>299</ele>
        <time>2015-08-04T10:08:11.738Z</time>
      </trkpt>
      <trkpt lat="45.96366" lon="4.9342">
        <ele>298.5</ele>
        <time>2015-08-04T10:08:12.739Z</time>
      </trkpt>
      <trkpt lat="45.9636" lon="4.93416">
        <ele>298.5</ele>
        <time>2015-08-04T10:08:13.699Z</time>
      </trkpt>
      <trkpt lat="45.96354" lon="4.93413">
        <ele>298.700012207</ele>
        <time>2015-08-04T10:08:14.735Z</time>
      </trkpt>
      <trkpt lat="45.96347" lon="4.93409">
        <ele>298.799987793</ele>
        <time>2015-08-04T10:08:15.719Z</time>
      </trkpt>
      <trkpt lat="45.9634" lon="4.93405">
        <ele>298.5</ele>
        <time>2015-08-04T10:08:16.747Z</time>
      </trkpt>
      <trkpt lat="45.96334" lon="4.934">
        <ele>299.100006104</ele>
        <time>2015-08-04T10:08:17.7Z</time>
      </trkpt>
      <trkpt lat="45.96328" lon="4.93396">
        <ele>299.299987793</ele>
        <time>2015-08-04T10:08:18.734Z</time>
      </trkpt>
      <trkpt lat="45.96322" lon="4.93392">
        <ele>299.200012207</ele>
        <time>2015-08-04T10:08:19.7Z</time>
      </trkpt>
      <trkpt lat="45.96317" lon="4.93389">
        <ele>299.100006104</ele>
        <time>2015-08-04T10:08:20.755Z</time>
      </trkpt>
      <trkpt lat="45.96312" lon="4.93385">
        <ele>299.100006104</ele>
        <time>2015-08-04T10:08:21.698Z</time>
      </trkpt>
      <trkpt lat="45.96306" lon="4.93381">
        <ele>299.100006104</ele>
        <time>2015-08-04T10:08:22.739Z</time>
      </trkpt>
      <trkpt lat="45.96299" lon="4.93377">
        <ele>299.200012207</ele>
        <time>2015-08-04T10:08:23.7Z</time>
      </trkpt>
      <trkpt lat="45.96293" lon="4.93373">
        <ele>299.100006104</ele>
        <time>2015-08-04T10:08:24.736Z</time>
      </trkpt>
      <trkpt lat="45.96287" lon="4.9337">
        <ele>299.5</ele>
        <time>2015-08-04T10:08:25.701Z</time>
      </trkpt>
      <trkpt lat="45.96281" lon="4.93367">
        <ele>299.799987793</ele>
        <time>2015-08-04T10:08:26.732Z</time>
      </trkpt>
      <trkpt lat="45.96275" lon="4.93363">
        <ele>300.200012207</ele>
        <time>2015-08-04T10:08:27.698Z</time>
      </trkpt>
      <trkpt lat="45.96269" lon="4.93359">
        <ele>300.5</ele>
        <time>2015-08-04T10:08:28.736Z</time>
      </trkpt>
      <trkpt lat="45.96264" lon="4.93355">
        <ele>300.600006104</ele>
        <time>2015-08-04T10:08:29.698Z</time>
      </trkpt>
      <trkpt lat="45.96258" lon="4.93351">
        <ele>300.799987793</ele>
        <time>2015-08-04T10:08:30.733Z</time>
      </trkpt>
      <trkpt lat="45.96252" lon="4.93346">
        <ele>300.899993896</ele>
        <time>2015-08-04T10:08:31.7Z</time>
      </trkpt>
      <trkpt lat="45.96247" lon="4.93341">
        <ele>301.100006104</ele>
        <time>2015-08-04T10:08:32.735Z</time>
      </trkpt>
      <trkpt lat="45.96242" lon="4.93336">
        <ele>301.200012207</ele>
        <time>2015-08-04T10:08:33.699Z</time>
      </trkpt>
      <trkpt lat="45.96237" lon="4.9333">
        <ele>301.399993896</ele>
        <time>2015-08-04T10:08:34.736Z</time>
      </trkpt>
      <trkpt lat="45.96232" lon="4.93324">
        <ele>301.5</ele>
        <time>2015-08-04T10:08:35.7Z</time>
      </trkpt>
      <trkpt lat="45.96227" lon="4.93318">
        <ele>301.700012207</ele>
        <time>2015-08-04T10:08:36.75Z</time>
      </trkpt>
      <trkpt lat="45.96222" lon="4.93311">
        <ele>301.799987793</ele>
        <time>2015-08-04T10:08:37.7Z</time>
      </trkpt>
      <trkpt lat="45.96218" lon="4.93304">
        <ele>302</ele>
        <time>2015-08-04T10:08:38.733Z</time>
      </trkpt>
      <trkpt lat="45.96214" lon="4.93296">
        <ele>302.299987793</ele>
        <time>2015-08-04T10:08:39.7Z</time>
      </trkpt>
      <trkpt lat="45.9621" lon="4.93288">
        <ele>302.100006104</ele>
        <time>2015-08-04T10:08:40.763Z</time>
      </trkpt>
      <trkpt lat="45.96205" lon="4.9328">
        <ele>302.200012207</ele>
        <time>2015-08-04T10:08:41.698Z</time>
      </trkpt>
      <trkpt lat="45.96202" lon="4.93271">
        <ele>302.299987793</ele>
        <time>2015-08-04T10:08:42.733Z</time>
      </trkpt>
      <trkpt lat="45.96198" lon="4.93263">
        <ele>302.399993896</ele>
        <time>2015-08-04T10:08:43.7Z</time>
      </trkpt>
      <trkpt lat="45.96195" lon="4.93254">
        <ele>302.700012207</ele>
        <time>2015-08-04T10:08:44.737Z</time>
      </trkpt>
      <trkpt lat="45.96192" lon="4.93246">
        <ele>302.799987793</ele>
        <time>2015-08-04T10:08:45.698Z</time>
      </trkpt>
      <trkpt lat="45.9619" lon="4.93237">
        <ele>302.399993896</ele>
        <time>2015-08-04T10:08:46.74Z</time>
      </trkpt>
      <trkpt lat="45.96187" lon="4.93227">
        <ele>301.899993896</ele>
        <time>2015-08-04T10:08:47.698Z</time>
      </trkpt>
      <trkpt lat="45.96184" lon="4.93218">
        <ele>301.799987793</ele>
        <time>2015-08-04T10:08:48.736Z</time>
      </trkpt>
      <trkpt lat="45.96181" lon="4.93209">
        <ele>301.5</ele>
        <time>2015-08-04T10:08:49.7Z</time>
      </trkpt>
      <trkpt lat="45.96178" lon="4.93199">
        <ele>301.299987793</ele>
        <time>2015-08-04T10:08:50.751Z</time>
      </trkpt>
      <trkpt lat="45.96176" lon="4.93189">
        <ele>301</ele>
        <time>2015-08-04T10:08:51.737Z</time>
      </trkpt>
      <trkpt lat="45.96173" lon="4.93179">
        <ele>300.899993896</ele>
        <time>2015-08-04T10:08:52.755Z</time>
      </trkpt>
      <trkpt lat="45.96171" lon="4.93169">
        <ele>301.100006104</ele>
        <time>2015-08-04T10:08:53.7Z</time>
      </trkpt>
      <trkpt lat="45.96168" lon="4.93159">
        <ele>301.200012207</ele>
        <time>2015-08-04T10:08:54.738Z</time>
      </trkpt>
      <trkpt lat="45.96165" lon="4.93149">
        <ele>301.399993896</ele>
        <time>2015-08-04T10:08:55.698Z</time>
      </trkpt>
      <trkpt lat="45.96162" lon="4.93139">
        <ele>301.100006104</ele>
        <time>2015-08-04T10:08:56.735Z</time>
      </trkpt>
      <trkpt lat="45.9616" lon="4.93129">
        <ele>301.200012207</ele>
        <time>2015-08-04T10:08:57.698Z</time>
      </trkpt>
      <trkpt lat="45.96157" lon="4.93119">
        <ele>301</ele>
        <time>2015-08-04T10:08:58.734Z</time>
      </trkpt>
      <trkpt lat="45.96154" lon="4.93109">
        <ele>300</ele>
        <time>2015-08-04T10:08:59.698Z</time>
      </trkpt>
      <trkpt lat="45.96151" lon="4.93099">
        <ele>299.899993896</ele>
        <time>2015-08-04T10:09:00.744Z</time>
      </trkpt>
      <trkpt lat="45.96148" lon="4.93089">
        <ele>299.899993896</ele>
        <time>2015-08-04T10:09:01.704Z</time>
      </trkpt>
      <trkpt lat="45.96146" lon="4.9308">
        <ele>299.700012207</ele>
        <time>2015-08-04T10:09:02.732Z</time>
      </trkpt>
      <trkpt lat="45.96143" lon="4.9307">
        <ele>299.5</ele>
        <time>2015-08-04T10:09:03.7Z</time>
      </trkpt>
      <trkpt lat="45.96141" lon="4.93061">
        <ele>299.399993896</ele>
        <time>2015-08-04T10:09:04.736Z</time>
      </trkpt>
      <trkpt lat="45.96138" lon="4.93051">
        <ele>299.299987793</ele>
        <time>2015-08-04T10:09:05.698Z</time>
      </trkpt>
      <trkpt lat="45.96136" lon="4.93042">
        <ele>299.100006104</ele>
        <time>2015-08-04T10:09:06.826Z</time>
      </trkpt>
      <trkpt lat="45.96133" lon="4.93034">
        <ele>300.600006104</ele>
        <time>2015-08-04T10:09:07.7Z</time>
      </trkpt>
      <trkpt lat="45.96131" lon="4.93026">
        <ele>301.100006104</ele>
        <time>2015-08-04T10:09:08.75Z</time>
      </trkpt>
      <trkpt lat="45.96129" lon="4.93018">
        <ele>301.600006104</ele>
        <time>2015-08-04T10:09:09.722Z</time>
      </trkpt>
      <trkpt lat="45.96127" lon="4.9301">
        <ele>302.100006104</ele>
        <time>2015-08-04T10:09:10.736Z</time>
      </trkpt>
      <trkpt lat="45.96125" lon="4.93002">
        <ele>302.399993896</ele>
        <time>2015-08-04T10:09:11.7Z</time>
      </trkpt>
      <trkpt lat="45.96123" lon="4.92994">
        <ele>302.700012207</ele>
        <time>2015-08-04T10:09:12.734Z</time>
      </trkpt>
      <trkpt lat="45.96121" lon="4.92986">
        <ele>302.600006104</ele>
        <time>2015-08-04T10:09:13.699Z</time>
      </trkpt>
      <trkpt lat="45.96119" lon="4.92977">
        <ele>302.700012207</ele>
        <time>2015-08-04T10:09:14.738Z</time>
      </trkpt>
      <trkpt lat="45.96116" lon="4.92969">
        <ele>302.899993896</ele>
        <time>2015-08-04T10:09:15.698Z</time>
      </trkpt>
      <trkpt lat="45.96114" lon="4.92961">
        <ele>302.200012207</ele>
        <time>2015-08-04T10:09:16.738Z</time>
      </trkpt>
      <trkpt lat="45.96112" lon="4.92953">
        <ele>302.299987793</ele>
        <time>2015-08-04T10:09:17.698Z</time>
      </trkpt>
      <trkpt lat="45.9611" lon="4.92944">
        <ele>302.399993896</ele>
        <time>2015-08-04T10:09:18.733Z</time>
      </trkpt>
      <trkpt lat="45.96107" lon="4.92935">
        <ele>302.200012207</ele>
        <time>2015-08-04T10:09:19.698Z</time>
      </trkpt>
      <trkpt lat="45.96105" lon="4.92927">
        <ele>302.5</ele>
        <time>2015-08-04T10:09:20.733Z</time>
      </trkpt>
      <trkpt lat="45.96103" lon="4.92919">
        <ele>302.299987793</ele>
        <time>2015-08-04T10:09:21.698Z</time>
      </trkpt>
      <trkpt lat="45.961" lon="4.92911">
        <ele>302.299987793</ele>
        <time>2015-08-04T10:09:22.74Z</time>
      </trkpt>
      <trkpt lat="45.96098" lon="4.92903">
        <ele>302.5</ele>
        <time>2015-08-04T10:09:23.715Z</time>
      </trkpt>
      <trkpt lat="45.96096" lon="4.92896">
        <ele>302.5</ele>
        <time>2015-08-04T10:09:24.752Z</time>
      </trkpt>
      <trkpt lat="45.96093" lon="4.92887">
        <ele>302</ele>
        <time>2015-08-04T10:09:25.7Z</time>
      </trkpt>
      <trkpt lat="45.96091" lon="4.92879">
        <ele>301.799987793</ele>
        <time>2015-08-04T10:09:26.732Z</time>
      </trkpt>
      <trkpt lat="45.96089" lon="4.92871">
        <ele>301.799987793</ele>
        <time>2015-08-04T10:09:27.698Z</time>
      </trkpt>
      <trkpt lat="45.96086" lon="4.92862">
        <ele>301.700012207</ele>
        <time>2015-08-04T10:09:28.739Z</time>
      </trkpt>
      <trkpt lat="45.96083" lon="4.92853">
        <ele>301.899993896</ele>
        <time>2015-08-04T10:09:29.723Z</time>
      </trkpt>
      <trkpt lat="45.96081" lon="4.92844">
        <ele>301.899993896</ele>
        <time>2015-08-04T10:09:30.733Z</time>
      </trkpt>
      <trkpt lat="45.96078" lon="4.92835">
        <ele>302</ele>
        <time>2015-08-04T10:09:31.699Z</time>
      </trkpt>
      <trkpt lat="45.96075" lon="4.92826">
        <ele>302</ele>
        <time>2015-08-04T10:09:32.735Z</time>
      </trkpt>
      <trkpt lat="45.96073" lon="4.92817">
        <ele>301.799987793</ele>
        <time>2015-08-04T10:09:33.702Z</time>
      </trkpt>
      <trkpt lat="45.96071" lon="4.92808">
        <ele>301.799987793</ele>
        <time>2015-08-04T10:09:34.735Z</time>
      </trkpt>
      <trkpt lat="45.96068" lon="4.928">
        <ele>301.899993896</ele>
        <time>2015-08-04T10:09:35.702Z</time>
      </trkpt>
      <trkpt lat="45.96066" lon="4.92791">
        <ele>301.799987793</ele>
        <time>2015-08-04T10:09:36.734Z</time>
      </trkpt>
      <trkpt lat="45.96064" lon="4.92782">
        <ele>301.799987793</ele>
        <time>2015-08-04T10:09:37.699Z</time>
      </trkpt>
      <trkpt lat="45.96061" lon="4.92773">
        <ele>301.700012207</ele>
        <time>2015-08-04T10:09:38.748Z</time>
      </trkpt>
      <trkpt lat="45.96058" lon="4.92763">
        <ele>301.700012207</ele>
        <time>2015-08-04T10:09:39.697Z</time>
      </trkpt>
      <trkpt lat="45.96056" lon="4.92754">
        <ele>300.399993896</ele>
        <time>2015-08-04T10:09:40.766Z</time>
      </trkpt>
      <trkpt lat="45.96054" lon="4.92744">
        <ele>299.600006104</ele>
        <time>2015-08-04T10:09:41.756Z</time>
      </trkpt>
      <trkpt lat="45.96051" lon="4.92734">
        <ele>299.299987793</ele>
        <time>2015-08-04T10:09:42.741Z</time>
      </trkpt>
      <trkpt lat="45.96048" lon="4.92725">
        <ele>299.299987793</ele>
        <time>2015-08-04T10:09:43.702Z</time>
      </trkpt>
      <trkpt lat="45.96046" lon="4.92716">
        <ele>299.200012207</ele>
        <time>2015-08-04T10:09:44.733Z</time>
      </trkpt>
      <trkpt lat="45.96043" lon="4.92707">
        <ele>299.200012207</ele>
        <time>2015-08-04T10:09:45.699Z</time>
      </trkpt>
      <trkpt lat="45.9604" lon="4.92698">
        <ele>299.100006104</ele>
        <time>2015-08-04T10:09:46.735Z</time>
      </trkpt>
      <trkpt lat="45.96037" lon="4.9269">
        <ele>299.700012207</ele>
        <time>2015-08-04T10:09:47.699Z</time>
      </trkpt>
      <trkpt lat="45.96034" lon="4.92682">
        <ele>299.799987793</ele>
        <time>2015-08-04T10:09:48.747Z</time>
      </trkpt>
      <trkpt lat="45.96032" lon="4.92674">
        <ele>300.200012207</ele>
        <time>2015-08-04T10:09:49.699Z</time>
      </trkpt>
      <trkpt lat="45.96029" lon="4.92667">
        <ele>300.600006104</ele>
        <time>2015-08-04T10:09:50.826Z</time>
      </trkpt>
      <trkpt lat="45.96027" lon="4.9266">
        <ele>300.399993896</ele>
        <time>2015-08-04T10:09:51.702Z</time>
      </trkpt>
      <trkpt lat="45.96025" lon="4.92651">
        <ele>300.200012207</ele>
        <time>2015-08-04T10:09:52.736Z</time>
      </trkpt>
      <trkpt lat="45.96023" lon="4.92644">
        <ele>300.200012207</ele>
        <time>2015-08-04T10:09:53.7Z</time>
      </trkpt>
      <trkpt lat="45.9602" lon="4.92635">
        <ele>300.200012207</ele>
        <time>2015-08-04T10:09:54.734Z</time>
      </trkpt>
      <trkpt lat="45.96018" lon="4.92627">
        <ele>300.299987793</ele>
        <time>2015-08-04T10:09:55.701Z</time>
      </trkpt>
      <trkpt lat="45.96016" lon="4.92619">
        <ele>300.399993896</ele>
        <time>2015-08-04T10:09:56.737Z</time>
      </trkpt>
      <trkpt lat="45.96014" lon="4.92611">
        <ele>300.700012207</ele>
        <time>2015-08-04T10:09:57.7Z</time>
      </trkpt>
      <trkpt lat="45.96011" lon="4.92602">
        <ele>301.200012207</ele>
        <time>2015-08-04T10:09:58.736Z</time>
      </trkpt>
      <trkpt lat="45.96009" lon="4.92594">
        <ele>301.5</ele>
        <time>2015-08-04T10:09:59.736Z</time>
      </trkpt>
      <trkpt lat="45.96007" lon="4.92586">
        <ele>302.200012207</ele>
        <time>2015-08-04T10:10:00.742Z</time>
      </trkpt>
      <trkpt lat="45.96006" lon="4.92578">
        <ele>302.399993896</ele>
        <time>2015-08-04T10:10:01.704Z</time>
      </trkpt>
      <trkpt lat="45.96004" lon="4.92569">
        <ele>302.600006104</ele>
        <time>2015-08-04T10:10:02.735Z</time>
      </trkpt>
      <trkpt lat="45.96003" lon="4.92561">
        <ele>302.700012207</ele>
        <time>2015-08-04T10:10:03.722Z</time>
      </trkpt>
      <trkpt lat="45.96" lon="4.92552">
        <ele>302.399993896</ele>
        <time>2015-08-04T10:10:04.738Z</time>
      </trkpt>
      <trkpt lat="45.95998" lon="4.92544">
        <ele>302.100006104</ele>
        <time>2015-08-04T10:10:05.703Z</time>
      </trkpt>
      <trkpt lat="45.95996" lon="4.92535">
        <ele>302.399993896</ele>
        <time>2015-08-04T10:10:06.735Z</time>
      </trkpt>
      <trkpt lat="45.95993" lon="4.92526">
        <ele>302.5</ele>
        <time>2015-08-04T10:10:07.703Z</time>
      </trkpt>
      <trkpt lat="45.95991" lon="4.92518">
        <ele>301.700012207</ele>
        <time>2015-08-04T10:10:08.742Z</time>
      </trkpt>
      <trkpt lat="45.95989" lon="4.92509">
        <ele>301.700012207</ele>
        <time>2015-08-04T10:10:09.703Z</time>
      </trkpt>
      <trkpt lat="45.95987" lon="4.92501">
        <ele>301.899993896</ele>
        <time>2015-08-04T10:10:10.761Z</time>
      </trkpt>
      <trkpt lat="45.95985" lon="4.92493">
        <ele>302.100006104</ele>
        <time>2015-08-04T10:10:11.715Z</time>
      </trkpt>
      <trkpt lat="45.95982" lon="4.92484">
        <ele>301.700012207</ele>
        <time>2015-08-04T10:10:12.736Z</time>
      </trkpt>
      <trkpt lat="45.95981" lon="4.92476">
        <ele>301.5</ele>
        <time>2015-08-04T10:10:13.703Z</time>
      </trkpt>
      <trkpt lat="45.95979" lon="4.92468">
        <ele>301.399993896</ele>
        <time>2015-08-04T10:10:14.734Z</time>
      </trkpt>
      <trkpt lat="45.95977" lon="4.92459">
        <ele>301.5</ele>
        <time>2015-08-04T10:10:15.703Z</time>
      </trkpt>
      <trkpt lat="45.95975" lon="4.92451">
        <ele>301.5</ele>
        <time>2015-08-04T10:10:16.74Z</time>
      </trkpt>
      <trkpt lat="45.95975" lon="4.92442">
        <ele>301.5</ele>
        <time>2015-08-04T10:10:17.702Z</time>
      </trkpt>
      <trkpt lat="45.95974" lon="4.92433">
        <ele>301.600006104</ele>
        <time>2015-08-04T10:10:18.735Z</time>
      </trkpt>
      <trkpt lat="45.95973" lon="4.92425">
        <ele>301.799987793</ele>
        <time>2015-08-04T10:10:19.702Z</time>
      </trkpt>
      <trkpt lat="45.95972" lon="4.92417">
        <ele>302</ele>
        <time>2015-08-04T10:10:20.75Z</time>
      </trkpt>
      <trkpt lat="45.9597" lon="4.92408">
        <ele>301.899993896</ele>
        <time>2015-08-04T10:10:21.703Z</time>
      </trkpt>
      <trkpt lat="45.95969" lon="4.924">
        <ele>301.799987793</ele>
        <time>2015-08-04T10:10:22.737Z</time>
      </trkpt>
      <trkpt lat="45.95967" lon="4.92392">
        <ele>301.799987793</ele>
        <time>2015-08-04T10:10:23.698Z</time>
      </trkpt>
      <trkpt lat="45.95965" lon="4.92383">
        <ele>301.899993896</ele>
        <time>2015-08-04T10:10:24.735Z</time>
      </trkpt>
      <trkpt lat="45.95963" lon="4.92376">
        <ele>301.899993896</ele>
        <time>2015-08-04T10:10:25.702Z</time>
      </trkpt>
      <trkpt lat="45.95962" lon="4.92368">
        <ele>302.100006104</ele>
        <time>2015-08-04T10:10:26.734Z</time>
      </trkpt>
      <trkpt lat="45.9596" lon="4.9236">
        <ele>302.399993896</ele>
        <time>2015-08-04T10:10:27.706Z</time>
      </trkpt>
      <trkpt lat="45.95959" lon="4.92352">
        <ele>302.5</ele>
        <time>2015-08-04T10:10:28.738Z</time>
      </trkpt>
      <trkpt lat="45.95957" lon="4.92344">
        <ele>302.799987793</ele>
        <time>2015-08-04T10:10:29.699Z</time>
      </trkpt>
      <trkpt lat="45.95956" lon="4.92336">
        <ele>303.100006104</ele>
        <time>2015-08-04T10:10:30.761Z</time>
      </trkpt>
      <trkpt lat="45.95954" lon="4.92328">
        <ele>303.5</ele>
        <time>2015-08-04T10:10:31.703Z</time>
      </trkpt>
      <trkpt lat="45.95953" lon="4.9232">
        <ele>303.399993896</ele>
        <time>2015-08-04T10:10:32.751Z</time>
      </trkpt>
      <trkpt lat="45.95951" lon="4.92312">
        <ele>303.799987793</ele>
        <time>2015-08-04T10:10:33.697Z</time>
      </trkpt>
      <trkpt lat="45.95949" lon="4.92305">
        <ele>304.399993896</ele>
        <time>2015-08-04T10:10:34.787Z</time>
      </trkpt>
      <trkpt lat="45.95948" lon="4.92297">
        <ele>304.700012207</ele>
        <time>2015-08-04T10:10:35.706Z</time>
      </trkpt>
      <trkpt lat="45.95947" lon="4.92289">
        <ele>305</ele>
        <time>2015-08-04T10:10:36.736Z</time>
      </trkpt>
      <trkpt lat="45.95945" lon="4.92281">
        <ele>305.100006104</ele>
        <time>2015-08-04T10:10:37.707Z</time>
      </trkpt>
      <trkpt lat="45.95945" lon="4.92273">
        <ele>305.200012207</ele>
        <time>2015-08-04T10:10:38.738Z</time>
      </trkpt>
      <trkpt lat="45.95944" lon="4.92265">
        <ele>305.299987793</ele>
        <time>2015-08-04T10:10:39.709Z</time>
      </trkpt>
      <trkpt lat="45.95942" lon="4.92257">
        <ele>305.200012207</ele>
        <time>2015-08-04T10:10:40.744Z</time>
      </trkpt>
      <trkpt lat="45.95941" lon="4.92248">
        <ele>305</ele>
        <time>2015-08-04T10:10:41.699Z</time>
      </trkpt>
      <trkpt lat="45.9594" lon="4.9224">
        <ele>305.100006104</ele>
        <time>2015-08-04T10:10:42.74Z</time>
      </trkpt>
      <trkpt lat="45.95939" lon="4.92231">
        <ele>305.200012207</ele>
        <time>2015-08-04T10:10:43.699Z</time>
      </trkpt>
      <trkpt lat="45.95938" lon="4.92223">
        <ele>305.299987793</ele>
        <time>2015-08-04T10:10:44.776Z</time>
      </trkpt>
      <trkpt lat="45.95937" lon="4.92215">
        <ele>305.299987793</ele>
        <time>2015-08-04T10:10:45.702Z</time>
      </trkpt>
      <trkpt lat="45.95935" lon="4.92207">
        <ele>305.399993896</ele>
        <time>2015-08-04T10:10:46.748Z</time>
      </trkpt>
      <trkpt lat="45.95933" lon="4.92199">
        <ele>305.299987793</ele>
        <time>2015-08-04T10:10:47.702Z</time>
      </trkpt>
      <trkpt lat="45.95933" lon="4.92192">
        <ele>304.799987793</ele>
        <time>2015-08-04T10:10:48.738Z</time>
      </trkpt>
      <trkpt lat="45.95932" lon="4.92184">
        <ele>304.5</ele>
        <time>2015-08-04T10:10:49.699Z</time>
      </trkpt>
      <trkpt lat="45.95931" lon="4.92176">
        <ele>304.299987793</ele>
        <time>2015-08-04T10:10:50.748Z</time>
      </trkpt>
      <trkpt lat="45.95928" lon="4.92168">
        <ele>304.5</ele>
        <time>2015-08-04T10:10:51.698Z</time>
      </trkpt>
      <trkpt lat="45.95927" lon="4.92159">
        <ele>304.399993896</ele>
        <time>2015-08-04T10:10:52.776Z</time>
      </trkpt>
      <trkpt lat="45.95926" lon="4.92151">
        <ele>304.399993896</ele>
        <time>2015-08-04T10:10:53.734Z</time>
      </trkpt>
      <trkpt lat="45.95924" lon="4.92143">
        <ele>303.899993896</ele>
        <time>2015-08-04T10:10:54.738Z</time>
      </trkpt>
      <trkpt lat="45.95923" lon="4.92135">
        <ele>304.200012207</ele>
        <time>2015-08-04T10:10:55.7Z</time>
      </trkpt>
      <trkpt lat="45.95922" lon="4.92127">
        <ele>304.200012207</ele>
        <time>2015-08-04T10:10:56.733Z</time>
      </trkpt>
      <trkpt lat="45.95921" lon="4.92118">
        <ele>304.5</ele>
        <time>2015-08-04T10:10:57.72Z</time>
      </trkpt>
      <trkpt lat="45.9592" lon="4.9211">
        <ele>304.899993896</ele>
        <time>2015-08-04T10:10:58.767Z</time>
      </trkpt>
      <trkpt lat="45.95918" lon="4.92101">
        <ele>305.100006104</ele>
        <time>2015-08-04T10:10:59.699Z</time>
      </trkpt>
      <trkpt lat="45.95915" lon="4.92093">
        <ele>305.399993896</ele>
        <time>2015-08-04T10:11:00.74Z</time>
      </trkpt>
      <trkpt lat="45.95914" lon="4.92084">
        <ele>305.200012207</ele>
        <time>2015-08-04T10:11:01.683Z</time>
      </trkpt>
      <trkpt lat="45.95912" lon="4.92075">
        <ele>305</ele>
        <time>2015-08-04T10:11:02.738Z</time>
      </trkpt>
      <trkpt lat="45.9591" lon="4.92066">
        <ele>305</ele>
        <time>2015-08-04T10:11:03.688Z</time>
      </trkpt>
      <trkpt lat="45.95909" lon="4.92057">
        <ele>305.100006104</ele>
        <time>2015-08-04T10:11:04.738Z</time>
      </trkpt>
      <trkpt lat="45.95907" lon="4.92048">
        <ele>304.5</ele>
        <time>2015-08-04T10:11:05.702Z</time>
      </trkpt>
      <trkpt lat="45.95905" lon="4.9204">
        <ele>304.399993896</ele>
        <time>2015-08-04T10:11:06.735Z</time>
      </trkpt>
      <trkpt lat="45.95902" lon="4.92031">
        <ele>303.600006104</ele>
        <time>2015-08-04T10:11:07.698Z</time>
      </trkpt>
      <trkpt lat="45.95901" lon="4.92023">
        <ele>303.5</ele>
        <time>2015-08-04T10:11:08.803Z</time>
      </trkpt>
      <trkpt lat="45.95898" lon="4.92015">
        <ele>303.600006104</ele>
        <time>2015-08-04T10:11:09.702Z</time>
      </trkpt>
      <trkpt lat="45.95896" lon="4.92006">
        <ele>303.399993896</ele>
        <time>2015-08-04T10:11:10.735Z</time>
      </trkpt>
      <trkpt lat="45.95895" lon="4.91998">
        <ele>302.700012207</ele>
        <time>2015-08-04T10:11:11.709Z</time>
      </trkpt>
      <trkpt lat="45.95894" lon="4.91991">
        <ele>302.600006104</ele>
        <time>2015-08-04T10:11:12.738Z</time>
      </trkpt>
      <trkpt lat="45.95893" lon="4.91984">
        <ele>302.299987793</ele>
        <time>2015-08-04T10:11:13.699Z</time>
      </trkpt>
      <trkpt lat="45.95891" lon="4.91976">
        <ele>302</ele>
        <time>2015-08-04T10:11:14.733Z</time>
      </trkpt>
      <trkpt lat="45.9589" lon="4.91969">
        <ele>301.799987793</ele>
        <time>2015-08-04T10:11:15.702Z</time>
      </trkpt>
      <trkpt lat="45.95888" lon="4.91961">
        <ele>301.5</ele>
        <time>2015-08-04T10:11:16.738Z</time>
      </trkpt>
      <trkpt lat="45.95886" lon="4.91953">
        <ele>301.399993896</ele>
        <time>2015-08-04T10:11:17.699Z</time>
      </trkpt>
      <trkpt lat="45.95885" lon="4.91946">
        <ele>301.100006104</ele>
        <time>2015-08-04T10:11:18.786Z</time>
      </trkpt>
      <trkpt lat="45.95884" lon="4.91938">
        <ele>300.899993896</ele>
        <time>2015-08-04T10:11:19.699Z</time>
      </trkpt>
      <trkpt lat="45.95884" lon="4.9193">
        <ele>301</ele>
        <time>2015-08-04T10:11:20.758Z</time>
      </trkpt>
      <trkpt lat="45.95883" lon="4.91922">
        <ele>300.700012207</ele>
        <time>2015-08-04T10:11:21.698Z</time>
      </trkpt>
      <trkpt lat="45.95881" lon="4.91914">
        <ele>300.799987793</ele>
        <time>2015-08-04T10:11:22.735Z</time>
      </trkpt>
      <trkpt lat="45.9588" lon="4.91906">
        <ele>300.600006104</ele>
        <time>2015-08-04T10:11:23.709Z</time>
      </trkpt>
      <trkpt lat="45.95878" lon="4.91897">
        <ele>300.399993896</ele>
        <time>2015-08-04T10:11:24.733Z</time>
      </trkpt>
      <trkpt lat="45.95876" lon="4.91889">
        <ele>300</ele>
        <time>2015-08-04T10:11:25.698Z</time>
      </trkpt>
      <trkpt lat="45.95876" lon="4.9188">
        <ele>300</ele>
        <time>2015-08-04T10:11:26.807Z</time>
      </trkpt>
      <trkpt lat="45.95875" lon="4.91872">
        <ele>300.100006104</ele>
        <time>2015-08-04T10:11:27.708Z</time>
      </trkpt>
      <trkpt lat="45.95873" lon="4.91863">
        <ele>300.100006104</ele>
        <time>2015-08-04T10:11:28.735Z</time>
      </trkpt>
      <trkpt lat="45.95872" lon="4.91854">
        <ele>300.100006104</ele>
        <time>2015-08-04T10:11:29.787Z</time>
      </trkpt>
      <trkpt lat="45.9587" lon="4.91846">
        <ele>300</ele>
        <time>2015-08-04T10:11:30.739Z</time>
      </trkpt>
      <trkpt lat="45.95869" lon="4.91837">
        <ele>299.899993896</ele>
        <time>2015-08-04T10:11:31.698Z</time>
      </trkpt>
      <trkpt lat="45.95867" lon="4.91829">
        <ele>299.799987793</ele>
        <time>2015-08-04T10:11:32.731Z</time>
      </trkpt>
      <trkpt lat="45.95865" lon="4.9182">
        <ele>299.700012207</ele>
        <time>2015-08-04T10:11:33.7Z</time>
      </trkpt>
      <trkpt lat="45.95863" lon="4.91812">
        <ele>299.600006104</ele>
        <time>2015-08-04T10:11:34.734Z</time>
      </trkpt>
      <trkpt lat="45.95861" lon="4.91804">
        <ele>299.399993896</ele>
        <time>2015-08-04T10:11:35.694Z</time>
      </trkpt>
      <trkpt lat="45.95858" lon="4.91796">
        <ele>299.299987793</ele>
        <time>2015-08-04T10:11:36.738Z</time>
      </trkpt>
      <trkpt lat="45.95857" lon="4.91787">
        <ele>299.200012207</ele>
        <time>2015-08-04T10:11:37.699Z</time>
      </trkpt>
      <trkpt lat="45.95855" lon="4.91779">
        <ele>299.100006104</ele>
        <time>2015-08-04T10:11:38.732Z</time>
      </trkpt>
      <trkpt lat="45.95852" lon="4.91771">
        <ele>298.799987793</ele>
        <time>2015-08-04T10:11:39.7Z</time>
      </trkpt>
      <trkpt lat="45.9585" lon="4.91764">
        <ele>298.5</ele>
        <time>2015-08-04T10:11:40.737Z</time>
      </trkpt>
      <trkpt lat="45.95849" lon="4.91757">
        <ele>298.299987793</ele>
        <time>2015-08-04T10:11:41.703Z</time>
      </trkpt>
      <trkpt lat="45.95848" lon="4.9175">
        <ele>298.200012207</ele>
        <time>2015-08-04T10:11:42.734Z</time>
      </trkpt>
      <trkpt lat="45.95848" lon="4.91744">
        <ele>298</ele>
        <time>2015-08-04T10:11:43.7Z</time>
      </trkpt>
      <trkpt lat="45.95844" lon="4.91733">
        <ele>297.5</ele>
        <time>2015-08-04T10:11:45.734Z</time>
      </trkpt>
      <trkpt lat="45.95842" lon="4.9173">
        <ele>298</ele>
        <time>2015-08-04T10:11:46.703Z</time>
      </trkpt>
      <trkpt lat="45.9584" lon="4.91729">
        <ele>299.100006104</ele>
        <time>2015-08-04T10:11:47.737Z</time>
      </trkpt>
      <trkpt lat="45.95833" lon="4.91735">
        <ele>298.100006104</ele>
        <time>2015-08-04T10:11:48.706Z</time>
      </trkpt>
      <trkpt lat="45.95828" lon="4.91739">
        <ele>297.899993896</ele>
        <time>2015-08-04T10:11:49.771Z</time>
      </trkpt>
      <trkpt lat="45.95825" lon="4.91744">
        <ele>297.799987793</ele>
        <time>2015-08-04T10:11:50.7Z</time>
      </trkpt>
      <trkpt lat="45.95822" lon="4.9175">
        <ele>297.899993896</ele>
        <time>2015-08-04T10:11:51.754Z</time>
      </trkpt>
      <trkpt lat="45.95818" lon="4.91755">
        <ele>297.899993896</ele>
        <time>2015-08-04T10:11:52.705Z</time>
      </trkpt>
      <trkpt lat="45.95814" lon="4.9176">
        <ele>298.100006104</ele>
        <time>2015-08-04T10:11:53.781Z</time>
      </trkpt>
      <trkpt lat="45.9581" lon="4.91764">
        <ele>298.200012207</ele>
        <time>2015-08-04T10:11:54.708Z</time>
      </trkpt>
      <trkpt lat="45.95806" lon="4.91769">
        <ele>298.299987793</ele>
        <time>2015-08-04T10:11:55.732Z</time>
      </trkpt>
      <trkpt lat="45.95802" lon="4.91774">
        <ele>298.399993896</ele>
        <time>2015-08-04T10:11:56.699Z</time>
      </trkpt>
      <trkpt lat="45.95795" lon="4.91781">
        <ele>298.600006104</ele>
        <time>2015-08-04T10:11:58.736Z</time>
      </trkpt>
      <trkpt lat="45.95791" lon="4.91786">
        <ele>298.700012207</ele>
        <time>2015-08-04T10:11:59.702Z</time>
      </trkpt>
      <trkpt lat="45.95787" lon="4.91792">
        <ele>298.799987793</ele>
        <time>2015-08-04T10:12:00.734Z</time>
      </trkpt>
      <trkpt lat="45.95783" lon="4.91796">
        <ele>299</ele>
        <time>2015-08-04T10:12:01.704Z</time>
      </trkpt>
      <trkpt lat="45.95779" lon="4.918">
        <ele>299.299987793</ele>
        <time>2015-08-04T10:12:02.733Z</time>
      </trkpt>
      <trkpt lat="45.95774" lon="4.91805">
        <ele>299.399993896</ele>
        <time>2015-08-04T10:12:03.699Z</time>
      </trkpt>
      <trkpt lat="45.95771" lon="4.91809">
        <ele>299.5</ele>
        <time>2015-08-04T10:12:04.754Z</time>
      </trkpt>
      <trkpt lat="45.95767" lon="4.91814">
        <ele>299.600006104</ele>
        <time>2015-08-04T10:12:05.701Z</time>
      </trkpt>
      <trkpt lat="45.95762" lon="4.9182">
        <ele>299.799987793</ele>
        <time>2015-08-04T10:12:06.733Z</time>
      </trkpt>
      <trkpt lat="45.95758" lon="4.91826">
        <ele>300.100006104</ele>
        <time>2015-08-04T10:12:07.697Z</time>
      </trkpt>
      <trkpt lat="45.95754" lon="4.91833">
        <ele>300.299987793</ele>
        <time>2015-08-04T10:12:08.733Z</time>
      </trkpt>
      <trkpt lat="45.95749" lon="4.91839">
        <ele>300.700012207</ele>
        <time>2015-08-04T10:12:09.699Z</time>
      </trkpt>
      <trkpt lat="45.95747" lon="4.91846">
        <ele>301</ele>
        <time>2015-08-04T10:12:10.763Z</time>
      </trkpt>
      <trkpt lat="45.95743" lon="4.91853">
        <ele>301.299987793</ele>
        <time>2015-08-04T10:12:11.7Z</time>
      </trkpt>
      <trkpt lat="45.95739" lon="4.91859">
        <ele>301.5</ele>
        <time>2015-08-04T10:12:12.817Z</time>
      </trkpt>
      <trkpt lat="45.95736" lon="4.91866">
        <ele>301.799987793</ele>
        <time>2015-08-04T10:12:13.701Z</time>
      </trkpt>
      <trkpt lat="45.95732" lon="4.91872">
        <ele>302</ele>
        <time>2015-08-04T10:12:14.734Z</time>
      </trkpt>
      <trkpt lat="45.95727" lon="4.91878">
        <ele>302.600006104</ele>
        <time>2015-08-04T10:12:15.702Z</time>
      </trkpt>
      <trkpt lat="45.95723" lon="4.91885">
        <ele>303.5</ele>
        <time>2015-08-04T10:12:16.739Z</time>
      </trkpt>
      <trkpt lat="45.9572" lon="4.91892">
        <ele>303.799987793</ele>
        <time>2015-08-04T10:12:17.701Z</time>
      </trkpt>
      <trkpt lat="45.95717" lon="4.91898">
        <ele>304.100006104</ele>
        <time>2015-08-04T10:12:18.79Z</time>
      </trkpt>
      <trkpt lat="45.95714" lon="4.91903">
        <ele>304.399993896</ele>
        <time>2015-08-04T10:12:19.699Z</time>
      </trkpt>
      <trkpt lat="45.9571" lon="4.9191">
        <ele>304.600006104</ele>
        <time>2015-08-04T10:12:20.735Z</time>
      </trkpt>
      <trkpt lat="45.95706" lon="4.91915">
        <ele>304.799987793</ele>
        <time>2015-08-04T10:12:21.735Z</time>
      </trkpt>
      <trkpt lat="45.957" lon="4.91924">
        <ele>305.200012207</ele>
        <time>2015-08-04T10:12:23.742Z</time>
      </trkpt>
      <trkpt lat="45.95696" lon="4.91929">
        <ele>305.399993896</ele>
        <time>2015-08-04T10:12:24.703Z</time>
      </trkpt>
      <trkpt lat="45.95692" lon="4.91934">
        <ele>305.700012207</ele>
        <time>2015-08-04T10:12:25.736Z</time>
      </trkpt>
      <trkpt lat="45.95687" lon="4.91942">
        <ele>305.799987793</ele>
        <time>2015-08-04T10:12:26.716Z</time>
      </trkpt>
      <trkpt lat="45.95681" lon="4.91951">
        <ele>306.600006104</ele>
        <time>2015-08-04T10:12:27.732Z</time>
      </trkpt>
      <trkpt lat="45.95675" lon="4.91959">
        <ele>307.299987793</ele>
        <time>2015-08-04T10:12:28.7Z</time>
      </trkpt>
      <trkpt lat="45.95671" lon="4.91966">
        <ele>307.299987793</ele>
        <time>2015-08-04T10:12:29.826Z</time>
      </trkpt>
      <trkpt lat="45.95667" lon="4.91968">
        <ele>307.799987793</ele>
        <time>2015-08-04T10:12:30.709Z</time>
      </trkpt>
      <trkpt lat="45.95663" lon="4.91968">
        <ele>308</ele>
        <time>2015-08-04T10:12:31.752Z</time>
      </trkpt>
      <trkpt lat="45.95657" lon="4.91965">
        <ele>308.399993896</ele>
        <time>2015-08-04T10:12:32.699Z</time>
      </trkpt>
      <trkpt lat="45.95651" lon="4.91957">
        <ele>308.700012207</ele>
        <time>2015-08-04T10:12:34.736Z</time>
      </trkpt>
      <trkpt lat="45.95647" lon="4.91953">
        <ele>308.700012207</ele>
        <time>2015-08-04T10:12:35.699Z</time>
      </trkpt>
      <trkpt lat="45.95643" lon="4.91949">
        <ele>308.899993896</ele>
        <time>2015-08-04T10:12:36.737Z</time>
      </trkpt>
      <trkpt lat="45.95639" lon="4.91944">
        <ele>309.299987793</ele>
        <time>2015-08-04T10:12:37.722Z</time>
      </trkpt>
      <trkpt lat="45.95636" lon="4.91938">
        <ele>309.799987793</ele>
        <time>2015-08-04T10:12:38.732Z</time>
      </trkpt>
      <trkpt lat="45.95633" lon="4.91934">
        <ele>310.299987793</ele>
        <time>2015-08-04T10:12:39.698Z</time>
      </trkpt>
      <trkpt lat="45.9563" lon="4.91929">
        <ele>310.799987793</ele>
        <time>2015-08-04T10:12:40.735Z</time>
      </trkpt>
      <trkpt lat="45.95627" lon="4.91923">
        <ele>311.299987793</ele>
        <time>2015-08-04T10:12:41.7Z</time>
      </trkpt>
      <trkpt lat="45.95625" lon="4.91917">
        <ele>311.799987793</ele>
        <time>2015-08-04T10:12:42.733Z</time>
      </trkpt>
      <trkpt lat="45.95621" lon="4.91913">
        <ele>312.299987793</ele>
        <time>2015-08-04T10:12:43.699Z</time>
      </trkpt>
      <trkpt lat="45.95614" lon="4.91908">
        <ele>312</ele>
        <time>2015-08-04T10:12:45.768Z</time>
      </trkpt>
      <trkpt lat="45.9561" lon="4.91905">
        <ele>311.899993896</ele>
        <time>2015-08-04T10:12:46.7Z</time>
      </trkpt>
      <trkpt lat="45.95602" lon="4.91901">
        <ele>311.799987793</ele>
        <time>2015-08-04T10:12:48.738Z</time>
      </trkpt>
      <trkpt lat="45.95598" lon="4.91898">
        <ele>312.200012207</ele>
        <time>2015-08-04T10:12:49.698Z</time>
      </trkpt>
      <trkpt lat="45.95589" lon="4.91894">
        <ele>313.399993896</ele>
        <time>2015-08-04T10:12:51.734Z</time>
      </trkpt>
      <trkpt lat="45.95586" lon="4.91892">
        <ele>313.5</ele>
        <time>2015-08-04T10:12:52.7Z</time>
      </trkpt>
      <trkpt lat="45.95581" lon="4.91889">
        <ele>314.100006104</ele>
        <time>2015-08-04T10:12:53.738Z</time>
      </trkpt>
      <trkpt lat="45.95575" lon="4.91891">
        <ele>313.399993896</ele>
        <time>2015-08-04T10:12:54.698Z</time>
      </trkpt>
      <trkpt lat="45.95571" lon="4.9189">
        <ele>313.299987793</ele>
        <time>2015-08-04T10:12:55.739Z</time>
      </trkpt>
      <trkpt lat="45.95565" lon="4.91889">
        <ele>313.100006104</ele>
        <time>2015-08-04T10:12:56.703Z</time>
      </trkpt>
      <trkpt lat="45.95561" lon="4.91886">
        <ele>313.200012207</ele>
        <time>2015-08-04T10:12:57.75Z</time>
      </trkpt>
      <trkpt lat="45.95555" lon="4.91883">
        <ele>313.5</ele>
        <time>2015-08-04T10:12:58.701Z</time>
      </trkpt>
      <trkpt lat="45.95549" lon="4.9188">
        <ele>314.100006104</ele>
        <time>2015-08-04T10:12:59.775Z</time>
      </trkpt>
      <trkpt lat="45.95544" lon="4.91877">
        <ele>314.600006104</ele>
        <time>2015-08-04T10:13:00.699Z</time>
      </trkpt>
      <trkpt lat="45.95538" lon="4.91873">
        <ele>315.200012207</ele>
        <time>2015-08-04T10:13:01.735Z</time>
      </trkpt>
      <trkpt lat="45.95533" lon="4.91869">
        <ele>315.799987793</ele>
        <time>2015-08-04T10:13:02.702Z</time>
      </trkpt>
      <trkpt lat="45.95526" lon="4.91866">
        <ele>316.100006104</ele>
        <time>2015-08-04T10:13:03.733Z</time>
      </trkpt>
      <trkpt lat="45.95521" lon="4.91862">
        <ele>316.600006104</ele>
        <time>2015-08-04T10:13:04.803Z</time>
      </trkpt>
      <trkpt lat="45.95516" lon="4.91858">
        <ele>317.100006104</ele>
        <time>2015-08-04T10:13:05.756Z</time>
      </trkpt>
      <trkpt lat="45.95511" lon="4.91854">
        <ele>317.700012207</ele>
        <time>2015-08-04T10:13:06.703Z</time>
      </trkpt>
      <trkpt lat="45.95507" lon="4.9185">
        <ele>318.200012207</ele>
        <time>2015-08-04T10:13:07.766Z</time>
      </trkpt>
      <trkpt lat="45.95501" lon="4.91847">
        <ele>318.600006104</ele>
        <time>2015-08-04T10:13:08.701Z</time>
      </trkpt>
      <trkpt lat="45.95496" lon="4.91842">
        <ele>319.399993896</ele>
        <time>2015-08-04T10:13:09.739Z</time>
      </trkpt>
      <trkpt lat="45.9549" lon="4.91838">
        <ele>319.700012207</ele>
        <time>2015-08-04T10:13:10.705Z</time>
      </trkpt>
      <trkpt lat="45.95485" lon="4.91833">
        <ele>320.200012207</ele>
        <time>2015-08-04T10:13:11.737Z</time>
      </trkpt>
      <trkpt lat="45.95479" lon="4.91827">
        <ele>320.200012207</ele>
        <time>2015-08-04T10:13:12.705Z</time>
      </trkpt>
      <trkpt lat="45.95474" lon="4.91822">
        <ele>320.5</ele>
        <time>2015-08-04T10:13:13.829Z</time>
      </trkpt>
      <trkpt lat="45.95469" lon="4.91815">
        <ele>320.600006104</ele>
        <time>2015-08-04T10:13:14.699Z</time>
      </trkpt>
      <trkpt lat="45.95465" lon="4.91807">
        <ele>320.799987793</ele>
        <time>2015-08-04T10:13:15.732Z</time>
      </trkpt>
      <trkpt lat="45.9546" lon="4.918">
        <ele>321.100006104</ele>
        <time>2015-08-04T10:13:16.701Z</time>
      </trkpt>
      <trkpt lat="45.95457" lon="4.91793">
        <ele>321.5</ele>
        <time>2015-08-04T10:13:17.78Z</time>
      </trkpt>
      <trkpt lat="45.95453" lon="4.91786">
        <ele>321.799987793</ele>
        <time>2015-08-04T10:13:18.724Z</time>
      </trkpt>
      <trkpt lat="45.95451" lon="4.91778">
        <ele>321.899993896</ele>
        <time>2015-08-04T10:13:19.735Z</time>
      </trkpt>
      <trkpt lat="45.95448" lon="4.91771">
        <ele>322</ele>
        <time>2015-08-04T10:13:20.7Z</time>
      </trkpt>
      <trkpt lat="45.95445" lon="4.91764">
        <ele>322.200012207</ele>
        <time>2015-08-04T10:13:21.735Z</time>
      </trkpt>
      <trkpt lat="45.95442" lon="4.91756">
        <ele>322.5</ele>
        <time>2015-08-04T10:13:22.702Z</time>
      </trkpt>
      <trkpt lat="45.9544" lon="4.9175">
        <ele>322.700012207</ele>
        <time>2015-08-04T10:13:23.857Z</time>
      </trkpt>
      <trkpt lat="45.95438" lon="4.91744">
        <ele>322.799987793</ele>
        <time>2015-08-04T10:13:24.701Z</time>
      </trkpt>
      <trkpt lat="45.95435" lon="4.91738">
        <ele>323</ele>
        <time>2015-08-04T10:13:25.905Z</time>
      </trkpt>
      <trkpt lat="45.95432" lon="4.91732">
        <ele>323</ele>
        <time>2015-08-04T10:13:26.7Z</time>
      </trkpt>
      <trkpt lat="45.95429" lon="4.91722">
        <ele>323.299987793</ele>
        <time>2015-08-04T10:13:28.739Z</time>
      </trkpt>
      <trkpt lat="45.95427" lon="4.91717">
        <ele>323.5</ele>
        <time>2015-08-04T10:13:29.699Z</time>
      </trkpt>
      <trkpt lat="45.95425" lon="4.91708">
        <ele>324</ele>
        <time>2015-08-04T10:13:31.732Z</time>
      </trkpt>
      <trkpt lat="45.95424" lon="4.91705">
        <ele>324.299987793</ele>
        <time>2015-08-04T10:13:32.7Z</time>
      </trkpt>
      <trkpt lat="45.9542" lon="4.91695">
        <ele>325.100006104</ele>
        <time>2015-08-04T10:13:35.775Z</time>
      </trkpt>
      <trkpt lat="45.95419" lon="4.91691">
        <ele>325.299987793</ele>
        <time>2015-08-04T10:13:36.704Z</time>
      </trkpt>
      <trkpt lat="45.95415" lon="4.91681">
        <ele>326</ele>
        <time>2015-08-04T10:13:39.781Z</time>
      </trkpt>
      <trkpt lat="45.95414" lon="4.91677">
        <ele>326.299987793</ele>
        <time>2015-08-04T10:13:40.7Z</time>
      </trkpt>
      <trkpt lat="45.95411" lon="4.91669">
        <ele>326.899993896</ele>
        <time>2015-08-04T10:13:42.734Z</time>
      </trkpt>
      <trkpt lat="45.9541" lon="4.91664">
        <ele>327.200012207</ele>
        <time>2015-08-04T10:13:43.699Z</time>
      </trkpt>
      <trkpt lat="45.95407" lon="4.91657">
        <ele>328</ele>
        <time>2015-08-04T10:13:45.734Z</time>
      </trkpt>
      <trkpt lat="45.95405" lon="4.91653">
        <ele>328.299987793</ele>
        <time>2015-08-04T10:13:46.703Z</time>
      </trkpt>
      <trkpt lat="45.95401" lon="4.91646">
        <ele>329</ele>
        <time>2015-08-04T10:13:48.736Z</time>
      </trkpt>
      <trkpt lat="45.95399" lon="4.91643">
        <ele>329.399993896</ele>
        <time>2015-08-04T10:13:49.702Z</time>
      </trkpt>
      <trkpt lat="45.95393" lon="4.91636">
        <ele>330.100006104</ele>
        <time>2015-08-04T10:13:51.736Z</time>
      </trkpt>
      <trkpt lat="45.9539" lon="4.91632">
        <ele>330.5</ele>
        <time>2015-08-04T10:13:52.702Z</time>
      </trkpt>
      <trkpt lat="45.95389" lon="4.91622">
        <ele>330.899993896</ele>
        <time>2015-08-04T10:13:54.738Z</time>
      </trkpt>
      <trkpt lat="45.95388" lon="4.91619">
        <ele>331.200012207</ele>
        <time>2015-08-04T10:13:55.697Z</time>
      </trkpt>
      <trkpt lat="45.95386" lon="4.91607">
        <ele>331.899993896</ele>
        <time>2015-08-04T10:13:59.735Z</time>
      </trkpt>
      <trkpt lat="45.95385" lon="4.91604">
        <ele>332.100006104</ele>
        <time>2015-08-04T10:14:00.707Z</time>
      </trkpt>
      <trkpt lat="45.95383" lon="4.91592">
        <ele>332.600006104</ele>
        <time>2015-08-04T10:14:03.749Z</time>
      </trkpt>
      <trkpt lat="45.95382" lon="4.91588">
        <ele>332.899993896</ele>
        <time>2015-08-04T10:14:04.703Z</time>
      </trkpt>
      <trkpt lat="45.9538" lon="4.91579">
        <ele>333.200012207</ele>
        <time>2015-08-04T10:14:06.732Z</time>
      </trkpt>
      <trkpt lat="45.9538" lon="4.91574">
        <ele>333.200012207</ele>
        <time>2015-08-04T10:14:07.699Z</time>
      </trkpt>
      <trkpt lat="45.95379" lon="4.91563">
        <ele>333.299987793</ele>
        <time>2015-08-04T10:14:09.732Z</time>
      </trkpt>
      <trkpt lat="45.95379" lon="4.91558">
        <ele>333.100006104</ele>
        <time>2015-08-04T10:14:10.701Z</time>
      </trkpt>
      <trkpt lat="45.95376" lon="4.91549">
        <ele>333.299987793</ele>
        <time>2015-08-04T10:14:12.734Z</time>
      </trkpt>
      <trkpt lat="45.95374" lon="4.91545">
        <ele>333.600006104</ele>
        <time>2015-08-04T10:14:13.699Z</time>
      </trkpt>
      <trkpt lat="45.95371" lon="4.91535">
        <ele>333.5</ele>
        <time>2015-08-04T10:14:15.732Z</time>
      </trkpt>
      <trkpt lat="45.9537" lon="4.9153">
        <ele>333.799987793</ele>
        <time>2015-08-04T10:14:16.701Z</time>
      </trkpt>
      <trkpt lat="45.95365" lon="4.9152">
        <ele>335</ele>
        <time>2015-08-04T10:14:19.736Z</time>
      </trkpt>
      <trkpt lat="45.95365" lon="4.91515">
        <ele>335.299987793</ele>
        <time>2015-08-04T10:14:20.7Z</time>
      </trkpt>
      <trkpt lat="45.95366" lon="4.91505">
        <ele>335.899993896</ele>
        <time>2015-08-04T10:14:23.777Z</time>
      </trkpt>
      <trkpt lat="45.95363" lon="4.91501">
        <ele>334.899993896</ele>
        <time>2015-08-04T10:14:24.706Z</time>
      </trkpt>
      <trkpt lat="45.95362" lon="4.9149">
        <ele>334.5</ele>
        <time>2015-08-04T10:14:27.731Z</time>
      </trkpt>
      <trkpt lat="45.95361" lon="4.91487">
        <ele>334.200012207</ele>
        <time>2015-08-04T10:14:28.704Z</time>
      </trkpt>
      <trkpt lat="45.95357" lon="4.91477">
        <ele>334.5</ele>
        <time>2015-08-04T10:14:31.731Z</time>
      </trkpt>
      <trkpt lat="45.95357" lon="4.91474">
        <ele>334.600006104</ele>
        <time>2015-08-04T10:14:32.713Z</time>
      </trkpt>
      <trkpt lat="45.95356" lon="4.91465">
        <ele>335.899993896</ele>
        <time>2015-08-04T10:14:35.731Z</time>
      </trkpt>
      <trkpt lat="45.95355" lon="4.91461">
        <ele>335.899993896</ele>
        <time>2015-08-04T10:14:36.754Z</time>
      </trkpt>
      <trkpt lat="45.95354" lon="4.91449">
        <ele>337.200012207</ele>
        <time>2015-08-04T10:14:40.741Z</time>
      </trkpt>
      <trkpt lat="45.95354" lon="4.91446">
        <ele>337.5</ele>
        <time>2015-08-04T10:14:41.707Z</time>
      </trkpt>
      <trkpt lat="45.95352" lon="4.91436">
        <ele>338.799987793</ele>
        <time>2015-08-04T10:14:44.743Z</time>
      </trkpt>
      <trkpt lat="45.95352" lon="4.91433">
        <ele>339.200012207</ele>
        <time>2015-08-04T10:14:45.704Z</time>
      </trkpt>
      <trkpt lat="45.95352" lon="4.91421">
        <ele>340.299987793</ele>
        <time>2015-08-04T10:14:48.797Z</time>
      </trkpt>
      <trkpt lat="45.95351" lon="4.91417">
        <ele>340.700012207</ele>
        <time>2015-08-04T10:14:49.698Z</time>
      </trkpt>
      <trkpt lat="45.9535" lon="4.91406">
        <ele>341.200012207</ele>
        <time>2015-08-04T10:14:52.924Z</time>
      </trkpt>
      <trkpt lat="45.9535" lon="4.91401">
        <ele>341.5</ele>
        <time>2015-08-04T10:14:53.699Z</time>
      </trkpt>
      <trkpt lat="45.95347" lon="4.9139">
        <ele>341.600006104</ele>
        <time>2015-08-04T10:14:56.734Z</time>
      </trkpt>
      <trkpt lat="45.95344" lon="4.91385">
        <ele>340.299987793</ele>
        <time>2015-08-04T10:14:57.699Z</time>
      </trkpt>
      <trkpt lat="45.95342" lon="4.91376">
        <ele>339.700012207</ele>
        <time>2015-08-04T10:14:59.847Z</time>
      </trkpt>
      <trkpt lat="45.9534" lon="4.91372">
        <ele>339.799987793</ele>
        <time>2015-08-04T10:15:00.707Z</time>
      </trkpt>
      <trkpt lat="45.95339" lon="4.91362">
        <ele>340.100006104</ele>
        <time>2015-08-04T10:15:03.736Z</time>
      </trkpt>
      <trkpt lat="45.9534" lon="4.91358">
        <ele>340.200012207</ele>
        <time>2015-08-04T10:15:04.706Z</time>
      </trkpt>
      <trkpt lat="45.9534" lon="4.91346">
        <ele>340.799987793</ele>
        <time>2015-08-04T10:15:07.739Z</time>
      </trkpt>
      <trkpt lat="45.95338" lon="4.91341">
        <ele>341.100006104</ele>
        <time>2015-08-04T10:15:08.715Z</time>
      </trkpt>
      <trkpt lat="45.95337" lon="4.91328">
        <ele>341.700012207</ele>
        <time>2015-08-04T10:15:11.744Z</time>
      </trkpt>
      <trkpt lat="45.95337" lon="4.91324">
        <ele>342</ele>
        <time>2015-08-04T10:15:12.722Z</time>
      </trkpt>
      <trkpt lat="45.95338" lon="4.91314">
        <ele>342.700012207</ele>
        <time>2015-08-04T10:15:15.766Z</time>
      </trkpt>
      <trkpt lat="45.95338" lon="4.91311">
        <ele>342.899993896</ele>
        <time>2015-08-04T10:15:16.701Z</time>
      </trkpt>
      <trkpt lat="45.95336" lon="4.91298">
        <ele>343.600006104</ele>
        <time>2015-08-04T10:15:19.732Z</time>
      </trkpt>
      <trkpt lat="45.95337" lon="4.91294">
        <ele>343.799987793</ele>
        <time>2015-08-04T10:15:20.726Z</time>
      </trkpt>
      <trkpt lat="45.95335" lon="4.91284">
        <ele>344.5</ele>
        <time>2015-08-04T10:15:23.769Z</time>
      </trkpt>
      <trkpt lat="45.95333" lon="4.91281">
        <ele>344.899993896</ele>
        <time>2015-08-04T10:15:24.697Z</time>
      </trkpt>
      <trkpt lat="45.95331" lon="4.91269">
        <ele>345.299987793</ele>
        <time>2015-08-04T10:15:27.753Z</time>
      </trkpt>
      <trkpt lat="45.9533" lon="4.91266">
        <ele>345.5</ele>
        <time>2015-08-04T10:15:28.724Z</time>
      </trkpt>
      <trkpt lat="45.95326" lon="4.91258">
        <ele>345.700012207</ele>
        <time>2015-08-04T10:15:30.752Z</time>
      </trkpt>
      <trkpt lat="45.95323" lon="4.91253">
        <ele>344.600006104</ele>
        <time>2015-08-04T10:15:31.701Z</time>
      </trkpt>
      <trkpt lat="45.95318" lon="4.91244">
        <ele>344.600006104</ele>
        <time>2015-08-04T10:15:33.733Z</time>
      </trkpt>
      <trkpt lat="45.95315" lon="4.91239">
        <ele>343.799987793</ele>
        <time>2015-08-04T10:15:34.756Z</time>
      </trkpt>
      <trkpt lat="45.95311" lon="4.91234">
        <ele>342.799987793</ele>
        <time>2015-08-04T10:15:35.733Z</time>
      </trkpt>
      <trkpt lat="45.95307" lon="4.91229">
        <ele>341.700012207</ele>
        <time>2015-08-04T10:15:36.74Z</time>
      </trkpt>
      <trkpt lat="45.95305" lon="4.91222">
        <ele>341.899993896</ele>
        <time>2015-08-04T10:15:38.731Z</time>
      </trkpt>
      <trkpt lat="45.95303" lon="4.91217">
        <ele>341.5</ele>
        <time>2015-08-04T10:15:39.715Z</time>
      </trkpt>
      <trkpt lat="45.95302" lon="4.91212">
        <ele>341.799987793</ele>
        <time>2015-08-04T10:15:40.734Z</time>
      </trkpt>
      <trkpt lat="45.95297" lon="4.91207">
        <ele>341.5</ele>
        <time>2015-08-04T10:15:41.699Z</time>
      </trkpt>
      <trkpt lat="45.95292" lon="4.91201">
        <ele>340.700012207</ele>
        <time>2015-08-04T10:15:42.736Z</time>
      </trkpt>
      <trkpt lat="45.95288" lon="4.91196">
        <ele>339.700012207</ele>
        <time>2015-08-04T10:15:43.756Z</time>
      </trkpt>
      <trkpt lat="45.95284" lon="4.91188">
        <ele>340.299987793</ele>
        <time>2015-08-04T10:15:45.738Z</time>
      </trkpt>
      <trkpt lat="45.95283" lon="4.91184">
        <ele>340.299987793</ele>
        <time>2015-08-04T10:15:46.705Z</time>
      </trkpt>
      <trkpt lat="45.95279" lon="4.91174">
        <ele>340.700012207</ele>
        <time>2015-08-04T10:15:49.736Z</time>
      </trkpt>
      <trkpt lat="45.95277" lon="4.9117">
        <ele>340.5</ele>
        <time>2015-08-04T10:15:50.699Z</time>
      </trkpt>
      <trkpt lat="45.95272" lon="4.91163">
        <ele>338.700012207</ele>
        <time>2015-08-04T10:15:52.772Z</time>
      </trkpt>
      <trkpt lat="45.9527" lon="4.9116">
        <ele>338.299987793</ele>
        <time>2015-08-04T10:15:53.699Z</time>
      </trkpt>
      <trkpt lat="45.95265" lon="4.9115">
        <ele>337.700012207</ele>
        <time>2015-08-04T10:15:56.742Z</time>
      </trkpt>
      <trkpt lat="45.95263" lon="4.91147">
        <ele>337.600006104</ele>
        <time>2015-08-04T10:15:57.7Z</time>
      </trkpt>
      <trkpt lat="45.95257" lon="4.9114">
        <ele>337</ele>
        <time>2015-08-04T10:16:00.78Z</time>
      </trkpt>
      <trkpt lat="45.95255" lon="4.91138">
        <ele>337</ele>
        <time>2015-08-04T10:16:01.737Z</time>
      </trkpt>
      <trkpt lat="45.9525" lon="4.91129">
        <ele>336.899993896</ele>
        <time>2015-08-04T10:16:04.735Z</time>
      </trkpt>
      <trkpt lat="45.95249" lon="4.91125">
        <ele>336.600006104</ele>
        <time>2015-08-04T10:16:05.7Z</time>
      </trkpt>
      <trkpt lat="45.95244" lon="4.91119">
        <ele>336.299987793</ele>
        <time>2015-08-04T10:16:07.731Z</time>
      </trkpt>
      <trkpt lat="45.95241" lon="4.91114">
        <ele>333.799987793</ele>
        <time>2015-08-04T10:16:08.699Z</time>
      </trkpt>
      <trkpt lat="45.95236" lon="4.91107">
        <ele>331.700012207</ele>
        <time>2015-08-04T10:16:10.77Z</time>
      </trkpt>
      <trkpt lat="45.95234" lon="4.91104">
        <ele>330.899993896</ele>
        <time>2015-08-04T10:16:11.721Z</time>
      </trkpt>
      <trkpt lat="45.95227" lon="4.91097">
        <ele>328.200012207</ele>
        <time>2015-08-04T10:16:14.734Z</time>
      </trkpt>
      <trkpt lat="45.95225" lon="4.91095">
        <ele>327.700012207</ele>
        <time>2015-08-04T10:16:15.697Z</time>
      </trkpt>
      <trkpt lat="45.95217" lon="4.91095">
        <ele>325.600006104</ele>
        <time>2015-08-04T10:16:18.739Z</time>
      </trkpt>
      <trkpt lat="45.95215" lon="4.91092">
        <ele>324.5</ele>
        <time>2015-08-04T10:16:19.699Z</time>
      </trkpt>
      <trkpt lat="45.9521" lon="4.91084">
        <ele>323.799987793</ele>
        <time>2015-08-04T10:16:21.755Z</time>
      </trkpt>
      <trkpt lat="45.95208" lon="4.91081">
        <ele>323.600006104</ele>
        <time>2015-08-04T10:16:22.7Z</time>
      </trkpt>
      <trkpt lat="45.95204" lon="4.91074">
        <ele>322.799987793</ele>
        <time>2015-08-04T10:16:24.788Z</time>
      </trkpt>
      <trkpt lat="45.95202" lon="4.9107">
        <ele>322.5</ele>
        <time>2015-08-04T10:16:25.7Z</time>
      </trkpt>
      <trkpt lat="45.95197" lon="4.91062">
        <ele>321.700012207</ele>
        <time>2015-08-04T10:16:27.765Z</time>
      </trkpt>
      <trkpt lat="45.95196" lon="4.91059">
        <ele>321.399993896</ele>
        <time>2015-08-04T10:16:28.7Z</time>
      </trkpt>
      <trkpt lat="45.95193" lon="4.9105">
        <ele>320.200012207</ele>
        <time>2015-08-04T10:16:30.734Z</time>
      </trkpt>
      <trkpt lat="45.95191" lon="4.91045">
        <ele>319</ele>
        <time>2015-08-04T10:16:31.7Z</time>
      </trkpt>
      <trkpt lat="45.95188" lon="4.91036">
        <ele>317.600006104</ele>
        <time>2015-08-04T10:16:33.732Z</time>
      </trkpt>
      <trkpt lat="45.95186" lon="4.9103">
        <ele>316</ele>
        <time>2015-08-04T10:16:34.7Z</time>
      </trkpt>
      <trkpt lat="45.95183" lon="4.9102">
        <ele>313.700012207</ele>
        <time>2015-08-04T10:16:36.772Z</time>
      </trkpt>
      <trkpt lat="45.95182" lon="4.91016">
        <ele>312.899993896</ele>
        <time>2015-08-04T10:16:37.7Z</time>
      </trkpt>
      <trkpt lat="45.95179" lon="4.91006">
        <ele>311.399993896</ele>
        <time>2015-08-04T10:16:39.732Z</time>
      </trkpt>
      <trkpt lat="45.95179" lon="4.91002">
        <ele>311</ele>
        <time>2015-08-04T10:16:40.7Z</time>
      </trkpt>
      <trkpt lat="45.95176" lon="4.9099">
        <ele>310.299987793</ele>
        <time>2015-08-04T10:16:43.733Z</time>
      </trkpt>
      <trkpt lat="45.95176" lon="4.90987">
        <ele>310</ele>
        <time>2015-08-04T10:16:44.699Z</time>
      </trkpt>
      <trkpt lat="45.95176" lon="4.90987">
        <ele>310</ele>
        <time>2015-08-04T10:16:44.786Z</time>
      </trkpt>
      <trkpt lat="45.95175" lon="4.90985">
        <ele>309.799987793</ele>
        <time>2015-08-04T10:16:45.699Z</time>
      </trkpt>
      <trkpt lat="45.95172" lon="4.90979">
        <ele>307.799987793</ele>
        <time>2015-08-04T10:18:05.735Z</time>
      </trkpt>
      <trkpt lat="45.95172" lon="4.9098">
        <ele>307.799987793</ele>
        <time>2015-08-04T10:18:06.693Z</time>
      </trkpt>
      <trkpt lat="45.95178" lon="4.90989">
        <ele>307.700012207</ele>
        <time>2015-08-04T10:18:21.731Z</time>
      </trkpt>
      <trkpt lat="45.95179" lon="4.90989">
        <ele>307.700012207</ele>
        <time>2015-08-04T10:18:22.703Z</time>
      </trkpt>
      <trkpt lat="45.95179" lon="4.90989">
        <ele>307.5</ele>
        <time>2015-08-04T10:19:09.73Z</time>
      </trkpt>
      <trkpt lat="45.95178" lon="4.90988">
        <ele>307.5</ele>
        <time>2015-08-04T10:19:10.7Z</time>
      </trkpt>
      <trkpt lat="45.95177" lon="4.90987">
        <ele>307.5</ele>
        <time>2015-08-04T10:19:12.732Z</time>
      </trkpt>
      <trkpt lat="45.95176" lon="4.90987">
        <ele>307.399993896</ele>
        <time>2015-08-04T10:19:13.713Z</time>
      </trkpt>
      <trkpt lat="45.95175" lon="4.90974">
        <ele>307</ele>
        <time>2015-08-04T10:20:01.738Z</time>
      </trkpt>
      <trkpt lat="45.95175" lon="4.90969">
        <ele>306.899993896</ele>
        <time>2015-08-04T10:20:02.705Z</time>
      </trkpt>
      <trkpt lat="45.95177" lon="4.90959">
        <ele>306.600006104</ele>
        <time>2015-08-04T10:20:04.736Z</time>
      </trkpt>
      <trkpt lat="45.95177" lon="4.90953">
        <ele>306.5</ele>
        <time>2015-08-04T10:20:05.699Z</time>
      </trkpt>
      <trkpt lat="45.95178" lon="4.9094">
        <ele>306.200012207</ele>
        <time>2015-08-04T10:20:07.77Z</time>
      </trkpt>
      <trkpt lat="45.95179" lon="4.90934">
        <ele>306.200012207</ele>
        <time>2015-08-04T10:20:08.698Z</time>
      </trkpt>
      <trkpt lat="45.95179" lon="4.90927">
        <ele>306.299987793</ele>
        <time>2015-08-04T10:20:09.734Z</time>
      </trkpt>
      <trkpt lat="45.95181" lon="4.9092">
        <ele>306.299987793</ele>
        <time>2015-08-04T10:20:10.715Z</time>
      </trkpt>
      <trkpt lat="45.95182" lon="4.90913">
        <ele>306.100006104</ele>
        <time>2015-08-04T10:20:11.731Z</time>
      </trkpt>
      <trkpt lat="45.95184" lon="4.90906">
        <ele>306.100006104</ele>
        <time>2015-08-04T10:20:12.7Z</time>
      </trkpt>
      <trkpt lat="45.95185" lon="4.90899">
        <ele>306.100006104</ele>
        <time>2015-08-04T10:20:13.738Z</time>
      </trkpt>
      <trkpt lat="45.95186" lon="4.90892">
        <ele>306.100006104</ele>
        <time>2015-08-04T10:20:14.698Z</time>
      </trkpt>
      <trkpt lat="45.95187" lon="4.90885">
        <ele>306.100006104</ele>
        <time>2015-08-04T10:20:15.837Z</time>
      </trkpt>
      <trkpt lat="45.95188" lon="4.90877">
        <ele>306.100006104</ele>
        <time>2015-08-04T10:20:16.707Z</time>
      </trkpt>
      <trkpt lat="45.9519" lon="4.90869">
        <ele>306.100006104</ele>
        <time>2015-08-04T10:20:17.734Z</time>
      </trkpt>
      <trkpt lat="45.95191" lon="4.90861">
        <ele>306</ele>
        <time>2015-08-04T10:20:18.7Z</time>
      </trkpt>
      <trkpt lat="45.95192" lon="4.90853">
        <ele>306.100006104</ele>
        <time>2015-08-04T10:20:19.73Z</time>
      </trkpt>
      <trkpt lat="45.95193" lon="4.90844">
        <ele>306.100006104</ele>
        <time>2015-08-04T10:20:20.7Z</time>
      </trkpt>
      <trkpt lat="45.95194" lon="4.90836">
        <ele>306</ele>
        <time>2015-08-04T10:20:21.73Z</time>
      </trkpt>
      <trkpt lat="45.95195" lon="4.90827">
        <ele>305.899993896</ele>
        <time>2015-08-04T10:20:22.706Z</time>
      </trkpt>
      <trkpt lat="45.95194" lon="4.90818">
        <ele>306</ele>
        <time>2015-08-04T10:20:23.745Z</time>
      </trkpt>
      <trkpt lat="45.95194" lon="4.9081">
        <ele>306.299987793</ele>
        <time>2015-08-04T10:20:24.699Z</time>
      </trkpt>
      <trkpt lat="45.95191" lon="4.90801">
        <ele>306.399993896</ele>
        <time>2015-08-04T10:20:25.773Z</time>
      </trkpt>
      <trkpt lat="45.95189" lon="4.90792">
        <ele>306.399993896</ele>
        <time>2015-08-04T10:20:26.698Z</time>
      </trkpt>
      <trkpt lat="45.95188" lon="4.90782">
        <ele>306.700012207</ele>
        <time>2015-08-04T10:20:27.734Z</time>
      </trkpt>
      <trkpt lat="45.95187" lon="4.90772">
        <ele>306.799987793</ele>
        <time>2015-08-04T10:20:28.706Z</time>
      </trkpt>
      <trkpt lat="45.95187" lon="4.90763">
        <ele>306.899993896</ele>
        <time>2015-08-04T10:20:29.734Z</time>
      </trkpt>
      <trkpt lat="45.95188" lon="4.90753">
        <ele>306.899993896</ele>
        <time>2015-08-04T10:20:30.7Z</time>
      </trkpt>
      <trkpt lat="45.95188" lon="4.90743">
        <ele>306.700012207</ele>
        <time>2015-08-04T10:20:31.73Z</time>
      </trkpt>
      <trkpt lat="45.95188" lon="4.90734">
        <ele>306.899993896</ele>
        <time>2015-08-04T10:20:32.701Z</time>
      </trkpt>
      <trkpt lat="45.95189" lon="4.90726">
        <ele>306.799987793</ele>
        <time>2015-08-04T10:20:33.735Z</time>
      </trkpt>
      <trkpt lat="45.95189" lon="4.90717">
        <ele>306.799987793</ele>
        <time>2015-08-04T10:20:34.706Z</time>
      </trkpt>
      <trkpt lat="45.95189" lon="4.90708">
        <ele>307</ele>
        <time>2015-08-04T10:20:35.829Z</time>
      </trkpt>
      <trkpt lat="45.95189" lon="4.90699">
        <ele>307.100006104</ele>
        <time>2015-08-04T10:20:36.699Z</time>
      </trkpt>
      <trkpt lat="45.95191" lon="4.9069">
        <ele>307.200012207</ele>
        <time>2015-08-04T10:20:37.733Z</time>
      </trkpt>
      <trkpt lat="45.95191" lon="4.90681">
        <ele>307.399993896</ele>
        <time>2015-08-04T10:20:38.698Z</time>
      </trkpt>
      <trkpt lat="45.95192" lon="4.90673">
        <ele>307.5</ele>
        <time>2015-08-04T10:20:39.729Z</time>
      </trkpt>
      <trkpt lat="45.95192" lon="4.90663">
        <ele>307.100006104</ele>
        <time>2015-08-04T10:20:40.706Z</time>
      </trkpt>
      <trkpt lat="45.95192" lon="4.90653">
        <ele>306.5</ele>
        <time>2015-08-04T10:20:41.73Z</time>
      </trkpt>
      <trkpt lat="45.95192" lon="4.90642">
        <ele>306.100006104</ele>
        <time>2015-08-04T10:20:42.699Z</time>
      </trkpt>
      <trkpt lat="45.95192" lon="4.90632">
        <ele>305.899993896</ele>
        <time>2015-08-04T10:20:43.734Z</time>
      </trkpt>
      <trkpt lat="45.95193" lon="4.90622">
        <ele>305.799987793</ele>
        <time>2015-08-04T10:20:44.699Z</time>
      </trkpt>
      <trkpt lat="45.95194" lon="4.90613">
        <ele>305.600006104</ele>
        <time>2015-08-04T10:20:45.729Z</time>
      </trkpt>
      <trkpt lat="45.95194" lon="4.90603">
        <ele>305.299987793</ele>
        <time>2015-08-04T10:20:46.714Z</time>
      </trkpt>
      <trkpt lat="45.95194" lon="4.90594">
        <ele>305.200012207</ele>
        <time>2015-08-04T10:20:47.733Z</time>
      </trkpt>
      <trkpt lat="45.95195" lon="4.90584">
        <ele>304.799987793</ele>
        <time>2015-08-04T10:20:48.7Z</time>
      </trkpt>
      <trkpt lat="45.95195" lon="4.90575">
        <ele>304.600006104</ele>
        <time>2015-08-04T10:20:49.733Z</time>
      </trkpt>
      <trkpt lat="45.95195" lon="4.90567">
        <ele>304.700012207</ele>
        <time>2015-08-04T10:20:50.699Z</time>
      </trkpt>
      <trkpt lat="45.95196" lon="4.90557">
        <ele>303.899993896</ele>
        <time>2015-08-04T10:20:51.764Z</time>
      </trkpt>
      <trkpt lat="45.95197" lon="4.90547">
        <ele>303.700012207</ele>
        <time>2015-08-04T10:20:52.706Z</time>
      </trkpt>
      <trkpt lat="45.95197" lon="4.90538">
        <ele>303.600006104</ele>
        <time>2015-08-04T10:20:53.733Z</time>
      </trkpt>
      <trkpt lat="45.95198" lon="4.90529">
        <ele>303.399993896</ele>
        <time>2015-08-04T10:20:54.699Z</time>
      </trkpt>
      <trkpt lat="45.95199" lon="4.90521">
        <ele>302.899993896</ele>
        <time>2015-08-04T10:20:55.733Z</time>
      </trkpt>
      <trkpt lat="45.95198" lon="4.90513">
        <ele>302.299987793</ele>
        <time>2015-08-04T10:20:56.699Z</time>
      </trkpt>
      <trkpt lat="45.95198" lon="4.90504">
        <ele>302.100006104</ele>
        <time>2015-08-04T10:20:57.73Z</time>
      </trkpt>
      <trkpt lat="45.95198" lon="4.90495">
        <ele>300.899993896</ele>
        <time>2015-08-04T10:20:58.699Z</time>
      </trkpt>
      <trkpt lat="45.95198" lon="4.90486">
        <ele>299.799987793</ele>
        <time>2015-08-04T10:20:59.73Z</time>
      </trkpt>
      <trkpt lat="45.95199" lon="4.90477">
        <ele>299.700012207</ele>
        <time>2015-08-04T10:21:00.699Z</time>
      </trkpt>
      <trkpt lat="45.95199" lon="4.90467">
        <ele>299.100006104</ele>
        <time>2015-08-04T10:21:01.733Z</time>
      </trkpt>
      <trkpt lat="45.95199" lon="4.90457">
        <ele>298.299987793</ele>
        <time>2015-08-04T10:21:02.698Z</time>
      </trkpt>
      <trkpt lat="45.95198" lon="4.90447">
        <ele>297.799987793</ele>
        <time>2015-08-04T10:21:03.733Z</time>
      </trkpt>
      <trkpt lat="45.95198" lon="4.90437">
        <ele>297.5</ele>
        <time>2015-08-04T10:21:04.736Z</time>
      </trkpt>
      <trkpt lat="45.95197" lon="4.90427">
        <ele>296.899993896</ele>
        <time>2015-08-04T10:21:05.729Z</time>
      </trkpt>
      <trkpt lat="45.95198" lon="4.90417">
        <ele>296.399993896</ele>
        <time>2015-08-04T10:21:06.699Z</time>
      </trkpt>
      <trkpt lat="45.95199" lon="4.90407">
        <ele>296.299987793</ele>
        <time>2015-08-04T10:21:07.749Z</time>
      </trkpt>
      <trkpt lat="45.952" lon="4.90397">
        <ele>296.200012207</ele>
        <time>2015-08-04T10:21:08.698Z</time>
      </trkpt>
      <trkpt lat="45.95201" lon="4.90387">
        <ele>295.600006104</ele>
        <time>2015-08-04T10:21:09.733Z</time>
      </trkpt>
      <trkpt lat="45.95203" lon="4.90377">
        <ele>295.5</ele>
        <time>2015-08-04T10:21:10.701Z</time>
      </trkpt>
      <trkpt lat="45.95205" lon="4.90368">
        <ele>295.200012207</ele>
        <time>2015-08-04T10:21:11.729Z</time>
      </trkpt>
      <trkpt lat="45.95206" lon="4.90358">
        <ele>294.100006104</ele>
        <time>2015-08-04T10:21:12.699Z</time>
      </trkpt>
      <trkpt lat="45.95206" lon="4.90348">
        <ele>293.799987793</ele>
        <time>2015-08-04T10:21:13.732Z</time>
      </trkpt>
      <trkpt lat="45.95209" lon="4.90337">
        <ele>293.600006104</ele>
        <time>2015-08-04T10:21:14.746Z</time>
      </trkpt>
      <trkpt lat="45.95211" lon="4.90328">
        <ele>292.899993896</ele>
        <time>2015-08-04T10:21:15.732Z</time>
      </trkpt>
      <trkpt lat="45.95213" lon="4.90318">
        <ele>292.5</ele>
        <time>2015-08-04T10:21:16.701Z</time>
      </trkpt>
      <trkpt lat="45.95216" lon="4.90307">
        <ele>292.600006104</ele>
        <time>2015-08-04T10:21:17.733Z</time>
      </trkpt>
      <trkpt lat="45.95217" lon="4.90297">
        <ele>292.600006104</ele>
        <time>2015-08-04T10:21:18.7Z</time>
      </trkpt>
      <trkpt lat="45.95219" lon="4.90287">
        <ele>292.200012207</ele>
        <time>2015-08-04T10:21:19.729Z</time>
      </trkpt>
      <trkpt lat="45.95219" lon="4.90277">
        <ele>291.299987793</ele>
        <time>2015-08-04T10:21:20.696Z</time>
      </trkpt>
      <trkpt lat="45.9522" lon="4.90267">
        <ele>291.299987793</ele>
        <time>2015-08-04T10:21:21.729Z</time>
      </trkpt>
      <trkpt lat="45.9522" lon="4.90257">
        <ele>291</ele>
        <time>2015-08-04T10:21:22.699Z</time>
      </trkpt>
      <trkpt lat="45.9522" lon="4.90246">
        <ele>290.299987793</ele>
        <time>2015-08-04T10:21:23.793Z</time>
      </trkpt>
      <trkpt lat="45.95219" lon="4.90234">
        <ele>288.899993896</ele>
        <time>2015-08-04T10:21:24.701Z</time>
      </trkpt>
      <trkpt lat="45.95218" lon="4.90224">
        <ele>288.399993896</ele>
        <time>2015-08-04T10:21:25.731Z</time>
      </trkpt>
      <trkpt lat="45.95217" lon="4.90214">
        <ele>288.5</ele>
        <time>2015-08-04T10:21:26.699Z</time>
      </trkpt>
      <trkpt lat="45.95215" lon="4.90204">
        <ele>288.100006104</ele>
        <time>2015-08-04T10:21:27.73Z</time>
      </trkpt>
      <trkpt lat="45.95214" lon="4.90194">
        <ele>287.899993896</ele>
        <time>2015-08-04T10:21:28.702Z</time>
      </trkpt>
      <trkpt lat="45.95212" lon="4.90185">
        <ele>288.200012207</ele>
        <time>2015-08-04T10:21:29.73Z</time>
      </trkpt>
      <trkpt lat="45.95209" lon="4.90176">
        <ele>287.899993896</ele>
        <time>2015-08-04T10:21:30.7Z</time>
      </trkpt>
      <trkpt lat="45.95203" lon="4.9017">
        <ele>287.299987793</ele>
        <time>2015-08-04T10:21:31.731Z</time>
      </trkpt>
      <trkpt lat="45.95197" lon="4.90167">
        <ele>288.100006104</ele>
        <time>2015-08-04T10:21:32.698Z</time>
      </trkpt>
      <trkpt lat="45.9519" lon="4.90166">
        <ele>288.299987793</ele>
        <time>2015-08-04T10:21:33.796Z</time>
      </trkpt>
      <trkpt lat="45.95183" lon="4.90168">
        <ele>288.399993896</ele>
        <time>2015-08-04T10:21:34.702Z</time>
      </trkpt>
      <trkpt lat="45.95176" lon="4.9017">
        <ele>288.200012207</ele>
        <time>2015-08-04T10:21:35.73Z</time>
      </trkpt>
      <trkpt lat="45.95168" lon="4.90172">
        <ele>288.200012207</ele>
        <time>2015-08-04T10:21:36.7Z</time>
      </trkpt>
      <trkpt lat="45.95161" lon="4.90173">
        <ele>288.100006104</ele>
        <time>2015-08-04T10:21:37.73Z</time>
      </trkpt>
      <trkpt lat="45.95154" lon="4.90172">
        <ele>288</ele>
        <time>2015-08-04T10:21:38.714Z</time>
      </trkpt>
      <trkpt lat="45.95147" lon="4.9017">
        <ele>288.100006104</ele>
        <time>2015-08-04T10:21:39.73Z</time>
      </trkpt>
      <trkpt lat="45.95139" lon="4.90167">
        <ele>288.399993896</ele>
        <time>2015-08-04T10:21:40.699Z</time>
      </trkpt>
      <trkpt lat="45.95132" lon="4.90164">
        <ele>288.299987793</ele>
        <time>2015-08-04T10:21:41.733Z</time>
      </trkpt>
      <trkpt lat="45.95125" lon="4.90159">
        <ele>288.5</ele>
        <time>2015-08-04T10:21:42.7Z</time>
      </trkpt>
      <trkpt lat="45.95118" lon="4.90154">
        <ele>288.399993896</ele>
        <time>2015-08-04T10:21:43.817Z</time>
      </trkpt>
      <trkpt lat="45.95111" lon="4.90148">
        <ele>288.700012207</ele>
        <time>2015-08-04T10:21:44.699Z</time>
      </trkpt>
      <trkpt lat="45.95104" lon="4.90142">
        <ele>288.399993896</ele>
        <time>2015-08-04T10:21:45.754Z</time>
      </trkpt>
      <trkpt lat="45.95097" lon="4.90135">
        <ele>288.5</ele>
        <time>2015-08-04T10:21:46.702Z</time>
      </trkpt>
      <trkpt lat="45.95091" lon="4.90128">
        <ele>288.5</ele>
        <time>2015-08-04T10:21:47.73Z</time>
      </trkpt>
      <trkpt lat="45.95085" lon="4.90121">
        <ele>288.700012207</ele>
        <time>2015-08-04T10:21:48.7Z</time>
      </trkpt>
      <trkpt lat="45.95079" lon="4.90113">
        <ele>288.799987793</ele>
        <time>2015-08-04T10:21:49.732Z</time>
      </trkpt>
      <trkpt lat="45.95072" lon="4.90105">
        <ele>288.700012207</ele>
        <time>2015-08-04T10:21:50.7Z</time>
      </trkpt>
      <trkpt lat="45.95066" lon="4.90097">
        <ele>288.299987793</ele>
        <time>2015-08-04T10:21:51.733Z</time>
      </trkpt>
      <trkpt lat="45.9506" lon="4.90089">
        <ele>288.100006104</ele>
        <time>2015-08-04T10:21:52.702Z</time>
      </trkpt>
      <trkpt lat="45.95053" lon="4.90081">
        <ele>287.899993896</ele>
        <time>2015-08-04T10:21:53.786Z</time>
      </trkpt>
      <trkpt lat="45.95047" lon="4.90072">
        <ele>287.5</ele>
        <time>2015-08-04T10:21:54.699Z</time>
      </trkpt>
      <trkpt lat="45.95041" lon="4.90064">
        <ele>287.299987793</ele>
        <time>2015-08-04T10:21:55.733Z</time>
      </trkpt>
      <trkpt lat="45.95036" lon="4.90056">
        <ele>287.200012207</ele>
        <time>2015-08-04T10:21:56.699Z</time>
      </trkpt>
      <trkpt lat="45.9503" lon="4.90047">
        <ele>287.100006104</ele>
        <time>2015-08-04T10:21:57.729Z</time>
      </trkpt>
      <trkpt lat="45.95024" lon="4.90038">
        <ele>287</ele>
        <time>2015-08-04T10:21:58.705Z</time>
      </trkpt>
      <trkpt lat="45.95019" lon="4.90029">
        <ele>286.700012207</ele>
        <time>2015-08-04T10:21:59.745Z</time>
      </trkpt>
      <trkpt lat="45.95014" lon="4.9002">
        <ele>286.600006104</ele>
        <time>2015-08-04T10:22:00.7Z</time>
      </trkpt>
      <trkpt lat="45.95009" lon="4.90011">
        <ele>286.5</ele>
        <time>2015-08-04T10:22:01.752Z</time>
      </trkpt>
      <trkpt lat="45.95005" lon="4.90003">
        <ele>286.600006104</ele>
        <time>2015-08-04T10:22:02.699Z</time>
      </trkpt>
      <trkpt lat="45.95" lon="4.89994">
        <ele>286.600006104</ele>
        <time>2015-08-04T10:22:03.735Z</time>
      </trkpt>
      <trkpt lat="45.94995" lon="4.89986">
        <ele>286.399993896</ele>
        <time>2015-08-04T10:22:04.699Z</time>
      </trkpt>
      <trkpt lat="45.9499" lon="4.89977">
        <ele>286.5</ele>
        <time>2015-08-04T10:22:05.734Z</time>
      </trkpt>
      <trkpt lat="45.94985" lon="4.89969">
        <ele>286.799987793</ele>
        <time>2015-08-04T10:22:06.7Z</time>
      </trkpt>
      <trkpt lat="45.9498" lon="4.8996">
        <ele>286.899993896</ele>
        <time>2015-08-04T10:22:07.73Z</time>
      </trkpt>
      <trkpt lat="45.94975" lon="4.89953">
        <ele>287</ele>
        <time>2015-08-04T10:22:08.699Z</time>
      </trkpt>
      <trkpt lat="45.9497" lon="4.89945">
        <ele>287.200012207</ele>
        <time>2015-08-04T10:22:09.733Z</time>
      </trkpt>
      <trkpt lat="45.94965" lon="4.89937">
        <ele>287.100006104</ele>
        <time>2015-08-04T10:22:10.701Z</time>
      </trkpt>
      <trkpt lat="45.94959" lon="4.89931">
        <ele>286.899993896</ele>
        <time>2015-08-04T10:22:11.806Z</time>
      </trkpt>
      <trkpt lat="45.94954" lon="4.89924">
        <ele>286.700012207</ele>
        <time>2015-08-04T10:22:12.699Z</time>
      </trkpt>
      <trkpt lat="45.94949" lon="4.89917">
        <ele>286.899993896</ele>
        <time>2015-08-04T10:22:13.739Z</time>
      </trkpt>
      <trkpt lat="45.94943" lon="4.89911">
        <ele>287.200012207</ele>
        <time>2015-08-04T10:22:14.699Z</time>
      </trkpt>
      <trkpt lat="45.94938" lon="4.89905">
        <ele>287.100006104</ele>
        <time>2015-08-04T10:22:15.746Z</time>
      </trkpt>
      <trkpt lat="45.94933" lon="4.89898">
        <ele>287.399993896</ele>
        <time>2015-08-04T10:22:16.699Z</time>
      </trkpt>
      <trkpt lat="45.94929" lon="4.89889">
        <ele>287.5</ele>
        <time>2015-08-04T10:22:17.734Z</time>
      </trkpt>
      <trkpt lat="45.94926" lon="4.89881">
        <ele>287.700012207</ele>
        <time>2015-08-04T10:22:18.7Z</time>
      </trkpt>
      <trkpt lat="45.94923" lon="4.89872">
        <ele>287.600006104</ele>
        <time>2015-08-04T10:22:19.765Z</time>
      </trkpt>
      <trkpt lat="45.94922" lon="4.89863">
        <ele>287.799987793</ele>
        <time>2015-08-04T10:22:20.699Z</time>
      </trkpt>
      <trkpt lat="45.94921" lon="4.89853">
        <ele>287.899993896</ele>
        <time>2015-08-04T10:22:21.786Z</time>
      </trkpt>
      <trkpt lat="45.94921" lon="4.89843">
        <ele>287.799987793</ele>
        <time>2015-08-04T10:22:22.706Z</time>
      </trkpt>
      <trkpt lat="45.94921" lon="4.89834">
        <ele>287.799987793</ele>
        <time>2015-08-04T10:22:23.742Z</time>
      </trkpt>
      <trkpt lat="45.94922" lon="4.89824">
        <ele>287.799987793</ele>
        <time>2015-08-04T10:22:24.699Z</time>
      </trkpt>
      <trkpt lat="45.94923" lon="4.89814">
        <ele>287.600006104</ele>
        <time>2015-08-04T10:22:25.734Z</time>
      </trkpt>
      <trkpt lat="45.94925" lon="4.89804">
        <ele>287.299987793</ele>
        <time>2015-08-04T10:22:26.698Z</time>
      </trkpt>
      <trkpt lat="45.94927" lon="4.89794">
        <ele>287.5</ele>
        <time>2015-08-04T10:22:27.73Z</time>
      </trkpt>
      <trkpt lat="45.9493" lon="4.89785">
        <ele>287.600006104</ele>
        <time>2015-08-04T10:22:28.702Z</time>
      </trkpt>
      <trkpt lat="45.94932" lon="4.89776">
        <ele>287.299987793</ele>
        <time>2015-08-04T10:22:29.729Z</time>
      </trkpt>
      <trkpt lat="45.94935" lon="4.89766">
        <ele>287.200012207</ele>
        <time>2015-08-04T10:22:30.7Z</time>
      </trkpt>
      <trkpt lat="45.94938" lon="4.89757">
        <ele>287.200012207</ele>
        <time>2015-08-04T10:22:31.816Z</time>
      </trkpt>
      <trkpt lat="45.9494" lon="4.89748">
        <ele>287.200012207</ele>
        <time>2015-08-04T10:22:32.699Z</time>
      </trkpt>
      <trkpt lat="45.94942" lon="4.89739">
        <ele>287.299987793</ele>
        <time>2015-08-04T10:22:33.74Z</time>
      </trkpt>
      <trkpt lat="45.94945" lon="4.8973">
        <ele>287</ele>
        <time>2015-08-04T10:22:34.704Z</time>
      </trkpt>
      <trkpt lat="45.94947" lon="4.8972">
        <ele>286.899993896</ele>
        <time>2015-08-04T10:22:35.73Z</time>
      </trkpt>
      <trkpt lat="45.9495" lon="4.89711">
        <ele>286.5</ele>
        <time>2015-08-04T10:22:36.7Z</time>
      </trkpt>
      <trkpt lat="45.94953" lon="4.89701">
        <ele>286.100006104</ele>
        <time>2015-08-04T10:22:37.763Z</time>
      </trkpt>
      <trkpt lat="45.94955" lon="4.89691">
        <ele>286.200012207</ele>
        <time>2015-08-04T10:22:38.7Z</time>
      </trkpt>
      <trkpt lat="45.94958" lon="4.89682">
        <ele>285.899993896</ele>
        <time>2015-08-04T10:22:39.766Z</time>
      </trkpt>
      <trkpt lat="45.94961" lon="4.89673">
        <ele>285.799987793</ele>
        <time>2015-08-04T10:22:40.7Z</time>
      </trkpt>
      <trkpt lat="45.94965" lon="4.89663">
        <ele>285.100006104</ele>
        <time>2015-08-04T10:22:41.776Z</time>
      </trkpt>
      <trkpt lat="45.94968" lon="4.89654">
        <ele>284.799987793</ele>
        <time>2015-08-04T10:22:42.701Z</time>
      </trkpt>
      <trkpt lat="45.94971" lon="4.89645">
        <ele>284.5</ele>
        <time>2015-08-04T10:22:43.741Z</time>
      </trkpt>
      <trkpt lat="45.94973" lon="4.89636">
        <ele>283.899993896</ele>
        <time>2015-08-04T10:22:44.699Z</time>
      </trkpt>
      <trkpt lat="45.94976" lon="4.89626">
        <ele>283.700012207</ele>
        <time>2015-08-04T10:22:45.73Z</time>
      </trkpt>
      <trkpt lat="45.94979" lon="4.89617">
        <ele>283.5</ele>
        <time>2015-08-04T10:22:46.702Z</time>
      </trkpt>
      <trkpt lat="45.94982" lon="4.89607">
        <ele>283.5</ele>
        <time>2015-08-04T10:22:47.766Z</time>
      </trkpt>
      <trkpt lat="45.94984" lon="4.89598">
        <ele>283.299987793</ele>
        <time>2015-08-04T10:22:48.7Z</time>
      </trkpt>
      <trkpt lat="45.94987" lon="4.89588">
        <ele>283.399993896</ele>
        <time>2015-08-04T10:22:49.743Z</time>
      </trkpt>
      <trkpt lat="45.9499" lon="4.89578">
        <ele>283</ele>
        <time>2015-08-04T10:22:50.699Z</time>
      </trkpt>
      <trkpt lat="45.94993" lon="4.89569">
        <ele>283.100006104</ele>
        <time>2015-08-04T10:22:51.796Z</time>
      </trkpt>
      <trkpt lat="45.94996" lon="4.89559">
        <ele>282.200012207</ele>
        <time>2015-08-04T10:22:52.686Z</time>
      </trkpt>
      <trkpt lat="45.94998" lon="4.8955">
        <ele>281.799987793</ele>
        <time>2015-08-04T10:22:53.738Z</time>
      </trkpt>
      <trkpt lat="45.95002" lon="4.89541">
        <ele>281.700012207</ele>
        <time>2015-08-04T10:22:54.698Z</time>
      </trkpt>
      <trkpt lat="45.95006" lon="4.89532">
        <ele>281.100006104</ele>
        <time>2015-08-04T10:22:55.73Z</time>
      </trkpt>
      <trkpt lat="45.95011" lon="4.89525">
        <ele>281.299987793</ele>
        <time>2015-08-04T10:22:56.697Z</time>
      </trkpt>
      <trkpt lat="45.95017" lon="4.89519">
        <ele>281.100006104</ele>
        <time>2015-08-04T10:22:57.745Z</time>
      </trkpt>
      <trkpt lat="45.95024" lon="4.89516">
        <ele>280.399993896</ele>
        <time>2015-08-04T10:22:58.7Z</time>
      </trkpt>
      <trkpt lat="45.95031" lon="4.89515">
        <ele>280.700012207</ele>
        <time>2015-08-04T10:22:59.728Z</time>
      </trkpt>
      <trkpt lat="45.95038" lon="4.89514">
        <ele>280.899993896</ele>
        <time>2015-08-04T10:23:00.688Z</time>
      </trkpt>
      <trkpt lat="45.95045" lon="4.89512">
        <ele>280.600006104</ele>
        <time>2015-08-04T10:23:01.73Z</time>
      </trkpt>
      <trkpt lat="45.95052" lon="4.8951">
        <ele>279.899993896</ele>
        <time>2015-08-04T10:23:02.698Z</time>
      </trkpt>
      <trkpt lat="45.95058" lon="4.89509">
        <ele>279.899993896</ele>
        <time>2015-08-04T10:23:03.744Z</time>
      </trkpt>
      <trkpt lat="45.95064" lon="4.89507">
        <ele>279.299987793</ele>
        <time>2015-08-04T10:23:04.698Z</time>
      </trkpt>
      <trkpt lat="45.9507" lon="4.89505">
        <ele>278.899993896</ele>
        <time>2015-08-04T10:23:05.729Z</time>
      </trkpt>
      <trkpt lat="45.95076" lon="4.89502">
        <ele>278.399993896</ele>
        <time>2015-08-04T10:23:06.695Z</time>
      </trkpt>
      <trkpt lat="45.95081" lon="4.89498">
        <ele>278.200012207</ele>
        <time>2015-08-04T10:23:07.733Z</time>
      </trkpt>
      <trkpt lat="45.95085" lon="4.89492">
        <ele>277.799987793</ele>
        <time>2015-08-04T10:23:08.699Z</time>
      </trkpt>
      <trkpt lat="45.95089" lon="4.89484">
        <ele>277.5</ele>
        <time>2015-08-04T10:23:09.729Z</time>
      </trkpt>
      <trkpt lat="45.95089" lon="4.89475">
        <ele>277.799987793</ele>
        <time>2015-08-04T10:23:10.699Z</time>
      </trkpt>
      <trkpt lat="45.95087" lon="4.89466">
        <ele>278.200012207</ele>
        <time>2015-08-04T10:23:11.732Z</time>
      </trkpt>
      <trkpt lat="45.95084" lon="4.89458">
        <ele>278.700012207</ele>
        <time>2015-08-04T10:23:12.697Z</time>
      </trkpt>
      <trkpt lat="45.95082" lon="4.89449">
        <ele>279.200012207</ele>
        <time>2015-08-04T10:23:13.749Z</time>
      </trkpt>
      <trkpt lat="45.9508" lon="4.8944">
        <ele>279.799987793</ele>
        <time>2015-08-04T10:23:14.699Z</time>
      </trkpt>
      <trkpt lat="45.95078" lon="4.89431">
        <ele>280.100006104</ele>
        <time>2015-08-04T10:23:15.729Z</time>
      </trkpt>
      <trkpt lat="45.95077" lon="4.89422">
        <ele>280.5</ele>
        <time>2015-08-04T10:23:16.698Z</time>
      </trkpt>
      <trkpt lat="45.95075" lon="4.89413">
        <ele>281.200012207</ele>
        <time>2015-08-04T10:23:17.733Z</time>
      </trkpt>
      <trkpt lat="45.95074" lon="4.89403">
        <ele>281.600006104</ele>
        <time>2015-08-04T10:23:18.712Z</time>
      </trkpt>
      <trkpt lat="45.95073" lon="4.89392">
        <ele>281.799987793</ele>
        <time>2015-08-04T10:23:19.733Z</time>
      </trkpt>
      <trkpt lat="45.95072" lon="4.89382">
        <ele>281.799987793</ele>
        <time>2015-08-04T10:23:20.698Z</time>
      </trkpt>
      <trkpt lat="45.95071" lon="4.89372">
        <ele>281.899993896</ele>
        <time>2015-08-04T10:23:21.74Z</time>
      </trkpt>
      <trkpt lat="45.95071" lon="4.89362">
        <ele>281.899993896</ele>
        <time>2015-08-04T10:23:22.698Z</time>
      </trkpt>
      <trkpt lat="45.9507" lon="4.89352">
        <ele>281.899993896</ele>
        <time>2015-08-04T10:23:23.744Z</time>
      </trkpt>
      <trkpt lat="45.9507" lon="4.89343">
        <ele>281.899993896</ele>
        <time>2015-08-04T10:23:24.698Z</time>
      </trkpt>
      <trkpt lat="45.95071" lon="4.89333">
        <ele>281.899993896</ele>
        <time>2015-08-04T10:23:25.729Z</time>
      </trkpt>
      <trkpt lat="45.95071" lon="4.89323">
        <ele>281.799987793</ele>
        <time>2015-08-04T10:23:26.698Z</time>
      </trkpt>
      <trkpt lat="45.95072" lon="4.89313">
        <ele>281.5</ele>
        <time>2015-08-04T10:23:27.787Z</time>
      </trkpt>
      <trkpt lat="45.95073" lon="4.89304">
        <ele>281.600006104</ele>
        <time>2015-08-04T10:23:28.696Z</time>
      </trkpt>
      <trkpt lat="45.95074" lon="4.89294">
        <ele>280.899993896</ele>
        <time>2015-08-04T10:23:29.75Z</time>
      </trkpt>
      <trkpt lat="45.95074" lon="4.89284">
        <ele>280.700012207</ele>
        <time>2015-08-04T10:23:30.699Z</time>
      </trkpt>
      <trkpt lat="45.95075" lon="4.89275">
        <ele>280.600006104</ele>
        <time>2015-08-04T10:23:31.731Z</time>
      </trkpt>
      <trkpt lat="45.95075" lon="4.89265">
        <ele>280.700012207</ele>
        <time>2015-08-04T10:23:32.699Z</time>
      </trkpt>
      <trkpt lat="45.95076" lon="4.89255">
        <ele>280.399993896</ele>
        <time>2015-08-04T10:23:33.774Z</time>
      </trkpt>
      <trkpt lat="45.95077" lon="4.89245">
        <ele>280</ele>
        <time>2015-08-04T10:23:34.706Z</time>
      </trkpt>
      <trkpt lat="45.95077" lon="4.89235">
        <ele>280</ele>
        <time>2015-08-04T10:23:35.734Z</time>
      </trkpt>
      <trkpt lat="45.95078" lon="4.89225">
        <ele>280.100006104</ele>
        <time>2015-08-04T10:23:36.699Z</time>
      </trkpt>
      <trkpt lat="45.95079" lon="4.89215">
        <ele>280.100006104</ele>
        <time>2015-08-04T10:23:37.731Z</time>
      </trkpt>
      <trkpt lat="45.9508" lon="4.89206">
        <ele>279.899993896</ele>
        <time>2015-08-04T10:23:38.698Z</time>
      </trkpt>
      <trkpt lat="45.9508" lon="4.89196">
        <ele>280</ele>
        <time>2015-08-04T10:23:39.749Z</time>
      </trkpt>
      <trkpt lat="45.95082" lon="4.89186">
        <ele>280.100006104</ele>
        <time>2015-08-04T10:23:40.698Z</time>
      </trkpt>
      <trkpt lat="45.95082" lon="4.89177">
        <ele>280.200012207</ele>
        <time>2015-08-04T10:23:41.728Z</time>
      </trkpt>
      <trkpt lat="45.95083" lon="4.89167">
        <ele>280.100006104</ele>
        <time>2015-08-04T10:23:42.699Z</time>
      </trkpt>
      <trkpt lat="45.95084" lon="4.89158">
        <ele>280.100006104</ele>
        <time>2015-08-04T10:23:43.748Z</time>
      </trkpt>
      <trkpt lat="45.95084" lon="4.89148">
        <ele>280.399993896</ele>
        <time>2015-08-04T10:23:44.698Z</time>
      </trkpt>
      <trkpt lat="45.95085" lon="4.89139">
        <ele>280.600006104</ele>
        <time>2015-08-04T10:23:45.729Z</time>
      </trkpt>
      <trkpt lat="45.95086" lon="4.89129">
        <ele>280.700012207</ele>
        <time>2015-08-04T10:23:46.699Z</time>
      </trkpt>
      <trkpt lat="45.95086" lon="4.89119">
        <ele>280.899993896</ele>
        <time>2015-08-04T10:23:47.733Z</time>
      </trkpt>
      <trkpt lat="45.95086" lon="4.89108">
        <ele>281.5</ele>
        <time>2015-08-04T10:23:48.697Z</time>
      </trkpt>
      <trkpt lat="45.95087" lon="4.89098">
        <ele>281.600006104</ele>
        <time>2015-08-04T10:23:49.733Z</time>
      </trkpt>
      <trkpt lat="45.95088" lon="4.89088">
        <ele>281.5</ele>
        <time>2015-08-04T10:23:50.697Z</time>
      </trkpt>
      <trkpt lat="45.95088" lon="4.89078">
        <ele>281.700012207</ele>
        <time>2015-08-04T10:23:51.728Z</time>
      </trkpt>
      <trkpt lat="45.95089" lon="4.89069">
        <ele>281.700012207</ele>
        <time>2015-08-04T10:23:52.7Z</time>
      </trkpt>
      <trkpt lat="45.9509" lon="4.8906">
        <ele>281.299987793</ele>
        <time>2015-08-04T10:23:53.749Z</time>
      </trkpt>
      <trkpt lat="45.95091" lon="4.89051">
        <ele>280.899993896</ele>
        <time>2015-08-04T10:23:54.699Z</time>
      </trkpt>
      <trkpt lat="45.95092" lon="4.89042">
        <ele>280.5</ele>
        <time>2015-08-04T10:23:55.745Z</time>
      </trkpt>
      <trkpt lat="45.95092" lon="4.89033">
        <ele>280.299987793</ele>
        <time>2015-08-04T10:23:56.698Z</time>
      </trkpt>
      <trkpt lat="45.95093" lon="4.89025">
        <ele>280.100006104</ele>
        <time>2015-08-04T10:23:57.73Z</time>
      </trkpt>
      <trkpt lat="45.95093" lon="4.89016">
        <ele>280</ele>
        <time>2015-08-04T10:23:58.698Z</time>
      </trkpt>
      <trkpt lat="45.95094" lon="4.89008">
        <ele>280.399993896</ele>
        <time>2015-08-04T10:23:59.733Z</time>
      </trkpt>
      <trkpt lat="45.95094" lon="4.88999">
        <ele>280.399993896</ele>
        <time>2015-08-04T10:24:00.756Z</time>
      </trkpt>
      <trkpt lat="45.95095" lon="4.88991">
        <ele>280.700012207</ele>
        <time>2015-08-04T10:24:01.731Z</time>
      </trkpt>
      <trkpt lat="45.95096" lon="4.88982">
        <ele>281</ele>
        <time>2015-08-04T10:24:02.697Z</time>
      </trkpt>
      <trkpt lat="45.95097" lon="4.88974">
        <ele>281.299987793</ele>
        <time>2015-08-04T10:24:03.752Z</time>
      </trkpt>
      <trkpt lat="45.95098" lon="4.88965">
        <ele>281.5</ele>
        <time>2015-08-04T10:24:04.698Z</time>
      </trkpt>
      <trkpt lat="45.95098" lon="4.88957">
        <ele>281.899993896</ele>
        <time>2015-08-04T10:24:05.73Z</time>
      </trkpt>
      <trkpt lat="45.95099" lon="4.88948">
        <ele>282.700012207</ele>
        <time>2015-08-04T10:24:06.697Z</time>
      </trkpt>
      <trkpt lat="45.951" lon="4.88939">
        <ele>282.899993896</ele>
        <time>2015-08-04T10:24:07.731Z</time>
      </trkpt>
      <trkpt lat="45.95101" lon="4.88931">
        <ele>283.600006104</ele>
        <time>2015-08-04T10:24:08.699Z</time>
      </trkpt>
      <trkpt lat="45.95102" lon="4.88922">
        <ele>283.600006104</ele>
        <time>2015-08-04T10:24:09.756Z</time>
      </trkpt>
      <trkpt lat="45.95102" lon="4.88913">
        <ele>284.200012207</ele>
        <time>2015-08-04T10:24:10.701Z</time>
      </trkpt>
      <trkpt lat="45.95103" lon="4.88906">
        <ele>284.799987793</ele>
        <time>2015-08-04T10:24:11.749Z</time>
      </trkpt>
      <trkpt lat="45.95103" lon="4.88898">
        <ele>285.299987793</ele>
        <time>2015-08-04T10:24:12.698Z</time>
      </trkpt>
      <trkpt lat="45.95104" lon="4.8889">
        <ele>285.399993896</ele>
        <time>2015-08-04T10:24:13.754Z</time>
      </trkpt>
      <trkpt lat="45.95104" lon="4.88882">
        <ele>285.600006104</ele>
        <time>2015-08-04T10:24:14.694Z</time>
      </trkpt>
      <trkpt lat="45.95105" lon="4.88874">
        <ele>285.700012207</ele>
        <time>2015-08-04T10:24:15.729Z</time>
      </trkpt>
      <trkpt lat="45.95105" lon="4.88867">
        <ele>285.799987793</ele>
        <time>2015-08-04T10:24:16.698Z</time>
      </trkpt>
      <trkpt lat="45.95106" lon="4.88859">
        <ele>286</ele>
        <time>2015-08-04T10:24:17.732Z</time>
      </trkpt>
      <trkpt lat="45.95106" lon="4.88851">
        <ele>285.799987793</ele>
        <time>2015-08-04T10:24:18.697Z</time>
      </trkpt>
      <trkpt lat="45.95106" lon="4.88841">
        <ele>285.700012207</ele>
        <time>2015-08-04T10:24:19.73Z</time>
      </trkpt>
      <trkpt lat="45.95107" lon="4.88832">
        <ele>285.5</ele>
        <time>2015-08-04T10:24:20.699Z</time>
      </trkpt>
      <trkpt lat="45.95108" lon="4.88823">
        <ele>285.600006104</ele>
        <time>2015-08-04T10:24:21.728Z</time>
      </trkpt>
      <trkpt lat="45.95109" lon="4.88815">
        <ele>285.899993896</ele>
        <time>2015-08-04T10:24:22.702Z</time>
      </trkpt>
      <trkpt lat="45.95109" lon="4.88807">
        <ele>286</ele>
        <time>2015-08-04T10:24:23.758Z</time>
      </trkpt>
      <trkpt lat="45.9511" lon="4.88799">
        <ele>286.5</ele>
        <time>2015-08-04T10:24:24.699Z</time>
      </trkpt>
      <trkpt lat="45.95111" lon="4.88791">
        <ele>286.899993896</ele>
        <time>2015-08-04T10:24:25.729Z</time>
      </trkpt>
      <trkpt lat="45.95112" lon="4.88784">
        <ele>287</ele>
        <time>2015-08-04T10:24:26.697Z</time>
      </trkpt>
      <trkpt lat="45.95113" lon="4.88777">
        <ele>287.5</ele>
        <time>2015-08-04T10:24:27.771Z</time>
      </trkpt>
      <trkpt lat="45.95113" lon="4.88769">
        <ele>287.899993896</ele>
        <time>2015-08-04T10:24:28.699Z</time>
      </trkpt>
      <trkpt lat="45.95113" lon="4.88762">
        <ele>288.200012207</ele>
        <time>2015-08-04T10:24:29.73Z</time>
      </trkpt>
      <trkpt lat="45.95113" lon="4.88756">
        <ele>288.600006104</ele>
        <time>2015-08-04T10:24:30.697Z</time>
      </trkpt>
      <trkpt lat="45.95113" lon="4.88749">
        <ele>289</ele>
        <time>2015-08-04T10:24:31.731Z</time>
      </trkpt>
      <trkpt lat="45.95114" lon="4.88742">
        <ele>289.399993896</ele>
        <time>2015-08-04T10:24:32.698Z</time>
      </trkpt>
      <trkpt lat="45.95114" lon="4.88735">
        <ele>289.600006104</ele>
        <time>2015-08-04T10:24:33.755Z</time>
      </trkpt>
      <trkpt lat="45.95113" lon="4.88728">
        <ele>289.600006104</ele>
        <time>2015-08-04T10:24:34.699Z</time>
      </trkpt>
      <trkpt lat="45.95113" lon="4.88721">
        <ele>289.600006104</ele>
        <time>2015-08-04T10:24:35.733Z</time>
      </trkpt>
      <trkpt lat="45.95112" lon="4.88714">
        <ele>289.799987793</ele>
        <time>2015-08-04T10:24:36.7Z</time>
      </trkpt>
      <trkpt lat="45.95112" lon="4.88707">
        <ele>290.299987793</ele>
        <time>2015-08-04T10:24:37.734Z</time>
      </trkpt>
      <trkpt lat="45.95112" lon="4.887">
        <ele>290.100006104</ele>
        <time>2015-08-04T10:24:38.697Z</time>
      </trkpt>
      <trkpt lat="45.95112" lon="4.88692">
        <ele>290.299987793</ele>
        <time>2015-08-04T10:24:39.732Z</time>
      </trkpt>
      <trkpt lat="45.95112" lon="4.88684">
        <ele>290.799987793</ele>
        <time>2015-08-04T10:24:40.699Z</time>
      </trkpt>
      <trkpt lat="45.95112" lon="4.88676">
        <ele>290.700012207</ele>
        <time>2015-08-04T10:24:41.728Z</time>
      </trkpt>
      <trkpt lat="45.95112" lon="4.88669">
        <ele>290.899993896</ele>
        <time>2015-08-04T10:24:42.699Z</time>
      </trkpt>
      <trkpt lat="45.95113" lon="4.88662">
        <ele>291.200012207</ele>
        <time>2015-08-04T10:24:43.79Z</time>
      </trkpt>
      <trkpt lat="45.95113" lon="4.88654">
        <ele>291.5</ele>
        <time>2015-08-04T10:24:44.698Z</time>
      </trkpt>
      <trkpt lat="45.95113" lon="4.88647">
        <ele>291.700012207</ele>
        <time>2015-08-04T10:24:45.73Z</time>
      </trkpt>
      <trkpt lat="45.95114" lon="4.88641">
        <ele>292</ele>
        <time>2015-08-04T10:24:46.701Z</time>
      </trkpt>
      <trkpt lat="45.95114" lon="4.88628">
        <ele>291.899993896</ele>
        <time>2015-08-04T10:24:48.739Z</time>
      </trkpt>
      <trkpt lat="45.95115" lon="4.88621">
        <ele>292</ele>
        <time>2015-08-04T10:24:49.696Z</time>
      </trkpt>
      <trkpt lat="45.95114" lon="4.88615">
        <ele>291.899993896</ele>
        <time>2015-08-04T10:24:50.731Z</time>
      </trkpt>
      <trkpt lat="45.95116" lon="4.88607">
        <ele>292.200012207</ele>
        <time>2015-08-04T10:24:51.697Z</time>
      </trkpt>
      <trkpt lat="45.95117" lon="4.88601">
        <ele>292.899993896</ele>
        <time>2015-08-04T10:24:52.776Z</time>
      </trkpt>
      <trkpt lat="45.95118" lon="4.88594">
        <ele>293.299987793</ele>
        <time>2015-08-04T10:24:53.72Z</time>
      </trkpt>
      <trkpt lat="45.95119" lon="4.88587">
        <ele>293.5</ele>
        <time>2015-08-04T10:24:54.73Z</time>
      </trkpt>
      <trkpt lat="45.9512" lon="4.8858">
        <ele>293.600006104</ele>
        <time>2015-08-04T10:24:55.698Z</time>
      </trkpt>
      <trkpt lat="45.9512" lon="4.88573">
        <ele>293.5</ele>
        <time>2015-08-04T10:24:56.729Z</time>
      </trkpt>
      <trkpt lat="45.95119" lon="4.88566">
        <ele>293.200012207</ele>
        <time>2015-08-04T10:24:57.696Z</time>
      </trkpt>
      <trkpt lat="45.95118" lon="4.88558">
        <ele>292.5</ele>
        <time>2015-08-04T10:24:58.732Z</time>
      </trkpt>
      <trkpt lat="45.95115" lon="4.88551">
        <ele>292.100006104</ele>
        <time>2015-08-04T10:24:59.698Z</time>
      </trkpt>
      <trkpt lat="45.95114" lon="4.88544">
        <ele>291.799987793</ele>
        <time>2015-08-04T10:25:00.734Z</time>
      </trkpt>
      <trkpt lat="45.95112" lon="4.88537">
        <ele>291.5</ele>
        <time>2015-08-04T10:25:01.698Z</time>
      </trkpt>
      <trkpt lat="45.9511" lon="4.8853">
        <ele>290.399993896</ele>
        <time>2015-08-04T10:25:02.735Z</time>
      </trkpt>
      <trkpt lat="45.95111" lon="4.88524">
        <ele>291.799987793</ele>
        <time>2015-08-04T10:25:03.725Z</time>
      </trkpt>
      <trkpt lat="45.9511" lon="4.88517">
        <ele>291.899993896</ele>
        <time>2015-08-04T10:25:04.754Z</time>
      </trkpt>
      <trkpt lat="45.95109" lon="4.8851">
        <ele>292</ele>
        <time>2015-08-04T10:25:05.697Z</time>
      </trkpt>
      <trkpt lat="45.95108" lon="4.88503">
        <ele>292.100006104</ele>
        <time>2015-08-04T10:25:06.733Z</time>
      </trkpt>
      <trkpt lat="45.95106" lon="4.88496">
        <ele>292.299987793</ele>
        <time>2015-08-04T10:25:07.698Z</time>
      </trkpt>
      <trkpt lat="45.95105" lon="4.88489">
        <ele>292.399993896</ele>
        <time>2015-08-04T10:25:08.749Z</time>
      </trkpt>
      <trkpt lat="45.95104" lon="4.88483">
        <ele>293</ele>
        <time>2015-08-04T10:25:09.696Z</time>
      </trkpt>
      <trkpt lat="45.95102" lon="4.88476">
        <ele>293.200012207</ele>
        <time>2015-08-04T10:25:10.73Z</time>
      </trkpt>
      <trkpt lat="45.95101" lon="4.88469">
        <ele>293</ele>
        <time>2015-08-04T10:25:11.698Z</time>
      </trkpt>
      <trkpt lat="45.951" lon="4.88462">
        <ele>293.299987793</ele>
        <time>2015-08-04T10:25:12.732Z</time>
      </trkpt>
      <trkpt lat="45.95101" lon="4.88455">
        <ele>293.299987793</ele>
        <time>2015-08-04T10:25:13.726Z</time>
      </trkpt>
      <trkpt lat="45.95101" lon="4.88446">
        <ele>293.399993896</ele>
        <time>2015-08-04T10:25:14.752Z</time>
      </trkpt>
      <trkpt lat="45.95102" lon="4.88438">
        <ele>293.299987793</ele>
        <time>2015-08-04T10:25:15.733Z</time>
      </trkpt>
      <trkpt lat="45.95103" lon="4.8843">
        <ele>293.399993896</ele>
        <time>2015-08-04T10:25:16.735Z</time>
      </trkpt>
      <trkpt lat="45.95105" lon="4.88422">
        <ele>293.299987793</ele>
        <time>2015-08-04T10:25:17.696Z</time>
      </trkpt>
      <trkpt lat="45.95106" lon="4.88415">
        <ele>293.100006104</ele>
        <time>2015-08-04T10:25:18.734Z</time>
      </trkpt>
      <trkpt lat="45.95107" lon="4.88409">
        <ele>293.100006104</ele>
        <time>2015-08-04T10:25:19.698Z</time>
      </trkpt>
      <trkpt lat="45.95109" lon="4.88402">
        <ele>293.5</ele>
        <time>2015-08-04T10:25:20.774Z</time>
      </trkpt>
      <trkpt lat="45.95109" lon="4.88395">
        <ele>293.5</ele>
        <time>2015-08-04T10:25:21.721Z</time>
      </trkpt>
      <trkpt lat="45.95109" lon="4.88388">
        <ele>293.5</ele>
        <time>2015-08-04T10:25:22.73Z</time>
      </trkpt>
      <trkpt lat="45.95111" lon="4.88382">
        <ele>293.399993896</ele>
        <time>2015-08-04T10:25:23.725Z</time>
      </trkpt>
      <trkpt lat="45.95112" lon="4.88375">
        <ele>293.299987793</ele>
        <time>2015-08-04T10:25:24.742Z</time>
      </trkpt>
      <trkpt lat="45.95113" lon="4.88369">
        <ele>293.399993896</ele>
        <time>2015-08-04T10:25:25.696Z</time>
      </trkpt>
      <trkpt lat="45.95115" lon="4.88364">
        <ele>294.600006104</ele>
        <time>2015-08-04T10:25:26.747Z</time>
      </trkpt>
      <trkpt lat="45.95116" lon="4.88356">
        <ele>295.200012207</ele>
        <time>2015-08-04T10:25:27.698Z</time>
      </trkpt>
      <trkpt lat="45.95118" lon="4.88349">
        <ele>295.399993896</ele>
        <time>2015-08-04T10:25:28.787Z</time>
      </trkpt>
      <trkpt lat="45.9512" lon="4.88341">
        <ele>295.600006104</ele>
        <time>2015-08-04T10:25:29.696Z</time>
      </trkpt>
      <trkpt lat="45.95122" lon="4.88332">
        <ele>295.700012207</ele>
        <time>2015-08-04T10:25:30.758Z</time>
      </trkpt>
      <trkpt lat="45.95123" lon="4.88325">
        <ele>295.899993896</ele>
        <time>2015-08-04T10:25:31.698Z</time>
      </trkpt>
      <trkpt lat="45.95124" lon="4.88316">
        <ele>296.100006104</ele>
        <time>2015-08-04T10:25:32.732Z</time>
      </trkpt>
      <trkpt lat="45.95126" lon="4.88308">
        <ele>296.200012207</ele>
        <time>2015-08-04T10:25:33.725Z</time>
      </trkpt>
      <trkpt lat="45.95127" lon="4.88299">
        <ele>296.299987793</ele>
        <time>2015-08-04T10:25:34.73Z</time>
      </trkpt>
      <trkpt lat="45.95129" lon="4.88291">
        <ele>296.5</ele>
        <time>2015-08-04T10:25:35.698Z</time>
      </trkpt>
      <trkpt lat="45.95131" lon="4.88283">
        <ele>296.5</ele>
        <time>2015-08-04T10:25:36.734Z</time>
      </trkpt>
      <trkpt lat="45.95131" lon="4.88274">
        <ele>296.399993896</ele>
        <time>2015-08-04T10:25:37.696Z</time>
      </trkpt>
      <trkpt lat="45.95131" lon="4.88266">
        <ele>296</ele>
        <time>2015-08-04T10:25:38.765Z</time>
      </trkpt>
      <trkpt lat="45.95131" lon="4.88257">
        <ele>296.200012207</ele>
        <time>2015-08-04T10:25:39.697Z</time>
      </trkpt>
      <trkpt lat="45.95131" lon="4.88249">
        <ele>296.299987793</ele>
        <time>2015-08-04T10:25:40.729Z</time>
      </trkpt>
      <trkpt lat="45.95131" lon="4.88241">
        <ele>296.399993896</ele>
        <time>2015-08-04T10:25:41.696Z</time>
      </trkpt>
      <trkpt lat="45.95131" lon="4.88233">
        <ele>296</ele>
        <time>2015-08-04T10:25:42.729Z</time>
      </trkpt>
      <trkpt lat="45.95131" lon="4.88224">
        <ele>295.700012207</ele>
        <time>2015-08-04T10:25:43.725Z</time>
      </trkpt>
      <trkpt lat="45.95133" lon="4.88215">
        <ele>295.299987793</ele>
        <time>2015-08-04T10:25:44.732Z</time>
      </trkpt>
      <trkpt lat="45.95135" lon="4.88207">
        <ele>294.799987793</ele>
        <time>2015-08-04T10:25:45.696Z</time>
      </trkpt>
      <trkpt lat="45.95138" lon="4.88198">
        <ele>293.799987793</ele>
        <time>2015-08-04T10:25:46.749Z</time>
      </trkpt>
      <trkpt lat="45.95141" lon="4.88191">
        <ele>293.200012207</ele>
        <time>2015-08-04T10:25:47.698Z</time>
      </trkpt>
      <trkpt lat="45.95145" lon="4.88185">
        <ele>293.200012207</ele>
        <time>2015-08-04T10:25:48.732Z</time>
      </trkpt>
      <trkpt lat="45.9515" lon="4.88181">
        <ele>293.200012207</ele>
        <time>2015-08-04T10:25:49.696Z</time>
      </trkpt>
      <trkpt lat="45.95157" lon="4.88177">
        <ele>292.899993896</ele>
        <time>2015-08-04T10:25:50.731Z</time>
      </trkpt>
      <trkpt lat="45.95164" lon="4.88174">
        <ele>292.5</ele>
        <time>2015-08-04T10:25:51.697Z</time>
      </trkpt>
      <trkpt lat="45.95171" lon="4.88169">
        <ele>292.200012207</ele>
        <time>2015-08-04T10:25:52.738Z</time>
      </trkpt>
      <trkpt lat="45.95174" lon="4.8816">
        <ele>291.700012207</ele>
        <time>2015-08-04T10:25:53.715Z</time>
      </trkpt>
      <trkpt lat="45.95176" lon="4.88151">
        <ele>291.5</ele>
        <time>2015-08-04T10:25:54.738Z</time>
      </trkpt>
      <trkpt lat="45.95179" lon="4.88141">
        <ele>291.100006104</ele>
        <time>2015-08-04T10:25:55.696Z</time>
      </trkpt>
      <trkpt lat="45.95181" lon="4.88131">
        <ele>291.200012207</ele>
        <time>2015-08-04T10:25:56.779Z</time>
      </trkpt>
      <trkpt lat="45.95183" lon="4.88121">
        <ele>291.200012207</ele>
        <time>2015-08-04T10:25:57.696Z</time>
      </trkpt>
      <trkpt lat="45.95185" lon="4.88111">
        <ele>290.799987793</ele>
        <time>2015-08-04T10:25:58.733Z</time>
      </trkpt>
      <trkpt lat="45.95187" lon="4.88101">
        <ele>290.600006104</ele>
        <time>2015-08-04T10:25:59.698Z</time>
      </trkpt>
      <trkpt lat="45.95189" lon="4.88091">
        <ele>290.399993896</ele>
        <time>2015-08-04T10:26:00.729Z</time>
      </trkpt>
      <trkpt lat="45.95192" lon="4.88081">
        <ele>290.399993896</ele>
        <time>2015-08-04T10:26:01.697Z</time>
      </trkpt>
      <trkpt lat="45.95194" lon="4.88071">
        <ele>289.899993896</ele>
        <time>2015-08-04T10:26:02.748Z</time>
      </trkpt>
      <trkpt lat="45.95197" lon="4.88062">
        <ele>289.700012207</ele>
        <time>2015-08-04T10:26:03.712Z</time>
      </trkpt>
      <trkpt lat="45.952" lon="4.88052">
        <ele>289.299987793</ele>
        <time>2015-08-04T10:26:04.73Z</time>
      </trkpt>
      <trkpt lat="45.95205" lon="4.88043">
        <ele>288.700012207</ele>
        <time>2015-08-04T10:26:05.696Z</time>
      </trkpt>
      <trkpt lat="45.95209" lon="4.88035">
        <ele>288</ele>
        <time>2015-08-04T10:26:06.728Z</time>
      </trkpt>
      <trkpt lat="45.95214" lon="4.88027">
        <ele>287.299987793</ele>
        <time>2015-08-04T10:26:07.696Z</time>
      </trkpt>
      <trkpt lat="45.95218" lon="4.8802">
        <ele>286.700012207</ele>
        <time>2015-08-04T10:26:08.766Z</time>
      </trkpt>
      <trkpt lat="45.95223" lon="4.88013">
        <ele>286.299987793</ele>
        <time>2015-08-04T10:26:09.696Z</time>
      </trkpt>
      <trkpt lat="45.95227" lon="4.88006">
        <ele>285.600006104</ele>
        <time>2015-08-04T10:26:10.733Z</time>
      </trkpt>
      <trkpt lat="45.95232" lon="4.88">
        <ele>285.700012207</ele>
        <time>2015-08-04T10:26:11.698Z</time>
      </trkpt>
      <trkpt lat="45.95237" lon="4.87994">
        <ele>285.5</ele>
        <time>2015-08-04T10:26:12.728Z</time>
      </trkpt>
      <trkpt lat="45.95241" lon="4.87988">
        <ele>285.299987793</ele>
        <time>2015-08-04T10:26:13.712Z</time>
      </trkpt>
      <trkpt lat="45.95245" lon="4.87981">
        <ele>285</ele>
        <time>2015-08-04T10:26:14.768Z</time>
      </trkpt>
      <trkpt lat="45.9525" lon="4.87974">
        <ele>284.899993896</ele>
        <time>2015-08-04T10:26:15.721Z</time>
      </trkpt>
      <trkpt lat="45.95254" lon="4.87967">
        <ele>284.299987793</ele>
        <time>2015-08-04T10:26:16.73Z</time>
      </trkpt>
      <trkpt lat="45.95257" lon="4.8796">
        <ele>284.399993896</ele>
        <time>2015-08-04T10:26:17.696Z</time>
      </trkpt>
      <trkpt lat="45.95261" lon="4.87951">
        <ele>284.200012207</ele>
        <time>2015-08-04T10:26:18.729Z</time>
      </trkpt>
      <trkpt lat="45.95263" lon="4.87942">
        <ele>284.200012207</ele>
        <time>2015-08-04T10:26:19.698Z</time>
      </trkpt>
      <trkpt lat="45.95265" lon="4.87933">
        <ele>283.899993896</ele>
        <time>2015-08-04T10:26:20.734Z</time>
      </trkpt>
      <trkpt lat="45.95266" lon="4.87924">
        <ele>284.200012207</ele>
        <time>2015-08-04T10:26:21.696Z</time>
      </trkpt>
      <trkpt lat="45.95266" lon="4.87914">
        <ele>285.299987793</ele>
        <time>2015-08-04T10:26:22.734Z</time>
      </trkpt>
      <trkpt lat="45.95265" lon="4.87905">
        <ele>286.600006104</ele>
        <time>2015-08-04T10:26:23.696Z</time>
      </trkpt>
      <trkpt lat="45.95263" lon="4.87896">
        <ele>287.399993896</ele>
        <time>2015-08-04T10:26:24.728Z</time>
      </trkpt>
      <trkpt lat="45.95261" lon="4.87886">
        <ele>287.799987793</ele>
        <time>2015-08-04T10:26:25.696Z</time>
      </trkpt>
      <trkpt lat="45.95259" lon="4.87876">
        <ele>288.200012207</ele>
        <time>2015-08-04T10:26:26.732Z</time>
      </trkpt>
      <trkpt lat="45.95257" lon="4.87867">
        <ele>288.200012207</ele>
        <time>2015-08-04T10:26:27.696Z</time>
      </trkpt>
      <trkpt lat="45.95255" lon="4.87857">
        <ele>288.299987793</ele>
        <time>2015-08-04T10:26:28.751Z</time>
      </trkpt>
      <trkpt lat="45.95254" lon="4.87848">
        <ele>288.700012207</ele>
        <time>2015-08-04T10:26:29.696Z</time>
      </trkpt>
      <trkpt lat="45.95252" lon="4.87839">
        <ele>289.200012207</ele>
        <time>2015-08-04T10:26:30.728Z</time>
      </trkpt>
      <trkpt lat="45.95251" lon="4.8783">
        <ele>289.399993896</ele>
        <time>2015-08-04T10:26:31.697Z</time>
      </trkpt>
      <trkpt lat="45.95249" lon="4.87821">
        <ele>289.399993896</ele>
        <time>2015-08-04T10:26:32.762Z</time>
      </trkpt>
      <trkpt lat="45.95248" lon="4.87811">
        <ele>289.5</ele>
        <time>2015-08-04T10:26:33.696Z</time>
      </trkpt>
      <trkpt lat="45.95247" lon="4.87802">
        <ele>289.700012207</ele>
        <time>2015-08-04T10:26:34.73Z</time>
      </trkpt>
      <trkpt lat="45.95246" lon="4.87792">
        <ele>289.299987793</ele>
        <time>2015-08-04T10:26:35.702Z</time>
      </trkpt>
      <trkpt lat="45.95244" lon="4.87783">
        <ele>289.200012207</ele>
        <time>2015-08-04T10:26:36.729Z</time>
      </trkpt>
      <trkpt lat="45.95243" lon="4.87773">
        <ele>289.299987793</ele>
        <time>2015-08-04T10:26:37.696Z</time>
      </trkpt>
      <trkpt lat="45.95241" lon="4.87764">
        <ele>289.399993896</ele>
        <time>2015-08-04T10:26:38.745Z</time>
      </trkpt>
      <trkpt lat="45.95239" lon="4.87754">
        <ele>289.399993896</ele>
        <time>2015-08-04T10:26:39.681Z</time>
      </trkpt>
      <trkpt lat="45.95238" lon="4.87744">
        <ele>289.600006104</ele>
        <time>2015-08-04T10:26:40.742Z</time>
      </trkpt>
      <trkpt lat="45.95235" lon="4.87735">
        <ele>289.600006104</ele>
        <time>2015-08-04T10:26:41.698Z</time>
      </trkpt>
      <trkpt lat="45.95233" lon="4.87725">
        <ele>289.600006104</ele>
        <time>2015-08-04T10:26:42.732Z</time>
      </trkpt>
      <trkpt lat="45.95231" lon="4.87714">
        <ele>289.5</ele>
        <time>2015-08-04T10:26:43.694Z</time>
      </trkpt>
      <trkpt lat="45.9523" lon="4.87705">
        <ele>289.299987793</ele>
        <time>2015-08-04T10:26:44.745Z</time>
      </trkpt>
      <trkpt lat="45.95229" lon="4.87694">
        <ele>289.100006104</ele>
        <time>2015-08-04T10:26:45.714Z</time>
      </trkpt>
      <trkpt lat="45.95227" lon="4.87684">
        <ele>288.899993896</ele>
        <time>2015-08-04T10:26:46.738Z</time>
      </trkpt>
      <trkpt lat="45.95225" lon="4.87672">
        <ele>288.799987793</ele>
        <time>2015-08-04T10:26:47.696Z</time>
      </trkpt>
      <trkpt lat="45.95222" lon="4.87661">
        <ele>289</ele>
        <time>2015-08-04T10:26:48.73Z</time>
      </trkpt>
      <trkpt lat="45.95221" lon="4.87649">
        <ele>288.600006104</ele>
        <time>2015-08-04T10:26:49.739Z</time>
      </trkpt>
      <trkpt lat="45.9522" lon="4.87637">
        <ele>288.399993896</ele>
        <time>2015-08-04T10:26:50.775Z</time>
      </trkpt>
      <trkpt lat="45.95219" lon="4.87625">
        <ele>288.200012207</ele>
        <time>2015-08-04T10:26:51.698Z</time>
      </trkpt>
      <trkpt lat="45.95218" lon="4.87613">
        <ele>288.200012207</ele>
        <time>2015-08-04T10:26:52.73Z</time>
      </trkpt>
      <trkpt lat="45.95218" lon="4.876">
        <ele>287.899993896</ele>
        <time>2015-08-04T10:26:53.695Z</time>
      </trkpt>
      <trkpt lat="45.95218" lon="4.87587">
        <ele>287.5</ele>
        <time>2015-08-04T10:26:54.729Z</time>
      </trkpt>
      <trkpt lat="45.95218" lon="4.87574">
        <ele>287.299987793</ele>
        <time>2015-08-04T10:26:55.698Z</time>
      </trkpt>
      <trkpt lat="45.95216" lon="4.87562">
        <ele>286.799987793</ele>
        <time>2015-08-04T10:26:56.727Z</time>
      </trkpt>
      <trkpt lat="45.95215" lon="4.87549">
        <ele>286.600006104</ele>
        <time>2015-08-04T10:26:57.698Z</time>
      </trkpt>
      <trkpt lat="45.95215" lon="4.87549">
        <ele>286.600006104</ele>
        <time>2015-08-04T10:26:57.801Z</time>
      </trkpt>
      <trkpt lat="45.95212" lon="4.87536">
        <ele>286.399993896</ele>
        <time>2015-08-04T10:26:58.7Z</time>
      </trkpt>
      <trkpt lat="45.95212" lon="4.87536">
        <ele>286.399993896</ele>
        <time>2015-08-04T10:26:58.887Z</time>
      </trkpt>
      <trkpt lat="45.9521" lon="4.87523">
        <ele>286.299987793</ele>
        <time>2015-08-04T10:26:59.736Z</time>
      </trkpt>
      <trkpt lat="45.95208" lon="4.87511">
        <ele>286</ele>
        <time>2015-08-04T10:27:00.779Z</time>
      </trkpt>
      <trkpt lat="45.95206" lon="4.87499">
        <ele>285.899993896</ele>
        <time>2015-08-04T10:27:01.698Z</time>
      </trkpt>
      <trkpt lat="45.95203" lon="4.87487">
        <ele>285.399993896</ele>
        <time>2015-08-04T10:27:02.728Z</time>
      </trkpt>
      <trkpt lat="45.952" lon="4.87475">
        <ele>285.299987793</ele>
        <time>2015-08-04T10:27:03.696Z</time>
      </trkpt>
      <trkpt lat="45.95197" lon="4.87463">
        <ele>284.700012207</ele>
        <time>2015-08-04T10:27:04.731Z</time>
      </trkpt>
      <trkpt lat="45.95195" lon="4.87451">
        <ele>284.600006104</ele>
        <time>2015-08-04T10:27:05.696Z</time>
      </trkpt>
      <trkpt lat="45.95193" lon="4.8744">
        <ele>284.799987793</ele>
        <time>2015-08-04T10:27:06.729Z</time>
      </trkpt>
      <trkpt lat="45.9519" lon="4.87428">
        <ele>284.5</ele>
        <time>2015-08-04T10:27:07.697Z</time>
      </trkpt>
      <trkpt lat="45.95188" lon="4.87417">
        <ele>284.700012207</ele>
        <time>2015-08-04T10:27:08.764Z</time>
      </trkpt>
      <trkpt lat="45.95185" lon="4.87406">
        <ele>284</ele>
        <time>2015-08-04T10:27:09.718Z</time>
      </trkpt>
      <trkpt lat="45.95183" lon="4.87395">
        <ele>283.299987793</ele>
        <time>2015-08-04T10:27:10.73Z</time>
      </trkpt>
      <trkpt lat="45.95181" lon="4.87384">
        <ele>282.700012207</ele>
        <time>2015-08-04T10:27:11.696Z</time>
      </trkpt>
      <trkpt lat="45.95178" lon="4.87373">
        <ele>282.100006104</ele>
        <time>2015-08-04T10:27:12.731Z</time>
      </trkpt>
      <trkpt lat="45.95176" lon="4.87363">
        <ele>282.200012207</ele>
        <time>2015-08-04T10:27:13.694Z</time>
      </trkpt>
      <trkpt lat="45.95172" lon="4.87352">
        <ele>281.700012207</ele>
        <time>2015-08-04T10:27:14.733Z</time>
      </trkpt>
      <trkpt lat="45.95169" lon="4.87343">
        <ele>281.200012207</ele>
        <time>2015-08-04T10:27:15.697Z</time>
      </trkpt>
      <trkpt lat="45.95167" lon="4.87332">
        <ele>281</ele>
        <time>2015-08-04T10:27:16.753Z</time>
      </trkpt>
      <trkpt lat="45.95164" lon="4.87322">
        <ele>280.899993896</ele>
        <time>2015-08-04T10:27:17.698Z</time>
      </trkpt>
      <trkpt lat="45.95162" lon="4.87312">
        <ele>281.100006104</ele>
        <time>2015-08-04T10:27:18.817Z</time>
      </trkpt>
      <trkpt lat="45.9516" lon="4.87303">
        <ele>281.299987793</ele>
        <time>2015-08-04T10:27:19.696Z</time>
      </trkpt>
      <trkpt lat="45.95158" lon="4.87293">
        <ele>281.700012207</ele>
        <time>2015-08-04T10:27:20.728Z</time>
      </trkpt>
      <trkpt lat="45.95156" lon="4.87284">
        <ele>281.899993896</ele>
        <time>2015-08-04T10:27:21.697Z</time>
      </trkpt>
      <trkpt lat="45.95154" lon="4.87275">
        <ele>281.799987793</ele>
        <time>2015-08-04T10:27:22.73Z</time>
      </trkpt>
      <trkpt lat="45.95151" lon="4.87266">
        <ele>281.600006104</ele>
        <time>2015-08-04T10:27:23.698Z</time>
      </trkpt>
      <trkpt lat="45.95149" lon="4.87258">
        <ele>281.5</ele>
        <time>2015-08-04T10:27:24.729Z</time>
      </trkpt>
      <trkpt lat="45.95147" lon="4.87251">
        <ele>281.700012207</ele>
        <time>2015-08-04T10:27:25.697Z</time>
      </trkpt>
      <trkpt lat="45.95146" lon="4.87243">
        <ele>281.299987793</ele>
        <time>2015-08-04T10:27:26.761Z</time>
      </trkpt>
      <trkpt lat="45.95144" lon="4.87235">
        <ele>281.200012207</ele>
        <time>2015-08-04T10:27:27.697Z</time>
      </trkpt>
      <trkpt lat="45.95143" lon="4.87227">
        <ele>281.700012207</ele>
        <time>2015-08-04T10:27:28.816Z</time>
      </trkpt>
      <trkpt lat="45.95141" lon="4.8722">
        <ele>281.600006104</ele>
        <time>2015-08-04T10:27:29.696Z</time>
      </trkpt>
      <trkpt lat="45.95139" lon="4.87212">
        <ele>281.700012207</ele>
        <time>2015-08-04T10:27:30.729Z</time>
      </trkpt>
      <trkpt lat="45.95137" lon="4.87205">
        <ele>281.5</ele>
        <time>2015-08-04T10:27:31.696Z</time>
      </trkpt>
      <trkpt lat="45.95136" lon="4.87197">
        <ele>281.799987793</ele>
        <time>2015-08-04T10:27:32.743Z</time>
      </trkpt>
      <trkpt lat="45.95135" lon="4.8719">
        <ele>282.299987793</ele>
        <time>2015-08-04T10:27:33.698Z</time>
      </trkpt>
      <trkpt lat="45.95134" lon="4.87183">
        <ele>282.700012207</ele>
        <time>2015-08-04T10:27:34.735Z</time>
      </trkpt>
      <trkpt lat="45.95132" lon="4.87176">
        <ele>283.200012207</ele>
        <time>2015-08-04T10:27:35.697Z</time>
      </trkpt>
      <trkpt lat="45.95131" lon="4.87169">
        <ele>283.899993896</ele>
        <time>2015-08-04T10:27:36.732Z</time>
      </trkpt>
      <trkpt lat="45.95129" lon="4.87162">
        <ele>284.200012207</ele>
        <time>2015-08-04T10:27:37.698Z</time>
      </trkpt>
      <trkpt lat="45.95128" lon="4.87155">
        <ele>284.700012207</ele>
        <time>2015-08-04T10:27:38.73Z</time>
      </trkpt>
      <trkpt lat="45.95127" lon="4.87148">
        <ele>285.5</ele>
        <time>2015-08-04T10:27:39.696Z</time>
      </trkpt>
      <trkpt lat="45.95126" lon="4.87141">
        <ele>285.899993896</ele>
        <time>2015-08-04T10:27:40.73Z</time>
      </trkpt>
      <trkpt lat="45.95123" lon="4.87134">
        <ele>286.200012207</ele>
        <time>2015-08-04T10:27:41.697Z</time>
      </trkpt>
      <trkpt lat="45.95121" lon="4.87126">
        <ele>286.700012207</ele>
        <time>2015-08-04T10:27:42.73Z</time>
      </trkpt>
      <trkpt lat="45.95119" lon="4.87119">
        <ele>287.399993896</ele>
        <time>2015-08-04T10:27:43.698Z</time>
      </trkpt>
      <trkpt lat="45.95117" lon="4.87111">
        <ele>287.399993896</ele>
        <time>2015-08-04T10:27:44.729Z</time>
      </trkpt>
      <trkpt lat="45.95114" lon="4.87103">
        <ele>287.600006104</ele>
        <time>2015-08-04T10:27:45.697Z</time>
      </trkpt>
      <trkpt lat="45.95111" lon="4.87095">
        <ele>288</ele>
        <time>2015-08-04T10:27:46.731Z</time>
      </trkpt>
      <trkpt lat="45.95108" lon="4.87088">
        <ele>288.100006104</ele>
        <time>2015-08-04T10:27:47.697Z</time>
      </trkpt>
      <trkpt lat="45.95106" lon="4.8708">
        <ele>288.5</ele>
        <time>2015-08-04T10:27:48.732Z</time>
      </trkpt>
      <trkpt lat="45.95103" lon="4.87073">
        <ele>288.600006104</ele>
        <time>2015-08-04T10:27:49.696Z</time>
      </trkpt>
      <trkpt lat="45.951" lon="4.87065">
        <ele>288.700012207</ele>
        <time>2015-08-04T10:27:50.729Z</time>
      </trkpt>
      <trkpt lat="45.95097" lon="4.87059">
        <ele>288.600006104</ele>
        <time>2015-08-04T10:27:51.697Z</time>
      </trkpt>
      <trkpt lat="45.95094" lon="4.87052">
        <ele>288.899993896</ele>
        <time>2015-08-04T10:27:52.734Z</time>
      </trkpt>
      <trkpt lat="45.95091" lon="4.87045">
        <ele>288.899993896</ele>
        <time>2015-08-04T10:27:53.697Z</time>
      </trkpt>
      <trkpt lat="45.95088" lon="4.87037">
        <ele>289</ele>
        <time>2015-08-04T10:27:54.732Z</time>
      </trkpt>
      <trkpt lat="45.95084" lon="4.8703">
        <ele>288.799987793</ele>
        <time>2015-08-04T10:27:55.698Z</time>
      </trkpt>
      <trkpt lat="45.95081" lon="4.87023">
        <ele>288.700012207</ele>
        <time>2015-08-04T10:27:56.757Z</time>
      </trkpt>
      <trkpt lat="45.95077" lon="4.87015">
        <ele>288.5</ele>
        <time>2015-08-04T10:27:57.704Z</time>
      </trkpt>
      <trkpt lat="45.95073" lon="4.87008">
        <ele>288.5</ele>
        <time>2015-08-04T10:27:58.766Z</time>
      </trkpt>
      <trkpt lat="45.95069" lon="4.87">
        <ele>288.100006104</ele>
        <time>2015-08-04T10:27:59.709Z</time>
      </trkpt>
      <trkpt lat="45.95065" lon="4.86992">
        <ele>287.100006104</ele>
        <time>2015-08-04T10:28:00.746Z</time>
      </trkpt>
      <trkpt lat="45.95061" lon="4.86985">
        <ele>286.200012207</ele>
        <time>2015-08-04T10:28:01.707Z</time>
      </trkpt>
      <trkpt lat="45.95058" lon="4.86976">
        <ele>286.100006104</ele>
        <time>2015-08-04T10:28:02.737Z</time>
      </trkpt>
      <trkpt lat="45.95055" lon="4.86967">
        <ele>285.899993896</ele>
        <time>2015-08-04T10:28:03.722Z</time>
      </trkpt>
      <trkpt lat="45.95053" lon="4.86958">
        <ele>285.299987793</ele>
        <time>2015-08-04T10:28:04.743Z</time>
      </trkpt>
      <trkpt lat="45.9505" lon="4.86949">
        <ele>285.100006104</ele>
        <time>2015-08-04T10:28:05.704Z</time>
      </trkpt>
      <trkpt lat="45.95047" lon="4.86941">
        <ele>284.899993896</ele>
        <time>2015-08-04T10:28:06.736Z</time>
      </trkpt>
      <trkpt lat="45.95044" lon="4.86932">
        <ele>284.600006104</ele>
        <time>2015-08-04T10:28:07.703Z</time>
      </trkpt>
      <trkpt lat="45.95042" lon="4.86923">
        <ele>284.700012207</ele>
        <time>2015-08-04T10:28:08.74Z</time>
      </trkpt>
      <trkpt lat="45.95039" lon="4.86913">
        <ele>284.5</ele>
        <time>2015-08-04T10:28:09.702Z</time>
      </trkpt>
      <trkpt lat="45.95035" lon="4.86904">
        <ele>284.299987793</ele>
        <time>2015-08-04T10:28:10.741Z</time>
      </trkpt>
      <trkpt lat="45.95032" lon="4.86894">
        <ele>284.399993896</ele>
        <time>2015-08-04T10:28:11.702Z</time>
      </trkpt>
      <trkpt lat="45.95029" lon="4.86885">
        <ele>284.600006104</ele>
        <time>2015-08-04T10:28:12.738Z</time>
      </trkpt>
      <trkpt lat="45.95026" lon="4.86876">
        <ele>284.299987793</ele>
        <time>2015-08-04T10:28:13.705Z</time>
      </trkpt>
      <trkpt lat="45.95023" lon="4.86867">
        <ele>284</ele>
        <time>2015-08-04T10:28:14.735Z</time>
      </trkpt>
      <trkpt lat="45.9502" lon="4.86859">
        <ele>284.299987793</ele>
        <time>2015-08-04T10:28:15.701Z</time>
      </trkpt>
      <trkpt lat="45.95018" lon="4.86849">
        <ele>283.899993896</ele>
        <time>2015-08-04T10:28:16.739Z</time>
      </trkpt>
      <trkpt lat="45.95015" lon="4.86841">
        <ele>283.600006104</ele>
        <time>2015-08-04T10:28:17.702Z</time>
      </trkpt>
      <trkpt lat="45.95012" lon="4.86832">
        <ele>283.600006104</ele>
        <time>2015-08-04T10:28:18.741Z</time>
      </trkpt>
      <trkpt lat="45.95008" lon="4.86824">
        <ele>283.600006104</ele>
        <time>2015-08-04T10:28:19.7Z</time>
      </trkpt>
      <trkpt lat="45.95004" lon="4.86816">
        <ele>283.899993896</ele>
        <time>2015-08-04T10:28:20.734Z</time>
      </trkpt>
      <trkpt lat="45.95" lon="4.86808">
        <ele>284.200012207</ele>
        <time>2015-08-04T10:28:21.745Z</time>
      </trkpt>
      <trkpt lat="45.94996" lon="4.86801">
        <ele>284.399993896</ele>
        <time>2015-08-04T10:28:22.739Z</time>
      </trkpt>
      <trkpt lat="45.94993" lon="4.86793">
        <ele>284.700012207</ele>
        <time>2015-08-04T10:28:23.703Z</time>
      </trkpt>
      <trkpt lat="45.94988" lon="4.86786">
        <ele>284.799987793</ele>
        <time>2015-08-04T10:28:24.748Z</time>
      </trkpt>
      <trkpt lat="45.94984" lon="4.86778">
        <ele>285.200012207</ele>
        <time>2015-08-04T10:28:25.7Z</time>
      </trkpt>
      <trkpt lat="45.94981" lon="4.86771">
        <ele>285.5</ele>
        <time>2015-08-04T10:28:26.735Z</time>
      </trkpt>
      <trkpt lat="45.94977" lon="4.86763">
        <ele>285.600006104</ele>
        <time>2015-08-04T10:28:27.704Z</time>
      </trkpt>
      <trkpt lat="45.94973" lon="4.86755">
        <ele>285.700012207</ele>
        <time>2015-08-04T10:28:28.743Z</time>
      </trkpt>
      <trkpt lat="45.94969" lon="4.86747">
        <ele>285.899993896</ele>
        <time>2015-08-04T10:28:29.7Z</time>
      </trkpt>
      <trkpt lat="45.94966" lon="4.86739">
        <ele>285.899993896</ele>
        <time>2015-08-04T10:28:30.767Z</time>
      </trkpt>
      <trkpt lat="45.94964" lon="4.8673">
        <ele>286.200012207</ele>
        <time>2015-08-04T10:28:31.7Z</time>
      </trkpt>
      <trkpt lat="45.9496" lon="4.86721">
        <ele>285.799987793</ele>
        <time>2015-08-04T10:28:32.734Z</time>
      </trkpt>
      <trkpt lat="45.94957" lon="4.86711">
        <ele>285.399993896</ele>
        <time>2015-08-04T10:28:33.701Z</time>
      </trkpt>
      <trkpt lat="45.94955" lon="4.86701">
        <ele>285</ele>
        <time>2015-08-04T10:28:34.739Z</time>
      </trkpt>
      <trkpt lat="45.94952" lon="4.86691">
        <ele>285</ele>
        <time>2015-08-04T10:28:35.7Z</time>
      </trkpt>
      <trkpt lat="45.94951" lon="4.86682">
        <ele>284.700012207</ele>
        <time>2015-08-04T10:28:36.735Z</time>
      </trkpt>
      <trkpt lat="45.9495" lon="4.86672">
        <ele>284.200012207</ele>
        <time>2015-08-04T10:28:37.703Z</time>
      </trkpt>
      <trkpt lat="45.9495" lon="4.86663">
        <ele>283.799987793</ele>
        <time>2015-08-04T10:28:38.73Z</time>
      </trkpt>
      <trkpt lat="45.94952" lon="4.86655">
        <ele>283.700012207</ele>
        <time>2015-08-04T10:28:39.697Z</time>
      </trkpt>
      <trkpt lat="45.94954" lon="4.86647">
        <ele>283.299987793</ele>
        <time>2015-08-04T10:28:40.934Z</time>
      </trkpt>
      <trkpt lat="45.94957" lon="4.8664">
        <ele>283</ele>
        <time>2015-08-04T10:28:41.699Z</time>
      </trkpt>
      <trkpt lat="45.9496" lon="4.86635">
        <ele>282.200012207</ele>
        <time>2015-08-04T10:28:42.733Z</time>
      </trkpt>
      <trkpt lat="45.94965" lon="4.8663">
        <ele>281</ele>
        <time>2015-08-04T10:28:43.699Z</time>
      </trkpt>
      <trkpt lat="45.9497" lon="4.86626">
        <ele>280</ele>
        <time>2015-08-04T10:28:44.734Z</time>
      </trkpt>
      <trkpt lat="45.94975" lon="4.86623">
        <ele>279.399993896</ele>
        <time>2015-08-04T10:28:45.699Z</time>
      </trkpt>
      <trkpt lat="45.9498" lon="4.8662">
        <ele>278.799987793</ele>
        <time>2015-08-04T10:28:46.735Z</time>
      </trkpt>
      <trkpt lat="45.94985" lon="4.86619">
        <ele>277.899993896</ele>
        <time>2015-08-04T10:28:47.699Z</time>
      </trkpt>
      <trkpt lat="45.9499" lon="4.86618">
        <ele>276.600006104</ele>
        <time>2015-08-04T10:28:48.731Z</time>
      </trkpt>
      <trkpt lat="45.94994" lon="4.86617">
        <ele>275.399993896</ele>
        <time>2015-08-04T10:28:49.697Z</time>
      </trkpt>
      <trkpt lat="45.95" lon="4.86615">
        <ele>274.5</ele>
        <time>2015-08-04T10:28:50.751Z</time>
      </trkpt>
      <trkpt lat="45.95007" lon="4.86614">
        <ele>273.700012207</ele>
        <time>2015-08-04T10:28:51.7Z</time>
      </trkpt>
      <trkpt lat="45.95013" lon="4.86613">
        <ele>272.600006104</ele>
        <time>2015-08-04T10:28:52.733Z</time>
      </trkpt>
      <trkpt lat="45.9502" lon="4.86611">
        <ele>272</ele>
        <time>2015-08-04T10:28:53.694Z</time>
      </trkpt>
      <trkpt lat="45.95026" lon="4.86609">
        <ele>271.100006104</ele>
        <time>2015-08-04T10:28:54.734Z</time>
      </trkpt>
      <trkpt lat="45.95033" lon="4.86608">
        <ele>270.600006104</ele>
        <time>2015-08-04T10:28:55.699Z</time>
      </trkpt>
      <trkpt lat="45.95039" lon="4.86607">
        <ele>270.399993896</ele>
        <time>2015-08-04T10:28:56.755Z</time>
      </trkpt>
      <trkpt lat="45.95045" lon="4.86605">
        <ele>270.600006104</ele>
        <time>2015-08-04T10:28:57.682Z</time>
      </trkpt>
      <trkpt lat="45.95052" lon="4.86603">
        <ele>270.100006104</ele>
        <time>2015-08-04T10:28:58.733Z</time>
      </trkpt>
      <trkpt lat="45.95058" lon="4.86601">
        <ele>270</ele>
        <time>2015-08-04T10:28:59.7Z</time>
      </trkpt>
      <trkpt lat="45.95065" lon="4.86599">
        <ele>269.899993896</ele>
        <time>2015-08-04T10:29:00.733Z</time>
      </trkpt>
      <trkpt lat="45.95071" lon="4.86596">
        <ele>269.799987793</ele>
        <time>2015-08-04T10:29:01.7Z</time>
      </trkpt>
      <trkpt lat="45.95078" lon="4.86594">
        <ele>269.700012207</ele>
        <time>2015-08-04T10:29:02.732Z</time>
      </trkpt>
      <trkpt lat="45.95085" lon="4.86592">
        <ele>269.399993896</ele>
        <time>2015-08-04T10:29:03.699Z</time>
      </trkpt>
      <trkpt lat="45.95091" lon="4.86591">
        <ele>269</ele>
        <time>2015-08-04T10:29:04.734Z</time>
      </trkpt>
      <trkpt lat="45.95098" lon="4.8659">
        <ele>268.700012207</ele>
        <time>2015-08-04T10:29:05.741Z</time>
      </trkpt>
      <trkpt lat="45.95105" lon="4.86589">
        <ele>268.299987793</ele>
        <time>2015-08-04T10:29:06.734Z</time>
      </trkpt>
      <trkpt lat="45.95111" lon="4.86588">
        <ele>268.100006104</ele>
        <time>2015-08-04T10:29:07.698Z</time>
      </trkpt>
      <trkpt lat="45.95118" lon="4.86586">
        <ele>268</ele>
        <time>2015-08-04T10:29:08.736Z</time>
      </trkpt>
      <trkpt lat="45.95125" lon="4.86585">
        <ele>267.700012207</ele>
        <time>2015-08-04T10:29:09.698Z</time>
      </trkpt>
      <trkpt lat="45.95132" lon="4.86584">
        <ele>267.600006104</ele>
        <time>2015-08-04T10:29:10.736Z</time>
      </trkpt>
      <trkpt lat="45.95138" lon="4.86583">
        <ele>267.100006104</ele>
        <time>2015-08-04T10:29:11.699Z</time>
      </trkpt>
      <trkpt lat="45.95145" lon="4.86582">
        <ele>266.899993896</ele>
        <time>2015-08-04T10:29:12.949Z</time>
      </trkpt>
      <trkpt lat="45.95152" lon="4.86581">
        <ele>266.700012207</ele>
        <time>2015-08-04T10:29:13.704Z</time>
      </trkpt>
      <trkpt lat="45.95159" lon="4.86581">
        <ele>266.5</ele>
        <time>2015-08-04T10:29:14.776Z</time>
      </trkpt>
      <trkpt lat="45.95165" lon="4.86581">
        <ele>266.200012207</ele>
        <time>2015-08-04T10:29:15.759Z</time>
      </trkpt>
      <trkpt lat="45.95172" lon="4.86579">
        <ele>265.700012207</ele>
        <time>2015-08-04T10:29:16.76Z</time>
      </trkpt>
      <trkpt lat="45.95179" lon="4.86578">
        <ele>265.899993896</ele>
        <time>2015-08-04T10:29:17.707Z</time>
      </trkpt>
      <trkpt lat="45.95185" lon="4.86577">
        <ele>265.799987793</ele>
        <time>2015-08-04T10:29:18.909Z</time>
      </trkpt>
      <trkpt lat="45.95192" lon="4.86577">
        <ele>266.100006104</ele>
        <time>2015-08-04T10:29:19.703Z</time>
      </trkpt>
      <trkpt lat="45.95198" lon="4.86577">
        <ele>266</ele>
        <time>2015-08-04T10:29:20.735Z</time>
      </trkpt>
      <trkpt lat="45.95205" lon="4.86577">
        <ele>265.5</ele>
        <time>2015-08-04T10:29:21.711Z</time>
      </trkpt>
      <trkpt lat="45.95212" lon="4.86577">
        <ele>264.899993896</ele>
        <time>2015-08-04T10:29:22.74Z</time>
      </trkpt>
      <trkpt lat="45.95219" lon="4.86578">
        <ele>264.5</ele>
        <time>2015-08-04T10:29:23.697Z</time>
      </trkpt>
      <trkpt lat="45.95227" lon="4.86578">
        <ele>264.200012207</ele>
        <time>2015-08-04T10:29:24.774Z</time>
      </trkpt>
      <trkpt lat="45.95234" lon="4.86579">
        <ele>263.600006104</ele>
        <time>2015-08-04T10:29:25.698Z</time>
      </trkpt>
      <trkpt lat="45.95242" lon="4.8658">
        <ele>263.399993896</ele>
        <time>2015-08-04T10:29:26.738Z</time>
      </trkpt>
      <trkpt lat="45.95249" lon="4.86581">
        <ele>262.799987793</ele>
        <time>2015-08-04T10:29:27.699Z</time>
      </trkpt>
      <trkpt lat="45.95256" lon="4.8658">
        <ele>262</ele>
        <time>2015-08-04T10:29:28.74Z</time>
      </trkpt>
      <trkpt lat="45.95261" lon="4.86579">
        <ele>262</ele>
        <time>2015-08-04T10:29:29.728Z</time>
      </trkpt>
      <trkpt lat="45.95268" lon="4.86572">
        <ele>261.399993896</ele>
        <time>2015-08-04T10:29:32.742Z</time>
      </trkpt>
      <trkpt lat="45.95269" lon="4.86571">
        <ele>261.200012207</ele>
        <time>2015-08-04T10:29:33.704Z</time>
      </trkpt>
      <trkpt lat="45.95268" lon="4.86561">
        <ele>262</ele>
        <time>2015-08-04T10:29:37.734Z</time>
      </trkpt>
      <trkpt lat="45.95265" lon="4.86558">
        <ele>261.799987793</ele>
        <time>2015-08-04T10:29:38.714Z</time>
      </trkpt>
      <trkpt lat="45.95259" lon="4.8655">
        <ele>261.5</ele>
        <time>2015-08-04T10:29:40.738Z</time>
      </trkpt>
      <trkpt lat="45.95255" lon="4.86546">
        <ele>261.200012207</ele>
        <time>2015-08-04T10:29:41.696Z</time>
      </trkpt>
      <trkpt lat="45.95251" lon="4.86541">
        <ele>261</ele>
        <time>2015-08-04T10:29:42.736Z</time>
      </trkpt>
      <trkpt lat="45.95247" lon="4.86536">
        <ele>260.700012207</ele>
        <time>2015-08-04T10:29:43.699Z</time>
      </trkpt>
      <trkpt lat="45.95243" lon="4.86531">
        <ele>261.200012207</ele>
        <time>2015-08-04T10:29:44.74Z</time>
      </trkpt>
      <trkpt lat="45.95239" lon="4.86527">
        <ele>261.5</ele>
        <time>2015-08-04T10:29:45.698Z</time>
      </trkpt>
      <trkpt lat="45.95234" lon="4.86523">
        <ele>261.799987793</ele>
        <time>2015-08-04T10:29:46.738Z</time>
      </trkpt>
      <trkpt lat="45.95228" lon="4.86518">
        <ele>262</ele>
        <time>2015-08-04T10:29:47.703Z</time>
      </trkpt>
      <trkpt lat="45.95223" lon="4.86512">
        <ele>262.299987793</ele>
        <time>2015-08-04T10:29:48.736Z</time>
      </trkpt>
      <trkpt lat="45.95218" lon="4.86507">
        <ele>262.600006104</ele>
        <time>2015-08-04T10:29:49.697Z</time>
      </trkpt>
      <trkpt lat="45.95213" lon="4.86502">
        <ele>263</ele>
        <time>2015-08-04T10:29:50.746Z</time>
      </trkpt>
      <trkpt lat="45.95208" lon="4.86497">
        <ele>263.399993896</ele>
        <time>2015-08-04T10:29:51.719Z</time>
      </trkpt>
      <trkpt lat="45.95204" lon="4.86492">
        <ele>263.600006104</ele>
        <time>2015-08-04T10:29:52.736Z</time>
      </trkpt>
      <trkpt lat="45.952" lon="4.86487">
        <ele>263.700012207</ele>
        <time>2015-08-04T10:29:53.696Z</time>
      </trkpt>
      <trkpt lat="45.95196" lon="4.86481">
        <ele>264.100006104</ele>
        <time>2015-08-04T10:29:54.749Z</time>
      </trkpt>
      <trkpt lat="45.95191" lon="4.86476">
        <ele>264.600006104</ele>
        <time>2015-08-04T10:29:55.699Z</time>
      </trkpt>
      <trkpt lat="45.95187" lon="4.86472">
        <ele>264.899993896</ele>
        <time>2015-08-04T10:29:56.736Z</time>
      </trkpt>
      <trkpt lat="45.95183" lon="4.86467">
        <ele>265.200012207</ele>
        <time>2015-08-04T10:29:57.7Z</time>
      </trkpt>
      <trkpt lat="45.95179" lon="4.86461">
        <ele>265.600006104</ele>
        <time>2015-08-04T10:29:58.74Z</time>
      </trkpt>
      <trkpt lat="45.95176" lon="4.86456">
        <ele>265.700012207</ele>
        <time>2015-08-04T10:29:59.699Z</time>
      </trkpt>
      <trkpt lat="45.95172" lon="4.86451">
        <ele>266.100006104</ele>
        <time>2015-08-04T10:30:00.733Z</time>
      </trkpt>
      <trkpt lat="45.95167" lon="4.86447">
        <ele>266.399993896</ele>
        <time>2015-08-04T10:30:01.702Z</time>
      </trkpt>
      <trkpt lat="45.95164" lon="4.86442">
        <ele>266.799987793</ele>
        <time>2015-08-04T10:30:02.737Z</time>
      </trkpt>
      <trkpt lat="45.95159" lon="4.86437">
        <ele>267</ele>
        <time>2015-08-04T10:30:03.699Z</time>
      </trkpt>
      <trkpt lat="45.95155" lon="4.86433">
        <ele>267.200012207</ele>
        <time>2015-08-04T10:30:04.769Z</time>
      </trkpt>
      <trkpt lat="45.95151" lon="4.86428">
        <ele>267.399993896</ele>
        <time>2015-08-04T10:30:05.742Z</time>
      </trkpt>
      <trkpt lat="45.95147" lon="4.86424">
        <ele>267.899993896</ele>
        <time>2015-08-04T10:30:06.746Z</time>
      </trkpt>
      <trkpt lat="45.95143" lon="4.86419">
        <ele>267.899993896</ele>
        <time>2015-08-04T10:30:07.696Z</time>
      </trkpt>
      <trkpt lat="45.95138" lon="4.86414">
        <ele>268.299987793</ele>
        <time>2015-08-04T10:30:08.736Z</time>
      </trkpt>
      <trkpt lat="45.95134" lon="4.86409">
        <ele>268.399993896</ele>
        <time>2015-08-04T10:30:09.7Z</time>
      </trkpt>
      <trkpt lat="45.9513" lon="4.86404">
        <ele>268.5</ele>
        <time>2015-08-04T10:30:10.808Z</time>
      </trkpt>
      <trkpt lat="45.95126" lon="4.86399">
        <ele>268.700012207</ele>
        <time>2015-08-04T10:30:11.697Z</time>
      </trkpt>
      <trkpt lat="45.95122" lon="4.86394">
        <ele>268.799987793</ele>
        <time>2015-08-04T10:30:12.741Z</time>
      </trkpt>
      <trkpt lat="45.95118" lon="4.86389">
        <ele>268.899993896</ele>
        <time>2015-08-04T10:30:13.696Z</time>
      </trkpt>
      <trkpt lat="45.95114" lon="4.86384">
        <ele>269</ele>
        <time>2015-08-04T10:30:14.736Z</time>
      </trkpt>
      <trkpt lat="45.9511" lon="4.8638">
        <ele>269.299987793</ele>
        <time>2015-08-04T10:30:15.7Z</time>
      </trkpt>
      <trkpt lat="45.95106" lon="4.86374">
        <ele>269.899993896</ele>
        <time>2015-08-04T10:30:16.735Z</time>
      </trkpt>
      <trkpt lat="45.95103" lon="4.86369">
        <ele>270</ele>
        <time>2015-08-04T10:30:17.7Z</time>
      </trkpt>
      <trkpt lat="45.951" lon="4.86362">
        <ele>270.299987793</ele>
        <time>2015-08-04T10:30:18.85Z</time>
      </trkpt>
      <trkpt lat="45.95096" lon="4.86357">
        <ele>270.399993896</ele>
        <time>2015-08-04T10:30:19.699Z</time>
      </trkpt>
      <trkpt lat="45.95091" lon="4.86352">
        <ele>270.5</ele>
        <time>2015-08-04T10:30:20.748Z</time>
      </trkpt>
      <trkpt lat="45.95087" lon="4.86346">
        <ele>270.399993896</ele>
        <time>2015-08-04T10:30:21.701Z</time>
      </trkpt>
      <trkpt lat="45.95082" lon="4.8634">
        <ele>270.600006104</ele>
        <time>2015-08-04T10:30:22.734Z</time>
      </trkpt>
      <trkpt lat="45.95078" lon="4.86335">
        <ele>270.5</ele>
        <time>2015-08-04T10:30:23.698Z</time>
      </trkpt>
      <trkpt lat="45.95073" lon="4.8633">
        <ele>270.700012207</ele>
        <time>2015-08-04T10:30:24.736Z</time>
      </trkpt>
      <trkpt lat="45.95068" lon="4.86324">
        <ele>271</ele>
        <time>2015-08-04T10:30:25.702Z</time>
      </trkpt>
      <trkpt lat="45.95063" lon="4.86319">
        <ele>270.799987793</ele>
        <time>2015-08-04T10:30:26.735Z</time>
      </trkpt>
      <trkpt lat="45.95059" lon="4.86314">
        <ele>271</ele>
        <time>2015-08-04T10:30:27.699Z</time>
      </trkpt>
      <trkpt lat="45.95055" lon="4.86309">
        <ele>270.799987793</ele>
        <time>2015-08-04T10:30:28.739Z</time>
      </trkpt>
      <trkpt lat="45.9505" lon="4.86304">
        <ele>270.799987793</ele>
        <time>2015-08-04T10:30:29.704Z</time>
      </trkpt>
      <trkpt lat="45.95046" lon="4.86298">
        <ele>270.700012207</ele>
        <time>2015-08-04T10:30:30.734Z</time>
      </trkpt>
      <trkpt lat="45.95041" lon="4.86294">
        <ele>270.899993896</ele>
        <time>2015-08-04T10:30:31.698Z</time>
      </trkpt>
      <trkpt lat="45.95037" lon="4.86289">
        <ele>271.100006104</ele>
        <time>2015-08-04T10:30:32.731Z</time>
      </trkpt>
      <trkpt lat="45.95032" lon="4.86283">
        <ele>271.299987793</ele>
        <time>2015-08-04T10:30:33.701Z</time>
      </trkpt>
      <trkpt lat="45.95028" lon="4.86278">
        <ele>271.700012207</ele>
        <time>2015-08-04T10:30:34.735Z</time>
      </trkpt>
      <trkpt lat="45.95023" lon="4.86273">
        <ele>272</ele>
        <time>2015-08-04T10:30:35.699Z</time>
      </trkpt>
      <trkpt lat="45.95019" lon="4.86267">
        <ele>272.200012207</ele>
        <time>2015-08-04T10:30:36.751Z</time>
      </trkpt>
      <trkpt lat="45.95015" lon="4.86262">
        <ele>272.799987793</ele>
        <time>2015-08-04T10:30:37.7Z</time>
      </trkpt>
      <trkpt lat="45.95011" lon="4.86257">
        <ele>273.100006104</ele>
        <time>2015-08-04T10:30:38.731Z</time>
      </trkpt>
      <trkpt lat="45.95006" lon="4.86252">
        <ele>273.399993896</ele>
        <time>2015-08-04T10:30:39.699Z</time>
      </trkpt>
      <trkpt lat="45.95002" lon="4.86247">
        <ele>273.799987793</ele>
        <time>2015-08-04T10:30:40.76Z</time>
      </trkpt>
      <trkpt lat="45.94998" lon="4.86242">
        <ele>274.299987793</ele>
        <time>2015-08-04T10:30:41.698Z</time>
      </trkpt>
      <trkpt lat="45.94994" lon="4.86237">
        <ele>274.399993896</ele>
        <time>2015-08-04T10:30:42.735Z</time>
      </trkpt>
      <trkpt lat="45.9499" lon="4.86232">
        <ele>275</ele>
        <time>2015-08-04T10:30:43.7Z</time>
      </trkpt>
      <trkpt lat="45.94986" lon="4.86226">
        <ele>275.299987793</ele>
        <time>2015-08-04T10:30:44.733Z</time>
      </trkpt>
      <trkpt lat="45.94982" lon="4.86221">
        <ele>275.299987793</ele>
        <time>2015-08-04T10:30:45.682Z</time>
      </trkpt>
      <trkpt lat="45.94977" lon="4.86216">
        <ele>275.5</ele>
        <time>2015-08-04T10:30:46.736Z</time>
      </trkpt>
      <trkpt lat="45.94973" lon="4.86211">
        <ele>276.100006104</ele>
        <time>2015-08-04T10:30:47.697Z</time>
      </trkpt>
      <trkpt lat="45.9497" lon="4.86206">
        <ele>276.200012207</ele>
        <time>2015-08-04T10:30:48.733Z</time>
      </trkpt>
      <trkpt lat="45.94966" lon="4.86201">
        <ele>276.299987793</ele>
        <time>2015-08-04T10:30:49.741Z</time>
      </trkpt>
      <trkpt lat="45.94962" lon="4.86196">
        <ele>276.600006104</ele>
        <time>2015-08-04T10:30:50.754Z</time>
      </trkpt>
      <trkpt lat="45.94958" lon="4.86191">
        <ele>277.100006104</ele>
        <time>2015-08-04T10:30:51.699Z</time>
      </trkpt>
      <trkpt lat="45.94954" lon="4.86187">
        <ele>277.600006104</ele>
        <time>2015-08-04T10:30:52.737Z</time>
      </trkpt>
      <trkpt lat="45.94951" lon="4.86182">
        <ele>277.799987793</ele>
        <time>2015-08-04T10:30:53.696Z</time>
      </trkpt>
      <trkpt lat="45.94947" lon="4.86177">
        <ele>277.600006104</ele>
        <time>2015-08-04T10:30:54.787Z</time>
      </trkpt>
      <trkpt lat="45.94943" lon="4.86171">
        <ele>278</ele>
        <time>2015-08-04T10:30:55.7Z</time>
      </trkpt>
      <trkpt lat="45.94939" lon="4.86166">
        <ele>278.100006104</ele>
        <time>2015-08-04T10:30:56.732Z</time>
      </trkpt>
      <trkpt lat="45.94934" lon="4.86161">
        <ele>278.399993896</ele>
        <time>2015-08-04T10:30:57.704Z</time>
      </trkpt>
      <trkpt lat="45.9493" lon="4.86156">
        <ele>278.799987793</ele>
        <time>2015-08-04T10:30:58.744Z</time>
      </trkpt>
      <trkpt lat="45.94926" lon="4.8615">
        <ele>279.299987793</ele>
        <time>2015-08-04T10:30:59.796Z</time>
      </trkpt>
      <trkpt lat="45.94922" lon="4.86144">
        <ele>279.200012207</ele>
        <time>2015-08-04T10:31:00.737Z</time>
      </trkpt>
      <trkpt lat="45.94919" lon="4.86138">
        <ele>279.200012207</ele>
        <time>2015-08-04T10:31:01.7Z</time>
      </trkpt>
      <trkpt lat="45.94915" lon="4.86132">
        <ele>279.399993896</ele>
        <time>2015-08-04T10:31:02.771Z</time>
      </trkpt>
      <trkpt lat="45.94911" lon="4.86126">
        <ele>279.5</ele>
        <time>2015-08-04T10:31:03.696Z</time>
      </trkpt>
      <trkpt lat="45.94908" lon="4.8612">
        <ele>279.600006104</ele>
        <time>2015-08-04T10:31:04.735Z</time>
      </trkpt>
      <trkpt lat="45.94906" lon="4.86114">
        <ele>279.799987793</ele>
        <time>2015-08-04T10:31:05.698Z</time>
      </trkpt>
      <trkpt lat="45.94903" lon="4.86107">
        <ele>279.799987793</ele>
        <time>2015-08-04T10:31:06.738Z</time>
      </trkpt>
      <trkpt lat="45.949" lon="4.861">
        <ele>279.799987793</ele>
        <time>2015-08-04T10:31:07.699Z</time>
      </trkpt>
      <trkpt lat="45.94897" lon="4.86093">
        <ele>279.899993896</ele>
        <time>2015-08-04T10:31:08.731Z</time>
      </trkpt>
      <trkpt lat="45.94895" lon="4.86087">
        <ele>280</ele>
        <time>2015-08-04T10:31:09.699Z</time>
      </trkpt>
      <trkpt lat="45.94892" lon="4.8608">
        <ele>279.899993896</ele>
        <time>2015-08-04T10:31:10.735Z</time>
      </trkpt>
      <trkpt lat="45.9489" lon="4.86073">
        <ele>279.899993896</ele>
        <time>2015-08-04T10:31:11.699Z</time>
      </trkpt>
      <trkpt lat="45.94888" lon="4.86066">
        <ele>279.5</ele>
        <time>2015-08-04T10:31:12.732Z</time>
      </trkpt>
      <trkpt lat="45.94886" lon="4.86059">
        <ele>279.600006104</ele>
        <time>2015-08-04T10:31:13.697Z</time>
      </trkpt>
      <trkpt lat="45.94884" lon="4.86051">
        <ele>279.700012207</ele>
        <time>2015-08-04T10:31:14.73Z</time>
      </trkpt>
      <trkpt lat="45.94882" lon="4.86044">
        <ele>279.799987793</ele>
        <time>2015-08-04T10:31:15.735Z</time>
      </trkpt>
      <trkpt lat="45.9488" lon="4.86036">
        <ele>279.799987793</ele>
        <time>2015-08-04T10:31:16.737Z</time>
      </trkpt>
      <trkpt lat="45.94879" lon="4.86029">
        <ele>279.899993896</ele>
        <time>2015-08-04T10:31:17.703Z</time>
      </trkpt>
      <trkpt lat="45.94877" lon="4.86021">
        <ele>279.799987793</ele>
        <time>2015-08-04T10:31:18.763Z</time>
      </trkpt>
      <trkpt lat="45.94875" lon="4.86014">
        <ele>280</ele>
        <time>2015-08-04T10:31:19.696Z</time>
      </trkpt>
      <trkpt lat="45.94874" lon="4.86006">
        <ele>280</ele>
        <time>2015-08-04T10:31:20.731Z</time>
      </trkpt>
      <trkpt lat="45.94872" lon="4.85999">
        <ele>280.100006104</ele>
        <time>2015-08-04T10:31:21.699Z</time>
      </trkpt>
      <trkpt lat="45.9487" lon="4.85991">
        <ele>280.200012207</ele>
        <time>2015-08-04T10:31:22.734Z</time>
      </trkpt>
      <trkpt lat="45.94868" lon="4.85983">
        <ele>280.600006104</ele>
        <time>2015-08-04T10:31:23.7Z</time>
      </trkpt>
      <trkpt lat="45.94867" lon="4.85976">
        <ele>280.799987793</ele>
        <time>2015-08-04T10:31:24.731Z</time>
      </trkpt>
      <trkpt lat="45.94865" lon="4.85968">
        <ele>280.899993896</ele>
        <time>2015-08-04T10:31:25.698Z</time>
      </trkpt>
      <trkpt lat="45.94863" lon="4.85961">
        <ele>281.5</ele>
        <time>2015-08-04T10:31:26.731Z</time>
      </trkpt>
      <trkpt lat="45.94862" lon="4.85954">
        <ele>281.5</ele>
        <time>2015-08-04T10:31:27.698Z</time>
      </trkpt>
      <trkpt lat="45.9486" lon="4.85946">
        <ele>281.399993896</ele>
        <time>2015-08-04T10:31:28.752Z</time>
      </trkpt>
      <trkpt lat="45.94858" lon="4.85939">
        <ele>281.799987793</ele>
        <time>2015-08-04T10:31:29.699Z</time>
      </trkpt>
      <trkpt lat="45.94858" lon="4.85931">
        <ele>282.299987793</ele>
        <time>2015-08-04T10:31:30.731Z</time>
      </trkpt>
      <trkpt lat="45.94856" lon="4.85923">
        <ele>282.799987793</ele>
        <time>2015-08-04T10:31:31.698Z</time>
      </trkpt>
      <trkpt lat="45.94855" lon="4.85916">
        <ele>283.200012207</ele>
        <time>2015-08-04T10:31:32.734Z</time>
      </trkpt>
      <trkpt lat="45.94853" lon="4.85908">
        <ele>283.200012207</ele>
        <time>2015-08-04T10:31:33.735Z</time>
      </trkpt>
      <trkpt lat="45.94851" lon="4.85901">
        <ele>283.399993896</ele>
        <time>2015-08-04T10:31:34.753Z</time>
      </trkpt>
      <trkpt lat="45.94849" lon="4.85893">
        <ele>283.299987793</ele>
        <time>2015-08-04T10:31:35.703Z</time>
      </trkpt>
      <trkpt lat="45.94847" lon="4.85886">
        <ele>283.5</ele>
        <time>2015-08-04T10:31:36.733Z</time>
      </trkpt>
      <trkpt lat="45.94845" lon="4.85878">
        <ele>283.299987793</ele>
        <time>2015-08-04T10:31:37.699Z</time>
      </trkpt>
      <trkpt lat="45.94843" lon="4.85871">
        <ele>283.5</ele>
        <time>2015-08-04T10:31:38.786Z</time>
      </trkpt>
      <trkpt lat="45.94841" lon="4.85864">
        <ele>283.799987793</ele>
        <time>2015-08-04T10:31:39.727Z</time>
      </trkpt>
      <trkpt lat="45.94839" lon="4.85856">
        <ele>284.100006104</ele>
        <time>2015-08-04T10:31:40.734Z</time>
      </trkpt>
      <trkpt lat="45.94837" lon="4.85849">
        <ele>284.399993896</ele>
        <time>2015-08-04T10:31:41.696Z</time>
      </trkpt>
      <trkpt lat="45.94835" lon="4.85842">
        <ele>284.700012207</ele>
        <time>2015-08-04T10:31:42.731Z</time>
      </trkpt>
      <trkpt lat="45.94833" lon="4.85834">
        <ele>284.700012207</ele>
        <time>2015-08-04T10:31:43.699Z</time>
      </trkpt>
      <trkpt lat="45.94831" lon="4.85827">
        <ele>284.899993896</ele>
        <time>2015-08-04T10:31:44.735Z</time>
      </trkpt>
      <trkpt lat="45.94829" lon="4.85819">
        <ele>284.899993896</ele>
        <time>2015-08-04T10:31:45.698Z</time>
      </trkpt>
      <trkpt lat="45.94827" lon="4.85811">
        <ele>285.200012207</ele>
        <time>2015-08-04T10:31:46.736Z</time>
      </trkpt>
      <trkpt lat="45.94825" lon="4.85803">
        <ele>285.299987793</ele>
        <time>2015-08-04T10:31:47.699Z</time>
      </trkpt>
      <trkpt lat="45.94823" lon="4.85796">
        <ele>285.600006104</ele>
        <time>2015-08-04T10:31:48.737Z</time>
      </trkpt>
      <trkpt lat="45.94821" lon="4.85788">
        <ele>285.600006104</ele>
        <time>2015-08-04T10:31:49.696Z</time>
      </trkpt>
      <trkpt lat="45.94819" lon="4.85781">
        <ele>285.899993896</ele>
        <time>2015-08-04T10:31:50.766Z</time>
      </trkpt>
      <trkpt lat="45.94817" lon="4.85774">
        <ele>285.799987793</ele>
        <time>2015-08-04T10:31:51.696Z</time>
      </trkpt>
      <trkpt lat="45.94815" lon="4.85767">
        <ele>285.899993896</ele>
        <time>2015-08-04T10:31:52.735Z</time>
      </trkpt>
      <trkpt lat="45.94814" lon="4.85761">
        <ele>286</ele>
        <time>2015-08-04T10:31:53.698Z</time>
      </trkpt>
      <trkpt lat="45.9481" lon="4.85749">
        <ele>286.399993896</ele>
        <time>2015-08-04T10:31:55.732Z</time>
      </trkpt>
      <trkpt lat="45.94808" lon="4.85744">
        <ele>286.399993896</ele>
        <time>2015-08-04T10:31:56.698Z</time>
      </trkpt>
      <trkpt lat="45.94805" lon="4.85733">
        <ele>286.899993896</ele>
        <time>2015-08-04T10:31:58.739Z</time>
      </trkpt>
      <trkpt lat="45.94803" lon="4.85727">
        <ele>286.700012207</ele>
        <time>2015-08-04T10:31:59.699Z</time>
      </trkpt>
      <trkpt lat="45.948" lon="4.85716">
        <ele>286.600006104</ele>
        <time>2015-08-04T10:32:01.746Z</time>
      </trkpt>
      <trkpt lat="45.94798" lon="4.8571">
        <ele>286.399993896</ele>
        <time>2015-08-04T10:32:02.698Z</time>
      </trkpt>
      <trkpt lat="45.94797" lon="4.85703">
        <ele>286.299987793</ele>
        <time>2015-08-04T10:32:03.731Z</time>
      </trkpt>
      <trkpt lat="45.94795" lon="4.85697">
        <ele>286.200012207</ele>
        <time>2015-08-04T10:32:04.697Z</time>
      </trkpt>
      <trkpt lat="45.94793" lon="4.8569">
        <ele>286.200012207</ele>
        <time>2015-08-04T10:32:05.817Z</time>
      </trkpt>
      <trkpt lat="45.94791" lon="4.85684">
        <ele>286.399993896</ele>
        <time>2015-08-04T10:32:06.699Z</time>
      </trkpt>
      <trkpt lat="45.94789" lon="4.85677">
        <ele>286.399993896</ele>
        <time>2015-08-04T10:32:07.731Z</time>
      </trkpt>
      <trkpt lat="45.94787" lon="4.8567">
        <ele>285.799987793</ele>
        <time>2015-08-04T10:32:08.692Z</time>
      </trkpt>
      <trkpt lat="45.94785" lon="4.85662">
        <ele>285.399993896</ele>
        <time>2015-08-04T10:32:09.732Z</time>
      </trkpt>
      <trkpt lat="45.94783" lon="4.85653">
        <ele>285.399993896</ele>
        <time>2015-08-04T10:32:10.701Z</time>
      </trkpt>
      <trkpt lat="45.94781" lon="4.85645">
        <ele>285.399993896</ele>
        <time>2015-08-04T10:32:11.732Z</time>
      </trkpt>
      <trkpt lat="45.94779" lon="4.85637">
        <ele>284.600006104</ele>
        <time>2015-08-04T10:32:12.698Z</time>
      </trkpt>
      <trkpt lat="45.94777" lon="4.85629">
        <ele>284.600006104</ele>
        <time>2015-08-04T10:32:13.732Z</time>
      </trkpt>
      <trkpt lat="45.94775" lon="4.85621">
        <ele>284</ele>
        <time>2015-08-04T10:32:14.698Z</time>
      </trkpt>
      <trkpt lat="45.94773" lon="4.85612">
        <ele>284.100006104</ele>
        <time>2015-08-04T10:32:15.731Z</time>
      </trkpt>
      <trkpt lat="45.94771" lon="4.85603">
        <ele>283.600006104</ele>
        <time>2015-08-04T10:32:16.701Z</time>
      </trkpt>
      <trkpt lat="45.94769" lon="4.85593">
        <ele>283.299987793</ele>
        <time>2015-08-04T10:32:17.731Z</time>
      </trkpt>
      <trkpt lat="45.94768" lon="4.85583">
        <ele>283.399993896</ele>
        <time>2015-08-04T10:32:18.698Z</time>
      </trkpt>
      <trkpt lat="45.94766" lon="4.85573">
        <ele>283</ele>
        <time>2015-08-04T10:32:19.733Z</time>
      </trkpt>
      <trkpt lat="45.94764" lon="4.85563">
        <ele>282.600006104</ele>
        <time>2015-08-04T10:32:20.698Z</time>
      </trkpt>
      <trkpt lat="45.94762" lon="4.85552">
        <ele>282.100006104</ele>
        <time>2015-08-04T10:32:21.762Z</time>
      </trkpt>
      <trkpt lat="45.9476" lon="4.85541">
        <ele>281.899993896</ele>
        <time>2015-08-04T10:32:22.7Z</time>
      </trkpt>
      <trkpt lat="45.94758" lon="4.8553">
        <ele>281.399993896</ele>
        <time>2015-08-04T10:32:23.776Z</time>
      </trkpt>
      <trkpt lat="45.94756" lon="4.85518">
        <ele>281.100006104</ele>
        <time>2015-08-04T10:32:24.702Z</time>
      </trkpt>
      <trkpt lat="45.94754" lon="4.85506">
        <ele>280.799987793</ele>
        <time>2015-08-04T10:32:25.732Z</time>
      </trkpt>
      <trkpt lat="45.94753" lon="4.85494">
        <ele>280.600006104</ele>
        <time>2015-08-04T10:32:26.694Z</time>
      </trkpt>
      <trkpt lat="45.94753" lon="4.85494">
        <ele>280.600006104</ele>
        <time>2015-08-04T10:32:26.845Z</time>
      </trkpt>
      <trkpt lat="45.94751" lon="4.85481">
        <ele>280.200012207</ele>
        <time>2015-08-04T10:32:27.698Z</time>
      </trkpt>
      <trkpt lat="45.94751" lon="4.85481">
        <ele>280.200012207</ele>
        <time>2015-08-04T10:32:27.796Z</time>
      </trkpt>
      <trkpt lat="45.94749" lon="4.85468">
        <ele>279.899993896</ele>
        <time>2015-08-04T10:32:28.701Z</time>
      </trkpt>
      <trkpt lat="45.94749" lon="4.85468">
        <ele>279.899993896</ele>
        <time>2015-08-04T10:32:28.772Z</time>
      </trkpt>
      <trkpt lat="45.94748" lon="4.85455">
        <ele>279.299987793</ele>
        <time>2015-08-04T10:32:29.698Z</time>
      </trkpt>
      <trkpt lat="45.94748" lon="4.85455">
        <ele>279.299987793</ele>
        <time>2015-08-04T10:32:29.778Z</time>
      </trkpt>
      <trkpt lat="45.94747" lon="4.85442">
        <ele>278.799987793</ele>
        <time>2015-08-04T10:32:30.697Z</time>
      </trkpt>
      <trkpt lat="45.94747" lon="4.85442">
        <ele>278.799987793</ele>
        <time>2015-08-04T10:32:30.824Z</time>
      </trkpt>
      <trkpt lat="45.94746" lon="4.85429">
        <ele>278.600006104</ele>
        <time>2015-08-04T10:32:31.735Z</time>
      </trkpt>
      <trkpt lat="45.94746" lon="4.85429">
        <ele>278.600006104</ele>
        <time>2015-08-04T10:32:31.8Z</time>
      </trkpt>
      <trkpt lat="45.94744" lon="4.85416">
        <ele>278.299987793</ele>
        <time>2015-08-04T10:32:32.699Z</time>
      </trkpt>
      <trkpt lat="45.94743" lon="4.85403">
        <ele>278</ele>
        <time>2015-08-04T10:32:33.758Z</time>
      </trkpt>
      <trkpt lat="45.94741" lon="4.85391">
        <ele>277.5</ele>
        <time>2015-08-04T10:32:34.702Z</time>
      </trkpt>
      <trkpt lat="45.94741" lon="4.85391">
        <ele>277.5</ele>
        <time>2015-08-04T10:32:34.751Z</time>
      </trkpt>
      <trkpt lat="45.94739" lon="4.85378">
        <ele>277.100006104</ele>
        <time>2015-08-04T10:32:35.698Z</time>
      </trkpt>
      <trkpt lat="45.94737" lon="4.85365">
        <ele>276.600006104</ele>
        <time>2015-08-04T10:32:36.733Z</time>
      </trkpt>
      <trkpt lat="45.94736" lon="4.85353">
        <ele>276.200012207</ele>
        <time>2015-08-04T10:32:37.696Z</time>
      </trkpt>
      <trkpt lat="45.94735" lon="4.85341">
        <ele>276.100006104</ele>
        <time>2015-08-04T10:32:38.738Z</time>
      </trkpt>
      <trkpt lat="45.94733" lon="4.85329">
        <ele>275.700012207</ele>
        <time>2015-08-04T10:32:39.741Z</time>
      </trkpt>
      <trkpt lat="45.94733" lon="4.85317">
        <ele>275.299987793</ele>
        <time>2015-08-04T10:32:40.788Z</time>
      </trkpt>
      <trkpt lat="45.94732" lon="4.85305">
        <ele>275.200012207</ele>
        <time>2015-08-04T10:32:41.698Z</time>
      </trkpt>
      <trkpt lat="45.94731" lon="4.85294">
        <ele>275.399993896</ele>
        <time>2015-08-04T10:32:42.747Z</time>
      </trkpt>
      <trkpt lat="45.9473" lon="4.85283">
        <ele>275.100006104</ele>
        <time>2015-08-04T10:32:43.697Z</time>
      </trkpt>
      <trkpt lat="45.94728" lon="4.85272">
        <ele>275.299987793</ele>
        <time>2015-08-04T10:32:44.767Z</time>
      </trkpt>
      <trkpt lat="45.94727" lon="4.85261">
        <ele>275.200012207</ele>
        <time>2015-08-04T10:32:45.698Z</time>
      </trkpt>
      <trkpt lat="45.94725" lon="4.85251">
        <ele>275.100006104</ele>
        <time>2015-08-04T10:32:46.731Z</time>
      </trkpt>
      <trkpt lat="45.94724" lon="4.8524">
        <ele>274.700012207</ele>
        <time>2015-08-04T10:32:47.697Z</time>
      </trkpt>
      <trkpt lat="45.94722" lon="4.85229">
        <ele>274.700012207</ele>
        <time>2015-08-04T10:32:48.854Z</time>
      </trkpt>
      <trkpt lat="45.94721" lon="4.85219">
        <ele>274.100006104</ele>
        <time>2015-08-04T10:32:49.698Z</time>
      </trkpt>
      <trkpt lat="45.94719" lon="4.85208">
        <ele>273.5</ele>
        <time>2015-08-04T10:32:50.737Z</time>
      </trkpt>
      <trkpt lat="45.94718" lon="4.85197">
        <ele>273.200012207</ele>
        <time>2015-08-04T10:32:51.698Z</time>
      </trkpt>
      <trkpt lat="45.94717" lon="4.85187">
        <ele>273.299987793</ele>
        <time>2015-08-04T10:32:52.733Z</time>
      </trkpt>
      <trkpt lat="45.94716" lon="4.85176">
        <ele>273.100006104</ele>
        <time>2015-08-04T10:32:53.698Z</time>
      </trkpt>
      <trkpt lat="45.94715" lon="4.85166">
        <ele>273.200012207</ele>
        <time>2015-08-04T10:32:54.735Z</time>
      </trkpt>
      <trkpt lat="45.94714" lon="4.85155">
        <ele>273.100006104</ele>
        <time>2015-08-04T10:32:55.698Z</time>
      </trkpt>
      <trkpt lat="45.94713" lon="4.85144">
        <ele>272.700012207</ele>
        <time>2015-08-04T10:32:56.729Z</time>
      </trkpt>
      <trkpt lat="45.94713" lon="4.85134">
        <ele>272.5</ele>
        <time>2015-08-04T10:32:57.698Z</time>
      </trkpt>
      <trkpt lat="45.94712" lon="4.85123">
        <ele>272.200012207</ele>
        <time>2015-08-04T10:32:58.75Z</time>
      </trkpt>
      <trkpt lat="45.94711" lon="4.85112">
        <ele>272.700012207</ele>
        <time>2015-08-04T10:32:59.696Z</time>
      </trkpt>
      <trkpt lat="45.9471" lon="4.85101">
        <ele>272.600006104</ele>
        <time>2015-08-04T10:33:00.73Z</time>
      </trkpt>
      <trkpt lat="45.94708" lon="4.8509">
        <ele>272.299987793</ele>
        <time>2015-08-04T10:33:01.697Z</time>
      </trkpt>
      <trkpt lat="45.94707" lon="4.85079">
        <ele>271.799987793</ele>
        <time>2015-08-04T10:33:02.731Z</time>
      </trkpt>
      <trkpt lat="45.94706" lon="4.85067">
        <ele>271.5</ele>
        <time>2015-08-04T10:33:03.697Z</time>
      </trkpt>
      <trkpt lat="45.94704" lon="4.85056">
        <ele>271.600006104</ele>
        <time>2015-08-04T10:33:04.733Z</time>
      </trkpt>
      <trkpt lat="45.94703" lon="4.85045">
        <ele>271.5</ele>
        <time>2015-08-04T10:33:05.696Z</time>
      </trkpt>
      <trkpt lat="45.94702" lon="4.85034">
        <ele>271.600006104</ele>
        <time>2015-08-04T10:33:06.736Z</time>
      </trkpt>
      <trkpt lat="45.94701" lon="4.85023">
        <ele>271.5</ele>
        <time>2015-08-04T10:33:07.698Z</time>
      </trkpt>
      <trkpt lat="45.947" lon="4.85012">
        <ele>271.899993896</ele>
        <time>2015-08-04T10:33:08.732Z</time>
      </trkpt>
      <trkpt lat="45.94698" lon="4.85">
        <ele>272</ele>
        <time>2015-08-04T10:33:09.698Z</time>
      </trkpt>
      <trkpt lat="45.94697" lon="4.8499">
        <ele>272.200012207</ele>
        <time>2015-08-04T10:33:10.732Z</time>
      </trkpt>
      <trkpt lat="45.94696" lon="4.84979">
        <ele>272.200012207</ele>
        <time>2015-08-04T10:33:11.698Z</time>
      </trkpt>
      <trkpt lat="45.94695" lon="4.84968">
        <ele>272.299987793</ele>
        <time>2015-08-04T10:33:12.732Z</time>
      </trkpt>
      <trkpt lat="45.94694" lon="4.84957">
        <ele>272.399993896</ele>
        <time>2015-08-04T10:33:13.698Z</time>
      </trkpt>
      <trkpt lat="45.94693" lon="4.84946">
        <ele>272.5</ele>
        <time>2015-08-04T10:33:14.73Z</time>
      </trkpt>
      <trkpt lat="45.94692" lon="4.84936">
        <ele>272.899993896</ele>
        <time>2015-08-04T10:33:15.697Z</time>
      </trkpt>
      <trkpt lat="45.94691" lon="4.84926">
        <ele>272.799987793</ele>
        <time>2015-08-04T10:33:16.735Z</time>
      </trkpt>
      <trkpt lat="45.9469" lon="4.84916">
        <ele>272.799987793</ele>
        <time>2015-08-04T10:33:17.696Z</time>
      </trkpt>
      <trkpt lat="45.94689" lon="4.84905">
        <ele>272.899993896</ele>
        <time>2015-08-04T10:33:18.733Z</time>
      </trkpt>
      <trkpt lat="45.94688" lon="4.84895">
        <ele>272.899993896</ele>
        <time>2015-08-04T10:33:19.702Z</time>
      </trkpt>
      <trkpt lat="45.94688" lon="4.84885">
        <ele>273.100006104</ele>
        <time>2015-08-04T10:33:20.755Z</time>
      </trkpt>
      <trkpt lat="45.94687" lon="4.84876">
        <ele>273.399993896</ele>
        <time>2015-08-04T10:33:21.696Z</time>
      </trkpt>
      <trkpt lat="45.94686" lon="4.84866">
        <ele>273.200012207</ele>
        <time>2015-08-04T10:33:22.739Z</time>
      </trkpt>
      <trkpt lat="45.94685" lon="4.84856">
        <ele>272.899993896</ele>
        <time>2015-08-04T10:33:23.698Z</time>
      </trkpt>
      <trkpt lat="45.94684" lon="4.84846">
        <ele>272.700012207</ele>
        <time>2015-08-04T10:33:24.75Z</time>
      </trkpt>
      <trkpt lat="45.94683" lon="4.84836">
        <ele>272.700012207</ele>
        <time>2015-08-04T10:33:25.697Z</time>
      </trkpt>
      <trkpt lat="45.94683" lon="4.84826">
        <ele>272.5</ele>
        <time>2015-08-04T10:33:26.735Z</time>
      </trkpt>
      <trkpt lat="45.94682" lon="4.84816">
        <ele>272.600006104</ele>
        <time>2015-08-04T10:33:27.721Z</time>
      </trkpt>
      <trkpt lat="45.9468" lon="4.84806">
        <ele>272.200012207</ele>
        <time>2015-08-04T10:33:28.747Z</time>
      </trkpt>
      <trkpt lat="45.94679" lon="4.84796">
        <ele>271.899993896</ele>
        <time>2015-08-04T10:33:29.696Z</time>
      </trkpt>
      <trkpt lat="45.94679" lon="4.84786">
        <ele>272.100006104</ele>
        <time>2015-08-04T10:33:30.783Z</time>
      </trkpt>
      <trkpt lat="45.94678" lon="4.84775">
        <ele>272.200012207</ele>
        <time>2015-08-04T10:33:31.698Z</time>
      </trkpt>
      <trkpt lat="45.94677" lon="4.84765">
        <ele>272.200012207</ele>
        <time>2015-08-04T10:33:32.737Z</time>
      </trkpt>
      <trkpt lat="45.94677" lon="4.84754">
        <ele>272.200012207</ele>
        <time>2015-08-04T10:33:33.694Z</time>
      </trkpt>
      <trkpt lat="45.94676" lon="4.84744">
        <ele>272.100006104</ele>
        <time>2015-08-04T10:33:34.732Z</time>
      </trkpt>
      <trkpt lat="45.94675" lon="4.84734">
        <ele>272</ele>
        <time>2015-08-04T10:33:35.698Z</time>
      </trkpt>
      <trkpt lat="45.94674" lon="4.84723">
        <ele>271.899993896</ele>
        <time>2015-08-04T10:33:36.73Z</time>
      </trkpt>
      <trkpt lat="45.94673" lon="4.84713">
        <ele>271.600006104</ele>
        <time>2015-08-04T10:33:37.698Z</time>
      </trkpt>
      <trkpt lat="45.94672" lon="4.84702">
        <ele>271.100006104</ele>
        <time>2015-08-04T10:33:38.729Z</time>
      </trkpt>
      <trkpt lat="45.94672" lon="4.84692">
        <ele>270.899993896</ele>
        <time>2015-08-04T10:33:39.698Z</time>
      </trkpt>
      <trkpt lat="45.94671" lon="4.84681">
        <ele>270.700012207</ele>
        <time>2015-08-04T10:33:40.767Z</time>
      </trkpt>
      <trkpt lat="45.94671" lon="4.84671">
        <ele>270.600006104</ele>
        <time>2015-08-04T10:33:41.698Z</time>
      </trkpt>
      <trkpt lat="45.9467" lon="4.8466">
        <ele>270.5</ele>
        <time>2015-08-04T10:33:42.733Z</time>
      </trkpt>
      <trkpt lat="45.9467" lon="4.84649">
        <ele>270.299987793</ele>
        <time>2015-08-04T10:33:43.698Z</time>
      </trkpt>
      <trkpt lat="45.9467" lon="4.84639">
        <ele>270.399993896</ele>
        <time>2015-08-04T10:33:44.786Z</time>
      </trkpt>
      <trkpt lat="45.9467" lon="4.84628">
        <ele>270.399993896</ele>
        <time>2015-08-04T10:33:45.698Z</time>
      </trkpt>
      <trkpt lat="45.94669" lon="4.84618">
        <ele>270.299987793</ele>
        <time>2015-08-04T10:33:46.731Z</time>
      </trkpt>
      <trkpt lat="45.94669" lon="4.84608">
        <ele>270.600006104</ele>
        <time>2015-08-04T10:33:47.698Z</time>
      </trkpt>
      <trkpt lat="45.9467" lon="4.84597">
        <ele>271.200012207</ele>
        <time>2015-08-04T10:33:48.73Z</time>
      </trkpt>
      <trkpt lat="45.94669" lon="4.84587">
        <ele>271.799987793</ele>
        <time>2015-08-04T10:33:49.698Z</time>
      </trkpt>
      <trkpt lat="45.94669" lon="4.84577">
        <ele>271.899993896</ele>
        <time>2015-08-04T10:33:50.75Z</time>
      </trkpt>
      <trkpt lat="45.94669" lon="4.84567">
        <ele>272.299987793</ele>
        <time>2015-08-04T10:33:51.697Z</time>
      </trkpt>
      <trkpt lat="45.94669" lon="4.84557">
        <ele>272.5</ele>
        <time>2015-08-04T10:33:52.734Z</time>
      </trkpt>
      <trkpt lat="45.94668" lon="4.84548">
        <ele>272.5</ele>
        <time>2015-08-04T10:33:53.695Z</time>
      </trkpt>
      <trkpt lat="45.94667" lon="4.84537">
        <ele>272.399993896</ele>
        <time>2015-08-04T10:33:54.732Z</time>
      </trkpt>
      <trkpt lat="45.94665" lon="4.84527">
        <ele>272.5</ele>
        <time>2015-08-04T10:33:55.698Z</time>
      </trkpt>
      <trkpt lat="45.94664" lon="4.84517">
        <ele>272.600006104</ele>
        <time>2015-08-04T10:33:56.75Z</time>
      </trkpt>
      <trkpt lat="45.94664" lon="4.84507">
        <ele>272.5</ele>
        <time>2015-08-04T10:33:57.696Z</time>
      </trkpt>
      <trkpt lat="45.94662" lon="4.84498">
        <ele>272.299987793</ele>
        <time>2015-08-04T10:33:58.733Z</time>
      </trkpt>
      <trkpt lat="45.94662" lon="4.84488">
        <ele>272.299987793</ele>
        <time>2015-08-04T10:33:59.698Z</time>
      </trkpt>
      <trkpt lat="45.94661" lon="4.84478">
        <ele>272.399993896</ele>
        <time>2015-08-04T10:34:00.731Z</time>
      </trkpt>
      <trkpt lat="45.9466" lon="4.84468">
        <ele>272.600006104</ele>
        <time>2015-08-04T10:34:01.697Z</time>
      </trkpt>
      <trkpt lat="45.94659" lon="4.84459">
        <ele>272.600006104</ele>
        <time>2015-08-04T10:34:02.816Z</time>
      </trkpt>
      <trkpt lat="45.94657" lon="4.8445">
        <ele>272.600006104</ele>
        <time>2015-08-04T10:34:03.696Z</time>
      </trkpt>
      <trkpt lat="45.94657" lon="4.8444">
        <ele>272.600006104</ele>
        <time>2015-08-04T10:34:04.732Z</time>
      </trkpt>
      <trkpt lat="45.94656" lon="4.84431">
        <ele>272.899993896</ele>
        <time>2015-08-04T10:34:05.696Z</time>
      </trkpt>
      <trkpt lat="45.94656" lon="4.84421">
        <ele>273.200012207</ele>
        <time>2015-08-04T10:34:06.73Z</time>
      </trkpt>
      <trkpt lat="45.94654" lon="4.84411">
        <ele>273.5</ele>
        <time>2015-08-04T10:34:07.699Z</time>
      </trkpt>
      <trkpt lat="45.94653" lon="4.84401">
        <ele>273.600006104</ele>
        <time>2015-08-04T10:34:08.781Z</time>
      </trkpt>
      <trkpt lat="45.94652" lon="4.84392">
        <ele>273.700012207</ele>
        <time>2015-08-04T10:34:09.697Z</time>
      </trkpt>
      <trkpt lat="45.9465" lon="4.84382">
        <ele>273.600006104</ele>
        <time>2015-08-04T10:34:10.816Z</time>
      </trkpt>
      <trkpt lat="45.94649" lon="4.84373">
        <ele>273.399993896</ele>
        <time>2015-08-04T10:34:11.698Z</time>
      </trkpt>
      <trkpt lat="45.94648" lon="4.84363">
        <ele>273.100006104</ele>
        <time>2015-08-04T10:34:12.73Z</time>
      </trkpt>
      <trkpt lat="45.94646" lon="4.84354">
        <ele>273</ele>
        <time>2015-08-04T10:34:13.692Z</time>
      </trkpt>
      <trkpt lat="45.94645" lon="4.84346">
        <ele>272.299987793</ele>
        <time>2015-08-04T10:34:14.732Z</time>
      </trkpt>
      <trkpt lat="45.94644" lon="4.84337">
        <ele>272.299987793</ele>
        <time>2015-08-04T10:34:15.696Z</time>
      </trkpt>
      <trkpt lat="45.94643" lon="4.84328">
        <ele>272.200012207</ele>
        <time>2015-08-04T10:34:16.73Z</time>
      </trkpt>
      <trkpt lat="45.94642" lon="4.84319">
        <ele>271.899993896</ele>
        <time>2015-08-04T10:34:17.697Z</time>
      </trkpt>
      <trkpt lat="45.94641" lon="4.84311">
        <ele>271.700012207</ele>
        <time>2015-08-04T10:34:18.731Z</time>
      </trkpt>
      <trkpt lat="45.9464" lon="4.84303">
        <ele>271.399993896</ele>
        <time>2015-08-04T10:34:19.697Z</time>
      </trkpt>
      <trkpt lat="45.94639" lon="4.84294">
        <ele>271.600006104</ele>
        <time>2015-08-04T10:34:20.732Z</time>
      </trkpt>
      <trkpt lat="45.94638" lon="4.84286">
        <ele>271.700012207</ele>
        <time>2015-08-04T10:34:21.681Z</time>
      </trkpt>
      <trkpt lat="45.94637" lon="4.84277">
        <ele>271.700012207</ele>
        <time>2015-08-04T10:34:22.749Z</time>
      </trkpt>
      <trkpt lat="45.94635" lon="4.84268">
        <ele>272</ele>
        <time>2015-08-04T10:34:23.698Z</time>
      </trkpt>
      <trkpt lat="45.94634" lon="4.84259">
        <ele>272</ele>
        <time>2015-08-04T10:34:24.729Z</time>
      </trkpt>
      <trkpt lat="45.94633" lon="4.8425">
        <ele>271.700012207</ele>
        <time>2015-08-04T10:34:25.697Z</time>
      </trkpt>
      <trkpt lat="45.94632" lon="4.84241">
        <ele>271.5</ele>
        <time>2015-08-04T10:34:26.728Z</time>
      </trkpt>
      <trkpt lat="45.94631" lon="4.84232">
        <ele>271.100006104</ele>
        <time>2015-08-04T10:34:27.697Z</time>
      </trkpt>
      <trkpt lat="45.9463" lon="4.84222">
        <ele>271.100006104</ele>
        <time>2015-08-04T10:34:28.786Z</time>
      </trkpt>
      <trkpt lat="45.94629" lon="4.84213">
        <ele>271.299987793</ele>
        <time>2015-08-04T10:34:29.698Z</time>
      </trkpt>
      <trkpt lat="45.94627" lon="4.84204">
        <ele>271.399993896</ele>
        <time>2015-08-04T10:34:30.745Z</time>
      </trkpt>
      <trkpt lat="45.94626" lon="4.84194">
        <ele>271.399993896</ele>
        <time>2015-08-04T10:34:31.697Z</time>
      </trkpt>
      <trkpt lat="45.94625" lon="4.84184">
        <ele>271.600006104</ele>
        <time>2015-08-04T10:34:32.732Z</time>
      </trkpt>
      <trkpt lat="45.94622" lon="4.84175">
        <ele>271.299987793</ele>
        <time>2015-08-04T10:34:33.697Z</time>
      </trkpt>
      <trkpt lat="45.94621" lon="4.84165">
        <ele>271.600006104</ele>
        <time>2015-08-04T10:34:34.735Z</time>
      </trkpt>
      <trkpt lat="45.9462" lon="4.84155">
        <ele>271.899993896</ele>
        <time>2015-08-04T10:34:35.696Z</time>
      </trkpt>
      <trkpt lat="45.94618" lon="4.84145">
        <ele>271.899993896</ele>
        <time>2015-08-04T10:34:36.73Z</time>
      </trkpt>
      <trkpt lat="45.94616" lon="4.84135">
        <ele>271.799987793</ele>
        <time>2015-08-04T10:34:37.698Z</time>
      </trkpt>
      <trkpt lat="45.94615" lon="4.84125">
        <ele>271.700012207</ele>
        <time>2015-08-04T10:34:38.733Z</time>
      </trkpt>
      <trkpt lat="45.94613" lon="4.84115">
        <ele>271.5</ele>
        <time>2015-08-04T10:34:39.696Z</time>
      </trkpt>
      <trkpt lat="45.94612" lon="4.84105">
        <ele>271.899993896</ele>
        <time>2015-08-04T10:34:40.754Z</time>
      </trkpt>
      <trkpt lat="45.9461" lon="4.84095">
        <ele>272.299987793</ele>
        <time>2015-08-04T10:34:41.699Z</time>
      </trkpt>
      <trkpt lat="45.94608" lon="4.84085">
        <ele>272.299987793</ele>
        <time>2015-08-04T10:34:42.733Z</time>
      </trkpt>
      <trkpt lat="45.94606" lon="4.84075">
        <ele>272.5</ele>
        <time>2015-08-04T10:34:43.697Z</time>
      </trkpt>
      <trkpt lat="45.94604" lon="4.84065">
        <ele>272.600006104</ele>
        <time>2015-08-04T10:34:44.73Z</time>
      </trkpt>
      <trkpt lat="45.94603" lon="4.84054">
        <ele>272.299987793</ele>
        <time>2015-08-04T10:34:45.698Z</time>
      </trkpt>
      <trkpt lat="45.94602" lon="4.84044">
        <ele>272.399993896</ele>
        <time>2015-08-04T10:34:46.734Z</time>
      </trkpt>
      <trkpt lat="45.94601" lon="4.84033">
        <ele>272.600006104</ele>
        <time>2015-08-04T10:34:47.698Z</time>
      </trkpt>
      <trkpt lat="45.94599" lon="4.84023">
        <ele>272.600006104</ele>
        <time>2015-08-04T10:34:48.749Z</time>
      </trkpt>
      <trkpt lat="45.94597" lon="4.84013">
        <ele>272.600006104</ele>
        <time>2015-08-04T10:34:49.692Z</time>
      </trkpt>
      <trkpt lat="45.94596" lon="4.84004">
        <ele>272.299987793</ele>
        <time>2015-08-04T10:34:50.732Z</time>
      </trkpt>
      <trkpt lat="45.94594" lon="4.83994">
        <ele>272.200012207</ele>
        <time>2015-08-04T10:34:51.699Z</time>
      </trkpt>
      <trkpt lat="45.94592" lon="4.83985">
        <ele>271.899993896</ele>
        <time>2015-08-04T10:34:52.735Z</time>
      </trkpt>
      <trkpt lat="45.9459" lon="4.83975">
        <ele>271.700012207</ele>
        <time>2015-08-04T10:34:53.697Z</time>
      </trkpt>
      <trkpt lat="45.94588" lon="4.83965">
        <ele>271.600006104</ele>
        <time>2015-08-04T10:34:54.732Z</time>
      </trkpt>
      <trkpt lat="45.94586" lon="4.83954">
        <ele>271.200012207</ele>
        <time>2015-08-04T10:34:55.698Z</time>
      </trkpt>
      <trkpt lat="45.94585" lon="4.83944">
        <ele>270.799987793</ele>
        <time>2015-08-04T10:34:56.736Z</time>
      </trkpt>
      <trkpt lat="45.94583" lon="4.83932">
        <ele>270.399993896</ele>
        <time>2015-08-04T10:34:57.697Z</time>
      </trkpt>
      <trkpt lat="45.9458" lon="4.83921">
        <ele>270.100006104</ele>
        <time>2015-08-04T10:34:58.734Z</time>
      </trkpt>
      <trkpt lat="45.94578" lon="4.8391">
        <ele>269.899993896</ele>
        <time>2015-08-04T10:34:59.694Z</time>
      </trkpt>
      <trkpt lat="45.94576" lon="4.83898">
        <ele>269.899993896</ele>
        <time>2015-08-04T10:35:00.734Z</time>
      </trkpt>
      <trkpt lat="45.94574" lon="4.83887">
        <ele>269.799987793</ele>
        <time>2015-08-04T10:35:01.697Z</time>
      </trkpt>
      <trkpt lat="45.94572" lon="4.83875">
        <ele>269.600006104</ele>
        <time>2015-08-04T10:35:02.733Z</time>
      </trkpt>
      <trkpt lat="45.9457" lon="4.83862">
        <ele>269.5</ele>
        <time>2015-08-04T10:35:03.698Z</time>
      </trkpt>
      <trkpt lat="45.94569" lon="4.8385">
        <ele>269.299987793</ele>
        <time>2015-08-04T10:35:04.806Z</time>
      </trkpt>
      <trkpt lat="45.94566" lon="4.83838">
        <ele>269.100006104</ele>
        <time>2015-08-04T10:35:05.696Z</time>
      </trkpt>
      <trkpt lat="45.94565" lon="4.83825">
        <ele>269.100006104</ele>
        <time>2015-08-04T10:35:06.734Z</time>
      </trkpt>
      <trkpt lat="45.94563" lon="4.83813">
        <ele>268.899993896</ele>
        <time>2015-08-04T10:35:07.699Z</time>
      </trkpt>
      <trkpt lat="45.94561" lon="4.838">
        <ele>268.899993896</ele>
        <time>2015-08-04T10:35:08.73Z</time>
      </trkpt>
      <trkpt lat="45.9456" lon="4.83788">
        <ele>269</ele>
        <time>2015-08-04T10:35:09.698Z</time>
      </trkpt>
      <trkpt lat="45.94557" lon="4.83776">
        <ele>269</ele>
        <time>2015-08-04T10:35:10.737Z</time>
      </trkpt>
      <trkpt lat="45.94555" lon="4.83764">
        <ele>269</ele>
        <time>2015-08-04T10:35:11.698Z</time>
      </trkpt>
      <trkpt lat="45.94553" lon="4.83752">
        <ele>269.100006104</ele>
        <time>2015-08-04T10:35:12.731Z</time>
      </trkpt>
      <trkpt lat="45.94551" lon="4.8374">
        <ele>268.700012207</ele>
        <time>2015-08-04T10:35:13.696Z</time>
      </trkpt>
      <trkpt lat="45.9455" lon="4.83728">
        <ele>268.600006104</ele>
        <time>2015-08-04T10:35:14.746Z</time>
      </trkpt>
      <trkpt lat="45.94548" lon="4.83717">
        <ele>268.600006104</ele>
        <time>2015-08-04T10:35:15.697Z</time>
      </trkpt>
      <trkpt lat="45.94547" lon="4.83706">
        <ele>268.299987793</ele>
        <time>2015-08-04T10:35:16.736Z</time>
      </trkpt>
      <trkpt lat="45.94545" lon="4.83695">
        <ele>267.799987793</ele>
        <time>2015-08-04T10:35:17.698Z</time>
      </trkpt>
      <trkpt lat="45.94543" lon="4.83684">
        <ele>267.799987793</ele>
        <time>2015-08-04T10:35:18.731Z</time>
      </trkpt>
      <trkpt lat="45.94542" lon="4.83673">
        <ele>267.700012207</ele>
        <time>2015-08-04T10:35:19.696Z</time>
      </trkpt>
      <trkpt lat="45.94541" lon="4.83662">
        <ele>267.799987793</ele>
        <time>2015-08-04T10:35:20.731Z</time>
      </trkpt>
      <trkpt lat="45.94539" lon="4.83651">
        <ele>267.5</ele>
        <time>2015-08-04T10:35:21.698Z</time>
      </trkpt>
      <trkpt lat="45.94537" lon="4.8364">
        <ele>267.5</ele>
        <time>2015-08-04T10:35:22.786Z</time>
      </trkpt>
      <trkpt lat="45.94535" lon="4.8363">
        <ele>267.299987793</ele>
        <time>2015-08-04T10:35:23.699Z</time>
      </trkpt>
      <trkpt lat="45.94534" lon="4.8362">
        <ele>267.299987793</ele>
        <time>2015-08-04T10:35:24.732Z</time>
      </trkpt>
      <trkpt lat="45.94532" lon="4.83609">
        <ele>266.899993896</ele>
        <time>2015-08-04T10:35:25.699Z</time>
      </trkpt>
      <trkpt lat="45.9453" lon="4.83599">
        <ele>266.5</ele>
        <time>2015-08-04T10:35:26.735Z</time>
      </trkpt>
      <trkpt lat="45.94527" lon="4.83589">
        <ele>266.600006104</ele>
        <time>2015-08-04T10:35:27.697Z</time>
      </trkpt>
      <trkpt lat="45.94524" lon="4.8358">
        <ele>266.5</ele>
        <time>2015-08-04T10:35:28.733Z</time>
      </trkpt>
      <trkpt lat="45.9452" lon="4.83571">
        <ele>265.899993896</ele>
        <time>2015-08-04T10:35:29.698Z</time>
      </trkpt>
      <trkpt lat="45.94516" lon="4.83562">
        <ele>265.600006104</ele>
        <time>2015-08-04T10:35:30.769Z</time>
      </trkpt>
      <trkpt lat="45.94512" lon="4.83553">
        <ele>266</ele>
        <time>2015-08-04T10:35:31.698Z</time>
      </trkpt>
      <trkpt lat="45.94507" lon="4.83544">
        <ele>266.100006104</ele>
        <time>2015-08-04T10:35:32.732Z</time>
      </trkpt>
      <trkpt lat="45.94502" lon="4.83536">
        <ele>266.200012207</ele>
        <time>2015-08-04T10:35:33.697Z</time>
      </trkpt>
      <trkpt lat="45.94497" lon="4.83528">
        <ele>266.299987793</ele>
        <time>2015-08-04T10:35:34.739Z</time>
      </trkpt>
      <trkpt lat="45.94492" lon="4.8352">
        <ele>266.100006104</ele>
        <time>2015-08-04T10:35:35.698Z</time>
      </trkpt>
      <trkpt lat="45.94487" lon="4.83512">
        <ele>266.100006104</ele>
        <time>2015-08-04T10:35:36.74Z</time>
      </trkpt>
      <trkpt lat="45.94483" lon="4.83504">
        <ele>266.200012207</ele>
        <time>2015-08-04T10:35:37.696Z</time>
      </trkpt>
      <trkpt lat="45.94478" lon="4.83496">
        <ele>266.600006104</ele>
        <time>2015-08-04T10:35:38.73Z</time>
      </trkpt>
      <trkpt lat="45.94474" lon="4.83489">
        <ele>267.299987793</ele>
        <time>2015-08-04T10:35:39.698Z</time>
      </trkpt>
      <trkpt lat="45.94469" lon="4.83481">
        <ele>267.600006104</ele>
        <time>2015-08-04T10:35:40.733Z</time>
      </trkpt>
      <trkpt lat="45.94464" lon="4.83473">
        <ele>267.899993896</ele>
        <time>2015-08-04T10:35:41.731Z</time>
      </trkpt>
      <trkpt lat="45.9446" lon="4.83465">
        <ele>268.200012207</ele>
        <time>2015-08-04T10:35:42.729Z</time>
      </trkpt>
      <trkpt lat="45.94456" lon="4.83457">
        <ele>268.399993896</ele>
        <time>2015-08-04T10:35:43.697Z</time>
      </trkpt>
      <trkpt lat="45.94452" lon="4.83449">
        <ele>268.799987793</ele>
        <time>2015-08-04T10:35:44.733Z</time>
      </trkpt>
      <trkpt lat="45.94448" lon="4.83441">
        <ele>269.200012207</ele>
        <time>2015-08-04T10:35:45.698Z</time>
      </trkpt>
      <trkpt lat="45.94445" lon="4.83433">
        <ele>269.299987793</ele>
        <time>2015-08-04T10:35:46.762Z</time>
      </trkpt>
      <trkpt lat="45.94442" lon="4.83425">
        <ele>269.5</ele>
        <time>2015-08-04T10:35:47.696Z</time>
      </trkpt>
      <trkpt lat="45.94438" lon="4.83417">
        <ele>269.700012207</ele>
        <time>2015-08-04T10:35:48.731Z</time>
      </trkpt>
      <trkpt lat="45.94434" lon="4.83409">
        <ele>269.799987793</ele>
        <time>2015-08-04T10:35:49.696Z</time>
      </trkpt>
      <trkpt lat="45.9443" lon="4.83401">
        <ele>270</ele>
        <time>2015-08-04T10:35:50.729Z</time>
      </trkpt>
      <trkpt lat="45.94427" lon="4.83393">
        <ele>270.100006104</ele>
        <time>2015-08-04T10:35:51.698Z</time>
      </trkpt>
      <trkpt lat="45.94423" lon="4.83385">
        <ele>270.399993896</ele>
        <time>2015-08-04T10:35:52.739Z</time>
      </trkpt>
      <trkpt lat="45.94419" lon="4.83376">
        <ele>270.600006104</ele>
        <time>2015-08-04T10:35:53.698Z</time>
      </trkpt>
      <trkpt lat="45.94415" lon="4.83367">
        <ele>270.899993896</ele>
        <time>2015-08-04T10:35:54.73Z</time>
      </trkpt>
      <trkpt lat="45.94411" lon="4.83358">
        <ele>270.899993896</ele>
        <time>2015-08-04T10:35:55.698Z</time>
      </trkpt>
      <trkpt lat="45.94408" lon="4.83349">
        <ele>271</ele>
        <time>2015-08-04T10:35:56.733Z</time>
      </trkpt>
      <trkpt lat="45.94404" lon="4.8334">
        <ele>271.200012207</ele>
        <time>2015-08-04T10:35:57.697Z</time>
      </trkpt>
      <trkpt lat="45.94401" lon="4.8333">
        <ele>271.100006104</ele>
        <time>2015-08-04T10:35:58.739Z</time>
      </trkpt>
      <trkpt lat="45.94397" lon="4.8332">
        <ele>271.100006104</ele>
        <time>2015-08-04T10:35:59.698Z</time>
      </trkpt>
      <trkpt lat="45.94393" lon="4.83311">
        <ele>271</ele>
        <time>2015-08-04T10:36:00.784Z</time>
      </trkpt>
      <trkpt lat="45.9439" lon="4.83302">
        <ele>271.100006104</ele>
        <time>2015-08-04T10:36:01.705Z</time>
      </trkpt>
      <trkpt lat="45.94386" lon="4.83293">
        <ele>271.200012207</ele>
        <time>2015-08-04T10:36:02.754Z</time>
      </trkpt>
      <trkpt lat="45.94383" lon="4.83285">
        <ele>271.399993896</ele>
        <time>2015-08-04T10:36:03.7Z</time>
      </trkpt>
      <trkpt lat="45.94379" lon="4.83276">
        <ele>270.799987793</ele>
        <time>2015-08-04T10:36:04.738Z</time>
      </trkpt>
      <trkpt lat="45.94375" lon="4.83267">
        <ele>270.5</ele>
        <time>2015-08-04T10:36:05.7Z</time>
      </trkpt>
      <trkpt lat="45.94372" lon="4.83259">
        <ele>270.700012207</ele>
        <time>2015-08-04T10:36:06.752Z</time>
      </trkpt>
      <trkpt lat="45.9437" lon="4.8325">
        <ele>270.899993896</ele>
        <time>2015-08-04T10:36:07.697Z</time>
      </trkpt>
      <trkpt lat="45.94367" lon="4.83242">
        <ele>270.899993896</ele>
        <time>2015-08-04T10:36:08.767Z</time>
      </trkpt>
      <trkpt lat="45.94364" lon="4.83233">
        <ele>270.899993896</ele>
        <time>2015-08-04T10:36:09.696Z</time>
      </trkpt>
      <trkpt lat="45.94362" lon="4.83225">
        <ele>271</ele>
        <time>2015-08-04T10:36:10.796Z</time>
      </trkpt>
      <trkpt lat="45.9436" lon="4.83216">
        <ele>271.200012207</ele>
        <time>2015-08-04T10:36:11.698Z</time>
      </trkpt>
      <trkpt lat="45.94357" lon="4.83208">
        <ele>271.299987793</ele>
        <time>2015-08-04T10:36:12.73Z</time>
      </trkpt>
      <trkpt lat="45.94354" lon="4.83199">
        <ele>271.5</ele>
        <time>2015-08-04T10:36:13.696Z</time>
      </trkpt>
      <trkpt lat="45.94351" lon="4.83191">
        <ele>271.299987793</ele>
        <time>2015-08-04T10:36:14.729Z</time>
      </trkpt>
      <trkpt lat="45.94348" lon="4.83183">
        <ele>271.700012207</ele>
        <time>2015-08-04T10:36:15.698Z</time>
      </trkpt>
      <trkpt lat="45.94345" lon="4.83175">
        <ele>271.799987793</ele>
        <time>2015-08-04T10:36:16.733Z</time>
      </trkpt>
      <trkpt lat="45.94342" lon="4.83166">
        <ele>271.899993896</ele>
        <time>2015-08-04T10:36:17.699Z</time>
      </trkpt>
      <trkpt lat="45.94339" lon="4.83158">
        <ele>272</ele>
        <time>2015-08-04T10:36:18.754Z</time>
      </trkpt>
      <trkpt lat="45.94336" lon="4.8315">
        <ele>272</ele>
        <time>2015-08-04T10:36:19.698Z</time>
      </trkpt>
      <trkpt lat="45.94333" lon="4.83142">
        <ele>272.299987793</ele>
        <time>2015-08-04T10:36:20.863Z</time>
      </trkpt>
      <trkpt lat="45.9433" lon="4.83134">
        <ele>272.600006104</ele>
        <time>2015-08-04T10:36:21.698Z</time>
      </trkpt>
      <trkpt lat="45.94328" lon="4.83126">
        <ele>272.700012207</ele>
        <time>2015-08-04T10:36:22.732Z</time>
      </trkpt>
      <trkpt lat="45.94325" lon="4.83117">
        <ele>272.799987793</ele>
        <time>2015-08-04T10:36:23.698Z</time>
      </trkpt>
      <trkpt lat="45.94323" lon="4.83109">
        <ele>272.700012207</ele>
        <time>2015-08-04T10:36:24.741Z</time>
      </trkpt>
      <trkpt lat="45.9432" lon="4.83101">
        <ele>273.100006104</ele>
        <time>2015-08-04T10:36:25.696Z</time>
      </trkpt>
      <trkpt lat="45.94318" lon="4.83092">
        <ele>273.100006104</ele>
        <time>2015-08-04T10:36:26.73Z</time>
      </trkpt>
      <trkpt lat="45.94316" lon="4.83084">
        <ele>273.200012207</ele>
        <time>2015-08-04T10:36:27.698Z</time>
      </trkpt>
      <trkpt lat="45.94314" lon="4.83076">
        <ele>273.200012207</ele>
        <time>2015-08-04T10:36:28.759Z</time>
      </trkpt>
      <trkpt lat="45.94311" lon="4.83068">
        <ele>273.200012207</ele>
        <time>2015-08-04T10:36:29.696Z</time>
      </trkpt>
      <trkpt lat="45.94309" lon="4.8306">
        <ele>273.200012207</ele>
        <time>2015-08-04T10:36:30.921Z</time>
      </trkpt>
      <trkpt lat="45.94306" lon="4.83052">
        <ele>273.200012207</ele>
        <time>2015-08-04T10:36:31.698Z</time>
      </trkpt>
      <trkpt lat="45.94305" lon="4.83045">
        <ele>273.100006104</ele>
        <time>2015-08-04T10:36:32.729Z</time>
      </trkpt>
      <trkpt lat="45.94303" lon="4.83037">
        <ele>272.899993896</ele>
        <time>2015-08-04T10:36:33.698Z</time>
      </trkpt>
      <trkpt lat="45.94301" lon="4.8303">
        <ele>272.399993896</ele>
        <time>2015-08-04T10:36:34.737Z</time>
      </trkpt>
      <trkpt lat="45.943" lon="4.83022">
        <ele>272.399993896</ele>
        <time>2015-08-04T10:36:35.697Z</time>
      </trkpt>
      <trkpt lat="45.94299" lon="4.83015">
        <ele>272.399993896</ele>
        <time>2015-08-04T10:36:36.734Z</time>
      </trkpt>
      <trkpt lat="45.94297" lon="4.83007">
        <ele>272.200012207</ele>
        <time>2015-08-04T10:36:37.698Z</time>
      </trkpt>
      <trkpt lat="45.94295" lon="4.83">
        <ele>271.899993896</ele>
        <time>2015-08-04T10:36:38.731Z</time>
      </trkpt>
      <trkpt lat="45.94293" lon="4.82993">
        <ele>271.399993896</ele>
        <time>2015-08-04T10:36:39.697Z</time>
      </trkpt>
      <trkpt lat="45.94291" lon="4.82986">
        <ele>271.600006104</ele>
        <time>2015-08-04T10:36:40.827Z</time>
      </trkpt>
      <trkpt lat="45.94288" lon="4.8298">
        <ele>271.700012207</ele>
        <time>2015-08-04T10:36:41.697Z</time>
      </trkpt>
      <trkpt lat="45.94286" lon="4.82974">
        <ele>271.799987793</ele>
        <time>2015-08-04T10:36:42.743Z</time>
      </trkpt>
      <trkpt lat="45.94285" lon="4.82968">
        <ele>271.899993896</ele>
        <time>2015-08-04T10:36:43.696Z</time>
      </trkpt>
      <trkpt lat="45.94283" lon="4.82962">
        <ele>271.799987793</ele>
        <time>2015-08-04T10:36:44.748Z</time>
      </trkpt>
      <trkpt lat="45.94283" lon="4.82955">
        <ele>271.600006104</ele>
        <time>2015-08-04T10:36:45.696Z</time>
      </trkpt>
      <trkpt lat="45.94282" lon="4.82948">
        <ele>271.299987793</ele>
        <time>2015-08-04T10:36:46.733Z</time>
      </trkpt>
      <trkpt lat="45.94283" lon="4.8294">
        <ele>270.600006104</ele>
        <time>2015-08-04T10:36:47.697Z</time>
      </trkpt>
      <trkpt lat="45.94285" lon="4.82933">
        <ele>270.100006104</ele>
        <time>2015-08-04T10:36:48.73Z</time>
      </trkpt>
      <trkpt lat="45.94286" lon="4.82925">
        <ele>269.700012207</ele>
        <time>2015-08-04T10:36:49.698Z</time>
      </trkpt>
      <trkpt lat="45.94288" lon="4.82917">
        <ele>269.700012207</ele>
        <time>2015-08-04T10:36:50.83Z</time>
      </trkpt>
      <trkpt lat="45.94289" lon="4.82908">
        <ele>269.399993896</ele>
        <time>2015-08-04T10:36:51.697Z</time>
      </trkpt>
      <trkpt lat="45.9429" lon="4.829">
        <ele>268.899993896</ele>
        <time>2015-08-04T10:36:52.732Z</time>
      </trkpt>
      <trkpt lat="45.9429" lon="4.82891">
        <ele>269.100006104</ele>
        <time>2015-08-04T10:36:53.697Z</time>
      </trkpt>
      <trkpt lat="45.94291" lon="4.82882">
        <ele>268.600006104</ele>
        <time>2015-08-04T10:36:54.731Z</time>
      </trkpt>
      <trkpt lat="45.94291" lon="4.82872">
        <ele>267.899993896</ele>
        <time>2015-08-04T10:36:55.696Z</time>
      </trkpt>
      <trkpt lat="45.94292" lon="4.82863">
        <ele>267.700012207</ele>
        <time>2015-08-04T10:36:56.733Z</time>
      </trkpt>
      <trkpt lat="45.94292" lon="4.82853">
        <ele>267.299987793</ele>
        <time>2015-08-04T10:36:57.698Z</time>
      </trkpt>
      <trkpt lat="45.94292" lon="4.82843">
        <ele>267.299987793</ele>
        <time>2015-08-04T10:36:58.74Z</time>
      </trkpt>
      <trkpt lat="45.94292" lon="4.82834">
        <ele>266.899993896</ele>
        <time>2015-08-04T10:36:59.697Z</time>
      </trkpt>
      <trkpt lat="45.94292" lon="4.82824">
        <ele>266.700012207</ele>
        <time>2015-08-04T10:37:00.731Z</time>
      </trkpt>
      <trkpt lat="45.94292" lon="4.82814">
        <ele>266.299987793</ele>
        <time>2015-08-04T10:37:01.699Z</time>
      </trkpt>
      <trkpt lat="45.94293" lon="4.82804">
        <ele>266.100006104</ele>
        <time>2015-08-04T10:37:02.73Z</time>
      </trkpt>
      <trkpt lat="45.94293" lon="4.82794">
        <ele>266.200012207</ele>
        <time>2015-08-04T10:37:03.697Z</time>
      </trkpt>
      <trkpt lat="45.94294" lon="4.82785">
        <ele>266</ele>
        <time>2015-08-04T10:37:04.734Z</time>
      </trkpt>
      <trkpt lat="45.94294" lon="4.82775">
        <ele>265.799987793</ele>
        <time>2015-08-04T10:37:05.698Z</time>
      </trkpt>
      <trkpt lat="45.94294" lon="4.82766">
        <ele>265.700012207</ele>
        <time>2015-08-04T10:37:06.732Z</time>
      </trkpt>
      <trkpt lat="45.94294" lon="4.82755">
        <ele>265.5</ele>
        <time>2015-08-04T10:37:07.698Z</time>
      </trkpt>
      <trkpt lat="45.94294" lon="4.82745">
        <ele>265.399993896</ele>
        <time>2015-08-04T10:37:08.733Z</time>
      </trkpt>
      <trkpt lat="45.94295" lon="4.82735">
        <ele>265.399993896</ele>
        <time>2015-08-04T10:37:09.698Z</time>
      </trkpt>
      <trkpt lat="45.94295" lon="4.82725">
        <ele>265.5</ele>
        <time>2015-08-04T10:37:10.791Z</time>
      </trkpt>
      <trkpt lat="45.94294" lon="4.82715">
        <ele>265.299987793</ele>
        <time>2015-08-04T10:37:11.695Z</time>
      </trkpt>
      <trkpt lat="45.94295" lon="4.82704">
        <ele>265.200012207</ele>
        <time>2015-08-04T10:37:12.736Z</time>
      </trkpt>
      <trkpt lat="45.94295" lon="4.82694">
        <ele>265.5</ele>
        <time>2015-08-04T10:37:13.698Z</time>
      </trkpt>
      <trkpt lat="45.94296" lon="4.82683">
        <ele>265.5</ele>
        <time>2015-08-04T10:37:14.732Z</time>
      </trkpt>
      <trkpt lat="45.94296" lon="4.82673">
        <ele>265.600006104</ele>
        <time>2015-08-04T10:37:15.696Z</time>
      </trkpt>
      <trkpt lat="45.94296" lon="4.82663">
        <ele>266.299987793</ele>
        <time>2015-08-04T10:37:16.736Z</time>
      </trkpt>
      <trkpt lat="45.94296" lon="4.82652">
        <ele>266.200012207</ele>
        <time>2015-08-04T10:37:17.701Z</time>
      </trkpt>
      <trkpt lat="45.94297" lon="4.82642">
        <ele>266</ele>
        <time>2015-08-04T10:37:18.735Z</time>
      </trkpt>
      <trkpt lat="45.94297" lon="4.82632">
        <ele>266</ele>
        <time>2015-08-04T10:37:19.697Z</time>
      </trkpt>
      <trkpt lat="45.94297" lon="4.82622">
        <ele>265.799987793</ele>
        <time>2015-08-04T10:37:20.733Z</time>
      </trkpt>
      <trkpt lat="45.94297" lon="4.82613">
        <ele>265.799987793</ele>
        <time>2015-08-04T10:37:21.697Z</time>
      </trkpt>
      <trkpt lat="45.94297" lon="4.82604">
        <ele>265.600006104</ele>
        <time>2015-08-04T10:37:22.738Z</time>
      </trkpt>
      <trkpt lat="45.94297" lon="4.82595">
        <ele>265.600006104</ele>
        <time>2015-08-04T10:37:23.698Z</time>
      </trkpt>
      <trkpt lat="45.94297" lon="4.82586">
        <ele>265.700012207</ele>
        <time>2015-08-04T10:37:24.731Z</time>
      </trkpt>
      <trkpt lat="45.94297" lon="4.82577">
        <ele>265.100006104</ele>
        <time>2015-08-04T10:37:25.696Z</time>
      </trkpt>
      <trkpt lat="45.94297" lon="4.82568">
        <ele>265.100006104</ele>
        <time>2015-08-04T10:37:26.746Z</time>
      </trkpt>
      <trkpt lat="45.94297" lon="4.82559">
        <ele>264.899993896</ele>
        <time>2015-08-04T10:37:27.697Z</time>
      </trkpt>
      <trkpt lat="45.94298" lon="4.8255">
        <ele>264.700012207</ele>
        <time>2015-08-04T10:37:28.756Z</time>
      </trkpt>
      <trkpt lat="45.94298" lon="4.8254">
        <ele>264.600006104</ele>
        <time>2015-08-04T10:37:29.735Z</time>
      </trkpt>
      <trkpt lat="45.94298" lon="4.8253">
        <ele>264.200012207</ele>
        <time>2015-08-04T10:37:30.731Z</time>
      </trkpt>
      <trkpt lat="45.94299" lon="4.8252">
        <ele>264.299987793</ele>
        <time>2015-08-04T10:37:31.697Z</time>
      </trkpt>
      <trkpt lat="45.94299" lon="4.82511">
        <ele>264.299987793</ele>
        <time>2015-08-04T10:37:32.73Z</time>
      </trkpt>
      <trkpt lat="45.94298" lon="4.82501">
        <ele>263.799987793</ele>
        <time>2015-08-04T10:37:33.697Z</time>
      </trkpt>
      <trkpt lat="45.94297" lon="4.82492">
        <ele>264</ele>
        <time>2015-08-04T10:37:34.78Z</time>
      </trkpt>
      <trkpt lat="45.94297" lon="4.82482">
        <ele>263.899993896</ele>
        <time>2015-08-04T10:37:35.696Z</time>
      </trkpt>
      <trkpt lat="45.94296" lon="4.82472">
        <ele>263.399993896</ele>
        <time>2015-08-04T10:37:36.736Z</time>
      </trkpt>
      <trkpt lat="45.94296" lon="4.82462">
        <ele>263.299987793</ele>
        <time>2015-08-04T10:37:37.696Z</time>
      </trkpt>
      <trkpt lat="45.94295" lon="4.82451">
        <ele>263.399993896</ele>
        <time>2015-08-04T10:37:38.731Z</time>
      </trkpt>
      <trkpt lat="45.94295" lon="4.82442">
        <ele>263.200012207</ele>
        <time>2015-08-04T10:37:39.697Z</time>
      </trkpt>
      <trkpt lat="45.94295" lon="4.82432">
        <ele>262.399993896</ele>
        <time>2015-08-04T10:37:40.733Z</time>
      </trkpt>
      <trkpt lat="45.94294" lon="4.82421">
        <ele>262.299987793</ele>
        <time>2015-08-04T10:37:41.697Z</time>
      </trkpt>
      <trkpt lat="45.94294" lon="4.82411">
        <ele>262.100006104</ele>
        <time>2015-08-04T10:37:42.729Z</time>
      </trkpt>
      <trkpt lat="45.94294" lon="4.824">
        <ele>261.899993896</ele>
        <time>2015-08-04T10:37:43.698Z</time>
      </trkpt>
      <trkpt lat="45.94294" lon="4.8239">
        <ele>262.200012207</ele>
        <time>2015-08-04T10:37:44.73Z</time>
      </trkpt>
      <trkpt lat="45.94293" lon="4.82379">
        <ele>262.200012207</ele>
        <time>2015-08-04T10:37:45.697Z</time>
      </trkpt>
      <trkpt lat="45.94292" lon="4.82369">
        <ele>262</ele>
        <time>2015-08-04T10:37:46.736Z</time>
      </trkpt>
      <trkpt lat="45.94292" lon="4.82358">
        <ele>262.200012207</ele>
        <time>2015-08-04T10:37:47.696Z</time>
      </trkpt>
      <trkpt lat="45.94292" lon="4.82347">
        <ele>262.700012207</ele>
        <time>2015-08-04T10:37:48.736Z</time>
      </trkpt>
      <trkpt lat="45.94292" lon="4.82337">
        <ele>262.899993896</ele>
        <time>2015-08-04T10:37:49.697Z</time>
      </trkpt>
      <trkpt lat="45.94291" lon="4.82326">
        <ele>262.899993896</ele>
        <time>2015-08-04T10:37:50.745Z</time>
      </trkpt>
      <trkpt lat="45.94291" lon="4.82315">
        <ele>262.600006104</ele>
        <time>2015-08-04T10:37:51.696Z</time>
      </trkpt>
      <trkpt lat="45.9429" lon="4.82305">
        <ele>262.799987793</ele>
        <time>2015-08-04T10:37:52.75Z</time>
      </trkpt>
      <trkpt lat="45.94289" lon="4.82294">
        <ele>263.200012207</ele>
        <time>2015-08-04T10:37:53.698Z</time>
      </trkpt>
      <trkpt lat="45.94288" lon="4.82284">
        <ele>263.299987793</ele>
        <time>2015-08-04T10:37:54.737Z</time>
      </trkpt>
      <trkpt lat="45.94288" lon="4.82274">
        <ele>263.399993896</ele>
        <time>2015-08-04T10:37:55.72Z</time>
      </trkpt>
      <trkpt lat="45.94288" lon="4.82264">
        <ele>263.799987793</ele>
        <time>2015-08-04T10:37:56.735Z</time>
      </trkpt>
      <trkpt lat="45.94287" lon="4.82253">
        <ele>263.799987793</ele>
        <time>2015-08-04T10:37:57.742Z</time>
      </trkpt>
      <trkpt lat="45.94287" lon="4.82243">
        <ele>263.600006104</ele>
        <time>2015-08-04T10:37:58.735Z</time>
      </trkpt>
      <trkpt lat="45.94286" lon="4.82234">
        <ele>263.899993896</ele>
        <time>2015-08-04T10:37:59.697Z</time>
      </trkpt>
      <trkpt lat="45.94285" lon="4.82223">
        <ele>263.799987793</ele>
        <time>2015-08-04T10:38:00.735Z</time>
      </trkpt>
      <trkpt lat="45.94284" lon="4.82214">
        <ele>263.899993896</ele>
        <time>2015-08-04T10:38:01.698Z</time>
      </trkpt>
      <trkpt lat="45.94283" lon="4.82203">
        <ele>264</ele>
        <time>2015-08-04T10:38:02.733Z</time>
      </trkpt>
      <trkpt lat="45.94282" lon="4.82193">
        <ele>264.399993896</ele>
        <time>2015-08-04T10:38:03.696Z</time>
      </trkpt>
      <trkpt lat="45.94279" lon="4.82183">
        <ele>264.5</ele>
        <time>2015-08-04T10:38:04.781Z</time>
      </trkpt>
      <trkpt lat="45.94277" lon="4.82172">
        <ele>264.200012207</ele>
        <time>2015-08-04T10:38:05.696Z</time>
      </trkpt>
      <trkpt lat="45.94275" lon="4.82162">
        <ele>264</ele>
        <time>2015-08-04T10:38:06.737Z</time>
      </trkpt>
      <trkpt lat="45.94273" lon="4.82152">
        <ele>264.200012207</ele>
        <time>2015-08-04T10:38:07.697Z</time>
      </trkpt>
      <trkpt lat="45.94271" lon="4.82142">
        <ele>264.700012207</ele>
        <time>2015-08-04T10:38:08.75Z</time>
      </trkpt>
      <trkpt lat="45.94269" lon="4.82132">
        <ele>264.799987793</ele>
        <time>2015-08-04T10:38:09.696Z</time>
      </trkpt>
      <trkpt lat="45.94267" lon="4.82123">
        <ele>265.100006104</ele>
        <time>2015-08-04T10:38:10.76Z</time>
      </trkpt>
      <trkpt lat="45.94265" lon="4.82113">
        <ele>265.200012207</ele>
        <time>2015-08-04T10:38:11.696Z</time>
      </trkpt>
      <trkpt lat="45.94263" lon="4.82104">
        <ele>265.200012207</ele>
        <time>2015-08-04T10:38:12.733Z</time>
      </trkpt>
      <trkpt lat="45.94261" lon="4.82094">
        <ele>264.899993896</ele>
        <time>2015-08-04T10:38:13.697Z</time>
      </trkpt>
      <trkpt lat="45.94259" lon="4.82084">
        <ele>264.799987793</ele>
        <time>2015-08-04T10:38:14.735Z</time>
      </trkpt>
      <trkpt lat="45.94257" lon="4.82074">
        <ele>265.100006104</ele>
        <time>2015-08-04T10:38:15.697Z</time>
      </trkpt>
      <trkpt lat="45.94255" lon="4.82064">
        <ele>265.5</ele>
        <time>2015-08-04T10:38:16.733Z</time>
      </trkpt>
      <trkpt lat="45.94253" lon="4.82054">
        <ele>265.600006104</ele>
        <time>2015-08-04T10:38:17.696Z</time>
      </trkpt>
      <trkpt lat="45.94251" lon="4.82044">
        <ele>265.600006104</ele>
        <time>2015-08-04T10:38:18.735Z</time>
      </trkpt>
      <trkpt lat="45.94249" lon="4.82035">
        <ele>265.700012207</ele>
        <time>2015-08-04T10:38:19.697Z</time>
      </trkpt>
      <trkpt lat="45.94247" lon="4.82025">
        <ele>265.799987793</ele>
        <time>2015-08-04T10:38:20.73Z</time>
      </trkpt>
      <trkpt lat="45.94245" lon="4.82015">
        <ele>265.600006104</ele>
        <time>2015-08-04T10:38:21.697Z</time>
      </trkpt>
      <trkpt lat="45.94243" lon="4.82005">
        <ele>265.600006104</ele>
        <time>2015-08-04T10:38:22.766Z</time>
      </trkpt>
      <trkpt lat="45.94241" lon="4.81995">
        <ele>265.600006104</ele>
        <time>2015-08-04T10:38:23.697Z</time>
      </trkpt>
      <trkpt lat="45.94239" lon="4.81985">
        <ele>265.799987793</ele>
        <time>2015-08-04T10:38:24.73Z</time>
      </trkpt>
      <trkpt lat="45.94237" lon="4.81976">
        <ele>265.700012207</ele>
        <time>2015-08-04T10:38:25.697Z</time>
      </trkpt>
      <trkpt lat="45.94234" lon="4.81966">
        <ele>265.899993896</ele>
        <time>2015-08-04T10:38:26.733Z</time>
      </trkpt>
      <trkpt lat="45.94232" lon="4.81956">
        <ele>265.799987793</ele>
        <time>2015-08-04T10:38:27.696Z</time>
      </trkpt>
      <trkpt lat="45.94231" lon="4.81947">
        <ele>266.299987793</ele>
        <time>2015-08-04T10:38:28.742Z</time>
      </trkpt>
      <trkpt lat="45.94229" lon="4.81937">
        <ele>266.399993896</ele>
        <time>2015-08-04T10:38:29.696Z</time>
      </trkpt>
      <trkpt lat="45.94227" lon="4.81928">
        <ele>266.100006104</ele>
        <time>2015-08-04T10:38:30.731Z</time>
      </trkpt>
      <trkpt lat="45.94225" lon="4.81919">
        <ele>266.200012207</ele>
        <time>2015-08-04T10:38:31.697Z</time>
      </trkpt>
      <trkpt lat="45.94223" lon="4.8191">
        <ele>266.299987793</ele>
        <time>2015-08-04T10:38:32.729Z</time>
      </trkpt>
      <trkpt lat="45.94222" lon="4.81901">
        <ele>266.299987793</ele>
        <time>2015-08-04T10:38:33.696Z</time>
      </trkpt>
      <trkpt lat="45.9422" lon="4.81892">
        <ele>266.399993896</ele>
        <time>2015-08-04T10:38:34.749Z</time>
      </trkpt>
      <trkpt lat="45.94219" lon="4.81884">
        <ele>266.600006104</ele>
        <time>2015-08-04T10:38:35.697Z</time>
      </trkpt>
      <trkpt lat="45.94217" lon="4.81875">
        <ele>266.899993896</ele>
        <time>2015-08-04T10:38:36.731Z</time>
      </trkpt>
      <trkpt lat="45.94215" lon="4.81866">
        <ele>267</ele>
        <time>2015-08-04T10:38:37.697Z</time>
      </trkpt>
      <trkpt lat="45.94212" lon="4.81857">
        <ele>267.200012207</ele>
        <time>2015-08-04T10:38:38.747Z</time>
      </trkpt>
      <trkpt lat="45.9421" lon="4.81847">
        <ele>266.899993896</ele>
        <time>2015-08-04T10:38:39.695Z</time>
      </trkpt>
      <trkpt lat="45.94208" lon="4.81838">
        <ele>266.700012207</ele>
        <time>2015-08-04T10:38:40.77Z</time>
      </trkpt>
      <trkpt lat="45.94207" lon="4.81829">
        <ele>266.200012207</ele>
        <time>2015-08-04T10:38:41.696Z</time>
      </trkpt>
      <trkpt lat="45.94206" lon="4.8182">
        <ele>266.299987793</ele>
        <time>2015-08-04T10:38:42.732Z</time>
      </trkpt>
      <trkpt lat="45.94204" lon="4.81811">
        <ele>266</ele>
        <time>2015-08-04T10:38:43.696Z</time>
      </trkpt>
      <trkpt lat="45.94204" lon="4.81801">
        <ele>265.600006104</ele>
        <time>2015-08-04T10:38:44.732Z</time>
      </trkpt>
      <trkpt lat="45.94206" lon="4.81792">
        <ele>264.899993896</ele>
        <time>2015-08-04T10:38:45.697Z</time>
      </trkpt>
      <trkpt lat="45.94208" lon="4.81783">
        <ele>264.5</ele>
        <time>2015-08-04T10:38:46.736Z</time>
      </trkpt>
      <trkpt lat="45.9421" lon="4.81776">
        <ele>264.399993896</ele>
        <time>2015-08-04T10:38:47.695Z</time>
      </trkpt>
      <trkpt lat="45.94214" lon="4.81765">
        <ele>263.5</ele>
        <time>2015-08-04T10:38:50.745Z</time>
      </trkpt>
      <trkpt lat="45.94215" lon="4.81764">
        <ele>263.100006104</ele>
        <time>2015-08-04T10:38:51.694Z</time>
      </trkpt>
      <trkpt lat="45.94221" lon="4.81758">
        <ele>262.299987793</ele>
        <time>2015-08-04T10:38:55.733Z</time>
      </trkpt>
      <trkpt lat="45.94222" lon="4.81755">
        <ele>262.200012207</ele>
        <time>2015-08-04T10:38:56.695Z</time>
      </trkpt>
      <trkpt lat="45.94225" lon="4.81747">
        <ele>261.700012207</ele>
        <time>2015-08-04T10:38:58.768Z</time>
      </trkpt>
      <trkpt lat="45.94226" lon="4.81743">
        <ele>261.700012207</ele>
        <time>2015-08-04T10:38:59.696Z</time>
      </trkpt>
      <trkpt lat="45.94227" lon="4.81732">
        <ele>261.600006104</ele>
        <time>2015-08-04T10:39:01.732Z</time>
      </trkpt>
      <trkpt lat="45.94227" lon="4.81727">
        <ele>262</ele>
        <time>2015-08-04T10:39:02.696Z</time>
      </trkpt>
      <trkpt lat="45.94225" lon="4.81717">
        <ele>262.399993896</ele>
        <time>2015-08-04T10:39:04.77Z</time>
      </trkpt>
      <trkpt lat="45.94222" lon="4.81712">
        <ele>262.700012207</ele>
        <time>2015-08-04T10:39:05.695Z</time>
      </trkpt>
      <trkpt lat="45.94216" lon="4.81706">
        <ele>262.5</ele>
        <time>2015-08-04T10:39:07.731Z</time>
      </trkpt>
      <trkpt lat="45.94211" lon="4.81704">
        <ele>262.299987793</ele>
        <time>2015-08-04T10:39:08.696Z</time>
      </trkpt>
      <trkpt lat="45.94206" lon="4.81703">
        <ele>262.299987793</ele>
        <time>2015-08-04T10:39:09.759Z</time>
      </trkpt>
      <trkpt lat="45.94202" lon="4.81701">
        <ele>262.299987793</ele>
        <time>2015-08-04T10:39:10.701Z</time>
      </trkpt>
      <trkpt lat="45.94197" lon="4.81697">
        <ele>262.299987793</ele>
        <time>2015-08-04T10:39:11.732Z</time>
      </trkpt>
      <trkpt lat="45.94192" lon="4.81691">
        <ele>262.200012207</ele>
        <time>2015-08-04T10:39:12.696Z</time>
      </trkpt>
      <trkpt lat="45.94189" lon="4.81684">
        <ele>262.399993896</ele>
        <time>2015-08-04T10:39:13.732Z</time>
      </trkpt>
      <trkpt lat="45.94185" lon="4.81675">
        <ele>262.399993896</ele>
        <time>2015-08-04T10:39:14.696Z</time>
      </trkpt>
      <trkpt lat="45.94183" lon="4.81665">
        <ele>262.399993896</ele>
        <time>2015-08-04T10:39:15.731Z</time>
      </trkpt>
      <trkpt lat="45.9418" lon="4.81655">
        <ele>262.299987793</ele>
        <time>2015-08-04T10:39:16.699Z</time>
      </trkpt>
      <trkpt lat="45.94178" lon="4.81643">
        <ele>262.299987793</ele>
        <time>2015-08-04T10:39:17.731Z</time>
      </trkpt>
      <trkpt lat="45.94175" lon="4.81632">
        <ele>262.100006104</ele>
        <time>2015-08-04T10:39:18.699Z</time>
      </trkpt>
      <trkpt lat="45.94175" lon="4.81632">
        <ele>262.100006104</ele>
        <time>2015-08-04T10:39:18.775Z</time>
      </trkpt>
      <trkpt lat="45.94173" lon="4.81619">
        <ele>261.700012207</ele>
        <time>2015-08-04T10:39:19.696Z</time>
      </trkpt>
      <trkpt lat="45.94173" lon="4.81619">
        <ele>261.700012207</ele>
        <time>2015-08-04T10:39:19.926Z</time>
      </trkpt>
      <trkpt lat="45.9417" lon="4.81606">
        <ele>261.299987793</ele>
        <time>2015-08-04T10:39:20.701Z</time>
      </trkpt>
      <trkpt lat="45.94168" lon="4.81594">
        <ele>261</ele>
        <time>2015-08-04T10:39:21.749Z</time>
      </trkpt>
      <trkpt lat="45.94165" lon="4.81582">
        <ele>260.799987793</ele>
        <time>2015-08-04T10:39:22.699Z</time>
      </trkpt>
      <trkpt lat="45.94165" lon="4.81582">
        <ele>260.799987793</ele>
        <time>2015-08-04T10:39:22.76Z</time>
      </trkpt>
      <trkpt lat="45.94163" lon="4.81569">
        <ele>260.5</ele>
        <time>2015-08-04T10:39:23.697Z</time>
      </trkpt>
      <trkpt lat="45.94163" lon="4.81569">
        <ele>260.5</ele>
        <time>2015-08-04T10:39:23.793Z</time>
      </trkpt>
      <trkpt lat="45.94161" lon="4.81555">
        <ele>260.299987793</ele>
        <time>2015-08-04T10:39:24.696Z</time>
      </trkpt>
      <trkpt lat="45.94161" lon="4.81555">
        <ele>260.299987793</ele>
        <time>2015-08-04T10:39:24.781Z</time>
      </trkpt>
      <trkpt lat="45.94159" lon="4.81542">
        <ele>260.200012207</ele>
        <time>2015-08-04T10:39:25.695Z</time>
      </trkpt>
      <trkpt lat="45.94159" lon="4.81542">
        <ele>260.200012207</ele>
        <time>2015-08-04T10:39:25.762Z</time>
      </trkpt>
      <trkpt lat="45.94156" lon="4.81529">
        <ele>260</ele>
        <time>2015-08-04T10:39:26.695Z</time>
      </trkpt>
      <trkpt lat="45.94156" lon="4.81529">
        <ele>260</ele>
        <time>2015-08-04T10:39:26.804Z</time>
      </trkpt>
      <trkpt lat="45.94155" lon="4.81515">
        <ele>259.799987793</ele>
        <time>2015-08-04T10:39:27.697Z</time>
      </trkpt>
      <trkpt lat="45.94155" lon="4.81515">
        <ele>259.799987793</ele>
        <time>2015-08-04T10:39:27.761Z</time>
      </trkpt>
      <trkpt lat="45.94155" lon="4.81501">
        <ele>259.700012207</ele>
        <time>2015-08-04T10:39:28.7Z</time>
      </trkpt>
      <trkpt lat="45.94157" lon="4.81489">
        <ele>259.600006104</ele>
        <time>2015-08-04T10:39:29.728Z</time>
      </trkpt>
      <trkpt lat="45.94157" lon="4.81474">
        <ele>259.299987793</ele>
        <time>2015-08-04T10:39:30.698Z</time>
      </trkpt>
      <trkpt lat="45.94157" lon="4.81474">
        <ele>259.299987793</ele>
        <time>2015-08-04T10:39:30.758Z</time>
      </trkpt>
      <trkpt lat="45.94158" lon="4.81459">
        <ele>259.100006104</ele>
        <time>2015-08-04T10:39:31.697Z</time>
      </trkpt>
      <trkpt lat="45.94158" lon="4.81459">
        <ele>259.100006104</ele>
        <time>2015-08-04T10:39:31.762Z</time>
      </trkpt>
      <trkpt lat="45.9416" lon="4.81444">
        <ele>259</ele>
        <time>2015-08-04T10:39:32.697Z</time>
      </trkpt>
      <trkpt lat="45.9416" lon="4.81444">
        <ele>259</ele>
        <time>2015-08-04T10:39:32.759Z</time>
      </trkpt>
      <trkpt lat="45.94162" lon="4.81429">
        <ele>258.799987793</ele>
        <time>2015-08-04T10:39:33.696Z</time>
      </trkpt>
      <trkpt lat="45.94162" lon="4.81429">
        <ele>258.799987793</ele>
        <time>2015-08-04T10:39:33.735Z</time>
      </trkpt>
      <trkpt lat="45.94163" lon="4.81414">
        <ele>258.700012207</ele>
        <time>2015-08-04T10:39:34.7Z</time>
      </trkpt>
      <trkpt lat="45.94163" lon="4.81414">
        <ele>258.700012207</ele>
        <time>2015-08-04T10:39:34.762Z</time>
      </trkpt>
      <trkpt lat="45.94166" lon="4.814">
        <ele>258.5</ele>
        <time>2015-08-04T10:39:35.696Z</time>
      </trkpt>
      <trkpt lat="45.94166" lon="4.814">
        <ele>258.5</ele>
        <time>2015-08-04T10:39:35.766Z</time>
      </trkpt>
      <trkpt lat="45.94167" lon="4.81385">
        <ele>258.299987793</ele>
        <time>2015-08-04T10:39:36.696Z</time>
      </trkpt>
      <trkpt lat="45.94167" lon="4.81385">
        <ele>258.299987793</ele>
        <time>2015-08-04T10:39:36.787Z</time>
      </trkpt>
      <trkpt lat="45.94167" lon="4.81368">
        <ele>258</ele>
        <time>2015-08-04T10:39:37.696Z</time>
      </trkpt>
      <trkpt lat="45.94167" lon="4.81368">
        <ele>258</ele>
        <time>2015-08-04T10:39:37.76Z</time>
      </trkpt>
      <trkpt lat="45.94168" lon="4.81352">
        <ele>257.700012207</ele>
        <time>2015-08-04T10:39:38.696Z</time>
      </trkpt>
      <trkpt lat="45.94168" lon="4.81352">
        <ele>257.700012207</ele>
        <time>2015-08-04T10:39:38.736Z</time>
      </trkpt>
      <trkpt lat="45.94169" lon="4.81336">
        <ele>257.5</ele>
        <time>2015-08-04T10:39:39.696Z</time>
      </trkpt>
      <trkpt lat="45.94169" lon="4.81336">
        <ele>257.5</ele>
        <time>2015-08-04T10:39:39.751Z</time>
      </trkpt>
      <trkpt lat="45.94171" lon="4.81321">
        <ele>257.399993896</ele>
        <time>2015-08-04T10:39:40.699Z</time>
      </trkpt>
      <trkpt lat="45.94171" lon="4.81321">
        <ele>257.399993896</ele>
        <time>2015-08-04T10:39:40.741Z</time>
      </trkpt>
      <trkpt lat="45.94172" lon="4.81305">
        <ele>257.299987793</ele>
        <time>2015-08-04T10:39:41.696Z</time>
      </trkpt>
      <trkpt lat="45.94172" lon="4.81305">
        <ele>257.299987793</ele>
        <time>2015-08-04T10:39:41.757Z</time>
      </trkpt>
      <trkpt lat="45.94171" lon="4.81289">
        <ele>257.100006104</ele>
        <time>2015-08-04T10:39:42.696Z</time>
      </trkpt>
      <trkpt lat="45.94171" lon="4.81289">
        <ele>257.100006104</ele>
        <time>2015-08-04T10:39:42.761Z</time>
      </trkpt>
      <trkpt lat="45.94169" lon="4.81273">
        <ele>256.899993896</ele>
        <time>2015-08-04T10:39:43.716Z</time>
      </trkpt>
      <trkpt lat="45.94169" lon="4.81273">
        <ele>256.899993896</ele>
        <time>2015-08-04T10:39:43.782Z</time>
      </trkpt>
      <trkpt lat="45.94168" lon="4.81258">
        <ele>256.799987793</ele>
        <time>2015-08-04T10:39:44.696Z</time>
      </trkpt>
      <trkpt lat="45.94168" lon="4.81258">
        <ele>256.799987793</ele>
        <time>2015-08-04T10:39:44.792Z</time>
      </trkpt>
      <trkpt lat="45.94165" lon="4.81243">
        <ele>256.899993896</ele>
        <time>2015-08-04T10:39:45.697Z</time>
      </trkpt>
      <trkpt lat="45.94165" lon="4.81243">
        <ele>256.899993896</ele>
        <time>2015-08-04T10:39:45.777Z</time>
      </trkpt>
      <trkpt lat="45.94161" lon="4.81227">
        <ele>256.799987793</ele>
        <time>2015-08-04T10:39:46.704Z</time>
      </trkpt>
      <trkpt lat="45.94161" lon="4.81227">
        <ele>256.799987793</ele>
        <time>2015-08-04T10:39:46.747Z</time>
      </trkpt>
      <trkpt lat="45.94156" lon="4.81211">
        <ele>256.799987793</ele>
        <time>2015-08-04T10:39:47.698Z</time>
      </trkpt>
      <trkpt lat="45.94156" lon="4.81211">
        <ele>256.799987793</ele>
        <time>2015-08-04T10:39:47.758Z</time>
      </trkpt>
      <trkpt lat="45.94151" lon="4.81195">
        <ele>256.700012207</ele>
        <time>2015-08-04T10:39:48.696Z</time>
      </trkpt>
      <trkpt lat="45.94151" lon="4.81195">
        <ele>256.700012207</ele>
        <time>2015-08-04T10:39:48.741Z</time>
      </trkpt>
      <trkpt lat="45.94146" lon="4.81179">
        <ele>256.5</ele>
        <time>2015-08-04T10:39:49.696Z</time>
      </trkpt>
      <trkpt lat="45.94146" lon="4.81179">
        <ele>256.5</ele>
        <time>2015-08-04T10:39:49.776Z</time>
      </trkpt>
      <trkpt lat="45.94141" lon="4.81164">
        <ele>256.399993896</ele>
        <time>2015-08-04T10:39:50.695Z</time>
      </trkpt>
      <trkpt lat="45.94141" lon="4.81164">
        <ele>256.399993896</ele>
        <time>2015-08-04T10:39:50.76Z</time>
      </trkpt>
      <trkpt lat="45.94135" lon="4.8115">
        <ele>256.100006104</ele>
        <time>2015-08-04T10:39:51.7Z</time>
      </trkpt>
      <trkpt lat="45.94135" lon="4.8115">
        <ele>256.100006104</ele>
        <time>2015-08-04T10:39:51.762Z</time>
      </trkpt>
      <trkpt lat="45.9413" lon="4.81137">
        <ele>255.699996948</ele>
        <time>2015-08-04T10:39:52.68Z</time>
      </trkpt>
      <trkpt lat="45.9413" lon="4.81137">
        <ele>255.699996948</ele>
        <time>2015-08-04T10:39:52.805Z</time>
      </trkpt>
      <trkpt lat="45.94123" lon="4.81124">
        <ele>255.300003052</ele>
        <time>2015-08-04T10:39:53.695Z</time>
      </trkpt>
      <trkpt lat="45.94123" lon="4.81124">
        <ele>255.300003052</ele>
        <time>2015-08-04T10:39:53.768Z</time>
      </trkpt>
      <trkpt lat="45.94117" lon="4.81111">
        <ele>255</ele>
        <time>2015-08-04T10:39:54.696Z</time>
      </trkpt>
      <trkpt lat="45.94117" lon="4.81111">
        <ele>255</ele>
        <time>2015-08-04T10:39:54.753Z</time>
      </trkpt>
      <trkpt lat="45.94111" lon="4.81098">
        <ele>254.699996948</ele>
        <time>2015-08-04T10:39:55.695Z</time>
      </trkpt>
      <trkpt lat="45.94111" lon="4.81098">
        <ele>254.699996948</ele>
        <time>2015-08-04T10:39:55.762Z</time>
      </trkpt>
      <trkpt lat="45.94104" lon="4.81084">
        <ele>254.399993896</ele>
        <time>2015-08-04T10:39:56.696Z</time>
      </trkpt>
      <trkpt lat="45.94104" lon="4.81084">
        <ele>254.399993896</ele>
        <time>2015-08-04T10:39:56.775Z</time>
      </trkpt>
      <trkpt lat="45.94098" lon="4.8107">
        <ele>254.100006104</ele>
        <time>2015-08-04T10:39:57.695Z</time>
      </trkpt>
      <trkpt lat="45.94098" lon="4.8107">
        <ele>254.100006104</ele>
        <time>2015-08-04T10:39:57.763Z</time>
      </trkpt>
      <trkpt lat="45.94091" lon="4.81055">
        <ele>253.5</ele>
        <time>2015-08-04T10:39:58.699Z</time>
      </trkpt>
      <trkpt lat="45.94091" lon="4.81055">
        <ele>253.5</ele>
        <time>2015-08-04T10:39:58.764Z</time>
      </trkpt>
      <trkpt lat="45.94086" lon="4.81039">
        <ele>252.899993896</ele>
        <time>2015-08-04T10:39:59.695Z</time>
      </trkpt>
      <trkpt lat="45.94086" lon="4.81039">
        <ele>252.899993896</ele>
        <time>2015-08-04T10:39:59.776Z</time>
      </trkpt>
      <trkpt lat="45.9408" lon="4.81023">
        <ele>252.300003052</ele>
        <time>2015-08-04T10:40:00.696Z</time>
      </trkpt>
      <trkpt lat="45.9408" lon="4.81023">
        <ele>252.300003052</ele>
        <time>2015-08-04T10:40:00.765Z</time>
      </trkpt>
      <trkpt lat="45.94076" lon="4.81006">
        <ele>251.899993896</ele>
        <time>2015-08-04T10:40:01.697Z</time>
      </trkpt>
      <trkpt lat="45.94076" lon="4.81006">
        <ele>251.899993896</ele>
        <time>2015-08-04T10:40:01.765Z</time>
      </trkpt>
      <trkpt lat="45.94072" lon="4.8099">
        <ele>251.600006104</ele>
        <time>2015-08-04T10:40:02.695Z</time>
      </trkpt>
      <trkpt lat="45.94072" lon="4.8099">
        <ele>251.600006104</ele>
        <time>2015-08-04T10:40:02.757Z</time>
      </trkpt>
      <trkpt lat="45.9407" lon="4.80974">
        <ele>251.100006104</ele>
        <time>2015-08-04T10:40:03.697Z</time>
      </trkpt>
      <trkpt lat="45.9407" lon="4.80974">
        <ele>251.100006104</ele>
        <time>2015-08-04T10:40:03.779Z</time>
      </trkpt>
      <trkpt lat="45.94067" lon="4.80957">
        <ele>250.600006104</ele>
        <time>2015-08-04T10:40:04.7Z</time>
      </trkpt>
      <trkpt lat="45.94067" lon="4.80957">
        <ele>250.600006104</ele>
        <time>2015-08-04T10:40:04.806Z</time>
      </trkpt>
      <trkpt lat="45.94064" lon="4.8094">
        <ele>250</ele>
        <time>2015-08-04T10:40:05.696Z</time>
      </trkpt>
      <trkpt lat="45.94064" lon="4.8094">
        <ele>250</ele>
        <time>2015-08-04T10:40:05.756Z</time>
      </trkpt>
      <trkpt lat="45.94061" lon="4.80924">
        <ele>249.5</ele>
        <time>2015-08-04T10:40:06.696Z</time>
      </trkpt>
      <trkpt lat="45.94061" lon="4.80924">
        <ele>249.5</ele>
        <time>2015-08-04T10:40:06.789Z</time>
      </trkpt>
      <trkpt lat="45.94059" lon="4.80906">
        <ele>248.899993896</ele>
        <time>2015-08-04T10:40:07.697Z</time>
      </trkpt>
      <trkpt lat="45.94059" lon="4.80906">
        <ele>248.899993896</ele>
        <time>2015-08-04T10:40:07.764Z</time>
      </trkpt>
      <trkpt lat="45.94056" lon="4.8089">
        <ele>248.399993896</ele>
        <time>2015-08-04T10:40:08.696Z</time>
      </trkpt>
      <trkpt lat="45.94056" lon="4.8089">
        <ele>248.399993896</ele>
        <time>2015-08-04T10:40:08.739Z</time>
      </trkpt>
      <trkpt lat="45.94053" lon="4.80873">
        <ele>248</ele>
        <time>2015-08-04T10:40:09.69Z</time>
      </trkpt>
      <trkpt lat="45.94053" lon="4.80873">
        <ele>248</ele>
        <time>2015-08-04T10:40:09.828Z</time>
      </trkpt>
      <trkpt lat="45.94052" lon="4.80855">
        <ele>247.600006104</ele>
        <time>2015-08-04T10:40:10.699Z</time>
      </trkpt>
      <trkpt lat="45.94052" lon="4.80855">
        <ele>247.600006104</ele>
        <time>2015-08-04T10:40:10.875Z</time>
      </trkpt>
      <trkpt lat="45.9405" lon="4.80837">
        <ele>247.199996948</ele>
        <time>2015-08-04T10:40:11.697Z</time>
      </trkpt>
      <trkpt lat="45.9405" lon="4.80837">
        <ele>247.199996948</ele>
        <time>2015-08-04T10:40:11.761Z</time>
      </trkpt>
      <trkpt lat="45.94048" lon="4.80819">
        <ele>246.5</ele>
        <time>2015-08-04T10:40:12.701Z</time>
      </trkpt>
      <trkpt lat="45.94048" lon="4.80819">
        <ele>246.5</ele>
        <time>2015-08-04T10:40:12.829Z</time>
      </trkpt>
      <trkpt lat="45.94045" lon="4.80802">
        <ele>246.100006104</ele>
        <time>2015-08-04T10:40:13.695Z</time>
      </trkpt>
      <trkpt lat="45.94045" lon="4.80802">
        <ele>246.100006104</ele>
        <time>2015-08-04T10:40:13.847Z</time>
      </trkpt>
      <trkpt lat="45.94042" lon="4.80784">
        <ele>245.600006104</ele>
        <time>2015-08-04T10:40:14.696Z</time>
      </trkpt>
      <trkpt lat="45.94042" lon="4.80784">
        <ele>245.600006104</ele>
        <time>2015-08-04T10:40:14.76Z</time>
      </trkpt>
      <trkpt lat="45.94039" lon="4.80765">
        <ele>245.300003052</ele>
        <time>2015-08-04T10:40:15.696Z</time>
      </trkpt>
      <trkpt lat="45.94039" lon="4.80765">
        <ele>245.300003052</ele>
        <time>2015-08-04T10:40:15.734Z</time>
      </trkpt>
      <trkpt lat="45.94037" lon="4.80748">
        <ele>244.899993896</ele>
        <time>2015-08-04T10:40:16.698Z</time>
      </trkpt>
      <trkpt lat="45.94037" lon="4.80748">
        <ele>244.899993896</ele>
        <time>2015-08-04T10:40:16.783Z</time>
      </trkpt>
      <trkpt lat="45.94034" lon="4.80731">
        <ele>244.600006104</ele>
        <time>2015-08-04T10:40:17.696Z</time>
      </trkpt>
      <trkpt lat="45.94034" lon="4.80731">
        <ele>244.600006104</ele>
        <time>2015-08-04T10:40:17.76Z</time>
      </trkpt>
      <trkpt lat="45.94031" lon="4.80713">
        <ele>244.300003052</ele>
        <time>2015-08-04T10:40:18.712Z</time>
      </trkpt>
      <trkpt lat="45.94031" lon="4.80713">
        <ele>244.300003052</ele>
        <time>2015-08-04T10:40:18.761Z</time>
      </trkpt>
      <trkpt lat="45.94028" lon="4.80695">
        <ele>243.800003052</ele>
        <time>2015-08-04T10:40:19.697Z</time>
      </trkpt>
      <trkpt lat="45.94028" lon="4.80695">
        <ele>243.800003052</ele>
        <time>2015-08-04T10:40:19.79Z</time>
      </trkpt>
      <trkpt lat="45.94026" lon="4.80676">
        <ele>243.100006104</ele>
        <time>2015-08-04T10:40:20.696Z</time>
      </trkpt>
      <trkpt lat="45.94026" lon="4.80676">
        <ele>243.100006104</ele>
        <time>2015-08-04T10:40:20.759Z</time>
      </trkpt>
      <trkpt lat="45.94025" lon="4.80657">
        <ele>242.399993896</ele>
        <time>2015-08-04T10:40:21.695Z</time>
      </trkpt>
      <trkpt lat="45.94025" lon="4.80657">
        <ele>242.399993896</ele>
        <time>2015-08-04T10:40:21.927Z</time>
      </trkpt>
      <trkpt lat="45.94026" lon="4.8064">
        <ele>241.199996948</ele>
        <time>2015-08-04T10:40:22.698Z</time>
      </trkpt>
      <trkpt lat="45.94026" lon="4.8064">
        <ele>241.199996948</ele>
        <time>2015-08-04T10:40:22.765Z</time>
      </trkpt>
      <trkpt lat="45.94024" lon="4.80622">
        <ele>240.600006104</ele>
        <time>2015-08-04T10:40:23.697Z</time>
      </trkpt>
      <trkpt lat="45.94024" lon="4.80622">
        <ele>240.600006104</ele>
        <time>2015-08-04T10:40:23.808Z</time>
      </trkpt>
      <trkpt lat="45.94025" lon="4.80605">
        <ele>239.600006104</ele>
        <time>2015-08-04T10:40:24.696Z</time>
      </trkpt>
      <trkpt lat="45.94025" lon="4.80605">
        <ele>239.600006104</ele>
        <time>2015-08-04T10:40:24.785Z</time>
      </trkpt>
      <trkpt lat="45.94023" lon="4.80587">
        <ele>239</ele>
        <time>2015-08-04T10:40:25.695Z</time>
      </trkpt>
      <trkpt lat="45.94023" lon="4.80587">
        <ele>239</ele>
        <time>2015-08-04T10:40:25.775Z</time>
      </trkpt>
      <trkpt lat="45.94022" lon="4.8057">
        <ele>238.399993896</ele>
        <time>2015-08-04T10:40:26.695Z</time>
      </trkpt>
      <trkpt lat="45.94022" lon="4.8057">
        <ele>238.399993896</ele>
        <time>2015-08-04T10:40:26.792Z</time>
      </trkpt>
      <trkpt lat="45.94021" lon="4.80552">
        <ele>237.600006104</ele>
        <time>2015-08-04T10:40:27.69Z</time>
      </trkpt>
      <trkpt lat="45.94021" lon="4.80552">
        <ele>237.600006104</ele>
        <time>2015-08-04T10:40:27.818Z</time>
      </trkpt>
      <trkpt lat="45.9402" lon="4.80536">
        <ele>237.100006104</ele>
        <time>2015-08-04T10:40:28.699Z</time>
      </trkpt>
      <trkpt lat="45.9402" lon="4.80536">
        <ele>237.100006104</ele>
        <time>2015-08-04T10:40:28.994Z</time>
      </trkpt>
      <trkpt lat="45.94019" lon="4.80519">
        <ele>236.300003052</ele>
        <time>2015-08-04T10:40:29.695Z</time>
      </trkpt>
      <trkpt lat="45.94019" lon="4.80519">
        <ele>236.300003052</ele>
        <time>2015-08-04T10:40:29.768Z</time>
      </trkpt>
      <trkpt lat="45.94018" lon="4.80502">
        <ele>235.800003052</ele>
        <time>2015-08-04T10:40:30.696Z</time>
      </trkpt>
      <trkpt lat="45.94018" lon="4.80502">
        <ele>235.800003052</ele>
        <time>2015-08-04T10:40:30.908Z</time>
      </trkpt>
      <trkpt lat="45.94017" lon="4.80486">
        <ele>235.300003052</ele>
        <time>2015-08-04T10:40:31.697Z</time>
      </trkpt>
      <trkpt lat="45.94017" lon="4.80486">
        <ele>235.300003052</ele>
        <time>2015-08-04T10:40:31.759Z</time>
      </trkpt>
      <trkpt lat="45.94016" lon="4.80469">
        <ele>234.699996948</ele>
        <time>2015-08-04T10:40:32.696Z</time>
      </trkpt>
      <trkpt lat="45.94016" lon="4.80469">
        <ele>234.699996948</ele>
        <time>2015-08-04T10:40:32.771Z</time>
      </trkpt>
      <trkpt lat="45.94015" lon="4.80452">
        <ele>234.199996948</ele>
        <time>2015-08-04T10:40:33.696Z</time>
      </trkpt>
      <trkpt lat="45.94015" lon="4.80452">
        <ele>234.199996948</ele>
        <time>2015-08-04T10:40:33.781Z</time>
      </trkpt>
      <trkpt lat="45.94014" lon="4.80437">
        <ele>233.600006104</ele>
        <time>2015-08-04T10:40:34.699Z</time>
      </trkpt>
      <trkpt lat="45.94014" lon="4.80437">
        <ele>233.600006104</ele>
        <time>2015-08-04T10:40:34.823Z</time>
      </trkpt>
      <trkpt lat="45.94011" lon="4.80421">
        <ele>233.100006104</ele>
        <time>2015-08-04T10:40:35.695Z</time>
      </trkpt>
      <trkpt lat="45.94011" lon="4.80421">
        <ele>233.100006104</ele>
        <time>2015-08-04T10:40:35.763Z</time>
      </trkpt>
      <trkpt lat="45.94008" lon="4.80406">
        <ele>232.5</ele>
        <time>2015-08-04T10:40:36.696Z</time>
      </trkpt>
      <trkpt lat="45.94008" lon="4.80406">
        <ele>232.5</ele>
        <time>2015-08-04T10:40:36.761Z</time>
      </trkpt>
      <trkpt lat="45.94004" lon="4.80391">
        <ele>231.899993896</ele>
        <time>2015-08-04T10:40:37.68Z</time>
      </trkpt>
      <trkpt lat="45.94004" lon="4.80391">
        <ele>231.899993896</ele>
        <time>2015-08-04T10:40:37.81Z</time>
      </trkpt>
      <trkpt lat="45.94001" lon="4.80376">
        <ele>231.199996948</ele>
        <time>2015-08-04T10:40:38.734Z</time>
      </trkpt>
      <trkpt lat="45.94001" lon="4.80376">
        <ele>231.199996948</ele>
        <time>2015-08-04T10:40:38.772Z</time>
      </trkpt>
      <trkpt lat="45.93997" lon="4.8036">
        <ele>230.300003052</ele>
        <time>2015-08-04T10:40:39.716Z</time>
      </trkpt>
      <trkpt lat="45.93997" lon="4.8036">
        <ele>230.300003052</ele>
        <time>2015-08-04T10:40:39.814Z</time>
      </trkpt>
      <trkpt lat="45.93993" lon="4.80344">
        <ele>229</ele>
        <time>2015-08-04T10:40:40.698Z</time>
      </trkpt>
      <trkpt lat="45.93993" lon="4.80344">
        <ele>229</ele>
        <time>2015-08-04T10:40:40.818Z</time>
      </trkpt>
      <trkpt lat="45.93989" lon="4.80328">
        <ele>228.300003052</ele>
        <time>2015-08-04T10:40:41.695Z</time>
      </trkpt>
      <trkpt lat="45.93989" lon="4.80328">
        <ele>228.300003052</ele>
        <time>2015-08-04T10:40:41.76Z</time>
      </trkpt>
      <trkpt lat="45.93985" lon="4.80312">
        <ele>227.300003052</ele>
        <time>2015-08-04T10:40:42.696Z</time>
      </trkpt>
      <trkpt lat="45.93985" lon="4.80312">
        <ele>227.300003052</ele>
        <time>2015-08-04T10:40:42.765Z</time>
      </trkpt>
      <trkpt lat="45.93982" lon="4.80297">
        <ele>225.399993896</ele>
        <time>2015-08-04T10:40:43.695Z</time>
      </trkpt>
      <trkpt lat="45.93982" lon="4.80297">
        <ele>225.399993896</ele>
        <time>2015-08-04T10:40:43.78Z</time>
      </trkpt>
      <trkpt lat="45.93979" lon="4.80282">
        <ele>224.399993896</ele>
        <time>2015-08-04T10:40:44.695Z</time>
      </trkpt>
      <trkpt lat="45.93979" lon="4.80282">
        <ele>224.399993896</ele>
        <time>2015-08-04T10:40:44.761Z</time>
      </trkpt>
      <trkpt lat="45.93976" lon="4.80267">
        <ele>223.5</ele>
        <time>2015-08-04T10:40:45.695Z</time>
      </trkpt>
      <trkpt lat="45.93976" lon="4.80267">
        <ele>223.5</ele>
        <time>2015-08-04T10:40:45.849Z</time>
      </trkpt>
      <trkpt lat="45.93972" lon="4.80253">
        <ele>222.600006104</ele>
        <time>2015-08-04T10:40:46.697Z</time>
      </trkpt>
      <trkpt lat="45.93972" lon="4.80253">
        <ele>222.600006104</ele>
        <time>2015-08-04T10:40:46.8Z</time>
      </trkpt>
      <trkpt lat="45.93969" lon="4.80239">
        <ele>221.899993896</ele>
        <time>2015-08-04T10:40:47.697Z</time>
      </trkpt>
      <trkpt lat="45.93969" lon="4.80239">
        <ele>221.899993896</ele>
        <time>2015-08-04T10:40:47.79Z</time>
      </trkpt>
      <trkpt lat="45.93965" lon="4.80225">
        <ele>221</ele>
        <time>2015-08-04T10:40:48.696Z</time>
      </trkpt>
      <trkpt lat="45.93965" lon="4.80225">
        <ele>221</ele>
        <time>2015-08-04T10:40:48.907Z</time>
      </trkpt>
      <trkpt lat="45.93962" lon="4.80212">
        <ele>220.199996948</ele>
        <time>2015-08-04T10:40:49.696Z</time>
      </trkpt>
      <trkpt lat="45.93962" lon="4.80212">
        <ele>220.199996948</ele>
        <time>2015-08-04T10:40:49.758Z</time>
      </trkpt>
      <trkpt lat="45.93958" lon="4.80198">
        <ele>219.399993896</ele>
        <time>2015-08-04T10:40:50.696Z</time>
      </trkpt>
      <trkpt lat="45.93958" lon="4.80198">
        <ele>219.399993896</ele>
        <time>2015-08-04T10:40:50.763Z</time>
      </trkpt>
      <trkpt lat="45.93954" lon="4.80184">
        <ele>219.199996948</ele>
        <time>2015-08-04T10:40:51.697Z</time>
      </trkpt>
      <trkpt lat="45.93954" lon="4.80184">
        <ele>219.199996948</ele>
        <time>2015-08-04T10:40:51.773Z</time>
      </trkpt>
      <trkpt lat="45.93951" lon="4.80171">
        <ele>218.5</ele>
        <time>2015-08-04T10:40:52.697Z</time>
      </trkpt>
      <trkpt lat="45.93951" lon="4.80171">
        <ele>218.5</ele>
        <time>2015-08-04T10:40:52.741Z</time>
      </trkpt>
      <trkpt lat="45.93949" lon="4.80157">
        <ele>217.800003052</ele>
        <time>2015-08-04T10:40:53.695Z</time>
      </trkpt>
      <trkpt lat="45.93949" lon="4.80157">
        <ele>217.800003052</ele>
        <time>2015-08-04T10:40:53.762Z</time>
      </trkpt>
      <trkpt lat="45.93947" lon="4.80144">
        <ele>217.199996948</ele>
        <time>2015-08-04T10:40:54.696Z</time>
      </trkpt>
      <trkpt lat="45.93947" lon="4.80144">
        <ele>217.199996948</ele>
        <time>2015-08-04T10:40:54.738Z</time>
      </trkpt>
      <trkpt lat="45.93945" lon="4.80131">
        <ele>216.600006104</ele>
        <time>2015-08-04T10:40:55.695Z</time>
      </trkpt>
      <trkpt lat="45.93945" lon="4.80131">
        <ele>216.600006104</ele>
        <time>2015-08-04T10:40:55.768Z</time>
      </trkpt>
      <trkpt lat="45.93944" lon="4.80117">
        <ele>215.5</ele>
        <time>2015-08-04T10:40:56.695Z</time>
      </trkpt>
      <trkpt lat="45.93944" lon="4.80117">
        <ele>215.5</ele>
        <time>2015-08-04T10:40:56.773Z</time>
      </trkpt>
      <trkpt lat="45.93942" lon="4.80104">
        <ele>214.699996948</ele>
        <time>2015-08-04T10:40:57.696Z</time>
      </trkpt>
      <trkpt lat="45.93942" lon="4.80104">
        <ele>214.699996948</ele>
        <time>2015-08-04T10:40:58.026Z</time>
      </trkpt>
      <trkpt lat="45.9394" lon="4.8009">
        <ele>213.800003052</ele>
        <time>2015-08-04T10:40:58.698Z</time>
      </trkpt>
      <trkpt lat="45.9394" lon="4.8009">
        <ele>213.800003052</ele>
        <time>2015-08-04T10:40:58.787Z</time>
      </trkpt>
      <trkpt lat="45.93939" lon="4.80077">
        <ele>213</ele>
        <time>2015-08-04T10:40:59.695Z</time>
      </trkpt>
      <trkpt lat="45.9394" lon="4.80064">
        <ele>212.300003052</ele>
        <time>2015-08-04T10:41:00.73Z</time>
      </trkpt>
      <trkpt lat="45.93941" lon="4.80051">
        <ele>211.600006104</ele>
        <time>2015-08-04T10:41:01.696Z</time>
      </trkpt>
      <trkpt lat="45.93941" lon="4.80039">
        <ele>211.100006104</ele>
        <time>2015-08-04T10:41:02.73Z</time>
      </trkpt>
      <trkpt lat="45.93943" lon="4.80026">
        <ele>210.800003052</ele>
        <time>2015-08-04T10:41:03.696Z</time>
      </trkpt>
      <trkpt lat="45.93945" lon="4.80015">
        <ele>210.300003052</ele>
        <time>2015-08-04T10:41:04.735Z</time>
      </trkpt>
      <trkpt lat="45.93947" lon="4.80003">
        <ele>209.600006104</ele>
        <time>2015-08-04T10:41:05.695Z</time>
      </trkpt>
      <trkpt lat="45.93948" lon="4.79991">
        <ele>208.899993896</ele>
        <time>2015-08-04T10:41:06.786Z</time>
      </trkpt>
      <trkpt lat="45.9395" lon="4.79979">
        <ele>208.199996948</ele>
        <time>2015-08-04T10:41:07.699Z</time>
      </trkpt>
      <trkpt lat="45.93952" lon="4.79968">
        <ele>207.600006104</ele>
        <time>2015-08-04T10:41:08.751Z</time>
      </trkpt>
      <trkpt lat="45.93954" lon="4.79956">
        <ele>206.699996948</ele>
        <time>2015-08-04T10:41:09.699Z</time>
      </trkpt>
      <trkpt lat="45.93955" lon="4.79944">
        <ele>206</ele>
        <time>2015-08-04T10:41:10.735Z</time>
      </trkpt>
      <trkpt lat="45.93958" lon="4.79933">
        <ele>204.600006104</ele>
        <time>2015-08-04T10:41:11.698Z</time>
      </trkpt>
      <trkpt lat="45.9396" lon="4.79922">
        <ele>204</ele>
        <time>2015-08-04T10:41:12.732Z</time>
      </trkpt>
      <trkpt lat="45.93962" lon="4.7991">
        <ele>203.699996948</ele>
        <time>2015-08-04T10:41:13.696Z</time>
      </trkpt>
      <trkpt lat="45.93963" lon="4.79898">
        <ele>203.699996948</ele>
        <time>2015-08-04T10:41:14.734Z</time>
      </trkpt>
      <trkpt lat="45.93964" lon="4.79887">
        <ele>204</ele>
        <time>2015-08-04T10:41:15.715Z</time>
      </trkpt>
      <trkpt lat="45.93966" lon="4.79875">
        <ele>204</ele>
        <time>2015-08-04T10:41:16.786Z</time>
      </trkpt>
      <trkpt lat="45.93968" lon="4.79864">
        <ele>203.899993896</ele>
        <time>2015-08-04T10:41:17.696Z</time>
      </trkpt>
      <trkpt lat="45.9397" lon="4.79854">
        <ele>203.899993896</ele>
        <time>2015-08-04T10:41:18.73Z</time>
      </trkpt>
      <trkpt lat="45.93971" lon="4.79843">
        <ele>204</ele>
        <time>2015-08-04T10:41:19.695Z</time>
      </trkpt>
      <trkpt lat="45.93972" lon="4.79832">
        <ele>204.899993896</ele>
        <time>2015-08-04T10:41:20.729Z</time>
      </trkpt>
      <trkpt lat="45.93973" lon="4.79822">
        <ele>205</ele>
        <time>2015-08-04T10:41:21.696Z</time>
      </trkpt>
      <trkpt lat="45.93976" lon="4.79813">
        <ele>205.100006104</ele>
        <time>2015-08-04T10:41:22.736Z</time>
      </trkpt>
      <trkpt lat="45.93977" lon="4.79803">
        <ele>205.100006104</ele>
        <time>2015-08-04T10:41:23.697Z</time>
      </trkpt>
      <trkpt lat="45.93977" lon="4.79792">
        <ele>205</ele>
        <time>2015-08-04T10:41:24.734Z</time>
      </trkpt>
      <trkpt lat="45.93978" lon="4.79782">
        <ele>205</ele>
        <time>2015-08-04T10:41:25.695Z</time>
      </trkpt>
      <trkpt lat="45.93978" lon="4.79773">
        <ele>205.199996948</ele>
        <time>2015-08-04T10:41:26.776Z</time>
      </trkpt>
      <trkpt lat="45.93977" lon="4.79763">
        <ele>205.399993896</ele>
        <time>2015-08-04T10:41:27.696Z</time>
      </trkpt>
      <trkpt lat="45.93976" lon="4.79753">
        <ele>205.699996948</ele>
        <time>2015-08-04T10:41:28.732Z</time>
      </trkpt>
      <trkpt lat="45.93976" lon="4.79743">
        <ele>205.5</ele>
        <time>2015-08-04T10:41:29.697Z</time>
      </trkpt>
      <trkpt lat="45.93975" lon="4.79733">
        <ele>205.100006104</ele>
        <time>2015-08-04T10:41:30.734Z</time>
      </trkpt>
      <trkpt lat="45.93974" lon="4.79723">
        <ele>204.699996948</ele>
        <time>2015-08-04T10:41:31.68Z</time>
      </trkpt>
      <trkpt lat="45.93974" lon="4.79713">
        <ele>204.899993896</ele>
        <time>2015-08-04T10:41:32.733Z</time>
      </trkpt>
      <trkpt lat="45.93973" lon="4.79703">
        <ele>204.699996948</ele>
        <time>2015-08-04T10:41:33.695Z</time>
      </trkpt>
      <trkpt lat="45.93972" lon="4.79692">
        <ele>204.699996948</ele>
        <time>2015-08-04T10:41:34.736Z</time>
      </trkpt>
      <trkpt lat="45.93971" lon="4.79682">
        <ele>204.399993896</ele>
        <time>2015-08-04T10:41:35.697Z</time>
      </trkpt>
      <trkpt lat="45.93971" lon="4.79671">
        <ele>204.5</ele>
        <time>2015-08-04T10:41:36.846Z</time>
      </trkpt>
      <trkpt lat="45.9397" lon="4.79661">
        <ele>204.699996948</ele>
        <time>2015-08-04T10:41:37.696Z</time>
      </trkpt>
      <trkpt lat="45.93969" lon="4.79651">
        <ele>204.699996948</ele>
        <time>2015-08-04T10:41:38.73Z</time>
      </trkpt>
      <trkpt lat="45.93969" lon="4.79641">
        <ele>204.699996948</ele>
        <time>2015-08-04T10:41:39.695Z</time>
      </trkpt>
      <trkpt lat="45.93968" lon="4.79632">
        <ele>204.899993896</ele>
        <time>2015-08-04T10:41:40.735Z</time>
      </trkpt>
      <trkpt lat="45.93968" lon="4.79622">
        <ele>205</ele>
        <time>2015-08-04T10:41:41.695Z</time>
      </trkpt>
      <trkpt lat="45.93968" lon="4.79613">
        <ele>205.199996948</ele>
        <time>2015-08-04T10:41:42.732Z</time>
      </trkpt>
      <trkpt lat="45.93968" lon="4.79603">
        <ele>205.5</ele>
        <time>2015-08-04T10:41:43.695Z</time>
      </trkpt>
      <trkpt lat="45.93968" lon="4.79593">
        <ele>205.899993896</ele>
        <time>2015-08-04T10:41:44.734Z</time>
      </trkpt>
      <trkpt lat="45.93964" lon="4.79583">
        <ele>206.100006104</ele>
        <time>2015-08-04T10:41:45.695Z</time>
      </trkpt>
      <trkpt lat="45.93963" lon="4.79572">
        <ele>206.199996948</ele>
        <time>2015-08-04T10:41:46.846Z</time>
      </trkpt>
      <trkpt lat="45.93961" lon="4.79562">
        <ele>206.399993896</ele>
        <time>2015-08-04T10:41:47.697Z</time>
      </trkpt>
      <trkpt lat="45.93959" lon="4.79551">
        <ele>206.300003052</ele>
        <time>2015-08-04T10:41:48.73Z</time>
      </trkpt>
      <trkpt lat="45.93958" lon="4.7954">
        <ele>206.100006104</ele>
        <time>2015-08-04T10:41:49.695Z</time>
      </trkpt>
      <trkpt lat="45.93956" lon="4.79528">
        <ele>205.899993896</ele>
        <time>2015-08-04T10:41:50.73Z</time>
      </trkpt>
      <trkpt lat="45.93955" lon="4.79516">
        <ele>205.5</ele>
        <time>2015-08-04T10:41:51.697Z</time>
      </trkpt>
      <trkpt lat="45.93955" lon="4.79504">
        <ele>205.300003052</ele>
        <time>2015-08-04T10:41:52.731Z</time>
      </trkpt>
      <trkpt lat="45.93954" lon="4.79492">
        <ele>205.199996948</ele>
        <time>2015-08-04T10:41:53.696Z</time>
      </trkpt>
      <trkpt lat="45.93954" lon="4.7948">
        <ele>205.199996948</ele>
        <time>2015-08-04T10:41:54.735Z</time>
      </trkpt>
      <trkpt lat="45.93953" lon="4.79466">
        <ele>204.800003052</ele>
        <time>2015-08-04T10:41:55.697Z</time>
      </trkpt>
      <trkpt lat="45.93952" lon="4.79453">
        <ele>204.199996948</ele>
        <time>2015-08-04T10:41:56.776Z</time>
      </trkpt>
      <trkpt lat="45.93952" lon="4.79441">
        <ele>203.699996948</ele>
        <time>2015-08-04T10:41:57.696Z</time>
      </trkpt>
      <trkpt lat="45.93952" lon="4.79428">
        <ele>203.300003052</ele>
        <time>2015-08-04T10:41:58.735Z</time>
      </trkpt>
      <trkpt lat="45.93952" lon="4.79416">
        <ele>203</ele>
        <time>2015-08-04T10:41:59.695Z</time>
      </trkpt>
      <trkpt lat="45.93953" lon="4.79404">
        <ele>202.699996948</ele>
        <time>2015-08-04T10:42:00.73Z</time>
      </trkpt>
      <trkpt lat="45.93952" lon="4.79391">
        <ele>202.300003052</ele>
        <time>2015-08-04T10:42:01.696Z</time>
      </trkpt>
      <trkpt lat="45.93952" lon="4.79378">
        <ele>202.100006104</ele>
        <time>2015-08-04T10:42:02.752Z</time>
      </trkpt>
      <trkpt lat="45.93952" lon="4.79366">
        <ele>201.800003052</ele>
        <time>2015-08-04T10:42:03.695Z</time>
      </trkpt>
      <trkpt lat="45.93952" lon="4.79353">
        <ele>201.5</ele>
        <time>2015-08-04T10:42:04.743Z</time>
      </trkpt>
      <trkpt lat="45.93951" lon="4.79341">
        <ele>201</ele>
        <time>2015-08-04T10:42:05.695Z</time>
      </trkpt>
      <trkpt lat="45.93952" lon="4.79328">
        <ele>200.699996948</ele>
        <time>2015-08-04T10:42:06.73Z</time>
      </trkpt>
      <trkpt lat="45.93953" lon="4.79316">
        <ele>200.300003052</ele>
        <time>2015-08-04T10:42:07.695Z</time>
      </trkpt>
      <trkpt lat="45.93953" lon="4.79304">
        <ele>199.899993896</ele>
        <time>2015-08-04T10:42:08.729Z</time>
      </trkpt>
      <trkpt lat="45.93954" lon="4.79292">
        <ele>199.600006104</ele>
        <time>2015-08-04T10:42:09.696Z</time>
      </trkpt>
      <trkpt lat="45.93953" lon="4.7928">
        <ele>199.5</ele>
        <time>2015-08-04T10:42:10.738Z</time>
      </trkpt>
      <trkpt lat="45.93953" lon="4.79268">
        <ele>199.399993896</ele>
        <time>2015-08-04T10:42:11.695Z</time>
      </trkpt>
      <trkpt lat="45.93953" lon="4.79257">
        <ele>199.5</ele>
        <time>2015-08-04T10:42:12.736Z</time>
      </trkpt>
      <trkpt lat="45.93953" lon="4.79245">
        <ele>199.399993896</ele>
        <time>2015-08-04T10:42:13.695Z</time>
      </trkpt>
      <trkpt lat="45.93952" lon="4.79233">
        <ele>199.199996948</ele>
        <time>2015-08-04T10:42:14.736Z</time>
      </trkpt>
      <trkpt lat="45.93951" lon="4.79222">
        <ele>198.899993896</ele>
        <time>2015-08-04T10:42:15.696Z</time>
      </trkpt>
      <trkpt lat="45.93951" lon="4.79211">
        <ele>198.699996948</ele>
        <time>2015-08-04T10:42:16.776Z</time>
      </trkpt>
      <trkpt lat="45.9395" lon="4.792">
        <ele>198.300003052</ele>
        <time>2015-08-04T10:42:17.696Z</time>
      </trkpt>
      <trkpt lat="45.9395" lon="4.79189">
        <ele>197.600006104</ele>
        <time>2015-08-04T10:42:18.762Z</time>
      </trkpt>
      <trkpt lat="45.9395" lon="4.79177">
        <ele>196.800003052</ele>
        <time>2015-08-04T10:42:19.695Z</time>
      </trkpt>
      <trkpt lat="45.9395" lon="4.79166">
        <ele>196.800003052</ele>
        <time>2015-08-04T10:42:20.73Z</time>
      </trkpt>
      <trkpt lat="45.93949" lon="4.79154">
        <ele>196.5</ele>
        <time>2015-08-04T10:42:21.697Z</time>
      </trkpt>
      <trkpt lat="45.93951" lon="4.79143">
        <ele>196</ele>
        <time>2015-08-04T10:42:22.738Z</time>
      </trkpt>
      <trkpt lat="45.9395" lon="4.79131">
        <ele>195.800003052</ele>
        <time>2015-08-04T10:42:23.696Z</time>
      </trkpt>
      <trkpt lat="45.9395" lon="4.79119">
        <ele>195.699996948</ele>
        <time>2015-08-04T10:42:24.739Z</time>
      </trkpt>
      <trkpt lat="45.9395" lon="4.79107">
        <ele>195.699996948</ele>
        <time>2015-08-04T10:42:25.716Z</time>
      </trkpt>
      <trkpt lat="45.9395" lon="4.79107">
        <ele>195.699996948</ele>
        <time>2015-08-04T10:42:25.85Z</time>
      </trkpt>
      <trkpt lat="45.93949" lon="4.79094">
        <ele>195.199996948</ele>
        <time>2015-08-04T10:42:26.695Z</time>
      </trkpt>
      <trkpt lat="45.93949" lon="4.79094">
        <ele>195.199996948</ele>
        <time>2015-08-04T10:42:26.762Z</time>
      </trkpt>
      <trkpt lat="45.93949" lon="4.79081">
        <ele>195.100006104</ele>
        <time>2015-08-04T10:42:27.695Z</time>
      </trkpt>
      <trkpt lat="45.93949" lon="4.79068">
        <ele>195.100006104</ele>
        <time>2015-08-04T10:42:28.735Z</time>
      </trkpt>
      <trkpt lat="45.9395" lon="4.79055">
        <ele>194.800003052</ele>
        <time>2015-08-04T10:42:29.696Z</time>
      </trkpt>
      <trkpt lat="45.9395" lon="4.79043">
        <ele>194.600006104</ele>
        <time>2015-08-04T10:42:30.738Z</time>
      </trkpt>
      <trkpt lat="45.93951" lon="4.79031">
        <ele>194.600006104</ele>
        <time>2015-08-04T10:42:31.696Z</time>
      </trkpt>
      <trkpt lat="45.93951" lon="4.79019">
        <ele>194.800003052</ele>
        <time>2015-08-04T10:42:32.73Z</time>
      </trkpt>
      <trkpt lat="45.93953" lon="4.79007">
        <ele>194.300003052</ele>
        <time>2015-08-04T10:42:33.69Z</time>
      </trkpt>
      <trkpt lat="45.93953" lon="4.78995">
        <ele>194.699996948</ele>
        <time>2015-08-04T10:42:34.753Z</time>
      </trkpt>
      <trkpt lat="45.93953" lon="4.78984">
        <ele>195.300003052</ele>
        <time>2015-08-04T10:42:35.695Z</time>
      </trkpt>
      <trkpt lat="45.93952" lon="4.78971">
        <ele>195.399993896</ele>
        <time>2015-08-04T10:42:36.729Z</time>
      </trkpt>
      <trkpt lat="45.9395" lon="4.7896">
        <ele>195.399993896</ele>
        <time>2015-08-04T10:42:37.689Z</time>
      </trkpt>
      <trkpt lat="45.9395" lon="4.78949">
        <ele>196.199996948</ele>
        <time>2015-08-04T10:42:38.728Z</time>
      </trkpt>
      <trkpt lat="45.93949" lon="4.78938">
        <ele>197</ele>
        <time>2015-08-04T10:42:39.696Z</time>
      </trkpt>
      <trkpt lat="45.93949" lon="4.78928">
        <ele>197.100006104</ele>
        <time>2015-08-04T10:42:40.748Z</time>
      </trkpt>
      <trkpt lat="45.93949" lon="4.78917">
        <ele>197.600006104</ele>
        <time>2015-08-04T10:42:41.695Z</time>
      </trkpt>
      <trkpt lat="45.93948" lon="4.78906">
        <ele>197.699996948</ele>
        <time>2015-08-04T10:42:42.732Z</time>
      </trkpt>
      <trkpt lat="45.93947" lon="4.78895">
        <ele>197.699996948</ele>
        <time>2015-08-04T10:42:43.696Z</time>
      </trkpt>
      <trkpt lat="45.93946" lon="4.78884">
        <ele>198</ele>
        <time>2015-08-04T10:42:44.728Z</time>
      </trkpt>
      <trkpt lat="45.93945" lon="4.78873">
        <ele>198</ele>
        <time>2015-08-04T10:42:45.696Z</time>
      </trkpt>
      <trkpt lat="45.93944" lon="4.78863">
        <ele>197.800003052</ele>
        <time>2015-08-04T10:42:46.734Z</time>
      </trkpt>
      <trkpt lat="45.93944" lon="4.78852">
        <ele>197.699996948</ele>
        <time>2015-08-04T10:42:47.695Z</time>
      </trkpt>
      <trkpt lat="45.93944" lon="4.78841">
        <ele>197.399993896</ele>
        <time>2015-08-04T10:42:48.736Z</time>
      </trkpt>
      <trkpt lat="45.93942" lon="4.7883">
        <ele>196.600006104</ele>
        <time>2015-08-04T10:42:49.696Z</time>
      </trkpt>
      <trkpt lat="45.93941" lon="4.78819">
        <ele>195.899993896</ele>
        <time>2015-08-04T10:42:50.755Z</time>
      </trkpt>
      <trkpt lat="45.9394" lon="4.78809">
        <ele>194.899993896</ele>
        <time>2015-08-04T10:42:51.695Z</time>
      </trkpt>
      <trkpt lat="45.9394" lon="4.78798">
        <ele>194.300003052</ele>
        <time>2015-08-04T10:42:52.733Z</time>
      </trkpt>
      <trkpt lat="45.9394" lon="4.78788">
        <ele>193.100006104</ele>
        <time>2015-08-04T10:42:53.694Z</time>
      </trkpt>
      <trkpt lat="45.9394" lon="4.78778">
        <ele>192.800003052</ele>
        <time>2015-08-04T10:42:54.73Z</time>
      </trkpt>
      <trkpt lat="45.9394" lon="4.78768">
        <ele>192.699996948</ele>
        <time>2015-08-04T10:42:55.696Z</time>
      </trkpt>
      <trkpt lat="45.93941" lon="4.78759">
        <ele>192.300003052</ele>
        <time>2015-08-04T10:42:56.766Z</time>
      </trkpt>
      <trkpt lat="45.9394" lon="4.7875">
        <ele>192</ele>
        <time>2015-08-04T10:42:57.716Z</time>
      </trkpt>
      <trkpt lat="45.9394" lon="4.78741">
        <ele>192.100006104</ele>
        <time>2015-08-04T10:42:58.731Z</time>
      </trkpt>
      <trkpt lat="45.9394" lon="4.78731">
        <ele>191.899993896</ele>
        <time>2015-08-04T10:42:59.696Z</time>
      </trkpt>
      <trkpt lat="45.9394" lon="4.78722">
        <ele>191.600006104</ele>
        <time>2015-08-04T10:43:00.738Z</time>
      </trkpt>
      <trkpt lat="45.93938" lon="4.78713">
        <ele>192.5</ele>
        <time>2015-08-04T10:43:01.696Z</time>
      </trkpt>
      <trkpt lat="45.93938" lon="4.78704">
        <ele>192.600006104</ele>
        <time>2015-08-04T10:43:02.728Z</time>
      </trkpt>
      <trkpt lat="45.93939" lon="4.78695">
        <ele>192.300003052</ele>
        <time>2015-08-04T10:43:03.695Z</time>
      </trkpt>
      <trkpt lat="45.9394" lon="4.78686">
        <ele>192.600006104</ele>
        <time>2015-08-04T10:43:04.732Z</time>
      </trkpt>
      <trkpt lat="45.9394" lon="4.78676">
        <ele>192.399993896</ele>
        <time>2015-08-04T10:43:05.696Z</time>
      </trkpt>
      <trkpt lat="45.9394" lon="4.78667">
        <ele>192.300003052</ele>
        <time>2015-08-04T10:43:06.732Z</time>
      </trkpt>
      <trkpt lat="45.9394" lon="4.78657">
        <ele>191.899993896</ele>
        <time>2015-08-04T10:43:07.695Z</time>
      </trkpt>
      <trkpt lat="45.9394" lon="4.78646">
        <ele>190.899993896</ele>
        <time>2015-08-04T10:43:08.733Z</time>
      </trkpt>
      <trkpt lat="45.93939" lon="4.78636">
        <ele>190.100006104</ele>
        <time>2015-08-04T10:43:09.695Z</time>
      </trkpt>
      <trkpt lat="45.93939" lon="4.78627">
        <ele>189.399993896</ele>
        <time>2015-08-04T10:43:10.735Z</time>
      </trkpt>
      <trkpt lat="45.93938" lon="4.78618">
        <ele>189</ele>
        <time>2015-08-04T10:43:11.712Z</time>
      </trkpt>
      <trkpt lat="45.93939" lon="4.7861">
        <ele>189.199996948</ele>
        <time>2015-08-04T10:43:12.908Z</time>
      </trkpt>
      <trkpt lat="45.93939" lon="4.78602">
        <ele>189.300003052</ele>
        <time>2015-08-04T10:43:13.693Z</time>
      </trkpt>
      <trkpt lat="45.93938" lon="4.78594">
        <ele>189.399993896</ele>
        <time>2015-08-04T10:43:14.735Z</time>
      </trkpt>
      <trkpt lat="45.93938" lon="4.78587">
        <ele>189.899993896</ele>
        <time>2015-08-04T10:43:15.695Z</time>
      </trkpt>
      <trkpt lat="45.93938" lon="4.7858">
        <ele>190.199996948</ele>
        <time>2015-08-04T10:43:16.731Z</time>
      </trkpt>
      <trkpt lat="45.93939" lon="4.78573">
        <ele>190.699996948</ele>
        <time>2015-08-04T10:43:17.695Z</time>
      </trkpt>
      <trkpt lat="45.93937" lon="4.7856">
        <ele>192.5</ele>
        <time>2015-08-04T10:43:19.752Z</time>
      </trkpt>
      <trkpt lat="45.93935" lon="4.78553">
        <ele>192.699996948</ele>
        <time>2015-08-04T10:43:20.696Z</time>
      </trkpt>
      <trkpt lat="45.93935" lon="4.78546">
        <ele>192.5</ele>
        <time>2015-08-04T10:43:21.732Z</time>
      </trkpt>
      <trkpt lat="45.93935" lon="4.78539">
        <ele>192.199996948</ele>
        <time>2015-08-04T10:43:22.697Z</time>
      </trkpt>
      <trkpt lat="45.93936" lon="4.78532">
        <ele>192.5</ele>
        <time>2015-08-04T10:43:23.787Z</time>
      </trkpt>
      <trkpt lat="45.93937" lon="4.78525">
        <ele>192.199996948</ele>
        <time>2015-08-04T10:43:24.696Z</time>
      </trkpt>
      <trkpt lat="45.93938" lon="4.78518">
        <ele>192.5</ele>
        <time>2015-08-04T10:43:25.764Z</time>
      </trkpt>
      <trkpt lat="45.93939" lon="4.7851">
        <ele>192.199996948</ele>
        <time>2015-08-04T10:43:26.845Z</time>
      </trkpt>
      <trkpt lat="45.93939" lon="4.78504">
        <ele>192.699996948</ele>
        <time>2015-08-04T10:43:27.728Z</time>
      </trkpt>
      <trkpt lat="45.93937" lon="4.78497">
        <ele>192.600006104</ele>
        <time>2015-08-04T10:43:28.7Z</time>
      </trkpt>
      <trkpt lat="45.93935" lon="4.78489">
        <ele>192.300003052</ele>
        <time>2015-08-04T10:43:29.728Z</time>
      </trkpt>
      <trkpt lat="45.93937" lon="4.78483">
        <ele>192.300003052</ele>
        <time>2015-08-04T10:43:30.696Z</time>
      </trkpt>
      <trkpt lat="45.93938" lon="4.78476">
        <ele>192.199996948</ele>
        <time>2015-08-04T10:43:31.731Z</time>
      </trkpt>
      <trkpt lat="45.93939" lon="4.78469">
        <ele>192</ele>
        <time>2015-08-04T10:43:32.695Z</time>
      </trkpt>
      <trkpt lat="45.9394" lon="4.78461">
        <ele>191.699996948</ele>
        <time>2015-08-04T10:43:33.787Z</time>
      </trkpt>
      <trkpt lat="45.9394" lon="4.78454">
        <ele>191.300003052</ele>
        <time>2015-08-04T10:43:34.698Z</time>
      </trkpt>
      <trkpt lat="45.93941" lon="4.78446">
        <ele>191.100006104</ele>
        <time>2015-08-04T10:43:35.728Z</time>
      </trkpt>
      <trkpt lat="45.93943" lon="4.78438">
        <ele>190.800003052</ele>
        <time>2015-08-04T10:43:36.698Z</time>
      </trkpt>
      <trkpt lat="45.93944" lon="4.78431">
        <ele>190.699996948</ele>
        <time>2015-08-04T10:43:37.747Z</time>
      </trkpt>
      <trkpt lat="45.93944" lon="4.78422">
        <ele>190.800003052</ele>
        <time>2015-08-04T10:43:38.696Z</time>
      </trkpt>
      <trkpt lat="45.93945" lon="4.78415">
        <ele>191.199996948</ele>
        <time>2015-08-04T10:43:39.734Z</time>
      </trkpt>
      <trkpt lat="45.93946" lon="4.78407">
        <ele>191.800003052</ele>
        <time>2015-08-04T10:43:40.7Z</time>
      </trkpt>
      <trkpt lat="45.93949" lon="4.784">
        <ele>192.300003052</ele>
        <time>2015-08-04T10:43:41.733Z</time>
      </trkpt>
      <trkpt lat="45.9395" lon="4.78392">
        <ele>191.899993896</ele>
        <time>2015-08-04T10:43:42.696Z</time>
      </trkpt>
      <trkpt lat="45.93952" lon="4.78384">
        <ele>191.800003052</ele>
        <time>2015-08-04T10:43:43.766Z</time>
      </trkpt>
      <trkpt lat="45.93953" lon="4.78376">
        <ele>191.5</ele>
        <time>2015-08-04T10:43:44.696Z</time>
      </trkpt>
      <trkpt lat="45.93956" lon="4.78368">
        <ele>191.699996948</ele>
        <time>2015-08-04T10:43:45.732Z</time>
      </trkpt>
      <trkpt lat="45.93958" lon="4.7836">
        <ele>191.800003052</ele>
        <time>2015-08-04T10:43:46.698Z</time>
      </trkpt>
      <trkpt lat="45.93961" lon="4.78352">
        <ele>191.699996948</ele>
        <time>2015-08-04T10:43:47.729Z</time>
      </trkpt>
      <trkpt lat="45.93963" lon="4.78345">
        <ele>191.899993896</ele>
        <time>2015-08-04T10:43:48.696Z</time>
      </trkpt>
      <trkpt lat="45.93964" lon="4.78337">
        <ele>191.899993896</ele>
        <time>2015-08-04T10:43:49.728Z</time>
      </trkpt>
      <trkpt lat="45.93965" lon="4.7833">
        <ele>192.800003052</ele>
        <time>2015-08-04T10:43:50.695Z</time>
      </trkpt>
      <trkpt lat="45.93967" lon="4.78323">
        <ele>192.699996948</ele>
        <time>2015-08-04T10:43:51.733Z</time>
      </trkpt>
      <trkpt lat="45.93968" lon="4.78316">
        <ele>192.699996948</ele>
        <time>2015-08-04T10:43:52.716Z</time>
      </trkpt>
      <trkpt lat="45.93969" lon="4.78309">
        <ele>193</ele>
        <time>2015-08-04T10:43:53.777Z</time>
      </trkpt>
      <trkpt lat="45.93969" lon="4.78302">
        <ele>193.699996948</ele>
        <time>2015-08-04T10:43:54.696Z</time>
      </trkpt>
      <trkpt lat="45.9397" lon="4.78294">
        <ele>193.899993896</ele>
        <time>2015-08-04T10:43:55.733Z</time>
      </trkpt>
      <trkpt lat="45.93971" lon="4.78287">
        <ele>194</ele>
        <time>2015-08-04T10:43:56.695Z</time>
      </trkpt>
      <trkpt lat="45.93971" lon="4.7828">
        <ele>194.100006104</ele>
        <time>2015-08-04T10:43:57.728Z</time>
      </trkpt>
      <trkpt lat="45.93972" lon="4.78273">
        <ele>194.399993896</ele>
        <time>2015-08-04T10:43:58.713Z</time>
      </trkpt>
      <trkpt lat="45.93972" lon="4.78265">
        <ele>194.699996948</ele>
        <time>2015-08-04T10:43:59.76Z</time>
      </trkpt>
      <trkpt lat="45.93974" lon="4.78258">
        <ele>195.100006104</ele>
        <time>2015-08-04T10:44:00.696Z</time>
      </trkpt>
      <trkpt lat="45.93972" lon="4.7825">
        <ele>195.699996948</ele>
        <time>2015-08-04T10:44:01.735Z</time>
      </trkpt>
      <trkpt lat="45.93973" lon="4.78243">
        <ele>196.199996948</ele>
        <time>2015-08-04T10:44:02.696Z</time>
      </trkpt>
      <trkpt lat="45.93974" lon="4.78236">
        <ele>196.899993896</ele>
        <time>2015-08-04T10:44:03.745Z</time>
      </trkpt>
      <trkpt lat="45.93974" lon="4.78229">
        <ele>197.199996948</ele>
        <time>2015-08-04T10:44:04.7Z</time>
      </trkpt>
      <trkpt lat="45.93974" lon="4.78222">
        <ele>197.699996948</ele>
        <time>2015-08-04T10:44:05.728Z</time>
      </trkpt>
      <trkpt lat="45.93974" lon="4.78214">
        <ele>197.800003052</ele>
        <time>2015-08-04T10:44:06.701Z</time>
      </trkpt>
      <trkpt lat="45.93973" lon="4.78207">
        <ele>198.300003052</ele>
        <time>2015-08-04T10:44:07.733Z</time>
      </trkpt>
      <trkpt lat="45.93974" lon="4.78201">
        <ele>199.199996948</ele>
        <time>2015-08-04T10:44:08.695Z</time>
      </trkpt>
      <trkpt lat="45.93976" lon="4.78189">
        <ele>200.300003052</ele>
        <time>2015-08-04T10:44:10.731Z</time>
      </trkpt>
      <trkpt lat="45.93976" lon="4.78183">
        <ele>200.5</ele>
        <time>2015-08-04T10:44:11.694Z</time>
      </trkpt>
      <trkpt lat="45.93977" lon="4.78172">
        <ele>200.300003052</ele>
        <time>2015-08-04T10:44:13.762Z</time>
      </trkpt>
      <trkpt lat="45.93979" lon="4.78167">
        <ele>200.699996948</ele>
        <time>2015-08-04T10:44:14.695Z</time>
      </trkpt>
      <trkpt lat="45.93983" lon="4.78158">
        <ele>201.600006104</ele>
        <time>2015-08-04T10:44:16.734Z</time>
      </trkpt>
      <trkpt lat="45.93993" lon="4.78158">
        <ele>201.699996948</ele>
        <time>2015-08-04T10:44:17.695Z</time>
      </trkpt>
      <trkpt lat="45.93993" lon="4.78147">
        <ele>202.5</ele>
        <time>2015-08-04T10:44:19.749Z</time>
      </trkpt>
      <trkpt lat="45.93995" lon="4.7814">
        <ele>203.300003052</ele>
        <time>2015-08-04T10:44:20.696Z</time>
      </trkpt>
      <trkpt lat="45.93997" lon="4.78134">
        <ele>203.899993896</ele>
        <time>2015-08-04T10:44:21.734Z</time>
      </trkpt>
      <trkpt lat="45.93999" lon="4.78127">
        <ele>204</ele>
        <time>2015-08-04T10:44:22.698Z</time>
      </trkpt>
      <trkpt lat="45.94" lon="4.78119">
        <ele>204</ele>
        <time>2015-08-04T10:44:23.728Z</time>
      </trkpt>
      <trkpt lat="45.94002" lon="4.78112">
        <ele>204.199996948</ele>
        <time>2015-08-04T10:44:24.696Z</time>
      </trkpt>
      <trkpt lat="45.94004" lon="4.78105">
        <ele>204.5</ele>
        <time>2015-08-04T10:44:25.729Z</time>
      </trkpt>
      <trkpt lat="45.94006" lon="4.78098">
        <ele>204.699996948</ele>
        <time>2015-08-04T10:44:26.695Z</time>
      </trkpt>
      <trkpt lat="45.94006" lon="4.7809">
        <ele>204.399993896</ele>
        <time>2015-08-04T10:44:27.732Z</time>
      </trkpt>
      <trkpt lat="45.94007" lon="4.78083">
        <ele>204.199996948</ele>
        <time>2015-08-04T10:44:28.699Z</time>
      </trkpt>
      <trkpt lat="45.94009" lon="4.78074">
        <ele>204</ele>
        <time>2015-08-04T10:44:29.749Z</time>
      </trkpt>
      <trkpt lat="45.9401" lon="4.78068">
        <ele>203.5</ele>
        <time>2015-08-04T10:44:30.696Z</time>
      </trkpt>
      <trkpt lat="45.94011" lon="4.7806">
        <ele>203.100006104</ele>
        <time>2015-08-04T10:44:31.73Z</time>
      </trkpt>
      <trkpt lat="45.94012" lon="4.78053">
        <ele>203.199996948</ele>
        <time>2015-08-04T10:44:32.699Z</time>
      </trkpt>
      <trkpt lat="45.94013" lon="4.78047">
        <ele>203.399993896</ele>
        <time>2015-08-04T10:44:33.736Z</time>
      </trkpt>
      <trkpt lat="45.94015" lon="4.7804">
        <ele>203.399993896</ele>
        <time>2015-08-04T10:44:34.7Z</time>
      </trkpt>
      <trkpt lat="45.94016" lon="4.78034">
        <ele>203.5</ele>
        <time>2015-08-04T10:44:35.728Z</time>
      </trkpt>
      <trkpt lat="45.94018" lon="4.78027">
        <ele>203.5</ele>
        <time>2015-08-04T10:44:36.735Z</time>
      </trkpt>
      <trkpt lat="45.94019" lon="4.78019">
        <ele>203.5</ele>
        <time>2015-08-04T10:44:37.733Z</time>
      </trkpt>
      <trkpt lat="45.9402" lon="4.78011">
        <ele>203.399993896</ele>
        <time>2015-08-04T10:44:38.694Z</time>
      </trkpt>
      <trkpt lat="45.94021" lon="4.78003">
        <ele>203.199996948</ele>
        <time>2015-08-04T10:44:39.735Z</time>
      </trkpt>
      <trkpt lat="45.94023" lon="4.77995">
        <ele>203.199996948</ele>
        <time>2015-08-04T10:44:40.699Z</time>
      </trkpt>
      <trkpt lat="45.94024" lon="4.77987">
        <ele>202.699996948</ele>
        <time>2015-08-04T10:44:41.754Z</time>
      </trkpt>
      <trkpt lat="45.94025" lon="4.77979">
        <ele>202.399993896</ele>
        <time>2015-08-04T10:44:42.696Z</time>
      </trkpt>
      <trkpt lat="45.94026" lon="4.77971">
        <ele>202.199996948</ele>
        <time>2015-08-04T10:44:43.731Z</time>
      </trkpt>
      <trkpt lat="45.94027" lon="4.77962">
        <ele>201.699996948</ele>
        <time>2015-08-04T10:44:44.696Z</time>
      </trkpt>
      <trkpt lat="45.94028" lon="4.77954">
        <ele>201.300003052</ele>
        <time>2015-08-04T10:44:45.747Z</time>
      </trkpt>
      <trkpt lat="45.94029" lon="4.77945">
        <ele>201.199996948</ele>
        <time>2015-08-04T10:44:46.697Z</time>
      </trkpt>
      <trkpt lat="45.9403" lon="4.77937">
        <ele>201.300003052</ele>
        <time>2015-08-04T10:44:47.73Z</time>
      </trkpt>
      <trkpt lat="45.94031" lon="4.7793">
        <ele>201.199996948</ele>
        <time>2015-08-04T10:44:48.695Z</time>
      </trkpt>
      <trkpt lat="45.94027" lon="4.77927">
        <ele>201.5</ele>
        <time>2015-08-04T10:44:49.752Z</time>
      </trkpt>
      <trkpt lat="45.94022" lon="4.77925">
        <ele>200.800003052</ele>
        <time>2015-08-04T10:44:50.696Z</time>
      </trkpt>
      <trkpt lat="45.94014" lon="4.77923">
        <ele>200.399993896</ele>
        <time>2015-08-04T10:44:51.739Z</time>
      </trkpt>
      <trkpt lat="45.94008" lon="4.77924">
        <ele>199.699996948</ele>
        <time>2015-08-04T10:44:52.698Z</time>
      </trkpt>
      <trkpt lat="45.94001" lon="4.77926">
        <ele>199.399993896</ele>
        <time>2015-08-04T10:44:53.732Z</time>
      </trkpt>
      <trkpt lat="45.93994" lon="4.7793">
        <ele>199.199996948</ele>
        <time>2015-08-04T10:44:54.696Z</time>
      </trkpt>
      <trkpt lat="45.93986" lon="4.77936">
        <ele>198.699996948</ele>
        <time>2015-08-04T10:44:55.773Z</time>
      </trkpt>
      <trkpt lat="45.93978" lon="4.77939">
        <ele>198.300003052</ele>
        <time>2015-08-04T10:44:56.694Z</time>
      </trkpt>
      <trkpt lat="45.93978" lon="4.77939">
        <ele>198.300003052</ele>
        <time>2015-08-04T10:44:56.839Z</time>
      </trkpt>
      <trkpt lat="45.9397" lon="4.77945">
        <ele>198</ele>
        <time>2015-08-04T10:44:57.695Z</time>
      </trkpt>
      <trkpt lat="45.93962" lon="4.77951">
        <ele>197.699996948</ele>
        <time>2015-08-04T10:44:58.732Z</time>
      </trkpt>
      <trkpt lat="45.93954" lon="4.77957">
        <ele>197.5</ele>
        <time>2015-08-04T10:44:59.695Z</time>
      </trkpt>
      <trkpt lat="45.93954" lon="4.77957">
        <ele>197.5</ele>
        <time>2015-08-04T10:44:59.781Z</time>
      </trkpt>
      <trkpt lat="45.93946" lon="4.77963">
        <ele>197.199996948</ele>
        <time>2015-08-04T10:45:00.696Z</time>
      </trkpt>
      <trkpt lat="45.93946" lon="4.77963">
        <ele>197.199996948</ele>
        <time>2015-08-04T10:45:00.799Z</time>
      </trkpt>
      <trkpt lat="45.93938" lon="4.77968">
        <ele>197</ele>
        <time>2015-08-04T10:45:01.713Z</time>
      </trkpt>
      <trkpt lat="45.93938" lon="4.77968">
        <ele>197</ele>
        <time>2015-08-04T10:45:01.786Z</time>
      </trkpt>
      <trkpt lat="45.93929" lon="4.77973">
        <ele>196.5</ele>
        <time>2015-08-04T10:45:02.694Z</time>
      </trkpt>
      <trkpt lat="45.93929" lon="4.77973">
        <ele>196.5</ele>
        <time>2015-08-04T10:45:02.756Z</time>
      </trkpt>
      <trkpt lat="45.93918" lon="4.77979">
        <ele>195.800003052</ele>
        <time>2015-08-04T10:45:03.692Z</time>
      </trkpt>
      <trkpt lat="45.93918" lon="4.77979">
        <ele>195.800003052</ele>
        <time>2015-08-04T10:45:03.764Z</time>
      </trkpt>
      <trkpt lat="45.9391" lon="4.77985">
        <ele>195.199996948</ele>
        <time>2015-08-04T10:45:04.697Z</time>
      </trkpt>
      <trkpt lat="45.93903" lon="4.7799">
        <ele>194.800003052</ele>
        <time>2015-08-04T10:45:05.73Z</time>
      </trkpt>
      <trkpt lat="45.93896" lon="4.77998">
        <ele>195</ele>
        <time>2015-08-04T10:45:06.696Z</time>
      </trkpt>
      <trkpt lat="45.9389" lon="4.78004">
        <ele>194.5</ele>
        <time>2015-08-04T10:45:07.752Z</time>
      </trkpt>
      <trkpt lat="45.93884" lon="4.7801">
        <ele>193.899993896</ele>
        <time>2015-08-04T10:45:08.696Z</time>
      </trkpt>
      <trkpt lat="45.93879" lon="4.78013">
        <ele>193.199996948</ele>
        <time>2015-08-04T10:45:09.735Z</time>
      </trkpt>
      <trkpt lat="45.93874" lon="4.78014">
        <ele>192.800003052</ele>
        <time>2015-08-04T10:45:10.699Z</time>
      </trkpt>
      <trkpt lat="45.93869" lon="4.78013">
        <ele>192.399993896</ele>
        <time>2015-08-04T10:45:11.766Z</time>
      </trkpt>
      <trkpt lat="45.93865" lon="4.78007">
        <ele>192</ele>
        <time>2015-08-04T10:45:12.696Z</time>
      </trkpt>
      <trkpt lat="45.9386" lon="4.78001">
        <ele>191.699996948</ele>
        <time>2015-08-04T10:45:13.73Z</time>
      </trkpt>
      <trkpt lat="45.93855" lon="4.77996">
        <ele>191.399993896</ele>
        <time>2015-08-04T10:45:14.694Z</time>
      </trkpt>
      <trkpt lat="45.93848" lon="4.77992">
        <ele>190.699996948</ele>
        <time>2015-08-04T10:45:15.73Z</time>
      </trkpt>
      <trkpt lat="45.93843" lon="4.77988">
        <ele>190.100006104</ele>
        <time>2015-08-04T10:45:16.698Z</time>
      </trkpt>
      <trkpt lat="45.93839" lon="4.77983">
        <ele>189.5</ele>
        <time>2015-08-04T10:45:17.755Z</time>
      </trkpt>
      <trkpt lat="45.93835" lon="4.77977">
        <ele>188.800003052</ele>
        <time>2015-08-04T10:45:18.696Z</time>
      </trkpt>
      <trkpt lat="45.93831" lon="4.7797">
        <ele>188.699996948</ele>
        <time>2015-08-04T10:45:19.727Z</time>
      </trkpt>
      <trkpt lat="45.93826" lon="4.77964">
        <ele>188.199996948</ele>
        <time>2015-08-04T10:45:20.696Z</time>
      </trkpt>
      <trkpt lat="45.93822" lon="4.77959">
        <ele>188.199996948</ele>
        <time>2015-08-04T10:45:21.73Z</time>
      </trkpt>
      <trkpt lat="45.93817" lon="4.77953">
        <ele>188</ele>
        <time>2015-08-04T10:45:22.699Z</time>
      </trkpt>
      <trkpt lat="45.93812" lon="4.77948">
        <ele>187.5</ele>
        <time>2015-08-04T10:45:23.728Z</time>
      </trkpt>
      <trkpt lat="45.93807" lon="4.77943">
        <ele>187.199996948</ele>
        <time>2015-08-04T10:45:24.696Z</time>
      </trkpt>
      <trkpt lat="45.93803" lon="4.77938">
        <ele>187.199996948</ele>
        <time>2015-08-04T10:45:25.725Z</time>
      </trkpt>
      <trkpt lat="45.93799" lon="4.77933">
        <ele>187.100006104</ele>
        <time>2015-08-04T10:45:26.696Z</time>
      </trkpt>
      <trkpt lat="45.93795" lon="4.77928">
        <ele>186.899993896</ele>
        <time>2015-08-04T10:45:27.728Z</time>
      </trkpt>
      <trkpt lat="45.93791" lon="4.77922">
        <ele>187</ele>
        <time>2015-08-04T10:45:28.699Z</time>
      </trkpt>
      <trkpt lat="45.93786" lon="4.77917">
        <ele>186.5</ele>
        <time>2015-08-04T10:45:29.79Z</time>
      </trkpt>
      <trkpt lat="45.93781" lon="4.77912">
        <ele>186.899993896</ele>
        <time>2015-08-04T10:45:30.696Z</time>
      </trkpt>
      <trkpt lat="45.93777" lon="4.77906">
        <ele>187</ele>
        <time>2015-08-04T10:45:31.728Z</time>
      </trkpt>
      <trkpt lat="45.93773" lon="4.77901">
        <ele>186.699996948</ele>
        <time>2015-08-04T10:45:32.695Z</time>
      </trkpt>
      <trkpt lat="45.93768" lon="4.77895">
        <ele>186.600006104</ele>
        <time>2015-08-04T10:45:33.73Z</time>
      </trkpt>
      <trkpt lat="45.93764" lon="4.77889">
        <ele>186.699996948</ele>
        <time>2015-08-04T10:45:34.7Z</time>
      </trkpt>
      <trkpt lat="45.9376" lon="4.77883">
        <ele>186.699996948</ele>
        <time>2015-08-04T10:45:35.729Z</time>
      </trkpt>
      <trkpt lat="45.93756" lon="4.77877">
        <ele>186.5</ele>
        <time>2015-08-04T10:45:36.696Z</time>
      </trkpt>
      <trkpt lat="45.93751" lon="4.77871">
        <ele>186.800003052</ele>
        <time>2015-08-04T10:45:37.728Z</time>
      </trkpt>
      <trkpt lat="45.93746" lon="4.77864">
        <ele>186.699996948</ele>
        <time>2015-08-04T10:45:38.71Z</time>
      </trkpt>
      <trkpt lat="45.93742" lon="4.77858">
        <ele>186.399993896</ele>
        <time>2015-08-04T10:45:39.744Z</time>
      </trkpt>
      <trkpt lat="45.93738" lon="4.77852">
        <ele>186.5</ele>
        <time>2015-08-04T10:45:40.699Z</time>
      </trkpt>
      <trkpt lat="45.93733" lon="4.77845">
        <ele>186</ele>
        <time>2015-08-04T10:45:41.729Z</time>
      </trkpt>
      <trkpt lat="45.93728" lon="4.77839">
        <ele>185.699996948</ele>
        <time>2015-08-04T10:45:42.696Z</time>
      </trkpt>
      <trkpt lat="45.93723" lon="4.77833">
        <ele>185.300003052</ele>
        <time>2015-08-04T10:45:43.73Z</time>
      </trkpt>
      <trkpt lat="45.93718" lon="4.77827">
        <ele>185.600006104</ele>
        <time>2015-08-04T10:45:44.696Z</time>
      </trkpt>
      <trkpt lat="45.93713" lon="4.77821">
        <ele>185.399993896</ele>
        <time>2015-08-04T10:45:45.726Z</time>
      </trkpt>
      <trkpt lat="45.93708" lon="4.77814">
        <ele>185.699996948</ele>
        <time>2015-08-04T10:45:46.697Z</time>
      </trkpt>
      <trkpt lat="45.93704" lon="4.77807">
        <ele>185.699996948</ele>
        <time>2015-08-04T10:45:47.727Z</time>
      </trkpt>
      <trkpt lat="45.937" lon="4.778">
        <ele>185.600006104</ele>
        <time>2015-08-04T10:45:48.696Z</time>
      </trkpt>
      <trkpt lat="45.93695" lon="4.77793">
        <ele>185.199996948</ele>
        <time>2015-08-04T10:45:49.783Z</time>
      </trkpt>
      <trkpt lat="45.9369" lon="4.77785">
        <ele>185.199996948</ele>
        <time>2015-08-04T10:45:50.696Z</time>
      </trkpt>
      <trkpt lat="45.93686" lon="4.77778">
        <ele>184.600006104</ele>
        <time>2015-08-04T10:45:51.73Z</time>
      </trkpt>
      <trkpt lat="45.93681" lon="4.7777">
        <ele>184</ele>
        <time>2015-08-04T10:45:52.699Z</time>
      </trkpt>
      <trkpt lat="45.93675" lon="4.77762">
        <ele>183.699996948</ele>
        <time>2015-08-04T10:45:53.731Z</time>
      </trkpt>
      <trkpt lat="45.9367" lon="4.77754">
        <ele>183.399993896</ele>
        <time>2015-08-04T10:45:54.695Z</time>
      </trkpt>
      <trkpt lat="45.93665" lon="4.77746">
        <ele>183.100006104</ele>
        <time>2015-08-04T10:45:55.729Z</time>
      </trkpt>
      <trkpt lat="45.93659" lon="4.77737">
        <ele>182.800003052</ele>
        <time>2015-08-04T10:45:56.696Z</time>
      </trkpt>
      <trkpt lat="45.93653" lon="4.77727">
        <ele>182.399993896</ele>
        <time>2015-08-04T10:45:57.727Z</time>
      </trkpt>
      <trkpt lat="45.93647" lon="4.77718">
        <ele>181.600006104</ele>
        <time>2015-08-04T10:45:58.699Z</time>
      </trkpt>
      <trkpt lat="45.93642" lon="4.77708">
        <ele>180.899993896</ele>
        <time>2015-08-04T10:45:59.748Z</time>
      </trkpt>
      <trkpt lat="45.93636" lon="4.77698">
        <ele>180.600006104</ele>
        <time>2015-08-04T10:46:00.696Z</time>
      </trkpt>
      <trkpt lat="45.93632" lon="4.77687">
        <ele>180.399993896</ele>
        <time>2015-08-04T10:46:01.757Z</time>
      </trkpt>
      <trkpt lat="45.93627" lon="4.77677">
        <ele>180</ele>
        <time>2015-08-04T10:46:02.739Z</time>
      </trkpt>
      <trkpt lat="45.93622" lon="4.77667">
        <ele>179.600006104</ele>
        <time>2015-08-04T10:46:03.731Z</time>
      </trkpt>
      <trkpt lat="45.93617" lon="4.77656">
        <ele>179.600006104</ele>
        <time>2015-08-04T10:46:04.766Z</time>
      </trkpt>
      <trkpt lat="45.93613" lon="4.77646">
        <ele>179.199996948</ele>
        <time>2015-08-04T10:46:05.725Z</time>
      </trkpt>
      <trkpt lat="45.93608" lon="4.77636">
        <ele>178.800003052</ele>
        <time>2015-08-04T10:46:06.696Z</time>
      </trkpt>
      <trkpt lat="45.93604" lon="4.77625">
        <ele>178.399993896</ele>
        <time>2015-08-04T10:46:07.728Z</time>
      </trkpt>
      <trkpt lat="45.936" lon="4.77615">
        <ele>178.100006104</ele>
        <time>2015-08-04T10:46:08.695Z</time>
      </trkpt>
      <trkpt lat="45.93596" lon="4.77604">
        <ele>177.800003052</ele>
        <time>2015-08-04T10:46:09.745Z</time>
      </trkpt>
      <trkpt lat="45.93593" lon="4.77595">
        <ele>177.600006104</ele>
        <time>2015-08-04T10:46:10.699Z</time>
      </trkpt>
      <trkpt lat="45.9359" lon="4.77585">
        <ele>177.399993896</ele>
        <time>2015-08-04T10:46:11.731Z</time>
      </trkpt>
      <trkpt lat="45.93587" lon="4.77574">
        <ele>177.100006104</ele>
        <time>2015-08-04T10:46:12.698Z</time>
      </trkpt>
      <trkpt lat="45.93584" lon="4.77564">
        <ele>176.899993896</ele>
        <time>2015-08-04T10:46:13.736Z</time>
      </trkpt>
      <trkpt lat="45.9358" lon="4.77553">
        <ele>176.899993896</ele>
        <time>2015-08-04T10:46:14.741Z</time>
      </trkpt>
      <trkpt lat="45.93578" lon="4.77543">
        <ele>176.699996948</ele>
        <time>2015-08-04T10:46:15.75Z</time>
      </trkpt>
      <trkpt lat="45.93576" lon="4.77532">
        <ele>176.600006104</ele>
        <time>2015-08-04T10:46:16.698Z</time>
      </trkpt>
      <trkpt lat="45.93573" lon="4.77521">
        <ele>176.300003052</ele>
        <time>2015-08-04T10:46:17.731Z</time>
      </trkpt>
      <trkpt lat="45.9357" lon="4.77511">
        <ele>176.300003052</ele>
        <time>2015-08-04T10:46:18.696Z</time>
      </trkpt>
      <trkpt lat="45.93568" lon="4.77501">
        <ele>176.300003052</ele>
        <time>2015-08-04T10:46:19.731Z</time>
      </trkpt>
      <trkpt lat="45.93565" lon="4.7749">
        <ele>176</ele>
        <time>2015-08-04T10:46:20.695Z</time>
      </trkpt>
      <trkpt lat="45.93564" lon="4.7748">
        <ele>175.800003052</ele>
        <time>2015-08-04T10:46:21.728Z</time>
      </trkpt>
      <trkpt lat="45.93562" lon="4.7747">
        <ele>175.300003052</ele>
        <time>2015-08-04T10:46:22.699Z</time>
      </trkpt>
      <trkpt lat="45.9356" lon="4.7746">
        <ele>175.399993896</ele>
        <time>2015-08-04T10:46:23.729Z</time>
      </trkpt>
      <trkpt lat="45.93558" lon="4.77449">
        <ele>175.199996948</ele>
        <time>2015-08-04T10:46:24.696Z</time>
      </trkpt>
      <trkpt lat="45.93556" lon="4.7744">
        <ele>175</ele>
        <time>2015-08-04T10:46:25.771Z</time>
      </trkpt>
      <trkpt lat="45.93554" lon="4.77431">
        <ele>174.699996948</ele>
        <time>2015-08-04T10:46:26.696Z</time>
      </trkpt>
      <trkpt lat="45.93552" lon="4.77422">
        <ele>174.300003052</ele>
        <time>2015-08-04T10:46:27.73Z</time>
      </trkpt>
      <trkpt lat="45.93549" lon="4.77413">
        <ele>174.600006104</ele>
        <time>2015-08-04T10:46:28.699Z</time>
      </trkpt>
      <trkpt lat="45.93547" lon="4.77404">
        <ele>174.699996948</ele>
        <time>2015-08-04T10:46:29.731Z</time>
      </trkpt>
      <trkpt lat="45.93545" lon="4.77395">
        <ele>174.600006104</ele>
        <time>2015-08-04T10:46:30.697Z</time>
      </trkpt>
      <trkpt lat="45.93543" lon="4.77386">
        <ele>174.399993896</ele>
        <time>2015-08-04T10:46:31.744Z</time>
      </trkpt>
      <trkpt lat="45.93541" lon="4.77376">
        <ele>173.899993896</ele>
        <time>2015-08-04T10:46:32.695Z</time>
      </trkpt>
      <trkpt lat="45.93539" lon="4.77366">
        <ele>173.800003052</ele>
        <time>2015-08-04T10:46:33.735Z</time>
      </trkpt>
      <trkpt lat="45.93537" lon="4.77357">
        <ele>173.600006104</ele>
        <time>2015-08-04T10:46:34.695Z</time>
      </trkpt>
      <trkpt lat="45.93535" lon="4.77348">
        <ele>173.699996948</ele>
        <time>2015-08-04T10:46:35.732Z</time>
      </trkpt>
      <trkpt lat="45.93533" lon="4.77338">
        <ele>173.5</ele>
        <time>2015-08-04T10:46:36.696Z</time>
      </trkpt>
      <trkpt lat="45.93531" lon="4.77329">
        <ele>173.399993896</ele>
        <time>2015-08-04T10:46:37.728Z</time>
      </trkpt>
      <trkpt lat="45.93528" lon="4.77319">
        <ele>173.399993896</ele>
        <time>2015-08-04T10:46:38.696Z</time>
      </trkpt>
      <trkpt lat="45.93526" lon="4.7731">
        <ele>173.399993896</ele>
        <time>2015-08-04T10:46:39.728Z</time>
      </trkpt>
      <trkpt lat="45.93523" lon="4.773">
        <ele>173.300003052</ele>
        <time>2015-08-04T10:46:40.681Z</time>
      </trkpt>
      <trkpt lat="45.93521" lon="4.77291">
        <ele>173.399993896</ele>
        <time>2015-08-04T10:46:41.728Z</time>
      </trkpt>
      <trkpt lat="45.93519" lon="4.77281">
        <ele>173.600006104</ele>
        <time>2015-08-04T10:46:42.696Z</time>
      </trkpt>
      <trkpt lat="45.93517" lon="4.77272">
        <ele>173.5</ele>
        <time>2015-08-04T10:46:43.731Z</time>
      </trkpt>
      <trkpt lat="45.93515" lon="4.77263">
        <ele>173.699996948</ele>
        <time>2015-08-04T10:46:44.695Z</time>
      </trkpt>
      <trkpt lat="45.93513" lon="4.77254">
        <ele>173.5</ele>
        <time>2015-08-04T10:46:45.728Z</time>
      </trkpt>
      <trkpt lat="45.93511" lon="4.77245">
        <ele>173.699996948</ele>
        <time>2015-08-04T10:46:46.697Z</time>
      </trkpt>
      <trkpt lat="45.93509" lon="4.77237">
        <ele>174</ele>
        <time>2015-08-04T10:46:47.747Z</time>
      </trkpt>
      <trkpt lat="45.93507" lon="4.77228">
        <ele>174</ele>
        <time>2015-08-04T10:46:48.694Z</time>
      </trkpt>
      <trkpt lat="45.93505" lon="4.77219">
        <ele>174.199996948</ele>
        <time>2015-08-04T10:46:49.728Z</time>
      </trkpt>
      <trkpt lat="45.93503" lon="4.7721">
        <ele>174.5</ele>
        <time>2015-08-04T10:46:50.681Z</time>
      </trkpt>
      <trkpt lat="45.93501" lon="4.77201">
        <ele>174.600006104</ele>
        <time>2015-08-04T10:46:51.727Z</time>
      </trkpt>
      <trkpt lat="45.93499" lon="4.77192">
        <ele>174.800003052</ele>
        <time>2015-08-04T10:46:52.7Z</time>
      </trkpt>
      <trkpt lat="45.93498" lon="4.77182">
        <ele>175.100006104</ele>
        <time>2015-08-04T10:46:53.74Z</time>
      </trkpt>
      <trkpt lat="45.93496" lon="4.77172">
        <ele>175</ele>
        <time>2015-08-04T10:46:54.712Z</time>
      </trkpt>
      <trkpt lat="45.93494" lon="4.77162">
        <ele>175.600006104</ele>
        <time>2015-08-04T10:46:55.724Z</time>
      </trkpt>
      <trkpt lat="45.93492" lon="4.77153">
        <ele>175.5</ele>
        <time>2015-08-04T10:46:56.695Z</time>
      </trkpt>
      <trkpt lat="45.9349" lon="4.77144">
        <ele>175.899993896</ele>
        <time>2015-08-04T10:46:57.766Z</time>
      </trkpt>
      <trkpt lat="45.93488" lon="4.77134">
        <ele>176</ele>
        <time>2015-08-04T10:46:58.699Z</time>
      </trkpt>
      <trkpt lat="45.93486" lon="4.77125">
        <ele>176</ele>
        <time>2015-08-04T10:46:59.737Z</time>
      </trkpt>
      <trkpt lat="45.93484" lon="4.77116">
        <ele>176.100006104</ele>
        <time>2015-08-04T10:47:00.684Z</time>
      </trkpt>
      <trkpt lat="45.93482" lon="4.77107">
        <ele>176.5</ele>
        <time>2015-08-04T10:47:01.735Z</time>
      </trkpt>
      <trkpt lat="45.9348" lon="4.77098">
        <ele>176.300003052</ele>
        <time>2015-08-04T10:47:02.695Z</time>
      </trkpt>
      <trkpt lat="45.93479" lon="4.77088">
        <ele>176.399993896</ele>
        <time>2015-08-04T10:47:03.887Z</time>
      </trkpt>
      <trkpt lat="45.93478" lon="4.77078">
        <ele>176.5</ele>
        <time>2015-08-04T10:47:04.698Z</time>
      </trkpt>
      <trkpt lat="45.93476" lon="4.77069">
        <ele>176.300003052</ele>
        <time>2015-08-04T10:47:05.727Z</time>
      </trkpt>
      <trkpt lat="45.93475" lon="4.7706">
        <ele>176.899993896</ele>
        <time>2015-08-04T10:47:06.696Z</time>
      </trkpt>
      <trkpt lat="45.93474" lon="4.77051">
        <ele>177.399993896</ele>
        <time>2015-08-04T10:47:07.727Z</time>
      </trkpt>
      <trkpt lat="45.93473" lon="4.77042">
        <ele>177.300003052</ele>
        <time>2015-08-04T10:47:08.745Z</time>
      </trkpt>
      <trkpt lat="45.93472" lon="4.77033">
        <ele>176.800003052</ele>
        <time>2015-08-04T10:47:09.762Z</time>
      </trkpt>
      <trkpt lat="45.9347" lon="4.77024">
        <ele>176.600006104</ele>
        <time>2015-08-04T10:47:10.697Z</time>
      </trkpt>
      <trkpt lat="45.9347" lon="4.77015">
        <ele>176.899993896</ele>
        <time>2015-08-04T10:47:11.728Z</time>
      </trkpt>
      <trkpt lat="45.93469" lon="4.77007">
        <ele>176.600006104</ele>
        <time>2015-08-04T10:47:12.696Z</time>
      </trkpt>
      <trkpt lat="45.93467" lon="4.76997">
        <ele>176.399993896</ele>
        <time>2015-08-04T10:47:13.728Z</time>
      </trkpt>
      <trkpt lat="45.93466" lon="4.76988">
        <ele>176.699996948</ele>
        <time>2015-08-04T10:47:14.695Z</time>
      </trkpt>
      <trkpt lat="45.93464" lon="4.7698">
        <ele>176.699996948</ele>
        <time>2015-08-04T10:47:15.767Z</time>
      </trkpt>
      <trkpt lat="45.93462" lon="4.7697">
        <ele>176.699996948</ele>
        <time>2015-08-04T10:47:16.698Z</time>
      </trkpt>
      <trkpt lat="45.93461" lon="4.76961">
        <ele>176.300003052</ele>
        <time>2015-08-04T10:47:17.729Z</time>
      </trkpt>
      <trkpt lat="45.9346" lon="4.76952">
        <ele>176</ele>
        <time>2015-08-04T10:47:18.696Z</time>
      </trkpt>
      <trkpt lat="45.93459" lon="4.76943">
        <ele>176</ele>
        <time>2015-08-04T10:47:19.727Z</time>
      </trkpt>
      <trkpt lat="45.93457" lon="4.76935">
        <ele>176.100006104</ele>
        <time>2015-08-04T10:47:20.693Z</time>
      </trkpt>
      <trkpt lat="45.93454" lon="4.76926">
        <ele>176</ele>
        <time>2015-08-04T10:47:21.726Z</time>
      </trkpt>
      <trkpt lat="45.93452" lon="4.76917">
        <ele>175.899993896</ele>
        <time>2015-08-04T10:47:22.698Z</time>
      </trkpt>
      <trkpt lat="45.9345" lon="4.76908">
        <ele>176.100006104</ele>
        <time>2015-08-04T10:47:23.746Z</time>
      </trkpt>
      <trkpt lat="45.93446" lon="4.76899">
        <ele>175.699996948</ele>
        <time>2015-08-04T10:47:24.696Z</time>
      </trkpt>
      <trkpt lat="45.93443" lon="4.7689">
        <ele>175.199996948</ele>
        <time>2015-08-04T10:47:25.726Z</time>
      </trkpt>
      <trkpt lat="45.9344" lon="4.76881">
        <ele>174.699996948</ele>
        <time>2015-08-04T10:47:26.693Z</time>
      </trkpt>
      <trkpt lat="45.93436" lon="4.76872">
        <ele>174.699996948</ele>
        <time>2015-08-04T10:47:27.729Z</time>
      </trkpt>
      <trkpt lat="45.93433" lon="4.76864">
        <ele>175.100006104</ele>
        <time>2015-08-04T10:47:28.698Z</time>
      </trkpt>
      <trkpt lat="45.93429" lon="4.76856">
        <ele>175.100006104</ele>
        <time>2015-08-04T10:47:29.745Z</time>
      </trkpt>
      <trkpt lat="45.93425" lon="4.76848">
        <ele>175.199996948</ele>
        <time>2015-08-04T10:47:30.695Z</time>
      </trkpt>
      <trkpt lat="45.9342" lon="4.7684">
        <ele>174.899993896</ele>
        <time>2015-08-04T10:47:31.743Z</time>
      </trkpt>
      <trkpt lat="45.93416" lon="4.76832">
        <ele>174.600006104</ele>
        <time>2015-08-04T10:47:32.695Z</time>
      </trkpt>
      <trkpt lat="45.93411" lon="4.76824">
        <ele>174.600006104</ele>
        <time>2015-08-04T10:47:33.728Z</time>
      </trkpt>
      <trkpt lat="45.93406" lon="4.76817">
        <ele>174.899993896</ele>
        <time>2015-08-04T10:47:34.699Z</time>
      </trkpt>
      <trkpt lat="45.93402" lon="4.7681">
        <ele>175.100006104</ele>
        <time>2015-08-04T10:47:35.726Z</time>
      </trkpt>
      <trkpt lat="45.93397" lon="4.76803">
        <ele>175.699996948</ele>
        <time>2015-08-04T10:47:36.696Z</time>
      </trkpt>
      <trkpt lat="45.93392" lon="4.76797">
        <ele>175.699996948</ele>
        <time>2015-08-04T10:47:37.766Z</time>
      </trkpt>
      <trkpt lat="45.93387" lon="4.76791">
        <ele>175.800003052</ele>
        <time>2015-08-04T10:47:38.695Z</time>
      </trkpt>
      <trkpt lat="45.93381" lon="4.76785">
        <ele>175.699996948</ele>
        <time>2015-08-04T10:47:39.731Z</time>
      </trkpt>
      <trkpt lat="45.93376" lon="4.76779">
        <ele>175.600006104</ele>
        <time>2015-08-04T10:47:40.698Z</time>
      </trkpt>
      <trkpt lat="45.93371" lon="4.76775">
        <ele>175.399993896</ele>
        <time>2015-08-04T10:47:41.73Z</time>
      </trkpt>
      <trkpt lat="45.93366" lon="4.7677">
        <ele>175.699996948</ele>
        <time>2015-08-04T10:47:42.695Z</time>
      </trkpt>
      <trkpt lat="45.93361" lon="4.76764">
        <ele>175.600006104</ele>
        <time>2015-08-04T10:47:43.806Z</time>
      </trkpt>
      <trkpt lat="45.93356" lon="4.76759">
        <ele>175.5</ele>
        <time>2015-08-04T10:47:44.695Z</time>
      </trkpt>
      <trkpt lat="45.93351" lon="4.76753">
        <ele>175.300003052</ele>
        <time>2015-08-04T10:47:45.73Z</time>
      </trkpt>
      <trkpt lat="45.93346" lon="4.76748">
        <ele>175.5</ele>
        <time>2015-08-04T10:47:46.698Z</time>
      </trkpt>
      <trkpt lat="45.93341" lon="4.76742">
        <ele>175.5</ele>
        <time>2015-08-04T10:47:47.74Z</time>
      </trkpt>
      <trkpt lat="45.93335" lon="4.76737">
        <ele>175.199996948</ele>
        <time>2015-08-04T10:47:48.694Z</time>
      </trkpt>
      <trkpt lat="45.9333" lon="4.76732">
        <ele>175</ele>
        <time>2015-08-04T10:47:49.728Z</time>
      </trkpt>
      <trkpt lat="45.93325" lon="4.76726">
        <ele>174.899993896</ele>
        <time>2015-08-04T10:47:50.695Z</time>
      </trkpt>
      <trkpt lat="45.9332" lon="4.76721">
        <ele>175.100006104</ele>
        <time>2015-08-04T10:47:51.73Z</time>
      </trkpt>
      <trkpt lat="45.93314" lon="4.76716">
        <ele>174.600006104</ele>
        <time>2015-08-04T10:47:52.698Z</time>
      </trkpt>
      <trkpt lat="45.93309" lon="4.76711">
        <ele>174.5</ele>
        <time>2015-08-04T10:47:53.776Z</time>
      </trkpt>
      <trkpt lat="45.93303" lon="4.76705">
        <ele>174.399993896</ele>
        <time>2015-08-04T10:47:54.697Z</time>
      </trkpt>
      <trkpt lat="45.93297" lon="4.767">
        <ele>174.399993896</ele>
        <time>2015-08-04T10:47:55.787Z</time>
      </trkpt>
      <trkpt lat="45.93292" lon="4.76694">
        <ele>174.100006104</ele>
        <time>2015-08-04T10:47:56.693Z</time>
      </trkpt>
      <trkpt lat="45.93287" lon="4.76689">
        <ele>174.100006104</ele>
        <time>2015-08-04T10:47:57.727Z</time>
      </trkpt>
      <trkpt lat="45.93282" lon="4.76684">
        <ele>174.199996948</ele>
        <time>2015-08-04T10:47:58.698Z</time>
      </trkpt>
      <trkpt lat="45.93277" lon="4.76679">
        <ele>174.300003052</ele>
        <time>2015-08-04T10:47:59.725Z</time>
      </trkpt>
      <trkpt lat="45.93271" lon="4.76673">
        <ele>174.300003052</ele>
        <time>2015-08-04T10:48:00.696Z</time>
      </trkpt>
      <trkpt lat="45.93266" lon="4.76668">
        <ele>174.699996948</ele>
        <time>2015-08-04T10:48:01.729Z</time>
      </trkpt>
      <trkpt lat="45.9326" lon="4.76663">
        <ele>174.800003052</ele>
        <time>2015-08-04T10:48:02.694Z</time>
      </trkpt>
      <trkpt lat="45.93254" lon="4.76657">
        <ele>174.699996948</ele>
        <time>2015-08-04T10:48:03.725Z</time>
      </trkpt>
      <trkpt lat="45.93248" lon="4.76652">
        <ele>174.600006104</ele>
        <time>2015-08-04T10:48:04.697Z</time>
      </trkpt>
      <trkpt lat="45.93242" lon="4.76647">
        <ele>174.5</ele>
        <time>2015-08-04T10:48:05.726Z</time>
      </trkpt>
      <trkpt lat="45.93237" lon="4.76642">
        <ele>174.300003052</ele>
        <time>2015-08-04T10:48:06.695Z</time>
      </trkpt>
      <trkpt lat="45.93232" lon="4.76637">
        <ele>174</ele>
        <time>2015-08-04T10:48:07.726Z</time>
      </trkpt>
      <trkpt lat="45.93227" lon="4.76632">
        <ele>173.899993896</ele>
        <time>2015-08-04T10:48:08.732Z</time>
      </trkpt>
      <trkpt lat="45.93222" lon="4.76626">
        <ele>174.100006104</ele>
        <time>2015-08-04T10:48:09.74Z</time>
      </trkpt>
      <trkpt lat="45.93216" lon="4.76621">
        <ele>174.300003052</ele>
        <time>2015-08-04T10:48:10.696Z</time>
      </trkpt>
      <trkpt lat="45.93211" lon="4.76615">
        <ele>174.300003052</ele>
        <time>2015-08-04T10:48:11.755Z</time>
      </trkpt>
      <trkpt lat="45.93205" lon="4.7661">
        <ele>174.199996948</ele>
        <time>2015-08-04T10:48:12.694Z</time>
      </trkpt>
      <trkpt lat="45.932" lon="4.76604">
        <ele>174.399993896</ele>
        <time>2015-08-04T10:48:13.726Z</time>
      </trkpt>
      <trkpt lat="45.93195" lon="4.76598">
        <ele>174.5</ele>
        <time>2015-08-04T10:48:14.695Z</time>
      </trkpt>
      <trkpt lat="45.93189" lon="4.76592">
        <ele>175</ele>
        <time>2015-08-04T10:48:15.726Z</time>
      </trkpt>
      <trkpt lat="45.93184" lon="4.76586">
        <ele>175.199996948</ele>
        <time>2015-08-04T10:48:16.698Z</time>
      </trkpt>
      <trkpt lat="45.93179" lon="4.76581">
        <ele>175.5</ele>
        <time>2015-08-04T10:48:17.727Z</time>
      </trkpt>
      <trkpt lat="45.93174" lon="4.76576">
        <ele>175.800003052</ele>
        <time>2015-08-04T10:48:18.696Z</time>
      </trkpt>
      <trkpt lat="45.93169" lon="4.76571">
        <ele>175.899993896</ele>
        <time>2015-08-04T10:48:19.743Z</time>
      </trkpt>
      <trkpt lat="45.93164" lon="4.76566">
        <ele>175.800003052</ele>
        <time>2015-08-04T10:48:20.693Z</time>
      </trkpt>
      <trkpt lat="45.9316" lon="4.76561">
        <ele>175.800003052</ele>
        <time>2015-08-04T10:48:21.734Z</time>
      </trkpt>
      <trkpt lat="45.93156" lon="4.76556">
        <ele>175.899993896</ele>
        <time>2015-08-04T10:48:22.696Z</time>
      </trkpt>
      <trkpt lat="45.93151" lon="4.76551">
        <ele>176</ele>
        <time>2015-08-04T10:48:23.729Z</time>
      </trkpt>
      <trkpt lat="45.93146" lon="4.76547">
        <ele>176.300003052</ele>
        <time>2015-08-04T10:48:24.694Z</time>
      </trkpt>
      <trkpt lat="45.93142" lon="4.76542">
        <ele>176.699996948</ele>
        <time>2015-08-04T10:48:25.73Z</time>
      </trkpt>
      <trkpt lat="45.93136" lon="4.76536">
        <ele>177.100006104</ele>
        <time>2015-08-04T10:48:26.695Z</time>
      </trkpt>
      <trkpt lat="45.93131" lon="4.76531">
        <ele>177.399993896</ele>
        <time>2015-08-04T10:48:27.747Z</time>
      </trkpt>
      <trkpt lat="45.93127" lon="4.76526">
        <ele>177.899993896</ele>
        <time>2015-08-04T10:48:28.697Z</time>
      </trkpt>
      <trkpt lat="45.93122" lon="4.7652">
        <ele>178.600006104</ele>
        <time>2015-08-04T10:48:29.726Z</time>
      </trkpt>
      <trkpt lat="45.93118" lon="4.76515">
        <ele>179</ele>
        <time>2015-08-04T10:48:30.695Z</time>
      </trkpt>
      <trkpt lat="45.93113" lon="4.7651">
        <ele>179.5</ele>
        <time>2015-08-04T10:48:31.728Z</time>
      </trkpt>
      <trkpt lat="45.93108" lon="4.76505">
        <ele>179.800003052</ele>
        <time>2015-08-04T10:48:32.695Z</time>
      </trkpt>
      <trkpt lat="45.93103" lon="4.765">
        <ele>179.699996948</ele>
        <time>2015-08-04T10:48:33.726Z</time>
      </trkpt>
      <trkpt lat="45.93099" lon="4.76495">
        <ele>180.100006104</ele>
        <time>2015-08-04T10:48:34.698Z</time>
      </trkpt>
      <trkpt lat="45.93095" lon="4.76491">
        <ele>180.600006104</ele>
        <time>2015-08-04T10:48:35.728Z</time>
      </trkpt>
      <trkpt lat="45.9309" lon="4.76486">
        <ele>180.699996948</ele>
        <time>2015-08-04T10:48:36.695Z</time>
      </trkpt>
      <trkpt lat="45.93085" lon="4.76481">
        <ele>181.199996948</ele>
        <time>2015-08-04T10:48:37.731Z</time>
      </trkpt>
      <trkpt lat="45.9308" lon="4.76476">
        <ele>181.5</ele>
        <time>2015-08-04T10:48:38.695Z</time>
      </trkpt>
      <trkpt lat="45.9308" lon="4.76476">
        <ele>181.5</ele>
        <time>2015-08-04T10:48:38.827Z</time>
      </trkpt>
      <trkpt lat="45.93068" lon="4.76468">
        <ele>181.399993896</ele>
        <time>2015-08-04T10:48:39.737Z</time>
      </trkpt>
      <trkpt lat="45.93061" lon="4.76463">
        <ele>181.699996948</ele>
        <time>2015-08-04T10:48:40.842Z</time>
      </trkpt>
      <trkpt lat="45.93055" lon="4.76457">
        <ele>181.800003052</ele>
        <time>2015-08-04T10:48:41.742Z</time>
      </trkpt>
      <trkpt lat="45.9305" lon="4.76452">
        <ele>181.699996948</ele>
        <time>2015-08-04T10:48:42.786Z</time>
      </trkpt>
      <trkpt lat="45.93044" lon="4.76447">
        <ele>181.399993896</ele>
        <time>2015-08-04T10:48:43.717Z</time>
      </trkpt>
      <trkpt lat="45.93038" lon="4.76441">
        <ele>181.199996948</ele>
        <time>2015-08-04T10:48:44.947Z</time>
      </trkpt>
      <trkpt lat="45.93033" lon="4.76436">
        <ele>180.800003052</ele>
        <time>2015-08-04T10:48:45.699Z</time>
      </trkpt>
      <trkpt lat="45.93028" lon="4.76431">
        <ele>180.800003052</ele>
        <time>2015-08-04T10:48:46.776Z</time>
      </trkpt>
      <trkpt lat="45.93023" lon="4.76425">
        <ele>180.699996948</ele>
        <time>2015-08-04T10:48:47.699Z</time>
      </trkpt>
      <trkpt lat="45.93019" lon="4.7642">
        <ele>180.300003052</ele>
        <time>2015-08-04T10:48:48.756Z</time>
      </trkpt>
      <trkpt lat="45.93014" lon="4.76414">
        <ele>180.399993896</ele>
        <time>2015-08-04T10:48:49.694Z</time>
      </trkpt>
      <trkpt lat="45.93009" lon="4.76409">
        <ele>180.399993896</ele>
        <time>2015-08-04T10:48:50.729Z</time>
      </trkpt>
      <trkpt lat="45.93005" lon="4.76404">
        <ele>179.600006104</ele>
        <time>2015-08-04T10:48:51.695Z</time>
      </trkpt>
      <trkpt lat="45.93" lon="4.76399">
        <ele>179.199996948</ele>
        <time>2015-08-04T10:48:52.73Z</time>
      </trkpt>
      <trkpt lat="45.92995" lon="4.76395">
        <ele>178.800003052</ele>
        <time>2015-08-04T10:48:53.692Z</time>
      </trkpt>
      <trkpt lat="45.9299" lon="4.7639">
        <ele>178.5</ele>
        <time>2015-08-04T10:48:54.727Z</time>
      </trkpt>
      <trkpt lat="45.92984" lon="4.76385">
        <ele>178.300003052</ele>
        <time>2015-08-04T10:48:55.695Z</time>
      </trkpt>
      <trkpt lat="45.92978" lon="4.7638">
        <ele>178</ele>
        <time>2015-08-04T10:48:56.727Z</time>
      </trkpt>
      <trkpt lat="45.92972" lon="4.76375">
        <ele>177.899993896</ele>
        <time>2015-08-04T10:48:57.694Z</time>
      </trkpt>
      <trkpt lat="45.92967" lon="4.7637">
        <ele>177.800003052</ele>
        <time>2015-08-04T10:48:58.73Z</time>
      </trkpt>
      <trkpt lat="45.92963" lon="4.76365">
        <ele>178.100006104</ele>
        <time>2015-08-04T10:48:59.691Z</time>
      </trkpt>
      <trkpt lat="45.92958" lon="4.7636">
        <ele>177.600006104</ele>
        <time>2015-08-04T10:49:00.728Z</time>
      </trkpt>
      <trkpt lat="45.92953" lon="4.76355">
        <ele>177.399993896</ele>
        <time>2015-08-04T10:49:01.727Z</time>
      </trkpt>
      <trkpt lat="45.92948" lon="4.7635">
        <ele>177.399993896</ele>
        <time>2015-08-04T10:49:02.726Z</time>
      </trkpt>
      <trkpt lat="45.92943" lon="4.76345">
        <ele>177.699996948</ele>
        <time>2015-08-04T10:49:03.693Z</time>
      </trkpt>
      <trkpt lat="45.92938" lon="4.7634">
        <ele>178</ele>
        <time>2015-08-04T10:49:04.746Z</time>
      </trkpt>
      <trkpt lat="45.92934" lon="4.76335">
        <ele>177.800003052</ele>
        <time>2015-08-04T10:49:05.695Z</time>
      </trkpt>
      <trkpt lat="45.92928" lon="4.7633">
        <ele>177.699996948</ele>
        <time>2015-08-04T10:49:06.816Z</time>
      </trkpt>
      <trkpt lat="45.92923" lon="4.76325">
        <ele>177.699996948</ele>
        <time>2015-08-04T10:49:07.695Z</time>
      </trkpt>
      <trkpt lat="45.92918" lon="4.7632">
        <ele>177.600006104</ele>
        <time>2015-08-04T10:49:08.727Z</time>
      </trkpt>
      <trkpt lat="45.92913" lon="4.76314">
        <ele>177.199996948</ele>
        <time>2015-08-04T10:49:09.695Z</time>
      </trkpt>
      <trkpt lat="45.92908" lon="4.76309">
        <ele>177</ele>
        <time>2015-08-04T10:49:10.796Z</time>
      </trkpt>
      <trkpt lat="45.92903" lon="4.76304">
        <ele>176.899993896</ele>
        <time>2015-08-04T10:49:11.694Z</time>
      </trkpt>
      <trkpt lat="45.92898" lon="4.76299">
        <ele>176.699996948</ele>
        <time>2015-08-04T10:49:12.727Z</time>
      </trkpt>
      <trkpt lat="45.92893" lon="4.76294">
        <ele>177</ele>
        <time>2015-08-04T10:49:13.697Z</time>
      </trkpt>
      <trkpt lat="45.92887" lon="4.76289">
        <ele>177</ele>
        <time>2015-08-04T10:49:14.731Z</time>
      </trkpt>
      <trkpt lat="45.92881" lon="4.76284">
        <ele>176.399993896</ele>
        <time>2015-08-04T10:49:15.694Z</time>
      </trkpt>
      <trkpt lat="45.92876" lon="4.76279">
        <ele>176.199996948</ele>
        <time>2015-08-04T10:49:16.763Z</time>
      </trkpt>
      <trkpt lat="45.92871" lon="4.76274">
        <ele>176.5</ele>
        <time>2015-08-04T10:49:17.695Z</time>
      </trkpt>
      <trkpt lat="45.92866" lon="4.7627">
        <ele>176.5</ele>
        <time>2015-08-04T10:49:18.727Z</time>
      </trkpt>
      <trkpt lat="45.9286" lon="4.76265">
        <ele>176.199996948</ele>
        <time>2015-08-04T10:49:19.695Z</time>
      </trkpt>
      <trkpt lat="45.92856" lon="4.7626">
        <ele>176.100006104</ele>
        <time>2015-08-04T10:49:20.776Z</time>
      </trkpt>
      <trkpt lat="45.92851" lon="4.76255">
        <ele>176.399993896</ele>
        <time>2015-08-04T10:49:21.695Z</time>
      </trkpt>
      <trkpt lat="45.92846" lon="4.76251">
        <ele>176.699996948</ele>
        <time>2015-08-04T10:49:22.731Z</time>
      </trkpt>
      <trkpt lat="45.92841" lon="4.76247">
        <ele>177.600006104</ele>
        <time>2015-08-04T10:49:23.695Z</time>
      </trkpt>
      <trkpt lat="45.92837" lon="4.76242">
        <ele>178.5</ele>
        <time>2015-08-04T10:49:24.729Z</time>
      </trkpt>
      <trkpt lat="45.92832" lon="4.76237">
        <ele>178.899993896</ele>
        <time>2015-08-04T10:49:25.695Z</time>
      </trkpt>
      <trkpt lat="45.92827" lon="4.76232">
        <ele>179.199996948</ele>
        <time>2015-08-04T10:49:26.729Z</time>
      </trkpt>
      <trkpt lat="45.92823" lon="4.76227">
        <ele>179.800003052</ele>
        <time>2015-08-04T10:49:27.694Z</time>
      </trkpt>
      <trkpt lat="45.92819" lon="4.76223">
        <ele>179.5</ele>
        <time>2015-08-04T10:49:28.737Z</time>
      </trkpt>
      <trkpt lat="45.92815" lon="4.76218">
        <ele>179.5</ele>
        <time>2015-08-04T10:49:29.693Z</time>
      </trkpt>
      <trkpt lat="45.9281" lon="4.76213">
        <ele>179.600006104</ele>
        <time>2015-08-04T10:49:30.807Z</time>
      </trkpt>
      <trkpt lat="45.92805" lon="4.76209">
        <ele>179.699996948</ele>
        <time>2015-08-04T10:49:31.695Z</time>
      </trkpt>
      <trkpt lat="45.92801" lon="4.76204">
        <ele>179.800003052</ele>
        <time>2015-08-04T10:49:32.728Z</time>
      </trkpt>
      <trkpt lat="45.92796" lon="4.762">
        <ele>180</ele>
        <time>2015-08-04T10:49:33.695Z</time>
      </trkpt>
      <trkpt lat="45.92791" lon="4.76195">
        <ele>180</ele>
        <time>2015-08-04T10:49:34.769Z</time>
      </trkpt>
      <trkpt lat="45.92786" lon="4.76191">
        <ele>179.899993896</ele>
        <time>2015-08-04T10:49:35.699Z</time>
      </trkpt>
      <trkpt lat="45.92781" lon="4.76187">
        <ele>179.600006104</ele>
        <time>2015-08-04T10:49:36.989Z</time>
      </trkpt>
      <trkpt lat="45.92776" lon="4.76183">
        <ele>179.5</ele>
        <time>2015-08-04T10:49:37.7Z</time>
      </trkpt>
      <trkpt lat="45.92771" lon="4.76178">
        <ele>179.5</ele>
        <time>2015-08-04T10:49:38.743Z</time>
      </trkpt>
      <trkpt lat="45.92766" lon="4.76174">
        <ele>179.300003052</ele>
        <time>2015-08-04T10:49:39.699Z</time>
      </trkpt>
      <trkpt lat="45.92761" lon="4.76169">
        <ele>179.100006104</ele>
        <time>2015-08-04T10:49:40.738Z</time>
      </trkpt>
      <trkpt lat="45.92755" lon="4.76164">
        <ele>179.199996948</ele>
        <time>2015-08-04T10:49:41.693Z</time>
      </trkpt>
      <trkpt lat="45.9275" lon="4.7616">
        <ele>179</ele>
        <time>2015-08-04T10:49:42.728Z</time>
      </trkpt>
      <trkpt lat="45.92744" lon="4.76154">
        <ele>178.899993896</ele>
        <time>2015-08-04T10:49:43.693Z</time>
      </trkpt>
      <trkpt lat="45.92738" lon="4.76149">
        <ele>178.399993896</ele>
        <time>2015-08-04T10:49:44.73Z</time>
      </trkpt>
      <trkpt lat="45.92731" lon="4.76144">
        <ele>178.300003052</ele>
        <time>2015-08-04T10:49:45.694Z</time>
      </trkpt>
      <trkpt lat="45.92725" lon="4.7614">
        <ele>177.800003052</ele>
        <time>2015-08-04T10:49:46.852Z</time>
      </trkpt>
      <trkpt lat="45.9272" lon="4.76136">
        <ele>177.800003052</ele>
        <time>2015-08-04T10:49:47.696Z</time>
      </trkpt>
      <trkpt lat="45.92714" lon="4.76131">
        <ele>176.899993896</ele>
        <time>2015-08-04T10:49:48.732Z</time>
      </trkpt>
      <trkpt lat="45.92708" lon="4.76127">
        <ele>177.100006104</ele>
        <time>2015-08-04T10:49:49.695Z</time>
      </trkpt>
      <trkpt lat="45.92702" lon="4.76123">
        <ele>176.800003052</ele>
        <time>2015-08-04T10:49:50.732Z</time>
      </trkpt>
      <trkpt lat="45.92697" lon="4.76119">
        <ele>177.300003052</ele>
        <time>2015-08-04T10:49:51.695Z</time>
      </trkpt>
      <trkpt lat="45.92691" lon="4.76115">
        <ele>177.100006104</ele>
        <time>2015-08-04T10:49:52.765Z</time>
      </trkpt>
      <trkpt lat="45.92686" lon="4.7611">
        <ele>176.699996948</ele>
        <time>2015-08-04T10:49:53.692Z</time>
      </trkpt>
      <trkpt lat="45.92681" lon="4.76107">
        <ele>176.5</ele>
        <time>2015-08-04T10:49:54.748Z</time>
      </trkpt>
      <trkpt lat="45.92676" lon="4.76103">
        <ele>176.699996948</ele>
        <time>2015-08-04T10:49:55.694Z</time>
      </trkpt>
      <trkpt lat="45.92671" lon="4.76099">
        <ele>176.399993896</ele>
        <time>2015-08-04T10:49:56.745Z</time>
      </trkpt>
      <trkpt lat="45.92666" lon="4.76094">
        <ele>176.399993896</ele>
        <time>2015-08-04T10:49:57.695Z</time>
      </trkpt>
      <trkpt lat="45.92661" lon="4.76091">
        <ele>176.199996948</ele>
        <time>2015-08-04T10:49:58.737Z</time>
      </trkpt>
      <trkpt lat="45.92656" lon="4.76087">
        <ele>176.399993896</ele>
        <time>2015-08-04T10:49:59.695Z</time>
      </trkpt>
      <trkpt lat="45.92652" lon="4.76083">
        <ele>176.600006104</ele>
        <time>2015-08-04T10:50:00.746Z</time>
      </trkpt>
      <trkpt lat="45.92647" lon="4.7608">
        <ele>176.399993896</ele>
        <time>2015-08-04T10:50:01.699Z</time>
      </trkpt>
      <trkpt lat="45.92642" lon="4.76076">
        <ele>176.600006104</ele>
        <time>2015-08-04T10:50:02.736Z</time>
      </trkpt>
      <trkpt lat="45.92637" lon="4.76073">
        <ele>176.899993896</ele>
        <time>2015-08-04T10:50:03.692Z</time>
      </trkpt>
      <trkpt lat="45.92633" lon="4.7607">
        <ele>177.199996948</ele>
        <time>2015-08-04T10:50:04.734Z</time>
      </trkpt>
      <trkpt lat="45.92628" lon="4.76067">
        <ele>177.399993896</ele>
        <time>2015-08-04T10:50:05.696Z</time>
      </trkpt>
      <trkpt lat="45.92624" lon="4.76063">
        <ele>177.699996948</ele>
        <time>2015-08-04T10:50:06.734Z</time>
      </trkpt>
      <trkpt lat="45.92619" lon="4.7606">
        <ele>178.300003052</ele>
        <time>2015-08-04T10:50:07.695Z</time>
      </trkpt>
      <trkpt lat="45.92614" lon="4.76057">
        <ele>178.5</ele>
        <time>2015-08-04T10:50:08.772Z</time>
      </trkpt>
      <trkpt lat="45.9261" lon="4.76053">
        <ele>178.899993896</ele>
        <time>2015-08-04T10:50:09.695Z</time>
      </trkpt>
      <trkpt lat="45.92605" lon="4.7605">
        <ele>179.399993896</ele>
        <time>2015-08-04T10:50:10.732Z</time>
      </trkpt>
      <trkpt lat="45.926" lon="4.76047">
        <ele>179.399993896</ele>
        <time>2015-08-04T10:50:11.695Z</time>
      </trkpt>
      <trkpt lat="45.92596" lon="4.76043">
        <ele>179.699996948</ele>
        <time>2015-08-04T10:50:12.747Z</time>
      </trkpt>
      <trkpt lat="45.92591" lon="4.7604">
        <ele>180</ele>
        <time>2015-08-04T10:50:13.694Z</time>
      </trkpt>
      <trkpt lat="45.92587" lon="4.76036">
        <ele>180.100006104</ele>
        <time>2015-08-04T10:50:14.728Z</time>
      </trkpt>
      <trkpt lat="45.92583" lon="4.76033">
        <ele>180.800003052</ele>
        <time>2015-08-04T10:50:15.694Z</time>
      </trkpt>
      <trkpt lat="45.92579" lon="4.7603">
        <ele>181.199996948</ele>
        <time>2015-08-04T10:50:16.731Z</time>
      </trkpt>
      <trkpt lat="45.92574" lon="4.76027">
        <ele>181.100006104</ele>
        <time>2015-08-04T10:50:17.695Z</time>
      </trkpt>
      <trkpt lat="45.9257" lon="4.76023">
        <ele>181</ele>
        <time>2015-08-04T10:50:18.734Z</time>
      </trkpt>
      <trkpt lat="45.92566" lon="4.7602">
        <ele>181.300003052</ele>
        <time>2015-08-04T10:50:19.694Z</time>
      </trkpt>
      <trkpt lat="45.92561" lon="4.76017">
        <ele>181.399993896</ele>
        <time>2015-08-04T10:50:20.73Z</time>
      </trkpt>
      <trkpt lat="45.92557" lon="4.76014">
        <ele>181.199996948</ele>
        <time>2015-08-04T10:50:21.694Z</time>
      </trkpt>
      <trkpt lat="45.92552" lon="4.7601">
        <ele>181.100006104</ele>
        <time>2015-08-04T10:50:22.732Z</time>
      </trkpt>
      <trkpt lat="45.92548" lon="4.76007">
        <ele>181.300003052</ele>
        <time>2015-08-04T10:50:23.695Z</time>
      </trkpt>
      <trkpt lat="45.92543" lon="4.76004">
        <ele>181.300003052</ele>
        <time>2015-08-04T10:50:24.731Z</time>
      </trkpt>
      <trkpt lat="45.92539" lon="4.76001">
        <ele>181.199996948</ele>
        <time>2015-08-04T10:50:25.693Z</time>
      </trkpt>
      <trkpt lat="45.92534" lon="4.75998">
        <ele>180.899993896</ele>
        <time>2015-08-04T10:50:26.728Z</time>
      </trkpt>
      <trkpt lat="45.9253" lon="4.75995">
        <ele>180.699996948</ele>
        <time>2015-08-04T10:50:27.695Z</time>
      </trkpt>
      <trkpt lat="45.92526" lon="4.75992">
        <ele>180.899993896</ele>
        <time>2015-08-04T10:50:28.773Z</time>
      </trkpt>
      <trkpt lat="45.92521" lon="4.75989">
        <ele>180.800003052</ele>
        <time>2015-08-04T10:50:29.757Z</time>
      </trkpt>
      <trkpt lat="45.92517" lon="4.75986">
        <ele>181</ele>
        <time>2015-08-04T10:50:30.729Z</time>
      </trkpt>
      <trkpt lat="45.92512" lon="4.75982">
        <ele>181</ele>
        <time>2015-08-04T10:50:31.698Z</time>
      </trkpt>
      <trkpt lat="45.92507" lon="4.75979">
        <ele>181.100006104</ele>
        <time>2015-08-04T10:50:32.733Z</time>
      </trkpt>
      <trkpt lat="45.92501" lon="4.75976">
        <ele>181.100006104</ele>
        <time>2015-08-04T10:50:33.692Z</time>
      </trkpt>
      <trkpt lat="45.92496" lon="4.75973">
        <ele>180.899993896</ele>
        <time>2015-08-04T10:50:34.733Z</time>
      </trkpt>
      <trkpt lat="45.92491" lon="4.7597">
        <ele>181.199996948</ele>
        <time>2015-08-04T10:50:35.695Z</time>
      </trkpt>
      <trkpt lat="45.92486" lon="4.75967">
        <ele>181.300003052</ele>
        <time>2015-08-04T10:50:36.728Z</time>
      </trkpt>
      <trkpt lat="45.92481" lon="4.75964">
        <ele>181.300003052</ele>
        <time>2015-08-04T10:50:37.695Z</time>
      </trkpt>
      <trkpt lat="45.92476" lon="4.75961">
        <ele>181.199996948</ele>
        <time>2015-08-04T10:50:38.728Z</time>
      </trkpt>
      <trkpt lat="45.9247" lon="4.75958">
        <ele>181.100006104</ele>
        <time>2015-08-04T10:50:39.695Z</time>
      </trkpt>
      <trkpt lat="45.92466" lon="4.75954">
        <ele>180.699996948</ele>
        <time>2015-08-04T10:50:40.731Z</time>
      </trkpt>
      <trkpt lat="45.9246" lon="4.75951">
        <ele>180.199996948</ele>
        <time>2015-08-04T10:50:41.695Z</time>
      </trkpt>
      <trkpt lat="45.92455" lon="4.75947">
        <ele>180.199996948</ele>
        <time>2015-08-04T10:50:42.728Z</time>
      </trkpt>
      <trkpt lat="45.92449" lon="4.75943">
        <ele>179.899993896</ele>
        <time>2015-08-04T10:50:43.693Z</time>
      </trkpt>
      <trkpt lat="45.92443" lon="4.7594">
        <ele>179.699996948</ele>
        <time>2015-08-04T10:50:44.747Z</time>
      </trkpt>
      <trkpt lat="45.92437" lon="4.75936">
        <ele>179.399993896</ele>
        <time>2015-08-04T10:50:45.693Z</time>
      </trkpt>
      <trkpt lat="45.92431" lon="4.75932">
        <ele>179.100006104</ele>
        <time>2015-08-04T10:50:46.73Z</time>
      </trkpt>
      <trkpt lat="45.92425" lon="4.75928">
        <ele>178.800003052</ele>
        <time>2015-08-04T10:50:47.695Z</time>
      </trkpt>
      <trkpt lat="45.92419" lon="4.75923">
        <ele>178.300003052</ele>
        <time>2015-08-04T10:50:48.728Z</time>
      </trkpt>
      <trkpt lat="45.92413" lon="4.75919">
        <ele>178</ele>
        <time>2015-08-04T10:50:49.694Z</time>
      </trkpt>
      <trkpt lat="45.92407" lon="4.75914">
        <ele>177.800003052</ele>
        <time>2015-08-04T10:50:50.731Z</time>
      </trkpt>
      <trkpt lat="45.92401" lon="4.7591">
        <ele>177.600006104</ele>
        <time>2015-08-04T10:50:51.694Z</time>
      </trkpt>
      <trkpt lat="45.92395" lon="4.75905">
        <ele>177.5</ele>
        <time>2015-08-04T10:50:52.731Z</time>
      </trkpt>
      <trkpt lat="45.92388" lon="4.75901">
        <ele>177.199996948</ele>
        <time>2015-08-04T10:50:53.692Z</time>
      </trkpt>
      <trkpt lat="45.92382" lon="4.75896">
        <ele>177</ele>
        <time>2015-08-04T10:50:54.731Z</time>
      </trkpt>
      <trkpt lat="45.92376" lon="4.75892">
        <ele>177.100006104</ele>
        <time>2015-08-04T10:50:55.695Z</time>
      </trkpt>
      <trkpt lat="45.92369" lon="4.75888">
        <ele>176.800003052</ele>
        <time>2015-08-04T10:50:56.728Z</time>
      </trkpt>
      <trkpt lat="45.92363" lon="4.75884">
        <ele>176.699996948</ele>
        <time>2015-08-04T10:50:57.696Z</time>
      </trkpt>
      <trkpt lat="45.92357" lon="4.75879">
        <ele>176.899993896</ele>
        <time>2015-08-04T10:50:58.841Z</time>
      </trkpt>
      <trkpt lat="45.92351" lon="4.75875">
        <ele>176.800003052</ele>
        <time>2015-08-04T10:50:59.693Z</time>
      </trkpt>
      <trkpt lat="45.92345" lon="4.75871">
        <ele>176.800003052</ele>
        <time>2015-08-04T10:51:00.732Z</time>
      </trkpt>
      <trkpt lat="45.92339" lon="4.75867">
        <ele>176.699996948</ele>
        <time>2015-08-04T10:51:01.695Z</time>
      </trkpt>
      <trkpt lat="45.92333" lon="4.75863">
        <ele>176.399993896</ele>
        <time>2015-08-04T10:51:02.731Z</time>
      </trkpt>
      <trkpt lat="45.92327" lon="4.75859">
        <ele>176.399993896</ele>
        <time>2015-08-04T10:51:03.681Z</time>
      </trkpt>
      <trkpt lat="45.92322" lon="4.75856">
        <ele>176.199996948</ele>
        <time>2015-08-04T10:51:04.733Z</time>
      </trkpt>
      <trkpt lat="45.92317" lon="4.75853">
        <ele>176.100006104</ele>
        <time>2015-08-04T10:51:05.693Z</time>
      </trkpt>
      <trkpt lat="45.92313" lon="4.7585">
        <ele>175.800003052</ele>
        <time>2015-08-04T10:51:06.744Z</time>
      </trkpt>
      <trkpt lat="45.92308" lon="4.75846">
        <ele>175.899993896</ele>
        <time>2015-08-04T10:51:07.693Z</time>
      </trkpt>
      <trkpt lat="45.92304" lon="4.75844">
        <ele>176.399993896</ele>
        <time>2015-08-04T10:51:08.727Z</time>
      </trkpt>
      <trkpt lat="45.92298" lon="4.7584">
        <ele>176.100006104</ele>
        <time>2015-08-04T10:51:09.693Z</time>
      </trkpt>
      <trkpt lat="45.92293" lon="4.75837">
        <ele>176.100006104</ele>
        <time>2015-08-04T10:51:10.729Z</time>
      </trkpt>
      <trkpt lat="45.92288" lon="4.75834">
        <ele>176.199996948</ele>
        <time>2015-08-04T10:51:11.695Z</time>
      </trkpt>
      <trkpt lat="45.92283" lon="4.7583">
        <ele>176.399993896</ele>
        <time>2015-08-04T10:51:12.728Z</time>
      </trkpt>
      <trkpt lat="45.92278" lon="4.75826">
        <ele>176.699996948</ele>
        <time>2015-08-04T10:51:13.698Z</time>
      </trkpt>
      <trkpt lat="45.92273" lon="4.75821">
        <ele>177</ele>
        <time>2015-08-04T10:51:14.732Z</time>
      </trkpt>
      <trkpt lat="45.92269" lon="4.75815">
        <ele>177.399993896</ele>
        <time>2015-08-04T10:51:15.713Z</time>
      </trkpt>
      <trkpt lat="45.92266" lon="4.75808">
        <ele>177.399993896</ele>
        <time>2015-08-04T10:51:16.771Z</time>
      </trkpt>
      <trkpt lat="45.92264" lon="4.75801">
        <ele>177.899993896</ele>
        <time>2015-08-04T10:51:17.695Z</time>
      </trkpt>
      <trkpt lat="45.92262" lon="4.75793">
        <ele>178.300003052</ele>
        <time>2015-08-04T10:51:18.731Z</time>
      </trkpt>
      <trkpt lat="45.9226" lon="4.75784">
        <ele>178.600006104</ele>
        <time>2015-08-04T10:51:19.695Z</time>
      </trkpt>
      <trkpt lat="45.92259" lon="4.75776">
        <ele>178.699996948</ele>
        <time>2015-08-04T10:51:20.73Z</time>
      </trkpt>
      <trkpt lat="45.92257" lon="4.75766">
        <ele>178.600006104</ele>
        <time>2015-08-04T10:51:21.695Z</time>
      </trkpt>
      <trkpt lat="45.92255" lon="4.75757">
        <ele>178.800003052</ele>
        <time>2015-08-04T10:51:22.795Z</time>
      </trkpt>
      <trkpt lat="45.92253" lon="4.75748">
        <ele>178.399993896</ele>
        <time>2015-08-04T10:51:23.695Z</time>
      </trkpt>
      <trkpt lat="45.92251" lon="4.75739">
        <ele>178.5</ele>
        <time>2015-08-04T10:51:24.74Z</time>
      </trkpt>
      <trkpt lat="45.92247" lon="4.7573">
        <ele>178.5</ele>
        <time>2015-08-04T10:51:25.695Z</time>
      </trkpt>
      <trkpt lat="45.92244" lon="4.75721">
        <ele>178.800003052</ele>
        <time>2015-08-04T10:51:26.745Z</time>
      </trkpt>
      <trkpt lat="45.9224" lon="4.75713">
        <ele>179.100006104</ele>
        <time>2015-08-04T10:51:27.695Z</time>
      </trkpt>
      <trkpt lat="45.92236" lon="4.75706">
        <ele>179.399993896</ele>
        <time>2015-08-04T10:51:28.742Z</time>
      </trkpt>
      <trkpt lat="45.92231" lon="4.75699">
        <ele>179.399993896</ele>
        <time>2015-08-04T10:51:29.698Z</time>
      </trkpt>
      <trkpt lat="45.92225" lon="4.75693">
        <ele>179.399993896</ele>
        <time>2015-08-04T10:51:30.735Z</time>
      </trkpt>
      <trkpt lat="45.9222" lon="4.75687">
        <ele>179.699996948</ele>
        <time>2015-08-04T10:51:31.694Z</time>
      </trkpt>
      <trkpt lat="45.92214" lon="4.75682">
        <ele>179.600006104</ele>
        <time>2015-08-04T10:51:32.73Z</time>
      </trkpt>
      <trkpt lat="45.92208" lon="4.75676">
        <ele>179.399993896</ele>
        <time>2015-08-04T10:51:33.692Z</time>
      </trkpt>
      <trkpt lat="45.92202" lon="4.7567">
        <ele>179.199996948</ele>
        <time>2015-08-04T10:51:34.735Z</time>
      </trkpt>
      <trkpt lat="45.92196" lon="4.75664">
        <ele>179.399993896</ele>
        <time>2015-08-04T10:51:35.693Z</time>
      </trkpt>
      <trkpt lat="45.9219" lon="4.75658">
        <ele>179.5</ele>
        <time>2015-08-04T10:51:36.732Z</time>
      </trkpt>
      <trkpt lat="45.92184" lon="4.75652">
        <ele>179.399993896</ele>
        <time>2015-08-04T10:51:37.693Z</time>
      </trkpt>
      <trkpt lat="45.92179" lon="4.75646">
        <ele>179.300003052</ele>
        <time>2015-08-04T10:51:38.786Z</time>
      </trkpt>
      <trkpt lat="45.92174" lon="4.75641">
        <ele>178.899993896</ele>
        <time>2015-08-04T10:51:39.732Z</time>
      </trkpt>
      <trkpt lat="45.92168" lon="4.75636">
        <ele>179</ele>
        <time>2015-08-04T10:51:40.776Z</time>
      </trkpt>
      <trkpt lat="45.92163" lon="4.75631">
        <ele>179</ele>
        <time>2015-08-04T10:51:41.693Z</time>
      </trkpt>
      <trkpt lat="45.92157" lon="4.75625">
        <ele>179</ele>
        <time>2015-08-04T10:51:42.744Z</time>
      </trkpt>
      <trkpt lat="45.92152" lon="4.7562">
        <ele>179.100006104</ele>
        <time>2015-08-04T10:51:43.695Z</time>
      </trkpt>
      <trkpt lat="45.92147" lon="4.75615">
        <ele>179</ele>
        <time>2015-08-04T10:51:44.736Z</time>
      </trkpt>
      <trkpt lat="45.92142" lon="4.7561">
        <ele>178.899993896</ele>
        <time>2015-08-04T10:51:45.694Z</time>
      </trkpt>
      <trkpt lat="45.92137" lon="4.75605">
        <ele>178.899993896</ele>
        <time>2015-08-04T10:51:46.736Z</time>
      </trkpt>
      <trkpt lat="45.92132" lon="4.75599">
        <ele>179</ele>
        <time>2015-08-04T10:51:47.693Z</time>
      </trkpt>
      <trkpt lat="45.92127" lon="4.75594">
        <ele>178.800003052</ele>
        <time>2015-08-04T10:51:48.733Z</time>
      </trkpt>
      <trkpt lat="45.92123" lon="4.75589">
        <ele>178.800003052</ele>
        <time>2015-08-04T10:51:49.698Z</time>
      </trkpt>
      <trkpt lat="45.9212" lon="4.75583">
        <ele>178.300003052</ele>
        <time>2015-08-04T10:51:50.734Z</time>
      </trkpt>
      <trkpt lat="45.92118" lon="4.75576">
        <ele>178.100006104</ele>
        <time>2015-08-04T10:51:51.694Z</time>
      </trkpt>
      <trkpt lat="45.92118" lon="4.75568">
        <ele>178</ele>
        <time>2015-08-04T10:51:52.733Z</time>
      </trkpt>
      <trkpt lat="45.92119" lon="4.75561">
        <ele>178</ele>
        <time>2015-08-04T10:51:53.693Z</time>
      </trkpt>
      <trkpt lat="45.92122" lon="4.75555">
        <ele>178.199996948</ele>
        <time>2015-08-04T10:51:54.733Z</time>
      </trkpt>
      <trkpt lat="45.92125" lon="4.75549">
        <ele>178.199996948</ele>
        <time>2015-08-04T10:51:55.693Z</time>
      </trkpt>
      <trkpt lat="45.92129" lon="4.75543">
        <ele>178.100006104</ele>
        <time>2015-08-04T10:51:56.727Z</time>
      </trkpt>
      <trkpt lat="45.92132" lon="4.75537">
        <ele>178.300003052</ele>
        <time>2015-08-04T10:51:57.732Z</time>
      </trkpt>
      <trkpt lat="45.92136" lon="4.75531">
        <ele>177.899993896</ele>
        <time>2015-08-04T10:51:58.736Z</time>
      </trkpt>
      <trkpt lat="45.9214" lon="4.75524">
        <ele>177.800003052</ele>
        <time>2015-08-04T10:51:59.695Z</time>
      </trkpt>
      <trkpt lat="45.92143" lon="4.75517">
        <ele>177.600006104</ele>
        <time>2015-08-04T10:52:00.732Z</time>
      </trkpt>
      <trkpt lat="45.92147" lon="4.75509">
        <ele>177.699996948</ele>
        <time>2015-08-04T10:52:01.693Z</time>
      </trkpt>
      <trkpt lat="45.9215" lon="4.75502">
        <ele>177.699996948</ele>
        <time>2015-08-04T10:52:02.751Z</time>
      </trkpt>
      <trkpt lat="45.92153" lon="4.75495">
        <ele>177.699996948</ele>
        <time>2015-08-04T10:52:03.694Z</time>
      </trkpt>
      <trkpt lat="45.92157" lon="4.75488">
        <ele>177.899993896</ele>
        <time>2015-08-04T10:52:04.734Z</time>
      </trkpt>
      <trkpt lat="45.9216" lon="4.7548">
        <ele>177.899993896</ele>
        <time>2015-08-04T10:52:05.693Z</time>
      </trkpt>
      <trkpt lat="45.92163" lon="4.75473">
        <ele>177.899993896</ele>
        <time>2015-08-04T10:52:06.733Z</time>
      </trkpt>
      <trkpt lat="45.92166" lon="4.75466">
        <ele>177.800003052</ele>
        <time>2015-08-04T10:52:07.741Z</time>
      </trkpt>
      <trkpt lat="45.92168" lon="4.75459">
        <ele>178</ele>
        <time>2015-08-04T10:52:08.746Z</time>
      </trkpt>
      <trkpt lat="45.92171" lon="4.75453">
        <ele>178.100006104</ele>
        <time>2015-08-04T10:52:09.695Z</time>
      </trkpt>
      <trkpt lat="45.92174" lon="4.75446">
        <ele>178.199996948</ele>
        <time>2015-08-04T10:52:10.734Z</time>
      </trkpt>
      <trkpt lat="45.92177" lon="4.75439">
        <ele>178.300003052</ele>
        <time>2015-08-04T10:52:11.693Z</time>
      </trkpt>
      <trkpt lat="45.92181" lon="4.75431">
        <ele>177.800003052</ele>
        <time>2015-08-04T10:52:12.731Z</time>
      </trkpt>
      <trkpt lat="45.92183" lon="4.75424">
        <ele>178.199996948</ele>
        <time>2015-08-04T10:52:13.693Z</time>
      </trkpt>
      <trkpt lat="45.92186" lon="4.75417">
        <ele>178.5</ele>
        <time>2015-08-04T10:52:14.767Z</time>
      </trkpt>
      <trkpt lat="45.92189" lon="4.75409">
        <ele>178.699996948</ele>
        <time>2015-08-04T10:52:15.721Z</time>
      </trkpt>
      <trkpt lat="45.9219" lon="4.75401">
        <ele>178.699996948</ele>
        <time>2015-08-04T10:52:16.846Z</time>
      </trkpt>
      <trkpt lat="45.92192" lon="4.75393">
        <ele>178.699996948</ele>
        <time>2015-08-04T10:52:17.695Z</time>
      </trkpt>
      <trkpt lat="45.92195" lon="4.75385">
        <ele>178.800003052</ele>
        <time>2015-08-04T10:52:18.732Z</time>
      </trkpt>
      <trkpt lat="45.92198" lon="4.75377">
        <ele>178.800003052</ele>
        <time>2015-08-04T10:52:19.693Z</time>
      </trkpt>
      <trkpt lat="45.922" lon="4.75369">
        <ele>178.800003052</ele>
        <time>2015-08-04T10:52:20.737Z</time>
      </trkpt>
      <trkpt lat="45.92203" lon="4.75361">
        <ele>179</ele>
        <time>2015-08-04T10:52:21.695Z</time>
      </trkpt>
      <trkpt lat="45.92205" lon="4.75353">
        <ele>178.5</ele>
        <time>2015-08-04T10:52:22.73Z</time>
      </trkpt>
      <trkpt lat="45.92208" lon="4.75344">
        <ele>178.600006104</ele>
        <time>2015-08-04T10:52:23.699Z</time>
      </trkpt>
      <trkpt lat="45.9221" lon="4.75335">
        <ele>178.699996948</ele>
        <time>2015-08-04T10:52:24.732Z</time>
      </trkpt>
      <trkpt lat="45.92212" lon="4.75325">
        <ele>178.600006104</ele>
        <time>2015-08-04T10:52:25.693Z</time>
      </trkpt>
      <trkpt lat="45.92213" lon="4.75316">
        <ele>178.5</ele>
        <time>2015-08-04T10:52:26.749Z</time>
      </trkpt>
      <trkpt lat="45.92213" lon="4.75306">
        <ele>178.600006104</ele>
        <time>2015-08-04T10:52:27.695Z</time>
      </trkpt>
      <trkpt lat="45.92214" lon="4.75297">
        <ele>178.399993896</ele>
        <time>2015-08-04T10:52:28.735Z</time>
      </trkpt>
      <trkpt lat="45.92214" lon="4.75286">
        <ele>178.100006104</ele>
        <time>2015-08-04T10:52:29.695Z</time>
      </trkpt>
      <trkpt lat="45.92214" lon="4.75276">
        <ele>177.800003052</ele>
        <time>2015-08-04T10:52:30.732Z</time>
      </trkpt>
      <trkpt lat="45.92214" lon="4.75265">
        <ele>178</ele>
        <time>2015-08-04T10:52:31.693Z</time>
      </trkpt>
      <trkpt lat="45.92214" lon="4.75255">
        <ele>177.899993896</ele>
        <time>2015-08-04T10:52:32.772Z</time>
      </trkpt>
      <trkpt lat="45.92215" lon="4.75245">
        <ele>177.899993896</ele>
        <time>2015-08-04T10:52:33.691Z</time>
      </trkpt>
      <trkpt lat="45.92216" lon="4.75234">
        <ele>177.699996948</ele>
        <time>2015-08-04T10:52:34.827Z</time>
      </trkpt>
      <trkpt lat="45.92217" lon="4.75224">
        <ele>177.600006104</ele>
        <time>2015-08-04T10:52:35.695Z</time>
      </trkpt>
      <trkpt lat="45.92219" lon="4.75213">
        <ele>177.5</ele>
        <time>2015-08-04T10:52:36.73Z</time>
      </trkpt>
      <trkpt lat="45.92221" lon="4.75203">
        <ele>177.399993896</ele>
        <time>2015-08-04T10:52:37.695Z</time>
      </trkpt>
      <trkpt lat="45.92224" lon="4.75192">
        <ele>177.399993896</ele>
        <time>2015-08-04T10:52:38.728Z</time>
      </trkpt>
      <trkpt lat="45.92227" lon="4.75183">
        <ele>177.5</ele>
        <time>2015-08-04T10:52:39.695Z</time>
      </trkpt>
      <trkpt lat="45.9223" lon="4.75173">
        <ele>177.5</ele>
        <time>2015-08-04T10:52:40.73Z</time>
      </trkpt>
      <trkpt lat="45.92234" lon="4.75164">
        <ele>177.100006104</ele>
        <time>2015-08-04T10:52:41.695Z</time>
      </trkpt>
      <trkpt lat="45.92238" lon="4.75155">
        <ele>177.300003052</ele>
        <time>2015-08-04T10:52:42.729Z</time>
      </trkpt>
      <trkpt lat="45.92243" lon="4.75146">
        <ele>177</ele>
        <time>2015-08-04T10:52:43.692Z</time>
      </trkpt>
      <trkpt lat="45.92248" lon="4.75139">
        <ele>177</ele>
        <time>2015-08-04T10:52:44.725Z</time>
      </trkpt>
      <trkpt lat="45.92253" lon="4.75131">
        <ele>177.100006104</ele>
        <time>2015-08-04T10:52:45.693Z</time>
      </trkpt>
      <trkpt lat="45.92258" lon="4.75124">
        <ele>176.899993896</ele>
        <time>2015-08-04T10:52:46.746Z</time>
      </trkpt>
      <trkpt lat="45.92264" lon="4.75118">
        <ele>176.800003052</ele>
        <time>2015-08-04T10:52:47.693Z</time>
      </trkpt>
      <trkpt lat="45.9227" lon="4.75111">
        <ele>176.600006104</ele>
        <time>2015-08-04T10:52:48.734Z</time>
      </trkpt>
      <trkpt lat="45.92276" lon="4.75105">
        <ele>176.600006104</ele>
        <time>2015-08-04T10:52:49.695Z</time>
      </trkpt>
      <trkpt lat="45.92282" lon="4.75099">
        <ele>176.600006104</ele>
        <time>2015-08-04T10:52:50.767Z</time>
      </trkpt>
      <trkpt lat="45.92287" lon="4.75093">
        <ele>176.699996948</ele>
        <time>2015-08-04T10:52:51.696Z</time>
      </trkpt>
      <trkpt lat="45.92292" lon="4.75087">
        <ele>176.600006104</ele>
        <time>2015-08-04T10:52:52.777Z</time>
      </trkpt>
      <trkpt lat="45.92297" lon="4.75081">
        <ele>176.699996948</ele>
        <time>2015-08-04T10:52:53.692Z</time>
      </trkpt>
      <trkpt lat="45.92303" lon="4.75075">
        <ele>176.600006104</ele>
        <time>2015-08-04T10:52:54.728Z</time>
      </trkpt>
      <trkpt lat="45.92308" lon="4.75068">
        <ele>176.199996948</ele>
        <time>2015-08-04T10:52:55.709Z</time>
      </trkpt>
      <trkpt lat="45.92313" lon="4.75061">
        <ele>176</ele>
        <time>2015-08-04T10:52:56.732Z</time>
      </trkpt>
      <trkpt lat="45.92318" lon="4.75054">
        <ele>175.899993896</ele>
        <time>2015-08-04T10:52:57.695Z</time>
      </trkpt>
      <trkpt lat="45.92324" lon="4.75046">
        <ele>176</ele>
        <time>2015-08-04T10:52:58.734Z</time>
      </trkpt>
      <trkpt lat="45.92328" lon="4.75039">
        <ele>176.100006104</ele>
        <time>2015-08-04T10:52:59.695Z</time>
      </trkpt>
      <trkpt lat="45.92332" lon="4.75031">
        <ele>176.100006104</ele>
        <time>2015-08-04T10:53:00.745Z</time>
      </trkpt>
      <trkpt lat="45.92337" lon="4.75023">
        <ele>176</ele>
        <time>2015-08-04T10:53:01.695Z</time>
      </trkpt>
      <trkpt lat="45.92341" lon="4.75014">
        <ele>175.699996948</ele>
        <time>2015-08-04T10:53:02.728Z</time>
      </trkpt>
      <trkpt lat="45.92344" lon="4.75005">
        <ele>175.699996948</ele>
        <time>2015-08-04T10:53:03.693Z</time>
      </trkpt>
      <trkpt lat="45.92347" lon="4.74997">
        <ele>175.600006104</ele>
        <time>2015-08-04T10:53:04.734Z</time>
      </trkpt>
      <trkpt lat="45.92352" lon="4.74987">
        <ele>175.300003052</ele>
        <time>2015-08-04T10:53:05.695Z</time>
      </trkpt>
      <trkpt lat="45.92355" lon="4.74978">
        <ele>174.800003052</ele>
        <time>2015-08-04T10:53:06.728Z</time>
      </trkpt>
      <trkpt lat="45.92359" lon="4.7497">
        <ele>174.699996948</ele>
        <time>2015-08-04T10:53:07.693Z</time>
      </trkpt>
      <trkpt lat="45.92362" lon="4.74962">
        <ele>174.800003052</ele>
        <time>2015-08-04T10:53:08.729Z</time>
      </trkpt>
      <trkpt lat="45.92365" lon="4.74954">
        <ele>174.699996948</ele>
        <time>2015-08-04T10:53:09.737Z</time>
      </trkpt>
      <trkpt lat="45.92368" lon="4.74946">
        <ele>174.800003052</ele>
        <time>2015-08-04T10:53:10.742Z</time>
      </trkpt>
      <trkpt lat="45.92371" lon="4.74938">
        <ele>174.899993896</ele>
        <time>2015-08-04T10:53:11.697Z</time>
      </trkpt>
      <trkpt lat="45.92374" lon="4.74929">
        <ele>174.399993896</ele>
        <time>2015-08-04T10:53:12.73Z</time>
      </trkpt>
      <trkpt lat="45.92377" lon="4.74921">
        <ele>174.5</ele>
        <time>2015-08-04T10:53:13.692Z</time>
      </trkpt>
      <trkpt lat="45.9238" lon="4.74912">
        <ele>174.5</ele>
        <time>2015-08-04T10:53:14.73Z</time>
      </trkpt>
      <trkpt lat="45.92383" lon="4.74904">
        <ele>174.300003052</ele>
        <time>2015-08-04T10:53:15.694Z</time>
      </trkpt>
      <trkpt lat="45.92386" lon="4.74895">
        <ele>174.100006104</ele>
        <time>2015-08-04T10:53:16.786Z</time>
      </trkpt>
      <trkpt lat="45.92389" lon="4.74887">
        <ele>173.800003052</ele>
        <time>2015-08-04T10:53:17.716Z</time>
      </trkpt>
      <trkpt lat="45.92392" lon="4.74879">
        <ele>173.899993896</ele>
        <time>2015-08-04T10:53:18.733Z</time>
      </trkpt>
      <trkpt lat="45.92395" lon="4.7487">
        <ele>173.800003052</ele>
        <time>2015-08-04T10:53:19.695Z</time>
      </trkpt>
      <trkpt lat="45.92398" lon="4.74862">
        <ele>173.800003052</ele>
        <time>2015-08-04T10:53:20.728Z</time>
      </trkpt>
      <trkpt lat="45.924" lon="4.74853">
        <ele>173.800003052</ele>
        <time>2015-08-04T10:53:21.695Z</time>
      </trkpt>
      <trkpt lat="45.92402" lon="4.74844">
        <ele>173.699996948</ele>
        <time>2015-08-04T10:53:22.734Z</time>
      </trkpt>
      <trkpt lat="45.92404" lon="4.74836">
        <ele>173.699996948</ele>
        <time>2015-08-04T10:53:23.695Z</time>
      </trkpt>
      <trkpt lat="45.92407" lon="4.74827">
        <ele>173.699996948</ele>
        <time>2015-08-04T10:53:24.74Z</time>
      </trkpt>
      <trkpt lat="45.92409" lon="4.74818">
        <ele>173.399993896</ele>
        <time>2015-08-04T10:53:25.733Z</time>
      </trkpt>
      <trkpt lat="45.92411" lon="4.74809">
        <ele>173.199996948</ele>
        <time>2015-08-04T10:53:26.762Z</time>
      </trkpt>
      <trkpt lat="45.92413" lon="4.748">
        <ele>173</ele>
        <time>2015-08-04T10:53:27.695Z</time>
      </trkpt>
      <trkpt lat="45.92415" lon="4.74792">
        <ele>172.899993896</ele>
        <time>2015-08-04T10:53:28.766Z</time>
      </trkpt>
      <trkpt lat="45.92418" lon="4.74783">
        <ele>172.800003052</ele>
        <time>2015-08-04T10:53:29.694Z</time>
      </trkpt>
      <trkpt lat="45.92419" lon="4.74775">
        <ele>173.399993896</ele>
        <time>2015-08-04T10:53:30.739Z</time>
      </trkpt>
      <trkpt lat="45.92422" lon="4.74766">
        <ele>173.5</ele>
        <time>2015-08-04T10:53:31.695Z</time>
      </trkpt>
      <trkpt lat="45.92424" lon="4.74758">
        <ele>173.300003052</ele>
        <time>2015-08-04T10:53:32.741Z</time>
      </trkpt>
      <trkpt lat="45.92426" lon="4.7475">
        <ele>173.300003052</ele>
        <time>2015-08-04T10:53:33.698Z</time>
      </trkpt>
      <trkpt lat="45.92428" lon="4.74742">
        <ele>173.5</ele>
        <time>2015-08-04T10:53:34.733Z</time>
      </trkpt>
      <trkpt lat="45.92431" lon="4.74734">
        <ele>173.399993896</ele>
        <time>2015-08-04T10:53:35.695Z</time>
      </trkpt>
      <trkpt lat="45.92434" lon="4.74724">
        <ele>173</ele>
        <time>2015-08-04T10:53:36.74Z</time>
      </trkpt>
      <trkpt lat="45.92436" lon="4.74715">
        <ele>172.100006104</ele>
        <time>2015-08-04T10:53:37.695Z</time>
      </trkpt>
      <trkpt lat="45.92439" lon="4.74708">
        <ele>172.100006104</ele>
        <time>2015-08-04T10:53:38.727Z</time>
      </trkpt>
      <trkpt lat="45.92442" lon="4.747">
        <ele>172.199996948</ele>
        <time>2015-08-04T10:53:39.693Z</time>
      </trkpt>
      <trkpt lat="45.92445" lon="4.74692">
        <ele>171.899993896</ele>
        <time>2015-08-04T10:53:40.826Z</time>
      </trkpt>
      <trkpt lat="45.92449" lon="4.74684">
        <ele>171.600006104</ele>
        <time>2015-08-04T10:53:41.694Z</time>
      </trkpt>
      <trkpt lat="45.92452" lon="4.74676">
        <ele>171.199996948</ele>
        <time>2015-08-04T10:53:42.732Z</time>
      </trkpt>
      <trkpt lat="45.92456" lon="4.74669">
        <ele>171</ele>
        <time>2015-08-04T10:53:43.694Z</time>
      </trkpt>
      <trkpt lat="45.9246" lon="4.74662">
        <ele>170.899993896</ele>
        <time>2015-08-04T10:53:44.734Z</time>
      </trkpt>
      <trkpt lat="45.92464" lon="4.74655">
        <ele>170.899993896</ele>
        <time>2015-08-04T10:53:45.694Z</time>
      </trkpt>
      <trkpt lat="45.92467" lon="4.74648">
        <ele>171</ele>
        <time>2015-08-04T10:53:46.764Z</time>
      </trkpt>
      <trkpt lat="45.92471" lon="4.74641">
        <ele>171.100006104</ele>
        <time>2015-08-04T10:53:47.694Z</time>
      </trkpt>
      <trkpt lat="45.92475" lon="4.74634">
        <ele>171.100006104</ele>
        <time>2015-08-04T10:53:48.731Z</time>
      </trkpt>
      <trkpt lat="45.92481" lon="4.74627">
        <ele>170.399993896</ele>
        <time>2015-08-04T10:53:49.694Z</time>
      </trkpt>
      <trkpt lat="45.92486" lon="4.7462">
        <ele>170.399993896</ele>
        <time>2015-08-04T10:53:50.726Z</time>
      </trkpt>
      <trkpt lat="45.92492" lon="4.74613">
        <ele>170.5</ele>
        <time>2015-08-04T10:53:51.693Z</time>
      </trkpt>
      <trkpt lat="45.92497" lon="4.74607">
        <ele>170.300003052</ele>
        <time>2015-08-04T10:53:52.73Z</time>
      </trkpt>
      <trkpt lat="45.92503" lon="4.74601">
        <ele>170</ele>
        <time>2015-08-04T10:53:53.692Z</time>
      </trkpt>
      <trkpt lat="45.92508" lon="4.74595">
        <ele>169.899993896</ele>
        <time>2015-08-04T10:53:54.727Z</time>
      </trkpt>
      <trkpt lat="45.92513" lon="4.7459">
        <ele>169.800003052</ele>
        <time>2015-08-04T10:53:55.693Z</time>
      </trkpt>
      <trkpt lat="45.92518" lon="4.74584">
        <ele>169.600006104</ele>
        <time>2015-08-04T10:53:56.77Z</time>
      </trkpt>
      <trkpt lat="45.92522" lon="4.74578">
        <ele>169.300003052</ele>
        <time>2015-08-04T10:53:57.694Z</time>
      </trkpt>
      <trkpt lat="45.92527" lon="4.74572">
        <ele>169</ele>
        <time>2015-08-04T10:53:58.754Z</time>
      </trkpt>
      <trkpt lat="45.92532" lon="4.74566">
        <ele>168.899993896</ele>
        <time>2015-08-04T10:53:59.693Z</time>
      </trkpt>
      <trkpt lat="45.92536" lon="4.7456">
        <ele>168.600006104</ele>
        <time>2015-08-04T10:54:00.763Z</time>
      </trkpt>
      <trkpt lat="45.92541" lon="4.74553">
        <ele>168.399993896</ele>
        <time>2015-08-04T10:54:01.695Z</time>
      </trkpt>
      <trkpt lat="45.92545" lon="4.74546">
        <ele>168.300003052</ele>
        <time>2015-08-04T10:54:02.747Z</time>
      </trkpt>
      <trkpt lat="45.9255" lon="4.74538">
        <ele>168.199996948</ele>
        <time>2015-08-04T10:54:03.692Z</time>
      </trkpt>
      <trkpt lat="45.92554" lon="4.74531">
        <ele>168.100006104</ele>
        <time>2015-08-04T10:54:04.731Z</time>
      </trkpt>
      <trkpt lat="45.92558" lon="4.74523">
        <ele>168.300003052</ele>
        <time>2015-08-04T10:54:05.694Z</time>
      </trkpt>
      <trkpt lat="45.92562" lon="4.74516">
        <ele>168.300003052</ele>
        <time>2015-08-04T10:54:06.731Z</time>
      </trkpt>
      <trkpt lat="45.92566" lon="4.74509">
        <ele>168.300003052</ele>
        <time>2015-08-04T10:54:07.693Z</time>
      </trkpt>
      <trkpt lat="45.92571" lon="4.74502">
        <ele>168.399993896</ele>
        <time>2015-08-04T10:54:08.728Z</time>
      </trkpt>
      <trkpt lat="45.92575" lon="4.74495">
        <ele>168.699996948</ele>
        <time>2015-08-04T10:54:09.696Z</time>
      </trkpt>
      <trkpt lat="45.92579" lon="4.74488">
        <ele>168.899993896</ele>
        <time>2015-08-04T10:54:10.734Z</time>
      </trkpt>
      <trkpt lat="45.92583" lon="4.74481">
        <ele>169.100006104</ele>
        <time>2015-08-04T10:54:11.695Z</time>
      </trkpt>
      <trkpt lat="45.92587" lon="4.74473">
        <ele>169.399993896</ele>
        <time>2015-08-04T10:54:12.732Z</time>
      </trkpt>
      <trkpt lat="45.92591" lon="4.74466">
        <ele>169.100006104</ele>
        <time>2015-08-04T10:54:13.691Z</time>
      </trkpt>
      <trkpt lat="45.92595" lon="4.74459">
        <ele>169.300003052</ele>
        <time>2015-08-04T10:54:14.746Z</time>
      </trkpt>
      <trkpt lat="45.92598" lon="4.74452">
        <ele>169.399993896</ele>
        <time>2015-08-04T10:54:15.693Z</time>
      </trkpt>
      <trkpt lat="45.92602" lon="4.74445">
        <ele>169.399993896</ele>
        <time>2015-08-04T10:54:16.73Z</time>
      </trkpt>
      <trkpt lat="45.92606" lon="4.74438">
        <ele>169.5</ele>
        <time>2015-08-04T10:54:17.695Z</time>
      </trkpt>
      <trkpt lat="45.9261" lon="4.74431">
        <ele>169.5</ele>
        <time>2015-08-04T10:54:18.729Z</time>
      </trkpt>
      <trkpt lat="45.92613" lon="4.74424">
        <ele>169.699996948</ele>
        <time>2015-08-04T10:54:19.695Z</time>
      </trkpt>
      <trkpt lat="45.92617" lon="4.74417">
        <ele>169.699996948</ele>
        <time>2015-08-04T10:54:20.732Z</time>
      </trkpt>
      <trkpt lat="45.92621" lon="4.7441">
        <ele>169.5</ele>
        <time>2015-08-04T10:54:21.693Z</time>
      </trkpt>
      <trkpt lat="45.92625" lon="4.74403">
        <ele>169.100006104</ele>
        <time>2015-08-04T10:54:22.731Z</time>
      </trkpt>
      <trkpt lat="45.92628" lon="4.74396">
        <ele>168.699996948</ele>
        <time>2015-08-04T10:54:23.693Z</time>
      </trkpt>
      <trkpt lat="45.92632" lon="4.74389">
        <ele>168.800003052</ele>
        <time>2015-08-04T10:54:24.731Z</time>
      </trkpt>
      <trkpt lat="45.92636" lon="4.74381">
        <ele>168.800003052</ele>
        <time>2015-08-04T10:54:25.692Z</time>
      </trkpt>
      <trkpt lat="45.9264" lon="4.74375">
        <ele>169.100006104</ele>
        <time>2015-08-04T10:54:26.732Z</time>
      </trkpt>
      <trkpt lat="45.92643" lon="4.74368">
        <ele>169.199996948</ele>
        <time>2015-08-04T10:54:27.695Z</time>
      </trkpt>
      <trkpt lat="45.92647" lon="4.74361">
        <ele>169.399993896</ele>
        <time>2015-08-04T10:54:28.731Z</time>
      </trkpt>
      <trkpt lat="45.92651" lon="4.74354">
        <ele>169.5</ele>
        <time>2015-08-04T10:54:29.695Z</time>
      </trkpt>
      <trkpt lat="45.92655" lon="4.74347">
        <ele>169.800003052</ele>
        <time>2015-08-04T10:54:30.728Z</time>
      </trkpt>
      <trkpt lat="45.92658" lon="4.74341">
        <ele>170</ele>
        <time>2015-08-04T10:54:31.695Z</time>
      </trkpt>
      <trkpt lat="45.92662" lon="4.74334">
        <ele>170.300003052</ele>
        <time>2015-08-04T10:54:32.729Z</time>
      </trkpt>
      <trkpt lat="45.92666" lon="4.74326">
        <ele>170.300003052</ele>
        <time>2015-08-04T10:54:33.698Z</time>
      </trkpt>
      <trkpt lat="45.9267" lon="4.7432">
        <ele>170.300003052</ele>
        <time>2015-08-04T10:54:34.729Z</time>
      </trkpt>
      <trkpt lat="45.92674" lon="4.74313">
        <ele>170.5</ele>
        <time>2015-08-04T10:54:35.715Z</time>
      </trkpt>
      <trkpt lat="45.92678" lon="4.74306">
        <ele>170.699996948</ele>
        <time>2015-08-04T10:54:36.743Z</time>
      </trkpt>
      <trkpt lat="45.92682" lon="4.74299">
        <ele>170.899993896</ele>
        <time>2015-08-04T10:54:37.695Z</time>
      </trkpt>
      <trkpt lat="45.92685" lon="4.74292">
        <ele>171.100006104</ele>
        <time>2015-08-04T10:54:38.726Z</time>
      </trkpt>
      <trkpt lat="45.92689" lon="4.74285">
        <ele>171.199996948</ele>
        <time>2015-08-04T10:54:39.693Z</time>
      </trkpt>
      <trkpt lat="45.92693" lon="4.74278">
        <ele>171.399993896</ele>
        <time>2015-08-04T10:54:40.776Z</time>
      </trkpt>
      <trkpt lat="45.92697" lon="4.74271">
        <ele>171.300003052</ele>
        <time>2015-08-04T10:54:41.694Z</time>
      </trkpt>
      <trkpt lat="45.92701" lon="4.74264">
        <ele>171.100006104</ele>
        <time>2015-08-04T10:54:42.731Z</time>
      </trkpt>
      <trkpt lat="45.92705" lon="4.74257">
        <ele>171.199996948</ele>
        <time>2015-08-04T10:54:43.699Z</time>
      </trkpt>
      <trkpt lat="45.92709" lon="4.7425">
        <ele>171.399993896</ele>
        <time>2015-08-04T10:54:44.729Z</time>
      </trkpt>
      <trkpt lat="45.92713" lon="4.74243">
        <ele>171.600006104</ele>
        <time>2015-08-04T10:54:45.693Z</time>
      </trkpt>
      <trkpt lat="45.92717" lon="4.74237">
        <ele>171.600006104</ele>
        <time>2015-08-04T10:54:46.732Z</time>
      </trkpt>
      <trkpt lat="45.92721" lon="4.7423">
        <ele>171.699996948</ele>
        <time>2015-08-04T10:54:47.695Z</time>
      </trkpt>
      <trkpt lat="45.92726" lon="4.74223">
        <ele>171.800003052</ele>
        <time>2015-08-04T10:54:48.728Z</time>
      </trkpt>
      <trkpt lat="45.9273" lon="4.74217">
        <ele>171.899993896</ele>
        <time>2015-08-04T10:54:49.695Z</time>
      </trkpt>
      <trkpt lat="45.92735" lon="4.74211">
        <ele>172.100006104</ele>
        <time>2015-08-04T10:54:50.725Z</time>
      </trkpt>
      <trkpt lat="45.92739" lon="4.74205">
        <ele>172.300003052</ele>
        <time>2015-08-04T10:54:51.695Z</time>
      </trkpt>
      <trkpt lat="45.92743" lon="4.74199">
        <ele>172.399993896</ele>
        <time>2015-08-04T10:54:52.733Z</time>
      </trkpt>
      <trkpt lat="45.92748" lon="4.74194">
        <ele>172.600006104</ele>
        <time>2015-08-04T10:54:53.725Z</time>
      </trkpt>
      <trkpt lat="45.92753" lon="4.74188">
        <ele>172.300003052</ele>
        <time>2015-08-04T10:54:54.727Z</time>
      </trkpt>
      <trkpt lat="45.92758" lon="4.74182">
        <ele>172</ele>
        <time>2015-08-04T10:54:55.695Z</time>
      </trkpt>
      <trkpt lat="45.92763" lon="4.74177">
        <ele>171.699996948</ele>
        <time>2015-08-04T10:54:56.742Z</time>
      </trkpt>
      <trkpt lat="45.92768" lon="4.74171">
        <ele>171.5</ele>
        <time>2015-08-04T10:54:57.695Z</time>
      </trkpt>
      <trkpt lat="45.92772" lon="4.74165">
        <ele>171.300003052</ele>
        <time>2015-08-04T10:54:58.757Z</time>
      </trkpt>
      <trkpt lat="45.92777" lon="4.74159">
        <ele>171.199996948</ele>
        <time>2015-08-04T10:54:59.756Z</time>
      </trkpt>
      <trkpt lat="45.92782" lon="4.74154">
        <ele>171</ele>
        <time>2015-08-04T10:55:00.731Z</time>
      </trkpt>
      <trkpt lat="45.92787" lon="4.74148">
        <ele>170.899993896</ele>
        <time>2015-08-04T10:55:01.698Z</time>
      </trkpt>
      <trkpt lat="45.92792" lon="4.74143">
        <ele>170.600006104</ele>
        <time>2015-08-04T10:55:02.73Z</time>
      </trkpt>
      <trkpt lat="45.92797" lon="4.74138">
        <ele>170.300003052</ele>
        <time>2015-08-04T10:55:03.692Z</time>
      </trkpt>
      <trkpt lat="45.92802" lon="4.74132">
        <ele>170</ele>
        <time>2015-08-04T10:55:04.734Z</time>
      </trkpt>
      <trkpt lat="45.92807" lon="4.74126">
        <ele>169.800003052</ele>
        <time>2015-08-04T10:55:05.692Z</time>
      </trkpt>
      <trkpt lat="45.92812" lon="4.7412">
        <ele>169.600006104</ele>
        <time>2015-08-04T10:55:06.731Z</time>
      </trkpt>
      <trkpt lat="45.92818" lon="4.74114">
        <ele>169.199996948</ele>
        <time>2015-08-04T10:55:07.692Z</time>
      </trkpt>
      <trkpt lat="45.92823" lon="4.74108">
        <ele>168.899993896</ele>
        <time>2015-08-04T10:55:08.731Z</time>
      </trkpt>
      <trkpt lat="45.92828" lon="4.74101">
        <ele>168.5</ele>
        <time>2015-08-04T10:55:09.692Z</time>
      </trkpt>
      <trkpt lat="45.92834" lon="4.74095">
        <ele>168.399993896</ele>
        <time>2015-08-04T10:55:10.762Z</time>
      </trkpt>
      <trkpt lat="45.92839" lon="4.74089">
        <ele>168.399993896</ele>
        <time>2015-08-04T10:55:11.695Z</time>
      </trkpt>
      <trkpt lat="45.92844" lon="4.74083">
        <ele>168.5</ele>
        <time>2015-08-04T10:55:12.73Z</time>
      </trkpt>
      <trkpt lat="45.92849" lon="4.74076">
        <ele>168.600006104</ele>
        <time>2015-08-04T10:55:13.698Z</time>
      </trkpt>
      <trkpt lat="45.92854" lon="4.7407">
        <ele>168.5</ele>
        <time>2015-08-04T10:55:14.729Z</time>
      </trkpt>
      <trkpt lat="45.92859" lon="4.74065">
        <ele>168.600006104</ele>
        <time>2015-08-04T10:55:15.693Z</time>
      </trkpt>
      <trkpt lat="45.92864" lon="4.74058">
        <ele>168.600006104</ele>
        <time>2015-08-04T10:55:16.728Z</time>
      </trkpt>
      <trkpt lat="45.92869" lon="4.74053">
        <ele>168.600006104</ele>
        <time>2015-08-04T10:55:17.695Z</time>
      </trkpt>
      <trkpt lat="45.92874" lon="4.74048">
        <ele>168.300003052</ele>
        <time>2015-08-04T10:55:18.727Z</time>
      </trkpt>
      <trkpt lat="45.92879" lon="4.74044">
        <ele>168.199996948</ele>
        <time>2015-08-04T10:55:19.693Z</time>
      </trkpt>
      <trkpt lat="45.92884" lon="4.74041">
        <ele>168.100006104</ele>
        <time>2015-08-04T10:55:20.729Z</time>
      </trkpt>
      <trkpt lat="45.92889" lon="4.74041">
        <ele>167.899993896</ele>
        <time>2015-08-04T10:55:21.693Z</time>
      </trkpt>
      <trkpt lat="45.92895" lon="4.74041">
        <ele>167.899993896</ele>
        <time>2015-08-04T10:55:22.732Z</time>
      </trkpt>
      <trkpt lat="45.92901" lon="4.7404">
        <ele>167.600006104</ele>
        <time>2015-08-04T10:55:23.692Z</time>
      </trkpt>
      <trkpt lat="45.92906" lon="4.74038">
        <ele>167.399993896</ele>
        <time>2015-08-04T10:55:24.786Z</time>
      </trkpt>
      <trkpt lat="45.92911" lon="4.74034">
        <ele>167.399993896</ele>
        <time>2015-08-04T10:55:25.694Z</time>
      </trkpt>
      <trkpt lat="45.92915" lon="4.74027">
        <ele>166.899993896</ele>
        <time>2015-08-04T10:55:26.786Z</time>
      </trkpt>
      <trkpt lat="45.92918" lon="4.7402">
        <ele>167.100006104</ele>
        <time>2015-08-04T10:55:27.716Z</time>
      </trkpt>
      <trkpt lat="45.92919" lon="4.74013">
        <ele>167.300003052</ele>
        <time>2015-08-04T10:55:28.769Z</time>
      </trkpt>
      <trkpt lat="45.92919" lon="4.74006">
        <ele>168.399993896</ele>
        <time>2015-08-04T10:55:29.693Z</time>
      </trkpt>
      <trkpt lat="45.92916" lon="4.73999">
        <ele>169.300003052</ele>
        <time>2015-08-04T10:55:30.73Z</time>
      </trkpt>
      <trkpt lat="45.92912" lon="4.73992">
        <ele>170.100006104</ele>
        <time>2015-08-04T10:55:31.693Z</time>
      </trkpt>
      <trkpt lat="45.92907" lon="4.73987">
        <ele>170.699996948</ele>
        <time>2015-08-04T10:55:32.895Z</time>
      </trkpt>
      <trkpt lat="45.92902" lon="4.73983">
        <ele>171.600006104</ele>
        <time>2015-08-04T10:55:33.698Z</time>
      </trkpt>
      <trkpt lat="45.92897" lon="4.73979">
        <ele>171.899993896</ele>
        <time>2015-08-04T10:55:34.734Z</time>
      </trkpt>
      <trkpt lat="45.92894" lon="4.73972">
        <ele>171.699996948</ele>
        <time>2015-08-04T10:55:35.694Z</time>
      </trkpt>
      <trkpt lat="45.92892" lon="4.73964">
        <ele>172</ele>
        <time>2015-08-04T10:55:36.732Z</time>
      </trkpt>
      <trkpt lat="45.9289" lon="4.73956">
        <ele>172</ele>
        <time>2015-08-04T10:55:37.695Z</time>
      </trkpt>
      <trkpt lat="45.92889" lon="4.73947">
        <ele>172</ele>
        <time>2015-08-04T10:55:38.733Z</time>
      </trkpt>
      <trkpt lat="45.92889" lon="4.73937">
        <ele>172.100006104</ele>
        <time>2015-08-04T10:55:39.693Z</time>
      </trkpt>
      <trkpt lat="45.92888" lon="4.73927">
        <ele>171.899993896</ele>
        <time>2015-08-04T10:55:40.738Z</time>
      </trkpt>
      <trkpt lat="45.92886" lon="4.73918">
        <ele>171.699996948</ele>
        <time>2015-08-04T10:55:41.693Z</time>
      </trkpt>
      <trkpt lat="45.92885" lon="4.73907">
        <ele>171.800003052</ele>
        <time>2015-08-04T10:55:42.731Z</time>
      </trkpt>
      <trkpt lat="45.92883" lon="4.73898">
        <ele>172</ele>
        <time>2015-08-04T10:55:43.698Z</time>
      </trkpt>
      <trkpt lat="45.9288" lon="4.73889">
        <ele>172</ele>
        <time>2015-08-04T10:55:44.727Z</time>
      </trkpt>
      <trkpt lat="45.92878" lon="4.7388">
        <ele>172.300003052</ele>
        <time>2015-08-04T10:55:45.693Z</time>
      </trkpt>
      <trkpt lat="45.92876" lon="4.73871">
        <ele>172.399993896</ele>
        <time>2015-08-04T10:55:46.733Z</time>
      </trkpt>
      <trkpt lat="45.92874" lon="4.73862">
        <ele>172.399993896</ele>
        <time>2015-08-04T10:55:47.694Z</time>
      </trkpt>
      <trkpt lat="45.92872" lon="4.73853">
        <ele>172.5</ele>
        <time>2015-08-04T10:55:48.753Z</time>
      </trkpt>
      <trkpt lat="45.92869" lon="4.73845">
        <ele>172.699996948</ele>
        <time>2015-08-04T10:55:49.715Z</time>
      </trkpt>
      <trkpt lat="45.92866" lon="4.73837">
        <ele>173.100006104</ele>
        <time>2015-08-04T10:55:50.771Z</time>
      </trkpt>
      <trkpt lat="45.92863" lon="4.73829">
        <ele>173.199996948</ele>
        <time>2015-08-04T10:55:51.695Z</time>
      </trkpt>
      <trkpt lat="45.9286" lon="4.73821">
        <ele>173.300003052</ele>
        <time>2015-08-04T10:55:52.734Z</time>
      </trkpt>
      <trkpt lat="45.92858" lon="4.73813">
        <ele>173.399993896</ele>
        <time>2015-08-04T10:55:53.698Z</time>
      </trkpt>
      <trkpt lat="45.92854" lon="4.73806">
        <ele>173.399993896</ele>
        <time>2015-08-04T10:55:54.741Z</time>
      </trkpt>
      <trkpt lat="45.92851" lon="4.738">
        <ele>173.699996948</ele>
        <time>2015-08-04T10:55:55.694Z</time>
      </trkpt>
      <trkpt lat="45.92846" lon="4.73795">
        <ele>173.699996948</ele>
        <time>2015-08-04T10:55:56.738Z</time>
      </trkpt>
      <trkpt lat="45.92841" lon="4.7379">
        <ele>174</ele>
        <time>2015-08-04T10:55:57.691Z</time>
      </trkpt>
      <trkpt lat="45.92836" lon="4.73786">
        <ele>174.100006104</ele>
        <time>2015-08-04T10:55:58.736Z</time>
      </trkpt>
      <trkpt lat="45.92831" lon="4.73783">
        <ele>174.100006104</ele>
        <time>2015-08-04T10:55:59.696Z</time>
      </trkpt>
      <trkpt lat="45.92828" lon="4.73779">
        <ele>175.100006104</ele>
        <time>2015-08-04T10:56:00.734Z</time>
      </trkpt>
      <trkpt lat="45.92823" lon="4.73776">
        <ele>175.399993896</ele>
        <time>2015-08-04T10:56:01.695Z</time>
      </trkpt>
      <trkpt lat="45.92819" lon="4.73772">
        <ele>175.5</ele>
        <time>2015-08-04T10:56:02.736Z</time>
      </trkpt>
      <trkpt lat="45.92814" lon="4.7377">
        <ele>175.5</ele>
        <time>2015-08-04T10:56:03.684Z</time>
      </trkpt>
      <trkpt lat="45.9281" lon="4.73767">
        <ele>175.699996948</ele>
        <time>2015-08-04T10:56:04.756Z</time>
      </trkpt>
      <trkpt lat="45.92805" lon="4.73764">
        <ele>175.800003052</ele>
        <time>2015-08-04T10:56:05.693Z</time>
      </trkpt>
      <trkpt lat="45.928" lon="4.73762">
        <ele>175.800003052</ele>
        <time>2015-08-04T10:56:06.728Z</time>
      </trkpt>
      <trkpt lat="45.92795" lon="4.73759">
        <ele>176</ele>
        <time>2015-08-04T10:56:07.695Z</time>
      </trkpt>
      <trkpt lat="45.92791" lon="4.73756">
        <ele>176.100006104</ele>
        <time>2015-08-04T10:56:08.728Z</time>
      </trkpt>
      <trkpt lat="45.92787" lon="4.73753">
        <ele>175.800003052</ele>
        <time>2015-08-04T10:56:09.694Z</time>
      </trkpt>
      <trkpt lat="45.92781" lon="4.73744">
        <ele>176.399993896</ele>
        <time>2015-08-04T10:56:11.739Z</time>
      </trkpt>
      <trkpt lat="45.92778" lon="4.73741">
        <ele>176.600006104</ele>
        <time>2015-08-04T10:56:12.743Z</time>
      </trkpt>
      <trkpt lat="45.92771" lon="4.73736">
        <ele>176.899993896</ele>
        <time>2015-08-04T10:56:14.744Z</time>
      </trkpt>
      <trkpt lat="45.92767" lon="4.73734">
        <ele>177.100006104</ele>
        <time>2015-08-04T10:56:15.693Z</time>
      </trkpt>
      <trkpt lat="45.92761" lon="4.73732">
        <ele>177.100006104</ele>
        <time>2015-08-04T10:56:16.734Z</time>
      </trkpt>
      <trkpt lat="45.92757" lon="4.73729">
        <ele>177.199996948</ele>
        <time>2015-08-04T10:56:17.695Z</time>
      </trkpt>
      <trkpt lat="45.92751" lon="4.73728">
        <ele>177.300003052</ele>
        <time>2015-08-04T10:56:18.732Z</time>
      </trkpt>
      <trkpt lat="45.92745" lon="4.73727">
        <ele>177.100006104</ele>
        <time>2015-08-04T10:56:19.696Z</time>
      </trkpt>
      <trkpt lat="45.92739" lon="4.73725">
        <ele>177.100006104</ele>
        <time>2015-08-04T10:56:20.776Z</time>
      </trkpt>
      <trkpt lat="45.92732" lon="4.73723">
        <ele>177.199996948</ele>
        <time>2015-08-04T10:56:21.695Z</time>
      </trkpt>
      <trkpt lat="45.92726" lon="4.73721">
        <ele>177.399993896</ele>
        <time>2015-08-04T10:56:22.733Z</time>
      </trkpt>
      <trkpt lat="45.9272" lon="4.7372">
        <ele>177.600006104</ele>
        <time>2015-08-04T10:56:23.69Z</time>
      </trkpt>
      <trkpt lat="45.92714" lon="4.73718">
        <ele>177.800003052</ele>
        <time>2015-08-04T10:56:24.735Z</time>
      </trkpt>
      <trkpt lat="45.92707" lon="4.73716">
        <ele>178.100006104</ele>
        <time>2015-08-04T10:56:25.709Z</time>
      </trkpt>
      <trkpt lat="45.927" lon="4.73714">
        <ele>178.600006104</ele>
        <time>2015-08-04T10:56:26.728Z</time>
      </trkpt>
      <trkpt lat="45.92695" lon="4.73712">
        <ele>179</ele>
        <time>2015-08-04T10:56:27.695Z</time>
      </trkpt>
      <trkpt lat="45.92689" lon="4.7371">
        <ele>179.399993896</ele>
        <time>2015-08-04T10:56:28.75Z</time>
      </trkpt>
      <trkpt lat="45.92683" lon="4.73708">
        <ele>179.399993896</ele>
        <time>2015-08-04T10:56:29.695Z</time>
      </trkpt>
      <trkpt lat="45.92678" lon="4.73707">
        <ele>179.399993896</ele>
        <time>2015-08-04T10:56:30.729Z</time>
      </trkpt>
      <trkpt lat="45.92672" lon="4.73705">
        <ele>179.399993896</ele>
        <time>2015-08-04T10:56:31.698Z</time>
      </trkpt>
      <trkpt lat="45.92667" lon="4.73702">
        <ele>179.300003052</ele>
        <time>2015-08-04T10:56:32.728Z</time>
      </trkpt>
      <trkpt lat="45.92661" lon="4.73699">
        <ele>179.300003052</ele>
        <time>2015-08-04T10:56:33.7Z</time>
      </trkpt>
      <trkpt lat="45.92655" lon="4.73695">
        <ele>179.399993896</ele>
        <time>2015-08-04T10:56:34.732Z</time>
      </trkpt>
      <trkpt lat="45.92651" lon="4.73689">
        <ele>179.399993896</ele>
        <time>2015-08-04T10:56:35.694Z</time>
      </trkpt>
      <trkpt lat="45.92647" lon="4.73684">
        <ele>179.399993896</ele>
        <time>2015-08-04T10:56:36.731Z</time>
      </trkpt>
      <trkpt lat="45.92643" lon="4.73678">
        <ele>179.399993896</ele>
        <time>2015-08-04T10:56:37.693Z</time>
      </trkpt>
      <trkpt lat="45.92638" lon="4.73672">
        <ele>179.399993896</ele>
        <time>2015-08-04T10:56:38.731Z</time>
      </trkpt>
      <trkpt lat="45.92635" lon="4.73665">
        <ele>179.600006104</ele>
        <time>2015-08-04T10:56:39.694Z</time>
      </trkpt>
      <trkpt lat="45.92632" lon="4.73658">
        <ele>180</ele>
        <time>2015-08-04T10:56:40.733Z</time>
      </trkpt>
      <trkpt lat="45.92629" lon="4.73651">
        <ele>180.399993896</ele>
        <time>2015-08-04T10:56:41.693Z</time>
      </trkpt>
      <trkpt lat="45.92628" lon="4.73643">
        <ele>180.600006104</ele>
        <time>2015-08-04T10:56:42.733Z</time>
      </trkpt>
      <trkpt lat="45.92624" lon="4.73636">
        <ele>180.800003052</ele>
        <time>2015-08-04T10:56:43.692Z</time>
      </trkpt>
      <trkpt lat="45.9262" lon="4.73631">
        <ele>181.300003052</ele>
        <time>2015-08-04T10:56:44.738Z</time>
      </trkpt>
      <trkpt lat="45.92616" lon="4.73627">
        <ele>181.399993896</ele>
        <time>2015-08-04T10:56:45.696Z</time>
      </trkpt>
      <trkpt lat="45.9261" lon="4.73625">
        <ele>181.600006104</ele>
        <time>2015-08-04T10:56:46.75Z</time>
      </trkpt>
      <trkpt lat="45.92603" lon="4.73624">
        <ele>181.899993896</ele>
        <time>2015-08-04T10:56:47.693Z</time>
      </trkpt>
      <trkpt lat="45.92597" lon="4.73624">
        <ele>182.300003052</ele>
        <time>2015-08-04T10:56:48.731Z</time>
      </trkpt>
      <trkpt lat="45.9259" lon="4.73624">
        <ele>182.699996948</ele>
        <time>2015-08-04T10:56:49.695Z</time>
      </trkpt>
      <trkpt lat="45.92584" lon="4.73624">
        <ele>183.199996948</ele>
        <time>2015-08-04T10:56:50.729Z</time>
      </trkpt>
      <trkpt lat="45.92577" lon="4.73625">
        <ele>183.699996948</ele>
        <time>2015-08-04T10:56:51.693Z</time>
      </trkpt>
      <trkpt lat="45.92571" lon="4.73625">
        <ele>184</ele>
        <time>2015-08-04T10:56:52.786Z</time>
      </trkpt>
      <trkpt lat="45.92564" lon="4.73626">
        <ele>183.899993896</ele>
        <time>2015-08-04T10:56:53.696Z</time>
      </trkpt>
      <trkpt lat="45.92558" lon="4.73628">
        <ele>183.699996948</ele>
        <time>2015-08-04T10:56:54.731Z</time>
      </trkpt>
      <trkpt lat="45.92552" lon="4.73629">
        <ele>183.5</ele>
        <time>2015-08-04T10:56:55.695Z</time>
      </trkpt>
      <trkpt lat="45.92546" lon="4.7363">
        <ele>183.600006104</ele>
        <time>2015-08-04T10:56:56.729Z</time>
      </trkpt>
      <trkpt lat="45.9254" lon="4.73632">
        <ele>183.600006104</ele>
        <time>2015-08-04T10:56:57.695Z</time>
      </trkpt>
      <trkpt lat="45.92534" lon="4.73633">
        <ele>183.800003052</ele>
        <time>2015-08-04T10:56:58.734Z</time>
      </trkpt>
      <trkpt lat="45.92529" lon="4.73635">
        <ele>183.899993896</ele>
        <time>2015-08-04T10:56:59.694Z</time>
      </trkpt>
      <trkpt lat="45.92523" lon="4.73636">
        <ele>184</ele>
        <time>2015-08-04T10:57:00.786Z</time>
      </trkpt>
      <trkpt lat="45.92518" lon="4.73636">
        <ele>184.199996948</ele>
        <time>2015-08-04T10:57:01.697Z</time>
      </trkpt>
      <trkpt lat="45.92512" lon="4.73637">
        <ele>184.300003052</ele>
        <time>2015-08-04T10:57:02.726Z</time>
      </trkpt>
      <trkpt lat="45.92506" lon="4.73637">
        <ele>184.399993896</ele>
        <time>2015-08-04T10:57:03.692Z</time>
      </trkpt>
      <trkpt lat="45.92502" lon="4.73637">
        <ele>184.5</ele>
        <time>2015-08-04T10:57:04.729Z</time>
      </trkpt>
      <trkpt lat="45.92497" lon="4.73637">
        <ele>184.399993896</ele>
        <time>2015-08-04T10:57:05.695Z</time>
      </trkpt>
      <trkpt lat="45.92492" lon="4.73637">
        <ele>184.399993896</ele>
        <time>2015-08-04T10:57:06.753Z</time>
      </trkpt>
      <trkpt lat="45.92488" lon="4.73638">
        <ele>184.399993896</ele>
        <time>2015-08-04T10:57:07.693Z</time>
      </trkpt>
      <trkpt lat="45.92479" lon="4.7364">
        <ele>184.199996948</ele>
        <time>2015-08-04T10:57:09.734Z</time>
      </trkpt>
      <trkpt lat="45.92475" lon="4.73643">
        <ele>184.100006104</ele>
        <time>2015-08-04T10:57:10.739Z</time>
      </trkpt>
      <trkpt lat="45.9247" lon="4.73647">
        <ele>183.800003052</ele>
        <time>2015-08-04T10:57:11.729Z</time>
      </trkpt>
      <trkpt lat="45.92467" lon="4.73652">
        <ele>183.600006104</ele>
        <time>2015-08-04T10:57:12.714Z</time>
      </trkpt>
      <trkpt lat="45.92465" lon="4.73657">
        <ele>183.899993896</ele>
        <time>2015-08-04T10:57:13.736Z</time>
      </trkpt>
      <trkpt lat="45.92462" lon="4.73663">
        <ele>184.399993896</ele>
        <time>2015-08-04T10:57:14.689Z</time>
      </trkpt>
      <trkpt lat="45.92459" lon="4.73674">
        <ele>185.199996948</ele>
        <time>2015-08-04T10:57:16.732Z</time>
      </trkpt>
      <trkpt lat="45.92458" lon="4.7368">
        <ele>185.699996948</ele>
        <time>2015-08-04T10:57:17.732Z</time>
      </trkpt>
      <trkpt lat="45.92458" lon="4.73692">
        <ele>185.899993896</ele>
        <time>2015-08-04T10:57:19.826Z</time>
      </trkpt>
      <trkpt lat="45.92458" lon="4.73697">
        <ele>185.899993896</ele>
        <time>2015-08-04T10:57:20.695Z</time>
      </trkpt>
      <trkpt lat="45.92457" lon="4.73702">
        <ele>186.100006104</ele>
        <time>2015-08-04T10:57:22.732Z</time>
      </trkpt>
      <trkpt lat="45.92457" lon="4.73703">
        <ele>186.199996948</ele>
        <time>2015-08-04T10:57:23.693Z</time>
      </trkpt>
      <trkpt lat="45.92456" lon="4.73707">
        <ele>188.5</ele>
        <time>2015-08-04T10:57:51.551Z</time>
      </trkpt>
    </trkseg>
  </trk>
</gpx>